<?xml version="1.0" encoding="UTF-8"?>
<gpx version="1.1" creator="https://www.youtrack.es" xsi:schemaLocation="http://www.topografix.com/GPX/1/1 http://www.topografix.com/GPX/1/1/gpx.xsd http://www.garmin.com/xmlschemas/GpxExtensions/v3 http://www.garmin.com/xmlschemas/GpxExtensionsv3.xsd http://www.garmin.com/xmlschemas/TrackPointExtension/v1 http://www.garmin.com/xmlschemas/TrackPointExtensionv1.xsd" xmlns:gpxtpx="http://www.garmin.com/xmlschemas/TrackPointExtension/v1" xmlns:gpxx="http://www.garmin.com/xmlschemas/GpxExtensions/v3" xmlns:xsi="http://www.w3.org/2001/XMLSchema-instance">
  <metadata>
    <link href="https://www.youtrack.es">
      <text>YouTrack.es</text>
    </link>
    <time>2026-05-07T22:46:17Z</time>
  </metadata>
  <trk>
    <src>https://www.youtrack.es</src>
    <link href="https://www.youtrack.es/ruta/16441-2020-10-05-268955028-cp0-cp1-leuven-kerk-ottenburg">
      <text>YouTrack.es</text>
    </link>
    <trkseg>
      <trkpt lat="50.881243" lon="4.714675">
        <ele>32.030406</ele>
        <time>2020-10-05T08:06:57.130Z</time>
      </trkpt>
      <trkpt lat="50.881234" lon="4.714622">
        <ele>32.030406</ele>
        <time>2020-10-05T08:06:59.531Z</time>
      </trkpt>
      <trkpt lat="50.881159" lon="4.714653">
        <ele>32.030406</ele>
        <time>2020-10-05T08:07:01.668Z</time>
      </trkpt>
      <trkpt lat="50.881090" lon="4.714681">
        <ele>32.030406</ele>
        <time>2020-10-05T08:07:03.211Z</time>
      </trkpt>
      <trkpt lat="50.880817" lon="4.714797">
        <ele>32.030406</ele>
        <time>2020-10-05T08:07:09.107Z</time>
      </trkpt>
      <trkpt lat="50.880668" lon="4.714874">
        <ele>32.030406</ele>
        <time>2020-10-05T08:07:13.455Z</time>
      </trkpt>
      <trkpt lat="50.880559" lon="4.714910">
        <ele>32.030406</ele>
        <time>2020-10-05T08:07:16.335Z</time>
      </trkpt>
      <trkpt lat="50.880529" lon="4.714736">
        <ele>32.030406</ele>
        <time>2020-10-05T08:07:19.003Z</time>
      </trkpt>
      <trkpt lat="50.880512" lon="4.714715">
        <ele>32.030406</ele>
        <time>2020-10-05T08:07:19.507Z</time>
      </trkpt>
      <trkpt lat="50.880398" lon="4.714567">
        <ele>32.256383</ele>
        <time>2020-10-05T08:07:22.978Z</time>
      </trkpt>
      <trkpt lat="50.879695" lon="4.713661">
        <ele>33.999432</ele>
        <time>2020-10-05T08:07:44.212Z</time>
      </trkpt>
      <trkpt lat="50.879101" lon="4.712883">
        <ele>35.481829</ele>
        <time>2020-10-05T08:08:01.214Z</time>
      </trkpt>
      <trkpt lat="50.879067" lon="4.712837">
        <ele>35.551575</ele>
        <time>2020-10-05T08:08:02.149Z</time>
      </trkpt>
      <trkpt lat="50.878320" lon="4.711871">
        <ele>37.016441</ele>
        <time>2020-10-05T08:08:22.412Z</time>
      </trkpt>
      <trkpt lat="50.878114" lon="4.711600">
        <ele>37.423215</ele>
        <time>2020-10-05T08:08:27.988Z</time>
      </trkpt>
      <trkpt lat="50.877942" lon="4.711376">
        <ele>37.761465</ele>
        <time>2020-10-05T08:08:32.578Z</time>
      </trkpt>
      <trkpt lat="50.877451" lon="4.710724">
        <ele>38.596103</ele>
        <time>2020-10-05T08:08:45.698Z</time>
      </trkpt>
      <trkpt lat="50.876997" lon="4.710136">
        <ele>39.245441</ele>
        <time>2020-10-05T08:08:57.571Z</time>
      </trkpt>
      <trkpt lat="50.876471" lon="4.709449">
        <ele>40.000309</ele>
        <time>2020-10-05T08:09:10.230Z</time>
      </trkpt>
      <trkpt lat="50.876445" lon="4.709419">
        <ele>40.035927</ele>
        <time>2020-10-05T08:09:11.059Z</time>
      </trkpt>
      <trkpt lat="50.875685" lon="4.708412">
        <ele>40.230217</ele>
        <time>2020-10-05T08:09:27.565Z</time>
      </trkpt>
      <trkpt lat="50.875571" lon="4.708262">
        <ele>40.232881</ele>
        <time>2020-10-05T08:09:29.904Z</time>
      </trkpt>
      <trkpt lat="50.875296" lon="4.707905">
        <ele>40.239273</ele>
        <time>2020-10-05T08:09:34.786Z</time>
      </trkpt>
      <trkpt lat="50.875245" lon="4.707838">
        <ele>40.240465</ele>
        <time>2020-10-05T08:09:35.687Z</time>
      </trkpt>
      <trkpt lat="50.875076" lon="4.707616">
        <ele>40.244412</ele>
        <time>2020-10-05T08:09:38.408Z</time>
      </trkpt>
      <trkpt lat="50.874956" lon="4.707456">
        <ele>40.247231</ele>
        <time>2020-10-05T08:09:40.466Z</time>
      </trkpt>
      <trkpt lat="50.874905" lon="4.707389">
        <ele>40.214044</ele>
        <time>2020-10-05T08:09:41.294Z</time>
      </trkpt>
      <trkpt lat="50.874807" lon="4.707259">
        <ele>40.112945</ele>
        <time>2020-10-05T08:09:42.892Z</time>
      </trkpt>
      <trkpt lat="50.874546" lon="4.706913">
        <ele>39.843762</ele>
        <time>2020-10-05T08:09:47.338Z</time>
      </trkpt>
      <trkpt lat="50.874517" lon="4.706875">
        <ele>39.813994</ele>
        <time>2020-10-05T08:09:47.829Z</time>
      </trkpt>
      <trkpt lat="50.874398" lon="4.706717">
        <ele>39.691185</ele>
        <time>2020-10-05T08:09:49.945Z</time>
      </trkpt>
      <trkpt lat="50.873976" lon="4.706140">
        <ele>39.250275</ele>
        <time>2020-10-05T08:09:57.075Z</time>
      </trkpt>
      <trkpt lat="50.873952" lon="4.706110">
        <ele>39.226094</ele>
        <time>2020-10-05T08:09:57.450Z</time>
      </trkpt>
      <trkpt lat="50.873658" lon="4.705721">
        <ele>38.923113</ele>
        <time>2020-10-05T08:10:02.094Z</time>
      </trkpt>
      <trkpt lat="50.873475" lon="4.705505">
        <ele>38.737929</ele>
        <time>2020-10-05T08:10:04.824Z</time>
      </trkpt>
      <trkpt lat="50.873032" lon="4.704910">
        <ele>38.252415</ele>
        <time>2020-10-05T08:10:11.841Z</time>
      </trkpt>
      <trkpt lat="50.872757" lon="4.704557">
        <ele>37.956530</ele>
        <time>2020-10-05T08:10:16.285Z</time>
      </trkpt>
      <trkpt lat="50.872151" lon="4.703777">
        <ele>37.304808</ele>
        <time>2020-10-05T08:10:26.347Z</time>
      </trkpt>
      <trkpt lat="50.872004" lon="4.703566">
        <ele>37.148686</ele>
        <time>2020-10-05T08:10:28.937Z</time>
      </trkpt>
      <trkpt lat="50.871842" lon="4.702655">
        <ele>36.678538</ele>
        <time>2020-10-05T08:10:36.612Z</time>
      </trkpt>
      <trkpt lat="50.871824" lon="4.702538">
        <ele>36.618717</ele>
        <time>2020-10-05T08:10:37.607Z</time>
      </trkpt>
      <trkpt lat="50.871756" lon="4.702125">
        <ele>36.406698</ele>
        <time>2020-10-05T08:10:40.992Z</time>
      </trkpt>
      <trkpt lat="50.871687" lon="4.701709">
        <ele>36.193038</ele>
        <time>2020-10-05T08:10:44.419Z</time>
      </trkpt>
      <trkpt lat="50.871655" lon="4.701505">
        <ele>36.088620</ele>
        <time>2020-10-05T08:10:46.185Z</time>
      </trkpt>
      <trkpt lat="50.871523" lon="4.700741">
        <ele>35.369395</ele>
        <time>2020-10-05T08:10:52.350Z</time>
      </trkpt>
      <trkpt lat="50.871491" lon="4.700396">
        <ele>34.927599</ele>
        <time>2020-10-05T08:10:54.982Z</time>
      </trkpt>
      <trkpt lat="50.871414" lon="4.699504">
        <ele>33.786949</ele>
        <time>2020-10-05T08:11:01.416Z</time>
      </trkpt>
      <trkpt lat="50.871012" lon="4.699436">
        <ele>32.975285</ele>
        <time>2020-10-05T08:11:05.676Z</time>
      </trkpt>
      <trkpt lat="50.870870" lon="4.699402">
        <ele>32.686962</ele>
        <time>2020-10-05T08:11:07.151Z</time>
      </trkpt>
      <trkpt lat="50.870224" lon="4.699275">
        <ele>30.991077</ele>
        <time>2020-10-05T08:11:13.730Z</time>
      </trkpt>
      <trkpt lat="50.869988" lon="4.699241">
        <ele>30.312855</ele>
        <time>2020-10-05T08:11:16.135Z</time>
      </trkpt>
      <trkpt lat="50.869875" lon="4.699224">
        <ele>29.987994</ele>
        <time>2020-10-05T08:11:17.286Z</time>
      </trkpt>
      <trkpt lat="50.869766" lon="4.699201">
        <ele>29.673280</ele>
        <time>2020-10-05T08:11:18.380Z</time>
      </trkpt>
      <trkpt lat="50.869602" lon="4.699165">
        <ele>29.199427</ele>
        <time>2020-10-05T08:11:20.122Z</time>
      </trkpt>
      <trkpt lat="50.869420" lon="4.699113">
        <ele>28.670141</ele>
        <time>2020-10-05T08:11:21.977Z</time>
      </trkpt>
      <trkpt lat="50.869278" lon="4.699046">
        <ele>28.246100</ele>
        <time>2020-10-05T08:11:23.554Z</time>
      </trkpt>
      <trkpt lat="50.869167" lon="4.698977">
        <ele>27.904846</ele>
        <time>2020-10-05T08:11:24.793Z</time>
      </trkpt>
      <trkpt lat="50.868849" lon="4.698731">
        <ele>27.076452</ele>
        <time>2020-10-05T08:11:28.578Z</time>
      </trkpt>
      <trkpt lat="50.868827" lon="4.698713">
        <ele>27.056958</ele>
        <time>2020-10-05T08:11:28.811Z</time>
      </trkpt>
      <trkpt lat="50.868755" lon="4.698647">
        <ele>26.991466</ele>
        <time>2020-10-05T08:11:29.730Z</time>
      </trkpt>
      <trkpt lat="50.868641" lon="4.698517">
        <ele>26.880882</ele>
        <time>2020-10-05T08:11:31.310Z</time>
      </trkpt>
      <trkpt lat="50.868611" lon="4.698398">
        <ele>26.817209</ele>
        <time>2020-10-05T08:11:32.211Z</time>
      </trkpt>
      <trkpt lat="50.868584" lon="4.698369">
        <ele>26.791527</ele>
        <time>2020-10-05T08:11:32.556Z</time>
      </trkpt>
      <trkpt lat="50.868470" lon="4.698240">
        <ele>26.681232</ele>
        <time>2020-10-05T08:11:34.161Z</time>
      </trkpt>
      <trkpt lat="50.868451" lon="4.698219">
        <ele>26.662992</ele>
        <time>2020-10-05T08:11:34.450Z</time>
      </trkpt>
      <trkpt lat="50.868315" lon="4.697994">
        <ele>26.508185</ele>
        <time>2020-10-05T08:11:36.833Z</time>
      </trkpt>
      <trkpt lat="50.868125" lon="4.697667">
        <ele>26.287323</ele>
        <time>2020-10-05T08:11:40.577Z</time>
      </trkpt>
      <trkpt lat="50.868093" lon="4.697612">
        <ele>26.250152</ele>
        <time>2020-10-05T08:11:41.184Z</time>
      </trkpt>
      <trkpt lat="50.868071" lon="4.697573">
        <ele>26.224160</ele>
        <time>2020-10-05T08:11:41.578Z</time>
      </trkpt>
      <trkpt lat="50.867592" lon="4.696709">
        <ele>25.912760</ele>
        <time>2020-10-05T08:11:52.951Z</time>
      </trkpt>
      <trkpt lat="50.867238" lon="4.696092">
        <ele>26.887474</ele>
        <time>2020-10-05T08:12:03.619Z</time>
      </trkpt>
      <trkpt lat="50.866964" lon="4.695605">
        <ele>27.650114</ele>
        <time>2020-10-05T08:12:12.817Z</time>
      </trkpt>
      <trkpt lat="50.866711" lon="4.695154">
        <ele>28.355462</ele>
        <time>2020-10-05T08:12:22.039Z</time>
      </trkpt>
      <trkpt lat="50.866646" lon="4.695037">
        <ele>28.537668</ele>
        <time>2020-10-05T08:12:24.490Z</time>
      </trkpt>
      <trkpt lat="50.866316" lon="4.694462">
        <ele>29.668397</ele>
        <time>2020-10-05T08:12:37.513Z</time>
      </trkpt>
      <trkpt lat="50.866147" lon="4.694165">
        <ele>30.406027</ele>
        <time>2020-10-05T08:12:44.363Z</time>
      </trkpt>
      <trkpt lat="50.865953" lon="4.693823">
        <ele>31.254235</ele>
        <time>2020-10-05T08:12:52.541Z</time>
      </trkpt>
      <trkpt lat="50.865088" lon="4.692304">
        <ele>34.682513</ele>
        <time>2020-10-05T08:13:27.355Z</time>
      </trkpt>
      <trkpt lat="50.864760" lon="4.691728">
        <ele>35.416601</ele>
        <time>2020-10-05T08:13:38.137Z</time>
      </trkpt>
      <trkpt lat="50.864021" lon="4.690432">
        <ele>37.026216</ele>
        <time>2020-10-05T08:13:59.081Z</time>
      </trkpt>
      <trkpt lat="50.863833" lon="4.690109">
        <ele>37.111595</ele>
        <time>2020-10-05T08:14:03.608Z</time>
      </trkpt>
      <trkpt lat="50.862376" lon="4.687554">
        <ele>37.469163</ele>
        <time>2020-10-05T08:14:37.199Z</time>
      </trkpt>
      <trkpt lat="50.862328" lon="4.687471">
        <ele>37.458873</ele>
        <time>2020-10-05T08:14:38.179Z</time>
      </trkpt>
      <trkpt lat="50.861502" lon="4.686033">
        <ele>37.365901</ele>
        <time>2020-10-05T08:14:55.034Z</time>
      </trkpt>
      <trkpt lat="50.861478" lon="4.685990">
        <ele>37.377002</ele>
        <time>2020-10-05T08:14:55.549Z</time>
      </trkpt>
      <trkpt lat="50.861299" lon="4.685679">
        <ele>37.458399</ele>
        <time>2020-10-05T08:14:59.179Z</time>
      </trkpt>
      <trkpt lat="50.861126" lon="4.685378">
        <ele>37.537128</ele>
        <time>2020-10-05T08:15:02.808Z</time>
      </trkpt>
      <trkpt lat="50.860186" lon="4.683740">
        <ele>38.016489</ele>
        <time>2020-10-05T08:15:27.599Z</time>
      </trkpt>
      <trkpt lat="50.860043" lon="4.683491">
        <ele>38.113106</ele>
        <time>2020-10-05T08:15:31.476Z</time>
      </trkpt>
      <trkpt lat="50.859941" lon="4.683313">
        <ele>38.182105</ele>
        <time>2020-10-05T08:15:34.184Z</time>
      </trkpt>
      <trkpt lat="50.859289" lon="4.682194">
        <ele>38.619179</ele>
        <time>2020-10-05T08:15:49.555Z</time>
      </trkpt>
      <trkpt lat="50.857932" lon="4.679805">
        <ele>39.325683</ele>
        <time>2020-10-05T08:16:20.746Z</time>
      </trkpt>
      <trkpt lat="50.857895" lon="4.679756">
        <ele>39.409028</ele>
        <time>2020-10-05T08:16:21.436Z</time>
      </trkpt>
      <trkpt lat="50.857818" lon="4.679739">
        <ele>39.543388</ele>
        <time>2020-10-05T08:16:23.352Z</time>
      </trkpt>
      <trkpt lat="50.857732" lon="4.679755">
        <ele>39.693037</ele>
        <time>2020-10-05T08:16:24.986Z</time>
      </trkpt>
      <trkpt lat="50.857692" lon="4.679765">
        <ele>39.763021</ele>
        <time>2020-10-05T08:16:25.881Z</time>
      </trkpt>
      <trkpt lat="50.857580" lon="4.679805">
        <ele>39.961441</ele>
        <time>2020-10-05T08:16:27.972Z</time>
      </trkpt>
      <trkpt lat="50.857471" lon="4.679806">
        <ele>40.149821</ele>
        <time>2020-10-05T08:16:31.096Z</time>
      </trkpt>
      <trkpt lat="50.855703" lon="4.680524">
        <ele>43.080207</ele>
        <time>2020-10-05T08:17:24.076Z</time>
      </trkpt>
      <trkpt lat="50.855599" lon="4.680488">
        <ele>43.224828</ele>
        <time>2020-10-05T08:17:26.604Z</time>
      </trkpt>
      <trkpt lat="50.855568" lon="4.680521">
        <ele>43.275568</ele>
        <time>2020-10-05T08:17:28.105Z</time>
      </trkpt>
      <trkpt lat="50.855112" lon="4.679642">
        <ele>44.251299</ele>
        <time>2020-10-05T08:17:45.253Z</time>
      </trkpt>
      <trkpt lat="50.854735" lon="4.679005">
        <ele>44.727849</ele>
        <time>2020-10-05T08:17:57.760Z</time>
      </trkpt>
      <trkpt lat="50.854305" lon="4.678374">
        <ele>44.799709</ele>
        <time>2020-10-05T08:18:10.936Z</time>
      </trkpt>
      <trkpt lat="50.853620" lon="4.677436">
        <ele>44.910715</ele>
        <time>2020-10-05T08:18:28.286Z</time>
      </trkpt>
      <trkpt lat="50.853234" lon="4.676973">
        <ele>45.002763</ele>
        <time>2020-10-05T08:18:37.597Z</time>
      </trkpt>
      <trkpt lat="50.852970" lon="4.676667">
        <ele>45.069772</ele>
        <time>2020-10-05T08:18:44.231Z</time>
      </trkpt>
      <trkpt lat="50.852607" lon="4.676246">
        <ele>45.161929</ele>
        <time>2020-10-05T08:18:53.796Z</time>
      </trkpt>
      <trkpt lat="50.852523" lon="4.676142">
        <ele>45.183768</ele>
        <time>2020-10-05T08:18:55.967Z</time>
      </trkpt>
      <trkpt lat="50.852292" lon="4.675905">
        <ele>45.240144</ele>
        <time>2020-10-05T08:19:02.095Z</time>
      </trkpt>
      <trkpt lat="50.852176" lon="4.675799">
        <ele>45.267576</ele>
        <time>2020-10-05T08:19:05.210Z</time>
      </trkpt>
      <trkpt lat="50.851974" lon="4.675704">
        <ele>45.309637</ele>
        <time>2020-10-05T08:19:10.330Z</time>
      </trkpt>
      <trkpt lat="50.851801" lon="4.675644">
        <ele>45.344008</ele>
        <time>2020-10-05T08:19:14.335Z</time>
      </trkpt>
      <trkpt lat="50.851397" lon="4.675552">
        <ele>45.423220</ele>
        <time>2020-10-05T08:19:23.308Z</time>
      </trkpt>
      <trkpt lat="50.851339" lon="4.675539">
        <ele>45.434589</ele>
        <time>2020-10-05T08:19:25.019Z</time>
      </trkpt>
      <trkpt lat="50.850811" lon="4.675379">
        <ele>45.538920</ele>
        <time>2020-10-05T08:19:34.914Z</time>
      </trkpt>
      <trkpt lat="50.850711" lon="4.675308">
        <ele>45.560188</ele>
        <time>2020-10-05T08:19:37.342Z</time>
      </trkpt>
      <trkpt lat="50.850552" lon="4.675176">
        <ele>45.595028</ele>
        <time>2020-10-05T08:19:41.049Z</time>
      </trkpt>
      <trkpt lat="50.850289" lon="4.674859">
        <ele>45.658700</ele>
        <time>2020-10-05T08:19:48.268Z</time>
      </trkpt>
      <trkpt lat="50.850243" lon="4.674809">
        <ele>45.669278</ele>
        <time>2020-10-05T08:19:49.262Z</time>
      </trkpt>
      <trkpt lat="50.849581" lon="4.674080">
        <ele>45.822153</ele>
        <time>2020-10-05T08:20:06.264Z</time>
      </trkpt>
      <trkpt lat="50.849566" lon="4.674064">
        <ele>45.825582</ele>
        <time>2020-10-05T08:20:06.727Z</time>
      </trkpt>
      <trkpt lat="50.849539" lon="4.674031">
        <ele>45.832048</ele>
        <time>2020-10-05T08:20:07.644Z</time>
      </trkpt>
      <trkpt lat="50.849488" lon="4.673978">
        <ele>45.843614</ele>
        <time>2020-10-05T08:20:08.901Z</time>
      </trkpt>
      <trkpt lat="50.849059" lon="4.673518">
        <ele>45.941841</ele>
        <time>2020-10-05T08:20:18.647Z</time>
      </trkpt>
      <trkpt lat="50.848980" lon="4.673426">
        <ele>45.960433</ele>
        <time>2020-10-05T08:20:20.383Z</time>
      </trkpt>
      <trkpt lat="50.848203" lon="4.672567">
        <ele>46.607362</ele>
        <time>2020-10-05T08:20:43.482Z</time>
      </trkpt>
      <trkpt lat="50.848167" lon="4.672526">
        <ele>46.640289</ele>
        <time>2020-10-05T08:20:44.730Z</time>
      </trkpt>
      <trkpt lat="50.847731" lon="4.672068">
        <ele>47.028798</ele>
        <time>2020-10-05T08:20:57.941Z</time>
      </trkpt>
      <trkpt lat="50.847089" lon="4.671363">
        <ele>47.331665</ele>
        <time>2020-10-05T08:21:14.561Z</time>
      </trkpt>
      <trkpt lat="50.846660" lon="4.670948">
        <ele>47.352177</ele>
        <time>2020-10-05T08:21:24.666Z</time>
      </trkpt>
      <trkpt lat="50.846297" lon="4.670674">
        <ele>47.368585</ele>
        <time>2020-10-05T08:21:32.637Z</time>
      </trkpt>
      <trkpt lat="50.846154" lon="4.670565">
        <ele>47.375061</ele>
        <time>2020-10-05T08:21:36.041Z</time>
      </trkpt>
      <trkpt lat="50.845464" lon="4.670189">
        <ele>47.284858</ele>
        <time>2020-10-05T08:21:50.170Z</time>
      </trkpt>
      <trkpt lat="50.844951" lon="4.670032">
        <ele>47.145296</ele>
        <time>2020-10-05T08:22:00.255Z</time>
      </trkpt>
      <trkpt lat="50.844661" lon="4.669988">
        <ele>47.067479</ele>
        <time>2020-10-05T08:22:06.237Z</time>
      </trkpt>
      <trkpt lat="50.843997" lon="4.669910">
        <ele>46.852754</ele>
        <time>2020-10-05T08:22:19.011Z</time>
      </trkpt>
      <trkpt lat="50.843639" lon="4.669852">
        <ele>46.568777</ele>
        <time>2020-10-05T08:22:25.444Z</time>
      </trkpt>
      <trkpt lat="50.843463" lon="4.669828">
        <ele>46.429379</ele>
        <time>2020-10-05T08:22:28.330Z</time>
      </trkpt>
      <trkpt lat="50.843023" lon="4.669739">
        <ele>46.079349</ele>
        <time>2020-10-05T08:22:35.939Z</time>
      </trkpt>
      <trkpt lat="50.842213" lon="4.669626">
        <ele>45.541251</ele>
        <time>2020-10-05T08:22:50.224Z</time>
      </trkpt>
      <trkpt lat="50.842109" lon="4.669611">
        <ele>45.624624</ele>
        <time>2020-10-05T08:22:51.945Z</time>
      </trkpt>
      <trkpt lat="50.841936" lon="4.669583">
        <ele>45.763460</ele>
        <time>2020-10-05T08:22:55.720Z</time>
      </trkpt>
      <trkpt lat="50.841417" lon="4.669350">
        <ele>46.194136</ele>
        <time>2020-10-05T08:23:07.196Z</time>
      </trkpt>
      <trkpt lat="50.841270" lon="4.669222">
        <ele>46.328066</ele>
        <time>2020-10-05T08:23:11.584Z</time>
      </trkpt>
      <trkpt lat="50.840975" lon="4.668847">
        <ele>46.630074</ele>
        <time>2020-10-05T08:23:21.285Z</time>
      </trkpt>
      <trkpt lat="50.840518" lon="4.668000">
        <ele>47.708504</ele>
        <time>2020-10-05T08:23:41.228Z</time>
      </trkpt>
      <trkpt lat="50.840256" lon="4.667580">
        <ele>48.583090</ele>
        <time>2020-10-05T08:23:52.532Z</time>
      </trkpt>
      <trkpt lat="50.839852" lon="4.666970">
        <ele>49.892616</ele>
        <time>2020-10-05T08:24:09.867Z</time>
      </trkpt>
      <trkpt lat="50.839610" lon="4.666749">
        <ele>50.547970</ele>
        <time>2020-10-05T08:24:18.353Z</time>
      </trkpt>
      <trkpt lat="50.839069" lon="4.666497">
        <ele>51.824035</ele>
        <time>2020-10-05T08:24:34.899Z</time>
      </trkpt>
      <trkpt lat="50.838884" lon="4.666479">
        <ele>52.230800</ele>
        <time>2020-10-05T08:24:40.335Z</time>
      </trkpt>
      <trkpt lat="50.838432" lon="4.666488">
        <ele>53.222834</ele>
        <time>2020-10-05T08:24:53.219Z</time>
      </trkpt>
      <trkpt lat="50.837936" lon="4.666511">
        <ele>54.311819</ele>
        <time>2020-10-05T08:25:08.092Z</time>
      </trkpt>
      <trkpt lat="50.837362" lon="4.666353">
        <ele>55.407254</ele>
        <time>2020-10-05T08:25:24.391Z</time>
      </trkpt>
      <trkpt lat="50.837200" lon="4.666248">
        <ele>55.650265</ele>
        <time>2020-10-05T08:25:29.345Z</time>
      </trkpt>
      <trkpt lat="50.837057" lon="4.666121">
        <ele>55.877882</ele>
        <time>2020-10-05T08:25:33.096Z</time>
      </trkpt>
      <trkpt lat="50.836909" lon="4.665974">
        <ele>56.120422</ele>
        <time>2020-10-05T08:25:37.981Z</time>
      </trkpt>
      <trkpt lat="50.836533" lon="4.665504">
        <ele>56.785460</ele>
        <time>2020-10-05T08:25:49.710Z</time>
      </trkpt>
      <trkpt lat="50.836340" lon="4.665260">
        <ele>57.128322</ele>
        <time>2020-10-05T08:25:56.047Z</time>
      </trkpt>
      <trkpt lat="50.836289" lon="4.665198">
        <ele>57.217585</ele>
        <time>2020-10-05T08:25:57.552Z</time>
      </trkpt>
      <trkpt lat="50.835946" lon="4.664764">
        <ele>57.846427</ele>
        <time>2020-10-05T08:26:08.402Z</time>
      </trkpt>
      <trkpt lat="50.835555" lon="4.664243">
        <ele>58.613368</ele>
        <time>2020-10-05T08:26:20.838Z</time>
      </trkpt>
      <trkpt lat="50.834489" lon="4.662360">
        <ele>61.328449</ele>
        <time>2020-10-05T08:27:04.323Z</time>
      </trkpt>
      <trkpt lat="50.834271" lon="4.662072">
        <ele>61.942375</ele>
        <time>2020-10-05T08:27:12.953Z</time>
      </trkpt>
      <trkpt lat="50.834223" lon="4.662007">
        <ele>62.078951</ele>
        <time>2020-10-05T08:27:14.666Z</time>
      </trkpt>
      <trkpt lat="50.833999" lon="4.661770">
        <ele>62.661506</ele>
        <time>2020-10-05T08:27:22.838Z</time>
      </trkpt>
      <trkpt lat="50.833847" lon="4.661608">
        <ele>63.057708</ele>
        <time>2020-10-05T08:27:28.208Z</time>
      </trkpt>
      <trkpt lat="50.833191" lon="4.660854">
        <ele>64.439984</ele>
        <time>2020-10-05T08:27:52.142Z</time>
      </trkpt>
      <trkpt lat="50.833148" lon="4.660808">
        <ele>64.486498</ele>
        <time>2020-10-05T08:27:53.974Z</time>
      </trkpt>
      <trkpt lat="50.833111" lon="4.660769">
        <ele>64.526339</ele>
        <time>2020-10-05T08:27:55.273Z</time>
      </trkpt>
      <trkpt lat="50.832496" lon="4.660112">
        <ele>65.191315</ele>
        <time>2020-10-05T08:28:14.689Z</time>
      </trkpt>
      <trkpt lat="50.832091" lon="4.659737">
        <ele>65.611843</ele>
        <time>2020-10-05T08:28:24.278Z</time>
      </trkpt>
      <trkpt lat="50.831403" lon="4.659218">
        <ele>64.242781</ele>
        <time>2020-10-05T08:28:37.077Z</time>
      </trkpt>
      <trkpt lat="50.830898" lon="4.658836">
        <ele>62.706484</ele>
        <time>2020-10-05T08:28:45.380Z</time>
      </trkpt>
      <trkpt lat="50.829982" lon="4.657987">
        <ele>59.661276</ele>
        <time>2020-10-05T08:29:00.176Z</time>
      </trkpt>
      <trkpt lat="50.829850" lon="4.657856">
        <ele>59.180512</ele>
        <time>2020-10-05T08:29:02.336Z</time>
      </trkpt>
      <trkpt lat="50.829426" lon="4.657462">
        <ele>57.663326</ele>
        <time>2020-10-05T08:29:09.356Z</time>
      </trkpt>
      <trkpt lat="50.829192" lon="4.657232">
        <ele>56.813359</ele>
        <time>2020-10-05T08:29:13.478Z</time>
      </trkpt>
      <trkpt lat="50.828846" lon="4.656917">
        <ele>55.581657</ele>
        <time>2020-10-05T08:29:19.703Z</time>
      </trkpt>
      <trkpt lat="50.828749" lon="4.656821">
        <ele>55.283172</ele>
        <time>2020-10-05T08:29:21.533Z</time>
      </trkpt>
      <trkpt lat="50.828148" lon="4.656242">
        <ele>54.726366</ele>
        <time>2020-10-05T08:29:33.807Z</time>
      </trkpt>
      <trkpt lat="50.826984" lon="4.655135">
        <ele>52.898855</ele>
        <time>2020-10-05T08:30:01.077Z</time>
      </trkpt>
      <trkpt lat="50.826116" lon="4.654308">
        <ele>49.435359</ele>
        <time>2020-10-05T08:30:15.708Z</time>
      </trkpt>
      <trkpt lat="50.825663" lon="4.653884">
        <ele>47.586281</ele>
        <time>2020-10-05T08:30:22.687Z</time>
      </trkpt>
      <trkpt lat="50.825409" lon="4.653654">
        <ele>46.049138</ele>
        <time>2020-10-05T08:30:26.555Z</time>
      </trkpt>
      <trkpt lat="50.825068" lon="4.653451">
        <ele>44.135361</ele>
        <time>2020-10-05T08:30:31.287Z</time>
      </trkpt>
      <trkpt lat="50.824879" lon="4.653362">
        <ele>43.099531</ele>
        <time>2020-10-05T08:30:33.738Z</time>
      </trkpt>
      <trkpt lat="50.823654" lon="4.652841">
        <ele>38.467785</ele>
        <time>2020-10-05T08:30:51.212Z</time>
      </trkpt>
      <trkpt lat="50.823529" lon="4.652791">
        <ele>38.536444</ele>
        <time>2020-10-05T08:30:53.135Z</time>
      </trkpt>
      <trkpt lat="50.823500" lon="4.652779">
        <ele>38.552407</ele>
        <time>2020-10-05T08:30:53.663Z</time>
      </trkpt>
      <trkpt lat="50.823380" lon="4.652742">
        <ele>38.617512</ele>
        <time>2020-10-05T08:30:57.186Z</time>
      </trkpt>
      <trkpt lat="50.822841" lon="4.652644">
        <ele>38.906435</ele>
        <time>2020-10-05T08:31:11.663Z</time>
      </trkpt>
      <trkpt lat="50.822297" lon="4.652449">
        <ele>39.203469</ele>
        <time>2020-10-05T08:31:29.838Z</time>
      </trkpt>
      <trkpt lat="50.822120" lon="4.652317">
        <ele>39.697640</ele>
        <time>2020-10-05T08:31:36.023Z</time>
      </trkpt>
      <trkpt lat="50.821799" lon="4.652077">
        <ele>40.954767</ele>
        <time>2020-10-05T08:31:49.666Z</time>
      </trkpt>
      <trkpt lat="50.820922" lon="4.651403">
        <ele>44.407038</ele>
        <time>2020-10-05T08:32:24.314Z</time>
      </trkpt>
      <trkpt lat="50.820749" lon="4.651306">
        <ele>45.056955</ele>
        <time>2020-10-05T08:32:30.714Z</time>
      </trkpt>
      <trkpt lat="50.820383" lon="4.651178">
        <ele>46.060464</ele>
        <time>2020-10-05T08:32:42.520Z</time>
      </trkpt>
      <trkpt lat="50.820058" lon="4.651172">
        <ele>46.731369</ele>
        <time>2020-10-05T08:32:52.136Z</time>
      </trkpt>
      <trkpt lat="50.819803" lon="4.651232">
        <ele>47.263519</ele>
        <time>2020-10-05T08:32:59.741Z</time>
      </trkpt>
      <trkpt lat="50.818753" lon="4.651737">
        <ele>49.189175</ele>
        <time>2020-10-05T08:33:30.124Z</time>
      </trkpt>
      <trkpt lat="50.818319" lon="4.651872">
        <ele>48.612425</ele>
        <time>2020-10-05T08:33:39.766Z</time>
      </trkpt>
      <trkpt lat="50.817744" lon="4.651903">
        <ele>47.862205</ele>
        <time>2020-10-05T08:33:49.642Z</time>
      </trkpt>
      <trkpt lat="50.817147" lon="4.651836">
        <ele>47.081777</ele>
        <time>2020-10-05T08:33:58.319Z</time>
      </trkpt>
      <trkpt lat="50.816709" lon="4.651792">
        <ele>45.975410</ele>
        <time>2020-10-05T08:34:04.522Z</time>
      </trkpt>
      <trkpt lat="50.816294" lon="4.651715">
        <ele>44.805794</ele>
        <time>2020-10-05T08:34:10.475Z</time>
      </trkpt>
      <trkpt lat="50.816076" lon="4.651647">
        <ele>44.183834</ele>
        <time>2020-10-05T08:34:13.592Z</time>
      </trkpt>
      <trkpt lat="50.815621" lon="4.651453">
        <ele>42.864801</ele>
        <time>2020-10-05T08:34:20.622Z</time>
      </trkpt>
      <trkpt lat="50.815280" lon="4.651271">
        <ele>41.978010</ele>
        <time>2020-10-05T08:34:26.556Z</time>
      </trkpt>
      <trkpt lat="50.814730" lon="4.650991">
        <ele>42.707916</ele>
        <time>2020-10-05T08:34:38.236Z</time>
      </trkpt>
      <trkpt lat="50.814623" lon="4.650925">
        <ele>42.852998</ele>
        <time>2020-10-05T08:34:41.075Z</time>
      </trkpt>
      <trkpt lat="50.814539" lon="4.650870">
        <ele>42.967842</ele>
        <time>2020-10-05T08:34:43.611Z</time>
      </trkpt>
      <trkpt lat="50.814402" lon="4.650764">
        <ele>43.160497</ele>
        <time>2020-10-05T08:34:48.030Z</time>
      </trkpt>
      <trkpt lat="50.814029" lon="4.650487">
        <ele>43.681024</ele>
        <time>2020-10-05T08:34:58.174Z</time>
      </trkpt>
      <trkpt lat="50.813632" lon="4.650281">
        <ele>44.208843</ele>
        <time>2020-10-05T08:35:09.211Z</time>
      </trkpt>
      <trkpt lat="50.813073" lon="4.650110">
        <ele>45.058386</ele>
        <time>2020-10-05T08:35:23.366Z</time>
      </trkpt>
      <trkpt lat="50.812259" lon="4.649943">
        <ele>46.284200</ele>
        <time>2020-10-05T08:35:40.320Z</time>
      </trkpt>
      <trkpt lat="50.811717" lon="4.649972">
        <ele>46.821406</ele>
        <time>2020-10-05T08:35:49.291Z</time>
      </trkpt>
      <trkpt lat="50.810912" lon="4.650230">
        <ele>46.333787</ele>
        <time>2020-10-05T08:36:00.846Z</time>
      </trkpt>
      <trkpt lat="50.809282" lon="4.650796">
        <ele>44.499494</ele>
        <time>2020-10-05T08:36:20.324Z</time>
      </trkpt>
      <trkpt lat="50.808839" lon="4.650964">
        <ele>43.761625</ele>
        <time>2020-10-05T08:36:27.534Z</time>
      </trkpt>
      <trkpt lat="50.808356" lon="4.651182">
        <ele>42.948083</ele>
        <time>2020-10-05T08:36:35.573Z</time>
      </trkpt>
      <trkpt lat="50.807736" lon="4.651483">
        <ele>42.353038</ele>
        <time>2020-10-05T08:36:46.075Z</time>
      </trkpt>
      <trkpt lat="50.806470" lon="4.651700">
        <ele>41.409595</ele>
        <time>2020-10-05T08:37:09.244Z</time>
      </trkpt>
      <trkpt lat="50.806089" lon="4.651826">
        <ele>41.799028</ele>
        <time>2020-10-05T08:37:17.924Z</time>
      </trkpt>
      <trkpt lat="50.805760" lon="4.652086">
        <ele>42.166965</ele>
        <time>2020-10-05T08:37:27.339Z</time>
      </trkpt>
      <trkpt lat="50.805081" lon="4.652852">
        <ele>43.001287</ele>
        <time>2020-10-05T08:37:49.460Z</time>
      </trkpt>
      <trkpt lat="50.804723" lon="4.653080">
        <ele>43.057597</ele>
        <time>2020-10-05T08:37:59.652Z</time>
      </trkpt>
      <trkpt lat="50.804476" lon="4.653143">
        <ele>43.016049</ele>
        <time>2020-10-05T08:38:05.937Z</time>
      </trkpt>
      <trkpt lat="50.804264" lon="4.653197">
        <ele>42.980390</ele>
        <time>2020-10-05T08:38:11.188Z</time>
      </trkpt>
      <trkpt lat="50.803876" lon="4.653284">
        <ele>42.915313</ele>
        <time>2020-10-05T08:38:18.658Z</time>
      </trkpt>
      <trkpt lat="50.803732" lon="4.653313">
        <ele>42.891207</ele>
        <time>2020-10-05T08:38:21.165Z</time>
      </trkpt>
      <trkpt lat="50.803683" lon="4.653318">
        <ele>42.883053</ele>
        <time>2020-10-05T08:38:21.910Z</time>
      </trkpt>
      <trkpt lat="50.803637" lon="4.653321">
        <ele>42.875408</ele>
        <time>2020-10-05T08:38:22.638Z</time>
      </trkpt>
      <trkpt lat="50.803602" lon="4.653321">
        <ele>42.869595</ele>
        <time>2020-10-05T08:38:23.252Z</time>
      </trkpt>
      <trkpt lat="50.803569" lon="4.653321">
        <ele>42.864115</ele>
        <time>2020-10-05T08:38:23.836Z</time>
      </trkpt>
      <trkpt lat="50.803484" lon="4.653311">
        <ele>42.849961</ele>
        <time>2020-10-05T08:38:25.285Z</time>
      </trkpt>
      <trkpt lat="50.803298" lon="4.653226">
        <ele>42.817810</ele>
        <time>2020-10-05T08:38:28.313Z</time>
      </trkpt>
      <trkpt lat="50.803246" lon="4.653191">
        <ele>42.808426</ele>
        <time>2020-10-05T08:38:29.280Z</time>
      </trkpt>
      <trkpt lat="50.803197" lon="4.653154">
        <ele>42.720549</ele>
        <time>2020-10-05T08:38:30.203Z</time>
      </trkpt>
      <trkpt lat="50.803041" lon="4.653041">
        <ele>42.343319</ele>
        <time>2020-10-05T08:38:32.963Z</time>
      </trkpt>
      <trkpt lat="50.802812" lon="4.653017">
        <ele>41.838712</ele>
        <time>2020-10-05T08:38:36.480Z</time>
      </trkpt>
      <trkpt lat="50.802780" lon="4.652995">
        <ele>41.761999</ele>
        <time>2020-10-05T08:38:36.997Z</time>
      </trkpt>
      <trkpt lat="50.802763" lon="4.652946">
        <ele>41.684325</ele>
        <time>2020-10-05T08:38:37.519Z</time>
      </trkpt>
      <trkpt lat="50.802757" lon="4.652863">
        <ele>41.568239</ele>
        <time>2020-10-05T08:38:38.360Z</time>
      </trkpt>
      <trkpt lat="50.802755" lon="4.652733">
        <ele>41.387542</ele>
        <time>2020-10-05T08:38:39.564Z</time>
      </trkpt>
      <trkpt lat="50.802767" lon="4.652166">
        <ele>40.599218</ele>
        <time>2020-10-05T08:38:45.071Z</time>
      </trkpt>
      <trkpt lat="50.802773" lon="4.652016">
        <ele>40.390366</ele>
        <time>2020-10-05T08:38:46.575Z</time>
      </trkpt>
      <trkpt lat="50.802775" lon="4.651967">
        <ele>40.322135</ele>
        <time>2020-10-05T08:38:47.089Z</time>
      </trkpt>
      <trkpt lat="50.802779" lon="4.651848">
        <ele>40.156543</ele>
        <time>2020-10-05T08:38:48.242Z</time>
      </trkpt>
      <trkpt lat="50.802707" lon="4.651839">
        <ele>39.997743</ele>
        <time>2020-10-05T08:38:49.065Z</time>
      </trkpt>
      <trkpt lat="50.801740" lon="4.651629">
        <ele>38.076862</ele>
        <time>2020-10-05T08:38:59.410Z</time>
      </trkpt>
      <trkpt lat="50.801251" lon="4.651490">
        <ele>37.230608</ele>
        <time>2020-10-05T08:39:05.260Z</time>
      </trkpt>
      <trkpt lat="50.800925" lon="4.651390">
        <ele>36.664990</ele>
        <time>2020-10-05T08:39:09.314Z</time>
      </trkpt>
      <trkpt lat="50.800614" lon="4.651227">
        <ele>36.106953</ele>
        <time>2020-10-05T08:39:13.048Z</time>
      </trkpt>
      <trkpt lat="50.800090" lon="4.650890">
        <ele>35.086586</ele>
        <time>2020-10-05T08:39:22.135Z</time>
      </trkpt>
      <trkpt lat="50.799627" lon="4.650652">
        <ele>34.184091</ele>
        <time>2020-10-05T08:39:29.790Z</time>
      </trkpt>
      <trkpt lat="50.799378" lon="4.650561">
        <ele>33.710329</ele>
        <time>2020-10-05T08:39:33.771Z</time>
      </trkpt>
      <trkpt lat="50.799309" lon="4.650543">
        <ele>33.580687</ele>
        <time>2020-10-05T08:39:34.844Z</time>
      </trkpt>
      <trkpt lat="50.798204" lon="4.650227">
        <ele>31.873852</ele>
        <time>2020-10-05T08:39:52.971Z</time>
      </trkpt>
      <trkpt lat="50.797514" lon="4.650025">
        <ele>31.084079</ele>
        <time>2020-10-05T08:40:05.041Z</time>
      </trkpt>
      <trkpt lat="50.797416" lon="4.649876">
        <ele>30.931105</ele>
        <time>2020-10-05T08:40:07.405Z</time>
      </trkpt>
      <trkpt lat="50.797376" lon="4.649711">
        <ele>30.805389</ele>
        <time>2020-10-05T08:40:09.421Z</time>
      </trkpt>
      <trkpt lat="50.797662" lon="4.649486">
        <ele>30.445899</ele>
        <time>2020-10-05T08:40:15.224Z</time>
      </trkpt>
      <trkpt lat="50.797808" lon="4.649355">
        <ele>30.374076</ele>
        <time>2020-10-05T08:40:18.402Z</time>
      </trkpt>
      <trkpt lat="50.797794" lon="4.649281">
        <ele>30.356586</ele>
        <time>2020-10-05T08:40:19.226Z</time>
      </trkpt>
      <trkpt lat="50.798100" lon="4.646358">
        <ele>29.730929</ele>
        <time>2020-10-05T08:40:55.319Z</time>
      </trkpt>
      <trkpt lat="50.798104" lon="4.645408">
        <ele>29.614374</ele>
        <time>2020-10-05T08:41:07.123Z</time>
      </trkpt>
      <trkpt lat="50.798174" lon="4.644872">
        <ele>29.547225</ele>
        <time>2020-10-05T08:41:13.815Z</time>
      </trkpt>
      <trkpt lat="50.798180" lon="4.644732">
        <ele>29.530009</ele>
        <time>2020-10-05T08:41:15.543Z</time>
      </trkpt>
      <trkpt lat="50.798160" lon="4.644504">
        <ele>29.501769</ele>
        <time>2020-10-05T08:41:18.300Z</time>
      </trkpt>
      <trkpt lat="50.797836" lon="4.643600">
        <ele>29.481137</ele>
        <time>2020-10-05T08:41:31.295Z</time>
      </trkpt>
      <trkpt lat="50.797650" lon="4.643291">
        <ele>29.520506</ele>
        <time>2020-10-05T08:41:36.842Z</time>
      </trkpt>
      <trkpt lat="50.797595" lon="4.643227">
        <ele>29.530472</ele>
        <time>2020-10-05T08:41:38.177Z</time>
      </trkpt>
      <trkpt lat="50.797546" lon="4.643175">
        <ele>29.539084</ele>
        <time>2020-10-05T08:41:39.383Z</time>
      </trkpt>
      <trkpt lat="50.797325" lon="4.642978">
        <ele>29.576112</ele>
        <time>2020-10-05T08:41:44.720Z</time>
      </trkpt>
      <trkpt lat="50.797293" lon="4.642953">
        <ele>29.581321</ele>
        <time>2020-10-05T08:41:45.434Z</time>
      </trkpt>
      <trkpt lat="50.797247" lon="4.642908">
        <ele>29.589216</ele>
        <time>2020-10-05T08:41:47.449Z</time>
      </trkpt>
      <trkpt lat="50.796855" lon="4.642616">
        <ele>29.652461</ele>
        <time>2020-10-05T08:41:54.346Z</time>
      </trkpt>
      <trkpt lat="50.795239" lon="4.641150">
        <ele>30.440484</ele>
        <time>2020-10-05T08:42:25.906Z</time>
      </trkpt>
      <trkpt lat="50.793832" lon="4.639388">
        <ele>30.860658</ele>
        <time>2020-10-05T08:42:54.816Z</time>
      </trkpt>
      <trkpt lat="50.793375" lon="4.638934">
        <ele>30.723905</ele>
        <time>2020-10-05T08:43:02.304Z</time>
      </trkpt>
      <trkpt lat="50.792654" lon="4.638482">
        <ele>30.225458</ele>
        <time>2020-10-05T08:43:12.527Z</time>
      </trkpt>
      <trkpt lat="50.791891" lon="4.638302">
        <ele>29.713395</ele>
        <time>2020-10-05T08:43:22.026Z</time>
      </trkpt>
      <trkpt lat="50.791585" lon="4.638250">
        <ele>29.381358</ele>
        <time>2020-10-05T08:43:25.760Z</time>
      </trkpt>
      <trkpt lat="50.790479" lon="4.638022">
        <ele>28.178028</ele>
        <time>2020-10-05T08:43:38.885Z</time>
      </trkpt>
      <trkpt lat="50.789908" lon="4.637868">
        <ele>27.825472</ele>
        <time>2020-10-05T08:43:46.253Z</time>
      </trkpt>
      <trkpt lat="50.789741" lon="4.637782">
        <ele>27.834493</ele>
        <time>2020-10-05T08:43:48.428Z</time>
      </trkpt>
      <trkpt lat="50.789483" lon="4.637589">
        <ele>27.849152</ele>
        <time>2020-10-05T08:43:52.284Z</time>
      </trkpt>
      <trkpt lat="50.789232" lon="4.637325">
        <ele>27.864634</ele>
        <time>2020-10-05T08:43:56.510Z</time>
      </trkpt>
      <trkpt lat="50.788766" lon="4.636786">
        <ele>27.894286</ele>
        <time>2020-10-05T08:44:05.380Z</time>
      </trkpt>
      <trkpt lat="50.787860" lon="4.635777">
        <ele>29.553045</ele>
        <time>2020-10-05T08:44:29.732Z</time>
      </trkpt>
      <trkpt lat="50.787742" lon="4.635601">
        <ele>29.853248</ele>
        <time>2020-10-05T08:44:33.132Z</time>
      </trkpt>
      <trkpt lat="50.787659" lon="4.635447">
        <ele>30.090056</ele>
        <time>2020-10-05T08:44:36.882Z</time>
      </trkpt>
      <trkpt lat="50.787576" lon="4.635246">
        <ele>30.370992</ele>
        <time>2020-10-05T08:44:40.286Z</time>
      </trkpt>
      <trkpt lat="50.787544" lon="4.635172">
        <ele>30.475906</ele>
        <time>2020-10-05T08:44:41.382Z</time>
      </trkpt>
      <trkpt lat="50.787435" lon="4.634905">
        <ele>30.847827</ele>
        <time>2020-10-05T08:44:47.046Z</time>
      </trkpt>
      <trkpt lat="50.787353" lon="4.634729">
        <ele>31.103668</ele>
        <time>2020-10-05T08:44:49.502Z</time>
      </trkpt>
      <trkpt lat="50.787245" lon="4.634521">
        <ele>31.353310</ele>
        <time>2020-10-05T08:44:53.973Z</time>
      </trkpt>
      <trkpt lat="50.787175" lon="4.634395">
        <ele>31.479866</ele>
        <time>2020-10-05T08:44:56.574Z</time>
      </trkpt>
      <trkpt lat="50.787060" lon="4.634241">
        <ele>31.659690</ele>
        <time>2020-10-05T08:44:59.081Z</time>
      </trkpt>
      <trkpt lat="50.787033" lon="4.634210">
        <ele>31.699506</ele>
        <time>2020-10-05T08:45:00.114Z</time>
      </trkpt>
      <trkpt lat="50.786949" lon="4.634115">
        <ele>31.822743</ele>
        <time>2020-10-05T08:45:02.762Z</time>
      </trkpt>
      <trkpt lat="50.786673" lon="4.633908">
        <ele>32.187281</ele>
        <time>2020-10-05T08:45:08.985Z</time>
      </trkpt>
      <trkpt lat="50.786577" lon="4.633876">
        <ele>32.304367</ele>
        <time>2020-10-05T08:45:11.519Z</time>
      </trkpt>
      <trkpt lat="50.786499" lon="4.633871">
        <ele>32.397531</ele>
        <time>2020-10-05T08:45:12.625Z</time>
      </trkpt>
      <trkpt lat="50.785792" lon="4.634027">
        <ele>33.249457</ele>
        <time>2020-10-05T08:45:25.901Z</time>
      </trkpt>
      <trkpt lat="50.785549" lon="4.634097">
        <ele>33.308351</ele>
        <time>2020-10-05T08:45:29.653Z</time>
      </trkpt>
      <trkpt lat="50.785285" lon="4.634170">
        <ele>33.165151</ele>
        <time>2020-10-05T08:45:32.918Z</time>
      </trkpt>
      <trkpt lat="50.785065" lon="4.634176">
        <ele>33.047583</ele>
        <time>2020-10-05T08:45:35.741Z</time>
      </trkpt>
      <trkpt lat="50.784807" lon="4.634157">
        <ele>32.909579</ele>
        <time>2020-10-05T08:45:38.907Z</time>
      </trkpt>
      <trkpt lat="50.784291" lon="4.634106">
        <ele>32.633333</ele>
        <time>2020-10-05T08:45:45.545Z</time>
      </trkpt>
      <trkpt lat="50.784230" lon="4.634108">
        <ele>32.600732</ele>
        <time>2020-10-05T08:45:46.253Z</time>
      </trkpt>
      <trkpt lat="50.784105" lon="4.634130">
        <ele>32.533530</ele>
        <time>2020-10-05T08:45:47.897Z</time>
      </trkpt>
      <trkpt lat="50.783975" lon="4.634109">
        <ele>32.463707</ele>
        <time>2020-10-05T08:45:49.669Z</time>
      </trkpt>
      <trkpt lat="50.783864" lon="4.634090">
        <ele>32.410430</ele>
        <time>2020-10-05T08:45:51.087Z</time>
      </trkpt>
      <trkpt lat="50.783799" lon="4.634034">
        <ele>32.386457</ele>
        <time>2020-10-05T08:45:52.131Z</time>
      </trkpt>
      <trkpt lat="50.783748" lon="4.634015">
        <ele>32.369487</ele>
        <time>2020-10-05T08:45:52.807Z</time>
      </trkpt>
      <trkpt lat="50.783715" lon="4.634005">
        <ele>32.358605</ele>
        <time>2020-10-05T08:45:53.239Z</time>
      </trkpt>
      <trkpt lat="50.783670" lon="4.633990">
        <ele>32.343710</ele>
        <time>2020-10-05T08:45:53.872Z</time>
      </trkpt>
      <trkpt lat="50.783573" lon="4.633959">
        <ele>32.311659</ele>
        <time>2020-10-05T08:45:55.135Z</time>
      </trkpt>
      <trkpt lat="50.783053" lon="4.633750">
        <ele>32.137888</ele>
        <time>2020-10-05T08:46:02.158Z</time>
      </trkpt>
      <trkpt lat="50.782717" lon="4.633619">
        <ele>32.025807</ele>
        <time>2020-10-05T08:46:06.819Z</time>
      </trkpt>
      <trkpt lat="50.782549" lon="4.633567">
        <ele>31.970363</ele>
        <time>2020-10-05T08:46:09.296Z</time>
      </trkpt>
      <trkpt lat="50.782317" lon="4.633551">
        <ele>31.895151</ele>
        <time>2020-10-05T08:46:12.622Z</time>
      </trkpt>
      <trkpt lat="50.782014" lon="4.633549">
        <ele>31.893635</ele>
        <time>2020-10-05T08:46:17.272Z</time>
      </trkpt>
      <trkpt lat="50.781935" lon="4.633542">
        <ele>31.928863</ele>
        <time>2020-10-05T08:46:18.620Z</time>
      </trkpt>
      <trkpt lat="50.779935" lon="4.633053">
        <ele>33.178023</ele>
        <time>2020-10-05T08:46:52.861Z</time>
      </trkpt>
      <trkpt lat="50.779483" lon="4.633011">
        <ele>33.746299</ele>
        <time>2020-10-05T08:47:01.956Z</time>
      </trkpt>
      <trkpt lat="50.778892" lon="4.632983">
        <ele>34.488387</ele>
        <time>2020-10-05T08:47:13.927Z</time>
      </trkpt>
      <trkpt lat="50.778799" lon="4.632978">
        <ele>34.605178</ele>
        <time>2020-10-05T08:47:16.058Z</time>
      </trkpt>
      <trkpt lat="50.778756" lon="4.632969">
        <ele>34.659617</ele>
        <time>2020-10-05T08:47:16.956Z</time>
      </trkpt>
      <trkpt lat="50.778729" lon="4.632964">
        <ele>34.693736</ele>
        <time>2020-10-05T08:47:17.558Z</time>
      </trkpt>
      <trkpt lat="50.778586" lon="4.632935">
        <ele>34.874682</ele>
        <time>2020-10-05T08:47:20.484Z</time>
      </trkpt>
      <trkpt lat="50.778480" lon="4.632887">
        <ele>35.099656</ele>
        <time>2020-10-05T08:47:22.771Z</time>
      </trkpt>
      <trkpt lat="50.778446" lon="4.632875">
        <ele>35.175705</ele>
        <time>2020-10-05T08:47:23.744Z</time>
      </trkpt>
      <trkpt lat="50.776082" lon="4.632173">
        <ele>40.746834</ele>
        <time>2020-10-05T08:48:21.250Z</time>
      </trkpt>
      <trkpt lat="50.775593" lon="4.632095">
        <ele>42.033947</ele>
        <time>2020-10-05T08:48:33.692Z</time>
      </trkpt>
      <trkpt lat="50.775132" lon="4.632050">
        <ele>43.243532</ele>
        <time>2020-10-05T08:48:45.507Z</time>
      </trkpt>
      <trkpt lat="50.774680" lon="4.632044">
        <ele>45.096456</ele>
        <time>2020-10-05T08:48:57.859Z</time>
      </trkpt>
      <trkpt lat="50.774306" lon="4.632071">
        <ele>46.810426</ele>
        <time>2020-10-05T08:49:09.767Z</time>
      </trkpt>
      <trkpt lat="50.774051" lon="4.632089">
        <ele>47.978989</ele>
        <time>2020-10-05T08:49:18.428Z</time>
      </trkpt>
      <trkpt lat="50.773890" lon="4.632101">
        <ele>48.716871</ele>
        <time>2020-10-05T08:49:24.035Z</time>
      </trkpt>
      <trkpt lat="50.773709" lon="4.632087">
        <ele>49.546487</ele>
        <time>2020-10-05T08:49:30.505Z</time>
      </trkpt>
      <trkpt lat="50.773537" lon="4.632061">
        <ele>50.337499</ele>
        <time>2020-10-05T08:49:36.575Z</time>
      </trkpt>
      <trkpt lat="50.773417" lon="4.632024">
        <ele>50.897210</ele>
        <time>2020-10-05T08:49:40.871Z</time>
      </trkpt>
      <trkpt lat="50.773004" lon="4.631888">
        <ele>53.213725</ele>
        <time>2020-10-05T08:49:59.150Z</time>
      </trkpt>
      <trkpt lat="50.771738" lon="4.631375">
        <ele>61.368247</ele>
        <time>2020-10-05T08:51:00.593Z</time>
      </trkpt>
      <trkpt lat="50.771517" lon="4.631286">
        <ele>62.791208</ele>
        <time>2020-10-05T08:51:09.895Z</time>
      </trkpt>
      <trkpt lat="50.770774" lon="4.630987">
        <ele>66.042940</ele>
        <time>2020-10-05T08:51:37.516Z</time>
      </trkpt>
      <trkpt lat="50.769905" lon="4.630660">
        <ele>69.754234</ele>
        <time>2020-10-05T08:52:03.346Z</time>
      </trkpt>
      <trkpt lat="50.769602" lon="4.630482">
        <ele>70.760560</ele>
        <time>2020-10-05T08:52:11.262Z</time>
      </trkpt>
      <trkpt lat="50.769406" lon="4.630322">
        <ele>71.190781</ele>
        <time>2020-10-05T08:52:16.325Z</time>
      </trkpt>
      <trkpt lat="50.768296" lon="4.629067">
        <ele>73.852283</ele>
        <time>2020-10-05T08:52:45.785Z</time>
      </trkpt>
      <trkpt lat="50.767885" lon="4.628705">
        <ele>75.048637</ele>
        <time>2020-10-05T08:52:55.991Z</time>
      </trkpt>
      <trkpt lat="50.767607" lon="4.628505">
        <ele>75.852141</ele>
        <time>2020-10-05T08:53:03.619Z</time>
      </trkpt>
      <trkpt lat="50.767298" lon="4.628294">
        <ele>76.737622</ele>
        <time>2020-10-05T08:53:12.462Z</time>
      </trkpt>
      <trkpt lat="50.766592" lon="4.627649">
        <ele>78.839400</ele>
        <time>2020-10-05T08:53:34.726Z</time>
      </trkpt>
      <trkpt lat="50.766485" lon="4.627504">
        <ele>79.120967</ele>
        <time>2020-10-05T08:53:39.030Z</time>
      </trkpt>
      <trkpt lat="50.766117" lon="4.626910">
        <ele>80.171717</ele>
        <time>2020-10-05T08:53:52.396Z</time>
      </trkpt>
      <trkpt lat="50.765764" lon="4.626298">
        <ele>81.218416</ele>
        <time>2020-10-05T08:54:04.383Z</time>
      </trkpt>
      <trkpt lat="50.765384" lon="4.625665">
        <ele>82.296231</ele>
        <time>2020-10-05T08:54:15.561Z</time>
      </trkpt>
      <trkpt lat="50.763708" lon="4.622703">
        <ele>82.781917</ele>
        <time>2020-10-05T08:54:50.900Z</time>
      </trkpt>
      <trkpt lat="50.762810" lon="4.621152">
        <ele>83.890315</ele>
        <time>2020-10-05T08:55:24.476Z</time>
      </trkpt>
      <trkpt lat="50.762456" lon="4.620498">
        <ele>84.686292</ele>
        <time>2020-10-05T08:55:39.368Z</time>
      </trkpt>
      <trkpt lat="50.762039" lon="4.619810">
        <ele>85.567437</ele>
        <time>2020-10-05T08:55:55.409Z</time>
      </trkpt>
      <trkpt lat="50.761819" lon="4.619505">
        <ele>85.995214</ele>
        <time>2020-10-05T08:56:02.964Z</time>
      </trkpt>
      <trkpt lat="50.761488" lon="4.619154">
        <ele>86.372902</ele>
        <time>2020-10-05T08:56:13.248Z</time>
      </trkpt>
      <trkpt lat="50.761050" lon="4.618855">
        <ele>86.742947</ele>
        <time>2020-10-05T08:56:24.294Z</time>
      </trkpt>
      <trkpt lat="50.759647" lon="4.618372">
        <ele>87.925603</ele>
        <time>2020-10-05T08:56:56.113Z</time>
      </trkpt>
      <trkpt lat="50.758257" lon="4.617956">
        <ele>89.268114</ele>
        <time>2020-10-05T08:57:30.849Z</time>
      </trkpt>
      <trkpt lat="50.757246" lon="4.617631">
        <ele>90.562623</ele>
        <time>2020-10-05T08:57:57.286Z</time>
      </trkpt>
      <trkpt lat="50.755544" lon="4.617045">
        <ele>92.538272</ele>
        <time>2020-10-05T08:58:41.092Z</time>
      </trkpt>
      <trkpt lat="50.755480" lon="4.617011">
        <ele>92.608868</ele>
        <time>2020-10-05T08:58:43.093Z</time>
      </trkpt>
      <trkpt lat="50.755230" lon="4.616913">
        <ele>92.878183</ele>
        <time>2020-10-05T08:58:48.975Z</time>
      </trkpt>
      <trkpt lat="50.755164" lon="4.616900">
        <ele>92.947725</ele>
        <time>2020-10-05T08:58:50.787Z</time>
      </trkpt>
      <trkpt lat="50.752761" lon="4.615947">
        <ele>94.291037</ele>
        <time>2020-10-05T08:59:46.189Z</time>
      </trkpt>
      <trkpt lat="50.752665" lon="4.615913">
        <ele>94.291037</ele>
        <time>2020-10-05T08:59:48.177Z</time>
      </trkpt>
      <trkpt lat="50.752539" lon="4.615902">
        <ele>94.291037</ele>
        <time>2020-10-05T08:59:49.957Z</time>
      </trkpt>
      <trkpt lat="50.752460" lon="4.615894">
        <ele>94.291037</ele>
        <time>2020-10-05T08:59:51.041Z</time>
      </trkpt>
      <trkpt lat="50.752083" lon="4.615860">
        <ele>94.291037</ele>
        <time>2020-10-05T08:59:56.335Z</time>
      </trkpt>
      <trkpt lat="50.752014" lon="4.615864">
        <ele>94.291037</ele>
        <time>2020-10-05T08:59:57.325Z</time>
      </trkpt>
      <trkpt lat="50.752009" lon="4.615822">
        <ele>94.291037</ele>
        <time>2020-10-05T08:59:57.806Z</time>
      </trkpt>
      <trkpt lat="50.752010" lon="4.615705">
        <ele>94.291037</ele>
        <time>2020-10-05T08:59:59.300Z</time>
      </trkpt>
      <trkpt lat="50.752006" lon="4.615509">
        <ele>94.291037</ele>
        <time>2020-10-05T09:00:01.704Z</time>
      </trkpt>
      <trkpt lat="50.752005" lon="4.615469">
        <ele>94.291037</ele>
        <time>2020-10-05T09:00:02.163Z</time>
      </trkpt>
      <trkpt lat="50.752004" lon="4.615195">
        <ele>94.291037</ele>
        <time>2020-10-05T09:00:05.519Z</time>
      </trkpt>
      <trkpt lat="50.752013" lon="4.615057">
        <ele>94.291037</ele>
        <time>2020-10-05T09:00:07.199Z</time>
      </trkpt>
      <trkpt lat="50.752026" lon="4.614968">
        <ele>94.291037</ele>
        <time>2020-10-05T09:00:08.308Z</time>
      </trkpt>
      <trkpt lat="50.752038" lon="4.614904">
        <ele>94.291037</ele>
        <time>2020-10-05T09:00:09.085Z</time>
      </trkpt>
      <trkpt lat="50.752082" lon="4.614803">
        <ele>94.291037</ele>
        <time>2020-10-05T09:00:10.561Z</time>
      </trkpt>
      <trkpt lat="50.752125" lon="4.614736">
        <ele>94.291037</ele>
        <time>2020-10-05T09:00:11.691Z</time>
      </trkpt>
      <trkpt lat="50.752140" lon="4.614758">
        <ele>94.291037</ele>
        <time>2020-10-05T09:00:13.097Z</time>
      </trkpt>
      <trkpt lat="50.752125" lon="4.614736">
        <ele>94.536708</ele>
        <time>2020-10-05T08:08:32.914Z</time>
      </trkpt>
      <trkpt lat="50.752082" lon="4.614803">
        <ele>94.536708</ele>
        <time>2020-10-05T08:08:34.312Z</time>
      </trkpt>
      <trkpt lat="50.752038" lon="4.614904">
        <ele>94.536708</ele>
        <time>2020-10-05T08:08:36.076Z</time>
      </trkpt>
      <trkpt lat="50.752026" lon="4.614968">
        <ele>94.536708</ele>
        <time>2020-10-05T08:08:37.042Z</time>
      </trkpt>
      <trkpt lat="50.752013" lon="4.615057">
        <ele>94.536708</ele>
        <time>2020-10-05T08:08:38.266Z</time>
      </trkpt>
      <trkpt lat="50.752004" lon="4.615195">
        <ele>94.536708</ele>
        <time>2020-10-05T08:08:40.166Z</time>
      </trkpt>
      <trkpt lat="50.752005" lon="4.615469">
        <ele>94.536708</ele>
        <time>2020-10-05T08:08:44.116Z</time>
      </trkpt>
      <trkpt lat="50.752006" lon="4.615509">
        <ele>94.536708</ele>
        <time>2020-10-05T08:08:44.710Z</time>
      </trkpt>
      <trkpt lat="50.752010" lon="4.615705">
        <ele>94.536708</ele>
        <time>2020-10-05T08:08:47.364Z</time>
      </trkpt>
      <trkpt lat="50.752009" lon="4.615822">
        <ele>94.536708</ele>
        <time>2020-10-05T08:08:49.007Z</time>
      </trkpt>
      <trkpt lat="50.752014" lon="4.615864">
        <ele>94.536708</ele>
        <time>2020-10-05T08:08:49.649Z</time>
      </trkpt>
      <trkpt lat="50.752083" lon="4.615860">
        <ele>94.536708</ele>
        <time>2020-10-05T08:08:50.833Z</time>
      </trkpt>
      <trkpt lat="50.752460" lon="4.615894">
        <ele>94.359669</ele>
        <time>2020-10-05T08:08:56.894Z</time>
      </trkpt>
      <trkpt lat="50.752539" lon="4.615902">
        <ele>94.312468</ele>
        <time>2020-10-05T08:08:58.195Z</time>
      </trkpt>
      <trkpt lat="50.752665" lon="4.615913">
        <ele>94.237226</ele>
        <time>2020-10-05T08:09:00.149Z</time>
      </trkpt>
      <trkpt lat="50.752631" lon="4.616048">
        <ele>94.182413</ele>
        <time>2020-10-05T08:09:01.543Z</time>
      </trkpt>
      <trkpt lat="50.752619" lon="4.616100">
        <ele>94.161532</ele>
        <time>2020-10-05T08:09:02.131Z</time>
      </trkpt>
      <trkpt lat="50.752318" lon="4.617430">
        <ele>93.628678</ele>
        <time>2020-10-05T08:09:13.844Z</time>
      </trkpt>
      <trkpt lat="50.752306" lon="4.617499">
        <ele>93.601684</ele>
        <time>2020-10-05T08:09:14.365Z</time>
      </trkpt>
      <trkpt lat="50.752312" lon="4.617556">
        <ele>93.579886</ele>
        <time>2020-10-05T08:09:14.777Z</time>
      </trkpt>
      <trkpt lat="50.752341" lon="4.617599">
        <ele>93.556177</ele>
        <time>2020-10-05T08:09:15.208Z</time>
      </trkpt>
      <trkpt lat="50.752712" lon="4.617796">
        <ele>92.557917</ele>
        <time>2020-10-05T08:09:19.554Z</time>
      </trkpt>
      <trkpt lat="50.752892" lon="4.617930">
        <ele>91.797727</ele>
        <time>2020-10-05T08:09:21.685Z</time>
      </trkpt>
      <trkpt lat="50.753353" lon="4.618295">
        <ele>89.827758</ele>
        <time>2020-10-05T08:09:26.871Z</time>
      </trkpt>
      <trkpt lat="50.753489" lon="4.618465">
        <ele>89.165292</ele>
        <time>2020-10-05T08:09:28.569Z</time>
      </trkpt>
      <trkpt lat="50.753551" lon="4.618707">
        <ele>88.534184</ele>
        <time>2020-10-05T08:09:30.156Z</time>
      </trkpt>
      <trkpt lat="50.753487" lon="4.619313">
        <ele>87.049090</ele>
        <time>2020-10-05T08:09:33.861Z</time>
      </trkpt>
      <trkpt lat="50.753338" lon="4.619832">
        <ele>85.069933</ele>
        <time>2020-10-05T08:09:37.090Z</time>
      </trkpt>
      <trkpt lat="50.753325" lon="4.620029">
        <ele>84.278381</ele>
        <time>2020-10-05T08:09:38.263Z</time>
      </trkpt>
      <trkpt lat="50.753637" lon="4.620905">
        <ele>80.260956</ele>
        <time>2020-10-05T08:09:43.977Z</time>
      </trkpt>
      <trkpt lat="50.753725" lon="4.621586">
        <ele>77.483271</ele>
        <time>2020-10-05T08:09:48.047Z</time>
      </trkpt>
      <trkpt lat="50.753759" lon="4.621711">
        <ele>76.939520</ele>
        <time>2020-10-05T08:09:48.771Z</time>
      </trkpt>
      <trkpt lat="50.753832" lon="4.621868">
        <ele>76.160873</ele>
        <time>2020-10-05T08:09:49.961Z</time>
      </trkpt>
      <trkpt lat="50.754353" lon="4.622714">
        <ele>72.515556</ele>
        <time>2020-10-05T08:09:56.957Z</time>
      </trkpt>
      <trkpt lat="50.754687" lon="4.623018">
        <ele>70.770534</ele>
        <time>2020-10-05T08:10:00.651Z</time>
      </trkpt>
      <trkpt lat="50.754832" lon="4.623091">
        <ele>70.081530</ele>
        <time>2020-10-05T08:10:02.075Z</time>
      </trkpt>
      <trkpt lat="50.754916" lon="4.623165">
        <ele>69.646129</ele>
        <time>2020-10-05T08:10:02.969Z</time>
      </trkpt>
      <trkpt lat="50.755081" lon="4.623516">
        <ele>68.393567</ele>
        <time>2020-10-05T08:10:06.043Z</time>
      </trkpt>
      <trkpt lat="50.755282" lon="4.625020">
        <ele>64.384911</ele>
        <time>2020-10-05T08:10:15.719Z</time>
      </trkpt>
      <trkpt lat="50.755462" lon="4.625659">
        <ele>62.636554</ele>
        <time>2020-10-05T08:10:20.005Z</time>
      </trkpt>
      <trkpt lat="50.755646" lon="4.626169">
        <ele>61.169087</ele>
        <time>2020-10-05T08:10:23.619Z</time>
      </trkpt>
      <trkpt lat="50.755774" lon="4.626482">
        <ele>60.237525</ele>
        <time>2020-10-05T08:10:25.921Z</time>
      </trkpt>
      <trkpt lat="50.755878" lon="4.626700">
        <ele>59.609655</ele>
        <time>2020-10-05T08:10:27.591Z</time>
      </trkpt>
      <trkpt lat="50.756056" lon="4.627017">
        <ele>58.686114</ele>
        <time>2020-10-05T08:10:30.206Z</time>
      </trkpt>
      <trkpt lat="50.756270" lon="4.627296">
        <ele>57.730706</ele>
        <time>2020-10-05T08:10:32.922Z</time>
      </trkpt>
      <trkpt lat="50.756641" lon="4.627699">
        <ele>56.180288</ele>
        <time>2020-10-05T08:10:37.339Z</time>
      </trkpt>
      <trkpt lat="50.757127" lon="4.628225">
        <ele>54.151655</ele>
        <time>2020-10-05T08:10:43.443Z</time>
      </trkpt>
      <trkpt lat="50.757520" lon="4.628926">
        <ele>53.051194</ele>
        <time>2020-10-05T08:10:49.851Z</time>
      </trkpt>
      <trkpt lat="50.758526" lon="4.631671">
        <ele>51.076036</ele>
        <time>2020-10-05T08:11:14.008Z</time>
      </trkpt>
      <trkpt lat="50.758539" lon="4.631808">
        <ele>51.076933</ele>
        <time>2020-10-05T08:11:15.072Z</time>
      </trkpt>
      <trkpt lat="50.758535" lon="4.632129">
        <ele>51.079012</ele>
        <time>2020-10-05T08:11:19.000Z</time>
      </trkpt>
      <trkpt lat="50.758623" lon="4.634735">
        <ele>50.603372</ele>
        <time>2020-10-05T08:11:49.249Z</time>
      </trkpt>
      <trkpt lat="50.758958" lon="4.635786">
        <ele>50.173138</ele>
        <time>2020-10-05T08:11:58.172Z</time>
      </trkpt>
      <trkpt lat="50.759026" lon="4.636354">
        <ele>49.499679</ele>
        <time>2020-10-05T08:12:02.123Z</time>
      </trkpt>
      <trkpt lat="50.759059" lon="4.636718">
        <ele>48.643686</ele>
        <time>2020-10-05T08:12:04.453Z</time>
      </trkpt>
      <trkpt lat="50.759177" lon="4.639509">
        <ele>42.347935</ele>
        <time>2020-10-05T08:12:21.678Z</time>
      </trkpt>
      <trkpt lat="50.759188" lon="4.639724">
        <ele>41.929348</ele>
        <time>2020-10-05T08:12:23.017Z</time>
      </trkpt>
      <trkpt lat="50.759180" lon="4.639895">
        <ele>41.596603</ele>
        <time>2020-10-05T08:12:24.105Z</time>
      </trkpt>
      <trkpt lat="50.759161" lon="4.640031">
        <ele>41.326325</ele>
        <time>2020-10-05T08:12:25.018Z</time>
      </trkpt>
      <trkpt lat="50.759140" lon="4.640143">
        <ele>41.099634</ele>
        <time>2020-10-05T08:12:25.747Z</time>
      </trkpt>
      <trkpt lat="50.759101" lon="4.640381">
        <ele>40.622531</ele>
        <time>2020-10-05T08:12:27.329Z</time>
      </trkpt>
      <trkpt lat="50.759074" lon="4.640592">
        <ele>40.204775</ele>
        <time>2020-10-05T08:12:28.754Z</time>
      </trkpt>
      <trkpt lat="50.759046" lon="4.640889">
        <ele>39.622056</ele>
        <time>2020-10-05T08:12:30.713Z</time>
      </trkpt>
      <trkpt lat="50.759045" lon="4.641151">
        <ele>39.113614</ele>
        <time>2020-10-05T08:12:32.480Z</time>
      </trkpt>
      <trkpt lat="50.759005" lon="4.642213">
        <ele>37.572402</ele>
        <time>2020-10-05T08:12:39.801Z</time>
      </trkpt>
      <trkpt lat="50.759011" lon="4.642348">
        <ele>37.469170</ele>
        <time>2020-10-05T08:12:40.802Z</time>
      </trkpt>
      <trkpt lat="50.759115" lon="4.642806">
        <ele>37.097981</ele>
        <time>2020-10-05T08:12:44.474Z</time>
      </trkpt>
      <trkpt lat="50.759431" lon="4.643625">
        <ele>36.366213</ele>
        <time>2020-10-05T08:12:51.938Z</time>
      </trkpt>
      <trkpt lat="50.759629" lon="4.644611">
        <ele>35.667168</ele>
        <time>2020-10-05T08:13:00.387Z</time>
      </trkpt>
      <trkpt lat="50.759673" lon="4.645157">
        <ele>35.475997</ele>
        <time>2020-10-05T08:13:04.802Z</time>
      </trkpt>
      <trkpt lat="50.759668" lon="4.646693">
        <ele>34.942502</ele>
        <time>2020-10-05T08:13:17.505Z</time>
      </trkpt>
      <trkpt lat="50.759685" lon="4.647058">
        <ele>34.815386</ele>
        <time>2020-10-05T08:13:20.528Z</time>
      </trkpt>
      <trkpt lat="50.759685" lon="4.647311">
        <ele>34.782676</ele>
        <time>2020-10-05T08:13:22.965Z</time>
      </trkpt>
      <trkpt lat="50.759685" lon="4.647346">
        <ele>34.795017</ele>
        <time>2020-10-05T08:13:23.267Z</time>
      </trkpt>
      <trkpt lat="50.759686" lon="4.647918">
        <ele>34.996717</ele>
        <time>2020-10-05T08:13:28.513Z</time>
      </trkpt>
      <trkpt lat="50.759736" lon="4.648630">
        <ele>35.249326</ele>
        <time>2020-10-05T08:13:35.281Z</time>
      </trkpt>
      <trkpt lat="50.759830" lon="4.649150">
        <ele>35.440029</ele>
        <time>2020-10-05T08:13:40.750Z</time>
      </trkpt>
      <trkpt lat="50.759887" lon="4.649375">
        <ele>35.525494</ele>
        <time>2020-10-05T08:13:43.312Z</time>
      </trkpt>
      <trkpt lat="50.759926" lon="4.649539">
        <ele>35.587275</ele>
        <time>2020-10-05T08:13:45.376Z</time>
      </trkpt>
      <trkpt lat="50.760575" lon="4.651509">
        <ele>38.857034</ele>
        <time>2020-10-05T08:14:18.939Z</time>
      </trkpt>
      <trkpt lat="50.760692" lon="4.651863">
        <ele>39.569179</ele>
        <time>2020-10-05T08:14:26.805Z</time>
      </trkpt>
      <trkpt lat="50.760998" lon="4.652835">
        <ele>41.424018</ele>
        <time>2020-10-05T08:14:47.743Z</time>
      </trkpt>
      <trkpt lat="50.761211" lon="4.653517">
        <ele>42.618059</ele>
        <time>2020-10-05T08:15:01.924Z</time>
      </trkpt>
      <trkpt lat="50.761242" lon="4.653663">
        <ele>42.859827</ele>
        <time>2020-10-05T08:15:04.811Z</time>
      </trkpt>
      <trkpt lat="50.761248" lon="4.653863">
        <ele>43.174153</ele>
        <time>2020-10-05T08:15:08.363Z</time>
      </trkpt>
      <trkpt lat="50.761212" lon="4.654001">
        <ele>43.408495</ele>
        <time>2020-10-05T08:15:11.623Z</time>
      </trkpt>
      <trkpt lat="50.761094" lon="4.654243">
        <ele>43.888174</ele>
        <time>2020-10-05T08:15:18.046Z</time>
      </trkpt>
      <trkpt lat="50.759209" lon="4.656989">
        <ele>45.553140</ele>
        <time>2020-10-05T08:16:11.812Z</time>
      </trkpt>
      <trkpt lat="50.758887" lon="4.657648">
        <ele>45.566300</ele>
        <time>2020-10-05T08:16:21.249Z</time>
      </trkpt>
      <trkpt lat="50.758708" lon="4.658125">
        <ele>45.575065</ele>
        <time>2020-10-05T08:16:27.947Z</time>
      </trkpt>
      <trkpt lat="50.758577" lon="4.658441">
        <ele>45.581036</ele>
        <time>2020-10-05T08:16:32.869Z</time>
      </trkpt>
      <trkpt lat="50.758228" lon="4.659039">
        <ele>45.622659</ele>
        <time>2020-10-05T08:16:43.770Z</time>
      </trkpt>
      <trkpt lat="50.756970" lon="4.660320">
        <ele>47.006729</ele>
        <time>2020-10-05T08:17:21.808Z</time>
      </trkpt>
      <trkpt lat="50.755536" lon="4.661362">
        <ele>47.218277</ele>
        <time>2020-10-05T08:17:55.507Z</time>
      </trkpt>
      <trkpt lat="50.754600" lon="4.662031">
        <ele>46.535592</ele>
        <time>2020-10-05T08:18:13.600Z</time>
      </trkpt>
      <trkpt lat="50.754551" lon="4.662116">
        <ele>46.444988</ele>
        <time>2020-10-05T08:18:14.452Z</time>
      </trkpt>
      <trkpt lat="50.754493" lon="4.662255">
        <ele>46.313793</ele>
        <time>2020-10-05T08:18:15.701Z</time>
      </trkpt>
      <trkpt lat="50.754471" lon="4.662323">
        <ele>46.253616</ele>
        <time>2020-10-05T08:18:16.239Z</time>
      </trkpt>
      <trkpt lat="50.754426" lon="4.662466">
        <ele>46.127777</ele>
        <time>2020-10-05T08:18:17.415Z</time>
      </trkpt>
      <trkpt lat="50.754396" lon="4.662589">
        <ele>46.023912</ele>
        <time>2020-10-05T08:18:18.364Z</time>
      </trkpt>
      <trkpt lat="50.754039" lon="4.664176">
        <ele>44.789835</ele>
        <time>2020-10-05T08:18:30.512Z</time>
      </trkpt>
      <trkpt lat="50.753990" lon="4.664433">
        <ele>44.652030</ele>
        <time>2020-10-05T08:18:32.724Z</time>
      </trkpt>
      <trkpt lat="50.753930" lon="4.664923">
        <ele>44.395795</ele>
        <time>2020-10-05T08:18:36.784Z</time>
      </trkpt>
      <trkpt lat="50.753885" lon="4.665153">
        <ele>44.272196</ele>
        <time>2020-10-05T08:18:38.664Z</time>
      </trkpt>
      <trkpt lat="50.753834" lon="4.665352">
        <ele>44.161965</ele>
        <time>2020-10-05T08:18:40.444Z</time>
      </trkpt>
      <trkpt lat="50.753665" lon="4.665902">
        <ele>43.848051</ele>
        <time>2020-10-05T08:18:45.367Z</time>
      </trkpt>
      <trkpt lat="50.753174" lon="4.667518">
        <ele>43.860920</ele>
        <time>2020-10-05T08:19:00.522Z</time>
      </trkpt>
      <trkpt lat="50.753114" lon="4.667677">
        <ele>43.919730</ele>
        <time>2020-10-05T08:19:02.369Z</time>
      </trkpt>
      <trkpt lat="50.752986" lon="4.667935">
        <ele>44.023879</ele>
        <time>2020-10-05T08:19:06.648Z</time>
      </trkpt>
      <trkpt lat="50.752913" lon="4.668092">
        <ele>44.085771</ele>
        <time>2020-10-05T08:19:08.954Z</time>
      </trkpt>
      <trkpt lat="50.752785" lon="4.668560">
        <ele>44.247732</ele>
        <time>2020-10-05T08:19:15.808Z</time>
      </trkpt>
      <trkpt lat="50.752600" lon="4.669507">
        <ele>44.711870</ele>
        <time>2020-10-05T08:19:28.067Z</time>
      </trkpt>
      <trkpt lat="50.752557" lon="4.669667">
        <ele>44.820186</ele>
        <time>2020-10-05T08:19:30.118Z</time>
      </trkpt>
      <trkpt lat="50.752494" lon="4.669833">
        <ele>44.940803</ele>
        <time>2020-10-05T08:19:31.944Z</time>
      </trkpt>
      <trkpt lat="50.752462" lon="4.669904">
        <ele>44.995120</ele>
        <time>2020-10-05T08:19:33.331Z</time>
      </trkpt>
      <trkpt lat="50.752412" lon="4.670016">
        <ele>45.080532</ele>
        <time>2020-10-05T08:19:35.078Z</time>
      </trkpt>
      <trkpt lat="50.752315" lon="4.670178">
        <ele>45.219512</ele>
        <time>2020-10-05T08:19:37.523Z</time>
      </trkpt>
      <trkpt lat="50.752063" lon="4.670502">
        <ele>45.539439</ele>
        <time>2020-10-05T08:19:44.041Z</time>
      </trkpt>
      <trkpt lat="50.751841" lon="4.670771">
        <ele>45.814935</ele>
        <time>2020-10-05T08:19:49.460Z</time>
      </trkpt>
      <trkpt lat="50.751695" lon="4.671032">
        <ele>46.032016</ele>
        <time>2020-10-05T08:19:53.289Z</time>
      </trkpt>
      <trkpt lat="50.751520" lon="4.671628">
        <ele>46.185635</ele>
        <time>2020-10-05T08:20:01.028Z</time>
      </trkpt>
      <trkpt lat="50.751483" lon="4.671868">
        <ele>46.189692</ele>
        <time>2020-10-05T08:20:03.483Z</time>
      </trkpt>
      <trkpt lat="50.751469" lon="4.672048">
        <ele>46.192671</ele>
        <time>2020-10-05T08:20:04.963Z</time>
      </trkpt>
      <trkpt lat="50.751413" lon="4.673059">
        <ele>46.209338</ele>
        <time>2020-10-05T08:20:13.831Z</time>
      </trkpt>
      <trkpt lat="50.751406" lon="4.673171">
        <ele>46.211187</ele>
        <time>2020-10-05T08:20:14.747Z</time>
      </trkpt>
      <trkpt lat="50.751282" lon="4.674690">
        <ele>46.265980</ele>
        <time>2020-10-05T08:20:28.833Z</time>
      </trkpt>
      <trkpt lat="50.751237" lon="4.675233">
        <ele>46.299341</ele>
        <time>2020-10-05T08:20:34.049Z</time>
      </trkpt>
      <trkpt lat="50.750962" lon="4.677446">
        <ele>46.303499</ele>
        <time>2020-10-05T08:20:56.715Z</time>
      </trkpt>
      <trkpt lat="50.750959" lon="4.677913">
        <ele>46.232587</ele>
        <time>2020-10-05T08:21:00.918Z</time>
      </trkpt>
      <trkpt lat="50.751001" lon="4.678479">
        <ele>46.146059</ele>
        <time>2020-10-05T08:21:05.993Z</time>
      </trkpt>
      <trkpt lat="50.751031" lon="4.678677">
        <ele>46.115145</ele>
        <time>2020-10-05T08:21:07.896Z</time>
      </trkpt>
      <trkpt lat="50.751080" lon="4.679223">
        <ele>46.031412</ele>
        <time>2020-10-05T08:21:12.629Z</time>
      </trkpt>
      <trkpt lat="50.751097" lon="4.679464">
        <ele>45.994593</ele>
        <time>2020-10-05T08:21:14.539Z</time>
      </trkpt>
      <trkpt lat="50.751085" lon="4.679840">
        <ele>45.869589</ele>
        <time>2020-10-05T08:21:17.666Z</time>
      </trkpt>
      <trkpt lat="50.750872" lon="4.680582">
        <ele>45.461387</ele>
        <time>2020-10-05T08:21:23.894Z</time>
      </trkpt>
      <trkpt lat="50.750826" lon="4.680947">
        <ele>45.274935</ele>
        <time>2020-10-05T08:21:26.751Z</time>
      </trkpt>
      <trkpt lat="50.750841" lon="4.681908">
        <ele>44.793341</ele>
        <time>2020-10-05T08:21:34.287Z</time>
      </trkpt>
      <trkpt lat="50.750818" lon="4.682019">
        <ele>44.734826</ele>
        <time>2020-10-05T08:21:35.115Z</time>
      </trkpt>
      <trkpt lat="50.750788" lon="4.682131">
        <ele>44.673894</ele>
        <time>2020-10-05T08:21:36.037Z</time>
      </trkpt>
      <trkpt lat="50.750724" lon="4.682359">
        <ele>44.548932</ele>
        <time>2020-10-05T08:21:38.686Z</time>
      </trkpt>
      <trkpt lat="50.750668" lon="4.682623">
        <ele>44.657555</ele>
        <time>2020-10-05T08:21:40.792Z</time>
      </trkpt>
      <trkpt lat="50.750549" lon="4.683573">
        <ele>45.075612</ele>
        <time>2020-10-05T08:21:50.860Z</time>
      </trkpt>
      <trkpt lat="50.750528" lon="4.683757">
        <ele>45.156324</ele>
        <time>2020-10-05T08:21:52.356Z</time>
      </trkpt>
      <trkpt lat="50.750479" lon="4.683981">
        <ele>45.258637</ele>
        <time>2020-10-05T08:21:55.926Z</time>
      </trkpt>
      <trkpt lat="50.750121" lon="4.685394">
        <ele>45.897338</ele>
        <time>2020-10-05T08:22:15.400Z</time>
      </trkpt>
      <trkpt lat="50.750050" lon="4.685598">
        <ele>45.985192</ele>
        <time>2020-10-05T08:22:19.362Z</time>
      </trkpt>
      <trkpt lat="50.749654" lon="4.686517">
        <ele>46.404743</ele>
        <time>2020-10-05T08:22:32.332Z</time>
      </trkpt>
      <trkpt lat="50.749559" lon="4.686691">
        <ele>46.491464</ele>
        <time>2020-10-05T08:22:34.249Z</time>
      </trkpt>
      <trkpt lat="50.749384" lon="4.686917">
        <ele>46.626241</ele>
        <time>2020-10-05T08:22:38.363Z</time>
      </trkpt>
      <trkpt lat="50.749116" lon="4.687139">
        <ele>46.806692</ele>
        <time>2020-10-05T08:22:42.579Z</time>
      </trkpt>
      <trkpt lat="50.749045" lon="4.687204">
        <ele>46.812537</ele>
        <time>2020-10-05T08:22:43.867Z</time>
      </trkpt>
      <trkpt lat="50.748925" lon="4.687368">
        <ele>46.594694</ele>
        <time>2020-10-05T08:22:45.701Z</time>
      </trkpt>
      <trkpt lat="50.748487" lon="4.688049">
        <ele>45.750995</ele>
        <time>2020-10-05T08:22:53.045Z</time>
      </trkpt>
      <trkpt lat="50.748413" lon="4.688241">
        <ele>45.555664</ele>
        <time>2020-10-05T08:22:54.616Z</time>
      </trkpt>
      <trkpt lat="50.748225" lon="4.689491">
        <ele>44.439345</ele>
        <time>2020-10-05T08:23:03.616Z</time>
      </trkpt>
      <trkpt lat="50.747896" lon="4.690593">
        <ele>43.766674</ele>
        <time>2020-10-05T08:23:12.776Z</time>
      </trkpt>
      <trkpt lat="50.747878" lon="4.690656">
        <ele>43.729984</ele>
        <time>2020-10-05T08:23:13.240Z</time>
      </trkpt>
      <trkpt lat="50.747869" lon="4.690784">
        <ele>43.661627</ele>
        <time>2020-10-05T08:23:14.256Z</time>
      </trkpt>
      <trkpt lat="50.747882" lon="4.690822">
        <ele>43.638698</ele>
        <time>2020-10-05T08:23:14.593Z</time>
      </trkpt>
      <trkpt lat="50.747941" lon="4.690992">
        <ele>43.535785</ele>
        <time>2020-10-05T08:23:16.255Z</time>
      </trkpt>
      <trkpt lat="50.747896" lon="4.691048">
        <ele>43.487739</ele>
        <time>2020-10-05T08:23:16.987Z</time>
      </trkpt>
      <trkpt lat="50.747871" lon="4.691122">
        <ele>43.443214</ele>
        <time>2020-10-05T08:23:17.646Z</time>
      </trkpt>
      <trkpt lat="50.747748" lon="4.691735">
        <ele>43.101882</ele>
        <time>2020-10-05T08:23:23.093Z</time>
      </trkpt>
      <trkpt lat="50.747720" lon="4.691890">
        <ele>43.016325</ele>
        <time>2020-10-05T08:23:24.470Z</time>
      </trkpt>
      <trkpt lat="50.747625" lon="4.692156">
        <ele>42.867388</ele>
        <time>2020-10-05T08:23:27.454Z</time>
      </trkpt>
      <trkpt lat="50.747549" lon="4.692322">
        <ele>42.906111</ele>
        <time>2020-10-05T08:23:29.230Z</time>
      </trkpt>
      <trkpt lat="50.747298" lon="4.692585">
        <ele>42.996058</ele>
        <time>2020-10-05T08:23:33.923Z</time>
      </trkpt>
      <trkpt lat="50.747279" lon="4.692580">
        <ele>43.001811</ele>
        <time>2020-10-05T08:23:34.215Z</time>
      </trkpt>
      <trkpt lat="50.747230" lon="4.692577">
        <ele>43.016457</ele>
        <time>2020-10-05T08:23:34.934Z</time>
      </trkpt>
      <trkpt lat="50.747160" lon="4.692598">
        <ele>43.037738</ele>
        <time>2020-10-05T08:23:36.105Z</time>
      </trkpt>
      <trkpt lat="50.747111" lon="4.692641">
        <ele>43.054478</ele>
        <time>2020-10-05T08:23:37.167Z</time>
      </trkpt>
      <trkpt lat="50.747072" lon="4.692703">
        <ele>43.071000</ele>
        <time>2020-10-05T08:23:38.059Z</time>
      </trkpt>
      <trkpt lat="50.747045" lon="4.692779">
        <ele>43.087472</ele>
        <time>2020-10-05T08:23:39.043Z</time>
      </trkpt>
      <trkpt lat="50.747032" lon="4.692860">
        <ele>43.103265</ele>
        <time>2020-10-05T08:23:39.883Z</time>
      </trkpt>
      <trkpt lat="50.747046" lon="4.693023">
        <ele>43.134352</ele>
        <time>2020-10-05T08:23:41.388Z</time>
      </trkpt>
      <trkpt lat="50.747073" lon="4.693094">
        <ele>43.150007</ele>
        <time>2020-10-05T08:23:42.298Z</time>
      </trkpt>
      <trkpt lat="50.747042" lon="4.693223">
        <ele>43.176085</ele>
        <time>2020-10-05T08:23:44.253Z</time>
      </trkpt>
      <trkpt lat="50.746991" lon="4.693374">
        <ele>43.208433</ele>
        <time>2020-10-05T08:23:46.699Z</time>
      </trkpt>
      <trkpt lat="50.746885" lon="4.693533">
        <ele>43.252083</ele>
        <time>2020-10-05T08:23:49.693Z</time>
      </trkpt>
      <trkpt lat="50.746593" lon="4.694037">
        <ele>43.381229</ele>
        <time>2020-10-05T08:23:59.389Z</time>
      </trkpt>
      <trkpt lat="50.745670" lon="4.696060">
        <ele>44.688640</ele>
        <time>2020-10-05T08:24:35.778Z</time>
      </trkpt>
      <trkpt lat="50.745584" lon="4.696217">
        <ele>44.800567</ele>
        <time>2020-10-05T08:24:39.150Z</time>
      </trkpt>
      <trkpt lat="50.745573" lon="4.696434">
        <ele>44.917905</ele>
        <time>2020-10-05T08:24:42.632Z</time>
      </trkpt>
      <trkpt lat="50.745505" lon="4.696587">
        <ele>45.131522</ele>
        <time>2020-10-05T08:24:45.631Z</time>
      </trkpt>
      <trkpt lat="50.745247" lon="4.697183">
        <ele>46.034898</ele>
        <time>2020-10-05T08:24:55.607Z</time>
      </trkpt>
      <trkpt lat="50.744825" lon="4.697964">
        <ele>47.319681</ele>
        <time>2020-10-05T08:25:10.628Z</time>
      </trkpt>
      <trkpt lat="50.744415" lon="4.698433">
        <ele>48.320327</ele>
        <time>2020-10-05T08:25:22.982Z</time>
      </trkpt>
      <trkpt lat="50.744160" lon="4.698641">
        <ele>48.766762</ele>
        <time>2020-10-05T08:25:30.102Z</time>
      </trkpt>
      <trkpt lat="50.743712" lon="4.698899">
        <ele>49.423403</ele>
        <time>2020-10-05T08:25:41.488Z</time>
      </trkpt>
      <trkpt lat="50.742368" lon="4.699426">
        <ele>51.008542</ele>
        <time>2020-10-05T08:26:07.079Z</time>
      </trkpt>
      <trkpt lat="50.741895" lon="4.699612">
        <ele>51.086617</ele>
        <time>2020-10-05T08:26:14.171Z</time>
      </trkpt>
      <trkpt lat="50.741881" lon="4.699615">
        <ele>51.088880</ele>
        <time>2020-10-05T08:26:14.300Z</time>
      </trkpt>
      <trkpt lat="50.740003" lon="4.700177">
        <ele>51.934137</ele>
        <time>2020-10-05T08:26:43.020Z</time>
      </trkpt>
      <trkpt lat="50.739977" lon="4.700233">
        <ele>51.968141</ele>
        <time>2020-10-05T08:26:43.887Z</time>
      </trkpt>
      <trkpt lat="50.739929" lon="4.700209">
        <ele>52.007091</ele>
        <time>2020-10-05T08:26:44.951Z</time>
      </trkpt>
      <trkpt lat="50.739878" lon="4.700204">
        <ele>52.046624</ele>
        <time>2020-10-05T08:26:46.007Z</time>
      </trkpt>
      <trkpt lat="50.739846" lon="4.700351">
        <ele>52.122734</ele>
        <time>2020-10-05T08:26:48.394Z</time>
      </trkpt>
      <trkpt lat="50.739784" lon="4.700378">
        <ele>52.172489</ele>
        <time>2020-10-05T08:26:49.941Z</time>
      </trkpt>
      <trkpt lat="50.739228" lon="4.700770">
        <ele>52.643514</ele>
        <time>2020-10-05T08:27:05.171Z</time>
      </trkpt>
      <trkpt lat="50.738293" lon="4.701428">
        <ele>55.056450</ele>
        <time>2020-10-05T08:27:37.022Z</time>
      </trkpt>
      <trkpt lat="50.738236" lon="4.701492">
        <ele>55.221617</ele>
        <time>2020-10-05T08:27:39.092Z</time>
      </trkpt>
      <trkpt lat="50.738202" lon="4.701585">
        <ele>55.382168</ele>
        <time>2020-10-05T08:27:41.234Z</time>
      </trkpt>
      <trkpt lat="50.738086" lon="4.702666">
        <ele>56.914749</ele>
        <time>2020-10-05T08:28:02.302Z</time>
      </trkpt>
      <trkpt lat="50.737795" lon="4.702581">
        <ele>57.027414</ele>
        <time>2020-10-05T08:28:10.775Z</time>
      </trkpt>
      <trkpt lat="50.737635" lon="4.702626">
        <ele>57.089286</ele>
        <time>2020-10-05T08:28:15.332Z</time>
      </trkpt>
      <trkpt lat="50.737092" lon="4.703018">
        <ele>57.316570</ele>
        <time>2020-10-05T08:28:29.510Z</time>
      </trkpt>
      <trkpt lat="50.736936" lon="4.703162">
        <ele>57.385354</ele>
        <time>2020-10-05T08:28:33.189Z</time>
      </trkpt>
      <trkpt lat="50.736722" lon="4.703350">
        <ele>57.478573</ele>
        <time>2020-10-05T08:28:37.299Z</time>
      </trkpt>
      <trkpt lat="50.736667" lon="4.703389">
        <ele>57.501525</ele>
        <time>2020-10-05T08:28:38.357Z</time>
      </trkpt>
      <trkpt lat="50.736602" lon="4.703426">
        <ele>57.527828</ele>
        <time>2020-10-05T08:28:39.577Z</time>
      </trkpt>
      <trkpt lat="50.736487" lon="4.703253">
        <ele>57.515895</ele>
        <time>2020-10-05T08:28:41.272Z</time>
      </trkpt>
      <trkpt lat="50.736417" lon="4.703176">
        <ele>57.293129</ele>
        <time>2020-10-05T08:28:42.157Z</time>
      </trkpt>
      <trkpt lat="50.736346" lon="4.703337">
        <ele>56.968768</ele>
        <time>2020-10-05T08:28:43.621Z</time>
      </trkpt>
      <trkpt lat="50.736008" lon="4.703155">
        <ele>56.036135</ele>
        <time>2020-10-05T08:28:47.396Z</time>
      </trkpt>
      <trkpt lat="50.735782" lon="4.703149">
        <ele>55.445791</ele>
        <time>2020-10-05T08:28:49.620Z</time>
      </trkpt>
      <trkpt lat="50.735461" lon="4.703649">
        <ele>54.268518</ele>
        <time>2020-10-05T08:28:54.207Z</time>
      </trkpt>
      <trkpt lat="50.735225" lon="4.703850">
        <ele>53.568293</ele>
        <time>2020-10-05T08:28:56.878Z</time>
      </trkpt>
      <trkpt lat="50.734557" lon="4.703622">
        <ele>52.448086</ele>
        <time>2020-10-05T08:29:04.282Z</time>
      </trkpt>
      <trkpt lat="50.734504" lon="4.703658">
        <ele>52.388623</ele>
        <time>2020-10-05T08:29:04.840Z</time>
      </trkpt>
      <trkpt lat="50.734431" lon="4.703801">
        <ele>52.268773</ele>
        <time>2020-10-05T08:29:06.418Z</time>
      </trkpt>
      <trkpt lat="50.734199" lon="4.704267">
        <ele>51.881991</ele>
        <time>2020-10-05T08:29:10.967Z</time>
      </trkpt>
      <trkpt lat="50.734003" lon="4.704404">
        <ele>51.661081</ele>
        <time>2020-10-05T08:29:13.531Z</time>
      </trkpt>
      <trkpt lat="50.733783" lon="4.704423">
        <ele>51.433983</ele>
        <time>2020-10-05T08:29:16.839Z</time>
      </trkpt>
      <trkpt lat="50.733663" lon="4.704371">
        <ele>51.305728</ele>
        <time>2020-10-05T08:29:18.455Z</time>
      </trkpt>
      <trkpt lat="50.733535" lon="4.704265">
        <ele>51.156770</ele>
        <time>2020-10-05T08:29:20.739Z</time>
      </trkpt>
      <trkpt lat="50.732661" lon="4.703374">
        <ele>52.062212</ele>
        <time>2020-10-05T08:29:39.166Z</time>
      </trkpt>
      <trkpt lat="50.732357" lon="4.703084">
        <ele>52.463897</ele>
        <time>2020-10-05T08:29:46.377Z</time>
      </trkpt>
      <trkpt lat="50.732045" lon="4.703670">
        <ele>53.012138</ele>
        <time>2020-10-05T08:29:56.763Z</time>
      </trkpt>
      <trkpt lat="50.731736" lon="4.704246">
        <ele>54.522596</ele>
        <time>2020-10-05T08:30:08.066Z</time>
      </trkpt>
      <trkpt lat="50.731551" lon="4.704592">
        <ele>55.487815</ele>
        <time>2020-10-05T08:30:15.221Z</time>
      </trkpt>
      <trkpt lat="50.731544" lon="4.704611">
        <ele>55.534665</ele>
        <time>2020-10-05T08:30:15.582Z</time>
      </trkpt>
      <trkpt lat="50.729672" lon="4.708056">
        <ele>67.172829</ele>
        <time>2020-10-05T08:31:47.053Z</time>
      </trkpt>
      <trkpt lat="50.729135" lon="4.709030">
        <ele>71.816550</ele>
        <time>2020-10-05T08:32:18.464Z</time>
      </trkpt>
      <trkpt lat="50.728836" lon="4.709423">
        <ele>74.025683</ele>
        <time>2020-10-05T08:32:33.500Z</time>
      </trkpt>
      <trkpt lat="50.728177" lon="4.709890">
        <ele>78.099357</ele>
        <time>2020-10-05T08:33:01.375Z</time>
      </trkpt>
      <trkpt lat="50.726727" lon="4.710475">
        <ele>86.296544</ele>
        <time>2020-10-05T08:33:56.453Z</time>
      </trkpt>
      <trkpt lat="50.726299" lon="4.710624">
        <ele>88.361617</ele>
        <time>2020-10-05T08:34:11.902Z</time>
      </trkpt>
      <trkpt lat="50.725819" lon="4.710868">
        <ele>90.513582</ele>
        <time>2020-10-05T08:34:28.809Z</time>
      </trkpt>
      <trkpt lat="50.725057" lon="4.711600">
        <ele>94.319700</ele>
        <time>2020-10-05T08:34:57.395Z</time>
      </trkpt>
      <trkpt lat="50.724082" lon="4.712576">
        <ele>97.034996</ele>
        <time>2020-10-05T08:35:25.528Z</time>
      </trkpt>
      <trkpt lat="50.723972" lon="4.712687">
        <ele>97.311627</ele>
        <time>2020-10-05T08:35:28.535Z</time>
      </trkpt>
      <trkpt lat="50.723393" lon="4.713266">
        <ele>98.726262</ele>
        <time>2020-10-05T08:35:42.205Z</time>
      </trkpt>
      <trkpt lat="50.723251" lon="4.713408">
        <ele>98.945506</ele>
        <time>2020-10-05T08:35:45.601Z</time>
      </trkpt>
      <trkpt lat="50.723158" lon="4.713500">
        <ele>99.088656</ele>
        <time>2020-10-05T08:35:47.509Z</time>
      </trkpt>
      <trkpt lat="50.723125" lon="4.713533">
        <ele>99.139607</ele>
        <time>2020-10-05T08:35:48.282Z</time>
      </trkpt>
      <trkpt lat="50.722897" lon="4.713806">
        <ele>99.512835</ele>
        <time>2020-10-05T08:35:53.737Z</time>
      </trkpt>
      <trkpt lat="50.722885" lon="4.713821">
        <ele>99.532798</ele>
        <time>2020-10-05T08:35:54.019Z</time>
      </trkpt>
      <trkpt lat="50.722838" lon="4.713879">
        <ele>99.610603</ele>
        <time>2020-10-05T08:35:55.132Z</time>
      </trkpt>
      <trkpt lat="50.722748" lon="4.713992">
        <ele>99.760583</ele>
        <time>2020-10-05T08:35:57.588Z</time>
      </trkpt>
      <trkpt lat="50.722608" lon="4.714224">
        <ele>100.025283</ele>
        <time>2020-10-05T08:36:00.932Z</time>
      </trkpt>
      <trkpt lat="50.722309" lon="4.715022">
        <ele>100.791106</ele>
        <time>2020-10-05T08:36:13.056Z</time>
      </trkpt>
      <trkpt lat="50.722193" lon="4.715353">
        <ele>101.146313</ele>
        <time>2020-10-05T08:36:18.225Z</time>
      </trkpt>
      <trkpt lat="50.721870" lon="4.716282">
        <ele>102.431925</ele>
        <time>2020-10-05T08:36:33.754Z</time>
      </trkpt>
      <trkpt lat="50.721821" lon="4.716417">
        <ele>102.620681</ele>
        <time>2020-10-05T08:36:36.038Z</time>
      </trkpt>
      <trkpt lat="50.721722" lon="4.716692">
        <ele>103.004412</ele>
        <time>2020-10-05T08:36:40.293Z</time>
      </trkpt>
      <trkpt lat="50.721597" lon="4.717040">
        <ele>103.489741</ele>
        <time>2020-10-05T08:36:45.995Z</time>
      </trkpt>
      <trkpt lat="50.721440" lon="4.717431">
        <ele>104.051370</ele>
        <time>2020-10-05T08:36:52.671Z</time>
      </trkpt>
      <trkpt lat="50.721228" lon="4.717945">
        <ele>104.788643</ele>
        <time>2020-10-05T08:37:01.773Z</time>
      </trkpt>
      <trkpt lat="50.720985" lon="4.718547">
        <ele>105.637068</ele>
        <time>2020-10-05T08:37:12.273Z</time>
      </trkpt>
      <trkpt lat="50.720684" lon="4.719296">
        <ele>106.691323</ele>
        <time>2020-10-05T08:37:24.586Z</time>
      </trkpt>
      <trkpt lat="50.720603" lon="4.719511">
        <ele>106.988636</ele>
        <time>2020-10-05T08:37:28.255Z</time>
      </trkpt>
      <trkpt lat="50.720353" lon="4.719855">
        <ele>107.610987</ele>
        <time>2020-10-05T08:37:35.393Z</time>
      </trkpt>
      <trkpt lat="50.719760" lon="4.720353">
        <ele>108.465511</ele>
        <time>2020-10-05T08:37:49.917Z</time>
      </trkpt>
      <trkpt lat="50.719723" lon="4.720382">
        <ele>108.512679</ele>
        <time>2020-10-05T08:37:51.191Z</time>
      </trkpt>
      <trkpt lat="50.719581" lon="4.720494">
        <ele>108.693926</ele>
        <time>2020-10-05T08:37:54.239Z</time>
      </trkpt>
      <trkpt lat="50.719420" lon="4.720621">
        <ele>108.899430</ele>
        <time>2020-10-05T08:37:58.115Z</time>
      </trkpt>
      <trkpt lat="50.719271" lon="4.720739">
        <ele>109.089767</ele>
        <time>2020-10-05T08:38:01.064Z</time>
      </trkpt>
      <trkpt lat="50.719119" lon="4.720992">
        <ele>109.341928</ele>
        <time>2020-10-05T08:38:05.396Z</time>
      </trkpt>
      <trkpt lat="50.718945" lon="4.721280">
        <ele>109.629740</ele>
        <time>2020-10-05T08:38:09.622Z</time>
      </trkpt>
      <trkpt lat="50.718530" lon="4.721904">
        <ele>109.883042</ele>
        <time>2020-10-05T08:38:18.820Z</time>
      </trkpt>
      <trkpt lat="50.718357" lon="4.722224">
        <ele>109.878781</ele>
        <time>2020-10-05T08:38:22.737Z</time>
      </trkpt>
      <trkpt lat="50.718335" lon="4.722299">
        <ele>109.877944</ele>
        <time>2020-10-05T08:38:23.349Z</time>
      </trkpt>
      <trkpt lat="50.718270" lon="4.722520">
        <ele>109.875477</ele>
        <time>2020-10-05T08:38:25.736Z</time>
      </trkpt>
      <trkpt lat="50.718245" lon="4.722756">
        <ele>109.873054</ele>
        <time>2020-10-05T08:38:27.687Z</time>
      </trkpt>
      <trkpt lat="50.718246" lon="4.722823">
        <ele>109.872375</ele>
        <time>2020-10-05T08:38:28.170Z</time>
      </trkpt>
      <trkpt lat="50.718246" lon="4.722987">
        <ele>109.870715</ele>
        <time>2020-10-05T08:38:29.608Z</time>
      </trkpt>
      <trkpt lat="50.718338" lon="4.723522">
        <ele>109.865101</ele>
        <time>2020-10-05T08:38:34.057Z</time>
      </trkpt>
      <trkpt lat="50.718358" lon="4.723699">
        <ele>109.863281</ele>
        <time>2020-10-05T08:38:35.887Z</time>
      </trkpt>
      <trkpt lat="50.718352" lon="4.723883">
        <ele>109.861415</ele>
        <time>2020-10-05T08:38:37.302Z</time>
      </trkpt>
      <trkpt lat="50.718020" lon="4.725277">
        <ele>110.988733</ele>
        <time>2020-10-05T08:38:55.257Z</time>
      </trkpt>
      <trkpt lat="50.717999" lon="4.725513">
        <ele>111.190819</ele>
        <time>2020-10-05T08:38:57.809Z</time>
      </trkpt>
      <trkpt lat="50.718042" lon="4.725942">
        <ele>111.559125</ele>
        <time>2020-10-05T08:39:04.796Z</time>
      </trkpt>
      <trkpt lat="50.718218" lon="4.726652">
        <ele>112.205677</ele>
        <time>2020-10-05T08:39:15.190Z</time>
      </trkpt>
      <trkpt lat="50.718368" lon="4.726957">
        <ele>112.658816</ele>
        <time>2020-10-05T08:39:21.556Z</time>
      </trkpt>
      <trkpt lat="50.718492" lon="4.727314">
        <ele>113.168177</ele>
        <time>2020-10-05T08:39:27.557Z</time>
      </trkpt>
      <trkpt lat="50.718597" lon="4.727631">
        <ele>113.615700</ele>
        <time>2020-10-05T08:39:32.291Z</time>
      </trkpt>
      <trkpt lat="50.718668" lon="4.727933">
        <ele>114.018676</ele>
        <time>2020-10-05T08:39:37.933Z</time>
      </trkpt>
      <trkpt lat="50.718692" lon="4.728497">
        <ele>114.725774</ele>
        <time>2020-10-05T08:39:45.988Z</time>
      </trkpt>
      <trkpt lat="50.718663" lon="4.729269">
        <ele>115.693166</ele>
        <time>2020-10-05T08:39:56.958Z</time>
      </trkpt>
      <trkpt lat="50.718639" lon="4.730072">
        <ele>116.419176</ele>
        <time>2020-10-05T08:40:06.838Z</time>
      </trkpt>
      <trkpt lat="50.718566" lon="4.730490">
        <ele>116.788540</ele>
        <time>2020-10-05T08:40:12.049Z</time>
      </trkpt>
      <trkpt lat="50.718490" lon="4.730777">
        <ele>117.053539</ele>
        <time>2020-10-05T08:40:15.615Z</time>
      </trkpt>
      <trkpt lat="50.718429" lon="4.730965">
        <ele>117.233489</ele>
        <time>2020-10-05T08:40:18.409Z</time>
      </trkpt>
      <trkpt lat="50.718151" lon="4.731482">
        <ele>117.811288</ele>
        <time>2020-10-05T08:40:27.097Z</time>
      </trkpt>
      <trkpt lat="50.717943" lon="4.731725">
        <ele>118.159374</ele>
        <time>2020-10-05T08:40:32.680Z</time>
      </trkpt>
      <trkpt lat="50.714812" lon="4.734457">
        <ele>123.983273</ele>
        <time>2020-10-05T08:41:49.669Z</time>
      </trkpt>
      <trkpt lat="50.714453" lon="4.734656">
        <ele>124.482097</ele>
        <time>2020-10-05T08:41:57.247Z</time>
      </trkpt>
      <trkpt lat="50.714261" lon="4.734709">
        <ele>124.721691</ele>
        <time>2020-10-05T08:42:01.052Z</time>
      </trkpt>
      <trkpt lat="50.714077" lon="4.734729">
        <ele>124.948409</ele>
        <time>2020-10-05T08:42:04.614Z</time>
      </trkpt>
      <trkpt lat="50.712465" lon="4.734389">
        <ele>127.066760</ele>
        <time>2020-10-05T08:42:36.377Z</time>
      </trkpt>
      <trkpt lat="50.711566" lon="4.734346">
        <ele>128.384423</ele>
        <time>2020-10-05T08:42:55.452Z</time>
      </trkpt>
      <trkpt lat="50.710492" lon="4.734425">
        <ele>129.900402</ele>
        <time>2020-10-05T08:43:18.494Z</time>
      </trkpt>
      <trkpt lat="50.707994" lon="4.734617">
        <ele>132.994972</ele>
        <time>2020-10-05T08:44:07.652Z</time>
      </trkpt>
      <trkpt lat="50.706357" lon="4.734745">
        <ele>134.627976</ele>
        <time>2020-10-05T08:44:38.030Z</time>
      </trkpt>
      <trkpt lat="50.706184" lon="4.734781">
        <ele>134.794305</ele>
        <time>2020-10-05T08:44:41.402Z</time>
      </trkpt>
      <trkpt lat="50.706032" lon="4.734852">
        <ele>134.945398</ele>
        <time>2020-10-05T08:44:44.260Z</time>
      </trkpt>
      <trkpt lat="50.705614" lon="4.735212">
        <ele>135.386856</ele>
        <time>2020-10-05T08:44:53.038Z</time>
      </trkpt>
      <trkpt lat="50.705275" lon="4.735886">
        <ele>135.877653</ele>
        <time>2020-10-05T08:45:03.156Z</time>
      </trkpt>
      <trkpt lat="50.705218" lon="4.736090">
        <ele>136.004799</ele>
        <time>2020-10-05T08:45:05.619Z</time>
      </trkpt>
      <trkpt lat="50.705172" lon="4.736300">
        <ele>136.131508</ele>
        <time>2020-10-05T08:45:08.383Z</time>
      </trkpt>
      <trkpt lat="50.704869" lon="4.738053">
        <ele>137.148680</ele>
        <time>2020-10-05T08:45:29.262Z</time>
      </trkpt>
      <trkpt lat="50.704774" lon="4.738872">
        <ele>137.599253</ele>
        <time>2020-10-05T08:45:39.358Z</time>
      </trkpt>
      <trkpt lat="50.704724" lon="4.739357">
        <ele>137.865165</ele>
        <time>2020-10-05T08:45:45.150Z</time>
      </trkpt>
      <trkpt lat="50.704701" lon="4.739562">
        <ele>137.977828</ele>
        <time>2020-10-05T08:45:47.358Z</time>
      </trkpt>
      <trkpt lat="50.704688" lon="4.739667">
        <ele>138.035724</ele>
        <time>2020-10-05T08:45:48.494Z</time>
      </trkpt>
      <trkpt lat="50.704660" lon="4.739885">
        <ele>138.156097</ele>
        <time>2020-10-05T08:45:51.305Z</time>
      </trkpt>
      <trkpt lat="50.704598" lon="4.740113">
        <ele>138.290372</ele>
        <time>2020-10-05T08:45:53.935Z</time>
      </trkpt>
      <trkpt lat="50.704502" lon="4.740219">
        <ele>138.373203</ele>
        <time>2020-10-05T08:45:56.004Z</time>
      </trkpt>
      <trkpt lat="50.704332" lon="4.740253">
        <ele>138.476448</ele>
        <time>2020-10-05T08:45:59.132Z</time>
      </trkpt>
      <trkpt lat="50.704183" lon="4.740158">
        <ele>138.573265</ele>
        <time>2020-10-05T08:46:01.766Z</time>
      </trkpt>
      <trkpt lat="50.704063" lon="4.740055">
        <ele>138.655559</ele>
        <time>2020-10-05T08:46:04.417Z</time>
      </trkpt>
      <trkpt lat="50.703665" lon="4.739642">
        <ele>138.942508</ele>
        <time>2020-10-05T08:46:12.860Z</time>
      </trkpt>
      <trkpt lat="50.703137" lon="4.739324">
        <ele>139.282992</ele>
        <time>2020-10-05T08:46:22.580Z</time>
      </trkpt>
      <trkpt lat="50.702743" lon="4.739189">
        <ele>139.403348</ele>
        <time>2020-10-05T08:46:29.264Z</time>
      </trkpt>
      <trkpt lat="50.702690" lon="4.739217">
        <ele>139.399601</ele>
        <time>2020-10-05T08:46:30.101Z</time>
      </trkpt>
      <trkpt lat="50.702662" lon="4.739300">
        <ele>139.395608</ele>
        <time>2020-10-05T08:46:31.038Z</time>
      </trkpt>
      <trkpt lat="50.702504" lon="4.740141">
        <ele>139.358357</ele>
        <time>2020-10-05T08:46:39.018Z</time>
      </trkpt>
      <trkpt lat="50.702483" lon="4.740262">
        <ele>139.353030</ele>
        <time>2020-10-05T08:46:40.348Z</time>
      </trkpt>
      <trkpt lat="50.702289" lon="4.740256">
        <ele>139.340020</ele>
        <time>2020-10-05T08:46:43.019Z</time>
      </trkpt>
      <trkpt lat="50.702238" lon="4.740258">
        <ele>139.336599</ele>
        <time>2020-10-05T08:46:43.701Z</time>
      </trkpt>
      <trkpt lat="50.702140" lon="4.740339">
        <ele>139.329183</ele>
        <time>2020-10-05T08:46:45.410Z</time>
      </trkpt>
      <trkpt lat="50.702083" lon="4.740389">
        <ele>139.324811</ele>
        <time>2020-10-05T08:46:46.326Z</time>
      </trkpt>
      <trkpt lat="50.701911" lon="4.740468">
        <ele>139.312801</ele>
        <time>2020-10-05T08:46:48.709Z</time>
      </trkpt>
      <trkpt lat="50.701828" lon="4.740506">
        <ele>139.307007</ele>
        <time>2020-10-05T08:46:50.025Z</time>
      </trkpt>
      <trkpt lat="50.701768" lon="4.740546">
        <ele>139.302640</ele>
        <time>2020-10-05T08:46:50.944Z</time>
      </trkpt>
      <trkpt lat="50.701702" lon="4.740589">
        <ele>139.297853</ele>
        <time>2020-10-05T08:46:51.934Z</time>
      </trkpt>
      <trkpt lat="50.701449" lon="4.740827">
        <ele>139.176084</ele>
        <time>2020-10-05T08:46:55.917Z</time>
      </trkpt>
      <trkpt lat="50.701360" lon="4.740931">
        <ele>139.123895</ele>
        <time>2020-10-05T08:46:57.298Z</time>
      </trkpt>
      <trkpt lat="50.701349" lon="4.740996">
        <ele>139.103810</ele>
        <time>2020-10-05T08:46:57.848Z</time>
      </trkpt>
      <trkpt lat="50.701242" lon="4.741361">
        <ele>138.983739</ele>
        <time>2020-10-05T08:47:01.173Z</time>
      </trkpt>
      <trkpt lat="50.701194" lon="4.741471">
        <ele>138.943861</ele>
        <time>2020-10-05T08:47:02.243Z</time>
      </trkpt>
      <trkpt lat="50.701039" lon="4.741793">
        <ele>138.823121</ele>
        <time>2020-10-05T08:47:05.550Z</time>
      </trkpt>
      <trkpt lat="50.700686" lon="4.742523">
        <ele>138.548934</ele>
        <time>2020-10-05T08:47:13.352Z</time>
      </trkpt>
      <trkpt lat="50.700484" lon="4.742961">
        <ele>138.424397</ele>
        <time>2020-10-05T08:47:18.108Z</time>
      </trkpt>
      <trkpt lat="50.700374" lon="4.743252">
        <ele>138.385914</ele>
        <time>2020-10-05T08:47:21.107Z</time>
      </trkpt>
      <trkpt lat="50.699997" lon="4.744596">
        <ele>138.218993</ele>
        <time>2020-10-05T08:47:34.432Z</time>
      </trkpt>
      <trkpt lat="50.698782" lon="4.751050">
        <ele>137.640944</ele>
        <time>2020-10-05T08:48:35.578Z</time>
      </trkpt>
      <trkpt lat="50.698724" lon="4.752592">
        <ele>137.630971</ele>
        <time>2020-10-05T08:48:50.123Z</time>
      </trkpt>
      <trkpt lat="50.698742" lon="4.753213">
        <ele>137.626958</ele>
        <time>2020-10-05T08:48:56.078Z</time>
      </trkpt>
      <trkpt lat="50.698737" lon="4.758328">
        <ele>137.560387</ele>
        <time>2020-10-05T08:49:44.836Z</time>
      </trkpt>
      <trkpt lat="50.698734" lon="4.761156">
        <ele>136.645778</ele>
        <time>2020-10-05T08:50:08.719Z</time>
      </trkpt>
      <trkpt lat="50.698703" lon="4.762089">
        <ele>136.222867</ele>
        <time>2020-10-05T08:50:15.981Z</time>
      </trkpt>
      <trkpt lat="50.698602" lon="4.763024">
        <ele>135.430518</ele>
        <time>2020-10-05T08:50:23.138Z</time>
      </trkpt>
      <trkpt lat="50.697559" lon="4.767626">
        <ele>130.998043</ele>
        <time>2020-10-05T08:50:58.914Z</time>
      </trkpt>
      <trkpt lat="50.697353" lon="4.768926">
        <ele>130.290389</ele>
        <time>2020-10-05T08:51:09.026Z</time>
      </trkpt>
      <trkpt lat="50.697380" lon="4.770078">
        <ele>129.681629</ele>
        <time>2020-10-05T08:51:18.680Z</time>
      </trkpt>
      <trkpt lat="50.697474" lon="4.771077">
        <ele>129.249302</ele>
        <time>2020-10-05T08:51:27.851Z</time>
      </trkpt>
      <trkpt lat="50.697503" lon="4.771504">
        <ele>129.082029</ele>
        <time>2020-10-05T08:51:31.721Z</time>
      </trkpt>
      <trkpt lat="50.697459" lon="4.772120">
        <ele>128.840571</ele>
        <time>2020-10-05T08:51:37.023Z</time>
      </trkpt>
      <trkpt lat="50.697372" lon="4.772696">
        <ele>128.609923</ele>
        <time>2020-10-05T08:51:41.856Z</time>
      </trkpt>
      <trkpt lat="50.696948" lon="4.773858">
        <ele>127.227941</ele>
        <time>2020-10-05T08:51:51.828Z</time>
      </trkpt>
      <trkpt lat="50.696707" lon="4.774342">
        <ele>126.381138</ele>
        <time>2020-10-05T08:51:56.024Z</time>
      </trkpt>
      <trkpt lat="50.695897" lon="4.775970">
        <ele>123.621304</ele>
        <time>2020-10-05T08:52:09.612Z</time>
      </trkpt>
      <trkpt lat="50.695183" lon="4.777047">
        <ele>121.667210</ele>
        <time>2020-10-05T08:52:20.361Z</time>
      </trkpt>
      <trkpt lat="50.693817" lon="4.778186">
        <ele>120.126466</ele>
        <time>2020-10-05T08:52:40.166Z</time>
      </trkpt>
      <trkpt lat="50.693686" lon="4.778620">
        <ele>119.912306</ele>
        <time>2020-10-05T08:52:44.381Z</time>
      </trkpt>
      <trkpt lat="50.694089" lon="4.781156">
        <ele>119.059949</ele>
        <time>2020-10-05T08:53:05.953Z</time>
      </trkpt>
      <trkpt lat="50.694093" lon="4.781560">
        <ele>118.939145</ele>
        <time>2020-10-05T08:53:09.367Z</time>
      </trkpt>
      <trkpt lat="50.694096" lon="4.781795">
        <ele>118.868870</ele>
        <time>2020-10-05T08:53:11.423Z</time>
      </trkpt>
      <trkpt lat="50.694063" lon="4.782106">
        <ele>119.017478</ele>
        <time>2020-10-05T08:53:14.312Z</time>
      </trkpt>
      <trkpt lat="50.693957" lon="4.782800">
        <ele>119.504960</ele>
        <time>2020-10-05T08:53:21.368Z</time>
      </trkpt>
      <trkpt lat="50.693942" lon="4.782834">
        <ele>119.533252</ele>
        <time>2020-10-05T08:53:21.790Z</time>
      </trkpt>
      <trkpt lat="50.693723" lon="4.783343">
        <ele>119.953418</ele>
        <time>2020-10-05T08:53:28.637Z</time>
      </trkpt>
      <trkpt lat="50.692855" lon="4.785482">
        <ele>122.801899</ele>
        <time>2020-10-05T08:54:07.082Z</time>
      </trkpt>
      <trkpt lat="50.692659" lon="4.786130">
        <ele>123.898697</ele>
        <time>2020-10-05T08:54:19.023Z</time>
      </trkpt>
      <trkpt lat="50.692489" lon="4.787072">
        <ele>125.318563</ele>
        <time>2020-10-05T08:54:34.928Z</time>
      </trkpt>
      <trkpt lat="50.691678" lon="4.793296">
        <ele>130.585770</ele>
        <time>2020-10-05T08:55:59.671Z</time>
      </trkpt>
      <trkpt lat="50.691605" lon="4.793608">
        <ele>130.432781</ele>
        <time>2020-10-05T08:56:02.750Z</time>
      </trkpt>
      <trkpt lat="50.691308" lon="4.794425">
        <ele>129.999497</ele>
        <time>2020-10-05T08:56:10.039Z</time>
      </trkpt>
      <trkpt lat="50.691252" lon="4.794583">
        <ele>129.916218</ele>
        <time>2020-10-05T08:56:11.448Z</time>
      </trkpt>
      <trkpt lat="50.691003" lon="4.795283">
        <ele>128.870191</ele>
        <time>2020-10-05T08:56:16.577Z</time>
      </trkpt>
      <trkpt lat="50.690847" lon="4.795980">
        <ele>126.691237</ele>
        <time>2020-10-05T08:56:21.177Z</time>
      </trkpt>
      <trkpt lat="50.690825" lon="4.796845">
        <ele>124.139474</ele>
        <time>2020-10-05T08:56:26.384Z</time>
      </trkpt>
      <trkpt lat="50.690855" lon="4.797015">
        <ele>123.619297</ele>
        <time>2020-10-05T08:56:27.385Z</time>
      </trkpt>
      <trkpt lat="50.690939" lon="4.797498">
        <ele>122.142915</ele>
        <time>2020-10-05T08:56:30.320Z</time>
      </trkpt>
      <trkpt lat="50.691173" lon="4.798147">
        <ele>120.015112</ele>
        <time>2020-10-05T08:56:34.722Z</time>
      </trkpt>
      <trkpt lat="50.691427" lon="4.798721">
        <ele>118.062476</ele>
        <time>2020-10-05T08:56:38.897Z</time>
      </trkpt>
      <trkpt lat="50.691041" lon="4.799105">
        <ele>116.053911</ele>
        <time>2020-10-05T08:56:43.252Z</time>
      </trkpt>
      <trkpt lat="50.690790" lon="4.799301">
        <ele>114.821141</ele>
        <time>2020-10-05T08:56:46.041Z</time>
      </trkpt>
      <trkpt lat="50.690732" lon="4.799346">
        <ele>114.536636</ele>
        <time>2020-10-05T08:56:46.690Z</time>
      </trkpt>
      <trkpt lat="50.690456" lon="4.799373">
        <ele>113.369019</ele>
        <time>2020-10-05T08:56:49.491Z</time>
      </trkpt>
      <trkpt lat="50.690282" lon="4.799281">
        <ele>113.171624</ele>
        <time>2020-10-05T08:56:51.389Z</time>
      </trkpt>
      <trkpt lat="50.690123" lon="4.799137">
        <ele>112.974433</ele>
        <time>2020-10-05T08:56:53.329Z</time>
      </trkpt>
      <trkpt lat="50.690044" lon="4.799052">
        <ele>112.871588</ele>
        <time>2020-10-05T08:56:54.402Z</time>
      </trkpt>
      <trkpt lat="50.689722" lon="4.798756">
        <ele>112.470752</ele>
        <time>2020-10-05T08:56:58.640Z</time>
      </trkpt>
      <trkpt lat="50.689536" lon="4.798640">
        <ele>112.255619</ele>
        <time>2020-10-05T08:57:01.028Z</time>
      </trkpt>
      <trkpt lat="50.689434" lon="4.798595">
        <ele>112.141691</ele>
        <time>2020-10-05T08:57:02.658Z</time>
      </trkpt>
      <trkpt lat="50.689209" lon="4.798534">
        <ele>111.896112</ele>
        <time>2020-10-05T08:57:06.024Z</time>
      </trkpt>
      <trkpt lat="50.689063" lon="4.798482">
        <ele>111.735109</ele>
        <time>2020-10-05T08:57:08.911Z</time>
      </trkpt>
      <trkpt lat="50.688132" lon="4.797930">
        <ele>112.656643</ele>
        <time>2020-10-05T08:57:25.821Z</time>
      </trkpt>
      <trkpt lat="50.688024" lon="4.797897">
        <ele>112.838500</ele>
        <time>2020-10-05T08:57:28.571Z</time>
      </trkpt>
      <trkpt lat="50.687737" lon="4.797874">
        <ele>113.313570</ele>
        <time>2020-10-05T08:57:34.896Z</time>
      </trkpt>
      <trkpt lat="50.686699" lon="4.797850">
        <ele>115.535288</ele>
        <time>2020-10-05T08:58:01.011Z</time>
      </trkpt>
      <trkpt lat="50.686525" lon="4.797790">
        <ele>116.075349</ele>
        <time>2020-10-05T08:58:06.704Z</time>
      </trkpt>
      <trkpt lat="50.686326" lon="4.797649">
        <ele>116.736786</ele>
        <time>2020-10-05T08:58:12.106Z</time>
      </trkpt>
      <trkpt lat="50.685712" lon="4.797088">
        <ele>118.888059</ele>
        <time>2020-10-05T08:58:31.130Z</time>
      </trkpt>
      <trkpt lat="50.685653" lon="4.797036">
        <ele>119.092966</ele>
        <time>2020-10-05T08:58:33.677Z</time>
      </trkpt>
      <trkpt lat="50.685222" lon="4.796628">
        <ele>120.338533</ele>
        <time>2020-10-05T08:58:48.421Z</time>
      </trkpt>
      <trkpt lat="50.684501" lon="4.795640">
        <ele>122.143433</ele>
        <time>2020-10-05T08:59:11.448Z</time>
      </trkpt>
      <trkpt lat="50.684396" lon="4.795516">
        <ele>122.391324</ele>
        <time>2020-10-05T08:59:14.414Z</time>
      </trkpt>
      <trkpt lat="50.684244" lon="4.795497">
        <ele>122.679548</ele>
        <time>2020-10-05T08:59:16.573Z</time>
      </trkpt>
      <trkpt lat="50.684116" lon="4.795509">
        <ele>122.921932</ele>
        <time>2020-10-05T08:59:18.867Z</time>
      </trkpt>
      <trkpt lat="50.684018" lon="4.795561">
        <ele>123.117369</ele>
        <time>2020-10-05T08:59:20.770Z</time>
      </trkpt>
      <trkpt lat="50.683915" lon="4.795702">
        <ele>123.277687</ele>
        <time>2020-10-05T08:59:22.520Z</time>
      </trkpt>
      <trkpt lat="50.683592" lon="4.796280">
        <ele>123.277687</ele>
        <time>2020-10-05T08:59:29.903Z</time>
      </trkpt>
      <trkpt lat="50.683392" lon="4.796618">
        <ele>123.277687</ele>
        <time>2020-10-05T08:59:33.570Z</time>
      </trkpt>
      <trkpt lat="50.683114" lon="4.797009">
        <ele>123.277687</ele>
        <time>2020-10-05T08:59:38.287Z</time>
      </trkpt>
      <trkpt lat="50.682901" lon="4.797313">
        <ele>123.277687</ele>
        <time>2020-10-05T08:59:41.616Z</time>
      </trkpt>
      <trkpt lat="50.682482" lon="4.797751">
        <ele>123.277687</ele>
        <time>2020-10-05T08:59:47.717Z</time>
      </trkpt>
      <trkpt lat="50.682407" lon="4.797772">
        <ele>123.277687</ele>
        <time>2020-10-05T08:59:48.566Z</time>
      </trkpt>
      <trkpt lat="50.682407" lon="4.797772">
        <ele>123.277687</ele>
        <time>2020-10-05T08:59:48.570Z</time>
      </trkpt>
      <trkpt lat="50.682407" lon="4.797772">
        <ele>120.259517</ele>
        <time>2020-10-05T08:09:33.189Z</time>
      </trkpt>
      <trkpt lat="50.682357" lon="4.797763">
        <ele>120.259517</ele>
        <time>2020-10-05T08:09:33.889Z</time>
      </trkpt>
      <trkpt lat="50.682310" lon="4.797742">
        <ele>120.259517</ele>
        <time>2020-10-05T08:09:34.536Z</time>
      </trkpt>
      <trkpt lat="50.682247" lon="4.797682">
        <ele>120.259517</ele>
        <time>2020-10-05T08:09:37.123Z</time>
      </trkpt>
      <trkpt lat="50.682004" lon="4.796961">
        <ele>120.259517</ele>
        <time>2020-10-05T08:09:55.244Z</time>
      </trkpt>
      <trkpt lat="50.681785" lon="4.796135">
        <ele>120.453757</ele>
        <time>2020-10-05T08:10:15.265Z</time>
      </trkpt>
      <trkpt lat="50.681754" lon="4.796023">
        <ele>120.495748</ele>
        <time>2020-10-05T08:10:18.366Z</time>
      </trkpt>
      <trkpt lat="50.681633" lon="4.795564">
        <ele>120.666550</ele>
        <time>2020-10-05T08:10:30.222Z</time>
      </trkpt>
      <trkpt lat="50.681570" lon="4.795339">
        <ele>120.751065</ele>
        <time>2020-10-05T08:10:36.375Z</time>
      </trkpt>
      <trkpt lat="50.681479" lon="4.795121">
        <ele>120.840756</ele>
        <time>2020-10-05T08:10:42.884Z</time>
      </trkpt>
      <trkpt lat="50.681274" lon="4.794848">
        <ele>120.986198</ele>
        <time>2020-10-05T08:10:53.932Z</time>
      </trkpt>
      <trkpt lat="50.681179" lon="4.794770">
        <ele>121.044263</ele>
        <time>2020-10-05T08:10:58.115Z</time>
      </trkpt>
      <trkpt lat="50.681449" lon="4.794238">
        <ele>121.456390</ele>
        <time>2020-10-05T08:11:06.768Z</time>
      </trkpt>
      <trkpt lat="50.681722" lon="4.793454">
        <ele>123.016465</ele>
        <time>2020-10-05T08:11:20.020Z</time>
      </trkpt>
      <trkpt lat="50.682021" lon="4.792002">
        <ele>125.678960</ele>
        <time>2020-10-05T08:11:46.728Z</time>
      </trkpt>
      <trkpt lat="50.682040" lon="4.791895">
        <ele>125.872744</ele>
        <time>2020-10-05T08:11:49.175Z</time>
      </trkpt>
      <trkpt lat="50.682279" lon="4.790565">
        <ele>128.505919</ele>
        <time>2020-10-05T08:12:14.683Z</time>
      </trkpt>
      <trkpt lat="50.682354" lon="4.790054">
        <ele>129.517551</ele>
        <time>2020-10-05T08:12:24.144Z</time>
      </trkpt>
      <trkpt lat="50.682404" lon="4.789548">
        <ele>130.505239</ele>
        <time>2020-10-05T08:12:33.251Z</time>
      </trkpt>
      <trkpt lat="50.682419" lon="4.789342">
        <ele>130.905153</ele>
        <time>2020-10-05T08:12:36.655Z</time>
      </trkpt>
      <trkpt lat="50.682557" lon="4.787444">
        <ele>132.223692</ele>
        <time>2020-10-05T08:13:02.117Z</time>
      </trkpt>
      <trkpt lat="50.682860" lon="4.783406">
        <ele>131.808471</ele>
        <time>2020-10-05T08:13:35.146Z</time>
      </trkpt>
      <trkpt lat="50.682898" lon="4.782993">
        <ele>132.090265</ele>
        <time>2020-10-05T08:13:39.318Z</time>
      </trkpt>
      <trkpt lat="50.682953" lon="4.782598">
        <ele>132.478341</ele>
        <time>2020-10-05T08:13:43.574Z</time>
      </trkpt>
      <trkpt lat="50.683036" lon="4.782162">
        <ele>132.915191</ele>
        <time>2020-10-05T08:13:49.073Z</time>
      </trkpt>
      <trkpt lat="50.684131" lon="4.778301">
        <ele>138.262285</ele>
        <time>2020-10-05T08:14:54.665Z</time>
      </trkpt>
      <trkpt lat="50.684218" lon="4.777811">
        <ele>138.803603</ele>
        <time>2020-10-05T08:15:02.319Z</time>
      </trkpt>
      <trkpt lat="50.684221" lon="4.777379">
        <ele>139.081143</ele>
        <time>2020-10-05T08:15:08.491Z</time>
      </trkpt>
      <trkpt lat="50.684206" lon="4.777086">
        <ele>139.269984</ele>
        <time>2020-10-05T08:15:12.380Z</time>
      </trkpt>
      <trkpt lat="50.684110" lon="4.776349">
        <ele>139.753347</ele>
        <time>2020-10-05T08:15:20.969Z</time>
      </trkpt>
      <trkpt lat="50.683937" lon="4.775633">
        <ele>140.245629</ele>
        <time>2020-10-05T08:15:29.238Z</time>
      </trkpt>
      <trkpt lat="50.683791" lon="4.775111">
        <ele>140.498230</ele>
        <time>2020-10-05T08:15:34.644Z</time>
      </trkpt>
      <trkpt lat="50.683677" lon="4.774701">
        <ele>140.557018</ele>
        <time>2020-10-05T08:15:38.634Z</time>
      </trkpt>
      <trkpt lat="50.683524" lon="4.774143">
        <ele>140.636849</ele>
        <time>2020-10-05T08:15:44.109Z</time>
      </trkpt>
      <trkpt lat="50.683362" lon="4.773289">
        <ele>140.753895</ele>
        <time>2020-10-05T08:15:52.594Z</time>
      </trkpt>
      <trkpt lat="50.683173" lon="4.771686">
        <ele>141.535600</ele>
        <time>2020-10-05T08:16:10.873Z</time>
      </trkpt>
      <trkpt lat="50.683123" lon="4.771321">
        <ele>141.804988</ele>
        <time>2020-10-05T08:16:15.949Z</time>
      </trkpt>
      <trkpt lat="50.683055" lon="4.771046">
        <ele>142.017941</ele>
        <time>2020-10-05T08:16:19.802Z</time>
      </trkpt>
      <trkpt lat="50.682881" lon="4.770502">
        <ele>142.457542</ele>
        <time>2020-10-05T08:16:27.654Z</time>
      </trkpt>
      <trkpt lat="50.682753" lon="4.770139">
        <ele>142.757226</ele>
        <time>2020-10-05T08:16:33.042Z</time>
      </trkpt>
      <trkpt lat="50.682535" lon="4.769476">
        <ele>143.364298</ele>
        <time>2020-10-05T08:16:42.560Z</time>
      </trkpt>
      <trkpt lat="50.682508" lon="4.769150">
        <ele>143.641271</ele>
        <time>2020-10-05T08:16:46.878Z</time>
      </trkpt>
      <trkpt lat="50.682498" lon="4.768612">
        <ele>144.094700</ele>
        <time>2020-10-05T08:16:53.863Z</time>
      </trkpt>
      <trkpt lat="50.682449" lon="4.768363">
        <ele>144.314352</ele>
        <time>2020-10-05T08:16:57.212Z</time>
      </trkpt>
      <trkpt lat="50.682384" lon="4.768273">
        <ele>144.429320</ele>
        <time>2020-10-05T08:16:59.050Z</time>
      </trkpt>
      <trkpt lat="50.681899" lon="4.767691">
        <ele>145.239396</ele>
        <time>2020-10-05T08:17:11.303Z</time>
      </trkpt>
      <trkpt lat="50.681666" lon="4.767385">
        <ele>145.534817</ele>
        <time>2020-10-05T08:17:17.122Z</time>
      </trkpt>
      <trkpt lat="50.681627" lon="4.767332">
        <ele>145.582877</ele>
        <time>2020-10-05T08:17:18.044Z</time>
      </trkpt>
      <trkpt lat="50.681485" lon="4.767149">
        <ele>145.754073</ele>
        <time>2020-10-05T08:17:21.572Z</time>
      </trkpt>
      <trkpt lat="50.681404" lon="4.767045">
        <ele>145.851582</ele>
        <time>2020-10-05T08:17:23.552Z</time>
      </trkpt>
      <trkpt lat="50.681118" lon="4.766574">
        <ele>146.237581</ele>
        <time>2020-10-05T08:17:31.239Z</time>
      </trkpt>
      <trkpt lat="50.681043" lon="4.766399">
        <ele>146.362590</ele>
        <time>2020-10-05T08:17:33.759Z</time>
      </trkpt>
      <trkpt lat="50.680831" lon="4.765923">
        <ele>146.706855</ele>
        <time>2020-10-05T08:17:40.403Z</time>
      </trkpt>
      <trkpt lat="50.680547" lon="4.765154">
        <ele>147.093289</ele>
        <time>2020-10-05T08:17:50.413Z</time>
      </trkpt>
      <trkpt lat="50.680533" lon="4.765112">
        <ele>147.106945</ele>
        <time>2020-10-05T08:17:51.080Z</time>
      </trkpt>
      <trkpt lat="50.680432" lon="4.764822">
        <ele>147.202168</ele>
        <time>2020-10-05T08:17:54.413Z</time>
      </trkpt>
      <trkpt lat="50.680150" lon="4.763987">
        <ele>147.474442</ele>
        <time>2020-10-05T08:18:04.609Z</time>
      </trkpt>
      <trkpt lat="50.680111" lon="4.763834">
        <ele>147.521897</ele>
        <time>2020-10-05T08:18:06.082Z</time>
      </trkpt>
      <trkpt lat="50.680103" lon="4.763803">
        <ele>147.531529</ele>
        <time>2020-10-05T08:18:06.408Z</time>
      </trkpt>
      <trkpt lat="50.680093" lon="4.763758">
        <ele>147.545252</ele>
        <time>2020-10-05T08:18:06.892Z</time>
      </trkpt>
      <trkpt lat="50.680046" lon="4.763544">
        <ele>147.610426</ele>
        <time>2020-10-05T08:18:09.415Z</time>
      </trkpt>
      <trkpt lat="50.679998" lon="4.763220">
        <ele>147.706174</ele>
        <time>2020-10-05T08:18:12.526Z</time>
      </trkpt>
      <trkpt lat="50.679979" lon="4.762803">
        <ele>147.800342</ele>
        <time>2020-10-05T08:18:16.861Z</time>
      </trkpt>
      <trkpt lat="50.679978" lon="4.762738">
        <ele>147.809101</ele>
        <time>2020-10-05T08:18:17.405Z</time>
      </trkpt>
      <trkpt lat="50.679971" lon="4.762509">
        <ele>147.839983</ele>
        <time>2020-10-05T08:18:19.894Z</time>
      </trkpt>
      <trkpt lat="50.680034" lon="4.761015">
        <ele>148.041671</ele>
        <time>2020-10-05T08:18:34.875Z</time>
      </trkpt>
      <trkpt lat="50.680070" lon="4.760836">
        <ele>148.066968</ele>
        <time>2020-10-05T08:18:36.880Z</time>
      </trkpt>
      <trkpt lat="50.680091" lon="4.760405">
        <ele>148.125195</ele>
        <time>2020-10-05T08:18:41.101Z</time>
      </trkpt>
      <trkpt lat="50.680165" lon="4.759486">
        <ele>148.094636</ele>
        <time>2020-10-05T08:18:49.956Z</time>
      </trkpt>
      <trkpt lat="50.680129" lon="4.758436">
        <ele>147.992570</ele>
        <time>2020-10-05T08:18:59.668Z</time>
      </trkpt>
      <trkpt lat="50.680147" lon="4.758264">
        <ele>147.975649</ele>
        <time>2020-10-05T08:19:01.230Z</time>
      </trkpt>
      <trkpt lat="50.680145" lon="4.758164">
        <ele>147.965937</ele>
        <time>2020-10-05T08:19:02.162Z</time>
      </trkpt>
      <trkpt lat="50.680098" lon="4.757587">
        <ele>147.909471</ele>
        <time>2020-10-05T08:19:07.170Z</time>
      </trkpt>
      <trkpt lat="50.680082" lon="4.757515">
        <ele>147.902065</ele>
        <time>2020-10-05T08:19:07.868Z</time>
      </trkpt>
      <trkpt lat="50.680034" lon="4.757448">
        <ele>147.892249</ele>
        <time>2020-10-05T08:19:08.666Z</time>
      </trkpt>
      <trkpt lat="50.679128" lon="4.756966">
        <ele>147.314336</ele>
        <time>2020-10-05T08:19:21.541Z</time>
      </trkpt>
      <trkpt lat="50.679005" lon="4.756953">
        <ele>147.236576</ele>
        <time>2020-10-05T08:19:23.152Z</time>
      </trkpt>
      <trkpt lat="50.678901" lon="4.756972">
        <ele>147.170537</ele>
        <time>2020-10-05T08:19:24.507Z</time>
      </trkpt>
      <trkpt lat="50.678812" lon="4.757002">
        <ele>147.113131</ele>
        <time>2020-10-05T08:19:25.706Z</time>
      </trkpt>
      <trkpt lat="50.678764" lon="4.757017">
        <ele>147.082266</ele>
        <time>2020-10-05T08:19:26.316Z</time>
      </trkpt>
      <trkpt lat="50.678650" lon="4.757088">
        <ele>147.004960</ele>
        <time>2020-10-05T08:19:27.815Z</time>
      </trkpt>
      <trkpt lat="50.678065" lon="4.757696">
        <ele>146.284984</ele>
        <time>2020-10-05T08:19:36.485Z</time>
      </trkpt>
      <trkpt lat="50.677951" lon="4.757814">
        <ele>146.070744</ele>
        <time>2020-10-05T08:19:38.088Z</time>
      </trkpt>
      <trkpt lat="50.677831" lon="4.757903">
        <ele>145.862385</ele>
        <time>2020-10-05T08:19:39.622Z</time>
      </trkpt>
      <trkpt lat="50.677679" lon="4.757964">
        <ele>145.615925</ele>
        <time>2020-10-05T08:19:41.429Z</time>
      </trkpt>
      <trkpt lat="50.677525" lon="4.757986">
        <ele>145.372936</ele>
        <time>2020-10-05T08:19:43.172Z</time>
      </trkpt>
      <trkpt lat="50.677401" lon="4.757956">
        <ele>145.175803</ele>
        <time>2020-10-05T08:19:44.578Z</time>
      </trkpt>
      <trkpt lat="50.677066" lon="4.757735">
        <ele>144.605226</ele>
        <time>2020-10-05T08:19:48.671Z</time>
      </trkpt>
      <trkpt lat="50.676907" lon="4.757570">
        <ele>144.306186</ele>
        <time>2020-10-05T08:19:50.784Z</time>
      </trkpt>
      <trkpt lat="50.676870" lon="4.757534">
        <ele>144.237880</ele>
        <time>2020-10-05T08:19:51.254Z</time>
      </trkpt>
      <trkpt lat="50.676767" lon="4.757427">
        <ele>144.044099</ele>
        <time>2020-10-05T08:19:52.610Z</time>
      </trkpt>
      <trkpt lat="50.676601" lon="4.757253">
        <ele>143.710864</ele>
        <time>2020-10-05T08:19:54.795Z</time>
      </trkpt>
      <trkpt lat="50.676236" lon="4.756872">
        <ele>142.951351</ele>
        <time>2020-10-05T08:19:59.550Z</time>
      </trkpt>
      <trkpt lat="50.675715" lon="4.756348">
        <ele>141.879104</ele>
        <time>2020-10-05T08:20:06.388Z</time>
      </trkpt>
      <trkpt lat="50.675311" lon="4.756032">
        <ele>141.096544</ele>
        <time>2020-10-05T08:20:11.524Z</time>
      </trkpt>
      <trkpt lat="50.674793" lon="4.755725">
        <ele>140.724466</ele>
        <time>2020-10-05T08:20:18.206Z</time>
      </trkpt>
      <trkpt lat="50.673514" lon="4.755188">
        <ele>140.458176</ele>
        <time>2020-10-05T08:20:37.615Z</time>
      </trkpt>
      <trkpt lat="50.672547" lon="4.754651">
        <ele>141.405113</ele>
        <time>2020-10-05T08:20:56.610Z</time>
      </trkpt>
      <trkpt lat="50.671826" lon="4.753921">
        <ele>142.291165</ele>
        <time>2020-10-05T08:21:13.970Z</time>
      </trkpt>
      <trkpt lat="50.668355" lon="4.748981">
        <ele>148.138423</ele>
        <time>2020-10-05T08:22:48.444Z</time>
      </trkpt>
      <trkpt lat="50.667582" lon="4.747931">
        <ele>148.706049</ele>
        <time>2020-10-05T08:23:05.223Z</time>
      </trkpt>
      <trkpt lat="50.667062" lon="4.747284">
        <ele>148.475382</ele>
        <time>2020-10-05T08:23:14.431Z</time>
      </trkpt>
      <trkpt lat="50.665847" lon="4.746023">
        <ele>148.106318</ele>
        <time>2020-10-05T08:23:32.985Z</time>
      </trkpt>
      <trkpt lat="50.664581" lon="4.744944">
        <ele>148.122966</ele>
        <time>2020-10-05T08:23:55.120Z</time>
      </trkpt>
      <trkpt lat="50.663267" lon="4.743882">
        <ele>149.087244</ele>
        <time>2020-10-05T08:24:22.417Z</time>
      </trkpt>
      <trkpt lat="50.662985" lon="4.743633">
        <ele>148.941393</ele>
        <time>2020-10-05T08:24:27.914Z</time>
      </trkpt>
      <trkpt lat="50.662289" lon="4.743063">
        <ele>148.329727</ele>
        <time>2020-10-05T08:24:38.778Z</time>
      </trkpt>
      <trkpt lat="50.661318" lon="4.742268">
        <ele>147.108811</ele>
        <time>2020-10-05T08:24:51.008Z</time>
      </trkpt>
      <trkpt lat="50.661165" lon="4.742180">
        <ele>146.799594</ele>
        <time>2020-10-05T08:24:52.687Z</time>
      </trkpt>
      <trkpt lat="50.661113" lon="4.742150">
        <ele>146.694462</ele>
        <time>2020-10-05T08:24:53.272Z</time>
      </trkpt>
      <trkpt lat="50.661043" lon="4.742092">
        <ele>146.544331</ele>
        <time>2020-10-05T08:24:54.151Z</time>
      </trkpt>
      <trkpt lat="50.661033" lon="4.742082">
        <ele>146.521849</ele>
        <time>2020-10-05T08:24:54.275Z</time>
      </trkpt>
      <trkpt lat="50.660995" lon="4.742051">
        <ele>146.440619</ele>
        <time>2020-10-05T08:24:54.754Z</time>
      </trkpt>
      <trkpt lat="50.660988" lon="4.741981">
        <ele>146.355323</ele>
        <time>2020-10-05T08:24:55.225Z</time>
      </trkpt>
      <trkpt lat="50.660973" lon="4.741926">
        <ele>146.283256</ele>
        <time>2020-10-05T08:24:55.605Z</time>
      </trkpt>
      <trkpt lat="50.660945" lon="4.741878">
        <ele>146.204741</ele>
        <time>2020-10-05T08:24:56.033Z</time>
      </trkpt>
      <trkpt lat="50.660917" lon="4.741848">
        <ele>146.140473</ele>
        <time>2020-10-05T08:24:56.383Z</time>
      </trkpt>
      <trkpt lat="50.660880" lon="4.741826">
        <ele>146.065394</ele>
        <time>2020-10-05T08:24:56.790Z</time>
      </trkpt>
      <trkpt lat="50.660848" lon="4.741821">
        <ele>146.004336</ele>
        <time>2020-10-05T08:24:57.135Z</time>
      </trkpt>
      <trkpt lat="50.660810" lon="4.741830">
        <ele>145.931375</ele>
        <time>2020-10-05T08:24:57.566Z</time>
      </trkpt>
      <trkpt lat="50.660774" lon="4.741854">
        <ele>145.857166</ele>
        <time>2020-10-05T08:24:57.981Z</time>
      </trkpt>
      <trkpt lat="50.660651" lon="4.741755">
        <ele>145.594975</ele>
        <time>2020-10-05T08:24:59.469Z</time>
      </trkpt>
      <trkpt lat="50.660368" lon="4.741508">
        <ele>144.980863</ele>
        <time>2020-10-05T08:25:03.071Z</time>
      </trkpt>
      <trkpt lat="50.660201" lon="4.741414">
        <ele>144.644189</ele>
        <time>2020-10-05T08:25:05.060Z</time>
      </trkpt>
      <trkpt lat="50.659916" lon="4.741189">
        <ele>144.350653</ele>
        <time>2020-10-05T08:25:08.812Z</time>
      </trkpt>
      <trkpt lat="50.659407" lon="4.740816">
        <ele>144.477416</ele>
        <time>2020-10-05T08:25:16.336Z</time>
      </trkpt>
      <trkpt lat="50.659183" lon="4.740652">
        <ele>144.533192</ele>
        <time>2020-10-05T08:25:20.312Z</time>
      </trkpt>
      <trkpt lat="50.657614" lon="4.739844">
        <ele>145.596423</ele>
        <time>2020-10-05T08:25:52.825Z</time>
      </trkpt>
      <trkpt lat="50.657228" lon="4.739469">
        <ele>146.086818</ele>
        <time>2020-10-05T08:26:01.625Z</time>
      </trkpt>
      <trkpt lat="50.656604" lon="4.738666">
        <ele>146.771008</ele>
        <time>2020-10-05T08:26:16.276Z</time>
      </trkpt>
      <trkpt lat="50.656454" lon="4.738490">
        <ele>146.842194</ele>
        <time>2020-10-05T08:26:19.569Z</time>
      </trkpt>
      <trkpt lat="50.656514" lon="4.738282">
        <ele>146.897359</ele>
        <time>2020-10-05T08:26:21.958Z</time>
      </trkpt>
      <trkpt lat="50.656496" lon="4.737623">
        <ele>147.056589</ele>
        <time>2020-10-05T08:26:28.812Z</time>
      </trkpt>
      <trkpt lat="50.656728" lon="4.735538">
        <ele>147.423535</ele>
        <time>2020-10-05T08:26:49.221Z</time>
      </trkpt>
      <trkpt lat="50.656738" lon="4.734742">
        <ele>147.485900</ele>
        <time>2020-10-05T08:26:56.829Z</time>
      </trkpt>
      <trkpt lat="50.656557" lon="4.733154">
        <ele>147.708816</ele>
        <time>2020-10-05T08:27:12.881Z</time>
      </trkpt>
      <trkpt lat="50.656378" lon="4.730650">
        <ele>148.470147</ele>
        <time>2020-10-05T08:27:39.537Z</time>
      </trkpt>
      <trkpt lat="50.656198" lon="4.729182">
        <ele>149.232129</ele>
        <time>2020-10-05T08:27:56.399Z</time>
      </trkpt>
      <trkpt lat="50.656202" lon="4.728422">
        <ele>149.619452</ele>
        <time>2020-10-05T08:28:05.533Z</time>
      </trkpt>
      <trkpt lat="50.656261" lon="4.727852">
        <ele>149.926278</ele>
        <time>2020-10-05T08:28:12.517Z</time>
      </trkpt>
      <trkpt lat="50.656296" lon="4.727492">
        <ele>150.145757</ele>
        <time>2020-10-05T08:28:16.859Z</time>
      </trkpt>
      <trkpt lat="50.656273" lon="4.727269">
        <ele>150.281908</ele>
        <time>2020-10-05T08:28:19.766Z</time>
      </trkpt>
      <trkpt lat="50.656204" lon="4.727124">
        <ele>150.391164</ele>
        <time>2020-10-05T08:28:21.959Z</time>
      </trkpt>
      <trkpt lat="50.656086" lon="4.726992">
        <ele>150.528672</ele>
        <time>2020-10-05T08:28:24.662Z</time>
      </trkpt>
      <trkpt lat="50.655866" lon="4.726722">
        <ele>150.793634</ele>
        <time>2020-10-05T08:28:29.896Z</time>
      </trkpt>
      <trkpt lat="50.655810" lon="4.726459">
        <ele>150.960825</ele>
        <time>2020-10-05T08:28:33.298Z</time>
      </trkpt>
      <trkpt lat="50.655697" lon="4.725882">
        <ele>151.324752</ele>
        <time>2020-10-05T08:28:40.378Z</time>
      </trkpt>
      <trkpt lat="50.655567" lon="4.725155">
        <ele>151.594267</ele>
        <time>2020-10-05T08:28:48.972Z</time>
      </trkpt>
      <trkpt lat="50.655403" lon="4.724150">
        <ele>151.703450</ele>
        <time>2020-10-05T08:28:59.786Z</time>
      </trkpt>
      <trkpt lat="50.655232" lon="4.723214">
        <ele>151.805934</ele>
        <time>2020-10-05T08:29:09.203Z</time>
      </trkpt>
      <trkpt lat="50.654674" lon="4.721710">
        <ele>151.261069</ele>
        <time>2020-10-05T08:29:23.587Z</time>
      </trkpt>
      <trkpt lat="50.654597" lon="4.721532">
        <ele>151.162164</ele>
        <time>2020-10-05T08:29:25.498Z</time>
      </trkpt>
      <trkpt lat="50.654426" lon="4.721162">
        <ele>150.952006</ele>
        <time>2020-10-05T08:29:30.587Z</time>
      </trkpt>
      <trkpt lat="50.654283" lon="4.720876">
        <ele>150.784825</ele>
        <time>2020-10-05T08:29:34.656Z</time>
      </trkpt>
      <trkpt lat="50.654236" lon="4.720779">
        <ele>150.728790</ele>
        <time>2020-10-05T08:29:35.907Z</time>
      </trkpt>
      <trkpt lat="50.654116" lon="4.720535">
        <ele>150.587051</ele>
        <time>2020-10-05T08:29:39.430Z</time>
      </trkpt>
      <trkpt lat="50.654051" lon="4.720380">
        <ele>150.483593</ele>
        <time>2020-10-05T08:29:41.366Z</time>
      </trkpt>
      <trkpt lat="50.654013" lon="4.720274">
        <ele>150.407230</ele>
        <time>2020-10-05T08:29:42.679Z</time>
      </trkpt>
      <trkpt lat="50.653933" lon="4.720049">
        <ele>150.245459</ele>
        <time>2020-10-05T08:29:45.615Z</time>
      </trkpt>
      <trkpt lat="50.653826" lon="4.719739">
        <ele>150.024116</ele>
        <time>2020-10-05T08:29:49.368Z</time>
      </trkpt>
      <trkpt lat="50.653787" lon="4.719635">
        <ele>149.948344</ele>
        <time>2020-10-05T08:29:50.755Z</time>
      </trkpt>
      <trkpt lat="50.653725" lon="4.719512">
        <ele>149.849803</ele>
        <time>2020-10-05T08:29:52.457Z</time>
      </trkpt>
      <trkpt lat="50.653661" lon="4.719408">
        <ele>149.758914</ele>
        <time>2020-10-05T08:29:53.941Z</time>
      </trkpt>
      <trkpt lat="50.653551" lon="4.719247">
        <ele>149.610484</ele>
        <time>2020-10-05T08:29:56.552Z</time>
      </trkpt>
      <trkpt lat="50.653348" lon="4.718960">
        <ele>149.340838</ele>
        <time>2020-10-05T08:30:01.212Z</time>
      </trkpt>
      <trkpt lat="50.653207" lon="4.718735">
        <ele>149.142446</ele>
        <time>2020-10-05T08:30:04.906Z</time>
      </trkpt>
      <trkpt lat="50.652966" lon="4.718288">
        <ele>148.774477</ele>
        <time>2020-10-05T08:30:11.661Z</time>
      </trkpt>
      <trkpt lat="50.652847" lon="4.718050">
        <ele>148.606033</ele>
        <time>2020-10-05T08:30:15.088Z</time>
      </trkpt>
      <trkpt lat="50.652631" lon="4.717621">
        <ele>148.302050</ele>
        <time>2020-10-05T08:30:21.263Z</time>
      </trkpt>
      <trkpt lat="50.652508" lon="4.717206">
        <ele>148.047848</ele>
        <time>2020-10-05T08:30:26.355Z</time>
      </trkpt>
      <trkpt lat="50.652504" lon="4.717153">
        <ele>148.018231</ele>
        <time>2020-10-05T08:30:26.945Z</time>
      </trkpt>
      <trkpt lat="50.652499" lon="4.717052">
        <ele>147.962016</ele>
        <time>2020-10-05T08:30:28.110Z</time>
      </trkpt>
      <trkpt lat="50.652492" lon="4.716759">
        <ele>147.799315</ele>
        <time>2020-10-05T08:30:31.428Z</time>
      </trkpt>
      <trkpt lat="50.652502" lon="4.716669">
        <ele>147.748613</ele>
        <time>2020-10-05T08:30:32.462Z</time>
      </trkpt>
      <trkpt lat="50.652614" lon="4.716222">
        <ele>147.481907</ele>
        <time>2020-10-05T08:30:37.889Z</time>
      </trkpt>
      <trkpt lat="50.652624" lon="4.716179">
        <ele>147.456492</ele>
        <time>2020-10-05T08:30:38.397Z</time>
      </trkpt>
      <trkpt lat="50.652644" lon="4.716078">
        <ele>147.397778</ele>
        <time>2020-10-05T08:30:39.537Z</time>
      </trkpt>
      <trkpt lat="50.652651" lon="4.715928">
        <ele>147.314318</ele>
        <time>2020-10-05T08:30:41.275Z</time>
      </trkpt>
      <trkpt lat="50.652659" lon="4.715726">
        <ele>147.202011</ele>
        <time>2020-10-05T08:30:43.473Z</time>
      </trkpt>
      <trkpt lat="50.652642" lon="4.715324">
        <ele>146.810698</ele>
        <time>2020-10-05T08:30:47.964Z</time>
      </trkpt>
      <trkpt lat="50.652623" lon="4.715242">
        <ele>146.725256</ele>
        <time>2020-10-05T08:30:48.878Z</time>
      </trkpt>
      <trkpt lat="50.652584" lon="4.715194">
        <ele>146.648896</ele>
        <time>2020-10-05T08:30:49.713Z</time>
      </trkpt>
      <trkpt lat="50.652512" lon="4.715159">
        <ele>146.532599</ele>
        <time>2020-10-05T08:30:51.001Z</time>
      </trkpt>
      <trkpt lat="50.652480" lon="4.715156">
        <ele>146.483117</ele>
        <time>2020-10-05T08:30:51.516Z</time>
      </trkpt>
      <trkpt lat="50.652231" lon="4.715129">
        <ele>146.097854</ele>
        <time>2020-10-05T08:30:55.657Z</time>
      </trkpt>
      <trkpt lat="50.651930" lon="4.715054">
        <ele>145.627470</ele>
        <time>2020-10-05T08:31:00.565Z</time>
      </trkpt>
      <trkpt lat="50.651820" lon="4.714971">
        <ele>145.439244</ele>
        <time>2020-10-05T08:31:02.485Z</time>
      </trkpt>
      <trkpt lat="50.651772" lon="4.714921">
        <ele>145.350451</ele>
        <time>2020-10-05T08:31:03.373Z</time>
      </trkpt>
      <trkpt lat="50.651621" lon="4.714749">
        <ele>145.062937</ele>
        <time>2020-10-05T08:31:06.350Z</time>
      </trkpt>
      <trkpt lat="50.651528" lon="4.714658">
        <ele>144.894000</ele>
        <time>2020-10-05T08:31:08.060Z</time>
      </trkpt>
      <trkpt lat="50.651480" lon="4.714611">
        <ele>144.806790</ele>
        <time>2020-10-05T08:31:08.957Z</time>
      </trkpt>
      <trkpt lat="50.651442" lon="4.714585">
        <ele>144.742852</ele>
        <time>2020-10-05T08:31:09.649Z</time>
      </trkpt>
      <trkpt lat="50.651320" lon="4.714513">
        <ele>144.541782</ele>
        <time>2020-10-05T08:31:11.764Z</time>
      </trkpt>
      <trkpt lat="50.651182" lon="4.714442">
        <ele>144.334081</ele>
        <time>2020-10-05T08:31:14.050Z</time>
      </trkpt>
      <trkpt lat="50.650960" lon="4.714341">
        <ele>144.033543</ele>
        <time>2020-10-05T08:31:17.877Z</time>
      </trkpt>
      <trkpt lat="50.650873" lon="4.714298">
        <ele>143.914951</ele>
        <time>2020-10-05T08:31:19.342Z</time>
      </trkpt>
      <trkpt lat="50.650845" lon="4.714283">
        <ele>143.876487</ele>
        <time>2020-10-05T08:31:19.813Z</time>
      </trkpt>
      <trkpt lat="50.650751" lon="4.714232">
        <ele>143.747185</ele>
        <time>2020-10-05T08:31:21.486Z</time>
      </trkpt>
      <trkpt lat="50.650680" lon="4.714194">
        <ele>143.649659</ele>
        <time>2020-10-05T08:31:22.780Z</time>
      </trkpt>
      <trkpt lat="50.650620" lon="4.714147">
        <ele>143.562519</ele>
        <time>2020-10-05T08:31:23.900Z</time>
      </trkpt>
      <trkpt lat="50.650558" lon="4.714098">
        <ele>143.472314</ele>
        <time>2020-10-05T08:31:25.034Z</time>
      </trkpt>
      <trkpt lat="50.650500" lon="4.714052">
        <ele>143.387869</ele>
        <time>2020-10-05T08:31:26.084Z</time>
      </trkpt>
      <trkpt lat="50.650394" lon="4.713856">
        <ele>143.175406</ele>
        <time>2020-10-05T08:31:28.883Z</time>
      </trkpt>
      <trkpt lat="50.650308" lon="4.713675">
        <ele>142.988865</ele>
        <time>2020-10-05T08:31:31.277Z</time>
      </trkpt>
      <trkpt lat="50.650258" lon="4.713572">
        <ele>142.881879</ele>
        <time>2020-10-05T08:31:32.661Z</time>
      </trkpt>
      <trkpt lat="50.650212" lon="4.713480">
        <ele>142.785250</ele>
        <time>2020-10-05T08:31:33.958Z</time>
      </trkpt>
      <trkpt lat="50.650150" lon="4.713355">
        <ele>142.654361</ele>
        <time>2020-10-05T08:31:35.663Z</time>
      </trkpt>
      <trkpt lat="50.650093" lon="4.713268">
        <ele>142.551184</ele>
        <time>2020-10-05T08:31:36.987Z</time>
      </trkpt>
      <trkpt lat="50.649986" lon="4.713101">
        <ele>142.355375</ele>
        <time>2020-10-05T08:31:39.525Z</time>
      </trkpt>
      <trkpt lat="50.649824" lon="4.712942">
        <ele>142.107183</ele>
        <time>2020-10-05T08:31:42.723Z</time>
      </trkpt>
      <trkpt lat="50.649692" lon="4.712820">
        <ele>142.091025</ele>
        <time>2020-10-05T08:31:45.446Z</time>
      </trkpt>
      <trkpt lat="50.649390" lon="4.712641">
        <ele>142.112428</ele>
        <time>2020-10-05T08:31:51.253Z</time>
      </trkpt>
      <trkpt lat="50.649350" lon="4.712616">
        <ele>142.115282</ele>
        <time>2020-10-05T08:31:52.163Z</time>
      </trkpt>
      <trkpt lat="50.648810" lon="4.712283">
        <ele>142.153748</ele>
        <time>2020-10-05T08:32:03.848Z</time>
      </trkpt>
      <trkpt lat="50.648465" lon="4.712098">
        <ele>142.177922</ele>
        <time>2020-10-05T08:32:12.257Z</time>
      </trkpt>
      <trkpt lat="50.648258" lon="4.712010">
        <ele>142.192145</ele>
        <time>2020-10-05T08:32:17.391Z</time>
      </trkpt>
      <trkpt lat="50.647987" lon="4.712000">
        <ele>142.376369</ele>
        <time>2020-10-05T08:32:23.927Z</time>
      </trkpt>
      <trkpt lat="50.647588" lon="4.712166">
        <ele>142.929691</ele>
        <time>2020-10-05T08:32:33.858Z</time>
      </trkpt>
      <trkpt lat="50.647387" lon="4.712184">
        <ele>143.199645</ele>
        <time>2020-10-05T08:32:38.935Z</time>
      </trkpt>
      <trkpt lat="50.646991" lon="4.712027">
        <ele>143.747162</ele>
        <time>2020-10-05T08:32:49.634Z</time>
      </trkpt>
      <trkpt lat="50.646642" lon="4.711890">
        <ele>144.229415</ele>
        <time>2020-10-05T08:32:59.433Z</time>
      </trkpt>
      <trkpt lat="50.645761" lon="4.711761">
        <ele>145.128073</ele>
        <time>2020-10-05T08:33:23.157Z</time>
      </trkpt>
      <trkpt lat="50.645581" lon="4.711763">
        <ele>145.282899</ele>
        <time>2020-10-05T08:33:27.579Z</time>
      </trkpt>
      <trkpt lat="50.645450" lon="4.711763">
        <ele>145.395575</ele>
        <time>2020-10-05T08:33:30.792Z</time>
      </trkpt>
      <trkpt lat="50.645250" lon="4.711806">
        <ele>145.569191</ele>
        <time>2020-10-05T08:33:35.302Z</time>
      </trkpt>
      <trkpt lat="50.645192" lon="4.711818">
        <ele>145.619506</ele>
        <time>2020-10-05T08:33:36.729Z</time>
      </trkpt>
      <trkpt lat="50.645080" lon="4.711841">
        <ele>145.716653</ele>
        <time>2020-10-05T08:33:39.357Z</time>
      </trkpt>
      <trkpt lat="50.644677" lon="4.711861">
        <ele>146.063454</ele>
        <time>2020-10-05T08:33:48.150Z</time>
      </trkpt>
      <trkpt lat="50.643409" lon="4.711246">
        <ele>145.352885</ele>
        <time>2020-10-05T08:34:12.628Z</time>
      </trkpt>
      <trkpt lat="50.643216" lon="4.711137">
        <ele>145.216535</ele>
        <time>2020-10-05T08:34:16.043Z</time>
      </trkpt>
      <trkpt lat="50.642770" lon="4.710807">
        <ele>144.899702</ele>
        <time>2020-10-05T08:34:24.495Z</time>
      </trkpt>
      <trkpt lat="50.642503" lon="4.710624">
        <ele>144.733985</ele>
        <time>2020-10-05T08:34:29.496Z</time>
      </trkpt>
      <trkpt lat="50.642370" lon="4.710508">
        <ele>144.647471</ele>
        <time>2020-10-05T08:34:32.115Z</time>
      </trkpt>
      <trkpt lat="50.642158" lon="4.710199">
        <ele>144.483143</ele>
        <time>2020-10-05T08:34:37.343Z</time>
      </trkpt>
      <trkpt lat="50.642124" lon="4.710144">
        <ele>144.455417</ele>
        <time>2020-10-05T08:34:38.124Z</time>
      </trkpt>
      <trkpt lat="50.641957" lon="4.709867">
        <ele>144.317452</ele>
        <time>2020-10-05T08:34:42.466Z</time>
      </trkpt>
      <trkpt lat="50.641897" lon="4.709723">
        <ele>144.255255</ele>
        <time>2020-10-05T08:34:44.423Z</time>
      </trkpt>
      <trkpt lat="50.641856" lon="4.709632">
        <ele>144.214960</ele>
        <time>2020-10-05T08:34:45.692Z</time>
      </trkpt>
      <trkpt lat="50.641870" lon="4.709532">
        <ele>144.177993</ele>
        <time>2020-10-05T08:34:46.751Z</time>
      </trkpt>
      <trkpt lat="50.641766" lon="4.708960">
        <ele>143.963194</ele>
        <time>2020-10-05T08:34:52.330Z</time>
      </trkpt>
      <trkpt lat="50.641689" lon="4.708634">
        <ele>144.050002</ele>
        <time>2020-10-05T08:34:55.829Z</time>
      </trkpt>
      <trkpt lat="50.641613" lon="4.708315">
        <ele>144.181642</ele>
        <time>2020-10-05T08:34:59.817Z</time>
      </trkpt>
      <trkpt lat="50.641373" lon="4.707705">
        <ele>144.458956</ele>
        <time>2020-10-05T08:35:07.945Z</time>
      </trkpt>
      <trkpt lat="50.641342" lon="4.707627">
        <ele>144.494516</ele>
        <time>2020-10-05T08:35:08.986Z</time>
      </trkpt>
      <trkpt lat="50.641104" lon="4.707026">
        <ele>144.768236</ele>
        <time>2020-10-05T08:35:17.218Z</time>
      </trkpt>
      <trkpt lat="50.640813" lon="4.706289">
        <ele>145.084888</ele>
        <time>2020-10-05T08:35:26.829Z</time>
      </trkpt>
      <trkpt lat="50.640663" lon="4.705948">
        <ele>145.200888</ele>
        <time>2020-10-05T08:35:31.424Z</time>
      </trkpt>
      <trkpt lat="50.640618" lon="4.705775">
        <ele>145.253154</ele>
        <time>2020-10-05T08:35:33.325Z</time>
      </trkpt>
      <trkpt lat="50.640600" lon="4.705465">
        <ele>145.340167</ele>
        <time>2020-10-05T08:35:36.834Z</time>
      </trkpt>
      <trkpt lat="50.640713" lon="4.703917">
        <ele>145.775718</ele>
        <time>2020-10-05T08:35:52.833Z</time>
      </trkpt>
      <trkpt lat="50.640744" lon="4.702207">
        <ele>146.001245</ele>
        <time>2020-10-05T08:36:10.103Z</time>
      </trkpt>
      <trkpt lat="50.640806" lon="4.701580">
        <ele>146.073246</ele>
        <time>2020-10-05T08:36:16.483Z</time>
      </trkpt>
      <trkpt lat="50.641066" lon="4.700219">
        <ele>145.897239</ele>
        <time>2020-10-05T08:36:29.906Z</time>
      </trkpt>
      <trkpt lat="50.641525" lon="4.698487">
        <ele>145.256106</ele>
        <time>2020-10-05T08:36:45.329Z</time>
      </trkpt>
      <trkpt lat="50.641635" lon="4.697915">
        <ele>144.918481</ele>
        <time>2020-10-05T08:36:49.908Z</time>
      </trkpt>
      <trkpt lat="50.642310" lon="4.693638">
        <ele>142.087580</ele>
        <time>2020-10-05T08:37:23.595Z</time>
      </trkpt>
      <trkpt lat="50.642542" lon="4.691519">
        <ele>141.194700</ele>
        <time>2020-10-05T08:37:41.870Z</time>
      </trkpt>
      <trkpt lat="50.642613" lon="4.691179">
        <ele>141.086989</ele>
        <time>2020-10-05T08:37:44.868Z</time>
      </trkpt>
      <trkpt lat="50.642695" lon="4.690927">
        <ele>141.001761</ele>
        <time>2020-10-05T08:37:47.603Z</time>
      </trkpt>
      <trkpt lat="50.642928" lon="4.690398">
        <ele>140.807956</ele>
        <time>2020-10-05T08:37:53.095Z</time>
      </trkpt>
      <trkpt lat="50.643314" lon="4.688783">
        <ele>140.420225</ele>
        <time>2020-10-05T08:38:07.109Z</time>
      </trkpt>
      <trkpt lat="50.643476" lon="4.688331">
        <ele>140.311441</ele>
        <time>2020-10-05T08:38:11.794Z</time>
      </trkpt>
      <trkpt lat="50.643510" lon="4.688220">
        <ele>140.285613</ele>
        <time>2020-10-05T08:38:12.645Z</time>
      </trkpt>
      <trkpt lat="50.643533" lon="4.688101">
        <ele>140.259547</ele>
        <time>2020-10-05T08:38:13.886Z</time>
      </trkpt>
      <trkpt lat="50.643594" lon="4.687679">
        <ele>140.168860</ele>
        <time>2020-10-05T08:38:17.885Z</time>
      </trkpt>
      <trkpt lat="50.643646" lon="4.687222">
        <ele>140.288166</ele>
        <time>2020-10-05T08:38:23.042Z</time>
      </trkpt>
      <trkpt lat="50.643679" lon="4.686836">
        <ele>140.521551</ele>
        <time>2020-10-05T08:38:26.981Z</time>
      </trkpt>
      <trkpt lat="50.643586" lon="4.685711">
        <ele>141.201356</ele>
        <time>2020-10-05T08:38:40.165Z</time>
      </trkpt>
      <trkpt lat="50.643088" lon="4.683484">
        <ele>142.400686</ele>
        <time>2020-10-05T08:39:11.631Z</time>
      </trkpt>
      <trkpt lat="50.642916" lon="4.683037">
        <ele>142.628368</ele>
        <time>2020-10-05T08:39:17.212Z</time>
      </trkpt>
      <trkpt lat="50.642830" lon="4.682813">
        <ele>142.742396</ele>
        <time>2020-10-05T08:39:19.650Z</time>
      </trkpt>
      <trkpt lat="50.642772" lon="4.682649">
        <ele>142.824167</ele>
        <time>2020-10-05T08:39:21.689Z</time>
      </trkpt>
      <trkpt lat="50.642748" lon="4.682561">
        <ele>142.865881</ele>
        <time>2020-10-05T08:39:22.649Z</time>
      </trkpt>
      <trkpt lat="50.642739" lon="4.682532">
        <ele>142.879941</ele>
        <time>2020-10-05T08:39:22.841Z</time>
      </trkpt>
      <trkpt lat="50.642639" lon="4.682040">
        <ele>143.018221</ele>
        <time>2020-10-05T08:39:27.626Z</time>
      </trkpt>
      <trkpt lat="50.642536" lon="4.681591">
        <ele>142.802858</ele>
        <time>2020-10-05T08:39:31.509Z</time>
      </trkpt>
      <trkpt lat="50.642466" lon="4.681323">
        <ele>142.672126</ele>
        <time>2020-10-05T08:39:33.744Z</time>
      </trkpt>
      <trkpt lat="50.642318" lon="4.680750">
        <ele>142.393060</ele>
        <time>2020-10-05T08:39:38.527Z</time>
      </trkpt>
      <trkpt lat="50.642185" lon="4.680191">
        <ele>142.123762</ele>
        <time>2020-10-05T08:39:43.091Z</time>
      </trkpt>
      <trkpt lat="50.642170" lon="4.680096">
        <ele>142.079604</ele>
        <time>2020-10-05T08:39:43.843Z</time>
      </trkpt>
      <trkpt lat="50.642160" lon="4.680036">
        <ele>142.051622</ele>
        <time>2020-10-05T08:39:44.408Z</time>
      </trkpt>
      <trkpt lat="50.642140" lon="4.679916">
        <ele>141.995658</ele>
        <time>2020-10-05T08:39:45.512Z</time>
      </trkpt>
      <trkpt lat="50.642123" lon="4.679823">
        <ele>141.952002</ele>
        <time>2020-10-05T08:39:46.288Z</time>
      </trkpt>
      <trkpt lat="50.642086" lon="4.679502">
        <ele>141.804843</ele>
        <time>2020-10-05T08:39:48.940Z</time>
      </trkpt>
      <trkpt lat="50.641997" lon="4.678481">
        <ele>141.607470</ele>
        <time>2020-10-05T08:39:58.090Z</time>
      </trkpt>
      <trkpt lat="50.641931" lon="4.677738">
        <ele>141.473369</ele>
        <time>2020-10-05T08:40:04.852Z</time>
      </trkpt>
      <trkpt lat="50.641905" lon="4.677461">
        <ele>141.423319</ele>
        <time>2020-10-05T08:40:07.489Z</time>
      </trkpt>
      <trkpt lat="50.641876" lon="4.677261">
        <ele>141.386648</ele>
        <time>2020-10-05T08:40:09.182Z</time>
      </trkpt>
      <trkpt lat="50.641818" lon="4.677010">
        <ele>141.338898</ele>
        <time>2020-10-05T08:40:11.688Z</time>
      </trkpt>
      <trkpt lat="50.641496" lon="4.675815">
        <ele>141.230139</ele>
        <time>2020-10-05T08:40:23.468Z</time>
      </trkpt>
      <trkpt lat="50.641488" lon="4.675773">
        <ele>141.228011</ele>
        <time>2020-10-05T08:40:23.780Z</time>
      </trkpt>
      <trkpt lat="50.641466" lon="4.675702">
        <ele>141.224177</ele>
        <time>2020-10-05T08:40:24.458Z</time>
      </trkpt>
      <trkpt lat="50.641268" lon="4.674854">
        <ele>141.180331</ele>
        <time>2020-10-05T08:40:33.273Z</time>
      </trkpt>
      <trkpt lat="50.641248" lon="4.674678">
        <ele>141.171655</ele>
        <time>2020-10-05T08:40:34.583Z</time>
      </trkpt>
      <trkpt lat="50.641226" lon="4.674619">
        <ele>141.168334</ele>
        <time>2020-10-05T08:40:35.393Z</time>
      </trkpt>
      <trkpt lat="50.640674" lon="4.673840">
        <ele>141.161039</ele>
        <time>2020-10-05T08:40:46.306Z</time>
      </trkpt>
      <trkpt lat="50.640605" lon="4.673772">
        <ele>141.166278</ele>
        <time>2020-10-05T08:40:47.991Z</time>
      </trkpt>
      <trkpt lat="50.640529" lon="4.673549">
        <ele>141.176614</ele>
        <time>2020-10-05T08:40:50.166Z</time>
      </trkpt>
      <trkpt lat="50.640468" lon="4.673377">
        <ele>141.184661</ele>
        <time>2020-10-05T08:40:52.227Z</time>
      </trkpt>
      <trkpt lat="50.640405" lon="4.673191">
        <ele>141.193271</ele>
        <time>2020-10-05T08:40:54.646Z</time>
      </trkpt>
      <trkpt lat="50.640335" lon="4.673060">
        <ele>141.200266</ele>
        <time>2020-10-05T08:40:56.060Z</time>
      </trkpt>
      <trkpt lat="50.640056" lon="4.672639">
        <ele>141.225129</ele>
        <time>2020-10-05T08:41:02.400Z</time>
      </trkpt>
      <trkpt lat="50.639742" lon="4.672149">
        <ele>141.253572</ele>
        <time>2020-10-05T08:41:09.022Z</time>
      </trkpt>
      <trkpt lat="50.639304" lon="4.671484">
        <ele>140.886918</ele>
        <time>2020-10-05T08:41:17.233Z</time>
      </trkpt>
      <trkpt lat="50.638751" lon="4.670728">
        <ele>140.436613</ele>
        <time>2020-10-05T08:41:26.502Z</time>
      </trkpt>
      <trkpt lat="50.638673" lon="4.670670">
        <ele>140.383555</ele>
        <time>2020-10-05T08:41:27.617Z</time>
      </trkpt>
      <trkpt lat="50.638562" lon="4.670579">
        <ele>140.306583</ele>
        <time>2020-10-05T08:41:29.250Z</time>
      </trkpt>
      <trkpt lat="50.638476" lon="4.670477">
        <ele>140.240374</ele>
        <time>2020-10-05T08:41:30.512Z</time>
      </trkpt>
      <trkpt lat="50.637765" lon="4.668982">
        <ele>139.469462</ele>
        <time>2020-10-05T08:41:45.224Z</time>
      </trkpt>
      <trkpt lat="50.637612" lon="4.668422">
        <ele>139.215920</ele>
        <time>2020-10-05T08:41:50.246Z</time>
      </trkpt>
      <trkpt lat="50.637562" lon="4.667704">
        <ele>138.986047</ele>
        <time>2020-10-05T08:41:56.617Z</time>
      </trkpt>
      <trkpt lat="50.637490" lon="4.667479">
        <ele>139.020974</ele>
        <time>2020-10-05T08:41:59.065Z</time>
      </trkpt>
      <trkpt lat="50.637446" lon="4.667369">
        <ele>139.038997</ele>
        <time>2020-10-05T08:42:00.313Z</time>
      </trkpt>
      <trkpt lat="50.637415" lon="4.667288">
        <ele>139.052109</ele>
        <time>2020-10-05T08:42:01.196Z</time>
      </trkpt>
      <trkpt lat="50.637397" lon="4.667243">
        <ele>139.059482</ele>
        <time>2020-10-05T08:42:01.682Z</time>
      </trkpt>
      <trkpt lat="50.637337" lon="4.667072">
        <ele>139.086566</ele>
        <time>2020-10-05T08:42:03.625Z</time>
      </trkpt>
      <trkpt lat="50.637317" lon="4.666987">
        <ele>139.099131</ele>
        <time>2020-10-05T08:42:04.537Z</time>
      </trkpt>
      <trkpt lat="50.637312" lon="4.666925">
        <ele>139.107793</ele>
        <time>2020-10-05T08:42:05.084Z</time>
      </trkpt>
      <trkpt lat="50.637310" lon="4.666846">
        <ele>139.118750</ele>
        <time>2020-10-05T08:42:05.965Z</time>
      </trkpt>
      <trkpt lat="50.637328" lon="4.666101">
        <ele>139.222075</ele>
        <time>2020-10-05T08:42:13.436Z</time>
      </trkpt>
      <trkpt lat="50.637335" lon="4.665611">
        <ele>139.290002</ele>
        <time>2020-10-05T08:42:18.588Z</time>
      </trkpt>
      <trkpt lat="50.637339" lon="4.665363">
        <ele>139.324384</ele>
        <time>2020-10-05T08:42:21.265Z</time>
      </trkpt>
      <trkpt lat="50.637288" lon="4.664648">
        <ele>139.401931</ele>
        <time>2020-10-05T08:42:29.137Z</time>
      </trkpt>
      <trkpt lat="50.637131" lon="4.663999">
        <ele>139.464124</ele>
        <time>2020-10-05T08:42:36.756Z</time>
      </trkpt>
      <trkpt lat="50.637087" lon="4.663817">
        <ele>139.481563</ele>
        <time>2020-10-05T08:42:38.906Z</time>
      </trkpt>
      <trkpt lat="50.637101" lon="4.663687">
        <ele>139.493370</ele>
        <time>2020-10-05T08:42:40.309Z</time>
      </trkpt>
      <trkpt lat="50.637120" lon="4.663603">
        <ele>139.501355</ele>
        <time>2020-10-05T08:42:41.188Z</time>
      </trkpt>
      <trkpt lat="50.637322" lon="4.662727">
        <ele>139.584812</ele>
        <time>2020-10-05T08:42:49.578Z</time>
      </trkpt>
      <trkpt lat="50.637288" lon="4.662159">
        <ele>139.543522</ele>
        <time>2020-10-05T08:42:54.443Z</time>
      </trkpt>
      <trkpt lat="50.637185" lon="4.661722">
        <ele>139.397230</ele>
        <time>2020-10-05T08:42:58.200Z</time>
      </trkpt>
      <trkpt lat="50.637117" lon="4.661496">
        <ele>139.318737</ele>
        <time>2020-10-05T08:43:00.260Z</time>
      </trkpt>
      <trkpt lat="50.637040" lon="4.661241">
        <ele>139.230113</ele>
        <time>2020-10-05T08:43:02.528Z</time>
      </trkpt>
      <trkpt lat="50.636577" lon="4.660193">
        <ele>138.829333</ele>
        <time>2020-10-05T08:43:13.340Z</time>
      </trkpt>
      <trkpt lat="50.636513" lon="4.660082">
        <ele>138.782259</ele>
        <time>2020-10-05T08:43:14.612Z</time>
      </trkpt>
      <trkpt lat="50.636378" lon="4.659850">
        <ele>138.714834</ele>
        <time>2020-10-05T08:43:17.229Z</time>
      </trkpt>
      <trkpt lat="50.636248" lon="4.659647">
        <ele>138.691897</ele>
        <time>2020-10-05T08:43:19.761Z</time>
      </trkpt>
      <trkpt lat="50.636118" lon="4.659435">
        <ele>138.668450</ele>
        <time>2020-10-05T08:43:22.243Z</time>
      </trkpt>
      <trkpt lat="50.636096" lon="4.659393">
        <ele>138.664119</ele>
        <time>2020-10-05T08:43:22.708Z</time>
      </trkpt>
      <trkpt lat="50.636046" lon="4.659297">
        <ele>138.654242</ele>
        <time>2020-10-05T08:43:23.920Z</time>
      </trkpt>
      <trkpt lat="50.635373" lon="4.657679">
        <ele>138.500394</ele>
        <time>2020-10-05T08:43:42.323Z</time>
      </trkpt>
      <trkpt lat="50.635029" lon="4.657104">
        <ele>138.481416</ele>
        <time>2020-10-05T08:43:49.790Z</time>
      </trkpt>
      <trkpt lat="50.634885" lon="4.656907">
        <ele>138.474305</ele>
        <time>2020-10-05T08:43:52.609Z</time>
      </trkpt>
      <trkpt lat="50.634556" lon="4.656460">
        <ele>138.458107</ele>
        <time>2020-10-05T08:43:58.874Z</time>
      </trkpt>
      <trkpt lat="50.633968" lon="4.655761">
        <ele>138.421882</ele>
        <time>2020-10-05T08:44:09.558Z</time>
      </trkpt>
      <trkpt lat="50.632861" lon="4.654666">
        <ele>138.185197</ele>
        <time>2020-10-05T08:44:28.743Z</time>
      </trkpt>
      <trkpt lat="50.632462" lon="4.654258">
        <ele>138.034064</ele>
        <time>2020-10-05T08:44:35.460Z</time>
      </trkpt>
      <trkpt lat="50.632395" lon="4.654130">
        <ele>137.861830</ele>
        <time>2020-10-05T08:44:36.867Z</time>
      </trkpt>
      <trkpt lat="50.632379" lon="4.654039">
        <ele>137.763826</ele>
        <time>2020-10-05T08:44:37.656Z</time>
      </trkpt>
      <trkpt lat="50.632331" lon="4.653894">
        <ele>137.594079</ele>
        <time>2020-10-05T08:44:39.045Z</time>
      </trkpt>
      <trkpt lat="50.632296" lon="4.653769">
        <ele>137.452272</ele>
        <time>2020-10-05T08:44:39.947Z</time>
      </trkpt>
      <trkpt lat="50.632282" lon="4.653698">
        <ele>137.375107</ele>
        <time>2020-10-05T08:44:40.529Z</time>
      </trkpt>
      <trkpt lat="50.632294" lon="4.653677">
        <ele>137.345773</ele>
        <time>2020-10-05T08:44:40.753Z</time>
      </trkpt>
      <trkpt lat="50.632306" lon="4.653630">
        <ele>137.293191</ele>
        <time>2020-10-05T08:44:41.154Z</time>
      </trkpt>
      <trkpt lat="50.632302" lon="4.653567">
        <ele>137.227481</ele>
        <time>2020-10-05T08:44:41.635Z</time>
      </trkpt>
      <trkpt lat="50.632287" lon="4.653521">
        <ele>137.173802</ele>
        <time>2020-10-05T08:44:42.053Z</time>
      </trkpt>
      <trkpt lat="50.632257" lon="4.653472">
        <ele>137.103122</ele>
        <time>2020-10-05T08:44:42.574Z</time>
      </trkpt>
      <trkpt lat="50.632216" lon="4.653435">
        <ele>137.025825</ele>
        <time>2020-10-05T08:44:43.175Z</time>
      </trkpt>
      <trkpt lat="50.632171" lon="4.653413">
        <ele>136.948737</ele>
        <time>2020-10-05T08:44:43.667Z</time>
      </trkpt>
      <trkpt lat="50.632005" lon="4.653039">
        <ele>136.474994</ele>
        <time>2020-10-05T08:44:46.924Z</time>
      </trkpt>
      <trkpt lat="50.631611" lon="4.652036">
        <ele>135.250582</ele>
        <time>2020-10-05T08:44:54.957Z</time>
      </trkpt>
      <trkpt lat="50.631581" lon="4.651917">
        <ele>135.131651</ele>
        <time>2020-10-05T08:44:55.731Z</time>
      </trkpt>
      <trkpt lat="50.631236" lon="4.650352">
        <ele>133.928347</ele>
        <time>2020-10-05T08:45:07.658Z</time>
      </trkpt>
      <trkpt lat="50.630568" lon="4.650486">
        <ele>133.157328</ele>
        <time>2020-10-05T08:45:19.855Z</time>
      </trkpt>
      <trkpt lat="50.629161" lon="4.651025">
        <ele>134.336243</ele>
        <time>2020-10-05T08:45:55.625Z</time>
      </trkpt>
      <trkpt lat="50.628955" lon="4.650987">
        <ele>134.518410</ele>
        <time>2020-10-05T08:46:00.427Z</time>
      </trkpt>
      <trkpt lat="50.628835" lon="4.650888">
        <ele>134.637369</ele>
        <time>2020-10-05T08:46:04.284Z</time>
      </trkpt>
      <trkpt lat="50.628807" lon="4.650754">
        <ele>134.706797</ele>
        <time>2020-10-05T08:46:05.818Z</time>
      </trkpt>
      <trkpt lat="50.628730" lon="4.650468">
        <ele>134.829321</ele>
        <time>2020-10-05T08:46:09.459Z</time>
      </trkpt>
      <trkpt lat="50.628587" lon="4.649932">
        <ele>135.058631</ele>
        <time>2020-10-05T08:46:16.374Z</time>
      </trkpt>
      <trkpt lat="50.628519" lon="4.649690">
        <ele>135.163009</ele>
        <time>2020-10-05T08:46:19.508Z</time>
      </trkpt>
      <trkpt lat="50.627914" lon="4.648206">
        <ele>135.794521</ele>
        <time>2020-10-05T08:46:37.983Z</time>
      </trkpt>
      <trkpt lat="50.627246" lon="4.646004">
        <ele>135.653015</ele>
        <time>2020-10-05T08:47:00.754Z</time>
      </trkpt>
      <trkpt lat="50.627100" lon="4.645566">
        <ele>135.434970</ele>
        <time>2020-10-05T08:47:04.945Z</time>
      </trkpt>
      <trkpt lat="50.626943" lon="4.645176">
        <ele>135.046897</ele>
        <time>2020-10-05T08:47:08.612Z</time>
      </trkpt>
      <trkpt lat="50.626675" lon="4.644545">
        <ele>134.408900</ele>
        <time>2020-10-05T08:47:14.168Z</time>
      </trkpt>
      <trkpt lat="50.626600" lon="4.644369">
        <ele>134.230765</ele>
        <time>2020-10-05T08:47:15.691Z</time>
      </trkpt>
      <trkpt lat="50.626414" lon="4.643926">
        <ele>133.784430</ele>
        <time>2020-10-05T08:47:19.470Z</time>
      </trkpt>
      <trkpt lat="50.626279" lon="4.643593">
        <ele>133.452399</ele>
        <time>2020-10-05T08:47:23.515Z</time>
      </trkpt>
      <trkpt lat="50.625973" lon="4.642784">
        <ele>132.332780</ele>
        <time>2020-10-05T08:47:33.344Z</time>
      </trkpt>
      <trkpt lat="50.625901" lon="4.642595">
        <ele>132.045393</ele>
        <time>2020-10-05T08:47:35.472Z</time>
      </trkpt>
      <trkpt lat="50.625858" lon="4.642481">
        <ele>131.872499</ele>
        <time>2020-10-05T08:47:36.841Z</time>
      </trkpt>
      <trkpt lat="50.625725" lon="4.642552">
        <ele>131.583952</ele>
        <time>2020-10-05T08:47:39.128Z</time>
      </trkpt>
      <trkpt lat="50.624869" lon="4.643146">
        <ele>129.662069</ele>
        <time>2020-10-05T08:47:53.451Z</time>
      </trkpt>
      <trkpt lat="50.624640" lon="4.642741">
        <ele>129.009679</ele>
        <time>2020-10-05T08:47:58.753Z</time>
      </trkpt>
      <trkpt lat="50.624502" lon="4.642516">
        <ele>128.638661</ele>
        <time>2020-10-05T08:48:02.059Z</time>
      </trkpt>
      <trkpt lat="50.624066" lon="4.642363">
        <ele>127.803954</ele>
        <time>2020-10-05T08:48:09.221Z</time>
      </trkpt>
      <trkpt lat="50.623855" lon="4.642357">
        <ele>127.409590</ele>
        <time>2020-10-05T08:48:12.632Z</time>
      </trkpt>
      <trkpt lat="50.623619" lon="4.642391">
        <ele>126.966734</ele>
        <time>2020-10-05T08:48:16.341Z</time>
      </trkpt>
      <trkpt lat="50.623501" lon="4.642105">
        <ele>126.562273</ele>
        <time>2020-10-05T08:48:19.802Z</time>
      </trkpt>
      <trkpt lat="50.623386" lon="4.641859">
        <ele>126.200004</ele>
        <time>2020-10-05T08:48:22.831Z</time>
      </trkpt>
      <trkpt lat="50.623346" lon="4.641775">
        <ele>126.122369</ele>
        <time>2020-10-05T08:48:23.975Z</time>
      </trkpt>
      <trkpt lat="50.623283" lon="4.641620">
        <ele>125.986943</ele>
        <time>2020-10-05T08:48:25.908Z</time>
      </trkpt>
      <trkpt lat="50.623225" lon="4.641463">
        <ele>125.853286</ele>
        <time>2020-10-05T08:48:27.752Z</time>
      </trkpt>
      <trkpt lat="50.622682" lon="4.640059">
        <ele>124.643584</ele>
        <time>2020-10-05T08:48:45.387Z</time>
      </trkpt>
      <trkpt lat="50.622602" lon="4.639927">
        <ele>124.509283</ele>
        <time>2020-10-05T08:48:47.404Z</time>
      </trkpt>
      <trkpt lat="50.622422" lon="4.639964">
        <ele>124.298784</ele>
        <time>2020-10-05T08:48:50.674Z</time>
      </trkpt>
      <trkpt lat="50.622263" lon="4.639981">
        <ele>124.113981</ele>
        <time>2020-10-05T08:48:53.517Z</time>
      </trkpt>
      <trkpt lat="50.622177" lon="4.639989">
        <ele>124.150714</ele>
        <time>2020-10-05T08:48:55.438Z</time>
      </trkpt>
      <trkpt lat="50.622075" lon="4.639865">
        <ele>124.207045</ele>
        <time>2020-10-05T08:48:57.768Z</time>
      </trkpt>
      <trkpt lat="50.621564" lon="4.639222">
        <ele>124.492984</ele>
        <time>2020-10-05T08:49:11.328Z</time>
      </trkpt>
      <trkpt lat="50.621268" lon="4.638972">
        <ele>124.639839</ele>
        <time>2020-10-05T08:49:18.841Z</time>
      </trkpt>
      <trkpt lat="50.621100" lon="4.638876">
        <ele>124.717986</ele>
        <time>2020-10-05T08:49:22.644Z</time>
      </trkpt>
      <trkpt lat="50.621159" lon="4.638700">
        <ele>124.773214</ele>
        <time>2020-10-05T08:49:25.517Z</time>
      </trkpt>
      <trkpt lat="50.621345" lon="4.638019">
        <ele>125.242291</ele>
        <time>2020-10-05T08:49:35.410Z</time>
      </trkpt>
      <trkpt lat="50.621337" lon="4.637644">
        <ele>125.693171</ele>
        <time>2020-10-05T08:49:40.496Z</time>
      </trkpt>
      <trkpt lat="50.621278" lon="4.637371">
        <ele>126.039737</ele>
        <time>2020-10-05T08:49:43.803Z</time>
      </trkpt>
      <trkpt lat="50.620819" lon="4.636368">
        <ele>127.525838</ele>
        <time>2020-10-05T08:50:02.018Z</time>
      </trkpt>
      <trkpt lat="50.620723" lon="4.636118">
        <ele>127.876999</ele>
        <time>2020-10-05T08:50:07.099Z</time>
      </trkpt>
      <trkpt lat="50.620693" lon="4.635996">
        <ele>128.034231</ele>
        <time>2020-10-05T08:50:08.703Z</time>
      </trkpt>
      <trkpt lat="50.620682" lon="4.635938">
        <ele>128.106976</ele>
        <time>2020-10-05T08:50:09.434Z</time>
      </trkpt>
      <trkpt lat="50.620604" lon="4.635632">
        <ele>128.521090</ele>
        <time>2020-10-05T08:50:14.961Z</time>
      </trkpt>
      <trkpt lat="50.620591" lon="4.635578">
        <ele>128.596787</ele>
        <time>2020-10-05T08:50:15.762Z</time>
      </trkpt>
      <trkpt lat="50.620580" lon="4.635533">
        <ele>128.659992</ele>
        <time>2020-10-05T08:50:16.400Z</time>
      </trkpt>
      <trkpt lat="50.620553" lon="4.635423">
        <ele>128.814574</ele>
        <time>2020-10-05T08:50:17.792Z</time>
      </trkpt>
      <trkpt lat="50.620520" lon="4.635302">
        <ele>128.987191</ele>
        <time>2020-10-05T08:50:19.636Z</time>
      </trkpt>
      <trkpt lat="50.620508" lon="4.635207">
        <ele>129.114145</ele>
        <time>2020-10-05T08:50:21.640Z</time>
      </trkpt>
      <trkpt lat="50.620516" lon="4.635109">
        <ele>129.243645</ele>
        <time>2020-10-05T08:50:23.245Z</time>
      </trkpt>
      <trkpt lat="50.621367" lon="4.628122">
        <ele>137.396268</ele>
        <time>2020-10-05T08:52:06.708Z</time>
      </trkpt>
      <trkpt lat="50.621390" lon="4.627937">
        <ele>137.541046</ele>
        <time>2020-10-05T08:52:08.630Z</time>
      </trkpt>
      <trkpt lat="50.621449" lon="4.627423">
        <ele>137.872850</ele>
        <time>2020-10-05T08:52:13.652Z</time>
      </trkpt>
      <trkpt lat="50.621855" lon="4.624122">
        <ele>133.426423</ele>
        <time>2020-10-05T08:52:36.877Z</time>
      </trkpt>
      <trkpt lat="50.621997" lon="4.622950">
        <ele>131.034631</ele>
        <time>2020-10-05T08:52:44.435Z</time>
      </trkpt>
      <trkpt lat="50.622468" lon="4.619085">
        <ele>122.714680</ele>
        <time>2020-10-05T08:53:09.578Z</time>
      </trkpt>
      <trkpt lat="50.622508" lon="4.618908">
        <ele>122.297521</ele>
        <time>2020-10-05T08:53:10.772Z</time>
      </trkpt>
      <trkpt lat="50.622675" lon="4.618396">
        <ele>121.019358</ele>
        <time>2020-10-05T08:53:14.438Z</time>
      </trkpt>
      <trkpt lat="50.622955" lon="4.617587">
        <ele>118.973348</ele>
        <time>2020-10-05T08:53:20.340Z</time>
      </trkpt>
      <trkpt lat="50.622857" lon="4.617366">
        <ele>118.374717</ele>
        <time>2020-10-05T08:53:22.042Z</time>
      </trkpt>
      <trkpt lat="50.622475" lon="4.616930">
        <ele>116.724239</ele>
        <time>2020-10-05T08:53:26.798Z</time>
      </trkpt>
      <trkpt lat="50.622395" lon="4.616908">
        <ele>116.431265</ele>
        <time>2020-10-05T08:53:27.580Z</time>
      </trkpt>
      <trkpt lat="50.622352" lon="4.616922">
        <ele>116.230139</ele>
        <time>2020-10-05T08:53:28.012Z</time>
      </trkpt>
      <trkpt lat="50.622094" lon="4.617005">
        <ele>115.023967</ele>
        <time>2020-10-05T08:53:30.613Z</time>
      </trkpt>
      <trkpt lat="50.621917" lon="4.617039">
        <ele>114.207194</ele>
        <time>2020-10-05T08:53:32.319Z</time>
      </trkpt>
      <trkpt lat="50.621799" lon="4.617026">
        <ele>113.665358</ele>
        <time>2020-10-05T08:53:33.463Z</time>
      </trkpt>
      <trkpt lat="50.621813" lon="4.616637">
        <ele>112.533056</ele>
        <time>2020-10-05T08:53:36.824Z</time>
      </trkpt>
      <trkpt lat="50.621807" lon="4.616540">
        <ele>112.249824</ele>
        <time>2020-10-05T08:53:37.635Z</time>
      </trkpt>
      <trkpt lat="50.621777" lon="4.616472">
        <ele>112.009124</ele>
        <time>2020-10-05T08:53:38.359Z</time>
      </trkpt>
      <trkpt lat="50.621342" lon="4.616245">
        <ele>109.910176</ele>
        <time>2020-10-05T08:53:44.464Z</time>
      </trkpt>
      <trkpt lat="50.621659" lon="4.615161">
        <ele>107.443887</ele>
        <time>2020-10-05T08:53:51.739Z</time>
      </trkpt>
      <trkpt lat="50.621683" lon="4.615108">
        <ele>107.360746</ele>
        <time>2020-10-05T08:53:52.161Z</time>
      </trkpt>
      <trkpt lat="50.621695" lon="4.614969">
        <ele>107.181632</ele>
        <time>2020-10-05T08:53:53.015Z</time>
      </trkpt>
      <trkpt lat="50.621720" lon="4.614671">
        <ele>106.797826</ele>
        <time>2020-10-05T08:53:54.992Z</time>
      </trkpt>
      <trkpt lat="50.621756" lon="4.614205">
        <ele>106.198431</ele>
        <time>2020-10-05T08:53:58.190Z</time>
      </trkpt>
      <trkpt lat="50.621758" lon="4.613846">
        <ele>105.740033</ele>
        <time>2020-10-05T08:54:00.736Z</time>
      </trkpt>
      <trkpt lat="50.621757" lon="4.613760">
        <ele>105.630208</ele>
        <time>2020-10-05T08:54:01.327Z</time>
      </trkpt>
      <trkpt lat="50.621699" lon="4.613426">
        <ele>105.188062</ele>
        <time>2020-10-05T08:54:04.299Z</time>
      </trkpt>
      <trkpt lat="50.621450" lon="4.612571">
        <ele>105.651914</ele>
        <time>2020-10-05T08:54:14.565Z</time>
      </trkpt>
      <trkpt lat="50.621318" lon="4.610647">
        <ele>109.786548</ele>
        <time>2020-10-05T08:54:52.947Z</time>
      </trkpt>
      <trkpt lat="50.621122" lon="4.608701">
        <ele>115.200924</ele>
        <time>2020-10-05T08:55:36.143Z</time>
      </trkpt>
      <trkpt lat="50.621044" lon="4.608179">
        <ele>116.761252</ele>
        <time>2020-10-05T08:55:47.143Z</time>
      </trkpt>
      <trkpt lat="50.621009" lon="4.607983">
        <ele>117.353678</ele>
        <time>2020-10-05T08:55:51.552Z</time>
      </trkpt>
      <trkpt lat="50.620839" lon="4.607036">
        <ele>120.066796</ele>
        <time>2020-10-05T08:56:11.200Z</time>
      </trkpt>
      <trkpt lat="50.620591" lon="4.606069">
        <ele>122.750983</ele>
        <time>2020-10-05T08:56:31.877Z</time>
      </trkpt>
      <trkpt lat="50.620719" lon="4.603718">
        <ele>128.851503</ele>
        <time>2020-10-05T08:57:17.416Z</time>
      </trkpt>
      <trkpt lat="50.620577" lon="4.600597">
        <ele>136.871753</ele>
        <time>2020-10-05T08:58:20.840Z</time>
      </trkpt>
      <trkpt lat="50.620607" lon="4.599196">
        <ele>140.390991</ele>
        <time>2020-10-05T08:58:47.791Z</time>
      </trkpt>
      <trkpt lat="50.620072" lon="4.597440">
        <ele>144.091552</ele>
        <time>2020-10-05T08:59:21.894Z</time>
      </trkpt>
      <trkpt lat="50.619616" lon="4.595700">
        <ele>147.018099</ele>
        <time>2020-10-05T08:59:50.948Z</time>
      </trkpt>
      <trkpt lat="50.619140" lon="4.594204">
        <ele>149.030365</ele>
        <time>2020-10-05T09:00:14.428Z</time>
      </trkpt>
      <trkpt lat="50.619120" lon="4.594111">
        <ele>149.148436</ele>
        <time>2020-10-05T09:00:15.784Z</time>
      </trkpt>
      <trkpt lat="50.619068" lon="4.594027">
        <ele>149.289545</ele>
        <time>2020-10-05T09:00:17.475Z</time>
      </trkpt>
      <trkpt lat="50.617575" lon="4.590732">
        <ele>151.871436</ele>
        <time>2020-10-05T09:01:06.272Z</time>
      </trkpt>
      <trkpt lat="50.616286" lon="4.587669">
        <ele>153.259987</ele>
        <time>2020-10-05T09:01:43.837Z</time>
      </trkpt>
      <trkpt lat="50.616263" lon="4.587646">
        <ele>153.275965</ele>
        <time>2020-10-05T09:01:44.167Z</time>
      </trkpt>
      <trkpt lat="50.616242" lon="4.587631">
        <ele>153.289489</ele>
        <time>2020-10-05T09:01:44.825Z</time>
      </trkpt>
      <trkpt lat="50.616079" lon="4.587598">
        <ele>153.385889</ele>
        <time>2020-10-05T09:01:47.802Z</time>
      </trkpt>
      <trkpt lat="50.615977" lon="4.587597">
        <ele>153.445722</ele>
        <time>2020-10-05T09:01:49.892Z</time>
      </trkpt>
      <trkpt lat="50.614506" lon="4.587682">
        <ele>154.855339</ele>
        <time>2020-10-05T09:02:19.728Z</time>
      </trkpt>
      <trkpt lat="50.614448" lon="4.587671">
        <ele>154.915197</ele>
        <time>2020-10-05T09:02:20.831Z</time>
      </trkpt>
      <trkpt lat="50.614409" lon="4.587658">
        <ele>154.956041</ele>
        <time>2020-10-05T09:02:22.002Z</time>
      </trkpt>
      <trkpt lat="50.614348" lon="4.587616">
        <ele>155.024249</ele>
        <time>2020-10-05T09:02:23.118Z</time>
      </trkpt>
      <trkpt lat="50.614307" lon="4.587573">
        <ele>155.074712</ele>
        <time>2020-10-05T09:02:24.012Z</time>
      </trkpt>
      <trkpt lat="50.610890" lon="4.583818">
        <ele>155.755411</ele>
        <time>2020-10-05T09:03:27.483Z</time>
      </trkpt>
      <trkpt lat="50.610900" lon="4.583802">
        <ele>155.751627</ele>
        <time>2020-10-05T09:03:27.654Z</time>
      </trkpt>
      <trkpt lat="50.610907" lon="4.583706">
        <ele>155.735344</ele>
        <time>2020-10-05T09:03:28.505Z</time>
      </trkpt>
      <trkpt lat="50.610903" lon="4.583696">
        <ele>155.733352</ele>
        <time>2020-10-05T09:03:28.583Z</time>
      </trkpt>
      <trkpt lat="50.610895" lon="4.583672">
        <ele>155.728784</ele>
        <time>2020-10-05T09:03:28.812Z</time>
      </trkpt>
      <trkpt lat="50.610884" lon="4.583655">
        <ele>155.724693</ele>
        <time>2020-10-05T09:03:29.023Z</time>
      </trkpt>
      <trkpt lat="50.610862" lon="4.583637">
        <ele>155.718110</ele>
        <time>2020-10-05T09:03:29.343Z</time>
      </trkpt>
      <trkpt lat="50.610837" lon="4.583632">
        <ele>155.711419</ele>
        <time>2020-10-05T09:03:29.720Z</time>
      </trkpt>
      <trkpt lat="50.610778" lon="4.583690">
        <ele>155.692953</ele>
        <time>2020-10-05T09:03:30.684Z</time>
      </trkpt>
      <trkpt lat="50.610775" lon="4.583710">
        <ele>155.689490</ele>
        <time>2020-10-05T09:03:30.889Z</time>
      </trkpt>
      <trkpt lat="50.608697" lon="4.581309">
        <ele>155.274040</ele>
        <time>2020-10-05T09:04:06.117Z</time>
      </trkpt>
      <trkpt lat="50.607379" lon="4.579146">
        <ele>156.189832</ele>
        <time>2020-10-05T09:04:38.857Z</time>
      </trkpt>
      <trkpt lat="50.605527" lon="4.577104">
        <ele>157.973842</ele>
        <time>2020-10-05T09:05:22.079Z</time>
      </trkpt>
      <trkpt lat="50.603895" lon="4.575363">
        <ele>157.015405</ele>
        <time>2020-10-05T09:05:47.030Z</time>
      </trkpt>
      <trkpt lat="50.603088" lon="4.574516">
        <ele>156.680146</ele>
        <time>2020-10-05T09:05:59.720Z</time>
      </trkpt>
      <trkpt lat="50.602865" lon="4.574408">
        <ele>156.599484</ele>
        <time>2020-10-05T09:06:03.030Z</time>
      </trkpt>
      <trkpt lat="50.602798" lon="4.574375">
        <ele>156.575213</ele>
        <time>2020-10-05T09:06:04.121Z</time>
      </trkpt>
      <trkpt lat="50.602647" lon="4.574302">
        <ele>156.520603</ele>
        <time>2020-10-05T09:06:06.452Z</time>
      </trkpt>
      <trkpt lat="50.598320" lon="4.572983">
        <ele>157.808436</ele>
        <time>2020-10-05T09:07:19.036Z</time>
      </trkpt>
      <trkpt lat="50.598232" lon="4.572944">
        <ele>157.803824</ele>
        <time>2020-10-05T09:07:20.521Z</time>
      </trkpt>
      <trkpt lat="50.597928" lon="4.572794">
        <ele>157.787752</ele>
        <time>2020-10-05T09:07:25.079Z</time>
      </trkpt>
      <trkpt lat="50.596691" lon="4.572009">
        <ele>157.357660</ele>
        <time>2020-10-05T09:07:42.961Z</time>
      </trkpt>
      <trkpt lat="50.595748" lon="4.571410">
        <ele>156.674842</ele>
        <time>2020-10-05T09:07:55.645Z</time>
      </trkpt>
      <trkpt lat="50.593520" lon="4.569886">
        <ele>155.405018</ele>
        <time>2020-10-05T09:08:27.600Z</time>
      </trkpt>
      <trkpt lat="50.593114" lon="4.569592">
        <ele>155.240907</ele>
        <time>2020-10-05T09:08:33.975Z</time>
      </trkpt>
      <trkpt lat="50.592324" lon="4.569046">
        <ele>154.924068</ele>
        <time>2020-10-05T09:08:46.046Z</time>
      </trkpt>
      <trkpt lat="50.591761" lon="4.568658">
        <ele>154.538200</ele>
        <time>2020-10-05T09:08:53.934Z</time>
      </trkpt>
      <trkpt lat="50.591312" lon="4.568500">
        <ele>154.237175</ele>
        <time>2020-10-05T09:08:59.793Z</time>
      </trkpt>
      <trkpt lat="50.590847" lon="4.568461">
        <ele>153.932492</ele>
        <time>2020-10-05T09:09:05.797Z</time>
      </trkpt>
      <trkpt lat="50.590312" lon="4.568402">
        <ele>153.632125</ele>
        <time>2020-10-05T09:09:12.525Z</time>
      </trkpt>
      <trkpt lat="50.590456" lon="4.567605">
        <ele>153.407999</ele>
        <time>2020-10-05T09:09:22.226Z</time>
      </trkpt>
      <trkpt lat="50.590568" lon="4.566834">
        <ele>153.194077</ele>
        <time>2020-10-05T09:09:31.641Z</time>
      </trkpt>
      <trkpt lat="50.590348" lon="4.566209">
        <ele>153.000788</ele>
        <time>2020-10-05T09:09:40.542Z</time>
      </trkpt>
      <trkpt lat="50.590033" lon="4.565651">
        <ele>152.855606</ele>
        <time>2020-10-05T09:09:50.524Z</time>
      </trkpt>
      <trkpt lat="50.588900" lon="4.563230">
        <ele>152.175043</ele>
        <time>2020-10-05T09:10:26.616Z</time>
      </trkpt>
      <trkpt lat="50.588156" lon="4.562203">
        <ele>151.592041</ele>
        <time>2020-10-05T09:10:44.464Z</time>
      </trkpt>
      <trkpt lat="50.586654" lon="4.560399">
        <ele>150.414157</ele>
        <time>2020-10-05T09:11:18.796Z</time>
      </trkpt>
      <trkpt lat="50.586224" lon="4.559967">
        <ele>150.113217</ele>
        <time>2020-10-05T09:11:28.240Z</time>
      </trkpt>
      <trkpt lat="50.584659" lon="4.558479">
        <ele>149.347239</ele>
        <time>2020-10-05T09:12:01.739Z</time>
      </trkpt>
      <trkpt lat="50.583919" lon="4.557879">
        <ele>149.560641</ele>
        <time>2020-10-05T09:12:19.421Z</time>
      </trkpt>
      <trkpt lat="50.583570" lon="4.557673">
        <ele>149.656202</ele>
        <time>2020-10-05T09:12:27.830Z</time>
      </trkpt>
      <trkpt lat="50.583437" lon="4.557494">
        <ele>149.701059</ele>
        <time>2020-10-05T09:12:31.853Z</time>
      </trkpt>
      <trkpt lat="50.583351" lon="4.557442">
        <ele>149.724678</ele>
        <time>2020-10-05T09:12:33.976Z</time>
      </trkpt>
      <trkpt lat="50.583400" lon="4.557217">
        <ele>149.849144</ele>
        <time>2020-10-05T09:12:40.296Z</time>
      </trkpt>
      <trkpt lat="50.583622" lon="4.555867">
        <ele>150.641268</ele>
        <time>2020-10-05T09:13:16.713Z</time>
      </trkpt>
      <trkpt lat="50.584184" lon="4.554111">
        <ele>151.441349</ele>
        <time>2020-10-05T09:14:07.716Z</time>
      </trkpt>
      <trkpt lat="50.585328" lon="4.551279">
        <ele>150.928023</ele>
        <time>2020-10-05T09:15:26.526Z</time>
      </trkpt>
      <trkpt lat="50.586054" lon="4.550119">
        <ele>149.842487</ele>
        <time>2020-10-05T09:16:00.123Z</time>
      </trkpt>
      <trkpt lat="50.586075" lon="4.550086">
        <ele>149.775864</ele>
        <time>2020-10-05T09:16:00.891Z</time>
      </trkpt>
      <trkpt lat="50.587633" lon="4.547948">
        <ele>145.590848</ele>
        <time>2020-10-05T09:17:04.664Z</time>
      </trkpt>
      <trkpt lat="50.587722" lon="4.547763">
        <ele>145.460233</ele>
        <time>2020-10-05T09:17:09.344Z</time>
      </trkpt>
      <trkpt lat="50.587885" lon="4.547425">
        <ele>145.221386</ele>
        <time>2020-10-05T09:17:18.608Z</time>
      </trkpt>
      <trkpt lat="50.588033" lon="4.546954">
        <ele>144.925660</ele>
        <time>2020-10-05T09:17:30.179Z</time>
      </trkpt>
      <trkpt lat="50.588098" lon="4.546653">
        <ele>144.746752</ele>
        <time>2020-10-05T09:17:37.264Z</time>
      </trkpt>
      <trkpt lat="50.588338" lon="4.544266">
        <ele>144.454990</ele>
        <time>2020-10-05T09:18:35.231Z</time>
      </trkpt>
      <trkpt lat="50.588427" lon="4.543802">
        <ele>144.503449</ele>
        <time>2020-10-05T09:18:46.700Z</time>
      </trkpt>
      <trkpt lat="50.588521" lon="4.543494">
        <ele>144.537614</ele>
        <time>2020-10-05T09:18:54.572Z</time>
      </trkpt>
      <trkpt lat="50.588978" lon="4.542013">
        <ele>145.174711</ele>
        <time>2020-10-05T09:19:36.033Z</time>
      </trkpt>
      <trkpt lat="50.589201" lon="4.541430">
        <ele>145.499611</ele>
        <time>2020-10-05T09:19:54.003Z</time>
      </trkpt>
      <trkpt lat="50.589452" lon="4.540906">
        <ele>145.812948</ele>
        <time>2020-10-05T09:20:11.009Z</time>
      </trkpt>
      <trkpt lat="50.589633" lon="4.540516">
        <ele>145.925100</ele>
        <time>2020-10-05T09:20:23.198Z</time>
      </trkpt>
      <trkpt lat="50.589660" lon="4.540139">
        <ele>145.918235</ele>
        <time>2020-10-05T09:20:32.632Z</time>
      </trkpt>
      <trkpt lat="50.589595" lon="4.539760">
        <ele>145.911131</ele>
        <time>2020-10-05T09:20:42.608Z</time>
      </trkpt>
      <trkpt lat="50.589411" lon="4.539336">
        <ele>145.901838</ele>
        <time>2020-10-05T09:20:55.438Z</time>
      </trkpt>
      <trkpt lat="50.589316" lon="4.539116">
        <ele>145.897024</ele>
        <time>2020-10-05T09:21:01.657Z</time>
      </trkpt>
      <trkpt lat="50.588808" lon="4.537802">
        <ele>145.109319</ele>
        <time>2020-10-05T09:21:35.841Z</time>
      </trkpt>
      <trkpt lat="50.588077" lon="4.535913">
        <ele>141.680761</ele>
        <time>2020-10-05T09:22:18.263Z</time>
      </trkpt>
      <trkpt lat="50.588091" lon="4.535581">
        <ele>140.565485</ele>
        <time>2020-10-05T09:22:24.603Z</time>
      </trkpt>
      <trkpt lat="50.588096" lon="4.535554">
        <ele>140.440838</ele>
        <time>2020-10-05T09:22:25.113Z</time>
      </trkpt>
      <trkpt lat="50.588133" lon="4.535336">
        <ele>139.440762</ele>
        <time>2020-10-05T09:22:29.141Z</time>
      </trkpt>
      <trkpt lat="50.588221" lon="4.534803">
        <ele>137.000010</ele>
        <time>2020-10-05T09:22:39.202Z</time>
      </trkpt>
      <trkpt lat="50.588642" lon="4.532437">
        <ele>128.932041</ele>
        <time>2020-10-05T09:23:18.428Z</time>
      </trkpt>
      <trkpt lat="50.588684" lon="4.532230">
        <ele>128.932041</ele>
        <time>2020-10-05T09:23:21.586Z</time>
      </trkpt>
      <trkpt lat="50.588742" lon="4.531981">
        <ele>128.932041</ele>
        <time>2020-10-05T09:23:25.785Z</time>
      </trkpt>
      <trkpt lat="50.588764" lon="4.531915">
        <ele>128.932041</ele>
        <time>2020-10-05T09:23:26.938Z</time>
      </trkpt>
      <trkpt lat="50.588801" lon="4.531814">
        <ele>128.932041</ele>
        <time>2020-10-05T09:23:27.540Z</time>
      </trkpt>
      <trkpt lat="50.589285" lon="4.530522">
        <ele>128.932041</ele>
        <time>2020-10-05T09:23:35.698Z</time>
      </trkpt>
      <trkpt lat="50.589290" lon="4.530395">
        <ele>128.932041</ele>
        <time>2020-10-05T09:23:36.381Z</time>
      </trkpt>
      <trkpt lat="50.589353" lon="4.530345">
        <ele>128.932041</ele>
        <time>2020-10-05T09:23:36.967Z</time>
      </trkpt>
      <trkpt lat="50.589493" lon="4.529976">
        <ele>128.932041</ele>
        <time>2020-10-05T09:23:39.374Z</time>
      </trkpt>
      <trkpt lat="50.589538" lon="4.529854">
        <ele>128.932041</ele>
        <time>2020-10-05T09:23:40.118Z</time>
      </trkpt>
      <trkpt lat="50.589538" lon="4.529854">
        <ele>101.610111</ele>
        <time>2020-10-05T19:39:52.786Z</time>
      </trkpt>
      <trkpt lat="50.589493" lon="4.529976">
        <ele>101.610111</ele>
        <time>2020-10-05T19:39:55.080Z</time>
      </trkpt>
      <trkpt lat="50.589353" lon="4.530345">
        <ele>101.610111</ele>
        <time>2020-10-05T19:40:00.341Z</time>
      </trkpt>
      <trkpt lat="50.589290" lon="4.530395">
        <ele>101.610111</ele>
        <time>2020-10-05T19:40:02.209Z</time>
      </trkpt>
      <trkpt lat="50.589200" lon="4.530392">
        <ele>101.610111</ele>
        <time>2020-10-05T19:40:03.895Z</time>
      </trkpt>
      <trkpt lat="50.589072" lon="4.530318">
        <ele>101.610111</ele>
        <time>2020-10-05T19:40:06.105Z</time>
      </trkpt>
      <trkpt lat="50.589028" lon="4.530297">
        <ele>101.610111</ele>
        <time>2020-10-05T19:40:06.852Z</time>
      </trkpt>
      <trkpt lat="50.588780" lon="4.530163">
        <ele>101.632964</ele>
        <time>2020-10-05T19:40:12.000Z</time>
      </trkpt>
      <trkpt lat="50.588515" lon="4.530026">
        <ele>101.726360</ele>
        <time>2020-10-05T19:40:17.147Z</time>
      </trkpt>
      <trkpt lat="50.588197" lon="4.529851">
        <ele>101.839158</ele>
        <time>2020-10-05T19:40:22.874Z</time>
      </trkpt>
      <trkpt lat="50.587875" lon="4.529679">
        <ele>101.953016</ele>
        <time>2020-10-05T19:40:29.027Z</time>
      </trkpt>
      <trkpt lat="50.587801" lon="4.529661">
        <ele>101.978089</ele>
        <time>2020-10-05T19:40:30.239Z</time>
      </trkpt>
      <trkpt lat="50.587749" lon="4.529644">
        <ele>101.995873</ele>
        <time>2020-10-05T19:40:31.207Z</time>
      </trkpt>
      <trkpt lat="50.587689" lon="4.529635">
        <ele>102.016055</ele>
        <time>2020-10-05T19:40:32.030Z</time>
      </trkpt>
      <trkpt lat="50.586849" lon="4.529497">
        <ele>102.192177</ele>
        <time>2020-10-05T19:40:43.392Z</time>
      </trkpt>
      <trkpt lat="50.586811" lon="4.529494">
        <ele>102.189196</ele>
        <time>2020-10-05T19:40:43.817Z</time>
      </trkpt>
      <trkpt lat="50.586579" lon="4.529472">
        <ele>102.170986</ele>
        <time>2020-10-05T19:40:47.073Z</time>
      </trkpt>
      <trkpt lat="50.586287" lon="4.529444">
        <ele>102.148065</ele>
        <time>2020-10-05T19:40:51.143Z</time>
      </trkpt>
      <trkpt lat="50.586146" lon="4.529427">
        <ele>102.136985</ele>
        <time>2020-10-05T19:40:53.205Z</time>
      </trkpt>
      <trkpt lat="50.586075" lon="4.529424">
        <ele>102.131420</ele>
        <time>2020-10-05T19:40:54.101Z</time>
      </trkpt>
      <trkpt lat="50.586054" lon="4.529425">
        <ele>102.129774</ele>
        <time>2020-10-05T19:40:54.443Z</time>
      </trkpt>
      <trkpt lat="50.585293" lon="4.529332">
        <ele>102.071471</ele>
        <time>2020-10-05T19:41:06.482Z</time>
      </trkpt>
      <trkpt lat="50.584972" lon="4.529189">
        <ele>102.071315</ele>
        <time>2020-10-05T19:41:11.857Z</time>
      </trkpt>
      <trkpt lat="50.584839" lon="4.529126">
        <ele>102.071251</ele>
        <time>2020-10-05T19:41:13.926Z</time>
      </trkpt>
      <trkpt lat="50.584321" lon="4.528857">
        <ele>102.070996</ele>
        <time>2020-10-05T19:41:21.655Z</time>
      </trkpt>
      <trkpt lat="50.584168" lon="4.528748">
        <ele>102.070917</ele>
        <time>2020-10-05T19:41:23.995Z</time>
      </trkpt>
      <trkpt lat="50.584065" lon="4.528670">
        <ele>102.070864</ele>
        <time>2020-10-05T19:41:25.678Z</time>
      </trkpt>
      <trkpt lat="50.583770" lon="4.528401">
        <ele>102.070705</ele>
        <time>2020-10-05T19:41:30.687Z</time>
      </trkpt>
      <trkpt lat="50.583598" lon="4.528230">
        <ele>102.079042</ele>
        <time>2020-10-05T19:41:33.657Z</time>
      </trkpt>
      <trkpt lat="50.583348" lon="4.528056">
        <ele>102.114343</ele>
        <time>2020-10-05T19:41:38.290Z</time>
      </trkpt>
      <trkpt lat="50.582870" lon="4.527981">
        <ele>102.176384</ele>
        <time>2020-10-05T19:41:45.703Z</time>
      </trkpt>
      <trkpt lat="50.582373" lon="4.528097">
        <ele>102.241275</ele>
        <time>2020-10-05T19:41:53.969Z</time>
      </trkpt>
      <trkpt lat="50.582155" lon="4.528220">
        <ele>102.271183</ele>
        <time>2020-10-05T19:41:57.353Z</time>
      </trkpt>
      <trkpt lat="50.582012" lon="4.528418">
        <ele>102.295775</ele>
        <time>2020-10-05T19:42:00.434Z</time>
      </trkpt>
      <trkpt lat="50.581988" lon="4.528456">
        <ele>102.300171</ele>
        <time>2020-10-05T19:42:00.965Z</time>
      </trkpt>
      <trkpt lat="50.581927" lon="4.528559">
        <ele>102.261937</ele>
        <time>2020-10-05T19:42:02.104Z</time>
      </trkpt>
      <trkpt lat="50.581760" lon="4.528776">
        <ele>102.131325</ele>
        <time>2020-10-05T19:42:05.160Z</time>
      </trkpt>
      <trkpt lat="50.581181" lon="4.529045">
        <ele>101.767149</ele>
        <time>2020-10-05T19:42:12.924Z</time>
      </trkpt>
      <trkpt lat="50.580769" lon="4.529240">
        <ele>101.507620</ele>
        <time>2020-10-05T19:42:18.415Z</time>
      </trkpt>
      <trkpt lat="50.580408" lon="4.529395">
        <ele>101.281890</ele>
        <time>2020-10-05T19:42:23.068Z</time>
      </trkpt>
      <trkpt lat="50.580291" lon="4.529443">
        <ele>101.227387</ele>
        <time>2020-10-05T19:42:24.569Z</time>
      </trkpt>
      <trkpt lat="50.580145" lon="4.529498">
        <ele>101.323919</ele>
        <time>2020-10-05T19:42:26.493Z</time>
      </trkpt>
      <trkpt lat="50.580034" lon="4.529548">
        <ele>101.398159</ele>
        <time>2020-10-05T19:42:27.890Z</time>
      </trkpt>
      <trkpt lat="50.579958" lon="4.529580">
        <ele>101.448747</ele>
        <time>2020-10-05T19:42:28.913Z</time>
      </trkpt>
      <trkpt lat="50.579494" lon="4.529789">
        <ele>101.759083</ele>
        <time>2020-10-05T19:42:35.226Z</time>
      </trkpt>
      <trkpt lat="50.579241" lon="4.529981">
        <ele>101.939678</ele>
        <time>2020-10-05T19:42:39.399Z</time>
      </trkpt>
      <trkpt lat="50.579202" lon="4.530012">
        <ele>101.967770</ele>
        <time>2020-10-05T19:42:40.230Z</time>
      </trkpt>
      <trkpt lat="50.578574" lon="4.530561">
        <ele>102.716753</ele>
        <time>2020-10-05T19:42:57.504Z</time>
      </trkpt>
      <trkpt lat="50.578122" lon="4.531018">
        <ele>104.859435</ele>
        <time>2020-10-05T19:43:12.705Z</time>
      </trkpt>
      <trkpt lat="50.578007" lon="4.531163">
        <ele>105.447104</ele>
        <time>2020-10-05T19:43:17.121Z</time>
      </trkpt>
      <trkpt lat="50.577926" lon="4.531276">
        <ele>105.878772</ele>
        <time>2020-10-05T19:43:20.014Z</time>
      </trkpt>
      <trkpt lat="50.577904" lon="4.531301">
        <ele>105.986995</ele>
        <time>2020-10-05T19:43:20.895Z</time>
      </trkpt>
      <trkpt lat="50.577801" lon="4.531414">
        <ele>106.487745</ele>
        <time>2020-10-05T19:43:25.633Z</time>
      </trkpt>
      <trkpt lat="50.577663" lon="4.531525">
        <ele>107.105886</ele>
        <time>2020-10-05T19:43:30.481Z</time>
      </trkpt>
      <trkpt lat="50.577418" lon="4.531609">
        <ele>108.106095</ele>
        <time>2020-10-05T19:43:39.172Z</time>
      </trkpt>
      <trkpt lat="50.577321" lon="4.531596">
        <ele>108.494430</ele>
        <time>2020-10-05T19:43:42.299Z</time>
      </trkpt>
      <trkpt lat="50.577005" lon="4.531448">
        <ele>109.894966</ele>
        <time>2020-10-05T19:43:53.774Z</time>
      </trkpt>
      <trkpt lat="50.576531" lon="4.531072">
        <ele>112.707193</ele>
        <time>2020-10-05T19:44:12.185Z</time>
      </trkpt>
      <trkpt lat="50.576362" lon="4.530984">
        <ele>113.650352</ele>
        <time>2020-10-05T19:44:19.962Z</time>
      </trkpt>
      <trkpt lat="50.575671" lon="4.530740">
        <ele>117.402640</ele>
        <time>2020-10-05T19:44:44.717Z</time>
      </trkpt>
      <trkpt lat="50.575129" lon="4.530793">
        <ele>120.592315</ele>
        <time>2020-10-05T19:45:03.358Z</time>
      </trkpt>
      <trkpt lat="50.575088" lon="4.530810">
        <ele>120.875409</ele>
        <time>2020-10-05T19:45:06.001Z</time>
      </trkpt>
      <trkpt lat="50.574775" lon="4.530937">
        <ele>123.033616</ele>
        <time>2020-10-05T19:45:18.847Z</time>
      </trkpt>
      <trkpt lat="50.574577" lon="4.531017">
        <ele>124.398514</ele>
        <time>2020-10-05T19:45:27.597Z</time>
      </trkpt>
      <trkpt lat="50.574233" lon="4.531167">
        <ele>126.781887</ele>
        <time>2020-10-05T19:45:43.233Z</time>
      </trkpt>
      <trkpt lat="50.574116" lon="4.531218">
        <ele>127.592492</ele>
        <time>2020-10-05T19:45:48.226Z</time>
      </trkpt>
      <trkpt lat="50.573985" lon="4.531321">
        <ele>128.570180</ele>
        <time>2020-10-05T19:45:56.430Z</time>
      </trkpt>
      <trkpt lat="50.573910" lon="4.531414">
        <ele>129.207604</ele>
        <time>2020-10-05T19:45:59.919Z</time>
      </trkpt>
      <trkpt lat="50.573850" lon="4.531505">
        <ele>129.763852</ele>
        <time>2020-10-05T19:46:03.078Z</time>
      </trkpt>
      <trkpt lat="50.573709" lon="4.531746">
        <ele>131.141928</ele>
        <time>2020-10-05T19:46:13.581Z</time>
      </trkpt>
      <trkpt lat="50.573504" lon="4.532132">
        <ele>132.893528</ele>
        <time>2020-10-05T19:46:26.049Z</time>
      </trkpt>
      <trkpt lat="50.573242" lon="4.532607">
        <ele>135.083607</ele>
        <time>2020-10-05T19:46:40.932Z</time>
      </trkpt>
      <trkpt lat="50.573086" lon="4.532896">
        <ele>136.403932</ele>
        <time>2020-10-05T19:46:49.184Z</time>
      </trkpt>
      <trkpt lat="50.573034" lon="4.533007">
        <ele>136.884084</ele>
        <time>2020-10-05T19:46:53.264Z</time>
      </trkpt>
      <trkpt lat="50.572979" lon="4.533212">
        <ele>137.658775</ele>
        <time>2020-10-05T19:46:57.819Z</time>
      </trkpt>
      <trkpt lat="50.572825" lon="4.533958">
        <ele>140.389429</ele>
        <time>2020-10-05T19:47:15.389Z</time>
      </trkpt>
      <trkpt lat="50.572812" lon="4.534100">
        <ele>140.888857</ele>
        <time>2020-10-05T19:47:18.976Z</time>
      </trkpt>
      <trkpt lat="50.572814" lon="4.534627">
        <ele>141.959543</ele>
        <time>2020-10-05T19:47:28.916Z</time>
      </trkpt>
      <trkpt lat="50.572832" lon="4.535128">
        <ele>142.954687</ele>
        <time>2020-10-05T19:47:37.445Z</time>
      </trkpt>
      <trkpt lat="50.572835" lon="4.535307">
        <ele>143.309793</ele>
        <time>2020-10-05T19:47:40.656Z</time>
      </trkpt>
      <trkpt lat="50.572838" lon="4.535738">
        <ele>144.164580</ele>
        <time>2020-10-05T19:47:46.983Z</time>
      </trkpt>
      <trkpt lat="50.572830" lon="4.535905">
        <ele>144.496705</ele>
        <time>2020-10-05T19:47:49.680Z</time>
      </trkpt>
      <trkpt lat="50.572656" lon="4.536404">
        <ele>145.625641</ele>
        <time>2020-10-05T19:47:58.695Z</time>
      </trkpt>
      <trkpt lat="50.572546" lon="4.536546">
        <ele>146.069809</ele>
        <time>2020-10-05T19:48:02.638Z</time>
      </trkpt>
      <trkpt lat="50.572447" lon="4.536625">
        <ele>146.416378</ele>
        <time>2020-10-05T19:48:05.374Z</time>
      </trkpt>
      <trkpt lat="50.572333" lon="4.536701">
        <ele>146.743936</ele>
        <time>2020-10-05T19:48:08.788Z</time>
      </trkpt>
      <trkpt lat="50.572176" lon="4.536796">
        <ele>147.139082</ele>
        <time>2020-10-05T19:48:13.288Z</time>
      </trkpt>
      <trkpt lat="50.571953" lon="4.536881">
        <ele>147.678118</ele>
        <time>2020-10-05T19:48:19.273Z</time>
      </trkpt>
      <trkpt lat="50.571439" lon="4.536890">
        <ele>148.885755</ele>
        <time>2020-10-05T19:48:32.150Z</time>
      </trkpt>
      <trkpt lat="50.570853" lon="4.536887">
        <ele>150.262477</ele>
        <time>2020-10-05T19:48:45.831Z</time>
      </trkpt>
      <trkpt lat="50.569813" lon="4.536752">
        <ele>151.920719</ele>
        <time>2020-10-05T19:49:08.079Z</time>
      </trkpt>
      <trkpt lat="50.569379" lon="4.536664">
        <ele>152.524799</ele>
        <time>2020-10-05T19:49:16.946Z</time>
      </trkpt>
      <trkpt lat="50.569331" lon="4.536656">
        <ele>152.591433</ele>
        <time>2020-10-05T19:49:17.979Z</time>
      </trkpt>
      <trkpt lat="50.568133" lon="4.536430">
        <ele>153.596857</ele>
        <time>2020-10-05T19:49:39.979Z</time>
      </trkpt>
      <trkpt lat="50.567888" lon="4.536367">
        <ele>153.709570</ele>
        <time>2020-10-05T19:49:44.168Z</time>
      </trkpt>
      <trkpt lat="50.565129" lon="4.535773">
        <ele>154.283401</ele>
        <time>2020-10-05T19:50:26.812Z</time>
      </trkpt>
      <trkpt lat="50.564096" lon="4.535604">
        <ele>154.185863</ele>
        <time>2020-10-05T19:50:43.028Z</time>
      </trkpt>
      <trkpt lat="50.563174" lon="4.535453">
        <ele>153.567605</ele>
        <time>2020-10-05T19:50:55.306Z</time>
      </trkpt>
      <trkpt lat="50.562732" lon="4.535381">
        <ele>152.776959</ele>
        <time>2020-10-05T19:51:00.614Z</time>
      </trkpt>
      <trkpt lat="50.559500" lon="4.535330">
        <ele>145.878541</ele>
        <time>2020-10-05T19:51:34.817Z</time>
      </trkpt>
      <trkpt lat="50.559427" lon="4.535330">
        <ele>145.762196</ele>
        <time>2020-10-05T19:51:35.576Z</time>
      </trkpt>
      <trkpt lat="50.558417" lon="4.535355">
        <ele>144.152301</ele>
        <time>2020-10-05T19:51:46.893Z</time>
      </trkpt>
      <trkpt lat="50.558048" lon="4.535371">
        <ele>143.686580</ele>
        <time>2020-10-05T19:51:51.700Z</time>
      </trkpt>
      <trkpt lat="50.557327" lon="4.535349">
        <ele>144.377632</ele>
        <time>2020-10-05T19:52:03.525Z</time>
      </trkpt>
      <trkpt lat="50.555845" lon="4.534695">
        <ele>145.908638</ele>
        <time>2020-10-05T19:52:37.251Z</time>
      </trkpt>
      <trkpt lat="50.552314" lon="4.533169">
        <ele>149.011311</ele>
        <time>2020-10-05T19:53:42.965Z</time>
      </trkpt>
      <trkpt lat="50.551407" lon="4.532864">
        <ele>149.582834</ele>
        <time>2020-10-05T19:53:58.978Z</time>
      </trkpt>
      <trkpt lat="50.551038" lon="4.532852">
        <ele>149.743650</ele>
        <time>2020-10-05T19:54:05.103Z</time>
      </trkpt>
      <trkpt lat="50.550789" lon="4.532844">
        <ele>149.666649</ele>
        <time>2020-10-05T19:54:09.107Z</time>
      </trkpt>
      <trkpt lat="50.550416" lon="4.532970">
        <ele>149.548699</ele>
        <time>2020-10-05T19:54:14.828Z</time>
      </trkpt>
      <trkpt lat="50.549698" lon="4.533213">
        <ele>149.321633</ele>
        <time>2020-10-05T19:54:25.081Z</time>
      </trkpt>
      <trkpt lat="50.547606" lon="4.534468">
        <ele>146.521960</ele>
        <time>2020-10-05T19:54:51.178Z</time>
      </trkpt>
      <trkpt lat="50.546430" lon="4.535099">
        <ele>144.320857</ele>
        <time>2020-10-05T19:55:04.700Z</time>
      </trkpt>
      <trkpt lat="50.546373" lon="4.535129">
        <ele>144.214381</ele>
        <time>2020-10-05T19:55:05.323Z</time>
      </trkpt>
      <trkpt lat="50.546329" lon="4.535146">
        <ele>144.134118</ele>
        <time>2020-10-05T19:55:05.776Z</time>
      </trkpt>
      <trkpt lat="50.545779" lon="4.535340">
        <ele>143.491660</ele>
        <time>2020-10-05T19:55:12.552Z</time>
      </trkpt>
      <trkpt lat="50.545599" lon="4.535344">
        <ele>143.507659</ele>
        <time>2020-10-05T19:55:14.812Z</time>
      </trkpt>
      <trkpt lat="50.545435" lon="4.535356">
        <ele>143.522250</ele>
        <time>2020-10-05T19:55:17.113Z</time>
      </trkpt>
      <trkpt lat="50.545282" lon="4.535349">
        <ele>143.535854</ele>
        <time>2020-10-05T19:55:19.182Z</time>
      </trkpt>
      <trkpt lat="50.545193" lon="4.535334">
        <ele>143.543809</ele>
        <time>2020-10-05T19:55:20.620Z</time>
      </trkpt>
      <trkpt lat="50.544737" lon="4.535259">
        <ele>143.584557</ele>
        <time>2020-10-05T19:55:27.547Z</time>
      </trkpt>
      <trkpt lat="50.544596" lon="4.535236">
        <ele>143.597156</ele>
        <time>2020-10-05T19:55:30.414Z</time>
      </trkpt>
      <trkpt lat="50.544535" lon="4.535226">
        <ele>143.602606</ele>
        <time>2020-10-05T19:55:31.642Z</time>
      </trkpt>
      <trkpt lat="50.544418" lon="4.535207">
        <ele>143.613060</ele>
        <time>2020-10-05T19:55:33.779Z</time>
      </trkpt>
      <trkpt lat="50.544119" lon="4.535160">
        <ele>143.717266</ele>
        <time>2020-10-05T19:55:39.878Z</time>
      </trkpt>
      <trkpt lat="50.543934" lon="4.535519">
        <ele>144.127919</ele>
        <time>2020-10-05T19:55:47.371Z</time>
      </trkpt>
      <trkpt lat="50.543207" lon="4.536657">
        <ele>145.561593</ele>
        <time>2020-10-05T19:56:15.126Z</time>
      </trkpt>
      <trkpt lat="50.543006" lon="4.536997">
        <ele>145.974180</ele>
        <time>2020-10-05T19:56:22.511Z</time>
      </trkpt>
      <trkpt lat="50.541960" lon="4.537948">
        <ele>147.157266</ele>
        <time>2020-10-05T19:56:51.301Z</time>
      </trkpt>
      <trkpt lat="50.541342" lon="4.538465">
        <ele>147.808836</ele>
        <time>2020-10-05T19:57:07.934Z</time>
      </trkpt>
      <trkpt lat="50.540377" lon="4.539637">
        <ele>148.937686</ele>
        <time>2020-10-05T19:57:37.016Z</time>
      </trkpt>
      <trkpt lat="50.539154" lon="4.541062">
        <ele>150.257904</ele>
        <time>2020-10-05T19:58:13.724Z</time>
      </trkpt>
      <trkpt lat="50.539019" lon="4.541218">
        <ele>150.396919</ele>
        <time>2020-10-05T19:58:17.821Z</time>
      </trkpt>
      <trkpt lat="50.537480" lon="4.542728">
        <ele>151.385638</ele>
        <time>2020-10-05T19:58:58.801Z</time>
      </trkpt>
      <trkpt lat="50.537384" lon="4.542705">
        <ele>151.420995</ele>
        <time>2020-10-05T19:59:00.853Z</time>
      </trkpt>
      <trkpt lat="50.537344" lon="4.542902">
        <ele>151.468853</ele>
        <time>2020-10-05T19:59:03.592Z</time>
      </trkpt>
      <trkpt lat="50.536987" lon="4.544669">
        <ele>151.684649</ele>
        <time>2020-10-05T19:59:27.278Z</time>
      </trkpt>
      <trkpt lat="50.536633" lon="4.546540">
        <ele>151.876759</ele>
        <time>2020-10-05T19:59:52.580Z</time>
      </trkpt>
      <trkpt lat="50.536545" lon="4.547014">
        <ele>152.112989</ele>
        <time>2020-10-05T19:59:59.643Z</time>
      </trkpt>
      <trkpt lat="50.536289" lon="4.548400">
        <ele>152.803462</ele>
        <time>2020-10-05T20:00:21.479Z</time>
      </trkpt>
      <trkpt lat="50.536220" lon="4.548772">
        <ele>152.988845</ele>
        <time>2020-10-05T20:00:27.679Z</time>
      </trkpt>
      <trkpt lat="50.536113" lon="4.549337">
        <ele>153.245132</ele>
        <time>2020-10-05T20:00:37.237Z</time>
      </trkpt>
      <trkpt lat="50.535610" lon="4.552151">
        <ele>154.087092</ele>
        <time>2020-10-05T20:01:19.422Z</time>
      </trkpt>
      <trkpt lat="50.535077" lon="4.554930">
        <ele>153.090110</ele>
        <time>2020-10-05T20:01:51.708Z</time>
      </trkpt>
      <trkpt lat="50.534357" lon="4.558676">
        <ele>152.632119</ele>
        <time>2020-10-05T20:02:41.002Z</time>
      </trkpt>
      <trkpt lat="50.534344" lon="4.558744">
        <ele>152.632594</ele>
        <time>2020-10-05T20:02:41.964Z</time>
      </trkpt>
      <trkpt lat="50.533571" lon="4.562792">
        <ele>152.964488</ele>
        <time>2020-10-05T20:03:38.445Z</time>
      </trkpt>
      <trkpt lat="50.533278" lon="4.564323">
        <ele>152.999462</ele>
        <time>2020-10-05T20:03:59.203Z</time>
      </trkpt>
      <trkpt lat="50.532782" lon="4.566913">
        <ele>152.714495</ele>
        <time>2020-10-05T20:04:33.332Z</time>
      </trkpt>
      <trkpt lat="50.531496" lon="4.573646">
        <ele>150.521237</ele>
        <time>2020-10-05T20:05:56.186Z</time>
      </trkpt>
      <trkpt lat="50.530198" lon="4.580453">
        <ele>147.795194</ele>
        <time>2020-10-05T20:07:20.674Z</time>
      </trkpt>
      <trkpt lat="50.529642" lon="4.583483">
        <ele>145.258199</ele>
        <time>2020-10-05T20:07:52.722Z</time>
      </trkpt>
      <trkpt lat="50.529182" lon="4.585905">
        <ele>144.624880</ele>
        <time>2020-10-05T20:08:22.844Z</time>
      </trkpt>
      <trkpt lat="50.528730" lon="4.588295">
        <ele>145.304566</ele>
        <time>2020-10-05T20:09:01.233Z</time>
      </trkpt>
      <trkpt lat="50.528399" lon="4.590039">
        <ele>145.903165</ele>
        <time>2020-10-05T20:09:27.466Z</time>
      </trkpt>
      <trkpt lat="50.528234" lon="4.590822">
        <ele>145.776006</ele>
        <time>2020-10-05T20:09:37.667Z</time>
      </trkpt>
      <trkpt lat="50.528172" lon="4.591080">
        <ele>145.733488</ele>
        <time>2020-10-05T20:09:40.977Z</time>
      </trkpt>
      <trkpt lat="50.528078" lon="4.591415">
        <ele>145.677040</ele>
        <time>2020-10-05T20:09:45.293Z</time>
      </trkpt>
      <trkpt lat="50.527512" lon="4.592960">
        <ele>144.854636</ele>
        <time>2020-10-05T20:10:06.145Z</time>
      </trkpt>
      <trkpt lat="50.527258" lon="4.593502">
        <ele>144.280767</ele>
        <time>2020-10-05T20:10:13.333Z</time>
      </trkpt>
      <trkpt lat="50.527089" lon="4.593864">
        <ele>143.897994</ele>
        <time>2020-10-05T20:10:16.617Z</time>
      </trkpt>
      <trkpt lat="50.527212" lon="4.594012">
        <ele>143.690386</ele>
        <time>2020-10-05T20:10:32.513Z</time>
      </trkpt>
      <trkpt lat="50.527220" lon="4.594025">
        <ele>143.674966</ele>
        <time>2020-10-05T20:10:33.454Z</time>
      </trkpt>
      <trkpt lat="50.527212" lon="4.594012">
        <ele>143.659546</ele>
        <time>2020-10-05T20:10:35.417Z</time>
      </trkpt>
      <trkpt lat="50.527089" lon="4.593864">
        <ele>143.451938</ele>
        <time>2020-10-05T20:10:52.004Z</time>
      </trkpt>
      <trkpt lat="50.526677" lon="4.594706">
        <ele>142.764871</ele>
        <time>2020-10-05T20:10:59.385Z</time>
      </trkpt>
      <trkpt lat="50.526508" lon="4.595025">
        <ele>142.547738</ele>
        <time>2020-10-05T20:11:02.343Z</time>
      </trkpt>
      <trkpt lat="50.526448" lon="4.595148">
        <ele>142.466669</ele>
        <time>2020-10-05T20:11:03.704Z</time>
      </trkpt>
      <trkpt lat="50.526308" lon="4.595468">
        <ele>142.263546</ele>
        <time>2020-10-05T20:11:06.570Z</time>
      </trkpt>
      <trkpt lat="50.526230" lon="4.595677">
        <ele>142.136820</ele>
        <time>2020-10-05T20:11:08.855Z</time>
      </trkpt>
      <trkpt lat="50.526165" lon="4.595929">
        <ele>141.994616</ele>
        <time>2020-10-05T20:11:10.973Z</time>
      </trkpt>
      <trkpt lat="50.526141" lon="4.596047">
        <ele>141.929832</ele>
        <time>2020-10-05T20:11:12.057Z</time>
      </trkpt>
      <trkpt lat="50.526133" lon="4.596133">
        <ele>141.884384</ele>
        <time>2020-10-05T20:11:12.838Z</time>
      </trkpt>
      <trkpt lat="50.526116" lon="4.596355">
        <ele>141.767461</ele>
        <time>2020-10-05T20:11:14.825Z</time>
      </trkpt>
      <trkpt lat="50.526123" lon="4.596652">
        <ele>141.697477</ele>
        <time>2020-10-05T20:11:18.190Z</time>
      </trkpt>
      <trkpt lat="50.526140" lon="4.596881">
        <ele>142.085346</ele>
        <time>2020-10-05T20:11:20.907Z</time>
      </trkpt>
      <trkpt lat="50.526169" lon="4.597177">
        <ele>142.589191</ele>
        <time>2020-10-05T20:11:25.101Z</time>
      </trkpt>
      <trkpt lat="50.526223" lon="4.597605">
        <ele>143.323266</ele>
        <time>2020-10-05T20:11:31.586Z</time>
      </trkpt>
      <trkpt lat="50.526068" lon="4.597614">
        <ele>143.733721</ele>
        <time>2020-10-05T20:11:36.393Z</time>
      </trkpt>
      <trkpt lat="50.525970" lon="4.597620">
        <ele>143.993254</ele>
        <time>2020-10-05T20:11:39.399Z</time>
      </trkpt>
      <trkpt lat="50.525918" lon="4.597623">
        <ele>144.130954</ele>
        <time>2020-10-05T20:11:41.139Z</time>
      </trkpt>
      <trkpt lat="50.525834" lon="4.597631">
        <ele>144.353649</ele>
        <time>2020-10-05T20:11:44.001Z</time>
      </trkpt>
      <trkpt lat="50.525619" lon="4.597652">
        <ele>144.923699</ele>
        <time>2020-10-05T20:11:51.143Z</time>
      </trkpt>
      <trkpt lat="50.525324" lon="4.598330">
        <ele>146.305892</ele>
        <time>2020-10-05T20:12:10.592Z</time>
      </trkpt>
      <trkpt lat="50.525077" lon="4.598930">
        <ele>147.484689</ele>
        <time>2020-10-05T20:12:26.411Z</time>
      </trkpt>
      <trkpt lat="50.524847" lon="4.599344">
        <ele>148.389967</ele>
        <time>2020-10-05T20:12:38.188Z</time>
      </trkpt>
      <trkpt lat="50.524427" lon="4.600102">
        <ele>150.045570</ele>
        <time>2020-10-05T20:12:58.123Z</time>
      </trkpt>
      <trkpt lat="50.524399" lon="4.600127">
        <ele>150.128958</ele>
        <time>2020-10-05T20:12:58.971Z</time>
      </trkpt>
      <trkpt lat="50.524240" lon="4.600269">
        <ele>150.602510</ele>
        <time>2020-10-05T20:13:03.557Z</time>
      </trkpt>
      <trkpt lat="50.523502" lon="4.601111">
        <ele>150.311329</ele>
        <time>2020-10-05T20:13:23.412Z</time>
      </trkpt>
      <trkpt lat="50.523376" lon="4.601098">
        <ele>150.184988</ele>
        <time>2020-10-05T20:13:25.515Z</time>
      </trkpt>
      <trkpt lat="50.523108" lon="4.600833">
        <ele>149.868254</ele>
        <time>2020-10-05T20:13:30.668Z</time>
      </trkpt>
      <trkpt lat="50.522934" lon="4.601038">
        <ele>149.650733</ele>
        <time>2020-10-05T20:13:37.448Z</time>
      </trkpt>
      <trkpt lat="50.522899" lon="4.601023">
        <ele>149.614437</ele>
        <time>2020-10-05T20:13:38.569Z</time>
      </trkpt>
      <trkpt lat="50.522601" lon="4.601361">
        <ele>149.237516</ele>
        <time>2020-10-05T20:13:49.804Z</time>
      </trkpt>
      <trkpt lat="50.522295" lon="4.601498">
        <ele>148.177661</ele>
        <time>2020-10-05T20:13:59.367Z</time>
      </trkpt>
      <trkpt lat="50.521997" lon="4.601579">
        <ele>147.170234</ele>
        <time>2020-10-05T20:14:03.770Z</time>
      </trkpt>
      <trkpt lat="50.521218" lon="4.601998">
        <ele>144.427647</ele>
        <time>2020-10-05T20:14:15.539Z</time>
      </trkpt>
      <trkpt lat="50.520666" lon="4.602917">
        <ele>141.729515</ele>
        <time>2020-10-05T20:14:27.081Z</time>
      </trkpt>
      <trkpt lat="50.520647" lon="4.603070">
        <ele>141.394863</ele>
        <time>2020-10-05T20:14:28.400Z</time>
      </trkpt>
      <trkpt lat="50.520699" lon="4.603203">
        <ele>141.059687</ele>
        <time>2020-10-05T20:14:29.924Z</time>
      </trkpt>
      <trkpt lat="50.520912" lon="4.603502">
        <ele>140.095740</ele>
        <time>2020-10-05T20:14:34.023Z</time>
      </trkpt>
      <trkpt lat="50.521141" lon="4.603909">
        <ele>138.929042</ele>
        <time>2020-10-05T20:14:39.036Z</time>
      </trkpt>
      <trkpt lat="50.520808" lon="4.604309">
        <ele>137.514313</ele>
        <time>2020-10-05T20:14:45.143Z</time>
      </trkpt>
      <trkpt lat="50.520492" lon="4.603567">
        <ele>135.949723</ele>
        <time>2020-10-05T20:14:53.585Z</time>
      </trkpt>
      <trkpt lat="50.520403" lon="4.603489">
        <ele>135.682050</ele>
        <time>2020-10-05T20:14:55.135Z</time>
      </trkpt>
      <trkpt lat="50.520309" lon="4.603548">
        <ele>135.416153</ele>
        <time>2020-10-05T20:14:56.653Z</time>
      </trkpt>
      <trkpt lat="50.519926" lon="4.604320">
        <ele>133.780474</ele>
        <time>2020-10-05T20:15:05.919Z</time>
      </trkpt>
      <trkpt lat="50.519434" lon="4.605473">
        <ele>132.020094</ele>
        <time>2020-10-05T20:15:19.793Z</time>
      </trkpt>
      <trkpt lat="50.519371" lon="4.605849">
        <ele>131.733825</ele>
        <time>2020-10-05T20:15:23.820Z</time>
      </trkpt>
      <trkpt lat="50.518884" lon="4.607570">
        <ele>130.366046</ele>
        <time>2020-10-05T20:15:45.153Z</time>
      </trkpt>
      <trkpt lat="50.518765" lon="4.608227">
        <ele>130.171536</ele>
        <time>2020-10-05T20:15:53.971Z</time>
      </trkpt>
      <trkpt lat="50.518643" lon="4.609002">
        <ele>129.944206</ele>
        <time>2020-10-05T20:16:03.423Z</time>
      </trkpt>
      <trkpt lat="50.518736" lon="4.609677">
        <ele>129.747552</ele>
        <time>2020-10-05T20:16:11.389Z</time>
      </trkpt>
      <trkpt lat="50.518694" lon="4.609943">
        <ele>129.669513</ele>
        <time>2020-10-05T20:16:14.777Z</time>
      </trkpt>
      <trkpt lat="50.518538" lon="4.610158">
        <ele>129.576626</ele>
        <time>2020-10-05T20:16:18.609Z</time>
      </trkpt>
      <trkpt lat="50.518488" lon="4.610223">
        <ele>129.547815</ele>
        <time>2020-10-05T20:16:19.858Z</time>
      </trkpt>
      <trkpt lat="50.517967" lon="4.609361">
        <ele>129.212394</ele>
        <time>2020-10-05T20:16:30.226Z</time>
      </trkpt>
      <trkpt lat="50.517146" lon="4.610286">
        <ele>128.771738</ele>
        <time>2020-10-05T20:16:48.705Z</time>
      </trkpt>
      <trkpt lat="50.517504" lon="4.610980">
        <ele>128.697078</ele>
        <time>2020-10-05T20:16:59.682Z</time>
      </trkpt>
      <trkpt lat="50.517609" lon="4.611165">
        <ele>128.676360</ele>
        <time>2020-10-05T20:17:02.906Z</time>
      </trkpt>
      <trkpt lat="50.517798" lon="4.611171">
        <ele>128.651522</ele>
        <time>2020-10-05T20:17:06.812Z</time>
      </trkpt>
      <trkpt lat="50.517945" lon="4.611483">
        <ele>128.619081</ele>
        <time>2020-10-05T20:17:11.828Z</time>
      </trkpt>
      <trkpt lat="50.517947" lon="4.611865">
        <ele>128.587166</ele>
        <time>2020-10-05T20:17:16.669Z</time>
      </trkpt>
      <trkpt lat="50.517910" lon="4.612687">
        <ele>128.586108</ele>
        <time>2020-10-05T20:17:27.116Z</time>
      </trkpt>
      <trkpt lat="50.517561" lon="4.615154">
        <ele>129.084620</ele>
        <time>2020-10-05T20:18:01.565Z</time>
      </trkpt>
      <trkpt lat="50.516341" lon="4.616170">
        <ele>130.463592</ele>
        <time>2020-10-05T20:18:34.909Z</time>
      </trkpt>
      <trkpt lat="50.516348" lon="4.616959">
        <ele>131.000057</ele>
        <time>2020-10-05T20:18:47.664Z</time>
      </trkpt>
      <trkpt lat="50.515638" lon="4.618646">
        <ele>133.031102</ele>
        <time>2020-10-05T20:19:21.708Z</time>
      </trkpt>
      <trkpt lat="50.515558" lon="4.619106">
        <ele>133.509885</ele>
        <time>2020-10-05T20:19:29.907Z</time>
      </trkpt>
      <trkpt lat="50.515306" lon="4.619587">
        <ele>134.562429</ele>
        <time>2020-10-05T20:19:40.550Z</time>
      </trkpt>
      <trkpt lat="50.515464" lon="4.620242">
        <ele>136.082886</ele>
        <time>2020-10-05T20:19:53.179Z</time>
      </trkpt>
      <trkpt lat="50.514713" lon="4.620780">
        <ele>138.899660</ele>
        <time>2020-10-05T20:20:22.555Z</time>
      </trkpt>
      <trkpt lat="50.514426" lon="4.620789">
        <ele>139.879457</ele>
        <time>2020-10-05T20:20:34.129Z</time>
      </trkpt>
      <trkpt lat="50.514152" lon="4.620637">
        <ele>141.445701</ele>
        <time>2020-10-05T20:20:46.464Z</time>
      </trkpt>
      <trkpt lat="50.513822" lon="4.620999">
        <ele>143.637728</ele>
        <time>2020-10-05T20:21:03.964Z</time>
      </trkpt>
      <trkpt lat="50.513315" lon="4.621681">
        <ele>147.272526</ele>
        <time>2020-10-05T20:21:32.692Z</time>
      </trkpt>
      <trkpt lat="50.513233" lon="4.622024">
        <ele>148.542012</ele>
        <time>2020-10-05T20:21:43.426Z</time>
      </trkpt>
      <trkpt lat="50.513424" lon="4.622398">
        <ele>150.000713</ele>
        <time>2020-10-05T20:21:56.371Z</time>
      </trkpt>
      <trkpt lat="50.513570" lon="4.622515">
        <ele>150.528908</ele>
        <time>2020-10-05T20:22:02.867Z</time>
      </trkpt>
      <trkpt lat="50.513656" lon="4.622959">
        <ele>151.480271</ele>
        <time>2020-10-05T20:22:13.912Z</time>
      </trkpt>
      <trkpt lat="50.513690" lon="4.623140">
        <ele>151.867120</ele>
        <time>2020-10-05T20:22:18.070Z</time>
      </trkpt>
      <trkpt lat="50.513803" lon="4.623693">
        <ele>153.057703</ele>
        <time>2020-10-05T20:22:30.780Z</time>
      </trkpt>
      <trkpt lat="50.513967" lon="4.624178">
        <ele>154.183631</ele>
        <time>2020-10-05T20:22:41.620Z</time>
      </trkpt>
      <trkpt lat="50.514180" lon="4.624687">
        <ele>155.432579</ele>
        <time>2020-10-05T20:22:51.245Z</time>
      </trkpt>
      <trkpt lat="50.514358" lon="4.625055">
        <ele>155.738885</ele>
        <time>2020-10-05T20:22:57.785Z</time>
      </trkpt>
      <trkpt lat="50.514433" lon="4.625120">
        <ele>155.812841</ele>
        <time>2020-10-05T20:22:59.946Z</time>
      </trkpt>
      <trkpt lat="50.514444" lon="4.625288">
        <ele>155.905588</ele>
        <time>2020-10-05T20:23:02.224Z</time>
      </trkpt>
      <trkpt lat="50.514872" lon="4.626074">
        <ele>156.473865</ele>
        <time>2020-10-05T20:23:17.193Z</time>
      </trkpt>
      <trkpt lat="50.515441" lon="4.627006">
        <ele>157.260423</ele>
        <time>2020-10-05T20:23:36.849Z</time>
      </trkpt>
      <trkpt lat="50.515706" lon="4.629064">
        <ele>159.119037</ele>
        <time>2020-10-05T20:24:33.319Z</time>
      </trkpt>
      <trkpt lat="50.515867" lon="4.630078">
        <ele>160.006431</ele>
        <time>2020-10-05T20:25:03.554Z</time>
      </trkpt>
      <trkpt lat="50.516048" lon="4.631210">
        <ele>160.958937</ele>
        <time>2020-10-05T20:25:35.998Z</time>
      </trkpt>
      <trkpt lat="50.516125" lon="4.632171">
        <ele>161.749344</ele>
        <time>2020-10-05T20:26:01.423Z</time>
      </trkpt>
      <trkpt lat="50.515352" lon="4.632574">
        <ele>160.991383</ele>
        <time>2020-10-05T20:26:17.450Z</time>
      </trkpt>
      <trkpt lat="50.514676" lon="4.632703">
        <ele>160.161659</ele>
        <time>2020-10-05T20:26:28.621Z</time>
      </trkpt>
      <trkpt lat="50.511770" lon="4.633693">
        <ele>153.618365</ele>
        <time>2020-10-05T20:27:12.811Z</time>
      </trkpt>
      <trkpt lat="50.511730" lon="4.634361">
        <ele>153.062151</ele>
        <time>2020-10-05T20:27:20.521Z</time>
      </trkpt>
      <trkpt lat="50.511569" lon="4.634699">
        <ele>152.712064</ele>
        <time>2020-10-05T20:27:25.637Z</time>
      </trkpt>
      <trkpt lat="50.511263" lon="4.634973">
        <ele>152.298028</ele>
        <time>2020-10-05T20:27:33.075Z</time>
      </trkpt>
      <trkpt lat="50.510990" lon="4.635005">
        <ele>152.406000</ele>
        <time>2020-10-05T20:27:39.491Z</time>
      </trkpt>
      <trkpt lat="50.510040" lon="4.635101">
        <ele>152.781463</ele>
        <time>2020-10-05T20:28:02.692Z</time>
      </trkpt>
      <trkpt lat="50.509653" lon="4.635263">
        <ele>152.939416</ele>
        <time>2020-10-05T20:28:10.955Z</time>
      </trkpt>
      <trkpt lat="50.509010" lon="4.635842">
        <ele>151.883579</ele>
        <time>2020-10-05T20:28:24.132Z</time>
      </trkpt>
      <trkpt lat="50.508704" lon="4.636325">
        <ele>151.072278</ele>
        <time>2020-10-05T20:28:31.110Z</time>
      </trkpt>
      <trkpt lat="50.508414" lon="4.636743">
        <ele>150.336146</ele>
        <time>2020-10-05T20:28:37.157Z</time>
      </trkpt>
      <trkpt lat="50.507915" lon="4.637130">
        <ele>148.858857</ele>
        <time>2020-10-05T20:28:45.288Z</time>
      </trkpt>
      <trkpt lat="50.506949" lon="4.637580">
        <ele>144.528977</ele>
        <time>2020-10-05T20:28:59.309Z</time>
      </trkpt>
      <trkpt lat="50.504825" lon="4.638224">
        <ele>134.098385</ele>
        <time>2020-10-05T20:29:28.518Z</time>
      </trkpt>
      <trkpt lat="50.504574" lon="4.638295">
        <ele>132.820571</ele>
        <time>2020-10-05T20:29:31.927Z</time>
      </trkpt>
      <trkpt lat="50.502747" lon="4.638814">
        <ele>124.813489</ele>
        <time>2020-10-05T20:29:57.237Z</time>
      </trkpt>
      <trkpt lat="50.502619" lon="4.638900">
        <ele>124.768643</ele>
        <time>2020-10-05T20:29:59.250Z</time>
      </trkpt>
      <trkpt lat="50.502040" lon="4.639375">
        <ele>124.558238</ele>
        <time>2020-10-05T20:30:11.072Z</time>
      </trkpt>
      <trkpt lat="50.502033" lon="4.639562">
        <ele>124.519852</ele>
        <time>2020-10-05T20:30:14.382Z</time>
      </trkpt>
      <trkpt lat="50.501981" lon="4.639899">
        <ele>124.448792</ele>
        <time>2020-10-05T20:30:19.041Z</time>
      </trkpt>
      <trkpt lat="50.501354" lon="4.640022">
        <ele>124.332679</ele>
        <time>2020-10-05T20:30:34.941Z</time>
      </trkpt>
      <trkpt lat="50.501209" lon="4.640056">
        <ele>124.695265</ele>
        <time>2020-10-05T20:30:38.973Z</time>
      </trkpt>
      <trkpt lat="50.501115" lon="4.640080">
        <ele>124.930795</ele>
        <time>2020-10-05T20:30:42.361Z</time>
      </trkpt>
      <trkpt lat="50.500813" lon="4.640143">
        <ele>125.684259</ele>
        <time>2020-10-05T20:30:51.410Z</time>
      </trkpt>
      <trkpt lat="50.500856" lon="4.640503">
        <ele>126.260489</ele>
        <time>2020-10-05T20:30:58.677Z</time>
      </trkpt>
      <trkpt lat="50.500874" lon="4.640871">
        <ele>126.841115</ele>
        <time>2020-10-05T20:31:06.714Z</time>
      </trkpt>
      <trkpt lat="50.500789" lon="4.641901">
        <ele>128.475034</ele>
        <time>2020-10-05T20:31:28.507Z</time>
      </trkpt>
      <trkpt lat="50.500802" lon="4.642559">
        <ele>129.460130</ele>
        <time>2020-10-05T20:31:39.396Z</time>
      </trkpt>
      <trkpt lat="50.500552" lon="4.643437">
        <ele>130.878660</ele>
        <time>2020-10-05T20:31:55.134Z</time>
      </trkpt>
      <trkpt lat="50.500372" lon="4.643328">
        <ele>131.325848</ele>
        <time>2020-10-05T20:31:59.602Z</time>
      </trkpt>
      <trkpt lat="50.500115" lon="4.643296">
        <ele>131.923528</ele>
        <time>2020-10-05T20:32:05.699Z</time>
      </trkpt>
      <trkpt lat="50.499841" lon="4.643368">
        <ele>132.567567</ele>
        <time>2020-10-05T20:32:13.327Z</time>
      </trkpt>
      <trkpt lat="50.499650" lon="4.643520">
        <ele>133.169788</ele>
        <time>2020-10-05T20:32:19.967Z</time>
      </trkpt>
      <trkpt lat="50.499391" lon="4.643731">
        <ele>134.222630</ele>
        <time>2020-10-05T20:32:28.438Z</time>
      </trkpt>
      <trkpt lat="50.498940" lon="4.644077">
        <ele>136.033865</ele>
        <time>2020-10-05T20:32:43.389Z</time>
      </trkpt>
      <trkpt lat="50.498819" lon="4.644192">
        <ele>136.544183</ele>
        <time>2020-10-05T20:32:47.454Z</time>
      </trkpt>
      <trkpt lat="50.498775" lon="4.644377">
        <ele>136.997625</ele>
        <time>2020-10-05T20:32:51.744Z</time>
      </trkpt>
      <trkpt lat="50.498988" lon="4.646411">
        <ele>141.150501</ele>
        <time>2020-10-05T20:33:29.967Z</time>
      </trkpt>
      <trkpt lat="50.499294" lon="4.648753">
        <ele>144.904905</ele>
        <time>2020-10-05T20:34:06.368Z</time>
      </trkpt>
      <trkpt lat="50.498658" lon="4.649426">
        <ele>146.203107</ele>
        <time>2020-10-05T20:34:22.074Z</time>
      </trkpt>
      <trkpt lat="50.498464" lon="4.649696">
        <ele>146.641850</ele>
        <time>2020-10-05T20:34:27.504Z</time>
      </trkpt>
      <trkpt lat="50.497322" lon="4.650419">
        <ele>148.366664</ele>
        <time>2020-10-05T20:34:53.587Z</time>
      </trkpt>
      <trkpt lat="50.494619" lon="4.651800">
        <ele>150.714492</ele>
        <time>2020-10-05T20:35:47.117Z</time>
      </trkpt>
      <trkpt lat="50.493851" lon="4.652188">
        <ele>149.045591</ele>
        <time>2020-10-05T20:35:56.171Z</time>
      </trkpt>
      <trkpt lat="50.492375" lon="4.653022">
        <ele>145.750428</ele>
        <time>2020-10-05T20:36:12.122Z</time>
      </trkpt>
      <trkpt lat="50.491986" lon="4.653234">
        <ele>144.867145</ele>
        <time>2020-10-05T20:36:16.446Z</time>
      </trkpt>
      <trkpt lat="50.491600" lon="4.653445">
        <ele>143.990390</ele>
        <time>2020-10-05T20:36:20.911Z</time>
      </trkpt>
      <trkpt lat="50.487326" lon="4.656873">
        <ele>143.456606</ele>
        <time>2020-10-05T20:37:28.662Z</time>
      </trkpt>
      <trkpt lat="50.486369" lon="4.657243">
        <ele>144.680062</ele>
        <time>2020-10-05T20:37:53.451Z</time>
      </trkpt>
      <trkpt lat="50.486127" lon="4.657437">
        <ele>145.099180</ele>
        <time>2020-10-05T20:38:00.624Z</time>
      </trkpt>
      <trkpt lat="50.485443" lon="4.658290">
        <ele>146.446298</ele>
        <time>2020-10-05T20:38:21.053Z</time>
      </trkpt>
      <trkpt lat="50.485194" lon="4.658475">
        <ele>146.871217</ele>
        <time>2020-10-05T20:38:26.466Z</time>
      </trkpt>
      <trkpt lat="50.485032" lon="4.658523">
        <ele>147.125552</ele>
        <time>2020-10-05T20:38:28.720Z</time>
      </trkpt>
      <trkpt lat="50.484437" lon="4.658411">
        <ele>146.372532</ele>
        <time>2020-10-05T20:38:36.793Z</time>
      </trkpt>
      <trkpt lat="50.484115" lon="4.658429">
        <ele>145.674842</ele>
        <time>2020-10-05T20:38:40.473Z</time>
      </trkpt>
      <trkpt lat="50.483787" lon="4.658618">
        <ele>144.918366</ele>
        <time>2020-10-05T20:38:44.175Z</time>
      </trkpt>
      <trkpt lat="50.482793" lon="4.659553">
        <ele>142.221889</ele>
        <time>2020-10-05T20:38:55.523Z</time>
      </trkpt>
      <trkpt lat="50.482427" lon="4.659604">
        <ele>141.283444</ele>
        <time>2020-10-05T20:38:59.363Z</time>
      </trkpt>
      <trkpt lat="50.482184" lon="4.659403">
        <ele>140.582096</ele>
        <time>2020-10-05T20:39:02.266Z</time>
      </trkpt>
      <trkpt lat="50.481969" lon="4.659046">
        <ele>139.783253</ele>
        <time>2020-10-05T20:39:05.779Z</time>
      </trkpt>
      <trkpt lat="50.481749" lon="4.659027">
        <ele>139.220518</ele>
        <time>2020-10-05T20:39:08.494Z</time>
      </trkpt>
      <trkpt lat="50.481568" lon="4.659163">
        <ele>138.790965</ele>
        <time>2020-10-05T20:39:10.692Z</time>
      </trkpt>
      <trkpt lat="50.481429" lon="4.659355">
        <ele>138.570163</ele>
        <time>2020-10-05T20:39:13.189Z</time>
      </trkpt>
      <trkpt lat="50.481326" lon="4.659479">
        <ele>138.415356</ele>
        <time>2020-10-05T20:39:14.610Z</time>
      </trkpt>
      <trkpt lat="50.481174" lon="4.659613">
        <ele>138.207413</ele>
        <time>2020-10-05T20:39:17.040Z</time>
      </trkpt>
      <trkpt lat="50.481875" lon="4.660581">
        <ele>137.094018</ele>
        <time>2020-10-05T20:39:28.538Z</time>
      </trkpt>
      <trkpt lat="50.482428" lon="4.661365">
        <ele>135.026628</ele>
        <time>2020-10-05T20:39:37.224Z</time>
      </trkpt>
      <trkpt lat="50.482648" lon="4.661980">
        <ele>133.258227</ele>
        <time>2020-10-05T20:39:41.748Z</time>
      </trkpt>
      <trkpt lat="50.482744" lon="4.663073">
        <ele>130.492642</ele>
        <time>2020-10-05T20:39:48.413Z</time>
      </trkpt>
      <trkpt lat="50.482709" lon="4.663590">
        <ele>128.789598</ele>
        <time>2020-10-05T20:39:51.441Z</time>
      </trkpt>
      <trkpt lat="50.482731" lon="4.664193">
        <ele>125.909367</ele>
        <time>2020-10-05T20:39:54.910Z</time>
      </trkpt>
      <trkpt lat="50.482822" lon="4.664707">
        <ele>123.365166</ele>
        <time>2020-10-05T20:39:57.924Z</time>
      </trkpt>
      <trkpt lat="50.482924" lon="4.665010">
        <ele>121.730519</ele>
        <time>2020-10-05T20:39:59.844Z</time>
      </trkpt>
      <trkpt lat="50.483044" lon="4.665216">
        <ele>120.398696</ele>
        <time>2020-10-05T20:40:01.411Z</time>
      </trkpt>
      <trkpt lat="50.483193" lon="4.665273">
        <ele>119.249447</ele>
        <time>2020-10-05T20:40:02.755Z</time>
      </trkpt>
      <trkpt lat="50.483828" lon="4.665008">
        <ele>115.186046</ele>
        <time>2020-10-05T20:40:08.521Z</time>
      </trkpt>
      <trkpt lat="50.483992" lon="4.665072">
        <ele>114.515908</ele>
        <time>2020-10-05T20:40:10.044Z</time>
      </trkpt>
      <trkpt lat="50.484084" lon="4.665284">
        <ele>113.868376</ele>
        <time>2020-10-05T20:40:11.666Z</time>
      </trkpt>
      <trkpt lat="50.484095" lon="4.665657">
        <ele>112.926140</ele>
        <time>2020-10-05T20:40:13.888Z</time>
      </trkpt>
      <trkpt lat="50.483890" lon="4.666223">
        <ele>111.282722</ele>
        <time>2020-10-05T20:40:18.178Z</time>
      </trkpt>
      <trkpt lat="50.483805" lon="4.666475">
        <ele>110.563002</ele>
        <time>2020-10-05T20:40:19.976Z</time>
      </trkpt>
      <trkpt lat="50.483723" lon="4.666625">
        <ele>110.063981</ele>
        <time>2020-10-05T20:40:21.643Z</time>
      </trkpt>
      <trkpt lat="50.483538" lon="4.666883">
        <ele>109.083102</ele>
        <time>2020-10-05T20:40:24.489Z</time>
      </trkpt>
      <trkpt lat="50.483479" lon="4.667018">
        <ele>109.096752</ele>
        <time>2020-10-05T20:40:26.343Z</time>
      </trkpt>
      <trkpt lat="50.483385" lon="4.666906">
        <ele>109.199235</ele>
        <time>2020-10-05T20:40:29.039Z</time>
      </trkpt>
      <trkpt lat="50.483130" lon="4.666695">
        <ele>109.449609</ele>
        <time>2020-10-05T20:40:33.756Z</time>
      </trkpt>
      <trkpt lat="50.482799" lon="4.666659">
        <ele>109.737868</ele>
        <time>2020-10-05T20:40:40.202Z</time>
      </trkpt>
      <trkpt lat="50.482529" lon="4.666811">
        <ele>109.987038</ele>
        <time>2020-10-05T20:40:46.065Z</time>
      </trkpt>
      <trkpt lat="50.482198" lon="4.667213">
        <ele>110.350475</ele>
        <time>2020-10-05T20:40:56.654Z</time>
      </trkpt>
      <trkpt lat="50.481897" lon="4.667780">
        <ele>110.340040</ele>
        <time>2020-10-05T20:41:06.411Z</time>
      </trkpt>
      <trkpt lat="50.481091" lon="4.669690">
        <ele>108.593379</ele>
        <time>2020-10-05T20:41:23.303Z</time>
      </trkpt>
      <trkpt lat="50.480696" lon="4.670627">
        <ele>106.461014</ele>
        <time>2020-10-05T20:41:30.513Z</time>
      </trkpt>
      <trkpt lat="50.480475" lon="4.671149">
        <ele>105.101832</ele>
        <time>2020-10-05T20:41:34.431Z</time>
      </trkpt>
      <trkpt lat="50.480174" lon="4.671862">
        <ele>103.246946</ele>
        <time>2020-10-05T20:41:39.819Z</time>
      </trkpt>
      <trkpt lat="50.479948" lon="4.672336">
        <ele>102.038872</ele>
        <time>2020-10-05T20:41:43.580Z</time>
      </trkpt>
      <trkpt lat="50.479855" lon="4.672477">
        <ele>101.697518</ele>
        <time>2020-10-05T20:41:44.856Z</time>
      </trkpt>
      <trkpt lat="50.479748" lon="4.672618">
        <ele>101.328656</ele>
        <time>2020-10-05T20:41:46.249Z</time>
      </trkpt>
      <trkpt lat="50.479170" lon="4.673106">
        <ele>99.595459</ele>
        <time>2020-10-05T20:41:53.025Z</time>
      </trkpt>
      <trkpt lat="50.478865" lon="4.673212">
        <ele>98.770331</ele>
        <time>2020-10-05T20:41:56.355Z</time>
      </trkpt>
      <trkpt lat="50.478598" lon="4.673212">
        <ele>98.065050</ele>
        <time>2020-10-05T20:41:59.259Z</time>
      </trkpt>
      <trkpt lat="50.476242" lon="4.672614">
        <ele>94.735927</ele>
        <time>2020-10-05T20:42:27.259Z</time>
      </trkpt>
      <trkpt lat="50.475479" lon="4.672425">
        <ele>94.103163</ele>
        <time>2020-10-05T20:42:36.907Z</time>
      </trkpt>
      <trkpt lat="50.474094" lon="4.672060">
        <ele>93.380014</ele>
        <time>2020-10-05T20:42:55.849Z</time>
      </trkpt>
      <trkpt lat="50.473751" lon="4.671970">
        <ele>93.287865</ele>
        <time>2020-10-05T20:43:00.634Z</time>
      </trkpt>
      <trkpt lat="50.471360" lon="4.671397">
        <ele>93.180852</ele>
        <time>2020-10-05T20:43:36.478Z</time>
      </trkpt>
      <trkpt lat="50.470149" lon="4.671085">
        <ele>93.490967</ele>
        <time>2020-10-05T20:43:56.248Z</time>
      </trkpt>
      <trkpt lat="50.469777" lon="4.670986">
        <ele>93.590392</ele>
        <time>2020-10-05T20:44:02.229Z</time>
      </trkpt>
      <trkpt lat="50.469622" lon="4.670945">
        <ele>93.631812</ele>
        <time>2020-10-05T20:44:04.655Z</time>
      </trkpt>
      <trkpt lat="50.468721" lon="4.670717">
        <ele>93.611595</ele>
        <time>2020-10-05T20:44:18.736Z</time>
      </trkpt>
      <trkpt lat="50.467654" lon="4.670419">
        <ele>93.525015</ele>
        <time>2020-10-05T20:44:33.804Z</time>
      </trkpt>
      <trkpt lat="50.466801" lon="4.670199">
        <ele>93.255301</ele>
        <time>2020-10-05T20:44:46.236Z</time>
      </trkpt>
      <trkpt lat="50.466622" lon="4.670153">
        <ele>93.198708</ele>
        <time>2020-10-05T20:44:48.745Z</time>
      </trkpt>
      <trkpt lat="50.465903" lon="4.669992">
        <ele>92.946825</ele>
        <time>2020-10-05T20:44:58.308Z</time>
      </trkpt>
      <trkpt lat="50.465421" lon="4.669916">
        <ele>92.630714</ele>
        <time>2020-10-05T20:45:04.707Z</time>
      </trkpt>
      <trkpt lat="50.465370" lon="4.669931">
        <ele>92.596856</ele>
        <time>2020-10-05T20:45:05.362Z</time>
      </trkpt>
      <trkpt lat="50.465119" lon="4.670001">
        <ele>92.430504</ele>
        <time>2020-10-05T20:45:08.640Z</time>
      </trkpt>
      <trkpt lat="50.464877" lon="4.670182">
        <ele>92.255602</ele>
        <time>2020-10-05T20:45:12.043Z</time>
      </trkpt>
      <trkpt lat="50.464625" lon="4.670310">
        <ele>92.082777</ele>
        <time>2020-10-05T20:45:15.430Z</time>
      </trkpt>
      <trkpt lat="50.464385" lon="4.670459">
        <ele>91.914377</ele>
        <time>2020-10-05T20:45:18.722Z</time>
      </trkpt>
      <trkpt lat="50.463979" lon="4.670689">
        <ele>91.766267</ele>
        <time>2020-10-05T20:45:24.280Z</time>
      </trkpt>
      <trkpt lat="50.463966" lon="4.670844">
        <ele>91.747252</ele>
        <time>2020-10-05T20:45:25.520Z</time>
      </trkpt>
      <trkpt lat="50.463888" lon="4.671546">
        <ele>91.660580</ele>
        <time>2020-10-05T20:45:31.634Z</time>
      </trkpt>
      <trkpt lat="50.463848" lon="4.671647">
        <ele>91.646113</ele>
        <time>2020-10-05T20:45:32.635Z</time>
      </trkpt>
      <trkpt lat="50.463756" lon="4.671751">
        <ele>91.624457</ele>
        <time>2020-10-05T20:45:34.347Z</time>
      </trkpt>
      <trkpt lat="50.463565" lon="4.671797">
        <ele>91.587537</ele>
        <time>2020-10-05T20:45:37.209Z</time>
      </trkpt>
      <trkpt lat="50.461891" lon="4.671372">
        <ele>91.592337</ele>
        <time>2020-10-05T20:46:04.325Z</time>
      </trkpt>
      <trkpt lat="50.461527" lon="4.671286">
        <ele>91.629888</ele>
        <time>2020-10-05T20:46:09.740Z</time>
      </trkpt>
      <trkpt lat="50.460036" lon="4.670938">
        <ele>91.265079</ele>
        <time>2020-10-05T20:46:30.414Z</time>
      </trkpt>
      <trkpt lat="50.458805" lon="4.670674">
        <ele>91.125530</ele>
        <time>2020-10-05T20:46:47.204Z</time>
      </trkpt>
      <trkpt lat="50.458091" lon="4.670545">
        <ele>91.191319</ele>
        <time>2020-10-05T20:46:58.389Z</time>
      </trkpt>
      <trkpt lat="50.457951" lon="4.670643">
        <ele>91.205350</ele>
        <time>2020-10-05T20:47:00.953Z</time>
      </trkpt>
      <trkpt lat="50.457811" lon="4.670856">
        <ele>91.223191</ele>
        <time>2020-10-05T20:47:04.202Z</time>
      </trkpt>
      <trkpt lat="50.457622" lon="4.671857">
        <ele>91.839076</ele>
        <time>2020-10-05T20:47:16.026Z</time>
      </trkpt>
      <trkpt lat="50.457468" lon="4.672084">
        <ele>92.062120</ele>
        <time>2020-10-05T20:47:19.987Z</time>
      </trkpt>
      <trkpt lat="50.457333" lon="4.672160">
        <ele>92.213577</ele>
        <time>2020-10-05T20:47:22.652Z</time>
      </trkpt>
      <trkpt lat="50.454741" lon="4.672658">
        <ele>95.638526</ele>
        <time>2020-10-05T20:48:16.184Z</time>
      </trkpt>
      <trkpt lat="50.453783" lon="4.673193">
        <ele>97.386196</ele>
        <time>2020-10-05T20:48:37.629Z</time>
      </trkpt>
      <trkpt lat="50.453566" lon="4.673267">
        <ele>97.771501</ele>
        <time>2020-10-05T20:48:42.303Z</time>
      </trkpt>
      <trkpt lat="50.453251" lon="4.673307">
        <ele>98.319864</ele>
        <time>2020-10-05T20:48:48.922Z</time>
      </trkpt>
      <trkpt lat="50.453095" lon="4.673309">
        <ele>98.590559</ele>
        <time>2020-10-05T20:48:52.406Z</time>
      </trkpt>
      <trkpt lat="50.452931" lon="4.673282">
        <ele>98.905016</ele>
        <time>2020-10-05T20:48:56.322Z</time>
      </trkpt>
      <trkpt lat="50.452684" lon="4.673225">
        <ele>99.672579</ele>
        <time>2020-10-05T20:49:02.457Z</time>
      </trkpt>
      <trkpt lat="50.451880" lon="4.673179">
        <ele>102.146141</ele>
        <time>2020-10-05T20:49:24.229Z</time>
      </trkpt>
      <trkpt lat="50.451837" lon="4.673178">
        <ele>102.278360</ele>
        <time>2020-10-05T20:49:25.477Z</time>
      </trkpt>
      <trkpt lat="50.451354" lon="4.673137">
        <ele>103.765525</ele>
        <time>2020-10-05T20:49:39.315Z</time>
      </trkpt>
      <trkpt lat="50.450811" lon="4.673126">
        <ele>105.501673</ele>
        <time>2020-10-05T20:49:55.552Z</time>
      </trkpt>
      <trkpt lat="50.450643" lon="4.673112">
        <ele>106.051233</ele>
        <time>2020-10-05T20:50:00.857Z</time>
      </trkpt>
      <trkpt lat="50.449532" lon="4.673025">
        <ele>109.684924</ele>
        <time>2020-10-05T20:50:32.738Z</time>
      </trkpt>
      <trkpt lat="50.448949" lon="4.672975">
        <ele>110.700042</ele>
        <time>2020-10-05T20:50:46.040Z</time>
      </trkpt>
      <trkpt lat="50.448330" lon="4.673006">
        <ele>111.382977</ele>
        <time>2020-10-05T20:50:58.301Z</time>
      </trkpt>
      <trkpt lat="50.447107" lon="4.673421">
        <ele>111.889084</ele>
        <time>2020-10-05T20:51:17.951Z</time>
      </trkpt>
      <trkpt lat="50.446512" lon="4.673707">
        <ele>111.452490</ele>
        <time>2020-10-05T20:51:25.967Z</time>
      </trkpt>
      <trkpt lat="50.446130" lon="4.673809">
        <ele>111.180617</ele>
        <time>2020-10-05T20:51:30.735Z</time>
      </trkpt>
      <trkpt lat="50.445807" lon="4.673889">
        <ele>110.925125</ele>
        <time>2020-10-05T20:51:34.534Z</time>
      </trkpt>
      <trkpt lat="50.444517" lon="4.674347">
        <ele>108.449464</ele>
        <time>2020-10-05T20:51:49.082Z</time>
      </trkpt>
      <trkpt lat="50.444173" lon="4.674397">
        <ele>107.802788</ele>
        <time>2020-10-05T20:51:52.937Z</time>
      </trkpt>
      <trkpt lat="50.443948" lon="4.674355">
        <ele>107.460243</ele>
        <time>2020-10-05T20:51:55.455Z</time>
      </trkpt>
      <trkpt lat="50.443566" lon="4.674211">
        <ele>106.995954</ele>
        <time>2020-10-05T20:51:59.740Z</time>
      </trkpt>
      <trkpt lat="50.443377" lon="4.674120">
        <ele>106.762322</ele>
        <time>2020-10-05T20:52:01.758Z</time>
      </trkpt>
      <trkpt lat="50.442887" lon="4.673802">
        <ele>106.135711</ele>
        <time>2020-10-05T20:52:08.220Z</time>
      </trkpt>
      <trkpt lat="50.442161" lon="4.673538">
        <ele>105.479763</ele>
        <time>2020-10-05T20:52:19.335Z</time>
      </trkpt>
      <trkpt lat="50.442022" lon="4.673477">
        <ele>105.484027</ele>
        <time>2020-10-05T20:52:20.873Z</time>
      </trkpt>
      <trkpt lat="50.441808" lon="4.673417">
        <ele>105.490449</ele>
        <time>2020-10-05T20:52:25.723Z</time>
      </trkpt>
      <trkpt lat="50.441174" lon="4.672469">
        <ele>105.516313</ele>
        <time>2020-10-05T20:52:37.319Z</time>
      </trkpt>
      <trkpt lat="50.441083" lon="4.672397">
        <ele>105.519324</ele>
        <time>2020-10-05T20:52:40.494Z</time>
      </trkpt>
      <trkpt lat="50.440872" lon="4.672457">
        <ele>105.525659</ele>
        <time>2020-10-05T20:52:43.033Z</time>
      </trkpt>
      <trkpt lat="50.440547" lon="4.672611">
        <ele>105.876305</ele>
        <time>2020-10-05T20:52:50.019Z</time>
      </trkpt>
      <trkpt lat="50.440155" lon="4.672646">
        <ele>106.365691</ele>
        <time>2020-10-05T20:52:56.933Z</time>
      </trkpt>
      <trkpt lat="50.439809" lon="4.672598">
        <ele>106.798633</ele>
        <time>2020-10-05T20:53:03.085Z</time>
      </trkpt>
      <trkpt lat="50.439668" lon="4.672619">
        <ele>106.975167</ele>
        <time>2020-10-05T20:53:07.117Z</time>
      </trkpt>
      <trkpt lat="50.439151" lon="4.672753">
        <ele>107.628288</ele>
        <time>2020-10-05T20:53:17.037Z</time>
      </trkpt>
      <trkpt lat="50.438856" lon="4.673097">
        <ele>108.635331</ele>
        <time>2020-10-05T20:53:25.683Z</time>
      </trkpt>
      <trkpt lat="50.438660" lon="4.673582">
        <ele>109.881027</ele>
        <time>2020-10-05T20:53:35.102Z</time>
      </trkpt>
      <trkpt lat="50.438578" lon="4.674022">
        <ele>110.875276</ele>
        <time>2020-10-05T20:53:43.820Z</time>
      </trkpt>
      <trkpt lat="50.438555" lon="4.674322">
        <ele>111.530590</ele>
        <time>2020-10-05T20:53:49.118Z</time>
      </trkpt>
      <trkpt lat="50.438434" lon="4.674446">
        <ele>112.022602</ele>
        <time>2020-10-05T20:53:53.895Z</time>
      </trkpt>
      <trkpt lat="50.437213" lon="4.674296">
        <ele>117.298667</ele>
        <time>2020-10-05T20:54:34.217Z</time>
      </trkpt>
      <trkpt lat="50.436291" lon="4.674350">
        <ele>121.951320</ele>
        <time>2020-10-05T20:55:06.708Z</time>
      </trkpt>
      <trkpt lat="50.435184" lon="4.673996">
        <ele>128.893773</ele>
        <time>2020-10-05T20:55:50.788Z</time>
      </trkpt>
      <trkpt lat="50.433461" lon="4.673266">
        <ele>140.666471</ele>
        <time>2020-10-05T20:57:06.339Z</time>
      </trkpt>
      <trkpt lat="50.432334" lon="4.673030">
        <ele>148.091694</ele>
        <time>2020-10-05T20:57:54.425Z</time>
      </trkpt>
      <trkpt lat="50.431602" lon="4.672751">
        <ele>152.304909</ele>
        <time>2020-10-05T20:58:23.780Z</time>
      </trkpt>
      <trkpt lat="50.431027" lon="4.672296">
        <ele>155.906512</ele>
        <time>2020-10-05T20:58:46.001Z</time>
      </trkpt>
      <trkpt lat="50.430926" lon="4.672247">
        <ele>156.497794</ele>
        <time>2020-10-05T20:58:49.603Z</time>
      </trkpt>
      <trkpt lat="50.429778" lon="4.671775">
        <ele>161.130780</ele>
        <time>2020-10-05T20:59:26.727Z</time>
      </trkpt>
      <trkpt lat="50.429728" lon="4.671726">
        <ele>161.357199</ele>
        <time>2020-10-05T20:59:28.717Z</time>
      </trkpt>
      <trkpt lat="50.429279" lon="4.671281">
        <ele>163.396921</ele>
        <time>2020-10-05T20:59:42.989Z</time>
      </trkpt>
      <trkpt lat="50.428746" lon="4.670745">
        <ele>165.210427</ele>
        <time>2020-10-05T21:00:00.209Z</time>
      </trkpt>
      <trkpt lat="50.423626" lon="4.671163">
        <ele>178.795722</ele>
        <time>2020-10-05T21:02:11.354Z</time>
      </trkpt>
      <trkpt lat="50.422783" lon="4.671252">
        <ele>180.288181</ele>
        <time>2020-10-05T21:02:28.755Z</time>
      </trkpt>
      <trkpt lat="50.422293" lon="4.671303">
        <ele>181.155629</ele>
        <time>2020-10-05T21:02:38.867Z</time>
      </trkpt>
      <trkpt lat="50.422038" lon="4.671347">
        <ele>181.614289</ele>
        <time>2020-10-05T21:02:44.435Z</time>
      </trkpt>
      <trkpt lat="50.421781" lon="4.671496">
        <ele>182.114402</ele>
        <time>2020-10-05T21:02:50.372Z</time>
      </trkpt>
      <trkpt lat="50.421336" lon="4.672072">
        <ele>183.167310</ele>
        <time>2020-10-05T21:03:03.225Z</time>
      </trkpt>
      <trkpt lat="50.421185" lon="4.672267">
        <ele>183.524256</ele>
        <time>2020-10-05T21:03:07.744Z</time>
      </trkpt>
      <trkpt lat="50.420543" lon="4.673256">
        <ele>184.829770</ele>
        <time>2020-10-05T21:03:27.960Z</time>
      </trkpt>
      <trkpt lat="50.420140" lon="4.673599">
        <ele>185.025398</ele>
        <time>2020-10-05T21:03:38.058Z</time>
      </trkpt>
      <trkpt lat="50.418982" lon="4.674278">
        <ele>185.138959</ele>
        <time>2020-10-05T21:03:55.603Z</time>
      </trkpt>
      <trkpt lat="50.418374" lon="4.674362">
        <ele>183.550046</ele>
        <time>2020-10-05T21:04:02.130Z</time>
      </trkpt>
      <trkpt lat="50.417570" lon="4.674382">
        <ele>181.456749</ele>
        <time>2020-10-05T21:04:10.199Z</time>
      </trkpt>
      <trkpt lat="50.415191" lon="4.674768">
        <ele>174.787945</ele>
        <time>2020-10-05T21:04:34.081Z</time>
      </trkpt>
      <trkpt lat="50.413297" lon="4.674715">
        <ele>175.641262</ele>
        <time>2020-10-05T21:05:07.708Z</time>
      </trkpt>
      <trkpt lat="50.413085" lon="4.674822">
        <ele>176.249165</ele>
        <time>2020-10-05T21:05:13.435Z</time>
      </trkpt>
      <trkpt lat="50.412897" lon="4.675057">
        <ele>176.905273</ele>
        <time>2020-10-05T21:05:20.022Z</time>
      </trkpt>
      <trkpt lat="50.412673" lon="4.675180">
        <ele>177.553092</ele>
        <time>2020-10-05T21:05:26.785Z</time>
      </trkpt>
      <trkpt lat="50.411533" lon="4.675105">
        <ele>181.270648</ele>
        <time>2020-10-05T21:06:01.120Z</time>
      </trkpt>
      <trkpt lat="50.410754" lon="4.676814">
        <ele>186.603212</ele>
        <time>2020-10-05T21:06:42.244Z</time>
      </trkpt>
      <trkpt lat="50.408644" lon="4.681152">
        <ele>201.359213</ele>
        <time>2020-10-05T21:08:35.426Z</time>
      </trkpt>
      <trkpt lat="50.408062" lon="4.682348">
        <ele>202.720560</ele>
        <time>2020-10-05T21:08:59.920Z</time>
      </trkpt>
      <trkpt lat="50.406635" lon="4.685304">
        <ele>201.712840</ele>
        <time>2020-10-05T21:09:30.410Z</time>
      </trkpt>
      <trkpt lat="50.406488" lon="4.685609">
        <ele>201.362367</ele>
        <time>2020-10-05T21:09:32.913Z</time>
      </trkpt>
      <trkpt lat="50.406424" lon="4.685736">
        <ele>201.213977</ele>
        <time>2020-10-05T21:09:33.953Z</time>
      </trkpt>
      <trkpt lat="50.406350" lon="4.685904">
        <ele>200.668594</ele>
        <time>2020-10-05T21:09:35.277Z</time>
      </trkpt>
      <trkpt lat="50.406280" lon="4.686023">
        <ele>200.174273</ele>
        <time>2020-10-05T21:09:36.305Z</time>
      </trkpt>
      <trkpt lat="50.404693" lon="4.689364">
        <ele>186.573453</ele>
        <time>2020-10-05T21:10:01.174Z</time>
      </trkpt>
      <trkpt lat="50.404287" lon="4.690242">
        <ele>182.691208</ele>
        <time>2020-10-05T21:10:07.512Z</time>
      </trkpt>
      <trkpt lat="50.404180" lon="4.690605">
        <ele>181.433453</ele>
        <time>2020-10-05T21:10:09.872Z</time>
      </trkpt>
      <trkpt lat="50.404162" lon="4.691308">
        <ele>179.277852</ele>
        <time>2020-10-05T21:10:14.035Z</time>
      </trkpt>
      <trkpt lat="50.404104" lon="4.691604">
        <ele>178.329072</ele>
        <time>2020-10-05T21:10:15.866Z</time>
      </trkpt>
      <trkpt lat="50.403928" lon="4.691806">
        <ele>177.280838</ele>
        <time>2020-10-05T21:10:17.896Z</time>
      </trkpt>
      <trkpt lat="50.403204" lon="4.692222">
        <ele>173.731858</ele>
        <time>2020-10-05T21:10:25.491Z</time>
      </trkpt>
      <trkpt lat="50.402614" lon="4.692510">
        <ele>172.665477</ele>
        <time>2020-10-05T21:10:32.036Z</time>
      </trkpt>
      <trkpt lat="50.402093" lon="4.692765">
        <ele>171.723584</ele>
        <time>2020-10-05T21:10:38.408Z</time>
      </trkpt>
      <trkpt lat="50.400480" lon="4.693583">
        <ele>170.352586</ele>
        <time>2020-10-05T21:11:00.783Z</time>
      </trkpt>
      <trkpt lat="50.400127" lon="4.693761">
        <ele>170.231381</ele>
        <time>2020-10-05T21:11:05.756Z</time>
      </trkpt>
      <trkpt lat="50.398945" lon="4.694366">
        <ele>170.613522</ele>
        <time>2020-10-05T21:11:25.585Z</time>
      </trkpt>
      <trkpt lat="50.398832" lon="4.694424">
        <ele>170.675827</ele>
        <time>2020-10-05T21:11:27.284Z</time>
      </trkpt>
      <trkpt lat="50.398454" lon="4.694631">
        <ele>170.885635</ele>
        <time>2020-10-05T21:11:34.194Z</time>
      </trkpt>
      <trkpt lat="50.398337" lon="4.694691">
        <ele>170.950140</ele>
        <time>2020-10-05T21:11:36.664Z</time>
      </trkpt>
      <trkpt lat="50.398238" lon="4.694734">
        <ele>171.003971</ele>
        <time>2020-10-05T21:11:38.555Z</time>
      </trkpt>
      <trkpt lat="50.396785" lon="4.695478">
        <ele>173.156752</ele>
        <time>2020-10-05T21:12:09.800Z</time>
      </trkpt>
      <trkpt lat="50.396558" lon="4.695691">
        <ele>173.550480</ele>
        <time>2020-10-05T21:12:15.473Z</time>
      </trkpt>
      <trkpt lat="50.396442" lon="4.695736">
        <ele>173.728350</ele>
        <time>2020-10-05T21:12:18.218Z</time>
      </trkpt>
      <trkpt lat="50.396349" lon="4.695737">
        <ele>173.923741</ele>
        <time>2020-10-05T21:12:20.585Z</time>
      </trkpt>
      <trkpt lat="50.396245" lon="4.695666">
        <ele>174.173358</ele>
        <time>2020-10-05T21:12:22.872Z</time>
      </trkpt>
      <trkpt lat="50.396134" lon="4.695623">
        <ele>174.424985</ele>
        <time>2020-10-05T21:12:25.413Z</time>
      </trkpt>
      <trkpt lat="50.396041" lon="4.695588">
        <ele>174.635466</ele>
        <time>2020-10-05T21:12:27.996Z</time>
      </trkpt>
      <trkpt lat="50.395501" lon="4.694960">
        <ele>176.114865</ele>
        <time>2020-10-05T21:12:44.161Z</time>
      </trkpt>
      <trkpt lat="50.395424" lon="4.694865">
        <ele>176.330460</ele>
        <time>2020-10-05T21:12:46.612Z</time>
      </trkpt>
      <trkpt lat="50.395398" lon="4.694837">
        <ele>176.399867</ele>
        <time>2020-10-05T21:12:47.222Z</time>
      </trkpt>
      <trkpt lat="50.395161" lon="4.694626">
        <ele>176.999605</ele>
        <time>2020-10-05T21:12:54.319Z</time>
      </trkpt>
      <trkpt lat="50.394433" lon="4.693880">
        <ele>178.744399</ele>
        <time>2020-10-05T21:13:14.086Z</time>
      </trkpt>
      <trkpt lat="50.394359" lon="4.693833">
        <ele>178.895511</ele>
        <time>2020-10-05T21:13:16.458Z</time>
      </trkpt>
      <trkpt lat="50.394365" lon="4.693920">
        <ele>179.001102</ele>
        <time>2020-10-05T21:13:17.771Z</time>
      </trkpt>
      <trkpt lat="50.394380" lon="4.694246">
        <ele>179.395492</ele>
        <time>2020-10-05T21:13:22.336Z</time>
      </trkpt>
      <trkpt lat="50.394443" lon="4.695585">
        <ele>181.015585</ele>
        <time>2020-10-05T21:13:40.763Z</time>
      </trkpt>
      <trkpt lat="50.394454" lon="4.695642">
        <ele>181.087446</ele>
        <time>2020-10-05T21:13:41.335Z</time>
      </trkpt>
      <trkpt lat="50.394497" lon="4.695901">
        <ele>181.483481</ele>
        <time>2020-10-05T21:13:44.707Z</time>
      </trkpt>
      <trkpt lat="50.394502" lon="4.695932">
        <ele>181.531474</ele>
        <time>2020-10-05T21:13:45.293Z</time>
      </trkpt>
      <trkpt lat="50.394518" lon="4.696050">
        <ele>181.712537</ele>
        <time>2020-10-05T21:13:47.629Z</time>
      </trkpt>
      <trkpt lat="50.394466" lon="4.696076">
        <ele>181.841029</ele>
        <time>2020-10-05T21:13:48.867Z</time>
      </trkpt>
      <trkpt lat="50.394404" lon="4.696175">
        <ele>182.049316</ele>
        <time>2020-10-05T21:13:50.338Z</time>
      </trkpt>
      <trkpt lat="50.394386" lon="4.696220">
        <ele>182.129049</ele>
        <time>2020-10-05T21:13:51.232Z</time>
      </trkpt>
      <trkpt lat="50.394368" lon="4.696288">
        <ele>182.239556</ele>
        <time>2020-10-05T21:13:52.112Z</time>
      </trkpt>
      <trkpt lat="50.394290" lon="4.696594">
        <ele>182.734172</ele>
        <time>2020-10-05T21:13:56.851Z</time>
      </trkpt>
      <trkpt lat="50.394158" lon="4.697161">
        <ele>183.640131</ele>
        <time>2020-10-05T21:14:05.527Z</time>
      </trkpt>
      <trkpt lat="50.394134" lon="4.697273">
        <ele>183.817470</ele>
        <time>2020-10-05T21:14:07.404Z</time>
      </trkpt>
      <trkpt lat="50.394031" lon="4.697754">
        <ele>184.579027</ele>
        <time>2020-10-05T21:14:15.353Z</time>
      </trkpt>
      <trkpt lat="50.393990" lon="4.697913">
        <ele>184.836448</ele>
        <time>2020-10-05T21:14:18.237Z</time>
      </trkpt>
      <trkpt lat="50.393962" lon="4.698004">
        <ele>184.988104</ele>
        <time>2020-10-05T21:14:20.484Z</time>
      </trkpt>
      <trkpt lat="50.393664" lon="4.698514">
        <ele>186.565960</ele>
        <time>2020-10-05T21:14:33.179Z</time>
      </trkpt>
      <trkpt lat="50.393094" lon="4.699005">
        <ele>189.309398</ele>
        <time>2020-10-05T21:14:53.450Z</time>
      </trkpt>
      <trkpt lat="50.392429" lon="4.699518">
        <ele>192.435805</ele>
        <time>2020-10-05T21:15:18.483Z</time>
      </trkpt>
      <trkpt lat="50.392013" lon="4.699735">
        <ele>194.424284</ele>
        <time>2020-10-05T21:15:33.229Z</time>
      </trkpt>
      <trkpt lat="50.391499" lon="4.700002">
        <ele>196.943326</ele>
        <time>2020-10-05T21:15:51.703Z</time>
      </trkpt>
      <trkpt lat="50.391177" lon="4.700087">
        <ele>198.462457</ele>
        <time>2020-10-05T21:16:02.834Z</time>
      </trkpt>
      <trkpt lat="50.390349" lon="4.700021">
        <ele>202.262123</ele>
        <time>2020-10-05T21:16:30.148Z</time>
      </trkpt>
      <trkpt lat="50.388347" lon="4.699692">
        <ele>210.999898</ele>
        <time>2020-10-05T21:17:35.003Z</time>
      </trkpt>
      <trkpt lat="50.387995" lon="4.699625">
        <ele>212.475615</ele>
        <time>2020-10-05T21:17:46.385Z</time>
      </trkpt>
      <trkpt lat="50.385400" lon="4.698788">
        <ele>223.290287</ele>
        <time>2020-10-05T21:19:08.376Z</time>
      </trkpt>
      <trkpt lat="50.385046" lon="4.698734">
        <ele>224.743994</ele>
        <time>2020-10-05T21:19:19.416Z</time>
      </trkpt>
      <trkpt lat="50.384338" lon="4.698788">
        <ele>227.672751</ele>
        <time>2020-10-05T21:19:41.600Z</time>
      </trkpt>
      <trkpt lat="50.383657" lon="4.698896">
        <ele>230.500842</ele>
        <time>2020-10-05T21:20:03.322Z</time>
      </trkpt>
      <trkpt lat="50.379345" lon="4.699603">
        <ele>247.815540</ele>
        <time>2020-10-05T21:22:19.887Z</time>
      </trkpt>
      <trkpt lat="50.378872" lon="4.699929">
        <ele>249.245793</ele>
        <time>2020-10-05T21:22:33.879Z</time>
      </trkpt>
      <trkpt lat="50.378487" lon="4.700311">
        <ele>250.506983</ele>
        <time>2020-10-05T21:22:44.630Z</time>
      </trkpt>
      <trkpt lat="50.377704" lon="4.701095">
        <ele>251.324731</ele>
        <time>2020-10-05T21:23:02.240Z</time>
      </trkpt>
      <trkpt lat="50.376743" lon="4.702040">
        <ele>251.311817</ele>
        <time>2020-10-05T21:23:17.501Z</time>
      </trkpt>
      <trkpt lat="50.375766" lon="4.702973">
        <ele>249.379386</ele>
        <time>2020-10-05T21:23:30.530Z</time>
      </trkpt>
      <trkpt lat="50.375737" lon="4.703001">
        <ele>249.320141</ele>
        <time>2020-10-05T21:23:30.905Z</time>
      </trkpt>
      <trkpt lat="50.375667" lon="4.703067">
        <ele>249.178049</ele>
        <time>2020-10-05T21:23:31.812Z</time>
      </trkpt>
      <trkpt lat="50.373960" lon="4.704739">
        <ele>244.795813</ele>
        <time>2020-10-05T21:23:53.250Z</time>
      </trkpt>
      <trkpt lat="50.373801" lon="4.704894">
        <ele>244.355609</ele>
        <time>2020-10-05T21:23:55.241Z</time>
      </trkpt>
      <trkpt lat="50.373781" lon="4.704914">
        <ele>244.299836</ele>
        <time>2020-10-05T21:23:55.495Z</time>
      </trkpt>
      <trkpt lat="50.373629" lon="4.705063">
        <ele>243.919558</ele>
        <time>2020-10-05T21:23:57.420Z</time>
      </trkpt>
      <trkpt lat="50.373101" lon="4.705565">
        <ele>243.263284</ele>
        <time>2020-10-05T21:24:04.131Z</time>
      </trkpt>
      <trkpt lat="50.371826" lon="4.706832">
        <ele>242.591843</ele>
        <time>2020-10-05T21:24:23.853Z</time>
      </trkpt>
      <trkpt lat="50.368460" lon="4.710137">
        <ele>250.036786</ele>
        <time>2020-10-05T21:25:58.212Z</time>
      </trkpt>
      <trkpt lat="50.367639" lon="4.710943">
        <ele>251.707762</ele>
        <time>2020-10-05T21:26:19.718Z</time>
      </trkpt>
      <trkpt lat="50.367467" lon="4.711133">
        <ele>251.673951</ele>
        <time>2020-10-05T21:26:23.629Z</time>
      </trkpt>
      <trkpt lat="50.367060" lon="4.711519">
        <ele>250.854862</ele>
        <time>2020-10-05T21:26:30.404Z</time>
      </trkpt>
      <trkpt lat="50.366153" lon="4.712500">
        <ele>248.957437</ele>
        <time>2020-10-05T21:26:42.170Z</time>
      </trkpt>
      <trkpt lat="50.365830" lon="4.712850">
        <ele>247.470848</ele>
        <time>2020-10-05T21:26:45.919Z</time>
      </trkpt>
      <trkpt lat="50.364463" lon="4.714377">
        <ele>240.071617</ele>
        <time>2020-10-05T21:27:01.740Z</time>
      </trkpt>
      <trkpt lat="50.361769" lon="4.717387">
        <ele>231.017459</ele>
        <time>2020-10-05T21:27:36.296Z</time>
      </trkpt>
      <trkpt lat="50.358966" lon="4.720483">
        <ele>228.963254</ele>
        <time>2020-10-05T21:28:22.191Z</time>
      </trkpt>
      <trkpt lat="50.358686" lon="4.720791">
        <ele>228.837604</ele>
        <time>2020-10-05T21:28:26.943Z</time>
      </trkpt>
      <trkpt lat="50.352993" lon="4.727110">
        <ele>227.607403</ele>
        <time>2020-10-05T21:30:05.537Z</time>
      </trkpt>
      <trkpt lat="50.350644" lon="4.729698">
        <ele>230.382897</ele>
        <time>2020-10-05T21:30:53.955Z</time>
      </trkpt>
      <trkpt lat="50.350166" lon="4.730207">
        <ele>231.631246</ele>
        <time>2020-10-05T21:31:10.380Z</time>
      </trkpt>
      <trkpt lat="50.347125" lon="4.733598">
        <ele>246.240065</ele>
        <time>2020-10-05T21:33:12.040Z</time>
      </trkpt>
      <trkpt lat="50.347050" lon="4.733715">
        <ele>246.634901</ele>
        <time>2020-10-05T21:33:14.326Z</time>
      </trkpt>
      <trkpt lat="50.347003" lon="4.733786">
        <ele>246.878465</ele>
        <time>2020-10-05T21:33:15.377Z</time>
      </trkpt>
      <trkpt lat="50.346700" lon="4.734455">
        <ele>246.411631</ele>
        <time>2020-10-05T21:33:23.853Z</time>
      </trkpt>
      <trkpt lat="50.346639" lon="4.734681">
        <ele>246.259070</ele>
        <time>2020-10-05T21:33:26.024Z</time>
      </trkpt>
      <trkpt lat="50.346595" lon="4.734841">
        <ele>246.150749</ele>
        <time>2020-10-05T21:33:27.330Z</time>
      </trkpt>
      <trkpt lat="50.346427" lon="4.736014">
        <ele>245.403320</ele>
        <time>2020-10-05T21:33:35.907Z</time>
      </trkpt>
      <trkpt lat="50.346415" lon="4.736113">
        <ele>245.340668</ele>
        <time>2020-10-05T21:33:36.560Z</time>
      </trkpt>
      <trkpt lat="50.346312" lon="4.736875">
        <ele>244.002587</ele>
        <time>2020-10-05T21:33:41.669Z</time>
      </trkpt>
      <trkpt lat="50.346265" lon="4.737254">
        <ele>243.088255</ele>
        <time>2020-10-05T21:33:44.117Z</time>
      </trkpt>
      <trkpt lat="50.346135" lon="4.738284">
        <ele>240.601771</ele>
        <time>2020-10-05T21:33:50.782Z</time>
      </trkpt>
      <trkpt lat="50.345990" lon="4.739504">
        <ele>237.254018</ele>
        <time>2020-10-05T21:33:58.462Z</time>
      </trkpt>
      <trkpt lat="50.345937" lon="4.740257">
        <ele>234.568239</ele>
        <time>2020-10-05T21:34:02.998Z</time>
      </trkpt>
      <trkpt lat="50.345919" lon="4.740833">
        <ele>232.523714</ele>
        <time>2020-10-05T21:34:06.392Z</time>
      </trkpt>
      <trkpt lat="50.346030" lon="4.744777">
        <ele>218.376255</ele>
        <time>2020-10-05T21:34:29.537Z</time>
      </trkpt>
      <trkpt lat="50.346036" lon="4.744916">
        <ele>218.300627</ele>
        <time>2020-10-05T21:34:30.432Z</time>
      </trkpt>
      <trkpt lat="50.345988" lon="4.745580">
        <ele>218.055654</ele>
        <time>2020-10-05T21:34:34.901Z</time>
      </trkpt>
      <trkpt lat="50.345936" lon="4.745783">
        <ele>217.975465</ele>
        <time>2020-10-05T21:34:36.440Z</time>
      </trkpt>
      <trkpt lat="50.345550" lon="4.746247">
        <ele>217.695997</ele>
        <time>2020-10-05T21:34:43.277Z</time>
      </trkpt>
      <trkpt lat="50.344959" lon="4.746578">
        <ele>217.335459</ele>
        <time>2020-10-05T21:34:57.128Z</time>
      </trkpt>
      <trkpt lat="50.344802" lon="4.746653">
        <ele>217.764103</ele>
        <time>2020-10-05T21:35:01.645Z</time>
      </trkpt>
      <trkpt lat="50.344551" lon="4.746774">
        <ele>218.672165</ele>
        <time>2020-10-05T21:35:08.670Z</time>
      </trkpt>
      <trkpt lat="50.343811" lon="4.746891">
        <ele>221.243962</ele>
        <time>2020-10-05T21:35:30.445Z</time>
      </trkpt>
      <trkpt lat="50.343074" lon="4.746747">
        <ele>223.774901</ele>
        <time>2020-10-05T21:35:53.544Z</time>
      </trkpt>
      <trkpt lat="50.342298" lon="4.746494">
        <ele>226.147362</ele>
        <time>2020-10-05T21:36:17.212Z</time>
      </trkpt>
      <trkpt lat="50.338035" lon="4.745193">
        <ele>237.553847</ele>
        <time>2020-10-05T21:38:08.936Z</time>
      </trkpt>
      <trkpt lat="50.337698" lon="4.745894">
        <ele>237.474015</ele>
        <time>2020-10-05T21:38:18.663Z</time>
      </trkpt>
      <trkpt lat="50.337419" lon="4.746368">
        <ele>236.995848</ele>
        <time>2020-10-05T21:38:25.277Z</time>
      </trkpt>
      <trkpt lat="50.335831" lon="4.748229">
        <ele>235.360503</ele>
        <time>2020-10-05T21:38:57.793Z</time>
      </trkpt>
      <trkpt lat="50.335283" lon="4.748782">
        <ele>235.049775</ele>
        <time>2020-10-05T21:39:12.640Z</time>
      </trkpt>
      <trkpt lat="50.335055" lon="4.749009">
        <ele>235.057979</ele>
        <time>2020-10-05T21:39:19.401Z</time>
      </trkpt>
      <trkpt lat="50.334325" lon="4.749812">
        <ele>235.861984</ele>
        <time>2020-10-05T21:39:41.296Z</time>
      </trkpt>
      <trkpt lat="50.332968" lon="4.749687">
        <ele>237.086805</ele>
        <time>2020-10-05T21:40:12.947Z</time>
      </trkpt>
      <trkpt lat="50.332518" lon="4.749906">
        <ele>237.511151</ele>
        <time>2020-10-05T21:40:23.393Z</time>
      </trkpt>
      <trkpt lat="50.331474" lon="4.750482">
        <ele>238.757139</ele>
        <time>2020-10-05T21:40:50.817Z</time>
      </trkpt>
      <trkpt lat="50.329428" lon="4.751035">
        <ele>242.211291</ele>
        <time>2020-10-05T21:41:47.916Z</time>
      </trkpt>
      <trkpt lat="50.328778" lon="4.751217">
        <ele>243.327806</ele>
        <time>2020-10-05T21:42:05.859Z</time>
      </trkpt>
      <trkpt lat="50.327252" lon="4.751498">
        <ele>245.790916</ele>
        <time>2020-10-05T21:42:46.277Z</time>
      </trkpt>
      <trkpt lat="50.326475" lon="4.751524">
        <ele>247.000898</ele>
        <time>2020-10-05T21:43:06.528Z</time>
      </trkpt>
      <trkpt lat="50.325455" lon="4.751455">
        <ele>249.095338</ele>
        <time>2020-10-05T21:43:34.960Z</time>
      </trkpt>
      <trkpt lat="50.324532" lon="4.751591">
        <ele>251.073851</ele>
        <time>2020-10-05T21:44:02.481Z</time>
      </trkpt>
      <trkpt lat="50.323002" lon="4.751966">
        <ele>255.065672</ele>
        <time>2020-10-05T21:44:49.933Z</time>
      </trkpt>
      <trkpt lat="50.321936" lon="4.752240">
        <ele>257.008294</ele>
        <time>2020-10-05T21:45:22.595Z</time>
      </trkpt>
      <trkpt lat="50.320222" lon="4.752205">
        <ele>257.267623</ele>
        <time>2020-10-05T21:46:02.692Z</time>
      </trkpt>
      <trkpt lat="50.318990" lon="4.752259">
        <ele>254.678367</ele>
        <time>2020-10-05T21:46:20.710Z</time>
      </trkpt>
      <trkpt lat="50.318923" lon="4.752263">
        <ele>254.384634</ele>
        <time>2020-10-05T21:46:21.651Z</time>
      </trkpt>
      <trkpt lat="50.318591" lon="4.752296">
        <ele>252.927254</ele>
        <time>2020-10-05T21:46:26.167Z</time>
      </trkpt>
      <trkpt lat="50.318124" lon="4.752172">
        <ele>250.852185</ele>
        <time>2020-10-05T21:46:32.594Z</time>
      </trkpt>
      <trkpt lat="50.317909" lon="4.753373">
        <ele>247.390601</ele>
        <time>2020-10-05T21:46:40.168Z</time>
      </trkpt>
      <trkpt lat="50.317791" lon="4.755101">
        <ele>242.693525</ele>
        <time>2020-10-05T21:46:50.990Z</time>
      </trkpt>
      <trkpt lat="50.317751" lon="4.755183">
        <ele>242.414621</ele>
        <time>2020-10-05T21:46:51.636Z</time>
      </trkpt>
      <trkpt lat="50.317506" lon="4.755389">
        <ele>241.237556</ele>
        <time>2020-10-05T21:46:54.392Z</time>
      </trkpt>
      <trkpt lat="50.316256" lon="4.756338">
        <ele>235.304174</ele>
        <time>2020-10-05T21:47:07.830Z</time>
      </trkpt>
      <trkpt lat="50.316212" lon="4.756445">
        <ele>234.956659</ele>
        <time>2020-10-05T21:47:08.588Z</time>
      </trkpt>
      <trkpt lat="50.316181" lon="4.756517">
        <ele>234.719540</ele>
        <time>2020-10-05T21:47:09.106Z</time>
      </trkpt>
      <trkpt lat="50.316108" lon="4.756987">
        <ele>233.398741</ele>
        <time>2020-10-05T21:47:12.145Z</time>
      </trkpt>
      <trkpt lat="50.316095" lon="4.757470">
        <ele>232.091581</ele>
        <time>2020-10-05T21:47:15.175Z</time>
      </trkpt>
      <trkpt lat="50.316080" lon="4.757840">
        <ele>231.095658</ele>
        <time>2020-10-05T21:47:17.432Z</time>
      </trkpt>
      <trkpt lat="50.316022" lon="4.758710">
        <ele>228.745894</ele>
        <time>2020-10-05T21:47:22.815Z</time>
      </trkpt>
      <trkpt lat="50.315545" lon="4.760227">
        <ele>224.426045</ele>
        <time>2020-10-05T21:47:33.328Z</time>
      </trkpt>
      <trkpt lat="50.315261" lon="4.760816">
        <ele>222.843516</ele>
        <time>2020-10-05T21:47:38.134Z</time>
      </trkpt>
      <trkpt lat="50.314902" lon="4.761027">
        <ele>221.555944</ele>
        <time>2020-10-05T21:47:42.080Z</time>
      </trkpt>
      <trkpt lat="50.314778" lon="4.761041">
        <ele>221.138490</ele>
        <time>2020-10-05T21:47:43.323Z</time>
      </trkpt>
      <trkpt lat="50.314744" lon="4.761045">
        <ele>221.024002</ele>
        <time>2020-10-05T21:47:43.650Z</time>
      </trkpt>
      <trkpt lat="50.313906" lon="4.760826">
        <ele>218.305375</ele>
        <time>2020-10-05T21:47:52.263Z</time>
      </trkpt>
      <trkpt lat="50.313665" lon="4.760886">
        <ele>217.586331</ele>
        <time>2020-10-05T21:47:54.769Z</time>
      </trkpt>
      <trkpt lat="50.313370" lon="4.761091">
        <ele>216.635347</ele>
        <time>2020-10-05T21:47:58.134Z</time>
      </trkpt>
      <trkpt lat="50.313267" lon="4.761159">
        <ele>216.305980</ele>
        <time>2020-10-05T21:47:59.290Z</time>
      </trkpt>
      <trkpt lat="50.313166" lon="4.761227">
        <ele>215.982035</ele>
        <time>2020-10-05T21:48:00.420Z</time>
      </trkpt>
      <trkpt lat="50.312040" lon="4.761286">
        <ele>212.161544</ele>
        <time>2020-10-05T21:48:12.154Z</time>
      </trkpt>
      <trkpt lat="50.311421" lon="4.761426">
        <ele>209.611182</ele>
        <time>2020-10-05T21:48:18.325Z</time>
      </trkpt>
      <trkpt lat="50.311002" lon="4.761648">
        <ele>207.807420</ele>
        <time>2020-10-05T21:48:22.579Z</time>
      </trkpt>
      <trkpt lat="50.310649" lon="4.762150">
        <ele>205.319884</ele>
        <time>2020-10-05T21:48:27.040Z</time>
      </trkpt>
      <trkpt lat="50.309663" lon="4.764171">
        <ele>194.025812</ele>
        <time>2020-10-05T21:48:41.614Z</time>
      </trkpt>
      <trkpt lat="50.309506" lon="4.764411">
        <ele>192.564953</ele>
        <time>2020-10-05T21:48:43.533Z</time>
      </trkpt>
      <trkpt lat="50.309270" lon="4.764600">
        <ele>190.800061</ele>
        <time>2020-10-05T21:48:45.852Z</time>
      </trkpt>
      <trkpt lat="50.308824" lon="4.764775">
        <ele>187.738751</ele>
        <time>2020-10-05T21:48:49.967Z</time>
      </trkpt>
      <trkpt lat="50.308423" lon="4.765024">
        <ele>184.866589</ele>
        <time>2020-10-05T21:48:53.902Z</time>
      </trkpt>
      <trkpt lat="50.308292" lon="4.765148">
        <ele>183.847393</ele>
        <time>2020-10-05T21:48:55.259Z</time>
      </trkpt>
      <trkpt lat="50.308084" lon="4.765366">
        <ele>182.180905</ele>
        <time>2020-10-05T21:48:57.676Z</time>
      </trkpt>
      <trkpt lat="50.307743" lon="4.765785">
        <ele>181.213057</ele>
        <time>2020-10-05T21:49:01.926Z</time>
      </trkpt>
      <trkpt lat="50.307639" lon="4.765932">
        <ele>180.908034</ele>
        <time>2020-10-05T21:49:03.417Z</time>
      </trkpt>
      <trkpt lat="50.307520" lon="4.766093">
        <ele>180.565645</ele>
        <time>2020-10-05T21:49:05.102Z</time>
      </trkpt>
      <trkpt lat="50.307400" lon="4.766273">
        <ele>180.203859</ele>
        <time>2020-10-05T21:49:06.835Z</time>
      </trkpt>
      <trkpt lat="50.307210" lon="4.766598">
        <ele>179.591239</ele>
        <time>2020-10-05T21:49:09.894Z</time>
      </trkpt>
      <trkpt lat="50.306939" lon="4.767082">
        <ele>178.696269</ele>
        <time>2020-10-05T21:49:16.013Z</time>
      </trkpt>
      <trkpt lat="50.306742" lon="4.767409">
        <ele>178.198693</ele>
        <time>2020-10-05T21:49:20.667Z</time>
      </trkpt>
      <trkpt lat="50.306593" lon="4.767655">
        <ele>178.107595</ele>
        <time>2020-10-05T21:49:23.593Z</time>
      </trkpt>
      <trkpt lat="50.306342" lon="4.768087">
        <ele>177.950668</ele>
        <time>2020-10-05T21:49:28.872Z</time>
      </trkpt>
      <trkpt lat="50.305706" lon="4.768934">
        <ele>177.599389</ele>
        <time>2020-10-05T21:49:40.207Z</time>
      </trkpt>
      <trkpt lat="50.305637" lon="4.769025">
        <ele>177.561433</ele>
        <time>2020-10-05T21:49:41.249Z</time>
      </trkpt>
      <trkpt lat="50.305386" lon="4.769340">
        <ele>177.439764</ele>
        <time>2020-10-05T21:49:45.202Z</time>
      </trkpt>
      <trkpt lat="50.305230" lon="4.769523">
        <ele>177.381907</ele>
        <time>2020-10-05T21:49:47.796Z</time>
      </trkpt>
      <trkpt lat="50.305182" lon="4.769608">
        <ele>177.360399</ele>
        <time>2020-10-05T21:49:48.619Z</time>
      </trkpt>
      <trkpt lat="50.305130" lon="4.769699">
        <ele>177.337251</ele>
        <time>2020-10-05T21:49:49.581Z</time>
      </trkpt>
      <trkpt lat="50.305071" lon="4.769861">
        <ele>177.301898</ele>
        <time>2020-10-05T21:49:51.200Z</time>
      </trkpt>
      <trkpt lat="50.304754" lon="4.770733">
        <ele>177.111689</ele>
        <time>2020-10-05T21:49:59.215Z</time>
      </trkpt>
      <trkpt lat="50.304323" lon="4.771848">
        <ele>177.202490</ele>
        <time>2020-10-05T21:50:13.504Z</time>
      </trkpt>
      <trkpt lat="50.304164" lon="4.771663">
        <ele>177.412045</ele>
        <time>2020-10-05T21:50:36.210Z</time>
      </trkpt>
      <trkpt lat="50.303513" lon="4.773355">
        <ele>178.746640</ele>
        <time>2020-10-05T21:51:02.891Z</time>
      </trkpt>
      <trkpt lat="50.303047" lon="4.774537">
        <ele>178.328322</ele>
        <time>2020-10-05T21:51:16.329Z</time>
      </trkpt>
      <trkpt lat="50.302966" lon="4.774673">
        <ele>178.251945</ele>
        <time>2020-10-05T21:51:18.379Z</time>
      </trkpt>
      <trkpt lat="50.302664" lon="4.775203">
        <ele>177.960218</ele>
        <time>2020-10-05T21:51:23.387Z</time>
      </trkpt>
      <trkpt lat="50.301664" lon="4.776372">
        <ele>176.698434</ele>
        <time>2020-10-05T21:51:37.514Z</time>
      </trkpt>
      <trkpt lat="50.301134" lon="4.776752">
        <ele>175.996909</ele>
        <time>2020-10-05T21:51:44.488Z</time>
      </trkpt>
      <trkpt lat="50.301013" lon="4.776839">
        <ele>175.836671</ele>
        <time>2020-10-05T21:51:47.210Z</time>
      </trkpt>
      <trkpt lat="50.300692" lon="4.776979">
        <ele>175.370926</ele>
        <time>2020-10-05T21:51:51.370Z</time>
      </trkpt>
      <trkpt lat="50.300553" lon="4.777036">
        <ele>175.065488</ele>
        <time>2020-10-05T21:51:53.365Z</time>
      </trkpt>
      <trkpt lat="50.300285" lon="4.777125">
        <ele>174.483129</ele>
        <time>2020-10-05T21:51:56.911Z</time>
      </trkpt>
      <trkpt lat="50.299761" lon="4.777232">
        <ele>173.359836</ele>
        <time>2020-10-05T21:52:03.124Z</time>
      </trkpt>
      <trkpt lat="50.299692" lon="4.777146">
        <ele>173.172356</ele>
        <time>2020-10-05T21:52:04.299Z</time>
      </trkpt>
      <trkpt lat="50.298743" lon="4.777286">
        <ele>170.099524</ele>
        <time>2020-10-05T21:52:13.813Z</time>
      </trkpt>
      <trkpt lat="50.298228" lon="4.777431">
        <ele>166.873047</ele>
        <time>2020-10-05T21:52:18.552Z</time>
      </trkpt>
      <trkpt lat="50.297682" lon="4.777703">
        <ele>163.340013</ele>
        <time>2020-10-05T21:52:23.606Z</time>
      </trkpt>
      <trkpt lat="50.296861" lon="4.778349">
        <ele>159.707933</ele>
        <time>2020-10-05T21:52:32.068Z</time>
      </trkpt>
      <trkpt lat="50.296784" lon="4.778431">
        <ele>159.532006</ele>
        <time>2020-10-05T21:52:32.916Z</time>
      </trkpt>
      <trkpt lat="50.296454" lon="4.778796">
        <ele>158.768698</ele>
        <time>2020-10-05T21:52:37.092Z</time>
      </trkpt>
      <trkpt lat="50.296295" lon="4.778996">
        <ele>158.383379</ele>
        <time>2020-10-05T21:52:39.536Z</time>
      </trkpt>
      <trkpt lat="50.296183" lon="4.779156">
        <ele>158.096942</ele>
        <time>2020-10-05T21:52:41.197Z</time>
      </trkpt>
      <trkpt lat="50.296007" lon="4.779429">
        <ele>157.628882</ele>
        <time>2020-10-05T21:52:45.325Z</time>
      </trkpt>
      <trkpt lat="50.295650" lon="4.780051">
        <ele>159.180237</ele>
        <time>2020-10-05T21:53:01.377Z</time>
      </trkpt>
      <trkpt lat="50.295221" lon="4.781127">
        <ele>164.307522</ele>
        <time>2020-10-05T21:53:40.553Z</time>
      </trkpt>
      <trkpt lat="50.295091" lon="4.781574">
        <ele>166.292944</ele>
        <time>2020-10-05T21:53:55.014Z</time>
      </trkpt>
      <trkpt lat="50.295053" lon="4.781705">
        <ele>166.874545</ele>
        <time>2020-10-05T21:53:59.257Z</time>
      </trkpt>
      <trkpt lat="50.294952" lon="4.782134">
        <ele>168.636554</ele>
        <time>2020-10-05T21:54:11.815Z</time>
      </trkpt>
      <trkpt lat="50.294896" lon="4.782423">
        <ele>169.064152</ele>
        <time>2020-10-05T21:54:19.211Z</time>
      </trkpt>
      <trkpt lat="50.294927" lon="4.782568">
        <ele>169.280646</ele>
        <time>2020-10-05T21:54:22.316Z</time>
      </trkpt>
      <trkpt lat="50.294581" lon="4.784296">
        <ele>171.844655</ele>
        <time>2020-10-05T21:54:52.100Z</time>
      </trkpt>
      <trkpt lat="50.294483" lon="4.784873">
        <ele>172.494131</ele>
        <time>2020-10-05T21:54:56.106Z</time>
      </trkpt>
      <trkpt lat="50.294561" lon="4.784835">
        <ele>172.362810</ele>
        <time>2020-10-05T21:54:58.370Z</time>
      </trkpt>
      <trkpt lat="50.294679" lon="4.784761">
        <ele>172.158463</ele>
        <time>2020-10-05T21:55:02.064Z</time>
      </trkpt>
      <trkpt lat="50.294735" lon="4.784619">
        <ele>171.987086</ele>
        <time>2020-10-05T21:55:03.298Z</time>
      </trkpt>
      <trkpt lat="50.294801" lon="4.784476">
        <ele>171.805915</ele>
        <time>2020-10-05T21:55:04.421Z</time>
      </trkpt>
      <trkpt lat="50.294883" lon="4.784305">
        <ele>171.586336</ele>
        <time>2020-10-05T21:55:05.785Z</time>
      </trkpt>
      <trkpt lat="50.295043" lon="4.783933">
        <ele>171.125792</ele>
        <time>2020-10-05T21:55:08.582Z</time>
      </trkpt>
      <trkpt lat="50.295176" lon="4.783404">
        <ele>170.541976</ele>
        <time>2020-10-05T21:55:12.570Z</time>
      </trkpt>
      <trkpt lat="50.295212" lon="4.782695">
        <ele>169.811572</ele>
        <time>2020-10-05T21:55:18.579Z</time>
      </trkpt>
      <trkpt lat="50.295171" lon="4.782198">
        <ele>170.509740</ele>
        <time>2020-10-05T21:55:25.699Z</time>
      </trkpt>
      <trkpt lat="50.295167" lon="4.782165">
        <ele>170.583028</ele>
        <time>2020-10-05T21:55:26.245Z</time>
      </trkpt>
      <trkpt lat="50.295139" lon="4.781858">
        <ele>171.259670</ele>
        <time>2020-10-05T21:55:30.582Z</time>
      </trkpt>
      <trkpt lat="50.295156" lon="4.781806">
        <ele>171.387124</ele>
        <time>2020-10-05T21:55:31.000Z</time>
      </trkpt>
      <trkpt lat="50.295114" lon="4.781736">
        <ele>171.596661</ele>
        <time>2020-10-05T21:55:33.015Z</time>
      </trkpt>
      <trkpt lat="50.295040" lon="4.781623">
        <ele>171.949748</ele>
        <time>2020-10-05T21:55:35.248Z</time>
      </trkpt>
      <trkpt lat="50.294991" lon="4.781601">
        <ele>172.123855</ele>
        <time>2020-10-05T21:55:36.203Z</time>
      </trkpt>
      <trkpt lat="50.294776" lon="4.781559">
        <ele>172.863879</ele>
        <time>2020-10-05T21:55:42.571Z</time>
      </trkpt>
      <trkpt lat="50.294153" lon="4.781341">
        <ele>175.044241</ele>
        <time>2020-10-05T21:56:02.253Z</time>
      </trkpt>
      <trkpt lat="50.293871" lon="4.781112">
        <ele>176.455930</ele>
        <time>2020-10-05T21:56:15.100Z</time>
      </trkpt>
      <trkpt lat="50.293753" lon="4.780968">
        <ele>177.521518</ele>
        <time>2020-10-05T21:56:23.016Z</time>
      </trkpt>
      <trkpt lat="50.293602" lon="4.780796">
        <ele>178.851511</ele>
        <time>2020-10-05T21:56:29.854Z</time>
      </trkpt>
      <trkpt lat="50.293413" lon="4.780674">
        <ele>180.307496</ele>
        <time>2020-10-05T21:56:41.193Z</time>
      </trkpt>
      <trkpt lat="50.292970" lon="4.780452">
        <ele>183.620207</ele>
        <time>2020-10-05T21:56:59.197Z</time>
      </trkpt>
      <trkpt lat="50.292890" lon="4.780446">
        <ele>184.190606</ele>
        <time>2020-10-05T21:57:03.422Z</time>
      </trkpt>
      <trkpt lat="50.292805" lon="4.780510">
        <ele>184.862356</ele>
        <time>2020-10-05T21:57:09.147Z</time>
      </trkpt>
      <trkpt lat="50.292708" lon="4.780680">
        <ele>185.899419</ele>
        <time>2020-10-05T21:57:13.924Z</time>
      </trkpt>
      <trkpt lat="50.292448" lon="4.781489">
        <ele>189.765260</ele>
        <time>2020-10-05T21:57:41.511Z</time>
      </trkpt>
      <trkpt lat="50.292400" lon="4.782485">
        <ele>193.472753</ele>
        <time>2020-10-05T21:58:08.595Z</time>
      </trkpt>
      <trkpt lat="50.292196" lon="4.783616">
        <ele>197.834959</ele>
        <time>2020-10-05T21:58:35.253Z</time>
      </trkpt>
      <trkpt lat="50.291671" lon="4.785181">
        <ele>202.056967</ele>
        <time>2020-10-05T21:59:07.269Z</time>
      </trkpt>
      <trkpt lat="50.291477" lon="4.785572">
        <ele>203.084780</ele>
        <time>2020-10-05T21:59:15.243Z</time>
      </trkpt>
      <trkpt lat="50.291286" lon="4.785955">
        <ele>204.093502</ele>
        <time>2020-10-05T21:59:23.547Z</time>
      </trkpt>
      <trkpt lat="50.291159" lon="4.786153">
        <ele>204.676002</ele>
        <time>2020-10-05T21:59:28.262Z</time>
      </trkpt>
      <trkpt lat="50.290974" lon="4.786285">
        <ele>205.287276</ele>
        <time>2020-10-05T21:59:33.795Z</time>
      </trkpt>
      <trkpt lat="50.290298" lon="4.786376">
        <ele>207.222212</ele>
        <time>2020-10-05T21:59:51.716Z</time>
      </trkpt>
      <trkpt lat="50.290125" lon="4.786408">
        <ele>207.719007</ele>
        <time>2020-10-05T21:59:55.907Z</time>
      </trkpt>
      <trkpt lat="50.290018" lon="4.786452">
        <ele>208.034505</ele>
        <time>2020-10-05T21:59:59.007Z</time>
      </trkpt>
      <trkpt lat="50.289887" lon="4.786623">
        <ele>208.520962</ele>
        <time>2020-10-05T22:00:02.838Z</time>
      </trkpt>
      <trkpt lat="50.289737" lon="4.787176">
        <ele>209.615590</ele>
        <time>2020-10-05T22:00:13.193Z</time>
      </trkpt>
      <trkpt lat="50.289313" lon="4.788105">
        <ele>210.716367</ele>
        <time>2020-10-05T22:00:33.517Z</time>
      </trkpt>
      <trkpt lat="50.289026" lon="4.788477">
        <ele>211.141859</ele>
        <time>2020-10-05T22:00:42.491Z</time>
      </trkpt>
      <trkpt lat="50.288211" lon="4.788997">
        <ele>212.028567</ele>
        <time>2020-10-05T22:00:56.431Z</time>
      </trkpt>
      <trkpt lat="50.286337" lon="4.790429">
        <ele>205.381727</ele>
        <time>2020-10-05T22:01:17.015Z</time>
      </trkpt>
      <trkpt lat="50.286015" lon="4.790530">
        <ele>204.462671</ele>
        <time>2020-10-05T22:01:20.188Z</time>
      </trkpt>
      <trkpt lat="50.285720" lon="4.790470">
        <ele>203.630153</ele>
        <time>2020-10-05T22:01:23.202Z</time>
      </trkpt>
      <trkpt lat="50.285590" lon="4.790401">
        <ele>203.245987</ele>
        <time>2020-10-05T22:01:24.455Z</time>
      </trkpt>
      <trkpt lat="50.285515" lon="4.790363">
        <ele>203.025370</ele>
        <time>2020-10-05T22:01:25.445Z</time>
      </trkpt>
      <trkpt lat="50.285044" lon="4.790054">
        <ele>201.596119</ele>
        <time>2020-10-05T22:01:31.220Z</time>
      </trkpt>
      <trkpt lat="50.284822" lon="4.789827">
        <ele>201.512953</ele>
        <time>2020-10-05T22:01:34.291Z</time>
      </trkpt>
      <trkpt lat="50.284607" lon="4.789460">
        <ele>202.199922</ele>
        <time>2020-10-05T22:01:38.718Z</time>
      </trkpt>
      <trkpt lat="50.283992" lon="4.788126">
        <ele>204.469548</ele>
        <time>2020-10-05T22:02:07.034Z</time>
      </trkpt>
      <trkpt lat="50.283778" lon="4.787837">
        <ele>205.079897</ele>
        <time>2020-10-05T22:02:16.277Z</time>
      </trkpt>
      <trkpt lat="50.283617" lon="4.787742">
        <ele>205.614934</ele>
        <time>2020-10-05T22:02:21.999Z</time>
      </trkpt>
      <trkpt lat="50.283342" lon="4.787832">
        <ele>206.511875</ele>
        <time>2020-10-05T22:02:31.374Z</time>
      </trkpt>
      <trkpt lat="50.282534" lon="4.789268">
        <ele>210.415211</ele>
        <time>2020-10-05T22:03:06.962Z</time>
      </trkpt>
      <trkpt lat="50.282218" lon="4.789597">
        <ele>210.463845</ele>
        <time>2020-10-05T22:03:14.008Z</time>
      </trkpt>
      <trkpt lat="50.281903" lon="4.789781">
        <ele>209.926187</ele>
        <time>2020-10-05T22:03:18.182Z</time>
      </trkpt>
      <trkpt lat="50.281667" lon="4.789890">
        <ele>209.532710</ele>
        <time>2020-10-05T22:03:21.167Z</time>
      </trkpt>
      <trkpt lat="50.281480" lon="4.789901">
        <ele>209.233470</ele>
        <time>2020-10-05T22:03:23.170Z</time>
      </trkpt>
      <trkpt lat="50.281206" lon="4.789956">
        <ele>208.791732</ele>
        <time>2020-10-05T22:03:26.068Z</time>
      </trkpt>
      <trkpt lat="50.281057" lon="4.790080">
        <ele>208.521871</ele>
        <time>2020-10-05T22:03:27.927Z</time>
      </trkpt>
      <trkpt lat="50.280952" lon="4.790191">
        <ele>208.319246</ele>
        <time>2020-10-05T22:03:29.163Z</time>
      </trkpt>
      <trkpt lat="50.280925" lon="4.790304">
        <ele>208.195968</ele>
        <time>2020-10-05T22:03:30.244Z</time>
      </trkpt>
      <trkpt lat="50.280887" lon="4.790529">
        <ele>207.938577</ele>
        <time>2020-10-05T22:03:31.783Z</time>
      </trkpt>
      <trkpt lat="50.280853" lon="4.790830">
        <ele>207.279787</ele>
        <time>2020-10-05T22:03:33.603Z</time>
      </trkpt>
      <trkpt lat="50.280747" lon="4.791826">
        <ele>205.103581</ele>
        <time>2020-10-05T22:03:39.757Z</time>
      </trkpt>
      <trkpt lat="50.280513" lon="4.792636">
        <ele>203.187707</ele>
        <time>2020-10-05T22:03:45.425Z</time>
      </trkpt>
      <trkpt lat="50.280450" lon="4.792752">
        <ele>202.859600</ele>
        <time>2020-10-05T22:03:46.384Z</time>
      </trkpt>
      <trkpt lat="50.280263" lon="4.792945">
        <ele>202.104078</ele>
        <time>2020-10-05T22:03:48.995Z</time>
      </trkpt>
      <trkpt lat="50.280204" lon="4.793002">
        <ele>201.908680</ele>
        <time>2020-10-05T22:03:49.772Z</time>
      </trkpt>
      <trkpt lat="50.280046" lon="4.793124">
        <ele>201.896680</ele>
        <time>2020-10-05T22:03:52.207Z</time>
      </trkpt>
      <trkpt lat="50.279932" lon="4.793232">
        <ele>201.887603</ele>
        <time>2020-10-05T22:03:54.243Z</time>
      </trkpt>
      <trkpt lat="50.279894" lon="4.793340">
        <ele>201.882237</ele>
        <time>2020-10-05T22:03:55.123Z</time>
      </trkpt>
      <trkpt lat="50.279723" lon="4.793517">
        <ele>201.868273</ele>
        <time>2020-10-05T22:03:58.671Z</time>
      </trkpt>
      <trkpt lat="50.279585" lon="4.793626">
        <ele>201.857744</ele>
        <time>2020-10-05T22:04:00.537Z</time>
      </trkpt>
      <trkpt lat="50.279525" lon="4.793649">
        <ele>201.853537</ele>
        <time>2020-10-05T22:04:02.005Z</time>
      </trkpt>
      <trkpt lat="50.279099" lon="4.793717">
        <ele>201.824372</ele>
        <time>2020-10-05T22:04:08.522Z</time>
      </trkpt>
      <trkpt lat="50.278824" lon="4.793742">
        <ele>201.805610</ele>
        <time>2020-10-05T22:04:13.408Z</time>
      </trkpt>
      <trkpt lat="50.278715" lon="4.793822">
        <ele>201.797410</ele>
        <time>2020-10-05T22:04:15.571Z</time>
      </trkpt>
      <trkpt lat="50.278590" lon="4.793914">
        <ele>201.788001</ele>
        <time>2020-10-05T22:04:20.482Z</time>
      </trkpt>
      <trkpt lat="50.278439" lon="4.793977">
        <ele>201.916906</ele>
        <time>2020-10-05T22:04:27.400Z</time>
      </trkpt>
      <trkpt lat="50.278395" lon="4.793994">
        <ele>201.958645</ele>
        <time>2020-10-05T22:04:28.320Z</time>
      </trkpt>
      <trkpt lat="50.278393" lon="4.794241">
        <ele>202.104025</ele>
        <time>2020-10-05T22:04:30.780Z</time>
      </trkpt>
      <trkpt lat="50.278470" lon="4.795095">
        <ele>202.611614</ele>
        <time>2020-10-05T22:04:42.500Z</time>
      </trkpt>
      <trkpt lat="50.278412" lon="4.795616">
        <ele>202.922860</ele>
        <time>2020-10-05T22:04:49.631Z</time>
      </trkpt>
      <trkpt lat="50.278348" lon="4.795962">
        <ele>203.134852</ele>
        <time>2020-10-05T22:04:53.362Z</time>
      </trkpt>
      <trkpt lat="50.278321" lon="4.796098">
        <ele>203.218667</ele>
        <time>2020-10-05T22:04:55.081Z</time>
      </trkpt>
      <trkpt lat="50.278258" lon="4.796367">
        <ele>203.387281</ele>
        <time>2020-10-05T22:04:57.894Z</time>
      </trkpt>
      <trkpt lat="50.278105" lon="4.796680">
        <ele>203.436734</ele>
        <time>2020-10-05T22:05:01.716Z</time>
      </trkpt>
      <trkpt lat="50.277923" lon="4.797061">
        <ele>203.426085</ele>
        <time>2020-10-05T22:05:06.303Z</time>
      </trkpt>
      <trkpt lat="50.277711" lon="4.797450">
        <ele>203.414640</ele>
        <time>2020-10-05T22:05:10.871Z</time>
      </trkpt>
      <trkpt lat="50.277569" lon="4.797844">
        <ele>203.404513</ele>
        <time>2020-10-05T22:05:14.767Z</time>
      </trkpt>
      <trkpt lat="50.277368" lon="4.799005">
        <ele>203.409139</ele>
        <time>2020-10-05T22:05:26.676Z</time>
      </trkpt>
      <trkpt lat="50.277298" lon="4.799175">
        <ele>203.455139</ele>
        <time>2020-10-05T22:05:28.274Z</time>
      </trkpt>
      <trkpt lat="50.276999" lon="4.799585">
        <ele>203.596642</ele>
        <time>2020-10-05T22:05:35.845Z</time>
      </trkpt>
      <trkpt lat="50.276304" lon="4.800294">
        <ele>203.891938</ele>
        <time>2020-10-05T22:05:53.276Z</time>
      </trkpt>
      <trkpt lat="50.275870" lon="4.800867">
        <ele>204.316014</ele>
        <time>2020-10-05T22:06:07.720Z</time>
      </trkpt>
      <trkpt lat="50.275283" lon="4.801158">
        <ele>205.197419</ele>
        <time>2020-10-05T22:06:24.834Z</time>
      </trkpt>
      <trkpt lat="50.274931" lon="4.801454">
        <ele>205.769433</ele>
        <time>2020-10-05T22:06:35.903Z</time>
      </trkpt>
      <trkpt lat="50.274371" lon="4.801951">
        <ele>206.600061</ele>
        <time>2020-10-05T22:06:52.424Z</time>
      </trkpt>
      <trkpt lat="50.273392" lon="4.802831">
        <ele>206.682021</ele>
        <time>2020-10-05T22:07:16.672Z</time>
      </trkpt>
      <trkpt lat="50.273342" lon="4.803005">
        <ele>206.690872</ele>
        <time>2020-10-05T22:07:19.009Z</time>
      </trkpt>
      <trkpt lat="50.273326" lon="4.803336">
        <ele>206.706272</ele>
        <time>2020-10-05T22:07:22.765Z</time>
      </trkpt>
      <trkpt lat="50.273318" lon="4.803768">
        <ele>206.711744</ele>
        <time>2020-10-05T22:07:27.878Z</time>
      </trkpt>
      <trkpt lat="50.273297" lon="4.803907">
        <ele>206.544072</ele>
        <time>2020-10-05T22:07:29.358Z</time>
      </trkpt>
      <trkpt lat="50.273193" lon="4.804293">
        <ele>206.052320</ele>
        <time>2020-10-05T22:07:34.231Z</time>
      </trkpt>
      <trkpt lat="50.272353" lon="4.806820">
        <ele>201.687495</ele>
        <time>2020-10-05T22:08:02.723Z</time>
      </trkpt>
      <trkpt lat="50.272259" lon="4.807055">
        <ele>200.896334</ele>
        <time>2020-10-05T22:08:05.243Z</time>
      </trkpt>
      <trkpt lat="50.272160" lon="4.807252">
        <ele>200.181156</ele>
        <time>2020-10-05T22:08:07.600Z</time>
      </trkpt>
      <trkpt lat="50.271441" lon="4.808633">
        <ele>194.833508</ele>
        <time>2020-10-05T22:08:22.891Z</time>
      </trkpt>
      <trkpt lat="50.271256" lon="4.809259">
        <ele>191.089714</ele>
        <time>2020-10-05T22:08:28.524Z</time>
      </trkpt>
      <trkpt lat="50.271301" lon="4.811546">
        <ele>178.869131</ele>
        <time>2020-10-05T22:08:46.564Z</time>
      </trkpt>
      <trkpt lat="50.271090" lon="4.812822">
        <ele>172.703704</ele>
        <time>2020-10-05T22:08:56.964Z</time>
      </trkpt>
      <trkpt lat="50.271032" lon="4.813178">
        <ele>170.985145</ele>
        <time>2020-10-05T22:08:59.881Z</time>
      </trkpt>
      <trkpt lat="50.270964" lon="4.813370">
        <ele>169.958331</ele>
        <time>2020-10-05T22:09:01.778Z</time>
      </trkpt>
      <trkpt lat="50.270686" lon="4.813704">
        <ele>167.393030</ele>
        <time>2020-10-05T22:09:06.534Z</time>
      </trkpt>
      <trkpt lat="50.270476" lon="4.814344">
        <ele>167.805039</ele>
        <time>2020-10-05T22:09:13.955Z</time>
      </trkpt>
      <trkpt lat="50.270368" lon="4.814541">
        <ele>168.159619</ele>
        <time>2020-10-05T22:09:17.214Z</time>
      </trkpt>
      <trkpt lat="50.270293" lon="4.814671">
        <ele>168.398875</ele>
        <time>2020-10-05T22:09:20.663Z</time>
      </trkpt>
      <trkpt lat="50.270074" lon="4.815027">
        <ele>169.073913</ele>
        <time>2020-10-05T22:09:29.441Z</time>
      </trkpt>
      <trkpt lat="50.269991" lon="4.815258">
        <ele>169.435954</ele>
        <time>2020-10-05T22:09:35.882Z</time>
      </trkpt>
      <trkpt lat="50.269968" lon="4.815348">
        <ele>169.568376</ele>
        <time>2020-10-05T22:09:38.769Z</time>
      </trkpt>
      <trkpt lat="50.269934" lon="4.815560">
        <ele>169.866991</ele>
        <time>2020-10-05T22:09:44.686Z</time>
      </trkpt>
      <trkpt lat="50.269919" lon="4.815667">
        <ele>170.016650</ele>
        <time>2020-10-05T22:09:47.748Z</time>
      </trkpt>
      <trkpt lat="50.269891" lon="4.815838">
        <ele>170.257816</ele>
        <time>2020-10-05T22:09:52.390Z</time>
      </trkpt>
      <trkpt lat="50.269837" lon="4.815970">
        <ele>170.471931</ele>
        <time>2020-10-05T22:09:56.797Z</time>
      </trkpt>
      <trkpt lat="50.269556" lon="4.816166">
        <ele>171.649805</ele>
        <time>2020-10-05T22:10:09.400Z</time>
      </trkpt>
      <trkpt lat="50.268256" lon="4.817103">
        <ele>179.477875</ele>
        <time>2020-10-05T22:11:06.186Z</time>
      </trkpt>
      <trkpt lat="50.267718" lon="4.817364">
        <ele>181.224445</ele>
        <time>2020-10-05T22:11:20.637Z</time>
      </trkpt>
      <trkpt lat="50.267417" lon="4.817395">
        <ele>181.731371</ele>
        <time>2020-10-05T22:11:27.602Z</time>
      </trkpt>
      <trkpt lat="50.267116" lon="4.817399">
        <ele>182.237220</ele>
        <time>2020-10-05T22:11:33.941Z</time>
      </trkpt>
      <trkpt lat="50.266825" lon="4.817403">
        <ele>182.726265</ele>
        <time>2020-10-05T22:11:39.470Z</time>
      </trkpt>
      <trkpt lat="50.265869" lon="4.817415">
        <ele>184.670993</ele>
        <time>2020-10-05T22:11:54.263Z</time>
      </trkpt>
      <trkpt lat="50.265316" lon="4.817412">
        <ele>186.064082</ele>
        <time>2020-10-05T22:12:06.584Z</time>
      </trkpt>
      <trkpt lat="50.264763" lon="4.817399">
        <ele>187.457320</ele>
        <time>2020-10-05T22:12:22.424Z</time>
      </trkpt>
      <trkpt lat="50.264501" lon="4.817428">
        <ele>188.118983</ele>
        <time>2020-10-05T22:12:30.873Z</time>
      </trkpt>
      <trkpt lat="50.264390" lon="4.817505">
        <ele>188.789017</ele>
        <time>2020-10-05T22:12:34.768Z</time>
      </trkpt>
      <trkpt lat="50.264363" lon="4.817549">
        <ele>189.037193</ele>
        <time>2020-10-05T22:12:35.878Z</time>
      </trkpt>
      <trkpt lat="50.264324" lon="4.817678">
        <ele>189.617838</ele>
        <time>2020-10-05T22:12:39.517Z</time>
      </trkpt>
      <trkpt lat="50.264290" lon="4.817926">
        <ele>190.649900</ele>
        <time>2020-10-05T22:12:47.306Z</time>
      </trkpt>
      <trkpt lat="50.264234" lon="4.818798">
        <ele>194.215942</ele>
        <time>2020-10-05T22:13:12.243Z</time>
      </trkpt>
      <trkpt lat="50.264069" lon="4.819532">
        <ele>197.381894</ele>
        <time>2020-10-05T22:13:37.986Z</time>
      </trkpt>
      <trkpt lat="50.263835" lon="4.820360">
        <ele>200.857189</ele>
        <time>2020-10-05T22:14:07.295Z</time>
      </trkpt>
      <trkpt lat="50.263367" lon="4.821578">
        <ele>205.797052</ele>
        <time>2020-10-05T22:14:46.603Z</time>
      </trkpt>
      <trkpt lat="50.263438" lon="4.822851">
        <ele>209.734407</ele>
        <time>2020-10-05T22:15:17.109Z</time>
      </trkpt>
      <trkpt lat="50.263309" lon="4.823848">
        <ele>211.102869</ele>
        <time>2020-10-05T22:15:37.956Z</time>
      </trkpt>
      <trkpt lat="50.263108" lon="4.824543">
        <ele>212.129089</ele>
        <time>2020-10-05T22:15:51.895Z</time>
      </trkpt>
      <trkpt lat="50.262932" lon="4.825107">
        <ele>212.973420</ele>
        <time>2020-10-05T22:16:01.607Z</time>
      </trkpt>
      <trkpt lat="50.262730" lon="4.825550">
        <ele>212.792215</ele>
        <time>2020-10-05T22:16:08.393Z</time>
      </trkpt>
      <trkpt lat="50.262299" lon="4.826187">
        <ele>211.780904</ele>
        <time>2020-10-05T22:16:18.077Z</time>
      </trkpt>
      <trkpt lat="50.262108" lon="4.826228">
        <ele>211.452088</ele>
        <time>2020-10-05T22:16:20.085Z</time>
      </trkpt>
      <trkpt lat="50.261623" lon="4.826320">
        <ele>210.618827</ele>
        <time>2020-10-05T22:16:25.073Z</time>
      </trkpt>
      <trkpt lat="50.261017" lon="4.826430">
        <ele>209.965109</ele>
        <time>2020-10-05T22:16:31.701Z</time>
      </trkpt>
      <trkpt lat="50.260639" lon="4.826470">
        <ele>209.769259</ele>
        <time>2020-10-05T22:16:36.008Z</time>
      </trkpt>
      <trkpt lat="50.260579" lon="4.826611">
        <ele>209.713283</ele>
        <time>2020-10-05T22:16:37.187Z</time>
      </trkpt>
      <trkpt lat="50.260584" lon="4.826766">
        <ele>209.661994</ele>
        <time>2020-10-05T22:16:38.650Z</time>
      </trkpt>
      <trkpt lat="50.260619" lon="4.827721">
        <ele>209.345870</ele>
        <time>2020-10-05T22:16:46.906Z</time>
      </trkpt>
      <trkpt lat="50.260251" lon="4.828665">
        <ele>210.516045</ele>
        <time>2020-10-05T22:17:03.635Z</time>
      </trkpt>
      <trkpt lat="50.260038" lon="4.828927">
        <ele>211.340241</ele>
        <time>2020-10-05T22:17:12.615Z</time>
      </trkpt>
      <trkpt lat="50.259888" lon="4.828931">
        <ele>211.796556</ele>
        <time>2020-10-05T22:17:17.316Z</time>
      </trkpt>
      <trkpt lat="50.259713" lon="4.828780">
        <ele>212.404462</ele>
        <time>2020-10-05T22:17:23.287Z</time>
      </trkpt>
      <trkpt lat="50.259336" lon="4.828456">
        <ele>213.712851</ele>
        <time>2020-10-05T22:17:35.870Z</time>
      </trkpt>
      <trkpt lat="50.258805" lon="4.828085">
        <ele>215.245835</ele>
        <time>2020-10-05T22:17:51.152Z</time>
      </trkpt>
      <trkpt lat="50.258619" lon="4.827967">
        <ele>215.677938</ele>
        <time>2020-10-05T22:17:56.011Z</time>
      </trkpt>
      <trkpt lat="50.258450" lon="4.827895">
        <ele>216.055015</ele>
        <time>2020-10-05T22:18:00.175Z</time>
      </trkpt>
      <trkpt lat="50.257963" lon="4.827902">
        <ele>217.103472</ele>
        <time>2020-10-05T22:18:11.235Z</time>
      </trkpt>
      <trkpt lat="50.257492" lon="4.828037">
        <ele>218.134324</ele>
        <time>2020-10-05T22:18:20.916Z</time>
      </trkpt>
      <trkpt lat="50.257288" lon="4.828163">
        <ele>218.643443</ele>
        <time>2020-10-05T22:18:25.849Z</time>
      </trkpt>
      <trkpt lat="50.256935" lon="4.828571">
        <ele>220.170357</ele>
        <time>2020-10-05T22:18:36.112Z</time>
      </trkpt>
      <trkpt lat="50.256684" lon="4.828759">
        <ele>221.138487</ele>
        <time>2020-10-05T22:18:43.447Z</time>
      </trkpt>
      <trkpt lat="50.256448" lon="4.828866">
        <ele>221.993276</ele>
        <time>2020-10-05T22:18:50.355Z</time>
      </trkpt>
      <trkpt lat="50.256223" lon="4.828940">
        <ele>222.793119</ele>
        <time>2020-10-05T22:18:57.023Z</time>
      </trkpt>
      <trkpt lat="50.255781" lon="4.829145">
        <ele>224.396920</ele>
        <time>2020-10-05T22:19:12.381Z</time>
      </trkpt>
      <trkpt lat="50.255404" lon="4.829497">
        <ele>226.839836</ele>
        <time>2020-10-05T22:19:28.386Z</time>
      </trkpt>
      <trkpt lat="50.255092" lon="4.830061">
        <ele>229.853722</ele>
        <time>2020-10-05T22:19:47.604Z</time>
      </trkpt>
      <trkpt lat="50.254096" lon="4.832004">
        <ele>239.518229</ele>
        <time>2020-10-05T22:20:54.939Z</time>
      </trkpt>
      <trkpt lat="50.253551" lon="4.833071">
        <ele>244.448617</ele>
        <time>2020-10-05T22:21:27.844Z</time>
      </trkpt>
      <trkpt lat="50.253366" lon="4.833464">
        <ele>246.210510</ele>
        <time>2020-10-05T22:21:37.874Z</time>
      </trkpt>
      <trkpt lat="50.253264" lon="4.833637">
        <ele>246.521551</ele>
        <time>2020-10-05T22:21:43.259Z</time>
      </trkpt>
      <trkpt lat="50.253220" lon="4.833674">
        <ele>246.596178</ele>
        <time>2020-10-05T22:21:44.622Z</time>
      </trkpt>
      <trkpt lat="50.252998" lon="4.833847">
        <ele>246.966700</ele>
        <time>2020-10-05T22:21:51.346Z</time>
      </trkpt>
      <trkpt lat="50.252491" lon="4.834250">
        <ele>247.816286</ele>
        <time>2020-10-05T22:22:03.887Z</time>
      </trkpt>
      <trkpt lat="50.251807" lon="4.834722">
        <ele>248.933119</ele>
        <time>2020-10-05T22:22:16.009Z</time>
      </trkpt>
      <trkpt lat="50.251742" lon="4.834767">
        <ele>248.986274</ele>
        <time>2020-10-05T22:22:16.940Z</time>
      </trkpt>
      <trkpt lat="50.251624" lon="4.834848">
        <ele>248.763762</ele>
        <time>2020-10-05T22:22:18.333Z</time>
      </trkpt>
      <trkpt lat="50.248819" lon="4.836778">
        <ele>243.197486</ele>
        <time>2020-10-05T22:22:52.036Z</time>
      </trkpt>
      <trkpt lat="50.247975" lon="4.837390">
        <ele>241.978722</ele>
        <time>2020-10-05T22:23:02.496Z</time>
      </trkpt>
      <trkpt lat="50.247841" lon="4.837470">
        <ele>241.853413</ele>
        <time>2020-10-05T22:23:04.092Z</time>
      </trkpt>
      <trkpt lat="50.247328" lon="4.837806">
        <ele>241.367512</ele>
        <time>2020-10-05T22:23:10.732Z</time>
      </trkpt>
      <trkpt lat="50.246668" lon="4.838098">
        <ele>241.181701</ele>
        <time>2020-10-05T22:23:20.807Z</time>
      </trkpt>
      <trkpt lat="50.246025" lon="4.837542">
        <ele>242.881448</ele>
        <time>2020-10-05T22:23:36.280Z</time>
      </trkpt>
      <trkpt lat="50.245918" lon="4.837514">
        <ele>243.132418</ele>
        <time>2020-10-05T22:23:38.476Z</time>
      </trkpt>
      <trkpt lat="50.245843" lon="4.837578">
        <ele>243.330072</ele>
        <time>2020-10-05T22:23:40.981Z</time>
      </trkpt>
      <trkpt lat="50.245552" lon="4.837709">
        <ele>244.030595</ele>
        <time>2020-10-05T22:23:50.549Z</time>
      </trkpt>
      <trkpt lat="50.245457" lon="4.837709">
        <ele>244.250363</ele>
        <time>2020-10-05T22:23:53.703Z</time>
      </trkpt>
      <trkpt lat="50.245328" lon="4.837868">
        <ele>244.630343</ele>
        <time>2020-10-05T22:23:59.327Z</time>
      </trkpt>
      <trkpt lat="50.245075" lon="4.838615">
        <ele>246.426986</ele>
        <time>2020-10-05T22:24:16.179Z</time>
      </trkpt>
      <trkpt lat="50.244992" lon="4.838713">
        <ele>246.824306</ele>
        <time>2020-10-05T22:24:20.298Z</time>
      </trkpt>
      <trkpt lat="50.244524" lon="4.838953">
        <ele>248.705881</ele>
        <time>2020-10-05T22:24:36.211Z</time>
      </trkpt>
      <trkpt lat="50.244387" lon="4.839019">
        <ele>249.253533</ele>
        <time>2020-10-05T22:24:40.564Z</time>
      </trkpt>
      <trkpt lat="50.244300" lon="4.839122">
        <ele>249.670412</ele>
        <time>2020-10-05T22:24:44.657Z</time>
      </trkpt>
      <trkpt lat="50.244253" lon="4.839207">
        <ele>249.944936</ele>
        <time>2020-10-05T22:24:46.735Z</time>
      </trkpt>
      <trkpt lat="50.244201" lon="4.839290">
        <ele>250.228807</ele>
        <time>2020-10-05T22:24:48.354Z</time>
      </trkpt>
      <trkpt lat="50.243396" lon="4.839711">
        <ele>252.020450</ele>
        <time>2020-10-05T22:25:10.381Z</time>
      </trkpt>
      <trkpt lat="50.243181" lon="4.839817">
        <ele>252.079422</ele>
        <time>2020-10-05T22:25:15.381Z</time>
      </trkpt>
      <trkpt lat="50.243133" lon="4.839843">
        <ele>252.092711</ele>
        <time>2020-10-05T22:25:16.281Z</time>
      </trkpt>
      <trkpt lat="50.242983" lon="4.839923">
        <ele>252.134170</ele>
        <time>2020-10-05T22:25:19.753Z</time>
      </trkpt>
      <trkpt lat="50.242695" lon="4.840077">
        <ele>252.213792</ele>
        <time>2020-10-05T22:25:24.343Z</time>
      </trkpt>
      <trkpt lat="50.242653" lon="4.840100">
        <ele>252.225434</ele>
        <time>2020-10-05T22:25:24.935Z</time>
      </trkpt>
      <trkpt lat="50.242596" lon="4.840133">
        <ele>252.241334</ele>
        <time>2020-10-05T22:25:25.716Z</time>
      </trkpt>
      <trkpt lat="50.242540" lon="4.840161">
        <ele>252.256714</ele>
        <time>2020-10-05T22:25:26.419Z</time>
      </trkpt>
      <trkpt lat="50.242505" lon="4.840180">
        <ele>252.266406</ele>
        <time>2020-10-05T22:25:26.852Z</time>
      </trkpt>
      <trkpt lat="50.242490" lon="4.840338">
        <ele>252.293129</ele>
        <time>2020-10-05T22:25:28.097Z</time>
      </trkpt>
      <trkpt lat="50.242504" lon="4.840469">
        <ele>252.315349</ele>
        <time>2020-10-05T22:25:29.128Z</time>
      </trkpt>
      <trkpt lat="50.242544" lon="4.840573">
        <ele>252.335653</ele>
        <time>2020-10-05T22:25:30.032Z</time>
      </trkpt>
      <trkpt lat="50.242469" lon="4.840691">
        <ele>252.363485</ele>
        <time>2020-10-05T22:25:31.597Z</time>
      </trkpt>
      <trkpt lat="50.242429" lon="4.840931">
        <ele>251.957706</ele>
        <time>2020-10-05T22:25:34.021Z</time>
      </trkpt>
      <trkpt lat="50.242422" lon="4.841289">
        <ele>250.721831</ele>
        <time>2020-10-05T22:25:37.330Z</time>
      </trkpt>
      <trkpt lat="50.242431" lon="4.841490">
        <ele>250.026572</ele>
        <time>2020-10-05T22:25:39.113Z</time>
      </trkpt>
      <trkpt lat="50.242278" lon="4.841638">
        <ele>249.055887</ele>
        <time>2020-10-05T22:25:41.564Z</time>
      </trkpt>
      <trkpt lat="50.242162" lon="4.841751">
        <ele>248.318502</ele>
        <time>2020-10-05T22:25:43.363Z</time>
      </trkpt>
      <trkpt lat="50.241895" lon="4.841742">
        <ele>246.877606</ele>
        <time>2020-10-05T22:25:46.907Z</time>
      </trkpt>
      <trkpt lat="50.241608" lon="4.841732">
        <ele>245.328753</ele>
        <time>2020-10-05T22:25:50.700Z</time>
      </trkpt>
      <trkpt lat="50.241553" lon="4.841730">
        <ele>245.031928</ele>
        <time>2020-10-05T22:25:51.361Z</time>
      </trkpt>
      <trkpt lat="50.241450" lon="4.841781">
        <ele>244.449007</ele>
        <time>2020-10-05T22:25:52.717Z</time>
      </trkpt>
      <trkpt lat="50.241223" lon="4.841893">
        <ele>243.164731</ele>
        <time>2020-10-05T22:25:55.769Z</time>
      </trkpt>
      <trkpt lat="50.240872" lon="4.842160">
        <ele>241.029319</ele>
        <time>2020-10-05T22:26:00.710Z</time>
      </trkpt>
      <trkpt lat="50.240303" lon="4.842400">
        <ele>237.791916</ele>
        <time>2020-10-05T22:26:08.389Z</time>
      </trkpt>
      <trkpt lat="50.240132" lon="4.842472">
        <ele>236.819104</ele>
        <time>2020-10-05T22:26:10.609Z</time>
      </trkpt>
      <trkpt lat="50.240030" lon="4.842647">
        <ele>235.987255</ele>
        <time>2020-10-05T22:26:12.776Z</time>
      </trkpt>
      <trkpt lat="50.240012" lon="4.842823">
        <ele>235.361051</ele>
        <time>2020-10-05T22:26:14.289Z</time>
      </trkpt>
      <trkpt lat="50.240024" lon="4.843124">
        <ele>234.301482</ele>
        <time>2020-10-05T22:26:16.982Z</time>
      </trkpt>
      <trkpt lat="50.239950" lon="4.843631">
        <ele>232.782968</ele>
        <time>2020-10-05T22:26:21.768Z</time>
      </trkpt>
      <trkpt lat="50.239862" lon="4.843956">
        <ele>232.719761</ele>
        <time>2020-10-05T22:26:25.276Z</time>
      </trkpt>
      <trkpt lat="50.239801" lon="4.844180">
        <ele>232.676158</ele>
        <time>2020-10-05T22:26:28.091Z</time>
      </trkpt>
      <trkpt lat="50.239344" lon="4.845297">
        <ele>232.438678</ele>
        <time>2020-10-05T22:26:46.067Z</time>
      </trkpt>
      <trkpt lat="50.238573" lon="4.846830">
        <ele>232.690215</ele>
        <time>2020-10-05T22:27:17.755Z</time>
      </trkpt>
      <trkpt lat="50.238442" lon="4.847276">
        <ele>232.858085</ele>
        <time>2020-10-05T22:27:25.395Z</time>
      </trkpt>
      <trkpt lat="50.238348" lon="4.848090">
        <ele>233.141014</ele>
        <time>2020-10-05T22:27:37.459Z</time>
      </trkpt>
      <trkpt lat="50.238073" lon="4.848737">
        <ele>232.759354</ele>
        <time>2020-10-05T22:27:45.866Z</time>
      </trkpt>
      <trkpt lat="50.237514" lon="4.849306">
        <ele>231.565733</ele>
        <time>2020-10-05T22:27:56.665Z</time>
      </trkpt>
      <trkpt lat="50.237227" lon="4.849449">
        <ele>231.026709</ele>
        <time>2020-10-05T22:28:01.680Z</time>
      </trkpt>
      <trkpt lat="50.237177" lon="4.849500">
        <ele>230.919879</ele>
        <time>2020-10-05T22:28:02.455Z</time>
      </trkpt>
      <trkpt lat="50.236700" lon="4.850070">
        <ele>229.759821</ele>
        <time>2020-10-05T22:28:11.755Z</time>
      </trkpt>
      <trkpt lat="50.236057" lon="4.851198">
        <ele>227.264904</ele>
        <time>2020-10-05T22:28:25.961Z</time>
      </trkpt>
      <trkpt lat="50.235286" lon="4.852908">
        <ele>224.147496</ele>
        <time>2020-10-05T22:28:46.890Z</time>
      </trkpt>
      <trkpt lat="50.234569" lon="4.855144">
        <ele>221.136263</ele>
        <time>2020-10-05T22:29:12.156Z</time>
      </trkpt>
      <trkpt lat="50.234201" lon="4.855868">
        <ele>220.276518</ele>
        <time>2020-10-05T22:29:21.651Z</time>
      </trkpt>
      <trkpt lat="50.232552" lon="4.858193">
        <ele>218.274126</ele>
        <time>2020-10-05T22:30:00.891Z</time>
      </trkpt>
      <trkpt lat="50.232167" lon="4.858692">
        <ele>218.048032</ele>
        <time>2020-10-05T22:30:11.261Z</time>
      </trkpt>
      <trkpt lat="50.231743" lon="4.858930">
        <ele>218.028296</ele>
        <time>2020-10-05T22:30:20.744Z</time>
      </trkpt>
      <trkpt lat="50.231520" lon="4.859106">
        <ele>218.017353</ele>
        <time>2020-10-05T22:30:25.945Z</time>
      </trkpt>
      <trkpt lat="50.230828" lon="4.859903">
        <ele>217.979698</ele>
        <time>2020-10-05T22:30:43.714Z</time>
      </trkpt>
      <trkpt lat="50.229290" lon="4.861340">
        <ele>216.895661</ele>
        <time>2020-10-05T22:31:16.022Z</time>
      </trkpt>
      <trkpt lat="50.228831" lon="4.862180">
        <ele>216.548478</ele>
        <time>2020-10-05T22:31:28.673Z</time>
      </trkpt>
      <trkpt lat="50.228614" lon="4.862759">
        <ele>216.350125</ele>
        <time>2020-10-05T22:31:36.605Z</time>
      </trkpt>
      <trkpt lat="50.228419" lon="4.863542">
        <ele>216.101761</ele>
        <time>2020-10-05T22:31:46.801Z</time>
      </trkpt>
      <trkpt lat="50.228309" lon="4.863774">
        <ele>216.016402</ele>
        <time>2020-10-05T22:31:50.357Z</time>
      </trkpt>
      <trkpt lat="50.226191" lon="4.865102">
        <ele>216.562277</ele>
        <time>2020-10-05T22:32:38.236Z</time>
      </trkpt>
      <trkpt lat="50.224097" lon="4.865944">
        <ele>218.160411</ele>
        <time>2020-10-05T22:33:29.327Z</time>
      </trkpt>
      <trkpt lat="50.223619" lon="4.866144">
        <ele>218.571035</ele>
        <time>2020-10-05T22:33:40.888Z</time>
      </trkpt>
      <trkpt lat="50.223447" lon="4.866216">
        <ele>218.718796</ele>
        <time>2020-10-05T22:33:45.262Z</time>
      </trkpt>
      <trkpt lat="50.223196" lon="4.866278">
        <ele>218.929668</ele>
        <time>2020-10-05T22:33:51.128Z</time>
      </trkpt>
      <trkpt lat="50.222969" lon="4.866248">
        <ele>219.169027</ele>
        <time>2020-10-05T22:33:56.532Z</time>
      </trkpt>
      <trkpt lat="50.222523" lon="4.866108">
        <ele>219.701753</ele>
        <time>2020-10-05T22:34:07.315Z</time>
      </trkpt>
      <trkpt lat="50.222532" lon="4.866248">
        <ele>219.807177</ele>
        <time>2020-10-05T22:34:09.902Z</time>
      </trkpt>
      <trkpt lat="50.222722" lon="4.867269">
        <ele>220.603870</ele>
        <time>2020-10-05T22:34:26.054Z</time>
      </trkpt>
      <trkpt lat="50.222760" lon="4.868146">
        <ele>221.430024</ele>
        <time>2020-10-05T22:34:40.790Z</time>
      </trkpt>
      <trkpt lat="50.222771" lon="4.868368">
        <ele>221.771800</ele>
        <time>2020-10-05T22:34:45.207Z</time>
      </trkpt>
      <trkpt lat="50.222627" lon="4.868569">
        <ele>222.234977</ele>
        <time>2020-10-05T22:34:50.698Z</time>
      </trkpt>
      <trkpt lat="50.222450" lon="4.868631">
        <ele>222.670145</ele>
        <time>2020-10-05T22:34:56.201Z</time>
      </trkpt>
      <trkpt lat="50.222379" lon="4.868696">
        <ele>222.867549</ele>
        <time>2020-10-05T22:34:58.332Z</time>
      </trkpt>
      <trkpt lat="50.222376" lon="4.869150">
        <ele>223.564452</ele>
        <time>2020-10-05T22:35:07.120Z</time>
      </trkpt>
      <trkpt lat="50.222356" lon="4.871603">
        <ele>227.449690</ele>
        <time>2020-10-05T22:35:57.060Z</time>
      </trkpt>
      <trkpt lat="50.222323" lon="4.871893">
        <ele>227.930114</ele>
        <time>2020-10-05T22:36:03.232Z</time>
      </trkpt>
      <trkpt lat="50.222040" lon="4.872313">
        <ele>228.924975</ele>
        <time>2020-10-05T22:36:15.628Z</time>
      </trkpt>
      <trkpt lat="50.222008" lon="4.872641">
        <ele>229.466142</ele>
        <time>2020-10-05T22:36:22.163Z</time>
      </trkpt>
      <trkpt lat="50.222131" lon="4.874122">
        <ele>229.228226</ele>
        <time>2020-10-05T22:36:45.867Z</time>
      </trkpt>
      <trkpt lat="50.222228" lon="4.875179">
        <ele>228.517706</ele>
        <time>2020-10-05T22:36:57.054Z</time>
      </trkpt>
      <trkpt lat="50.222319" lon="4.876189">
        <ele>226.400996</ele>
        <time>2020-10-05T22:37:06.374Z</time>
      </trkpt>
      <trkpt lat="50.222843" lon="4.881974">
        <ele>200.480750</ele>
        <time>2020-10-05T22:37:54.531Z</time>
      </trkpt>
      <trkpt lat="50.223080" lon="4.883044">
        <ele>193.713270</ele>
        <time>2020-10-05T22:38:03.399Z</time>
      </trkpt>
      <trkpt lat="50.223147" lon="4.883900">
        <ele>188.559067</ele>
        <time>2020-10-05T22:38:10.169Z</time>
      </trkpt>
      <trkpt lat="50.223013" lon="4.884506">
        <ele>184.068026</ele>
        <time>2020-10-05T22:38:15.156Z</time>
      </trkpt>
      <trkpt lat="50.222984" lon="4.884637">
        <ele>183.051480</ele>
        <time>2020-10-05T22:38:16.196Z</time>
      </trkpt>
      <trkpt lat="50.222113" lon="4.885476">
        <ele>171.324487</ele>
        <time>2020-10-05T22:38:28.517Z</time>
      </trkpt>
      <trkpt lat="50.221432" lon="4.885834">
        <ele>163.518802</ele>
        <time>2020-10-05T22:38:37.023Z</time>
      </trkpt>
      <trkpt lat="50.220529" lon="4.885670">
        <ele>154.239447</ele>
        <time>2020-10-05T22:38:48.153Z</time>
      </trkpt>
      <trkpt lat="50.220455" lon="4.885817">
        <ele>153.017854</ele>
        <time>2020-10-05T22:38:49.556Z</time>
      </trkpt>
      <trkpt lat="50.220430" lon="4.885865">
        <ele>152.613630</ele>
        <time>2020-10-05T22:38:50.035Z</time>
      </trkpt>
      <trkpt lat="50.220804" lon="4.886243">
        <ele>148.226051</ele>
        <time>2020-10-05T22:38:55.650Z</time>
      </trkpt>
      <trkpt lat="50.222453" lon="4.886970">
        <ele>135.463332</ele>
        <time>2020-10-05T22:39:17.537Z</time>
      </trkpt>
      <trkpt lat="50.222731" lon="4.887158">
        <ele>133.017066</ele>
        <time>2020-10-05T22:39:21.429Z</time>
      </trkpt>
      <trkpt lat="50.223150" lon="4.887541">
        <ele>129.066322</ele>
        <time>2020-10-05T22:39:27.569Z</time>
      </trkpt>
      <trkpt lat="50.223535" lon="4.887862">
        <ele>125.514739</ele>
        <time>2020-10-05T22:39:32.973Z</time>
      </trkpt>
      <trkpt lat="50.223993" lon="4.888039">
        <ele>121.674704</ele>
        <time>2020-10-05T22:39:38.786Z</time>
      </trkpt>
      <trkpt lat="50.224557" lon="4.887977">
        <ele>118.344116</ele>
        <time>2020-10-05T22:39:45.895Z</time>
      </trkpt>
      <trkpt lat="50.224995" lon="4.887923">
        <ele>116.050802</ele>
        <time>2020-10-05T22:39:51.727Z</time>
      </trkpt>
      <trkpt lat="50.225246" lon="4.887836">
        <ele>114.708840</ele>
        <time>2020-10-05T22:39:55.225Z</time>
      </trkpt>
      <trkpt lat="50.225286" lon="4.887822">
        <ele>114.494883</ele>
        <time>2020-10-05T22:39:55.813Z</time>
      </trkpt>
      <trkpt lat="50.226280" lon="4.887166">
        <ele>109.668229</ele>
        <time>2020-10-05T22:40:11.910Z</time>
      </trkpt>
      <trkpt lat="50.226762" lon="4.886830">
        <ele>107.851150</ele>
        <time>2020-10-05T22:40:20.045Z</time>
      </trkpt>
      <trkpt lat="50.226811" lon="4.886805">
        <ele>107.673684</ele>
        <time>2020-10-05T22:40:20.844Z</time>
      </trkpt>
      <trkpt lat="50.227337" lon="4.886425">
        <ele>105.678597</ele>
        <time>2020-10-05T22:40:28.816Z</time>
      </trkpt>
      <trkpt lat="50.227614" lon="4.886228">
        <ele>104.550632</ele>
        <time>2020-10-05T22:40:33.004Z</time>
      </trkpt>
      <trkpt lat="50.228004" lon="4.887594">
        <ele>100.603648</ele>
        <time>2020-10-05T22:40:46.000Z</time>
      </trkpt>
      <trkpt lat="50.228039" lon="4.887723">
        <ele>100.233923</ele>
        <time>2020-10-05T22:40:47.252Z</time>
      </trkpt>
      <trkpt lat="50.228068" lon="4.887831">
        <ele>99.924870</ele>
        <time>2020-10-05T22:40:48.248Z</time>
      </trkpt>
      <trkpt lat="50.228186" lon="4.888266">
        <ele>98.678163</ele>
        <time>2020-10-05T22:40:52.363Z</time>
      </trkpt>
      <trkpt lat="50.226189" lon="4.889562">
        <ele>97.617359</ele>
        <time>2020-10-05T22:41:17.319Z</time>
      </trkpt>
      <trkpt lat="50.226189" lon="4.889562">
        <ele>97.617359</ele>
        <time>2020-10-05T22:41:17.653Z</time>
      </trkpt>
      <trkpt lat="50.226183" lon="4.889533">
        <ele>94.808028</ele>
        <time>2020-10-05T08:10:55.538Z</time>
      </trkpt>
      <trkpt lat="50.226189" lon="4.889562">
        <ele>94.808028</ele>
        <time>2020-10-05T08:10:57.321Z</time>
      </trkpt>
      <trkpt lat="50.228186" lon="4.888266">
        <ele>95.584897</ele>
        <time>2020-10-05T08:11:33.297Z</time>
      </trkpt>
      <trkpt lat="50.228368" lon="4.888145">
        <ele>95.704704</ele>
        <time>2020-10-05T08:11:37.550Z</time>
      </trkpt>
      <trkpt lat="50.228962" lon="4.887798">
        <ele>95.952842</ele>
        <time>2020-10-05T08:11:49.025Z</time>
      </trkpt>
      <trkpt lat="50.229562" lon="4.887617">
        <ele>96.059786</ele>
        <time>2020-10-05T08:11:59.458Z</time>
      </trkpt>
      <trkpt lat="50.230888" lon="4.887369">
        <ele>95.923459</ele>
        <time>2020-10-05T08:12:17.697Z</time>
      </trkpt>
      <trkpt lat="50.232139" lon="4.887263">
        <ele>95.142692</ele>
        <time>2020-10-05T08:12:33.614Z</time>
      </trkpt>
      <trkpt lat="50.232990" lon="4.887370">
        <ele>94.651729</ele>
        <time>2020-10-05T08:12:44.614Z</time>
      </trkpt>
      <trkpt lat="50.234443" lon="4.887365">
        <ele>93.990478</ele>
        <time>2020-10-05T08:13:03.832Z</time>
      </trkpt>
      <trkpt lat="50.236943" lon="4.888067">
        <ele>94.410811</ele>
        <time>2020-10-05T08:13:40.906Z</time>
      </trkpt>
      <trkpt lat="50.237391" lon="4.888126">
        <ele>94.666891</ele>
        <time>2020-10-05T08:13:50.654Z</time>
      </trkpt>
      <trkpt lat="50.238191" lon="4.888108">
        <ele>95.502994</ele>
        <time>2020-10-05T08:14:08.003Z</time>
      </trkpt>
      <trkpt lat="50.238682" lon="4.888087">
        <ele>96.084956</ele>
        <time>2020-10-05T08:14:17.967Z</time>
      </trkpt>
      <trkpt lat="50.238860" lon="4.888130">
        <ele>96.298356</ele>
        <time>2020-10-05T08:14:21.754Z</time>
      </trkpt>
      <trkpt lat="50.239015" lon="4.888195">
        <ele>96.488493</ele>
        <time>2020-10-05T08:14:24.532Z</time>
      </trkpt>
      <trkpt lat="50.239553" lon="4.888803">
        <ele>96.673445</ele>
        <time>2020-10-05T08:14:35.976Z</time>
      </trkpt>
      <trkpt lat="50.240384" lon="4.890208">
        <ele>95.787980</ele>
        <time>2020-10-05T08:14:50.678Z</time>
      </trkpt>
      <trkpt lat="50.241101" lon="4.891908">
        <ele>95.298536</ele>
        <time>2020-10-05T08:15:06.366Z</time>
      </trkpt>
      <trkpt lat="50.241406" lon="4.892860">
        <ele>95.101517</ele>
        <time>2020-10-05T08:15:18.093Z</time>
      </trkpt>
      <trkpt lat="50.241438" lon="4.892946">
        <ele>95.083107</ele>
        <time>2020-10-05T08:15:19.051Z</time>
      </trkpt>
      <trkpt lat="50.241483" lon="4.893061">
        <ele>95.240575</ele>
        <time>2020-10-05T08:15:20.868Z</time>
      </trkpt>
      <trkpt lat="50.241520" lon="4.893156">
        <ele>95.392733</ele>
        <time>2020-10-05T08:15:22.436Z</time>
      </trkpt>
      <trkpt lat="50.241738" lon="4.893747">
        <ele>96.326031</ele>
        <time>2020-10-05T08:15:31.869Z</time>
      </trkpt>
      <trkpt lat="50.241854" lon="4.894051">
        <ele>96.810285</ele>
        <time>2020-10-05T08:15:36.865Z</time>
      </trkpt>
      <trkpt lat="50.242135" lon="4.894801">
        <ele>97.999343</ele>
        <time>2020-10-05T08:15:50.780Z</time>
      </trkpt>
      <trkpt lat="50.242247" lon="4.895096">
        <ele>98.468639</ele>
        <time>2020-10-05T08:15:56.538Z</time>
      </trkpt>
      <trkpt lat="50.242425" lon="4.896377">
        <ele>100.720352</ele>
        <time>2020-10-05T08:16:19.471Z</time>
      </trkpt>
      <trkpt lat="50.242457" lon="4.897213">
        <ele>102.259528</ele>
        <time>2020-10-05T08:16:34.022Z</time>
      </trkpt>
      <trkpt lat="50.242333" lon="4.898733">
        <ele>104.346961</ele>
        <time>2020-10-05T08:16:59.037Z</time>
      </trkpt>
      <trkpt lat="50.242132" lon="4.899647">
        <ele>104.802264</ele>
        <time>2020-10-05T08:17:12.338Z</time>
      </trkpt>
      <trkpt lat="50.241693" lon="4.900424">
        <ele>105.290663</ele>
        <time>2020-10-05T08:17:22.734Z</time>
      </trkpt>
      <trkpt lat="50.240637" lon="4.904045">
        <ele>99.513756</ele>
        <time>2020-10-05T08:17:49.614Z</time>
      </trkpt>
      <trkpt lat="50.240254" lon="4.905701">
        <ele>96.261313</ele>
        <time>2020-10-05T08:18:01.053Z</time>
      </trkpt>
      <trkpt lat="50.240172" lon="4.906270">
        <ele>95.526498</ele>
        <time>2020-10-05T08:18:04.957Z</time>
      </trkpt>
      <trkpt lat="50.240117" lon="4.907174">
        <ele>94.583836</ele>
        <time>2020-10-05T08:18:11.215Z</time>
      </trkpt>
      <trkpt lat="50.240126" lon="4.908001">
        <ele>93.725219</ele>
        <time>2020-10-05T08:18:17.298Z</time>
      </trkpt>
      <trkpt lat="50.240133" lon="4.908366">
        <ele>93.346149</ele>
        <time>2020-10-05T08:18:20.451Z</time>
      </trkpt>
      <trkpt lat="50.240197" lon="4.909154">
        <ele>93.482629</ele>
        <time>2020-10-05T08:18:27.994Z</time>
      </trkpt>
      <trkpt lat="50.240098" lon="4.909126">
        <ele>93.618222</ele>
        <time>2020-10-05T08:18:31.689Z</time>
      </trkpt>
      <trkpt lat="50.240039" lon="4.909105">
        <ele>93.699774</ele>
        <time>2020-10-05T08:18:34.060Z</time>
      </trkpt>
      <trkpt lat="50.239977" lon="4.909151">
        <ele>93.792265</ele>
        <time>2020-10-05T08:18:36.878Z</time>
      </trkpt>
      <trkpt lat="50.239844" lon="4.909211">
        <ele>93.978828</ele>
        <time>2020-10-05T08:18:42.274Z</time>
      </trkpt>
      <trkpt lat="50.239824" lon="4.909216">
        <ele>94.006126</ele>
        <time>2020-10-05T08:18:43.043Z</time>
      </trkpt>
      <trkpt lat="50.239767" lon="4.909223">
        <ele>94.083184</ele>
        <time>2020-10-05T08:18:45.258Z</time>
      </trkpt>
      <trkpt lat="50.239309" lon="4.909304">
        <ele>94.704392</ele>
        <time>2020-10-05T08:19:04.357Z</time>
      </trkpt>
      <trkpt lat="50.239239" lon="4.909316">
        <ele>94.799300</ele>
        <time>2020-10-05T08:19:07.496Z</time>
      </trkpt>
      <trkpt lat="50.239220" lon="4.909320">
        <ele>94.825138</ele>
        <time>2020-10-05T08:19:08.347Z</time>
      </trkpt>
      <trkpt lat="50.239096" lon="4.908802">
        <ele>95.301906</ele>
        <time>2020-10-05T08:19:24.008Z</time>
      </trkpt>
      <trkpt lat="50.239116" lon="4.908272">
        <ele>96.656636</ele>
        <time>2020-10-05T08:19:41.379Z</time>
      </trkpt>
      <trkpt lat="50.239061" lon="4.908212">
        <ele>97.027784</ele>
        <time>2020-10-05T08:19:44.928Z</time>
      </trkpt>
      <trkpt lat="50.238983" lon="4.908179">
        <ele>97.474975</ele>
        <time>2020-10-05T08:19:49.763Z</time>
      </trkpt>
      <trkpt lat="50.238550" lon="4.907921">
        <ele>100.039391</ele>
        <time>2020-10-05T08:20:21.626Z</time>
      </trkpt>
      <trkpt lat="50.238344" lon="4.907833">
        <ele>101.221221</ele>
        <time>2020-10-05T08:20:34.092Z</time>
      </trkpt>
      <trkpt lat="50.238279" lon="4.908407">
        <ele>103.284573</ele>
        <time>2020-10-05T08:20:48.796Z</time>
      </trkpt>
      <trkpt lat="50.238265" lon="4.908518">
        <ele>103.685040</ele>
        <time>2020-10-05T08:20:52.732Z</time>
      </trkpt>
      <trkpt lat="50.238256" lon="4.908588">
        <ele>103.937772</ele>
        <time>2020-10-05T08:20:54.696Z</time>
      </trkpt>
      <trkpt lat="50.238216" lon="4.908941">
        <ele>105.206725</ele>
        <time>2020-10-05T08:21:01.848Z</time>
      </trkpt>
      <trkpt lat="50.238199" lon="4.909182">
        <ele>105.759914</ele>
        <time>2020-10-05T08:21:08.899Z</time>
      </trkpt>
      <trkpt lat="50.238172" lon="4.909291">
        <ele>105.976511</ele>
        <time>2020-10-05T08:21:10.324Z</time>
      </trkpt>
      <trkpt lat="50.238059" lon="4.909598">
        <ele>106.632861</ele>
        <time>2020-10-05T08:21:19.033Z</time>
      </trkpt>
      <trkpt lat="50.238045" lon="4.909686">
        <ele>106.800895</ele>
        <time>2020-10-05T08:21:21.219Z</time>
      </trkpt>
      <trkpt lat="50.238071" lon="4.909802">
        <ele>107.028661</ele>
        <time>2020-10-05T08:21:22.556Z</time>
      </trkpt>
      <trkpt lat="50.238111" lon="4.909908">
        <ele>107.256718</ele>
        <time>2020-10-05T08:21:25.102Z</time>
      </trkpt>
      <trkpt lat="50.238165" lon="4.910057">
        <ele>107.574060</ele>
        <time>2020-10-05T08:21:29.064Z</time>
      </trkpt>
      <trkpt lat="50.238227" lon="4.910238">
        <ele>107.954526</ele>
        <time>2020-10-05T08:21:33.129Z</time>
      </trkpt>
      <trkpt lat="50.238337" lon="4.910986">
        <ele>109.376739</ele>
        <time>2020-10-05T08:21:45.910Z</time>
      </trkpt>
      <trkpt lat="50.238355" lon="4.911121">
        <ele>109.632273</ele>
        <time>2020-10-05T08:21:48.091Z</time>
      </trkpt>
      <trkpt lat="50.238364" lon="4.911192">
        <ele>109.766395</ele>
        <time>2020-10-05T08:21:49.518Z</time>
      </trkpt>
      <trkpt lat="50.238631" lon="4.913225">
        <ele>110.933850</ele>
        <time>2020-10-05T08:22:04.953Z</time>
      </trkpt>
      <trkpt lat="50.238661" lon="4.913454">
        <ele>110.977235</ele>
        <time>2020-10-05T08:22:07.186Z</time>
      </trkpt>
      <trkpt lat="50.238779" lon="4.914343">
        <ele>111.145749</ele>
        <time>2020-10-05T08:22:18.378Z</time>
      </trkpt>
      <trkpt lat="50.238820" lon="4.914651">
        <ele>112.041536</ele>
        <time>2020-10-05T08:22:24.261Z</time>
      </trkpt>
      <trkpt lat="50.238958" lon="4.915710">
        <ele>115.856531</ele>
        <time>2020-10-05T08:22:49.205Z</time>
      </trkpt>
      <trkpt lat="50.239093" lon="4.916716">
        <ele>119.484952</ele>
        <time>2020-10-05T08:23:16.091Z</time>
      </trkpt>
      <trkpt lat="50.239124" lon="4.916960">
        <ele>120.363079</ele>
        <time>2020-10-05T08:23:23.715Z</time>
      </trkpt>
      <trkpt lat="50.239094" lon="4.916968">
        <ele>120.531042</ele>
        <time>2020-10-05T08:23:25.956Z</time>
      </trkpt>
      <trkpt lat="50.238684" lon="4.916306">
        <ele>124.100005</ele>
        <time>2020-10-05T08:23:50.191Z</time>
      </trkpt>
      <trkpt lat="50.238520" lon="4.915934">
        <ele>125.881636</ele>
        <time>2020-10-05T08:24:01.946Z</time>
      </trkpt>
      <trkpt lat="50.237465" lon="4.913153">
        <ele>137.929938</ele>
        <time>2020-10-05T08:25:19.514Z</time>
      </trkpt>
      <trkpt lat="50.237354" lon="4.912978">
        <ele>138.796174</ele>
        <time>2020-10-05T08:25:25.001Z</time>
      </trkpt>
      <trkpt lat="50.236475" lon="4.912078">
        <ele>144.710738</ele>
        <time>2020-10-05T08:26:02.814Z</time>
      </trkpt>
      <trkpt lat="50.236258" lon="4.911864">
        <ele>146.199551</ele>
        <time>2020-10-05T08:26:12.996Z</time>
      </trkpt>
      <trkpt lat="50.236082" lon="4.911694">
        <ele>147.400059</ele>
        <time>2020-10-05T08:26:20.677Z</time>
      </trkpt>
      <trkpt lat="50.236020" lon="4.911619">
        <ele>147.854960</ele>
        <time>2020-10-05T08:26:24.353Z</time>
      </trkpt>
      <trkpt lat="50.235767" lon="4.911361">
        <ele>149.607801</ele>
        <time>2020-10-05T08:26:35.930Z</time>
      </trkpt>
      <trkpt lat="50.235616" lon="4.911223">
        <ele>150.622769</ele>
        <time>2020-10-05T08:26:43.246Z</time>
      </trkpt>
      <trkpt lat="50.235166" lon="4.910977">
        <ele>153.625395</ele>
        <time>2020-10-05T08:27:00.819Z</time>
      </trkpt>
      <trkpt lat="50.234903" lon="4.910903">
        <ele>155.585828</ele>
        <time>2020-10-05T08:27:11.352Z</time>
      </trkpt>
      <trkpt lat="50.234686" lon="4.910887">
        <ele>157.179563</ele>
        <time>2020-10-05T08:27:18.698Z</time>
      </trkpt>
      <trkpt lat="50.234036" lon="4.910784">
        <ele>161.972558</ele>
        <time>2020-10-05T08:27:49.548Z</time>
      </trkpt>
      <trkpt lat="50.233633" lon="4.910231">
        <ele>165.955373</ele>
        <time>2020-10-05T08:28:14.346Z</time>
      </trkpt>
      <trkpt lat="50.233551" lon="4.910133">
        <ele>166.884052</ele>
        <time>2020-10-05T08:28:19.841Z</time>
      </trkpt>
      <trkpt lat="50.233467" lon="4.910042">
        <ele>167.803562</ele>
        <time>2020-10-05T08:28:26.987Z</time>
      </trkpt>
      <trkpt lat="50.233401" lon="4.909999">
        <ele>168.446896</ele>
        <time>2020-10-05T08:28:29.897Z</time>
      </trkpt>
      <trkpt lat="50.233330" lon="4.909969">
        <ele>169.108633</ele>
        <time>2020-10-05T08:28:32.681Z</time>
      </trkpt>
      <trkpt lat="50.233278" lon="4.909993">
        <ele>169.596462</ele>
        <time>2020-10-05T08:28:35.322Z</time>
      </trkpt>
      <trkpt lat="50.233232" lon="4.910042">
        <ele>170.097288</ele>
        <time>2020-10-05T08:28:38.118Z</time>
      </trkpt>
      <trkpt lat="50.233179" lon="4.910124">
        <ele>170.768199</ele>
        <time>2020-10-05T08:28:43.774Z</time>
      </trkpt>
      <trkpt lat="50.233064" lon="4.911892">
        <ele>180.996093</ele>
        <time>2020-10-05T08:29:43.176Z</time>
      </trkpt>
      <trkpt lat="50.233110" lon="4.912222">
        <ele>182.744269</ele>
        <time>2020-10-05T08:29:53.416Z</time>
      </trkpt>
      <trkpt lat="50.234770" lon="4.915085">
        <ele>199.640131</ele>
        <time>2020-10-05T08:31:40.003Z</time>
      </trkpt>
      <trkpt lat="50.234891" lon="4.915573">
        <ele>201.565307</ele>
        <time>2020-10-05T08:31:51.352Z</time>
      </trkpt>
      <trkpt lat="50.235229" lon="4.918170">
        <ele>210.267475</ele>
        <time>2020-10-05T08:32:48.230Z</time>
      </trkpt>
      <trkpt lat="50.235347" lon="4.919096">
        <ele>213.122856</ele>
        <time>2020-10-05T08:33:09.020Z</time>
      </trkpt>
      <trkpt lat="50.235366" lon="4.919251">
        <ele>213.600126</ele>
        <time>2020-10-05T08:33:12.417Z</time>
      </trkpt>
      <trkpt lat="50.235462" lon="4.920042">
        <ele>215.601913</ele>
        <time>2020-10-05T08:33:29.963Z</time>
      </trkpt>
      <trkpt lat="50.235537" lon="4.920912">
        <ele>217.709311</ele>
        <time>2020-10-05T08:33:48.682Z</time>
      </trkpt>
      <trkpt lat="50.234661" lon="4.925957">
        <ele>226.685415</ele>
        <time>2020-10-05T08:35:11.960Z</time>
      </trkpt>
      <trkpt lat="50.234654" lon="4.926084">
        <ele>226.846099</ele>
        <time>2020-10-05T08:35:13.645Z</time>
      </trkpt>
      <trkpt lat="50.234642" lon="4.926285">
        <ele>227.100573</ele>
        <time>2020-10-05T08:35:16.249Z</time>
      </trkpt>
      <trkpt lat="50.234689" lon="4.926691">
        <ele>227.620675</ele>
        <time>2020-10-05T08:35:21.890Z</time>
      </trkpt>
      <trkpt lat="50.235258" lon="4.930472">
        <ele>232.328784</ele>
        <time>2020-10-05T08:36:15.243Z</time>
      </trkpt>
      <trkpt lat="50.235632" lon="4.932397">
        <ele>236.471062</ele>
        <time>2020-10-05T08:36:50.564Z</time>
      </trkpt>
      <trkpt lat="50.235635" lon="4.932416">
        <ele>236.511356</ele>
        <time>2020-10-05T08:36:50.964Z</time>
      </trkpt>
      <trkpt lat="50.235934" lon="4.934077">
        <ele>240.844640</ele>
        <time>2020-10-05T08:37:26.814Z</time>
      </trkpt>
      <trkpt lat="50.235992" lon="4.934371">
        <ele>241.691925</ele>
        <time>2020-10-05T08:37:33.092Z</time>
      </trkpt>
      <trkpt lat="50.236043" lon="4.934715">
        <ele>242.664383</ele>
        <time>2020-10-05T08:37:40.665Z</time>
      </trkpt>
      <trkpt lat="50.236093" lon="4.935069">
        <ele>243.662750</ele>
        <time>2020-10-05T08:37:48.124Z</time>
      </trkpt>
      <trkpt lat="50.236129" lon="4.935484">
        <ele>244.816081</ele>
        <time>2020-10-05T08:37:56.525Z</time>
      </trkpt>
      <trkpt lat="50.236149" lon="4.935760">
        <ele>245.579026</ele>
        <time>2020-10-05T08:38:02.338Z</time>
      </trkpt>
      <trkpt lat="50.236284" lon="4.937077">
        <ele>249.166326</ele>
        <time>2020-10-05T08:38:29.480Z</time>
      </trkpt>
      <trkpt lat="50.236557" lon="4.938354">
        <ele>252.787593</ele>
        <time>2020-10-05T08:38:55.782Z</time>
      </trkpt>
      <trkpt lat="50.236570" lon="4.938680">
        <ele>253.805177</ele>
        <time>2020-10-05T08:39:02.898Z</time>
      </trkpt>
      <trkpt lat="50.236579" lon="4.938908">
        <ele>254.560273</ele>
        <time>2020-10-05T08:39:07.713Z</time>
      </trkpt>
      <trkpt lat="50.236494" lon="4.939871">
        <ele>257.773670</ele>
        <time>2020-10-05T08:39:28.628Z</time>
      </trkpt>
      <trkpt lat="50.236520" lon="4.940142">
        <ele>258.679493</ele>
        <time>2020-10-05T08:39:36.219Z</time>
      </trkpt>
      <trkpt lat="50.236542" lon="4.940359">
        <ele>259.405749</ele>
        <time>2020-10-05T08:39:40.959Z</time>
      </trkpt>
      <trkpt lat="50.236573" lon="4.940625">
        <ele>260.299497</ele>
        <time>2020-10-05T08:39:48.377Z</time>
      </trkpt>
      <trkpt lat="50.236629" lon="4.941042">
        <ele>261.707957</ele>
        <time>2020-10-05T08:39:58.558Z</time>
      </trkpt>
      <trkpt lat="50.236826" lon="4.942041">
        <ele>264.736246</ele>
        <time>2020-10-05T08:40:22.099Z</time>
      </trkpt>
      <trkpt lat="50.236851" lon="4.942157">
        <ele>265.079326</ele>
        <time>2020-10-05T08:40:25.643Z</time>
      </trkpt>
      <trkpt lat="50.236858" lon="4.942189">
        <ele>265.174115</ele>
        <time>2020-10-05T08:40:26.941Z</time>
      </trkpt>
      <trkpt lat="50.236986" lon="4.942863">
        <ele>267.144680</ele>
        <time>2020-10-05T08:40:41.351Z</time>
      </trkpt>
      <trkpt lat="50.237031" lon="4.943393">
        <ele>268.643167</ele>
        <time>2020-10-05T08:40:51.585Z</time>
      </trkpt>
      <trkpt lat="50.237030" lon="4.943655">
        <ele>269.377500</ele>
        <time>2020-10-05T08:40:55.146Z</time>
      </trkpt>
      <trkpt lat="50.237000" lon="4.943951">
        <ele>270.217464</ele>
        <time>2020-10-05T08:41:00.946Z</time>
      </trkpt>
      <trkpt lat="50.236985" lon="4.944122">
        <ele>270.590014</ele>
        <time>2020-10-05T08:41:03.687Z</time>
      </trkpt>
      <trkpt lat="50.236936" lon="4.944477">
        <ele>271.364764</ele>
        <time>2020-10-05T08:41:10.670Z</time>
      </trkpt>
      <trkpt lat="50.236901" lon="4.945005">
        <ele>272.497172</ele>
        <time>2020-10-05T08:41:18.577Z</time>
      </trkpt>
      <trkpt lat="50.236969" lon="4.945921">
        <ele>274.464378</ele>
        <time>2020-10-05T08:41:34.725Z</time>
      </trkpt>
      <trkpt lat="50.236977" lon="4.945981">
        <ele>274.595127</ele>
        <time>2020-10-05T08:41:35.603Z</time>
      </trkpt>
      <trkpt lat="50.237000" lon="4.946222">
        <ele>275.114940</ele>
        <time>2020-10-05T08:41:38.880Z</time>
      </trkpt>
      <trkpt lat="50.237044" lon="4.946435">
        <ele>275.592439</ele>
        <time>2020-10-05T08:41:44.333Z</time>
      </trkpt>
      <trkpt lat="50.237126" lon="4.946900">
        <ele>276.661195</ele>
        <time>2020-10-05T08:41:54.235Z</time>
      </trkpt>
      <trkpt lat="50.237305" lon="4.947940">
        <ele>279.194945</ele>
        <time>2020-10-05T08:42:18.679Z</time>
      </trkpt>
      <trkpt lat="50.237328" lon="4.948040">
        <ele>279.444953</ele>
        <time>2020-10-05T08:42:22.292Z</time>
      </trkpt>
      <trkpt lat="50.237446" lon="4.948402">
        <ele>280.400815</ele>
        <time>2020-10-05T08:42:29.216Z</time>
      </trkpt>
      <trkpt lat="50.237657" lon="4.948816">
        <ele>281.646187</ele>
        <time>2020-10-05T08:42:39.639Z</time>
      </trkpt>
      <trkpt lat="50.237692" lon="4.948880">
        <ele>281.844285</ele>
        <time>2020-10-05T08:42:42.251Z</time>
      </trkpt>
      <trkpt lat="50.237828" lon="4.949250">
        <ele>282.848240</ele>
        <time>2020-10-05T08:42:49.200Z</time>
      </trkpt>
      <trkpt lat="50.238845" lon="4.955587">
        <ele>279.306143</ele>
        <time>2020-10-05T08:43:37.918Z</time>
      </trkpt>
      <trkpt lat="50.239141" lon="4.962402">
        <ele>282.691618</ele>
        <time>2020-10-05T08:45:02.222Z</time>
      </trkpt>
      <trkpt lat="50.239198" lon="4.964591">
        <ele>283.473002</ele>
        <time>2020-10-05T08:45:26.246Z</time>
      </trkpt>
      <trkpt lat="50.239070" lon="4.966441">
        <ele>283.941911</ele>
        <time>2020-10-05T08:45:44.283Z</time>
      </trkpt>
      <trkpt lat="50.238979" lon="4.967864">
        <ele>284.364299</ele>
        <time>2020-10-05T08:45:58.953Z</time>
      </trkpt>
      <trkpt lat="50.238986" lon="4.968166">
        <ele>284.453555</ele>
        <time>2020-10-05T08:46:02.420Z</time>
      </trkpt>
      <trkpt lat="50.239068" lon="4.968360">
        <ele>284.522236</ele>
        <time>2020-10-05T08:46:05.403Z</time>
      </trkpt>
      <trkpt lat="50.239218" lon="4.968472">
        <ele>284.598999</ele>
        <time>2020-10-05T08:46:08.477Z</time>
      </trkpt>
      <trkpt lat="50.239270" lon="4.968494">
        <ele>284.628948</ele>
        <time>2020-10-05T08:46:09.535Z</time>
      </trkpt>
      <trkpt lat="50.239232" lon="4.970049">
        <ele>285.293572</ele>
        <time>2020-10-05T08:46:28.707Z</time>
      </trkpt>
      <trkpt lat="50.239293" lon="4.970324">
        <ele>285.417887</ele>
        <time>2020-10-05T08:46:32.217Z</time>
      </trkpt>
      <trkpt lat="50.239228" lon="4.971294">
        <ele>285.765116</ele>
        <time>2020-10-05T08:46:42.552Z</time>
      </trkpt>
      <trkpt lat="50.239125" lon="4.973016">
        <ele>284.047073</ele>
        <time>2020-10-05T08:46:56.233Z</time>
      </trkpt>
      <trkpt lat="50.238296" lon="4.985179">
        <ele>261.642584</ele>
        <time>2020-10-05T08:48:16.288Z</time>
      </trkpt>
      <trkpt lat="50.238225" lon="4.986335">
        <ele>261.679428</ele>
        <time>2020-10-05T08:48:27.453Z</time>
      </trkpt>
      <trkpt lat="50.238106" lon="4.988413">
        <ele>261.840355</ele>
        <time>2020-10-05T08:48:52.268Z</time>
      </trkpt>
      <trkpt lat="50.238086" lon="4.988670">
        <ele>261.821246</ele>
        <time>2020-10-05T08:48:54.875Z</time>
      </trkpt>
      <trkpt lat="50.238076" lon="4.988841">
        <ele>261.808573</ele>
        <time>2020-10-05T08:48:56.916Z</time>
      </trkpt>
      <trkpt lat="50.238028" lon="4.989895">
        <ele>261.730584</ele>
        <time>2020-10-05T08:49:06.828Z</time>
      </trkpt>
      <trkpt lat="50.238015" lon="4.990376">
        <ele>261.695051</ele>
        <time>2020-10-05T08:49:10.731Z</time>
      </trkpt>
      <trkpt lat="50.237989" lon="4.992764">
        <ele>260.313002</ele>
        <time>2020-10-05T08:49:29.360Z</time>
      </trkpt>
      <trkpt lat="50.237983" lon="4.993077">
        <ele>260.094221</ele>
        <time>2020-10-05T08:49:32.210Z</time>
      </trkpt>
      <trkpt lat="50.237968" lon="4.994253">
        <ele>258.368953</ele>
        <time>2020-10-05T08:49:41.000Z</time>
      </trkpt>
      <trkpt lat="50.237967" lon="4.994904">
        <ele>256.944995</ele>
        <time>2020-10-05T08:49:45.369Z</time>
      </trkpt>
      <trkpt lat="50.237964" lon="4.995470">
        <ele>255.706921</ele>
        <time>2020-10-05T08:49:48.995Z</time>
      </trkpt>
      <trkpt lat="50.237959" lon="4.997902">
        <ele>248.819846</ele>
        <time>2020-10-05T08:50:03.556Z</time>
      </trkpt>
      <trkpt lat="50.237933" lon="4.998422">
        <ele>247.112703</ele>
        <time>2020-10-05T08:50:06.652Z</time>
      </trkpt>
      <trkpt lat="50.237873" lon="4.998689">
        <ele>246.186449</ele>
        <time>2020-10-05T08:50:08.344Z</time>
      </trkpt>
      <trkpt lat="50.237762" lon="4.998865">
        <ele>245.377458</ele>
        <time>2020-10-05T08:50:09.836Z</time>
      </trkpt>
      <trkpt lat="50.237584" lon="4.998985">
        <ele>244.385522</ele>
        <time>2020-10-05T08:50:11.672Z</time>
      </trkpt>
      <trkpt lat="50.235153" lon="4.999004">
        <ele>235.711573</ele>
        <time>2020-10-05T08:50:36.082Z</time>
      </trkpt>
      <trkpt lat="50.234917" lon="4.999082">
        <ele>234.884994</ele>
        <time>2020-10-05T08:50:38.574Z</time>
      </trkpt>
      <trkpt lat="50.234692" lon="4.999299">
        <ele>233.979075</ele>
        <time>2020-10-05T08:50:41.310Z</time>
      </trkpt>
      <trkpt lat="50.234443" lon="4.999619">
        <ele>232.874535</ele>
        <time>2020-10-05T08:50:44.629Z</time>
      </trkpt>
      <trkpt lat="50.233413" lon="5.000923">
        <ele>227.123114</ele>
        <time>2020-10-05T08:50:57.365Z</time>
      </trkpt>
      <trkpt lat="50.233296" lon="5.001090">
        <ele>226.384331</ele>
        <time>2020-10-05T08:50:58.862Z</time>
      </trkpt>
      <trkpt lat="50.233231" lon="5.001216">
        <ele>225.901501</ele>
        <time>2020-10-05T08:50:59.837Z</time>
      </trkpt>
      <trkpt lat="50.233184" lon="5.001324">
        <ele>225.511870</ele>
        <time>2020-10-05T08:51:00.649Z</time>
      </trkpt>
      <trkpt lat="50.233138" lon="5.001463">
        <ele>225.045053</ele>
        <time>2020-10-05T08:51:01.569Z</time>
      </trkpt>
      <trkpt lat="50.233110" lon="5.001645">
        <ele>224.486695</ele>
        <time>2020-10-05T08:51:02.728Z</time>
      </trkpt>
      <trkpt lat="50.233091" lon="5.001854">
        <ele>223.857016</ele>
        <time>2020-10-05T08:51:04.022Z</time>
      </trkpt>
      <trkpt lat="50.233097" lon="5.001995">
        <ele>223.435505</ele>
        <time>2020-10-05T08:51:04.847Z</time>
      </trkpt>
      <trkpt lat="50.233286" lon="5.003557">
        <ele>218.516952</ele>
        <time>2020-10-05T08:51:14.479Z</time>
      </trkpt>
      <trkpt lat="50.233277" lon="5.003898">
        <ele>217.459866</ele>
        <time>2020-10-05T08:51:16.546Z</time>
      </trkpt>
      <trkpt lat="50.233191" lon="5.004200">
        <ele>216.435968</ele>
        <time>2020-10-05T08:51:18.538Z</time>
      </trkpt>
      <trkpt lat="50.232990" lon="5.004471">
        <ele>215.150744</ele>
        <time>2020-10-05T08:51:21.136Z</time>
      </trkpt>
      <trkpt lat="50.232805" lon="5.004558">
        <ele>214.203351</ele>
        <time>2020-10-05T08:51:22.983Z</time>
      </trkpt>
      <trkpt lat="50.232499" lon="5.004462">
        <ele>212.643797</ele>
        <time>2020-10-05T08:51:25.982Z</time>
      </trkpt>
      <trkpt lat="50.232298" lon="5.004204">
        <ele>211.344225</ele>
        <time>2020-10-05T08:51:28.485Z</time>
      </trkpt>
      <trkpt lat="50.232171" lon="5.004023">
        <ele>210.485470</ele>
        <time>2020-10-05T08:51:30.116Z</time>
      </trkpt>
      <trkpt lat="50.232014" lon="5.003840">
        <ele>209.506879</ele>
        <time>2020-10-05T08:51:31.979Z</time>
      </trkpt>
      <trkpt lat="50.231921" lon="5.003779">
        <ele>209.002915</ele>
        <time>2020-10-05T08:51:32.918Z</time>
      </trkpt>
      <trkpt lat="50.231780" lon="5.003788">
        <ele>208.297757</ele>
        <time>2020-10-05T08:51:34.282Z</time>
      </trkpt>
      <trkpt lat="50.231622" lon="5.003855">
        <ele>207.479708</ele>
        <time>2020-10-05T08:51:35.795Z</time>
      </trkpt>
      <trkpt lat="50.231363" lon="5.004118">
        <ele>205.936426</ele>
        <time>2020-10-05T08:51:38.712Z</time>
      </trkpt>
      <trkpt lat="50.231010" lon="5.004720">
        <ele>203.415566</ele>
        <time>2020-10-05T08:51:43.467Z</time>
      </trkpt>
      <trkpt lat="50.230466" lon="5.005310">
        <ele>200.237305</ele>
        <time>2020-10-05T08:51:49.527Z</time>
      </trkpt>
      <trkpt lat="50.230270" lon="5.005748">
        <ele>198.595918</ele>
        <time>2020-10-05T08:51:52.748Z</time>
      </trkpt>
      <trkpt lat="50.230103" lon="5.006368">
        <ele>197.236453</ele>
        <time>2020-10-05T08:51:57.037Z</time>
      </trkpt>
      <trkpt lat="50.229704" lon="5.007889">
        <ele>200.343937</ele>
        <time>2020-10-05T08:52:20.292Z</time>
      </trkpt>
      <trkpt lat="50.229675" lon="5.007997">
        <ele>200.565345</ele>
        <time>2020-10-05T08:52:22.537Z</time>
      </trkpt>
      <trkpt lat="50.229491" lon="5.008693">
        <ele>201.988916</ele>
        <time>2020-10-05T08:52:42.880Z</time>
      </trkpt>
      <trkpt lat="50.229405" lon="5.009029">
        <ele>203.460082</ele>
        <time>2020-10-05T08:52:53.623Z</time>
      </trkpt>
      <trkpt lat="50.229099" lon="5.010195">
        <ele>210.640367</ele>
        <time>2020-10-05T08:53:35.270Z</time>
      </trkpt>
      <trkpt lat="50.228889" lon="5.011002">
        <ele>215.603921</ele>
        <time>2020-10-05T08:54:06.425Z</time>
      </trkpt>
      <trkpt lat="50.228582" lon="5.012130">
        <ele>221.957644</ele>
        <time>2020-10-05T08:54:45.180Z</time>
      </trkpt>
      <trkpt lat="50.228377" lon="5.012486">
        <ele>224.285373</ele>
        <time>2020-10-05T08:54:58.484Z</time>
      </trkpt>
      <trkpt lat="50.228229" lon="5.012587">
        <ele>225.512140</ele>
        <time>2020-10-05T08:55:05.503Z</time>
      </trkpt>
      <trkpt lat="50.228105" lon="5.012623">
        <ele>226.470225</ele>
        <time>2020-10-05T08:55:10.785Z</time>
      </trkpt>
      <trkpt lat="50.227970" lon="5.012626">
        <ele>227.495868</ele>
        <time>2020-10-05T08:55:15.784Z</time>
      </trkpt>
      <trkpt lat="50.227623" lon="5.012621">
        <ele>230.131994</ele>
        <time>2020-10-05T08:55:30.971Z</time>
      </trkpt>
      <trkpt lat="50.227292" lon="5.012622">
        <ele>232.544771</ele>
        <time>2020-10-05T08:55:45.698Z</time>
      </trkpt>
      <trkpt lat="50.226703" lon="5.012618">
        <ele>236.352142</ele>
        <time>2020-10-05T08:56:11.747Z</time>
      </trkpt>
      <trkpt lat="50.226364" lon="5.012698">
        <ele>238.568294</ele>
        <time>2020-10-05T08:56:25.181Z</time>
      </trkpt>
      <trkpt lat="50.226251" lon="5.012760">
        <ele>239.342426</ele>
        <time>2020-10-05T08:56:30.731Z</time>
      </trkpt>
      <trkpt lat="50.226124" lon="5.012862">
        <ele>240.265391</ele>
        <time>2020-10-05T08:56:35.919Z</time>
      </trkpt>
      <trkpt lat="50.225878" lon="5.013196">
        <ele>242.371678</ele>
        <time>2020-10-05T08:56:48.412Z</time>
      </trkpt>
      <trkpt lat="50.225775" lon="5.013435">
        <ele>243.563390</ele>
        <time>2020-10-05T08:56:54.881Z</time>
      </trkpt>
      <trkpt lat="50.225240" lon="5.015396">
        <ele>251.249932</ele>
        <time>2020-10-05T08:57:45.675Z</time>
      </trkpt>
      <trkpt lat="50.225031" lon="5.015970">
        <ele>253.630150</ele>
        <time>2020-10-05T08:58:01.288Z</time>
      </trkpt>
      <trkpt lat="50.224797" lon="5.016380">
        <ele>255.812416</ele>
        <time>2020-10-05T08:58:14.681Z</time>
      </trkpt>
      <trkpt lat="50.224301" lon="5.016861">
        <ele>259.452695</ele>
        <time>2020-10-05T08:58:37.793Z</time>
      </trkpt>
      <trkpt lat="50.223808" lon="5.017229">
        <ele>262.859890</ele>
        <time>2020-10-05T08:59:00.204Z</time>
      </trkpt>
      <trkpt lat="50.222819" lon="5.017969">
        <ele>268.972944</ele>
        <time>2020-10-05T08:59:45.298Z</time>
      </trkpt>
      <trkpt lat="50.221590" lon="5.018903">
        <ele>274.627381</ele>
        <time>2020-10-05T09:00:30.617Z</time>
      </trkpt>
      <trkpt lat="50.221753" lon="5.019438">
        <ele>274.833247</ele>
        <time>2020-10-05T09:00:39.789Z</time>
      </trkpt>
      <trkpt lat="50.223892" lon="5.026427">
        <ele>275.780120</ele>
        <time>2020-10-05T09:01:49.225Z</time>
      </trkpt>
      <trkpt lat="50.224160" lon="5.027310">
        <ele>275.371788</ele>
        <time>2020-10-05T09:01:57.741Z</time>
      </trkpt>
      <trkpt lat="50.224407" lon="5.028106">
        <ele>275.002163</ele>
        <time>2020-10-05T09:02:04.910Z</time>
      </trkpt>
      <trkpt lat="50.224689" lon="5.029033">
        <ele>274.462160</ele>
        <time>2020-10-05T09:02:12.869Z</time>
      </trkpt>
      <trkpt lat="50.224845" lon="5.029581">
        <ele>274.078395</ele>
        <time>2020-10-05T09:02:17.262Z</time>
      </trkpt>
      <trkpt lat="50.224676" lon="5.030015">
        <ele>273.753322</ele>
        <time>2020-10-05T09:02:21.110Z</time>
      </trkpt>
      <trkpt lat="50.224505" lon="5.030485">
        <ele>273.407380</ele>
        <time>2020-10-05T09:02:25.391Z</time>
      </trkpt>
      <trkpt lat="50.224352" lon="5.031200">
        <ele>273.017963</ele>
        <time>2020-10-05T09:02:31.689Z</time>
      </trkpt>
      <trkpt lat="50.224278" lon="5.031579">
        <ele>273.165972</ele>
        <time>2020-10-05T09:02:34.919Z</time>
      </trkpt>
      <trkpt lat="50.224200" lon="5.032049">
        <ele>273.347334</ele>
        <time>2020-10-05T09:02:39.295Z</time>
      </trkpt>
      <trkpt lat="50.224038" lon="5.032896">
        <ele>273.677538</ele>
        <time>2020-10-05T09:02:48.866Z</time>
      </trkpt>
      <trkpt lat="50.223781" lon="5.033835">
        <ele>274.124242</ele>
        <time>2020-10-05T09:03:02.947Z</time>
      </trkpt>
      <trkpt lat="50.223682" lon="5.035182">
        <ele>275.939088</ele>
        <time>2020-10-05T09:03:23.280Z</time>
      </trkpt>
      <trkpt lat="50.223682" lon="5.035278">
        <ele>276.067586</ele>
        <time>2020-10-05T09:03:24.772Z</time>
      </trkpt>
      <trkpt lat="50.223701" lon="5.035402">
        <ele>276.238257</ele>
        <time>2020-10-05T09:03:27.109Z</time>
      </trkpt>
      <trkpt lat="50.228373" lon="5.049544">
        <ele>296.709438</ele>
        <time>2020-10-05T09:07:20.969Z</time>
      </trkpt>
      <trkpt lat="50.228694" lon="5.050518">
        <ele>297.803339</ele>
        <time>2020-10-05T09:07:37.691Z</time>
      </trkpt>
      <trkpt lat="50.228795" lon="5.050759">
        <ele>298.090987</ele>
        <time>2020-10-05T09:07:41.557Z</time>
      </trkpt>
      <trkpt lat="50.229324" lon="5.052374">
        <ele>298.604503</ele>
        <time>2020-10-05T09:08:00.017Z</time>
      </trkpt>
      <trkpt lat="50.229515" lon="5.052990">
        <ele>298.466217</ele>
        <time>2020-10-05T09:08:05.401Z</time>
      </trkpt>
      <trkpt lat="50.229686" lon="5.053543">
        <ele>298.342138</ele>
        <time>2020-10-05T09:08:10.389Z</time>
      </trkpt>
      <trkpt lat="50.229964" lon="5.054398">
        <ele>298.062913</ele>
        <time>2020-10-05T09:08:18.858Z</time>
      </trkpt>
      <trkpt lat="50.230516" lon="5.056069">
        <ele>297.378268</ele>
        <time>2020-10-05T09:08:34.905Z</time>
      </trkpt>
      <trkpt lat="50.231124" lon="5.057940">
        <ele>295.910571</ele>
        <time>2020-10-05T09:08:51.106Z</time>
      </trkpt>
      <trkpt lat="50.231856" lon="5.060205">
        <ele>294.791398</ele>
        <time>2020-10-05T09:09:09.949Z</time>
      </trkpt>
      <trkpt lat="50.232015" lon="5.060689">
        <ele>294.696037</ele>
        <time>2020-10-05T09:09:15.433Z</time>
      </trkpt>
      <trkpt lat="50.232335" lon="5.061645">
        <ele>294.875837</ele>
        <time>2020-10-05T09:09:28.353Z</time>
      </trkpt>
      <trkpt lat="50.233154" lon="5.064076">
        <ele>298.705949</ele>
        <time>2020-10-05T09:10:11.984Z</time>
      </trkpt>
      <trkpt lat="50.233317" lon="5.064562">
        <ele>299.310370</ele>
        <time>2020-10-05T09:10:20.574Z</time>
      </trkpt>
      <trkpt lat="50.233407" lon="5.064795">
        <ele>299.610167</ele>
        <time>2020-10-05T09:10:24.769Z</time>
      </trkpt>
      <trkpt lat="50.233545" lon="5.065011">
        <ele>299.946420</ele>
        <time>2020-10-05T09:10:29.355Z</time>
      </trkpt>
      <trkpt lat="50.236129" lon="5.067761">
        <ele>303.333354</ele>
        <time>2020-10-05T09:11:30.130Z</time>
      </trkpt>
      <trkpt lat="50.236203" lon="5.067867">
        <ele>303.266383</ele>
        <time>2020-10-05T09:11:32.025Z</time>
      </trkpt>
      <trkpt lat="50.236267" lon="5.067990">
        <ele>303.198709</ele>
        <time>2020-10-05T09:11:33.232Z</time>
      </trkpt>
      <trkpt lat="50.236581" lon="5.068893">
        <ele>302.760030</ele>
        <time>2020-10-05T09:11:41.499Z</time>
      </trkpt>
      <trkpt lat="50.236619" lon="5.069155">
        <ele>302.645368</ele>
        <time>2020-10-05T09:11:43.430Z</time>
      </trkpt>
      <trkpt lat="50.236625" lon="5.069260">
        <ele>302.600375</ele>
        <time>2020-10-05T09:11:44.145Z</time>
      </trkpt>
      <trkpt lat="50.236731" lon="5.069236">
        <ele>302.528905</ele>
        <time>2020-10-05T09:11:46.228Z</time>
      </trkpt>
      <trkpt lat="50.236735" lon="5.069651">
        <ele>302.310796</ele>
        <time>2020-10-05T09:11:50.329Z</time>
      </trkpt>
      <trkpt lat="50.235877" lon="5.077157">
        <ele>293.881073</ele>
        <time>2020-10-05T09:13:06.768Z</time>
      </trkpt>
      <trkpt lat="50.235342" lon="5.079770">
        <ele>297.493657</ele>
        <time>2020-10-05T09:13:59.642Z</time>
      </trkpt>
      <trkpt lat="50.235324" lon="5.079879">
        <ele>297.720256</ele>
        <time>2020-10-05T09:14:03.118Z</time>
      </trkpt>
      <trkpt lat="50.235296" lon="5.080053">
        <ele>298.081411</ele>
        <time>2020-10-05T09:14:06.955Z</time>
      </trkpt>
      <trkpt lat="50.235280" lon="5.080308">
        <ele>298.597161</ele>
        <time>2020-10-05T09:14:13.269Z</time>
      </trkpt>
      <trkpt lat="50.235270" lon="5.080801">
        <ele>299.840008</ele>
        <time>2020-10-05T09:14:25.982Z</time>
      </trkpt>
      <trkpt lat="50.235397" lon="5.081835">
        <ele>303.230844</ele>
        <time>2020-10-05T09:14:54.531Z</time>
      </trkpt>
      <trkpt lat="50.235811" lon="5.084024">
        <ele>310.254373</ele>
        <time>2020-10-05T09:15:53.251Z</time>
      </trkpt>
      <trkpt lat="50.236210" lon="5.085323">
        <ele>314.248526</ele>
        <time>2020-10-05T09:16:27.714Z</time>
      </trkpt>
      <trkpt lat="50.237419" lon="5.088294">
        <ele>322.608092</ele>
        <time>2020-10-05T09:17:46.078Z</time>
      </trkpt>
      <trkpt lat="50.237548" lon="5.088927">
        <ele>323.730320</ele>
        <time>2020-10-05T09:18:00.440Z</time>
      </trkpt>
      <trkpt lat="50.237566" lon="5.089757">
        <ele>325.133161</ele>
        <time>2020-10-05T09:18:17.152Z</time>
      </trkpt>
      <trkpt lat="50.237545" lon="5.090041">
        <ele>325.616089</ele>
        <time>2020-10-05T09:18:23.003Z</time>
      </trkpt>
      <trkpt lat="50.237539" lon="5.090142">
        <ele>325.787432</ele>
        <time>2020-10-05T09:18:24.755Z</time>
      </trkpt>
      <trkpt lat="50.237533" lon="5.090228">
        <ele>325.933565</ele>
        <time>2020-10-05T09:18:26.500Z</time>
      </trkpt>
      <trkpt lat="50.237908" lon="5.092068">
        <ele>327.677484</ele>
        <time>2020-10-05T09:18:59.791Z</time>
      </trkpt>
      <trkpt lat="50.238208" lon="5.095360">
        <ele>327.846359</ele>
        <time>2020-10-05T09:19:41.451Z</time>
      </trkpt>
      <trkpt lat="50.238845" lon="5.099736">
        <ele>326.319868</ele>
        <time>2020-10-05T09:20:32.905Z</time>
      </trkpt>
      <trkpt lat="50.239418" lon="5.101738">
        <ele>326.571534</ele>
        <time>2020-10-05T09:21:03.208Z</time>
      </trkpt>
      <trkpt lat="50.239399" lon="5.102058">
        <ele>326.555724</ele>
        <time>2020-10-05T09:21:08.392Z</time>
      </trkpt>
      <trkpt lat="50.239114" lon="5.102840">
        <ele>326.457845</ele>
        <time>2020-10-05T09:21:22.153Z</time>
      </trkpt>
      <trkpt lat="50.239077" lon="5.103188">
        <ele>326.419482</ele>
        <time>2020-10-05T09:21:27.212Z</time>
      </trkpt>
      <trkpt lat="50.239090" lon="5.104323">
        <ele>326.296033</ele>
        <time>2020-10-05T09:21:40.790Z</time>
      </trkpt>
      <trkpt lat="50.238740" lon="5.104485">
        <ele>325.192487</ele>
        <time>2020-10-05T09:21:44.717Z</time>
      </trkpt>
      <trkpt lat="50.238500" lon="5.104606">
        <ele>324.075366</ele>
        <time>2020-10-05T09:21:47.329Z</time>
      </trkpt>
      <trkpt lat="50.238280" lon="5.104774">
        <ele>322.990721</ele>
        <time>2020-10-05T09:21:49.762Z</time>
      </trkpt>
      <trkpt lat="50.237966" lon="5.105134">
        <ele>321.265769</ele>
        <time>2020-10-05T09:21:53.533Z</time>
      </trkpt>
      <trkpt lat="50.237757" lon="5.105386">
        <ele>320.096540</ele>
        <time>2020-10-05T09:21:55.973Z</time>
      </trkpt>
      <trkpt lat="50.236945" lon="5.106309">
        <ele>313.671326</ele>
        <time>2020-10-05T09:22:04.982Z</time>
      </trkpt>
      <trkpt lat="50.236470" lon="5.106649">
        <ele>309.635184</ele>
        <time>2020-10-05T09:22:09.568Z</time>
      </trkpt>
      <trkpt lat="50.235910" lon="5.106927">
        <ele>305.095799</ele>
        <time>2020-10-05T09:22:14.795Z</time>
      </trkpt>
      <trkpt lat="50.235303" lon="5.107205">
        <ele>300.313249</ele>
        <time>2020-10-05T09:22:20.353Z</time>
      </trkpt>
      <trkpt lat="50.234634" lon="5.107662">
        <ele>294.812568</ele>
        <time>2020-10-05T09:22:26.772Z</time>
      </trkpt>
      <trkpt lat="50.234302" lon="5.107928">
        <ele>292.001783</ele>
        <time>2020-10-05T09:22:30.131Z</time>
      </trkpt>
      <trkpt lat="50.234004" lon="5.108119">
        <ele>290.317427</ele>
        <time>2020-10-05T09:22:33.086Z</time>
      </trkpt>
      <trkpt lat="50.233777" lon="5.108322">
        <ele>289.485727</ele>
        <time>2020-10-05T09:22:35.525Z</time>
      </trkpt>
      <trkpt lat="50.231913" lon="5.110367">
        <ele>284.982053</ele>
        <time>2020-10-05T09:23:00.534Z</time>
      </trkpt>
      <trkpt lat="50.231738" lon="5.110560">
        <ele>284.945060</ele>
        <time>2020-10-05T09:23:05.090Z</time>
      </trkpt>
      <trkpt lat="50.230489" lon="5.111991">
        <ele>284.699171</ele>
        <time>2020-10-05T09:23:38.765Z</time>
      </trkpt>
      <trkpt lat="50.230224" lon="5.112292">
        <ele>284.650677</ele>
        <time>2020-10-05T09:23:43.127Z</time>
      </trkpt>
      <trkpt lat="50.229821" lon="5.112748">
        <ele>284.577026</ele>
        <time>2020-10-05T09:23:48.692Z</time>
      </trkpt>
      <trkpt lat="50.229608" lon="5.112989">
        <ele>283.723301</ele>
        <time>2020-10-05T09:23:51.431Z</time>
      </trkpt>
      <trkpt lat="50.229106" lon="5.113760">
        <ele>280.122094</ele>
        <time>2020-10-05T09:23:58.202Z</time>
      </trkpt>
      <trkpt lat="50.228361" lon="5.114976">
        <ele>274.519192</ele>
        <time>2020-10-05T09:24:07.978Z</time>
      </trkpt>
      <trkpt lat="50.227616" lon="5.115722">
        <ele>269.439875</ele>
        <time>2020-10-05T09:24:16.106Z</time>
      </trkpt>
      <trkpt lat="50.227313" lon="5.116131">
        <ele>267.141543</ele>
        <time>2020-10-05T09:24:19.863Z</time>
      </trkpt>
      <trkpt lat="50.226179" lon="5.118109">
        <ele>257.523193</ele>
        <time>2020-10-05T09:24:35.857Z</time>
      </trkpt>
      <trkpt lat="50.226145" lon="5.118330">
        <ele>256.703279</ele>
        <time>2020-10-05T09:24:37.162Z</time>
      </trkpt>
      <trkpt lat="50.225971" lon="5.118374">
        <ele>255.709450</ele>
        <time>2020-10-05T09:24:38.765Z</time>
      </trkpt>
      <trkpt lat="50.225737" lon="5.118771">
        <ele>253.367733</ele>
        <time>2020-10-05T09:24:41.887Z</time>
      </trkpt>
      <trkpt lat="50.225542" lon="5.119061">
        <ele>251.319741</ele>
        <time>2020-10-05T09:24:44.306Z</time>
      </trkpt>
      <trkpt lat="50.225301" lon="5.119493">
        <ele>248.529604</ele>
        <time>2020-10-05T09:24:47.583Z</time>
      </trkpt>
      <trkpt lat="50.225111" lon="5.119778">
        <ele>246.525923</ele>
        <time>2020-10-05T09:24:49.890Z</time>
      </trkpt>
      <trkpt lat="50.224632" lon="5.120223">
        <ele>242.286124</ele>
        <time>2020-10-05T09:24:54.791Z</time>
      </trkpt>
      <trkpt lat="50.224132" lon="5.120570">
        <ele>239.732518</ele>
        <time>2020-10-05T09:24:59.649Z</time>
      </trkpt>
      <trkpt lat="50.223936" lon="5.120727">
        <ele>238.931574</ele>
        <time>2020-10-05T09:25:01.637Z</time>
      </trkpt>
      <trkpt lat="50.223867" lon="5.120810">
        <ele>238.614934</ele>
        <time>2020-10-05T09:25:02.453Z</time>
      </trkpt>
      <trkpt lat="50.223806" lon="5.120967">
        <ele>238.187556</ele>
        <time>2020-10-05T09:25:03.648Z</time>
      </trkpt>
      <trkpt lat="50.223798" lon="5.120998">
        <ele>238.109781</ele>
        <time>2020-10-05T09:25:03.836Z</time>
      </trkpt>
      <trkpt lat="50.223669" lon="5.120983">
        <ele>237.639351</ele>
        <time>2020-10-05T09:25:05.103Z</time>
      </trkpt>
      <trkpt lat="50.223560" lon="5.121050">
        <ele>237.213400</ele>
        <time>2020-10-05T09:25:06.414Z</time>
      </trkpt>
      <trkpt lat="50.223453" lon="5.121141">
        <ele>236.770400</ele>
        <time>2020-10-05T09:25:07.736Z</time>
      </trkpt>
      <trkpt lat="50.223221" lon="5.121469">
        <ele>235.632735</ele>
        <time>2020-10-05T09:25:11.654Z</time>
      </trkpt>
      <trkpt lat="50.223053" lon="5.121845">
        <ele>234.778966</ele>
        <time>2020-10-05T09:25:15.965Z</time>
      </trkpt>
      <trkpt lat="50.223012" lon="5.121966">
        <ele>235.147968</ele>
        <time>2020-10-05T09:25:17.633Z</time>
      </trkpt>
      <trkpt lat="50.222799" lon="5.122438">
        <ele>236.704582</ele>
        <time>2020-10-05T09:25:25.117Z</time>
      </trkpt>
      <trkpt lat="50.222725" lon="5.122627">
        <ele>237.301743</ele>
        <time>2020-10-05T09:25:29.790Z</time>
      </trkpt>
      <trkpt lat="50.222634" lon="5.122825">
        <ele>237.958758</ele>
        <time>2020-10-05T09:25:34.612Z</time>
      </trkpt>
      <trkpt lat="50.222603" lon="5.122882">
        <ele>238.160373</ele>
        <time>2020-10-05T09:25:36.158Z</time>
      </trkpt>
      <trkpt lat="50.222579" lon="5.122924">
        <ele>238.312135</ele>
        <time>2020-10-05T09:25:37.226Z</time>
      </trkpt>
      <trkpt lat="50.222529" lon="5.122995">
        <ele>238.596688</ele>
        <time>2020-10-05T09:25:40.105Z</time>
      </trkpt>
      <trkpt lat="50.222365" lon="5.123153">
        <ele>239.408184</ele>
        <time>2020-10-05T09:25:47.465Z</time>
      </trkpt>
      <trkpt lat="50.222084" lon="5.123500">
        <ele>240.916674</ele>
        <time>2020-10-05T09:26:01.833Z</time>
      </trkpt>
      <trkpt lat="50.221703" lon="5.124002">
        <ele>243.327362</ele>
        <time>2020-10-05T09:26:21.939Z</time>
      </trkpt>
      <trkpt lat="50.221642" lon="5.124086">
        <ele>243.807534</ele>
        <time>2020-10-05T09:26:26.445Z</time>
      </trkpt>
      <trkpt lat="50.221413" lon="5.124213">
        <ele>245.242690</ele>
        <time>2020-10-05T09:26:35.273Z</time>
      </trkpt>
      <trkpt lat="50.221280" lon="5.124220">
        <ele>246.028667</ele>
        <time>2020-10-05T09:26:41.519Z</time>
      </trkpt>
      <trkpt lat="50.221013" lon="5.124069">
        <ele>247.705702</ele>
        <time>2020-10-05T09:26:51.410Z</time>
      </trkpt>
      <trkpt lat="50.220313" lon="5.123351">
        <ele>252.650927</ele>
        <time>2020-10-05T09:27:23.127Z</time>
      </trkpt>
      <trkpt lat="50.219846" lon="5.123074">
        <ele>255.719858</ele>
        <time>2020-10-05T09:27:41.280Z</time>
      </trkpt>
      <trkpt lat="50.219370" lon="5.122833">
        <ele>258.803290</ele>
        <time>2020-10-05T09:27:59.194Z</time>
      </trkpt>
      <trkpt lat="50.218576" lon="5.122407">
        <ele>263.980621</ele>
        <time>2020-10-05T09:28:34.734Z</time>
      </trkpt>
      <trkpt lat="50.218135" lon="5.122293">
        <ele>267.123021</ele>
        <time>2020-10-05T09:28:54.725Z</time>
      </trkpt>
      <trkpt lat="50.217712" lon="5.122348">
        <ele>270.107029</ele>
        <time>2020-10-05T09:29:13.936Z</time>
      </trkpt>
      <trkpt lat="50.217369" lon="5.122500">
        <ele>272.613422</ele>
        <time>2020-10-05T09:29:29.585Z</time>
      </trkpt>
      <trkpt lat="50.216815" lon="5.122778">
        <ele>276.672595</ele>
        <time>2020-10-05T09:29:53.970Z</time>
      </trkpt>
      <trkpt lat="50.216508" lon="5.123072">
        <ele>278.489798</ele>
        <time>2020-10-05T09:30:08.598Z</time>
      </trkpt>
      <trkpt lat="50.215879" lon="5.124211">
        <ele>283.348681</ele>
        <time>2020-10-05T09:30:41.489Z</time>
      </trkpt>
      <trkpt lat="50.214803" lon="5.125458">
        <ele>289.065506</ele>
        <time>2020-10-05T09:31:22.752Z</time>
      </trkpt>
      <trkpt lat="50.214717" lon="5.125624">
        <ele>289.593055</ele>
        <time>2020-10-05T09:31:26.940Z</time>
      </trkpt>
      <trkpt lat="50.214448" lon="5.126653">
        <ele>292.338597</ele>
        <time>2020-10-05T09:31:47.870Z</time>
      </trkpt>
      <trkpt lat="50.214163" lon="5.127846">
        <ele>294.816094</ele>
        <time>2020-10-05T09:32:12.097Z</time>
      </trkpt>
      <trkpt lat="50.213824" lon="5.130639">
        <ele>298.815315</ele>
        <time>2020-10-05T09:32:56.961Z</time>
      </trkpt>
      <trkpt lat="50.213430" lon="5.132212">
        <ele>300.013083</ele>
        <time>2020-10-05T09:33:13.954Z</time>
      </trkpt>
      <trkpt lat="50.213331" lon="5.132548">
        <ele>300.083807</ele>
        <time>2020-10-05T09:33:17.338Z</time>
      </trkpt>
      <trkpt lat="50.213147" lon="5.132839">
        <ele>300.162022</ele>
        <time>2020-10-05T09:33:21.186Z</time>
      </trkpt>
      <trkpt lat="50.212835" lon="5.133196">
        <ele>300.277558</ele>
        <time>2020-10-05T09:33:27.166Z</time>
      </trkpt>
      <trkpt lat="50.212736" lon="5.134597">
        <ele>300.565888</ele>
        <time>2020-10-05T09:33:41.964Z</time>
      </trkpt>
      <trkpt lat="50.212698" lon="5.135077">
        <ele>300.824106</ele>
        <time>2020-10-05T09:33:47.534Z</time>
      </trkpt>
      <trkpt lat="50.212688" lon="5.135887">
        <ele>301.256633</ele>
        <time>2020-10-05T09:33:57.781Z</time>
      </trkpt>
      <trkpt lat="50.212733" lon="5.136599">
        <ele>301.638608</ele>
        <time>2020-10-05T09:34:06.698Z</time>
      </trkpt>
      <trkpt lat="50.212984" lon="5.138185">
        <ele>302.176259</ele>
        <time>2020-10-05T09:34:24.622Z</time>
      </trkpt>
      <trkpt lat="50.213156" lon="5.138916">
        <ele>302.298396</ele>
        <time>2020-10-05T09:34:32.197Z</time>
      </trkpt>
      <trkpt lat="50.213172" lon="5.138985">
        <ele>302.309904</ele>
        <time>2020-10-05T09:34:32.909Z</time>
      </trkpt>
      <trkpt lat="50.214934" lon="5.143515">
        <ele>302.181124</ele>
        <time>2020-10-05T09:35:22.911Z</time>
      </trkpt>
      <trkpt lat="50.216152" lon="5.146247">
        <ele>301.128147</ele>
        <time>2020-10-05T09:35:51.222Z</time>
      </trkpt>
      <trkpt lat="50.216403" lon="5.146685">
        <ele>300.881782</ele>
        <time>2020-10-05T09:35:55.839Z</time>
      </trkpt>
      <trkpt lat="50.216616" lon="5.147046">
        <ele>300.680625</ele>
        <time>2020-10-05T09:35:59.701Z</time>
      </trkpt>
      <trkpt lat="50.217398" lon="5.148283">
        <ele>299.990726</ele>
        <time>2020-10-05T09:36:13.945Z</time>
      </trkpt>
      <trkpt lat="50.217566" lon="5.148529">
        <ele>299.847981</ele>
        <time>2020-10-05T09:36:17.032Z</time>
      </trkpt>
      <trkpt lat="50.218713" lon="5.150335">
        <ele>299.017872</ele>
        <time>2020-10-05T09:36:39.764Z</time>
      </trkpt>
      <trkpt lat="50.220652" lon="5.153133">
        <ele>297.025150</ele>
        <time>2020-10-05T09:37:12.114Z</time>
      </trkpt>
      <trkpt lat="50.220908" lon="5.153587">
        <ele>296.983010</ele>
        <time>2020-10-05T09:37:17.083Z</time>
      </trkpt>
      <trkpt lat="50.221078" lon="5.154061">
        <ele>296.945170</ele>
        <time>2020-10-05T09:37:21.761Z</time>
      </trkpt>
      <trkpt lat="50.221833" lon="5.157056">
        <ele>298.377567</ele>
        <time>2020-10-05T09:37:59.120Z</time>
      </trkpt>
      <trkpt lat="50.221942" lon="5.157469">
        <ele>298.699236</ele>
        <time>2020-10-05T09:38:05.545Z</time>
      </trkpt>
      <trkpt lat="50.222210" lon="5.158479">
        <ele>299.850094</ele>
        <time>2020-10-05T09:38:21.693Z</time>
      </trkpt>
      <trkpt lat="50.224986" lon="5.166221">
        <ele>307.682580</ele>
        <time>2020-10-05T09:40:26.755Z</time>
      </trkpt>
      <trkpt lat="50.225092" lon="5.166525">
        <ele>307.423064</ele>
        <time>2020-10-05T09:40:29.098Z</time>
      </trkpt>
      <trkpt lat="50.224669" lon="5.166797">
        <ele>306.887166</ele>
        <time>2020-10-05T09:40:35.701Z</time>
      </trkpt>
      <trkpt lat="50.224014" lon="5.166951">
        <ele>304.803703</ele>
        <time>2020-10-05T09:40:44.930Z</time>
      </trkpt>
      <trkpt lat="50.223730" lon="5.167163">
        <ele>303.272083</ele>
        <time>2020-10-05T09:40:49.172Z</time>
      </trkpt>
      <trkpt lat="50.223606" lon="5.168689">
        <ele>298.482633</ele>
        <time>2020-10-05T09:41:02.375Z</time>
      </trkpt>
      <trkpt lat="50.223606" lon="5.170309">
        <ele>293.553694</ele>
        <time>2020-10-05T09:41:16.663Z</time>
      </trkpt>
      <trkpt lat="50.223606" lon="5.170619">
        <ele>292.614108</ele>
        <time>2020-10-05T09:41:19.340Z</time>
      </trkpt>
      <trkpt lat="50.223522" lon="5.171950">
        <ele>288.705849</ele>
        <time>2020-10-05T09:41:30.999Z</time>
      </trkpt>
      <trkpt lat="50.223471" lon="5.173257">
        <ele>285.572137</ele>
        <time>2020-10-05T09:41:42.757Z</time>
      </trkpt>
      <trkpt lat="50.223516" lon="5.173440">
        <ele>285.102949</ele>
        <time>2020-10-05T09:41:44.632Z</time>
      </trkpt>
      <trkpt lat="50.223926" lon="5.174642">
        <ele>281.902998</ele>
        <time>2020-10-05T09:41:57.416Z</time>
      </trkpt>
      <trkpt lat="50.224075" lon="5.175079">
        <ele>280.822274</ele>
        <time>2020-10-05T09:42:02.129Z</time>
      </trkpt>
      <trkpt lat="50.224351" lon="5.175889">
        <ele>278.819393</ele>
        <time>2020-10-05T09:42:11.120Z</time>
      </trkpt>
      <trkpt lat="50.224210" lon="5.175944">
        <ele>278.323656</ele>
        <time>2020-10-05T09:42:12.508Z</time>
      </trkpt>
      <trkpt lat="50.223943" lon="5.176165">
        <ele>277.293025</ele>
        <time>2020-10-05T09:42:15.576Z</time>
      </trkpt>
      <trkpt lat="50.223724" lon="5.176489">
        <ele>276.167283</ele>
        <time>2020-10-05T09:42:18.563Z</time>
      </trkpt>
      <trkpt lat="50.219489" lon="5.184453">
        <ele>235.775219</ele>
        <time>2020-10-05T09:43:19.210Z</time>
      </trkpt>
      <trkpt lat="50.218049" lon="5.187143">
        <ele>222.448117</ele>
        <time>2020-10-05T09:43:39.848Z</time>
      </trkpt>
      <trkpt lat="50.217999" lon="5.187691">
        <ele>220.645788</ele>
        <time>2020-10-05T09:43:43.178Z</time>
      </trkpt>
      <trkpt lat="50.217123" lon="5.192698">
        <ele>205.055498</ele>
        <time>2020-10-05T09:44:15.004Z</time>
      </trkpt>
      <trkpt lat="50.216911" lon="5.194458">
        <ele>200.335940</ele>
        <time>2020-10-05T09:44:26.088Z</time>
      </trkpt>
      <trkpt lat="50.216895" lon="5.194596">
        <ele>199.966664</ele>
        <time>2020-10-05T09:44:26.964Z</time>
      </trkpt>
      <trkpt lat="50.216908" lon="5.195227">
        <ele>198.304352</ele>
        <time>2020-10-05T09:44:30.953Z</time>
      </trkpt>
      <trkpt lat="50.216949" lon="5.196462">
        <ele>195.598980</ele>
        <time>2020-10-05T09:44:38.916Z</time>
      </trkpt>
      <trkpt lat="50.217005" lon="5.197732">
        <ele>192.966537</ele>
        <time>2020-10-05T09:44:47.270Z</time>
      </trkpt>
      <trkpt lat="50.216995" lon="5.198075">
        <ele>192.256517</ele>
        <time>2020-10-05T09:44:49.541Z</time>
      </trkpt>
      <trkpt lat="50.216939" lon="5.198420">
        <ele>191.517471</ele>
        <time>2020-10-05T09:44:51.870Z</time>
      </trkpt>
      <trkpt lat="50.216883" lon="5.198759">
        <ele>190.785674</ele>
        <time>2020-10-05T09:44:54.139Z</time>
      </trkpt>
      <trkpt lat="50.216419" lon="5.201257">
        <ele>185.689040</ele>
        <time>2020-10-05T09:45:10.875Z</time>
      </trkpt>
      <trkpt lat="50.216407" lon="5.201895">
        <ele>185.140548</ele>
        <time>2020-10-05T09:45:15.175Z</time>
      </trkpt>
      <trkpt lat="50.216292" lon="5.202598">
        <ele>184.517007</ele>
        <time>2020-10-05T09:45:20.186Z</time>
      </trkpt>
      <trkpt lat="50.216056" lon="5.204117">
        <ele>184.513743</ele>
        <time>2020-10-05T09:45:35.128Z</time>
      </trkpt>
      <trkpt lat="50.215893" lon="5.204499">
        <ele>185.686613</ele>
        <time>2020-10-05T09:45:43.221Z</time>
      </trkpt>
      <trkpt lat="50.215588" lon="5.204914">
        <ele>187.301024</ele>
        <time>2020-10-05T09:45:55.902Z</time>
      </trkpt>
      <trkpt lat="50.215504" lon="5.205064">
        <ele>187.810210</ele>
        <time>2020-10-05T09:46:00.370Z</time>
      </trkpt>
      <trkpt lat="50.215416" lon="5.205231">
        <ele>188.362842</ele>
        <time>2020-10-05T09:46:05.231Z</time>
      </trkpt>
      <trkpt lat="50.215352" lon="5.205401">
        <ele>188.866690</ele>
        <time>2020-10-05T09:46:09.696Z</time>
      </trkpt>
      <trkpt lat="50.215191" lon="5.205828">
        <ele>190.132743</ele>
        <time>2020-10-05T09:46:21.866Z</time>
      </trkpt>
      <trkpt lat="50.214730" lon="5.206721">
        <ele>194.507083</ele>
        <time>2020-10-05T09:46:53.217Z</time>
      </trkpt>
      <trkpt lat="50.213667" lon="5.207967">
        <ele>202.743946</ele>
        <time>2020-10-05T09:47:47.883Z</time>
      </trkpt>
      <trkpt lat="50.213490" lon="5.208211">
        <ele>203.699897</ele>
        <time>2020-10-05T09:47:56.301Z</time>
      </trkpt>
      <trkpt lat="50.213185" lon="5.208900">
        <ele>205.871278</ele>
        <time>2020-10-05T09:48:13.209Z</time>
      </trkpt>
      <trkpt lat="50.211373" lon="5.211989">
        <ele>215.363694</ele>
        <time>2020-10-05T09:49:25.568Z</time>
      </trkpt>
      <trkpt lat="50.210599" lon="5.213065">
        <ele>220.760800</ele>
        <time>2020-10-05T09:50:01.468Z</time>
      </trkpt>
      <trkpt lat="50.209695" lon="5.214407">
        <ele>227.548576</ele>
        <time>2020-10-05T09:50:50.685Z</time>
      </trkpt>
      <trkpt lat="50.208972" lon="5.215502">
        <ele>233.364274</ele>
        <time>2020-10-05T09:51:29.695Z</time>
      </trkpt>
      <trkpt lat="50.208443" lon="5.216362">
        <ele>236.994723</ele>
        <time>2020-10-05T09:51:56.409Z</time>
      </trkpt>
      <trkpt lat="50.208317" lon="5.216621">
        <ele>237.826099</ele>
        <time>2020-10-05T09:52:03.628Z</time>
      </trkpt>
      <trkpt lat="50.207530" lon="5.218430">
        <ele>242.502138</ele>
        <time>2020-10-05T09:52:44.526Z</time>
      </trkpt>
      <trkpt lat="50.207182" lon="5.219061">
        <ele>242.653181</ele>
        <time>2020-10-05T09:52:54.729Z</time>
      </trkpt>
      <trkpt lat="50.207084" lon="5.219173">
        <ele>242.687582</ele>
        <time>2020-10-05T09:52:57.255Z</time>
      </trkpt>
      <trkpt lat="50.206709" lon="5.219605">
        <ele>242.819586</ele>
        <time>2020-10-05T09:53:03.552Z</time>
      </trkpt>
      <trkpt lat="50.205720" lon="5.220664">
        <ele>240.121040</ele>
        <time>2020-10-05T09:53:16.140Z</time>
      </trkpt>
      <trkpt lat="50.205252" lon="5.221050">
        <ele>238.174887</ele>
        <time>2020-10-05T09:53:21.181Z</time>
      </trkpt>
      <trkpt lat="50.205204" lon="5.221089">
        <ele>237.975926</ele>
        <time>2020-10-05T09:53:21.719Z</time>
      </trkpt>
      <trkpt lat="50.204793" lon="5.221428">
        <ele>236.254199</ele>
        <time>2020-10-05T09:53:26.189Z</time>
      </trkpt>
      <trkpt lat="50.204635" lon="5.221545">
        <ele>235.477790</ele>
        <time>2020-10-05T09:53:27.824Z</time>
      </trkpt>
      <trkpt lat="50.202597" lon="5.223207">
        <ele>225.412655</ele>
        <time>2020-10-05T09:53:49.975Z</time>
      </trkpt>
      <trkpt lat="50.202306" lon="5.223455">
        <ele>224.009364</ele>
        <time>2020-10-05T09:53:53.190Z</time>
      </trkpt>
      <trkpt lat="50.202185" lon="5.223505">
        <ele>223.479507</ele>
        <time>2020-10-05T09:53:54.414Z</time>
      </trkpt>
      <trkpt lat="50.201956" lon="5.223563">
        <ele>222.497399</ele>
        <time>2020-10-05T09:53:56.655Z</time>
      </trkpt>
      <trkpt lat="50.201581" lon="5.223831">
        <ele>220.751653</ele>
        <time>2020-10-05T09:54:00.672Z</time>
      </trkpt>
      <trkpt lat="50.201434" lon="5.224037">
        <ele>220.010526</ele>
        <time>2020-10-05T09:54:02.614Z</time>
      </trkpt>
      <trkpt lat="50.201367" lon="5.224162">
        <ele>219.620433</ele>
        <time>2020-10-05T09:54:03.618Z</time>
      </trkpt>
      <trkpt lat="50.201267" lon="5.224349">
        <ele>219.037411</ele>
        <time>2020-10-05T09:54:05.154Z</time>
      </trkpt>
      <trkpt lat="50.201104" lon="5.224704">
        <ele>217.992085</ele>
        <time>2020-10-05T09:54:07.887Z</time>
      </trkpt>
      <trkpt lat="50.200776" lon="5.225306">
        <ele>216.100542</ele>
        <time>2020-10-05T09:54:12.968Z</time>
      </trkpt>
      <trkpt lat="50.200490" lon="5.226098">
        <ele>213.920830</ele>
        <time>2020-10-05T09:54:18.791Z</time>
      </trkpt>
      <trkpt lat="50.200430" lon="5.226502">
        <ele>212.878386</ele>
        <time>2020-10-05T09:54:21.414Z</time>
      </trkpt>
      <trkpt lat="50.200213" lon="5.227389">
        <ele>210.491581</ele>
        <time>2020-10-05T09:54:27.434Z</time>
      </trkpt>
      <trkpt lat="50.200124" lon="5.227875">
        <ele>209.220984</ele>
        <time>2020-10-05T09:54:30.627Z</time>
      </trkpt>
      <trkpt lat="50.200090" lon="5.228404">
        <ele>207.884625</ele>
        <time>2020-10-05T09:54:33.954Z</time>
      </trkpt>
      <trkpt lat="50.199919" lon="5.228831">
        <ele>206.563170</ele>
        <time>2020-10-05T09:54:37.077Z</time>
      </trkpt>
      <trkpt lat="50.199552" lon="5.230045">
        <ele>202.606706</ele>
        <time>2020-10-05T09:54:45.318Z</time>
      </trkpt>
      <trkpt lat="50.199218" lon="5.230877">
        <ele>199.712579</ele>
        <time>2020-10-05T09:54:51.268Z</time>
      </trkpt>
      <trkpt lat="50.198894" lon="5.231977">
        <ele>196.437234</ele>
        <time>2020-10-05T09:54:58.726Z</time>
      </trkpt>
      <trkpt lat="50.198442" lon="5.233080">
        <ele>193.027310</ele>
        <time>2020-10-05T09:55:06.782Z</time>
      </trkpt>
      <trkpt lat="50.197937" lon="5.234851">
        <ele>191.055574</ele>
        <time>2020-10-05T09:55:19.670Z</time>
      </trkpt>
      <trkpt lat="50.197911" lon="5.234915">
        <ele>191.038672</ele>
        <time>2020-10-05T09:55:20.145Z</time>
      </trkpt>
      <trkpt lat="50.197755" lon="5.235306">
        <ele>190.935938</ele>
        <time>2020-10-05T09:55:25.443Z</time>
      </trkpt>
      <trkpt lat="50.197347" lon="5.236207">
        <ele>191.274486</ele>
        <time>2020-10-05T09:55:41.896Z</time>
      </trkpt>
      <trkpt lat="50.197262" lon="5.236464">
        <ele>192.590189</ele>
        <time>2020-10-05T09:55:47.212Z</time>
      </trkpt>
      <trkpt lat="50.197225" lon="5.236579">
        <ele>193.175589</ele>
        <time>2020-10-05T09:55:49.749Z</time>
      </trkpt>
      <trkpt lat="50.197131" lon="5.236865">
        <ele>194.637836</ele>
        <time>2020-10-05T09:55:56.953Z</time>
      </trkpt>
      <trkpt lat="50.196795" lon="5.237667">
        <ele>198.997335</ele>
        <time>2020-10-05T09:56:22.121Z</time>
      </trkpt>
      <trkpt lat="50.196302" lon="5.238612">
        <ele>205.257086</ele>
        <time>2020-10-05T09:57:07.205Z</time>
      </trkpt>
      <trkpt lat="50.196169" lon="5.239429">
        <ele>211.713863</ele>
        <time>2020-10-05T09:57:41.729Z</time>
      </trkpt>
      <trkpt lat="50.196069" lon="5.239604">
        <ele>213.510559</ele>
        <time>2020-10-05T09:57:49.218Z</time>
      </trkpt>
      <trkpt lat="50.195977" lon="5.239666">
        <ele>214.709369</ele>
        <time>2020-10-05T09:57:58.156Z</time>
      </trkpt>
      <trkpt lat="50.195888" lon="5.239674">
        <ele>215.775980</ele>
        <time>2020-10-05T09:58:03.571Z</time>
      </trkpt>
      <trkpt lat="50.195789" lon="5.239659">
        <ele>216.966034</ele>
        <time>2020-10-05T09:58:09.762Z</time>
      </trkpt>
      <trkpt lat="50.195400" lon="5.239487">
        <ele>221.803122</ele>
        <time>2020-10-05T09:58:34.550Z</time>
      </trkpt>
      <trkpt lat="50.195233" lon="5.239423">
        <ele>223.860464</ele>
        <time>2020-10-05T09:58:46.928Z</time>
      </trkpt>
      <trkpt lat="50.195152" lon="5.239381">
        <ele>224.881594</ele>
        <time>2020-10-05T09:58:52.995Z</time>
      </trkpt>
      <trkpt lat="50.195006" lon="5.239414">
        <ele>226.513822</ele>
        <time>2020-10-05T09:59:00.412Z</time>
      </trkpt>
      <trkpt lat="50.194941" lon="5.239496">
        <ele>227.432025</ele>
        <time>2020-10-05T09:59:07.674Z</time>
      </trkpt>
      <trkpt lat="50.194900" lon="5.239630">
        <ele>228.476915</ele>
        <time>2020-10-05T09:59:13.559Z</time>
      </trkpt>
      <trkpt lat="50.194950" lon="5.239862">
        <ele>230.199146</ele>
        <time>2020-10-05T09:59:21.649Z</time>
      </trkpt>
      <trkpt lat="50.195036" lon="5.239973">
        <ele>231.425160</ele>
        <time>2020-10-05T09:59:31.127Z</time>
      </trkpt>
      <trkpt lat="50.195164" lon="5.240182">
        <ele>233.460071</ele>
        <time>2020-10-05T09:59:42.407Z</time>
      </trkpt>
      <trkpt lat="50.195432" lon="5.240822">
        <ele>238.840438</ele>
        <time>2020-10-05T10:00:08.929Z</time>
      </trkpt>
      <trkpt lat="50.195746" lon="5.242868">
        <ele>252.081219</ele>
        <time>2020-10-05T10:01:22.642Z</time>
      </trkpt>
      <trkpt lat="50.195837" lon="5.243231">
        <ele>254.340495</ele>
        <time>2020-10-05T10:01:35.551Z</time>
      </trkpt>
      <trkpt lat="50.196319" lon="5.244533">
        <ele>262.427814</ele>
        <time>2020-10-05T10:02:23.000Z</time>
      </trkpt>
      <trkpt lat="50.197195" lon="5.247498">
        <ele>273.568823</ele>
        <time>2020-10-05T10:03:41.846Z</time>
      </trkpt>
      <trkpt lat="50.197469" lon="5.249149">
        <ele>276.482531</ele>
        <time>2020-10-05T10:04:06.600Z</time>
      </trkpt>
      <trkpt lat="50.197442" lon="5.249455">
        <ele>277.001705</ele>
        <time>2020-10-05T10:04:09.622Z</time>
      </trkpt>
      <trkpt lat="50.197240" lon="5.250103">
        <ele>276.716105</ele>
        <time>2020-10-05T10:04:15.877Z</time>
      </trkpt>
      <trkpt lat="50.196923" lon="5.250974">
        <ele>276.319083</ele>
        <time>2020-10-05T10:04:23.548Z</time>
      </trkpt>
      <trkpt lat="50.196981" lon="5.251023">
        <ele>276.278266</ele>
        <time>2020-10-05T10:04:24.363Z</time>
      </trkpt>
      <trkpt lat="50.196991" lon="5.251231">
        <ele>276.195613</ele>
        <time>2020-10-05T10:04:25.815Z</time>
      </trkpt>
      <trkpt lat="50.197303" lon="5.253776">
        <ele>276.381763</ele>
        <time>2020-10-05T10:04:47.629Z</time>
      </trkpt>
      <trkpt lat="50.197302" lon="5.253967">
        <ele>276.433384</ele>
        <time>2020-10-05T10:04:49.344Z</time>
      </trkpt>
      <trkpt lat="50.197174" lon="5.253917">
        <ele>276.489088</ele>
        <time>2020-10-05T10:04:53.017Z</time>
      </trkpt>
      <trkpt lat="50.196901" lon="5.253855">
        <ele>276.605556</ele>
        <time>2020-10-05T10:04:58.774Z</time>
      </trkpt>
      <trkpt lat="50.196699" lon="5.253911">
        <ele>277.032443</ele>
        <time>2020-10-05T10:05:04.189Z</time>
      </trkpt>
      <trkpt lat="50.196434" lon="5.254151">
        <ele>278.188079</ele>
        <time>2020-10-05T10:05:12.545Z</time>
      </trkpt>
      <trkpt lat="50.196228" lon="5.254553">
        <ele>279.431705</ele>
        <time>2020-10-05T10:05:22.270Z</time>
      </trkpt>
      <trkpt lat="50.196143" lon="5.254954">
        <ele>280.451883</ele>
        <time>2020-10-05T10:05:30.630Z</time>
      </trkpt>
      <trkpt lat="50.195699" lon="5.258318">
        <ele>289.052888</ele>
        <time>2020-10-05T10:06:43.491Z</time>
      </trkpt>
      <trkpt lat="50.195623" lon="5.258946">
        <ele>290.609622</ele>
        <time>2020-10-05T10:06:54.390Z</time>
      </trkpt>
      <trkpt lat="50.195573" lon="5.259196">
        <ele>290.596431</ele>
        <time>2020-10-05T10:06:58.240Z</time>
      </trkpt>
      <trkpt lat="50.195502" lon="5.259322">
        <ele>290.587977</ele>
        <time>2020-10-05T10:07:00.761Z</time>
      </trkpt>
      <trkpt lat="50.195359" lon="5.259320">
        <ele>290.576726</ele>
        <time>2020-10-05T10:07:03.727Z</time>
      </trkpt>
      <trkpt lat="50.195237" lon="5.259370">
        <ele>290.566803</ele>
        <time>2020-10-05T10:07:06.149Z</time>
      </trkpt>
      <trkpt lat="50.194469" lon="5.259921">
        <ele>290.500312</ele>
        <time>2020-10-05T10:07:18.589Z</time>
      </trkpt>
      <trkpt lat="50.193352" lon="5.260368">
        <ele>287.221752</ele>
        <time>2020-10-05T10:07:30.266Z</time>
      </trkpt>
      <trkpt lat="50.192950" lon="5.260597">
        <ele>285.398948</ele>
        <time>2020-10-05T10:07:34.347Z</time>
      </trkpt>
      <trkpt lat="50.191127" lon="5.262357">
        <ele>273.973213</ele>
        <time>2020-10-05T10:07:54.219Z</time>
      </trkpt>
      <trkpt lat="50.190239" lon="5.262981">
        <ele>268.261040</ele>
        <time>2020-10-05T10:08:03.138Z</time>
      </trkpt>
      <trkpt lat="50.190134" lon="5.263015">
        <ele>267.627589</ele>
        <time>2020-10-05T10:08:04.106Z</time>
      </trkpt>
      <trkpt lat="50.190023" lon="5.263052">
        <ele>266.957117</ele>
        <time>2020-10-05T10:08:05.125Z</time>
      </trkpt>
      <trkpt lat="50.189779" lon="5.263165">
        <ele>265.453720</ele>
        <time>2020-10-05T10:08:07.498Z</time>
      </trkpt>
      <trkpt lat="50.189418" lon="5.263446">
        <ele>263.071046</ele>
        <time>2020-10-05T10:08:11.200Z</time>
      </trkpt>
      <trkpt lat="50.188223" lon="5.264437">
        <ele>256.475134</ele>
        <time>2020-10-05T10:08:23.842Z</time>
      </trkpt>
      <trkpt lat="50.187136" lon="5.265441">
        <ele>252.315675</ele>
        <time>2020-10-05T10:08:36.479Z</time>
      </trkpt>
      <trkpt lat="50.186087" lon="5.266720">
        <ele>250.305593</ele>
        <time>2020-10-05T10:08:52.381Z</time>
      </trkpt>
      <trkpt lat="50.184923" lon="5.267742">
        <ele>251.488662</ele>
        <time>2020-10-05T10:09:17.155Z</time>
      </trkpt>
      <trkpt lat="50.183948" lon="5.268761">
        <ele>254.227015</ele>
        <time>2020-10-05T10:09:45.388Z</time>
      </trkpt>
      <trkpt lat="50.182563" lon="5.270894">
        <ele>260.831406</ele>
        <time>2020-10-05T10:10:41.711Z</time>
      </trkpt>
      <trkpt lat="50.180820" lon="5.272967">
        <ele>268.894979</ele>
        <time>2020-10-05T10:11:52.101Z</time>
      </trkpt>
      <trkpt lat="50.179895" lon="5.273922">
        <ele>270.040555</ele>
        <time>2020-10-05T10:12:15.656Z</time>
      </trkpt>
      <trkpt lat="50.179391" lon="5.274757">
        <ele>269.705134</ele>
        <time>2020-10-05T10:12:24.539Z</time>
      </trkpt>
      <trkpt lat="50.177926" lon="5.276582">
        <ele>264.716089</ele>
        <time>2020-10-05T10:12:43.548Z</time>
      </trkpt>
      <trkpt lat="50.177035" lon="5.277830">
        <ele>260.499575</ele>
        <time>2020-10-05T10:12:55.563Z</time>
      </trkpt>
      <trkpt lat="50.176841" lon="5.278185">
        <ele>259.415548</ele>
        <time>2020-10-05T10:12:58.591Z</time>
      </trkpt>
      <trkpt lat="50.176767" lon="5.278368">
        <ele>258.912820</ele>
        <time>2020-10-05T10:12:59.948Z</time>
      </trkpt>
      <trkpt lat="50.176684" lon="5.278574">
        <ele>258.347487</ele>
        <time>2020-10-05T10:13:01.473Z</time>
      </trkpt>
      <trkpt lat="50.176493" lon="5.279252">
        <ele>256.337726</ele>
        <time>2020-10-05T10:13:06.104Z</time>
      </trkpt>
      <trkpt lat="50.176449" lon="5.279450">
        <ele>255.629980</ele>
        <time>2020-10-05T10:13:07.390Z</time>
      </trkpt>
      <trkpt lat="50.176401" lon="5.279712">
        <ele>254.709728</ele>
        <time>2020-10-05T10:13:09.083Z</time>
      </trkpt>
      <trkpt lat="50.176360" lon="5.279923">
        <ele>253.965114</ele>
        <time>2020-10-05T10:13:10.429Z</time>
      </trkpt>
      <trkpt lat="50.176315" lon="5.280183">
        <ele>253.055606</ele>
        <time>2020-10-05T10:13:12.083Z</time>
      </trkpt>
      <trkpt lat="50.176211" lon="5.280673">
        <ele>251.312388</ele>
        <time>2020-10-05T10:13:15.211Z</time>
      </trkpt>
      <trkpt lat="50.175853" lon="5.282568">
        <ele>243.711168</ele>
        <time>2020-10-05T10:13:26.728Z</time>
      </trkpt>
      <trkpt lat="50.175555" lon="5.283227">
        <ele>240.180605</ele>
        <time>2020-10-05T10:13:31.427Z</time>
      </trkpt>
      <trkpt lat="50.175500" lon="5.283385">
        <ele>239.393579</ele>
        <time>2020-10-05T10:13:32.435Z</time>
      </trkpt>
      <trkpt lat="50.175627" lon="5.283667">
        <ele>237.884822</ele>
        <time>2020-10-05T10:13:34.443Z</time>
      </trkpt>
      <trkpt lat="50.175967" lon="5.284184">
        <ele>234.476663</ele>
        <time>2020-10-05T10:13:38.676Z</time>
      </trkpt>
      <trkpt lat="50.176205" lon="5.284746">
        <ele>230.953554</ele>
        <time>2020-10-05T10:13:42.569Z</time>
      </trkpt>
      <trkpt lat="50.176288" lon="5.285052">
        <ele>229.215876</ele>
        <time>2020-10-05T10:13:44.460Z</time>
      </trkpt>
      <trkpt lat="50.176444" lon="5.285771">
        <ele>225.246313</ele>
        <time>2020-10-05T10:13:48.731Z</time>
      </trkpt>
      <trkpt lat="50.176508" lon="5.286156">
        <ele>223.166434</ele>
        <time>2020-10-05T10:13:50.954Z</time>
      </trkpt>
      <trkpt lat="50.176505" lon="5.286430">
        <ele>221.733478</ele>
        <time>2020-10-05T10:13:52.516Z</time>
      </trkpt>
      <trkpt lat="50.176422" lon="5.286767">
        <ele>219.905035</ele>
        <time>2020-10-05T10:13:54.506Z</time>
      </trkpt>
      <trkpt lat="50.176279" lon="5.287093">
        <ele>217.967324</ele>
        <time>2020-10-05T10:13:56.741Z</time>
      </trkpt>
      <trkpt lat="50.176243" lon="5.287160">
        <ele>217.538441</ele>
        <time>2020-10-05T10:13:57.209Z</time>
      </trkpt>
      <trkpt lat="50.176215" lon="5.287224">
        <ele>217.158349</ele>
        <time>2020-10-05T10:13:57.647Z</time>
      </trkpt>
      <trkpt lat="50.176063" lon="5.287497">
        <ele>215.384383</ele>
        <time>2020-10-05T10:14:00.632Z</time>
      </trkpt>
      <trkpt lat="50.175713" lon="5.288138">
        <ele>211.253567</ele>
        <time>2020-10-05T10:14:05.404Z</time>
      </trkpt>
      <trkpt lat="50.175617" lon="5.288300">
        <ele>210.171209</ele>
        <time>2020-10-05T10:14:06.724Z</time>
      </trkpt>
      <trkpt lat="50.175503" lon="5.288189">
        <ele>209.142471</ele>
        <time>2020-10-05T10:14:07.892Z</time>
      </trkpt>
      <trkpt lat="50.175093" lon="5.287342">
        <ele>206.215349</ele>
        <time>2020-10-05T10:14:14.174Z</time>
      </trkpt>
      <trkpt lat="50.174820" lon="5.287161">
        <ele>205.617083</ele>
        <time>2020-10-05T10:14:17.189Z</time>
      </trkpt>
      <trkpt lat="50.174522" lon="5.287133">
        <ele>205.014888</ele>
        <time>2020-10-05T10:14:20.418Z</time>
      </trkpt>
      <trkpt lat="50.174341" lon="5.287201">
        <ele>204.639366</ele>
        <time>2020-10-05T10:14:22.503Z</time>
      </trkpt>
      <trkpt lat="50.173954" lon="5.287678">
        <ele>203.644817</ele>
        <time>2020-10-05T10:14:31.882Z</time>
      </trkpt>
      <trkpt lat="50.173809" lon="5.287869">
        <ele>203.644316</ele>
        <time>2020-10-05T10:14:35.769Z</time>
      </trkpt>
      <trkpt lat="50.173622" lon="5.288126">
        <ele>204.510135</ele>
        <time>2020-10-05T10:14:42.956Z</time>
      </trkpt>
      <trkpt lat="50.173449" lon="5.288420">
        <ele>205.398831</ele>
        <time>2020-10-05T10:14:50.837Z</time>
      </trkpt>
      <trkpt lat="50.173293" lon="5.288774">
        <ele>206.355317</ele>
        <time>2020-10-05T10:14:59.677Z</time>
      </trkpt>
      <trkpt lat="50.173182" lon="5.288898">
        <ele>206.829669</ele>
        <time>2020-10-05T10:15:05.083Z</time>
      </trkpt>
      <trkpt lat="50.173004" lon="5.289114">
        <ele>207.613176</ele>
        <time>2020-10-05T10:15:12.730Z</time>
      </trkpt>
      <trkpt lat="50.172892" lon="5.289244">
        <ele>208.098207</ele>
        <time>2020-10-05T10:15:18.693Z</time>
      </trkpt>
      <trkpt lat="50.172715" lon="5.289281">
        <ele>208.718857</ele>
        <time>2020-10-05T10:15:25.378Z</time>
      </trkpt>
      <trkpt lat="50.172422" lon="5.289063">
        <ele>209.952176</ele>
        <time>2020-10-05T10:15:38.338Z</time>
      </trkpt>
      <trkpt lat="50.172288" lon="5.288928">
        <ele>210.808436</ele>
        <time>2020-10-05T10:15:45.398Z</time>
      </trkpt>
      <trkpt lat="50.172039" lon="5.288633">
        <ele>212.486705</ele>
        <time>2020-10-05T10:15:58.238Z</time>
      </trkpt>
      <trkpt lat="50.171690" lon="5.288246">
        <ele>214.785096</ele>
        <time>2020-10-05T10:16:16.401Z</time>
      </trkpt>
      <trkpt lat="50.171543" lon="5.288158">
        <ele>215.630405</ele>
        <time>2020-10-05T10:16:22.481Z</time>
      </trkpt>
      <trkpt lat="50.171470" lon="5.288130">
        <ele>216.034015</ele>
        <time>2020-10-05T10:16:26.282Z</time>
      </trkpt>
      <trkpt lat="50.171323" lon="5.288073">
        <ele>216.847272</ele>
        <time>2020-10-05T10:16:32.646Z</time>
      </trkpt>
      <trkpt lat="50.171193" lon="5.288038">
        <ele>217.555577</ele>
        <time>2020-10-05T10:16:37.689Z</time>
      </trkpt>
      <trkpt lat="50.171030" lon="5.288018">
        <ele>218.433464</ele>
        <time>2020-10-05T10:16:45.641Z</time>
      </trkpt>
      <trkpt lat="50.170481" lon="5.288148">
        <ele>222.399861</ele>
        <time>2020-10-05T10:17:07.374Z</time>
      </trkpt>
      <trkpt lat="50.170116" lon="5.288248">
        <ele>225.321112</ele>
        <time>2020-10-05T10:17:24.293Z</time>
      </trkpt>
      <trkpt lat="50.169994" lon="5.288242">
        <ele>226.283312</ele>
        <time>2020-10-05T10:17:32.076Z</time>
      </trkpt>
      <trkpt lat="50.169844" lon="5.288172">
        <ele>227.517450</ele>
        <time>2020-10-05T10:17:38.636Z</time>
      </trkpt>
      <trkpt lat="50.169047" lon="5.287401">
        <ele>235.509150</ele>
        <time>2020-10-05T10:18:35.083Z</time>
      </trkpt>
      <trkpt lat="50.168911" lon="5.287239">
        <ele>237.428533</ele>
        <time>2020-10-05T10:18:44.638Z</time>
      </trkpt>
      <trkpt lat="50.168795" lon="5.287304">
        <ele>238.811370</ele>
        <time>2020-10-05T10:18:54.214Z</time>
      </trkpt>
      <trkpt lat="50.168156" lon="5.287538">
        <ele>246.175671</ele>
        <time>2020-10-05T10:19:33.312Z</time>
      </trkpt>
      <trkpt lat="50.167690" lon="5.288015">
        <ele>252.427942</ele>
        <time>2020-10-05T10:20:09.386Z</time>
      </trkpt>
      <trkpt lat="50.167399" lon="5.288513">
        <ele>256.032995</ele>
        <time>2020-10-05T10:20:36.119Z</time>
      </trkpt>
      <trkpt lat="50.167302" lon="5.288784">
        <ele>257.496253</ele>
        <time>2020-10-05T10:20:45.761Z</time>
      </trkpt>
      <trkpt lat="50.167240" lon="5.289286">
        <ele>259.906014</ele>
        <time>2020-10-05T10:21:00.755Z</time>
      </trkpt>
      <trkpt lat="50.167256" lon="5.289591">
        <ele>261.348446</ele>
        <time>2020-10-05T10:21:09.142Z</time>
      </trkpt>
      <trkpt lat="50.167334" lon="5.290109">
        <ele>263.856597</ele>
        <time>2020-10-05T10:21:22.315Z</time>
      </trkpt>
      <trkpt lat="50.167411" lon="5.290495">
        <ele>265.762192</ele>
        <time>2020-10-05T10:21:30.983Z</time>
      </trkpt>
      <trkpt lat="50.167461" lon="5.291106">
        <ele>267.515196</ele>
        <time>2020-10-05T10:21:42.869Z</time>
      </trkpt>
      <trkpt lat="50.167423" lon="5.291333">
        <ele>267.897998</ele>
        <time>2020-10-05T10:21:46.871Z</time>
      </trkpt>
      <trkpt lat="50.167193" lon="5.291772">
        <ele>268.823325</ele>
        <time>2020-10-05T10:21:55.960Z</time>
      </trkpt>
      <trkpt lat="50.166562" lon="5.292658">
        <ele>270.985015</ele>
        <time>2020-10-05T10:22:15.107Z</time>
      </trkpt>
      <trkpt lat="50.166429" lon="5.292953">
        <ele>271.552560</ele>
        <time>2020-10-05T10:22:19.772Z</time>
      </trkpt>
      <trkpt lat="50.166399" lon="5.293118">
        <ele>271.763949</ele>
        <time>2020-10-05T10:22:22.741Z</time>
      </trkpt>
      <trkpt lat="50.166370" lon="5.293397">
        <ele>272.112303</ele>
        <time>2020-10-05T10:22:26.352Z</time>
      </trkpt>
      <trkpt lat="50.166296" lon="5.294451">
        <ele>273.419097</ele>
        <time>2020-10-05T10:22:41.989Z</time>
      </trkpt>
      <trkpt lat="50.166333" lon="5.294889">
        <ele>273.963590</ele>
        <time>2020-10-05T10:22:48.692Z</time>
      </trkpt>
      <trkpt lat="50.166419" lon="5.295280">
        <ele>274.473099</ele>
        <time>2020-10-05T10:22:54.843Z</time>
      </trkpt>
      <trkpt lat="50.166890" lon="5.297100">
        <ele>276.652286</ele>
        <time>2020-10-05T10:23:21.797Z</time>
      </trkpt>
      <trkpt lat="50.166926" lon="5.297469">
        <ele>277.055508</ele>
        <time>2020-10-05T10:23:26.863Z</time>
      </trkpt>
      <trkpt lat="50.166902" lon="5.297714">
        <ele>277.323254</ele>
        <time>2020-10-05T10:23:30.260Z</time>
      </trkpt>
      <trkpt lat="50.166766" lon="5.298162">
        <ele>277.858821</ele>
        <time>2020-10-05T10:23:36.901Z</time>
      </trkpt>
      <trkpt lat="50.166383" lon="5.299390">
        <ele>280.091925</ele>
        <time>2020-10-05T10:23:56.406Z</time>
      </trkpt>
      <trkpt lat="50.166248" lon="5.299777">
        <ele>280.834600</ele>
        <time>2020-10-05T10:24:05.360Z</time>
      </trkpt>
      <trkpt lat="50.165830" lon="5.300664">
        <ele>282.690478</ele>
        <time>2020-10-05T10:24:28.887Z</time>
      </trkpt>
      <trkpt lat="50.165718" lon="5.300814">
        <ele>283.390093</ele>
        <time>2020-10-05T10:24:33.773Z</time>
      </trkpt>
      <trkpt lat="50.165563" lon="5.300977">
        <ele>284.301496</ele>
        <time>2020-10-05T10:24:39.889Z</time>
      </trkpt>
      <trkpt lat="50.165276" lon="5.301211">
        <ele>285.880515</ele>
        <time>2020-10-05T10:24:50.197Z</time>
      </trkpt>
      <trkpt lat="50.165197" lon="5.301420">
        <ele>286.638607</ele>
        <time>2020-10-05T10:24:55.242Z</time>
      </trkpt>
      <trkpt lat="50.165245" lon="5.301631">
        <ele>287.338086</ele>
        <time>2020-10-05T10:25:00.213Z</time>
      </trkpt>
      <trkpt lat="50.165584" lon="5.302004">
        <ele>289.360670</ele>
        <time>2020-10-05T10:25:15.113Z</time>
      </trkpt>
      <trkpt lat="50.165607" lon="5.302254">
        <ele>290.149658</ele>
        <time>2020-10-05T10:25:21.017Z</time>
      </trkpt>
      <trkpt lat="50.165549" lon="5.302562">
        <ele>291.152533</ele>
        <time>2020-10-05T10:25:29.106Z</time>
      </trkpt>
      <trkpt lat="50.165188" lon="5.303538">
        <ele>295.742571</ele>
        <time>2020-10-05T10:25:58.177Z</time>
      </trkpt>
      <trkpt lat="50.164689" lon="5.303894">
        <ele>299.315659</ele>
        <time>2020-10-05T10:26:21.899Z</time>
      </trkpt>
      <trkpt lat="50.164541" lon="5.304165">
        <ele>300.801343</ele>
        <time>2020-10-05T10:26:31.538Z</time>
      </trkpt>
      <trkpt lat="50.164448" lon="5.304543">
        <ele>302.490631</ele>
        <time>2020-10-05T10:26:41.910Z</time>
      </trkpt>
      <trkpt lat="50.164448" lon="5.304719">
        <ele>303.221218</ele>
        <time>2020-10-05T10:26:47.059Z</time>
      </trkpt>
      <trkpt lat="50.164490" lon="5.305008">
        <ele>304.279997</ele>
        <time>2020-10-05T10:26:54.680Z</time>
      </trkpt>
      <trkpt lat="50.165073" lon="5.307334">
        <ele>313.203783</ele>
        <time>2020-10-05T10:27:55.349Z</time>
      </trkpt>
      <trkpt lat="50.165024" lon="5.307942">
        <ele>313.719831</ele>
        <time>2020-10-05T10:28:06.146Z</time>
      </trkpt>
      <trkpt lat="50.164964" lon="5.308262">
        <ele>313.989113</ele>
        <time>2020-10-05T10:28:12.011Z</time>
      </trkpt>
      <trkpt lat="50.164952" lon="5.308392">
        <ele>314.095189</ele>
        <time>2020-10-05T10:28:14.274Z</time>
      </trkpt>
      <trkpt lat="50.164896" lon="5.309207">
        <ele>314.757176</ele>
        <time>2020-10-05T10:28:23.923Z</time>
      </trkpt>
      <trkpt lat="50.164668" lon="5.310369">
        <ele>314.740665</ele>
        <time>2020-10-05T10:28:33.395Z</time>
      </trkpt>
      <trkpt lat="50.164600" lon="5.310587">
        <ele>314.121835</ele>
        <time>2020-10-05T10:28:35.183Z</time>
      </trkpt>
      <trkpt lat="50.164493" lon="5.310907">
        <ele>313.200569</ele>
        <time>2020-10-05T10:28:37.436Z</time>
      </trkpt>
      <trkpt lat="50.164319" lon="5.311490">
        <ele>311.559074</ele>
        <time>2020-10-05T10:28:41.483Z</time>
      </trkpt>
      <trkpt lat="50.164155" lon="5.312234">
        <ele>309.550964</ele>
        <time>2020-10-05T10:28:46.254Z</time>
      </trkpt>
      <trkpt lat="50.162195" lon="5.312292">
        <ele>298.263172</ele>
        <time>2020-10-05T10:29:11.960Z</time>
      </trkpt>
      <trkpt lat="50.162027" lon="5.312331">
        <ele>297.200199</ele>
        <time>2020-10-05T10:29:14.181Z</time>
      </trkpt>
      <trkpt lat="50.161593" lon="5.312721">
        <ele>293.583414</ele>
        <time>2020-10-05T10:29:20.649Z</time>
      </trkpt>
      <trkpt lat="50.161463" lon="5.312852">
        <ele>292.465865</ele>
        <time>2020-10-05T10:29:22.644Z</time>
      </trkpt>
      <trkpt lat="50.160510" lon="5.313744">
        <ele>284.440415</ele>
        <time>2020-10-05T10:29:36.730Z</time>
      </trkpt>
      <trkpt lat="50.157978" lon="5.315072">
        <ele>264.661976</ele>
        <time>2020-10-05T10:30:10.406Z</time>
      </trkpt>
      <trkpt lat="50.156141" lon="5.315739">
        <ele>255.606707</ele>
        <time>2020-10-05T10:30:35.837Z</time>
      </trkpt>
      <trkpt lat="50.155563" lon="5.316140">
        <ele>253.585372</ele>
        <time>2020-10-05T10:30:46.330Z</time>
      </trkpt>
      <trkpt lat="50.155274" lon="5.316203">
        <ele>252.854683</ele>
        <time>2020-10-05T10:30:51.494Z</time>
      </trkpt>
      <trkpt lat="50.155114" lon="5.316156">
        <ele>252.748115</ele>
        <time>2020-10-05T10:30:54.444Z</time>
      </trkpt>
      <trkpt lat="50.154522" lon="5.315588">
        <ele>252.293255</ele>
        <time>2020-10-05T10:31:08.025Z</time>
      </trkpt>
      <trkpt lat="50.154374" lon="5.315537">
        <ele>252.194048</ele>
        <time>2020-10-05T10:31:10.781Z</time>
      </trkpt>
      <trkpt lat="50.154232" lon="5.315515">
        <ele>252.100644</ele>
        <time>2020-10-05T10:31:13.801Z</time>
      </trkpt>
      <trkpt lat="50.152800" lon="5.315223">
        <ele>250.383419</ele>
        <time>2020-10-05T10:31:38.600Z</time>
      </trkpt>
      <trkpt lat="50.152197" lon="5.315253">
        <ele>249.457452</ele>
        <time>2020-10-05T10:31:47.872Z</time>
      </trkpt>
      <trkpt lat="50.150949" lon="5.315624">
        <ele>247.621324</ele>
        <time>2020-10-05T10:32:08.671Z</time>
      </trkpt>
      <trkpt lat="50.150594" lon="5.315585">
        <ele>247.117641</ele>
        <time>2020-10-05T10:32:14.738Z</time>
      </trkpt>
      <trkpt lat="50.149888" lon="5.315353">
        <ele>246.123364</ele>
        <time>2020-10-05T10:32:27.103Z</time>
      </trkpt>
      <trkpt lat="50.148640" lon="5.314766">
        <ele>244.430231</ele>
        <time>2020-10-05T10:32:48.913Z</time>
      </trkpt>
      <trkpt lat="50.148357" lon="5.314820">
        <ele>244.055853</ele>
        <time>2020-10-05T10:32:53.676Z</time>
      </trkpt>
      <trkpt lat="50.147732" lon="5.315109">
        <ele>243.081878</ele>
        <time>2020-10-05T10:33:04.587Z</time>
      </trkpt>
      <trkpt lat="50.147598" lon="5.315166">
        <ele>242.874357</ele>
        <time>2020-10-05T10:33:06.886Z</time>
      </trkpt>
      <trkpt lat="50.147362" lon="5.315220">
        <ele>242.517968</ele>
        <time>2020-10-05T10:33:10.773Z</time>
      </trkpt>
      <trkpt lat="50.146405" lon="5.315244">
        <ele>241.136994</ele>
        <time>2020-10-05T10:33:26.422Z</time>
      </trkpt>
      <trkpt lat="50.146154" lon="5.314576">
        <ele>240.512473</ele>
        <time>2020-10-05T10:33:34.386Z</time>
      </trkpt>
      <trkpt lat="50.145767" lon="5.313350">
        <ele>239.410255</ele>
        <time>2020-10-05T10:33:49.085Z</time>
      </trkpt>
      <trkpt lat="50.145726" lon="5.312484">
        <ele>239.446448</ele>
        <time>2020-10-05T10:33:59.579Z</time>
      </trkpt>
      <trkpt lat="50.145591" lon="5.312418">
        <ele>239.576410</ele>
        <time>2020-10-05T10:34:02.573Z</time>
      </trkpt>
      <trkpt lat="50.145507" lon="5.312377">
        <ele>239.657263</ele>
        <time>2020-10-05T10:34:04.466Z</time>
      </trkpt>
      <trkpt lat="50.144857" lon="5.312059">
        <ele>240.283046</ele>
        <time>2020-10-05T10:34:21.124Z</time>
      </trkpt>
      <trkpt lat="50.144724" lon="5.312015">
        <ele>240.407943</ele>
        <time>2020-10-05T10:34:24.848Z</time>
      </trkpt>
      <trkpt lat="50.144451" lon="5.311927">
        <ele>240.664030</ele>
        <time>2020-10-05T10:34:32.389Z</time>
      </trkpt>
      <trkpt lat="50.144404" lon="5.311895">
        <ele>240.711137</ele>
        <time>2020-10-05T10:34:33.853Z</time>
      </trkpt>
      <trkpt lat="50.144363" lon="5.311837">
        <ele>240.761976</ele>
        <time>2020-10-05T10:34:35.599Z</time>
      </trkpt>
      <trkpt lat="50.144136" lon="5.311838">
        <ele>241.291001</ele>
        <time>2020-10-05T10:34:42.199Z</time>
      </trkpt>
      <trkpt lat="50.143887" lon="5.311836">
        <ele>241.921423</ele>
        <time>2020-10-05T10:34:49.918Z</time>
      </trkpt>
      <trkpt lat="50.143580" lon="5.311777">
        <ele>242.704553</ele>
        <time>2020-10-05T10:34:59.434Z</time>
      </trkpt>
      <trkpt lat="50.143005" lon="5.311836">
        <ele>244.163473</ele>
        <time>2020-10-05T10:35:16.883Z</time>
      </trkpt>
      <trkpt lat="50.142647" lon="5.311952">
        <ele>245.089187</ele>
        <time>2020-10-05T10:35:28.258Z</time>
      </trkpt>
      <trkpt lat="50.142319" lon="5.312176">
        <ele>246.251178</ele>
        <time>2020-10-05T10:35:39.144Z</time>
      </trkpt>
      <trkpt lat="50.142140" lon="5.312453">
        <ele>247.138854</ele>
        <time>2020-10-05T10:35:47.883Z</time>
      </trkpt>
      <trkpt lat="50.142007" lon="5.312857">
        <ele>248.163770</ele>
        <time>2020-10-05T10:35:57.791Z</time>
      </trkpt>
      <trkpt lat="50.141934" lon="5.313181">
        <ele>248.938780</ele>
        <time>2020-10-05T10:36:04.839Z</time>
      </trkpt>
      <trkpt lat="50.141851" lon="5.313500">
        <ele>249.715705</ele>
        <time>2020-10-05T10:36:13.014Z</time>
      </trkpt>
      <trkpt lat="50.141715" lon="5.313758">
        <ele>250.469549</ele>
        <time>2020-10-05T10:36:20.574Z</time>
      </trkpt>
      <trkpt lat="50.141439" lon="5.314003">
        <ele>251.587629</ele>
        <time>2020-10-05T10:36:31.511Z</time>
      </trkpt>
      <trkpt lat="50.141387" lon="5.314043">
        <ele>251.811873</ele>
        <time>2020-10-05T10:36:34.454Z</time>
      </trkpt>
      <trkpt lat="50.140648" lon="5.314494">
        <ele>255.086794</ele>
        <time>2020-10-05T10:37:04.218Z</time>
      </trkpt>
      <trkpt lat="50.140372" lon="5.314575">
        <ele>256.245847</ele>
        <time>2020-10-05T10:37:14.604Z</time>
      </trkpt>
      <trkpt lat="50.139385" lon="5.314146">
        <ele>261.308293</ele>
        <time>2020-10-05T10:37:50.757Z</time>
      </trkpt>
      <trkpt lat="50.139200" lon="5.314014">
        <ele>262.656552</ele>
        <time>2020-10-05T10:37:58.061Z</time>
      </trkpt>
      <trkpt lat="50.138733" lon="5.313483">
        <ele>266.486414</ele>
        <time>2020-10-05T10:38:26.495Z</time>
      </trkpt>
      <trkpt lat="50.138612" lon="5.313334">
        <ele>267.508054</ele>
        <time>2020-10-05T10:38:32.809Z</time>
      </trkpt>
      <trkpt lat="50.138356" lon="5.313079">
        <ele>269.521053</ele>
        <time>2020-10-05T10:38:48.472Z</time>
      </trkpt>
      <trkpt lat="50.138124" lon="5.312790">
        <ele>271.636864</ele>
        <time>2020-10-05T10:39:07.301Z</time>
      </trkpt>
      <trkpt lat="50.138004" lon="5.312657">
        <ele>272.920325</ele>
        <time>2020-10-05T10:39:13.751Z</time>
      </trkpt>
      <trkpt lat="50.137967" lon="5.312616">
        <ele>273.316032</ele>
        <time>2020-10-05T10:39:18.852Z</time>
      </trkpt>
      <trkpt lat="50.137800" lon="5.312507">
        <ele>274.894454</ele>
        <time>2020-10-05T10:39:28.382Z</time>
      </trkpt>
      <trkpt lat="50.137425" lon="5.312469">
        <ele>278.171115</ele>
        <time>2020-10-05T10:39:50.229Z</time>
      </trkpt>
      <trkpt lat="50.136971" lon="5.312619">
        <ele>282.217509</ele>
        <time>2020-10-05T10:40:15.256Z</time>
      </trkpt>
      <trkpt lat="50.136776" lon="5.312772">
        <ele>284.120694</ele>
        <time>2020-10-05T10:40:30.040Z</time>
      </trkpt>
      <trkpt lat="50.136538" lon="5.313000">
        <ele>286.555895</ele>
        <time>2020-10-05T10:40:45.989Z</time>
      </trkpt>
      <trkpt lat="50.135579" lon="5.313984">
        <ele>290.290014</ele>
        <time>2020-10-05T10:41:29.877Z</time>
      </trkpt>
      <trkpt lat="50.134925" lon="5.314865">
        <ele>292.125815</ele>
        <time>2020-10-05T10:41:46.219Z</time>
      </trkpt>
      <trkpt lat="50.134197" lon="5.316390">
        <ele>290.376638</ele>
        <time>2020-10-05T10:42:05.964Z</time>
      </trkpt>
      <trkpt lat="50.133700" lon="5.317181">
        <ele>289.623684</ele>
        <time>2020-10-05T10:42:17.237Z</time>
      </trkpt>
      <trkpt lat="50.133285" lon="5.317554">
        <ele>289.326360</ele>
        <time>2020-10-05T10:42:25.239Z</time>
      </trkpt>
      <trkpt lat="50.132505" lon="5.318075">
        <ele>288.799629</ele>
        <time>2020-10-05T10:42:41.334Z</time>
      </trkpt>
      <trkpt lat="50.131398" lon="5.319040">
        <ele>290.932237</ele>
        <time>2020-10-05T10:43:14.683Z</time>
      </trkpt>
      <trkpt lat="50.131286" lon="5.319061">
        <ele>291.155371</ele>
        <time>2020-10-05T10:43:17.754Z</time>
      </trkpt>
      <trkpt lat="50.131186" lon="5.319048">
        <ele>291.353860</ele>
        <time>2020-10-05T10:43:21.456Z</time>
      </trkpt>
      <trkpt lat="50.131025" lon="5.319369">
        <ele>291.870665</ele>
        <time>2020-10-05T10:43:29.153Z</time>
      </trkpt>
      <trkpt lat="50.130363" lon="5.320177">
        <ele>295.284885</ele>
        <time>2020-10-05T10:43:58.966Z</time>
      </trkpt>
      <trkpt lat="50.130236" lon="5.321002">
        <ele>297.849631</ele>
        <time>2020-10-05T10:44:19.673Z</time>
      </trkpt>
      <trkpt lat="50.130214" lon="5.322910">
        <ele>305.321880</ele>
        <time>2020-10-05T10:45:14.007Z</time>
      </trkpt>
      <trkpt lat="50.129773" lon="5.324212">
        <ele>312.416650</ele>
        <time>2020-10-05T10:46:03.420Z</time>
      </trkpt>
      <trkpt lat="50.129660" lon="5.325455">
        <ele>319.426612</ele>
        <time>2020-10-05T10:46:49.090Z</time>
      </trkpt>
      <trkpt lat="50.129418" lon="5.326614">
        <ele>326.644212</ele>
        <time>2020-10-05T10:47:34.663Z</time>
      </trkpt>
      <trkpt lat="50.129426" lon="5.326906">
        <ele>328.374803</ele>
        <time>2020-10-05T10:47:45.635Z</time>
      </trkpt>
      <trkpt lat="50.129655" lon="5.327800">
        <ele>333.988693</ele>
        <time>2020-10-05T10:48:21.413Z</time>
      </trkpt>
      <trkpt lat="50.129487" lon="5.329379">
        <ele>343.209108</ele>
        <time>2020-10-05T10:49:18.169Z</time>
      </trkpt>
      <trkpt lat="50.129531" lon="5.330562">
        <ele>350.332894</ele>
        <time>2020-10-05T10:50:00.446Z</time>
      </trkpt>
      <trkpt lat="50.129308" lon="5.331903">
        <ele>359.107289</ele>
        <time>2020-10-05T10:50:52.886Z</time>
      </trkpt>
      <trkpt lat="50.129261" lon="5.332257">
        <ele>361.396951</ele>
        <time>2020-10-05T10:51:08.080Z</time>
      </trkpt>
      <trkpt lat="50.129233" lon="5.332698">
        <ele>364.203721</ele>
        <time>2020-10-05T10:51:26.469Z</time>
      </trkpt>
      <trkpt lat="50.129204" lon="5.333624">
        <ele>369.573431</ele>
        <time>2020-10-05T10:52:03.492Z</time>
      </trkpt>
      <trkpt lat="50.129201" lon="5.333940">
        <ele>371.384017</ele>
        <time>2020-10-05T10:52:15.646Z</time>
      </trkpt>
      <trkpt lat="50.129160" lon="5.334184">
        <ele>372.829136</ele>
        <time>2020-10-05T10:52:25.713Z</time>
      </trkpt>
      <trkpt lat="50.129087" lon="5.334444">
        <ele>374.455301</ele>
        <time>2020-10-05T10:52:36.474Z</time>
      </trkpt>
      <trkpt lat="50.128965" lon="5.335018">
        <ele>377.919835</ele>
        <time>2020-10-05T10:52:57.419Z</time>
      </trkpt>
      <trkpt lat="50.128875" lon="5.336465">
        <ele>382.457336</ele>
        <time>2020-10-05T10:53:38.494Z</time>
      </trkpt>
      <trkpt lat="50.128886" lon="5.337003">
        <ele>383.359925</ele>
        <time>2020-10-05T10:53:48.697Z</time>
      </trkpt>
      <trkpt lat="50.128999" lon="5.337947">
        <ele>384.970202</ele>
        <time>2020-10-05T10:54:02.401Z</time>
      </trkpt>
      <trkpt lat="50.129088" lon="5.339762">
        <ele>385.213135</ele>
        <time>2020-10-05T10:54:23.580Z</time>
      </trkpt>
      <trkpt lat="50.129069" lon="5.339961">
        <ele>385.160363</ele>
        <time>2020-10-05T10:54:25.516Z</time>
      </trkpt>
      <trkpt lat="50.128777" lon="5.340010">
        <ele>385.040201</ele>
        <time>2020-10-05T10:54:29.547Z</time>
      </trkpt>
      <trkpt lat="50.128805" lon="5.340164">
        <ele>384.998215</ele>
        <time>2020-10-05T10:54:30.670Z</time>
      </trkpt>
      <trkpt lat="50.128918" lon="5.340681">
        <ele>384.873102</ele>
        <time>2020-10-05T10:54:35.949Z</time>
      </trkpt>
      <trkpt lat="50.128984" lon="5.340827">
        <ele>385.199662</ele>
        <time>2020-10-05T10:54:38.415Z</time>
      </trkpt>
      <trkpt lat="50.128937" lon="5.341006">
        <ele>385.553246</ele>
        <time>2020-10-05T10:54:41.151Z</time>
      </trkpt>
      <trkpt lat="50.128921" lon="5.341617">
        <ele>386.671050</ele>
        <time>2020-10-05T10:54:49.315Z</time>
      </trkpt>
      <trkpt lat="50.128905" lon="5.341726">
        <ele>386.875453</ele>
        <time>2020-10-05T10:54:50.353Z</time>
      </trkpt>
      <trkpt lat="50.128719" lon="5.342199">
        <ele>387.889777</ele>
        <time>2020-10-05T10:55:00.774Z</time>
      </trkpt>
      <trkpt lat="50.128583" lon="5.342526">
        <ele>388.602293</ele>
        <time>2020-10-05T10:55:08.087Z</time>
      </trkpt>
      <trkpt lat="50.128545" lon="5.342686">
        <ele>388.914192</ele>
        <time>2020-10-05T10:55:11.651Z</time>
      </trkpt>
      <trkpt lat="50.128535" lon="5.342767">
        <ele>389.064977</ele>
        <time>2020-10-05T10:55:13.422Z</time>
      </trkpt>
      <trkpt lat="50.128509" lon="5.342962">
        <ele>389.429057</ele>
        <time>2020-10-05T10:55:17.280Z</time>
      </trkpt>
      <trkpt lat="50.128414" lon="5.343359">
        <ele>390.356978</ele>
        <time>2020-10-05T10:55:26.852Z</time>
      </trkpt>
      <trkpt lat="50.128302" lon="5.343867">
        <ele>392.030377</ele>
        <time>2020-10-05T10:55:39.055Z</time>
      </trkpt>
      <trkpt lat="50.128273" lon="5.344033">
        <ele>392.566329</ele>
        <time>2020-10-05T10:55:42.762Z</time>
      </trkpt>
      <trkpt lat="50.128259" lon="5.344187">
        <ele>393.050843</ele>
        <time>2020-10-05T10:55:46.430Z</time>
      </trkpt>
      <trkpt lat="50.128259" lon="5.344436">
        <ele>393.826485</ele>
        <time>2020-10-05T10:55:52.701Z</time>
      </trkpt>
      <trkpt lat="50.128309" lon="5.344897">
        <ele>395.282920</ele>
        <time>2020-10-05T10:56:03.966Z</time>
      </trkpt>
      <trkpt lat="50.128283" lon="5.345417">
        <ele>396.907654</ele>
        <time>2020-10-05T10:56:16.431Z</time>
      </trkpt>
      <trkpt lat="50.127755" lon="5.346615">
        <ele>399.238245</ele>
        <time>2020-10-05T10:56:44.154Z</time>
      </trkpt>
      <trkpt lat="50.127570" lon="5.347118">
        <ele>399.579811</ele>
        <time>2020-10-05T10:56:51.280Z</time>
      </trkpt>
      <trkpt lat="50.127273" lon="5.347960">
        <ele>400.145872</ele>
        <time>2020-10-05T10:57:00.103Z</time>
      </trkpt>
      <trkpt lat="50.127203" lon="5.348225">
        <ele>400.314692</ele>
        <time>2020-10-05T10:57:02.153Z</time>
      </trkpt>
      <trkpt lat="50.126717" lon="5.349521">
        <ele>396.524379</ele>
        <time>2020-10-05T10:57:12.004Z</time>
      </trkpt>
      <trkpt lat="50.126033" lon="5.350787">
        <ele>391.551009</ele>
        <time>2020-10-05T10:57:21.815Z</time>
      </trkpt>
      <trkpt lat="50.125692" lon="5.351699">
        <ele>386.920726</ele>
        <time>2020-10-05T10:57:27.897Z</time>
      </trkpt>
      <trkpt lat="50.125586" lon="5.351946">
        <ele>385.617161</ele>
        <time>2020-10-05T10:57:29.601Z</time>
      </trkpt>
      <trkpt lat="50.125308" lon="5.352559">
        <ele>382.324078</ele>
        <time>2020-10-05T10:57:33.923Z</time>
      </trkpt>
      <trkpt lat="50.124881" lon="5.353523">
        <ele>378.191466</ele>
        <time>2020-10-05T10:57:40.735Z</time>
      </trkpt>
      <trkpt lat="50.124805" lon="5.353823">
        <ele>377.231588</ele>
        <time>2020-10-05T10:57:42.622Z</time>
      </trkpt>
      <trkpt lat="50.124795" lon="5.354134">
        <ele>376.304980</ele>
        <time>2020-10-05T10:57:44.478Z</time>
      </trkpt>
      <trkpt lat="50.124891" lon="5.354859">
        <ele>374.102060</ele>
        <time>2020-10-05T10:57:49.028Z</time>
      </trkpt>
      <trkpt lat="50.125974" lon="5.358539">
        <ele>368.983805</ele>
        <time>2020-10-05T10:58:18.477Z</time>
      </trkpt>
      <trkpt lat="50.126220" lon="5.359377">
        <ele>369.120843</ele>
        <time>2020-10-05T10:58:26.920Z</time>
      </trkpt>
      <trkpt lat="50.127077" lon="5.362308">
        <ele>372.260953</ele>
        <time>2020-10-05T10:59:09.036Z</time>
      </trkpt>
      <trkpt lat="50.127137" lon="5.362515">
        <ele>372.619124</ele>
        <time>2020-10-05T10:59:12.782Z</time>
      </trkpt>
      <trkpt lat="50.127278" lon="5.363023">
        <ele>373.491897</ele>
        <time>2020-10-05T10:59:22.440Z</time>
      </trkpt>
      <trkpt lat="50.127753" lon="5.365416">
        <ele>383.125263</ele>
        <time>2020-10-05T11:00:26.344Z</time>
      </trkpt>
      <trkpt lat="50.127787" lon="5.365747">
        <ele>384.466697</ele>
        <time>2020-10-05T11:00:35.542Z</time>
      </trkpt>
      <trkpt lat="50.127811" lon="5.365974">
        <ele>385.496617</ele>
        <time>2020-10-05T11:00:43.061Z</time>
      </trkpt>
      <trkpt lat="50.127852" lon="5.366650">
        <ele>388.931065</ele>
        <time>2020-10-05T11:01:02.939Z</time>
      </trkpt>
      <trkpt lat="50.127852" lon="5.366889">
        <ele>390.139917</ele>
        <time>2020-10-05T11:01:10.172Z</time>
      </trkpt>
      <trkpt lat="50.127852" lon="5.366993">
        <ele>390.665944</ele>
        <time>2020-10-05T11:01:14.428Z</time>
      </trkpt>
      <trkpt lat="50.127646" lon="5.369745">
        <ele>403.487774</ele>
        <time>2020-10-05T11:02:36.825Z</time>
      </trkpt>
      <trkpt lat="50.127555" lon="5.370992">
        <ele>408.463649</ele>
        <time>2020-10-05T11:03:06.930Z</time>
      </trkpt>
      <trkpt lat="50.127225" lon="5.375445">
        <ele>421.291038</ele>
        <time>2020-10-05T11:04:37.734Z</time>
      </trkpt>
      <trkpt lat="50.127199" lon="5.375623">
        <ele>421.793355</ele>
        <time>2020-10-05T11:04:41.347Z</time>
      </trkpt>
      <trkpt lat="50.127137" lon="5.375889">
        <ele>422.572126</ele>
        <time>2020-10-05T11:04:47.192Z</time>
      </trkpt>
      <trkpt lat="50.127058" lon="5.376118">
        <ele>423.287655</ele>
        <time>2020-10-05T11:04:52.298Z</time>
      </trkpt>
      <trkpt lat="50.126710" lon="5.376660">
        <ele>425.398307</ele>
        <time>2020-10-05T11:05:08.313Z</time>
      </trkpt>
      <trkpt lat="50.126078" lon="5.377303">
        <ele>428.646605</ele>
        <time>2020-10-05T11:05:33.697Z</time>
      </trkpt>
      <trkpt lat="50.125892" lon="5.377588">
        <ele>429.769329</ele>
        <time>2020-10-05T11:05:41.947Z</time>
      </trkpt>
      <trkpt lat="50.125459" lon="5.378521">
        <ele>432.949048</ele>
        <time>2020-10-05T11:06:05.032Z</time>
      </trkpt>
      <trkpt lat="50.125338" lon="5.378687">
        <ele>433.644716</ele>
        <time>2020-10-05T11:06:10.080Z</time>
      </trkpt>
      <trkpt lat="50.124530" lon="5.379476">
        <ele>437.780511</ele>
        <time>2020-10-05T11:06:40.200Z</time>
      </trkpt>
      <trkpt lat="50.123684" lon="5.380017">
        <ele>441.864572</ele>
        <time>2020-10-05T11:07:09.665Z</time>
      </trkpt>
      <trkpt lat="50.122098" lon="5.380597">
        <ele>450.475587</ele>
        <time>2020-10-05T11:08:08.201Z</time>
      </trkpt>
      <trkpt lat="50.121954" lon="5.380592">
        <ele>451.336031</ele>
        <time>2020-10-05T11:08:13.840Z</time>
      </trkpt>
      <trkpt lat="50.120272" lon="5.379739">
        <ele>462.442648</ele>
        <time>2020-10-05T11:09:26.049Z</time>
      </trkpt>
      <trkpt lat="50.119381" lon="5.379572">
        <ele>467.708870</ele>
        <time>2020-10-05T11:10:01.829Z</time>
      </trkpt>
      <trkpt lat="50.118680" lon="5.379733">
        <ele>471.866871</ele>
        <time>2020-10-05T11:10:28.286Z</time>
      </trkpt>
      <trkpt lat="50.118549" lon="5.379841">
        <ele>472.715562</ele>
        <time>2020-10-05T11:10:33.485Z</time>
      </trkpt>
      <trkpt lat="50.118446" lon="5.380028">
        <ele>473.503672</ele>
        <time>2020-10-05T11:10:38.950Z</time>
      </trkpt>
      <trkpt lat="50.118391" lon="5.380318">
        <ele>474.470486</ele>
        <time>2020-10-05T11:10:45.426Z</time>
      </trkpt>
      <trkpt lat="50.118384" lon="5.381005">
        <ele>476.667056</ele>
        <time>2020-10-05T11:10:59.562Z</time>
      </trkpt>
      <trkpt lat="50.118329" lon="5.381246">
        <ele>477.484863</ele>
        <time>2020-10-05T11:11:05.295Z</time>
      </trkpt>
      <trkpt lat="50.118036" lon="5.381906">
        <ele>480.051205</ele>
        <time>2020-10-05T11:11:23.802Z</time>
      </trkpt>
      <trkpt lat="50.117861" lon="5.382099">
        <ele>481.119848</ele>
        <time>2020-10-05T11:11:31.762Z</time>
      </trkpt>
      <trkpt lat="50.117390" lon="5.382308">
        <ele>483.514515</ele>
        <time>2020-10-05T11:11:48.701Z</time>
      </trkpt>
      <trkpt lat="50.116850" lon="5.382353">
        <ele>486.147393</ele>
        <time>2020-10-05T11:12:07.736Z</time>
      </trkpt>
      <trkpt lat="50.114667" lon="5.382532">
        <ele>496.182516</ele>
        <time>2020-10-05T11:13:20.238Z</time>
      </trkpt>
      <trkpt lat="50.114339" lon="5.382822">
        <ele>497.845699</ele>
        <time>2020-10-05T11:13:31.635Z</time>
      </trkpt>
      <trkpt lat="50.113657" lon="5.383821">
        <ele>502.256964</ele>
        <time>2020-10-05T11:14:01.470Z</time>
      </trkpt>
      <trkpt lat="50.113423" lon="5.384003">
        <ele>503.498517</ele>
        <time>2020-10-05T11:14:10.948Z</time>
      </trkpt>
      <trkpt lat="50.112821" lon="5.384291">
        <ele>506.488287</ele>
        <time>2020-10-05T11:14:32.976Z</time>
      </trkpt>
      <trkpt lat="50.112568" lon="5.384483">
        <ele>508.035582</ele>
        <time>2020-10-05T11:14:42.876Z</time>
      </trkpt>
      <trkpt lat="50.112430" lon="5.384602">
        <ele>508.938287</ele>
        <time>2020-10-05T11:14:49.280Z</time>
      </trkpt>
      <trkpt lat="50.112041" lon="5.385115">
        <ele>511.854628</ele>
        <time>2020-10-05T11:15:07.664Z</time>
      </trkpt>
      <trkpt lat="50.111675" lon="5.386001">
        <ele>515.723521</ele>
        <time>2020-10-05T11:15:34.259Z</time>
      </trkpt>
      <trkpt lat="50.111564" lon="5.386611">
        <ele>518.070253</ele>
        <time>2020-10-05T11:15:50.535Z</time>
      </trkpt>
      <trkpt lat="50.111548" lon="5.387709">
        <ele>522.182018</ele>
        <time>2020-10-05T11:16:17.120Z</time>
      </trkpt>
      <trkpt lat="50.111596" lon="5.388348">
        <ele>524.590668</ele>
        <time>2020-10-05T11:16:32.899Z</time>
      </trkpt>
      <trkpt lat="50.111742" lon="5.389126">
        <ele>527.621320</ele>
        <time>2020-10-05T11:16:52.784Z</time>
      </trkpt>
      <trkpt lat="50.111965" lon="5.389910">
        <ele>530.421447</ele>
        <time>2020-10-05T11:17:13.660Z</time>
      </trkpt>
      <trkpt lat="50.112324" lon="5.390850">
        <ele>533.993404</ele>
        <time>2020-10-05T11:17:39.195Z</time>
      </trkpt>
      <trkpt lat="50.112474" lon="5.391831">
        <ele>536.972484</ele>
        <time>2020-10-05T11:18:00.132Z</time>
      </trkpt>
      <trkpt lat="50.112529" lon="5.392807">
        <ele>538.300684</ele>
        <time>2020-10-05T11:18:17.695Z</time>
      </trkpt>
      <trkpt lat="50.112412" lon="5.396433">
        <ele>541.624063</ele>
        <time>2020-10-05T11:19:01.486Z</time>
      </trkpt>
      <trkpt lat="50.112299" lon="5.399830">
        <ele>543.442306</ele>
        <time>2020-10-05T11:19:38.808Z</time>
      </trkpt>
      <trkpt lat="50.112236" lon="5.401808">
        <ele>545.311255</ele>
        <time>2020-10-05T11:20:08.331Z</time>
      </trkpt>
      <trkpt lat="50.112141" lon="5.402461">
        <ele>545.980891</ele>
        <time>2020-10-05T11:20:17.415Z</time>
      </trkpt>
      <trkpt lat="50.112098" lon="5.402571">
        <ele>546.109725</ele>
        <time>2020-10-05T11:20:19.735Z</time>
      </trkpt>
      <trkpt lat="50.111994" lon="5.402797">
        <ele>546.360634</ele>
        <time>2020-10-05T11:20:22.556Z</time>
      </trkpt>
      <trkpt lat="50.111889" lon="5.402978">
        <ele>546.133471</ele>
        <time>2020-10-05T11:20:25.604Z</time>
      </trkpt>
      <trkpt lat="50.111566" lon="5.403267">
        <ele>545.592996</ele>
        <time>2020-10-05T11:20:31.245Z</time>
      </trkpt>
      <trkpt lat="50.110579" lon="5.403837">
        <ele>544.065424</ele>
        <time>2020-10-05T11:20:42.947Z</time>
      </trkpt>
      <trkpt lat="50.110300" lon="5.403847">
        <ele>543.454086</ele>
        <time>2020-10-05T11:20:45.690Z</time>
      </trkpt>
      <trkpt lat="50.109694" lon="5.403579">
        <ele>540.707467</ele>
        <time>2020-10-05T11:20:51.790Z</time>
      </trkpt>
      <trkpt lat="50.109536" lon="5.403557">
        <ele>540.015784</ele>
        <time>2020-10-05T11:20:53.282Z</time>
      </trkpt>
      <trkpt lat="50.109300" lon="5.403633">
        <ele>538.965015</ele>
        <time>2020-10-05T11:20:55.635Z</time>
      </trkpt>
      <trkpt lat="50.109207" lon="5.403715">
        <ele>538.499155</ele>
        <time>2020-10-05T11:20:56.618Z</time>
      </trkpt>
      <trkpt lat="50.108949" lon="5.404055">
        <ele>537.026204</ele>
        <time>2020-10-05T11:20:59.849Z</time>
      </trkpt>
      <trkpt lat="50.108449" lon="5.404673">
        <ele>534.049821</ele>
        <time>2020-10-05T11:21:05.901Z</time>
      </trkpt>
      <trkpt lat="50.107664" lon="5.405188">
        <ele>529.905857</ele>
        <time>2020-10-05T11:21:13.851Z</time>
      </trkpt>
      <trkpt lat="50.107252" lon="5.405327">
        <ele>527.854765</ele>
        <time>2020-10-05T11:21:17.927Z</time>
      </trkpt>
      <trkpt lat="50.106416" lon="5.405421">
        <ele>524.469133</ele>
        <time>2020-10-05T11:21:26.062Z</time>
      </trkpt>
      <trkpt lat="50.106180" lon="5.405555">
        <ele>523.496592</ele>
        <time>2020-10-05T11:21:28.520Z</time>
      </trkpt>
      <trkpt lat="50.106081" lon="5.405698">
        <ele>522.974024</ele>
        <time>2020-10-05T11:21:29.847Z</time>
      </trkpt>
      <trkpt lat="50.105957" lon="5.406003">
        <ele>522.077198</ele>
        <time>2020-10-05T11:21:32.154Z</time>
      </trkpt>
      <trkpt lat="50.105947" lon="5.406363">
        <ele>521.182302</ele>
        <time>2020-10-05T11:21:34.492Z</time>
      </trkpt>
      <trkpt lat="50.106375" lon="5.407898">
        <ele>516.840209</ele>
        <time>2020-10-05T11:21:45.211Z</time>
      </trkpt>
      <trkpt lat="50.106496" lon="5.408555">
        <ele>515.043678</ele>
        <time>2020-10-05T11:21:49.492Z</time>
      </trkpt>
      <trkpt lat="50.106519" lon="5.408846">
        <ele>514.273078</ele>
        <time>2020-10-05T11:21:51.351Z</time>
      </trkpt>
      <trkpt lat="50.106292" lon="5.408754">
        <ele>513.311946</ele>
        <time>2020-10-05T11:21:54.552Z</time>
      </trkpt>
      <trkpt lat="50.103503" lon="5.407149">
        <ele>497.619457</ele>
        <time>2020-10-05T11:22:34.322Z</time>
      </trkpt>
      <trkpt lat="50.102892" lon="5.406899">
        <ele>494.192883</ele>
        <time>2020-10-05T11:22:42.706Z</time>
      </trkpt>
      <trkpt lat="50.102574" lon="5.406872">
        <ele>492.843571</ele>
        <time>2020-10-05T11:22:46.919Z</time>
      </trkpt>
      <trkpt lat="50.102404" lon="5.406935">
        <ele>492.211896</ele>
        <time>2020-10-05T11:22:49.178Z</time>
      </trkpt>
      <trkpt lat="50.101539" lon="5.407491">
        <ele>488.829571</ele>
        <time>2020-10-05T11:23:02.225Z</time>
      </trkpt>
      <trkpt lat="50.100935" lon="5.407974">
        <ele>487.548145</ele>
        <time>2020-10-05T11:23:13.024Z</time>
      </trkpt>
      <trkpt lat="50.100880" lon="5.408027">
        <ele>487.694280</ele>
        <time>2020-10-05T11:23:14.617Z</time>
      </trkpt>
      <trkpt lat="50.099635" lon="5.409112">
        <ele>490.917916</ele>
        <time>2020-10-05T11:23:59.053Z</time>
      </trkpt>
      <trkpt lat="50.099306" lon="5.409372">
        <ele>493.026858</ele>
        <time>2020-10-05T11:24:14.755Z</time>
      </trkpt>
      <trkpt lat="50.099135" lon="5.409484">
        <ele>494.353133</ele>
        <time>2020-10-05T11:24:22.805Z</time>
      </trkpt>
      <trkpt lat="50.098618" lon="5.409808">
        <ele>498.337493</ele>
        <time>2020-10-05T11:24:49.550Z</time>
      </trkpt>
      <trkpt lat="50.097631" lon="5.410317">
        <ele>506.023638</ele>
        <time>2020-10-05T11:25:47.582Z</time>
      </trkpt>
      <trkpt lat="50.097317" lon="5.410540">
        <ele>508.847257</ele>
        <time>2020-10-05T11:26:06.671Z</time>
      </trkpt>
      <trkpt lat="50.097198" lon="5.410667">
        <ele>510.027405</ele>
        <time>2020-10-05T11:26:16.110Z</time>
      </trkpt>
      <trkpt lat="50.097043" lon="5.410980">
        <ele>512.103104</ele>
        <time>2020-10-05T11:26:28.463Z</time>
      </trkpt>
      <trkpt lat="50.096980" lon="5.411241">
        <ele>513.566995</ele>
        <time>2020-10-05T11:26:38.625Z</time>
      </trkpt>
      <trkpt lat="50.096840" lon="5.412209">
        <ele>518.757859</ele>
        <time>2020-10-05T11:27:11.930Z</time>
      </trkpt>
      <trkpt lat="50.096691" lon="5.412781">
        <ele>520.260559</ele>
        <time>2020-10-05T11:27:30.747Z</time>
      </trkpt>
      <trkpt lat="50.095630" lon="5.415916">
        <ele>526.967013</ele>
        <time>2020-10-05T11:28:39.967Z</time>
      </trkpt>
      <trkpt lat="50.095430" lon="5.416385">
        <ele>527.544870</ele>
        <time>2020-10-05T11:28:48.544Z</time>
      </trkpt>
      <trkpt lat="50.095171" lon="5.416759">
        <ele>528.109570</ele>
        <time>2020-10-05T11:28:56.658Z</time>
      </trkpt>
      <trkpt lat="50.094658" lon="5.417068">
        <ele>528.674698</ele>
        <time>2020-10-05T11:29:08.584Z</time>
      </trkpt>
      <trkpt lat="50.092010" lon="5.418201">
        <ele>531.094768</ele>
        <time>2020-10-05T11:30:12.313Z</time>
      </trkpt>
      <trkpt lat="50.091476" lon="5.418373">
        <ele>531.709964</ele>
        <time>2020-10-05T11:30:27.667Z</time>
      </trkpt>
      <trkpt lat="50.090902" lon="5.418459">
        <ele>532.493793</ele>
        <time>2020-10-05T11:30:43.752Z</time>
      </trkpt>
      <trkpt lat="50.090295" lon="5.418409">
        <ele>533.320033</ele>
        <time>2020-10-05T11:31:00.708Z</time>
      </trkpt>
      <trkpt lat="50.083661" lon="5.417100">
        <ele>534.986235</ele>
        <time>2020-10-05T11:33:23.238Z</time>
      </trkpt>
      <trkpt lat="50.083118" lon="5.417066">
        <ele>534.524245</ele>
        <time>2020-10-05T11:33:32.168Z</time>
      </trkpt>
      <trkpt lat="50.082745" lon="5.417209">
        <ele>534.197694</ele>
        <time>2020-10-05T11:33:38.369Z</time>
      </trkpt>
      <trkpt lat="50.082596" lon="5.417349">
        <ele>534.060318</ele>
        <time>2020-10-05T11:33:41.070Z</time>
      </trkpt>
      <trkpt lat="50.082393" lon="5.417610">
        <ele>534.024881</ele>
        <time>2020-10-05T11:33:45.295Z</time>
      </trkpt>
      <trkpt lat="50.082220" lon="5.417915">
        <ele>533.989708</ele>
        <time>2020-10-05T11:33:49.489Z</time>
      </trkpt>
      <trkpt lat="50.081248" lon="5.420053">
        <ele>535.046828</ele>
        <time>2020-10-05T11:34:26.932Z</time>
      </trkpt>
      <trkpt lat="50.080286" lon="5.422174">
        <ele>539.695043</ele>
        <time>2020-10-05T11:35:27.145Z</time>
      </trkpt>
      <trkpt lat="50.077006" lon="5.429291">
        <ele>550.324494</ele>
        <time>2020-10-05T11:38:06.006Z</time>
      </trkpt>
      <trkpt lat="50.076402" lon="5.430697">
        <ele>549.891234</ele>
        <time>2020-10-05T11:38:24.536Z</time>
      </trkpt>
      <trkpt lat="50.076082" lon="5.431446">
        <ele>548.698145</ele>
        <time>2020-10-05T11:38:33.534Z</time>
      </trkpt>
      <trkpt lat="50.076051" lon="5.431512">
        <ele>548.544783</ele>
        <time>2020-10-05T11:38:34.340Z</time>
      </trkpt>
      <trkpt lat="50.075981" lon="5.431680">
        <ele>548.169192</ele>
        <time>2020-10-05T11:38:35.720Z</time>
      </trkpt>
      <trkpt lat="50.075948" lon="5.431737">
        <ele>548.025246</ele>
        <time>2020-10-05T11:38:36.244Z</time>
      </trkpt>
      <trkpt lat="50.075873" lon="5.431928">
        <ele>547.605376</ele>
        <time>2020-10-05T11:38:37.693Z</time>
      </trkpt>
      <trkpt lat="50.075830" lon="5.432098">
        <ele>547.262739</ele>
        <time>2020-10-05T11:38:38.930Z</time>
      </trkpt>
      <trkpt lat="50.075847" lon="5.432254">
        <ele>546.966031</ele>
        <time>2020-10-05T11:38:39.982Z</time>
      </trkpt>
      <trkpt lat="50.076031" lon="5.433339">
        <ele>544.861689</ele>
        <time>2020-10-05T11:38:47.191Z</time>
      </trkpt>
      <trkpt lat="50.076043" lon="5.433503">
        <ele>544.550178</ele>
        <time>2020-10-05T11:38:48.228Z</time>
      </trkpt>
      <trkpt lat="50.076129" lon="5.434611">
        <ele>541.715642</ele>
        <time>2020-10-05T11:38:55.396Z</time>
      </trkpt>
      <trkpt lat="50.076280" lon="5.436579">
        <ele>536.619600</ele>
        <time>2020-10-05T11:39:07.770Z</time>
      </trkpt>
      <trkpt lat="50.076452" lon="5.438806">
        <ele>530.454958</ele>
        <time>2020-10-05T11:39:21.583Z</time>
      </trkpt>
      <trkpt lat="50.076500" lon="5.439439">
        <ele>529.150388</ele>
        <time>2020-10-05T11:39:25.678Z</time>
      </trkpt>
      <trkpt lat="50.076507" lon="5.439527">
        <ele>529.012072</ele>
        <time>2020-10-05T11:39:26.205Z</time>
      </trkpt>
      <trkpt lat="50.076573" lon="5.440452">
        <ele>527.560337</ele>
        <time>2020-10-05T11:39:32.497Z</time>
      </trkpt>
      <trkpt lat="50.076579" lon="5.441133">
        <ele>526.497992</ele>
        <time>2020-10-05T11:39:37.268Z</time>
      </trkpt>
      <trkpt lat="50.076525" lon="5.441683">
        <ele>525.630102</ele>
        <time>2020-10-05T11:39:41.355Z</time>
      </trkpt>
      <trkpt lat="50.076325" lon="5.442416">
        <ele>524.903562</ele>
        <time>2020-10-05T11:39:47.890Z</time>
      </trkpt>
      <trkpt lat="50.075104" lon="5.445556">
        <ele>521.118986</ele>
        <time>2020-10-05T11:40:16.226Z</time>
      </trkpt>
      <trkpt lat="50.075071" lon="5.445641">
        <ele>520.974129</ele>
        <time>2020-10-05T11:40:16.808Z</time>
      </trkpt>
      <trkpt lat="50.074919" lon="5.446258">
        <ele>520.010443</ele>
        <time>2020-10-05T11:40:21.185Z</time>
      </trkpt>
      <trkpt lat="50.074912" lon="5.446611">
        <ele>519.495469</ele>
        <time>2020-10-05T11:40:23.571Z</time>
      </trkpt>
      <trkpt lat="50.074992" lon="5.447310">
        <ele>517.970382</ele>
        <time>2020-10-05T11:40:27.982Z</time>
      </trkpt>
      <trkpt lat="50.075160" lon="5.447933">
        <ele>516.344380</ele>
        <time>2020-10-05T11:40:32.209Z</time>
      </trkpt>
      <trkpt lat="50.075690" lon="5.449488">
        <ele>512.064525</ele>
        <time>2020-10-05T11:40:43.488Z</time>
      </trkpt>
      <trkpt lat="50.076083" lon="5.450640">
        <ele>508.549458</ele>
        <time>2020-10-05T11:40:51.724Z</time>
      </trkpt>
      <trkpt lat="50.076287" lon="5.451252">
        <ele>506.691425</ele>
        <time>2020-10-05T11:40:56.017Z</time>
      </trkpt>
      <trkpt lat="50.076870" lon="5.453018">
        <ele>500.300493</ele>
        <time>2020-10-05T11:41:08.078Z</time>
      </trkpt>
      <trkpt lat="50.078356" lon="5.457497">
        <ele>482.235789</ele>
        <time>2020-10-05T11:41:37.981Z</time>
      </trkpt>
      <trkpt lat="50.078583" lon="5.458063">
        <ele>480.085772</ele>
        <time>2020-10-05T11:41:42.002Z</time>
      </trkpt>
      <trkpt lat="50.080891" lon="5.462601">
        <ele>463.163761</ele>
        <time>2020-10-05T11:42:17.727Z</time>
      </trkpt>
      <trkpt lat="50.081922" lon="5.464628">
        <ele>456.317098</ele>
        <time>2020-10-05T11:42:33.933Z</time>
      </trkpt>
      <trkpt lat="50.081965" lon="5.464730">
        <ele>456.006282</ele>
        <time>2020-10-05T11:42:34.728Z</time>
      </trkpt>
      <trkpt lat="50.081983" lon="5.464822">
        <ele>455.761329</ele>
        <time>2020-10-05T11:42:35.288Z</time>
      </trkpt>
      <trkpt lat="50.081939" lon="5.465256">
        <ele>454.642316</ele>
        <time>2020-10-05T11:42:38.199Z</time>
      </trkpt>
      <trkpt lat="50.081516" lon="5.466150">
        <ele>451.965339</ele>
        <time>2020-10-05T11:42:45.166Z</time>
      </trkpt>
      <trkpt lat="50.081321" lon="5.467254">
        <ele>449.524186</ele>
        <time>2020-10-05T11:42:52.435Z</time>
      </trkpt>
      <trkpt lat="50.081319" lon="5.467364">
        <ele>449.289582</ele>
        <time>2020-10-05T11:42:53.124Z</time>
      </trkpt>
      <trkpt lat="50.081272" lon="5.467470">
        <ele>449.014901</ele>
        <time>2020-10-05T11:42:53.935Z</time>
      </trkpt>
      <trkpt lat="50.080714" lon="5.468503">
        <ele>446.479117</ele>
        <time>2020-10-05T11:43:03.104Z</time>
      </trkpt>
      <trkpt lat="50.080369" lon="5.469141">
        <ele>445.662509</ele>
        <time>2020-10-05T11:43:08.926Z</time>
      </trkpt>
      <trkpt lat="50.080358" lon="5.469162">
        <ele>445.635976</ele>
        <time>2020-10-05T11:43:09.108Z</time>
      </trkpt>
      <trkpt lat="50.080007" lon="5.469920">
        <ele>444.721069</ele>
        <time>2020-10-05T11:43:16.272Z</time>
      </trkpt>
      <trkpt lat="50.079867" lon="5.469922">
        <ele>444.507524</ele>
        <time>2020-10-05T11:43:18.005Z</time>
      </trkpt>
      <trkpt lat="50.079379" lon="5.469860">
        <ele>443.918994</ele>
        <time>2020-10-05T11:43:24.120Z</time>
      </trkpt>
      <trkpt lat="50.078770" lon="5.469783">
        <ele>443.541504</ele>
        <time>2020-10-05T11:43:32.669Z</time>
      </trkpt>
      <trkpt lat="50.078672" lon="5.469776">
        <ele>443.480894</ele>
        <time>2020-10-05T11:43:33.914Z</time>
      </trkpt>
      <trkpt lat="50.078611" lon="5.469867">
        <ele>443.428721</ele>
        <time>2020-10-05T11:43:35.248Z</time>
      </trkpt>
      <trkpt lat="50.078272" lon="5.470926">
        <ele>442.959510</ele>
        <time>2020-10-05T11:43:45.161Z</time>
      </trkpt>
      <trkpt lat="50.077885" lon="5.471940">
        <ele>442.087263</ele>
        <time>2020-10-05T11:43:54.262Z</time>
      </trkpt>
      <trkpt lat="50.077684" lon="5.472560">
        <ele>441.548971</ele>
        <time>2020-10-05T11:43:59.662Z</time>
      </trkpt>
      <trkpt lat="50.077599" lon="5.472882">
        <ele>441.279153</ele>
        <time>2020-10-05T11:44:02.215Z</time>
      </trkpt>
      <trkpt lat="50.077507" lon="5.473488">
        <ele>440.796573</ele>
        <time>2020-10-05T11:44:06.903Z</time>
      </trkpt>
      <trkpt lat="50.077718" lon="5.476346">
        <ele>437.704116</ele>
        <time>2020-10-05T11:44:27.831Z</time>
      </trkpt>
      <trkpt lat="50.077728" lon="5.476581">
        <ele>437.403561</ele>
        <time>2020-10-05T11:44:29.557Z</time>
      </trkpt>
      <trkpt lat="50.077725" lon="5.477421">
        <ele>436.331577</ele>
        <time>2020-10-05T11:44:35.549Z</time>
      </trkpt>
      <trkpt lat="50.077587" lon="5.479643">
        <ele>433.760720</ele>
        <time>2020-10-05T11:44:51.096Z</time>
      </trkpt>
      <trkpt lat="50.077557" lon="5.480910">
        <ele>432.832637</ele>
        <time>2020-10-05T11:45:00.905Z</time>
      </trkpt>
      <trkpt lat="50.077553" lon="5.480980">
        <ele>432.781194</ele>
        <time>2020-10-05T11:45:01.496Z</time>
      </trkpt>
      <trkpt lat="50.077527" lon="5.481761">
        <ele>432.208728</ele>
        <time>2020-10-05T11:45:08.141Z</time>
      </trkpt>
      <trkpt lat="50.077604" lon="5.482510">
        <ele>431.584504</ele>
        <time>2020-10-05T11:45:14.720Z</time>
      </trkpt>
      <trkpt lat="50.077816" lon="5.483345">
        <ele>430.821677</ele>
        <time>2020-10-05T11:45:22.389Z</time>
      </trkpt>
      <trkpt lat="50.078286" lon="5.484606">
        <ele>429.224633</ele>
        <time>2020-10-05T11:45:33.020Z</time>
      </trkpt>
      <trkpt lat="50.078608" lon="5.485945">
        <ele>424.361440</ele>
        <time>2020-10-05T11:45:41.814Z</time>
      </trkpt>
      <trkpt lat="50.079163" lon="5.487500">
        <ele>417.896916</ele>
        <time>2020-10-05T11:45:52.071Z</time>
      </trkpt>
      <trkpt lat="50.079205" lon="5.487996">
        <ele>415.817520</ele>
        <time>2020-10-05T11:45:54.931Z</time>
      </trkpt>
      <trkpt lat="50.079119" lon="5.488522">
        <ele>413.561463</ele>
        <time>2020-10-05T11:45:58.059Z</time>
      </trkpt>
      <trkpt lat="50.079014" lon="5.488945">
        <ele>411.676399</ele>
        <time>2020-10-05T11:46:00.698Z</time>
      </trkpt>
      <trkpt lat="50.078929" lon="5.489288">
        <ele>410.148177</ele>
        <time>2020-10-05T11:46:02.893Z</time>
      </trkpt>
      <trkpt lat="50.078833" lon="5.489720">
        <ele>408.397479</ele>
        <time>2020-10-05T11:46:05.644Z</time>
      </trkpt>
      <trkpt lat="50.078671" lon="5.490613">
        <ele>406.655213</ele>
        <time>2020-10-05T11:46:11.536Z</time>
      </trkpt>
      <trkpt lat="50.078509" lon="5.491014">
        <ele>405.765593</ele>
        <time>2020-10-05T11:46:14.698Z</time>
      </trkpt>
      <trkpt lat="50.078256" lon="5.491351">
        <ele>404.791850</ele>
        <time>2020-10-05T11:46:18.523Z</time>
      </trkpt>
      <trkpt lat="50.077842" lon="5.491677">
        <ele>403.434791</ele>
        <time>2020-10-05T11:46:23.762Z</time>
      </trkpt>
      <trkpt lat="50.077669" lon="5.491893">
        <ele>402.412859</ele>
        <time>2020-10-05T11:46:26.348Z</time>
      </trkpt>
      <trkpt lat="50.077411" lon="5.492217">
        <ele>400.677022</ele>
        <time>2020-10-05T11:46:29.964Z</time>
      </trkpt>
      <trkpt lat="50.076997" lon="5.492795">
        <ele>397.765075</ele>
        <time>2020-10-05T11:46:35.298Z</time>
      </trkpt>
      <trkpt lat="50.076888" lon="5.493033">
        <ele>396.782093</ele>
        <time>2020-10-05T11:46:37.047Z</time>
      </trkpt>
      <trkpt lat="50.076805" lon="5.493318">
        <ele>395.729911</ele>
        <time>2020-10-05T11:46:38.810Z</time>
      </trkpt>
      <trkpt lat="50.076579" lon="5.494708">
        <ele>389.685106</ele>
        <time>2020-10-05T11:46:46.869Z</time>
      </trkpt>
      <trkpt lat="50.076557" lon="5.494835">
        <ele>389.057907</ele>
        <time>2020-10-05T11:46:47.571Z</time>
      </trkpt>
      <trkpt lat="50.076507" lon="5.495116">
        <ele>387.667574</ele>
        <time>2020-10-05T11:46:49.258Z</time>
      </trkpt>
      <trkpt lat="50.076285" lon="5.496238">
        <ele>382.069459</ele>
        <time>2020-10-05T11:46:56.070Z</time>
      </trkpt>
      <trkpt lat="50.076265" lon="5.496370">
        <ele>381.422786</ele>
        <time>2020-10-05T11:46:56.830Z</time>
      </trkpt>
      <trkpt lat="50.076173" lon="5.496977">
        <ele>380.184751</ele>
        <time>2020-10-05T11:47:00.562Z</time>
      </trkpt>
      <trkpt lat="50.076157" lon="5.497075">
        <ele>380.116021</ele>
        <time>2020-10-05T11:47:01.185Z</time>
      </trkpt>
      <trkpt lat="50.076122" lon="5.497290">
        <ele>379.965262</ele>
        <time>2020-10-05T11:47:02.732Z</time>
      </trkpt>
      <trkpt lat="50.076107" lon="5.497379">
        <ele>379.902720</ele>
        <time>2020-10-05T11:47:04.051Z</time>
      </trkpt>
      <trkpt lat="50.076022" lon="5.497678">
        <ele>379.680450</ele>
        <time>2020-10-05T11:47:06.494Z</time>
      </trkpt>
      <trkpt lat="50.075802" lon="5.498081">
        <ele>379.320847</ele>
        <time>2020-10-05T11:47:11.751Z</time>
      </trkpt>
      <trkpt lat="50.075644" lon="5.498245">
        <ele>379.119786</ele>
        <time>2020-10-05T11:47:15.661Z</time>
      </trkpt>
      <trkpt lat="50.075570" lon="5.498322">
        <ele>379.025546</ele>
        <time>2020-10-05T11:47:16.652Z</time>
      </trkpt>
      <trkpt lat="50.075405" lon="5.498571">
        <ele>378.782279</ele>
        <time>2020-10-05T11:47:22.456Z</time>
      </trkpt>
      <trkpt lat="50.075370" lon="5.498780">
        <ele>378.635467</ele>
        <time>2020-10-05T11:47:25.243Z</time>
      </trkpt>
      <trkpt lat="50.075472" lon="5.499830">
        <ele>379.160476</ele>
        <time>2020-10-05T11:47:40.264Z</time>
      </trkpt>
      <trkpt lat="50.075488" lon="5.500237">
        <ele>379.411081</ele>
        <time>2020-10-05T11:47:45.547Z</time>
      </trkpt>
      <trkpt lat="50.075564" lon="5.500488">
        <ele>379.581648</ele>
        <time>2020-10-05T11:47:48.447Z</time>
      </trkpt>
      <trkpt lat="50.075759" lon="5.501007">
        <ele>379.951259</ele>
        <time>2020-10-05T11:47:54.542Z</time>
      </trkpt>
      <trkpt lat="50.076094" lon="5.502329">
        <ele>380.747022</ele>
        <time>2020-10-05T11:48:09.439Z</time>
      </trkpt>
      <trkpt lat="50.076295" lon="5.503831">
        <ele>381.552651</ele>
        <time>2020-10-05T11:48:28.267Z</time>
      </trkpt>
      <trkpt lat="50.076513" lon="5.506249">
        <ele>382.918953</ele>
        <time>2020-10-05T11:48:57.840Z</time>
      </trkpt>
      <trkpt lat="50.076884" lon="5.508703">
        <ele>383.227215</ele>
        <time>2020-10-05T11:49:25.727Z</time>
      </trkpt>
      <trkpt lat="50.076906" lon="5.509080">
        <ele>383.200897</ele>
        <time>2020-10-05T11:49:29.925Z</time>
      </trkpt>
      <trkpt lat="50.076615" lon="5.512249">
        <ele>378.914574</ele>
        <time>2020-10-05T11:49:52.476Z</time>
      </trkpt>
      <trkpt lat="50.076617" lon="5.512384">
        <ele>378.688957</ele>
        <time>2020-10-05T11:49:53.323Z</time>
      </trkpt>
      <trkpt lat="50.076619" lon="5.512547">
        <ele>378.340079</ele>
        <time>2020-10-05T11:49:54.254Z</time>
      </trkpt>
      <trkpt lat="50.076694" lon="5.512717">
        <ele>377.520746</ele>
        <time>2020-10-05T11:49:55.531Z</time>
      </trkpt>
      <trkpt lat="50.076704" lon="5.512740">
        <ele>377.410408</ele>
        <time>2020-10-05T11:49:55.709Z</time>
      </trkpt>
      <trkpt lat="50.076716" lon="5.512758">
        <ele>377.307326</ele>
        <time>2020-10-05T11:49:55.872Z</time>
      </trkpt>
      <trkpt lat="50.076943" lon="5.513084">
        <ele>375.396846</ele>
        <time>2020-10-05T11:49:58.702Z</time>
      </trkpt>
      <trkpt lat="50.077010" lon="5.513212">
        <ele>374.740824</ele>
        <time>2020-10-05T11:49:59.744Z</time>
      </trkpt>
      <trkpt lat="50.077042" lon="5.513365">
        <ele>374.101709</ele>
        <time>2020-10-05T11:50:00.633Z</time>
      </trkpt>
      <trkpt lat="50.077016" lon="5.513554">
        <ele>373.334020</ele>
        <time>2020-10-05T11:50:01.777Z</time>
      </trkpt>
      <trkpt lat="50.076643" lon="5.514839">
        <ele>367.732689</ele>
        <time>2020-10-05T11:50:09.860Z</time>
      </trkpt>
      <trkpt lat="50.076339" lon="5.518184">
        <ele>356.409110</ele>
        <time>2020-10-05T11:50:30.290Z</time>
      </trkpt>
      <trkpt lat="50.075905" lon="5.519558">
        <ele>352.167967</ele>
        <time>2020-10-05T11:50:39.747Z</time>
      </trkpt>
      <trkpt lat="50.075829" lon="5.519862">
        <ele>351.264427</ele>
        <time>2020-10-05T11:50:41.811Z</time>
      </trkpt>
      <trkpt lat="50.075825" lon="5.520398">
        <ele>349.873467</ele>
        <time>2020-10-05T11:50:45.266Z</time>
      </trkpt>
      <trkpt lat="50.075870" lon="5.520698">
        <ele>349.443352</ele>
        <time>2020-10-05T11:50:47.245Z</time>
      </trkpt>
      <trkpt lat="50.075836" lon="5.522546">
        <ele>346.862318</ele>
        <time>2020-10-05T11:50:59.583Z</time>
      </trkpt>
      <trkpt lat="50.075860" lon="5.522778">
        <ele>346.534245</ele>
        <time>2020-10-05T11:51:01.239Z</time>
      </trkpt>
      <trkpt lat="50.075948" lon="5.523167">
        <ele>346.184103</ele>
        <time>2020-10-05T11:51:04.370Z</time>
      </trkpt>
      <trkpt lat="50.076507" lon="5.524496">
        <ele>349.102321</ele>
        <time>2020-10-05T11:51:31.668Z</time>
      </trkpt>
      <trkpt lat="50.076642" lon="5.524773">
        <ele>349.741091</ele>
        <time>2020-10-05T11:51:37.059Z</time>
      </trkpt>
      <trkpt lat="50.076851" lon="5.525046">
        <ele>350.521518</ele>
        <time>2020-10-05T11:51:46.779Z</time>
      </trkpt>
      <trkpt lat="50.076974" lon="5.525143">
        <ele>350.916010</ele>
        <time>2020-10-05T11:51:51.177Z</time>
      </trkpt>
      <trkpt lat="50.076956" lon="5.525286">
        <ele>351.183630</ele>
        <time>2020-10-05T11:51:57.033Z</time>
      </trkpt>
      <trkpt lat="50.076962" lon="5.525427">
        <ele>351.516836</ele>
        <time>2020-10-05T11:51:59.351Z</time>
      </trkpt>
      <trkpt lat="50.077009" lon="5.526194">
        <ele>353.365948</ele>
        <time>2020-10-05T11:52:18.128Z</time>
      </trkpt>
      <trkpt lat="50.077021" lon="5.526394">
        <ele>353.848026</ele>
        <time>2020-10-05T11:52:25.199Z</time>
      </trkpt>
      <trkpt lat="50.077045" lon="5.526712">
        <ele>354.616460</ele>
        <time>2020-10-05T11:52:31.171Z</time>
      </trkpt>
      <trkpt lat="50.077148" lon="5.527060">
        <ele>355.536174</ele>
        <time>2020-10-05T11:52:41.192Z</time>
      </trkpt>
      <trkpt lat="50.077624" lon="5.527750">
        <ele>357.927374</ele>
        <time>2020-10-05T11:53:02.876Z</time>
      </trkpt>
      <trkpt lat="50.077672" lon="5.528052">
        <ele>357.892305</ele>
        <time>2020-10-05T11:53:06.884Z</time>
      </trkpt>
      <trkpt lat="50.077616" lon="5.528332">
        <ele>357.859246</ele>
        <time>2020-10-05T11:53:10.995Z</time>
      </trkpt>
      <trkpt lat="50.077004" lon="5.529915">
        <ele>357.650935</ele>
        <time>2020-10-05T11:53:31.731Z</time>
      </trkpt>
      <trkpt lat="50.076821" lon="5.530323">
        <ele>357.616468</ele>
        <time>2020-10-05T11:53:37.486Z</time>
      </trkpt>
      <trkpt lat="50.076464" lon="5.530857">
        <ele>357.631650</ele>
        <time>2020-10-05T11:53:46.544Z</time>
      </trkpt>
      <trkpt lat="50.076287" lon="5.531081">
        <ele>357.638645</ele>
        <time>2020-10-05T11:53:50.928Z</time>
      </trkpt>
      <trkpt lat="50.076087" lon="5.531335">
        <ele>357.646561</ele>
        <time>2020-10-05T11:53:56.142Z</time>
      </trkpt>
      <trkpt lat="50.075901" lon="5.531580">
        <ele>357.654033</ele>
        <time>2020-10-05T11:54:01.249Z</time>
      </trkpt>
      <trkpt lat="50.075668" lon="5.531939">
        <ele>357.664085</ele>
        <time>2020-10-05T11:54:08.285Z</time>
      </trkpt>
      <trkpt lat="50.074662" lon="5.533696">
        <ele>360.282208</ele>
        <time>2020-10-05T11:54:47.547Z</time>
      </trkpt>
      <trkpt lat="50.073940" lon="5.535171">
        <ele>363.266515</ele>
        <time>2020-10-05T11:55:29.027Z</time>
      </trkpt>
      <trkpt lat="50.073900" lon="5.535323">
        <ele>363.566345</ele>
        <time>2020-10-05T11:55:33.769Z</time>
      </trkpt>
      <trkpt lat="50.073867" lon="5.535580">
        <ele>364.044692</ele>
        <time>2020-10-05T11:55:38.978Z</time>
      </trkpt>
      <trkpt lat="50.073831" lon="5.536411">
        <ele>365.564806</ele>
        <time>2020-10-05T11:55:56.120Z</time>
      </trkpt>
      <trkpt lat="50.073855" lon="5.537876">
        <ele>364.776844</ele>
        <time>2020-10-05T11:56:17.469Z</time>
      </trkpt>
      <trkpt lat="50.074012" lon="5.538824">
        <ele>363.505890</ele>
        <time>2020-10-05T11:56:26.614Z</time>
      </trkpt>
      <trkpt lat="50.074159" lon="5.540130">
        <ele>361.299890</ele>
        <time>2020-10-05T11:56:38.120Z</time>
      </trkpt>
      <trkpt lat="50.074166" lon="5.540458">
        <ele>360.613553</ele>
        <time>2020-10-05T11:56:41.125Z</time>
      </trkpt>
      <trkpt lat="50.074069" lon="5.541335">
        <ele>358.752414</ele>
        <time>2020-10-05T11:56:49.209Z</time>
      </trkpt>
      <trkpt lat="50.074047" lon="5.541739">
        <ele>357.904478</ele>
        <time>2020-10-05T11:56:53.157Z</time>
      </trkpt>
      <trkpt lat="50.074039" lon="5.541881">
        <ele>357.606365</ele>
        <time>2020-10-05T11:56:54.594Z</time>
      </trkpt>
      <trkpt lat="50.074030" lon="5.541966">
        <ele>357.426199</ele>
        <time>2020-10-05T11:56:55.391Z</time>
      </trkpt>
      <trkpt lat="50.073949" lon="5.542035">
        <ele>357.125384</ele>
        <time>2020-10-05T11:56:57.588Z</time>
      </trkpt>
      <trkpt lat="50.073481" lon="5.542447">
        <ele>356.810741</ele>
        <time>2020-10-05T11:57:06.868Z</time>
      </trkpt>
      <trkpt lat="50.073452" lon="5.542728">
        <ele>356.852290</ele>
        <time>2020-10-05T11:57:11.264Z</time>
      </trkpt>
      <trkpt lat="50.073614" lon="5.542846">
        <ele>356.892966</ele>
        <time>2020-10-05T11:57:14.582Z</time>
      </trkpt>
      <trkpt lat="50.074062" lon="5.542730">
        <ele>356.996264</ele>
        <time>2020-10-05T11:57:24.538Z</time>
      </trkpt>
      <trkpt lat="50.074280" lon="5.542736">
        <ele>357.045858</ele>
        <time>2020-10-05T11:57:31.755Z</time>
      </trkpt>
      <trkpt lat="50.074595" lon="5.543039">
        <ele>357.140596</ele>
        <time>2020-10-05T11:57:40.698Z</time>
      </trkpt>
      <trkpt lat="50.074751" lon="5.543430">
        <ele>357.386515</ele>
        <time>2020-10-05T11:57:46.949Z</time>
      </trkpt>
      <trkpt lat="50.074761" lon="5.543489">
        <ele>357.419110</ele>
        <time>2020-10-05T11:57:47.916Z</time>
      </trkpt>
      <trkpt lat="50.074808" lon="5.543767">
        <ele>357.572668</ele>
        <time>2020-10-05T11:57:51.594Z</time>
      </trkpt>
      <trkpt lat="50.074782" lon="5.544490">
        <ele>357.959461</ele>
        <time>2020-10-05T11:58:02.555Z</time>
      </trkpt>
      <trkpt lat="50.074608" lon="5.545353">
        <ele>358.442642</ele>
        <time>2020-10-05T11:58:15.944Z</time>
      </trkpt>
      <trkpt lat="50.074485" lon="5.545738">
        <ele>358.768103</ele>
        <time>2020-10-05T11:58:22.318Z</time>
      </trkpt>
      <trkpt lat="50.074215" lon="5.546278">
        <ele>359.843979</ele>
        <time>2020-10-05T11:58:33.566Z</time>
      </trkpt>
      <trkpt lat="50.073786" lon="5.548173">
        <ele>363.002220</ele>
        <time>2020-10-05T11:59:14.588Z</time>
      </trkpt>
      <trkpt lat="50.073531" lon="5.548778">
        <ele>364.631877</ele>
        <time>2020-10-05T11:59:31.544Z</time>
      </trkpt>
      <trkpt lat="50.073176" lon="5.549666">
        <ele>367.003747</ele>
        <time>2020-10-05T11:59:54.514Z</time>
      </trkpt>
      <trkpt lat="50.072925" lon="5.550119">
        <ele>368.360566</ele>
        <time>2020-10-05T12:00:07.588Z</time>
      </trkpt>
      <trkpt lat="50.072679" lon="5.550496">
        <ele>369.612782</ele>
        <time>2020-10-05T12:00:19.418Z</time>
      </trkpt>
      <trkpt lat="50.072259" lon="5.550938">
        <ele>371.704412</ele>
        <time>2020-10-05T12:00:37.331Z</time>
      </trkpt>
      <trkpt lat="50.071805" lon="5.551129">
        <ele>373.645121</ele>
        <time>2020-10-05T12:00:54.566Z</time>
      </trkpt>
      <trkpt lat="50.070721" lon="5.551269">
        <ele>378.710511</ele>
        <time>2020-10-05T12:01:35.334Z</time>
      </trkpt>
      <trkpt lat="50.070026" lon="5.551023">
        <ele>382.926949</ele>
        <time>2020-10-05T12:02:06.847Z</time>
      </trkpt>
      <trkpt lat="50.069883" lon="5.551027">
        <ele>383.773083</ele>
        <time>2020-10-05T12:02:13.542Z</time>
      </trkpt>
      <trkpt lat="50.069630" lon="5.551251">
        <ele>385.494651</ele>
        <time>2020-10-05T12:02:27.164Z</time>
      </trkpt>
      <trkpt lat="50.069444" lon="5.551689">
        <ele>387.490488</ele>
        <time>2020-10-05T12:02:43.181Z</time>
      </trkpt>
      <trkpt lat="50.069381" lon="5.551974">
        <ele>388.676160</ele>
        <time>2020-10-05T12:02:52.477Z</time>
      </trkpt>
      <trkpt lat="50.069255" lon="5.553191">
        <ele>393.525132</ele>
        <time>2020-10-05T12:03:29.509Z</time>
      </trkpt>
      <trkpt lat="50.069304" lon="5.553665">
        <ele>395.413650</ele>
        <time>2020-10-05T12:03:43.884Z</time>
      </trkpt>
      <trkpt lat="50.069690" lon="5.555164">
        <ele>399.899843</ele>
        <time>2020-10-05T12:04:25.618Z</time>
      </trkpt>
      <trkpt lat="50.069842" lon="5.555643">
        <ele>400.812211</ele>
        <time>2020-10-05T12:04:37.000Z</time>
      </trkpt>
      <trkpt lat="50.070141" lon="5.556186">
        <ele>402.033791</ele>
        <time>2020-10-05T12:04:50.387Z</time>
      </trkpt>
      <trkpt lat="50.070461" lon="5.556907">
        <ele>403.252557</ele>
        <time>2020-10-05T12:05:02.691Z</time>
      </trkpt>
      <trkpt lat="50.070576" lon="5.557422">
        <ele>403.252557</ele>
        <time>2020-10-05T12:05:09.184Z</time>
      </trkpt>
      <trkpt lat="50.070707" lon="5.558360">
        <ele>403.252557</ele>
        <time>2020-10-05T12:05:19.351Z</time>
      </trkpt>
      <trkpt lat="50.070764" lon="5.558674">
        <ele>403.252557</ele>
        <time>2020-10-05T12:05:22.602Z</time>
      </trkpt>
      <trkpt lat="50.070846" lon="5.558943">
        <ele>403.252557</ele>
        <time>2020-10-05T12:05:25.767Z</time>
      </trkpt>
      <trkpt lat="50.070921" lon="5.559128">
        <ele>403.252557</ele>
        <time>2020-10-05T12:05:27.961Z</time>
      </trkpt>
      <trkpt lat="50.070921" lon="5.559128">
        <ele>396.584817</ele>
        <time>2020-10-05T08:14:58.553Z</time>
      </trkpt>
      <trkpt lat="50.070921" lon="5.559128">
        <ele>396.584817</ele>
        <time>2020-10-05T08:14:58.559Z</time>
      </trkpt>
      <trkpt lat="50.070944" lon="5.559178">
        <ele>396.584817</ele>
        <time>2020-10-05T08:14:59.214Z</time>
      </trkpt>
      <trkpt lat="50.071387" lon="5.558797">
        <ele>396.584817</ele>
        <time>2020-10-05T08:15:16.108Z</time>
      </trkpt>
      <trkpt lat="50.071908" lon="5.558445">
        <ele>395.159530</ele>
        <time>2020-10-05T08:15:32.743Z</time>
      </trkpt>
      <trkpt lat="50.072120" lon="5.558428">
        <ele>393.746019</ele>
        <time>2020-10-05T08:15:38.701Z</time>
      </trkpt>
      <trkpt lat="50.072466" lon="5.558586">
        <ele>391.345199</ele>
        <time>2020-10-05T08:15:48.295Z</time>
      </trkpt>
      <trkpt lat="50.072683" lon="5.558893">
        <ele>389.393476</ele>
        <time>2020-10-05T08:15:55.930Z</time>
      </trkpt>
      <trkpt lat="50.072923" lon="5.559041">
        <ele>387.674775</ele>
        <time>2020-10-05T08:16:02.492Z</time>
      </trkpt>
      <trkpt lat="50.073105" lon="5.559028">
        <ele>386.461621</ele>
        <time>2020-10-05T08:16:07.124Z</time>
      </trkpt>
      <trkpt lat="50.073239" lon="5.558900">
        <ele>385.415022</ele>
        <time>2020-10-05T08:16:11.002Z</time>
      </trkpt>
      <trkpt lat="50.073564" lon="5.558409">
        <ele>381.026493</ele>
        <time>2020-10-05T08:16:22.244Z</time>
      </trkpt>
      <trkpt lat="50.073688" lon="5.558342">
        <ele>379.608560</ele>
        <time>2020-10-05T08:16:25.462Z</time>
      </trkpt>
      <trkpt lat="50.074521" lon="5.558373">
        <ele>370.606455</ele>
        <time>2020-10-05T08:16:45.351Z</time>
      </trkpt>
      <trkpt lat="50.074920" lon="5.558499">
        <ele>366.208111</ele>
        <time>2020-10-05T08:16:55.465Z</time>
      </trkpt>
      <trkpt lat="50.075354" lon="5.558499">
        <ele>361.265534</ele>
        <time>2020-10-05T08:17:05.875Z</time>
      </trkpt>
      <trkpt lat="50.075422" lon="5.558515">
        <ele>360.470994</ele>
        <time>2020-10-05T08:17:07.410Z</time>
      </trkpt>
      <trkpt lat="50.075474" lon="5.558420">
        <ele>359.545190</ele>
        <time>2020-10-05T08:17:09.395Z</time>
      </trkpt>
      <trkpt lat="50.075502" lon="5.558129">
        <ele>357.363386</ele>
        <time>2020-10-05T08:17:13.928Z</time>
      </trkpt>
      <trkpt lat="50.075459" lon="5.557603">
        <ele>353.431722</ele>
        <time>2020-10-05T08:17:21.981Z</time>
      </trkpt>
      <trkpt lat="50.075455" lon="5.557489">
        <ele>352.585180</ele>
        <time>2020-10-05T08:17:23.661Z</time>
      </trkpt>
      <trkpt lat="50.075445" lon="5.557223">
        <ele>350.609478</ele>
        <time>2020-10-05T08:17:27.856Z</time>
      </trkpt>
      <trkpt lat="50.075426" lon="5.557139">
        <ele>349.949089</ele>
        <time>2020-10-05T08:17:29.264Z</time>
      </trkpt>
      <trkpt lat="50.075476" lon="5.556893">
        <ele>348.035773</ele>
        <time>2020-10-05T08:17:33.092Z</time>
      </trkpt>
      <trkpt lat="50.075488" lon="5.556747">
        <ele>346.944381</ele>
        <time>2020-10-05T08:17:35.556Z</time>
      </trkpt>
      <trkpt lat="50.075509" lon="5.556599">
        <ele>345.820499</ele>
        <time>2020-10-05T08:17:38.049Z</time>
      </trkpt>
      <trkpt lat="50.075553" lon="5.556359">
        <ele>344.154966</ele>
        <time>2020-10-05T08:17:41.778Z</time>
      </trkpt>
      <trkpt lat="50.075650" lon="5.556185">
        <ele>343.189258</ele>
        <time>2020-10-05T08:17:45.743Z</time>
      </trkpt>
      <trkpt lat="50.075777" lon="5.556034">
        <ele>342.146283</ele>
        <time>2020-10-05T08:17:49.664Z</time>
      </trkpt>
      <trkpt lat="50.075829" lon="5.555974">
        <ele>341.723838</ele>
        <time>2020-10-05T08:17:50.488Z</time>
      </trkpt>
      <trkpt lat="50.076030" lon="5.555769">
        <ele>340.155437</ele>
        <time>2020-10-05T08:17:53.561Z</time>
      </trkpt>
      <trkpt lat="50.076398" lon="5.555405">
        <ele>337.309647</ele>
        <time>2020-10-05T08:17:59.064Z</time>
      </trkpt>
      <trkpt lat="50.076740" lon="5.555180">
        <ele>334.885944</ele>
        <time>2020-10-05T08:18:03.895Z</time>
      </trkpt>
      <trkpt lat="50.076785" lon="5.555288">
        <ele>334.346424</ele>
        <time>2020-10-05T08:18:04.810Z</time>
      </trkpt>
      <trkpt lat="50.077253" lon="5.556546">
        <ele>332.147420</ele>
        <time>2020-10-05T08:18:16.020Z</time>
      </trkpt>
      <trkpt lat="50.077564" lon="5.557748">
        <ele>331.523733</ele>
        <time>2020-10-05T08:18:28.705Z</time>
      </trkpt>
      <trkpt lat="50.078464" lon="5.559894">
        <ele>330.834408</ele>
        <time>2020-10-05T08:18:51.683Z</time>
      </trkpt>
      <trkpt lat="50.078712" lon="5.560709">
        <ele>330.599616</ele>
        <time>2020-10-05T08:18:59.115Z</time>
      </trkpt>
      <trkpt lat="50.078820" lon="5.561120">
        <ele>330.427782</ele>
        <time>2020-10-05T08:19:02.783Z</time>
      </trkpt>
      <trkpt lat="50.078908" lon="5.561484">
        <ele>330.277286</ele>
        <time>2020-10-05T08:19:06.037Z</time>
      </trkpt>
      <trkpt lat="50.079058" lon="5.561877">
        <ele>330.100370</ele>
        <time>2020-10-05T08:19:09.822Z</time>
      </trkpt>
      <trkpt lat="50.079183" lon="5.562163">
        <ele>329.966489</ele>
        <time>2020-10-05T08:19:12.613Z</time>
      </trkpt>
      <trkpt lat="50.079635" lon="5.562863">
        <ele>329.589046</ele>
        <time>2020-10-05T08:19:20.880Z</time>
      </trkpt>
      <trkpt lat="50.081081" lon="5.564602">
        <ele>329.107981</ele>
        <time>2020-10-05T08:19:46.321Z</time>
      </trkpt>
      <trkpt lat="50.081643" lon="5.565602">
        <ele>329.387697</ele>
        <time>2020-10-05T08:19:59.389Z</time>
      </trkpt>
      <trkpt lat="50.082542" lon="5.566711">
        <ele>329.841670</ele>
        <time>2020-10-05T08:20:19.071Z</time>
      </trkpt>
      <trkpt lat="50.083210" lon="5.567325">
        <ele>330.338171</ele>
        <time>2020-10-05T08:20:33.305Z</time>
      </trkpt>
      <trkpt lat="50.084360" lon="5.567668">
        <ele>330.720535</ele>
        <time>2020-10-05T08:20:53.137Z</time>
      </trkpt>
      <trkpt lat="50.084602" lon="5.567811">
        <ele>330.647125</ele>
        <time>2020-10-05T08:20:56.708Z</time>
      </trkpt>
      <trkpt lat="50.084668" lon="5.567883">
        <ele>330.624274</ele>
        <time>2020-10-05T08:20:57.785Z</time>
      </trkpt>
      <trkpt lat="50.085044" lon="5.568314">
        <ele>330.491885</ele>
        <time>2020-10-05T08:21:03.926Z</time>
      </trkpt>
      <trkpt lat="50.085329" lon="5.568948">
        <ele>330.351000</ele>
        <time>2020-10-05T08:21:10.044Z</time>
      </trkpt>
      <trkpt lat="50.085434" lon="5.569330">
        <ele>330.534811</ele>
        <time>2020-10-05T08:21:13.265Z</time>
      </trkpt>
      <trkpt lat="50.085458" lon="5.569421">
        <ele>330.614196</ele>
        <time>2020-10-05T08:21:13.949Z</time>
      </trkpt>
      <trkpt lat="50.085480" lon="5.569829">
        <ele>330.944557</ele>
        <time>2020-10-05T08:21:18.928Z</time>
      </trkpt>
      <trkpt lat="50.085659" lon="5.570703">
        <ele>331.684806</ele>
        <time>2020-10-05T08:21:30.083Z</time>
      </trkpt>
      <trkpt lat="50.085881" lon="5.571583">
        <ele>332.447750</ele>
        <time>2020-10-05T08:21:43.927Z</time>
      </trkpt>
      <trkpt lat="50.086104" lon="5.571466">
        <ele>332.987666</ele>
        <time>2020-10-05T08:21:51.146Z</time>
      </trkpt>
      <trkpt lat="50.086556" lon="5.571109">
        <ele>334.604487</ele>
        <time>2020-10-05T08:22:05.413Z</time>
      </trkpt>
      <trkpt lat="50.086838" lon="5.571023">
        <ele>335.521330</ele>
        <time>2020-10-05T08:22:14.380Z</time>
      </trkpt>
      <trkpt lat="50.087179" lon="5.571066">
        <ele>336.612916</ele>
        <time>2020-10-05T08:22:24.992Z</time>
      </trkpt>
      <trkpt lat="50.088031" lon="5.571328">
        <ele>338.667689</ele>
        <time>2020-10-05T08:22:47.728Z</time>
      </trkpt>
      <trkpt lat="50.088352" lon="5.571251">
        <ele>339.003853</ele>
        <time>2020-10-05T08:22:53.579Z</time>
      </trkpt>
      <trkpt lat="50.088741" lon="5.570996">
        <ele>339.440652</ele>
        <time>2020-10-05T08:23:00.423Z</time>
      </trkpt>
      <trkpt lat="50.089024" lon="5.570649">
        <ele>339.813351</ele>
        <time>2020-10-05T08:23:06.103Z</time>
      </trkpt>
      <trkpt lat="50.089223" lon="5.570304">
        <ele>340.121438</ele>
        <time>2020-10-05T08:23:10.886Z</time>
      </trkpt>
      <trkpt lat="50.089323" lon="5.569897">
        <ele>340.573541</ele>
        <time>2020-10-05T08:23:15.558Z</time>
      </trkpt>
      <trkpt lat="50.089392" lon="5.569655">
        <ele>340.876371</ele>
        <time>2020-10-05T08:23:17.950Z</time>
      </trkpt>
      <trkpt lat="50.089488" lon="5.569446">
        <ele>341.170304</ele>
        <time>2020-10-05T08:23:21.343Z</time>
      </trkpt>
      <trkpt lat="50.090050" lon="5.568500">
        <ele>342.644608</ele>
        <time>2020-10-05T08:23:38.813Z</time>
      </trkpt>
      <trkpt lat="50.090345" lon="5.567622">
        <ele>344.590128</ele>
        <time>2020-10-05T08:23:56.795Z</time>
      </trkpt>
      <trkpt lat="50.090588" lon="5.567094">
        <ele>346.894016</ele>
        <time>2020-10-05T08:24:10.611Z</time>
      </trkpt>
      <trkpt lat="50.091467" lon="5.565997">
        <ele>353.116867</ele>
        <time>2020-10-05T08:24:55.752Z</time>
      </trkpt>
      <trkpt lat="50.091958" lon="5.565087">
        <ele>358.520297</ele>
        <time>2020-10-05T08:25:29.593Z</time>
      </trkpt>
      <trkpt lat="50.092173" lon="5.564934">
        <ele>360.214119</ele>
        <time>2020-10-05T08:25:40.307Z</time>
      </trkpt>
      <trkpt lat="50.092672" lon="5.564859">
        <ele>363.806873</ele>
        <time>2020-10-05T08:26:03.391Z</time>
      </trkpt>
      <trkpt lat="50.094145" lon="5.565010">
        <ele>372.169556</ele>
        <time>2020-10-05T08:27:03.157Z</time>
      </trkpt>
      <trkpt lat="50.094568" lon="5.564870">
        <ele>374.427278</ele>
        <time>2020-10-05T08:27:16.261Z</time>
      </trkpt>
      <trkpt lat="50.094881" lon="5.564913">
        <ele>375.717161</ele>
        <time>2020-10-05T08:27:24.840Z</time>
      </trkpt>
      <trkpt lat="50.095133" lon="5.565111">
        <ele>376.056722</ele>
        <time>2020-10-05T08:27:31.779Z</time>
      </trkpt>
      <trkpt lat="50.096307" lon="5.566692">
        <ele>377.931779</ele>
        <time>2020-10-05T08:27:58.577Z</time>
      </trkpt>
      <trkpt lat="50.096498" lon="5.566875">
        <ele>378.216761</ele>
        <time>2020-10-05T08:28:01.573Z</time>
      </trkpt>
      <trkpt lat="50.096745" lon="5.566985">
        <ele>378.543296</ele>
        <time>2020-10-05T08:28:06.198Z</time>
      </trkpt>
      <trkpt lat="50.096868" lon="5.566977">
        <ele>378.699783</ele>
        <time>2020-10-05T08:28:08.558Z</time>
      </trkpt>
      <trkpt lat="50.096972" lon="5.566946">
        <ele>378.834378</ele>
        <time>2020-10-05T08:28:10.998Z</time>
      </trkpt>
      <trkpt lat="50.097276" lon="5.566667">
        <ele>379.282803</ele>
        <time>2020-10-05T08:28:18.142Z</time>
      </trkpt>
      <trkpt lat="50.097914" lon="5.565781">
        <ele>380.852785</ele>
        <time>2020-10-05T08:28:36.803Z</time>
      </trkpt>
      <trkpt lat="50.097988" lon="5.565730">
        <ele>381.118149</ele>
        <time>2020-10-05T08:28:38.985Z</time>
      </trkpt>
      <trkpt lat="50.098068" lon="5.565743">
        <ele>381.381954</ele>
        <time>2020-10-05T08:28:40.909Z</time>
      </trkpt>
      <trkpt lat="50.098687" lon="5.566308">
        <ele>383.734539</ele>
        <time>2020-10-05T08:29:00.826Z</time>
      </trkpt>
      <trkpt lat="50.099885" lon="5.568276">
        <ele>390.804434</ele>
        <time>2020-10-05T08:29:56.081Z</time>
      </trkpt>
      <trkpt lat="50.100026" lon="5.568464">
        <ele>391.651052</ele>
        <time>2020-10-05T08:30:03.012Z</time>
      </trkpt>
      <trkpt lat="50.102221" lon="5.570399">
        <ele>403.154678</ele>
        <time>2020-10-05T08:31:29.975Z</time>
      </trkpt>
      <trkpt lat="50.102325" lon="5.570486">
        <ele>403.455486</ele>
        <time>2020-10-05T08:31:33.956Z</time>
      </trkpt>
      <trkpt lat="50.102414" lon="5.570567">
        <ele>403.718139</ele>
        <time>2020-10-05T08:31:36.618Z</time>
      </trkpt>
      <trkpt lat="50.102562" lon="5.570459">
        <ele>404.134616</ele>
        <time>2020-10-05T08:31:40.637Z</time>
      </trkpt>
      <trkpt lat="50.103812" lon="5.569321">
        <ele>407.559626</ele>
        <time>2020-10-05T08:32:13.074Z</time>
      </trkpt>
      <trkpt lat="50.105373" lon="5.568284">
        <ele>409.820510</ele>
        <time>2020-10-05T08:32:45.029Z</time>
      </trkpt>
      <trkpt lat="50.105596" lon="5.568121">
        <ele>410.439502</ele>
        <time>2020-10-05T08:32:50.241Z</time>
      </trkpt>
      <trkpt lat="50.105778" lon="5.567991">
        <ele>410.942632</ele>
        <time>2020-10-05T08:32:55.863Z</time>
      </trkpt>
      <trkpt lat="50.106789" lon="5.567151">
        <ele>413.821800</ele>
        <time>2020-10-05T08:33:31.531Z</time>
      </trkpt>
      <trkpt lat="50.108245" lon="5.565813">
        <ele>420.658413</ele>
        <time>2020-10-05T08:35:02.058Z</time>
      </trkpt>
      <trkpt lat="50.108917" lon="5.565181">
        <ele>423.951267</ele>
        <time>2020-10-05T08:35:46.792Z</time>
      </trkpt>
      <trkpt lat="50.109842" lon="5.564428">
        <ele>428.349102</ele>
        <time>2020-10-05T08:36:43.044Z</time>
      </trkpt>
      <trkpt lat="50.109915" lon="5.564382">
        <ele>428.680942</ele>
        <time>2020-10-05T08:36:47.668Z</time>
      </trkpt>
      <trkpt lat="50.111023" lon="5.563673">
        <ele>431.982072</ele>
        <time>2020-10-05T08:37:46.190Z</time>
      </trkpt>
      <trkpt lat="50.111982" lon="5.562937">
        <ele>434.444584</ele>
        <time>2020-10-05T08:38:33.483Z</time>
      </trkpt>
      <trkpt lat="50.113251" lon="5.562440">
        <ele>436.663744</ele>
        <time>2020-10-05T08:39:30.566Z</time>
      </trkpt>
      <trkpt lat="50.113347" lon="5.562381">
        <ele>436.838755</ele>
        <time>2020-10-05T08:39:35.267Z</time>
      </trkpt>
      <trkpt lat="50.113824" lon="5.561603">
        <ele>437.853589</ele>
        <time>2020-10-05T08:40:05.839Z</time>
      </trkpt>
      <trkpt lat="50.115045" lon="5.559682">
        <ele>439.726144</ele>
        <time>2020-10-05T08:41:19.103Z</time>
      </trkpt>
      <trkpt lat="50.115461" lon="5.559015">
        <ele>439.941496</ele>
        <time>2020-10-05T08:41:41.540Z</time>
      </trkpt>
      <trkpt lat="50.115891" lon="5.558230">
        <ele>440.231605</ele>
        <time>2020-10-05T08:42:04.658Z</time>
      </trkpt>
      <trkpt lat="50.115970" lon="5.558124">
        <ele>440.354228</ele>
        <time>2020-10-05T08:42:08.184Z</time>
      </trkpt>
      <trkpt lat="50.115970" lon="5.558124">
        <ele>440.354228</ele>
        <time>2020-10-05T08:42:08.193Z</time>
      </trkpt>
      <trkpt lat="50.116027" lon="5.558057">
        <ele>440.438213</ele>
        <time>2020-10-05T08:42:13.707Z</time>
      </trkpt>
      <trkpt lat="50.117031" lon="5.557285">
        <ele>441.755332</ele>
        <time>2020-10-05T08:43:47.623Z</time>
      </trkpt>
      <trkpt lat="50.117264" lon="5.557169">
        <ele>442.043116</ele>
        <time>2020-10-05T08:44:09.280Z</time>
      </trkpt>
      <trkpt lat="50.117363" lon="5.557919">
        <ele>442.985847</ele>
        <time>2020-10-05T08:44:32.526Z</time>
      </trkpt>
      <trkpt lat="50.117392" lon="5.558047">
        <ele>443.196103</ele>
        <time>2020-10-05T08:44:37.557Z</time>
      </trkpt>
      <trkpt lat="50.117872" lon="5.559297">
        <ele>445.452690</ele>
        <time>2020-10-05T08:45:22.913Z</time>
      </trkpt>
      <trkpt lat="50.118040" lon="5.559863">
        <ele>446.418659</ele>
        <time>2020-10-05T08:45:41.939Z</time>
      </trkpt>
      <trkpt lat="50.118103" lon="5.560373">
        <ele>446.618273</ele>
        <time>2020-10-05T08:45:55.408Z</time>
      </trkpt>
      <trkpt lat="50.118111" lon="5.560477">
        <ele>446.618197</ele>
        <time>2020-10-05T08:45:58.534Z</time>
      </trkpt>
      <trkpt lat="50.118125" lon="5.560654">
        <ele>446.618067</ele>
        <time>2020-10-05T08:46:02.496Z</time>
      </trkpt>
      <trkpt lat="50.118162" lon="5.560927">
        <ele>446.617864</ele>
        <time>2020-10-05T08:46:09.158Z</time>
      </trkpt>
      <trkpt lat="50.118339" lon="5.561243">
        <ele>446.617558</ele>
        <time>2020-10-05T08:46:19.186Z</time>
      </trkpt>
      <trkpt lat="50.118651" lon="5.561913">
        <ele>446.616954</ele>
        <time>2020-10-05T08:46:38.691Z</time>
      </trkpt>
      <trkpt lat="50.118805" lon="5.562165">
        <ele>446.616701</ele>
        <time>2020-10-05T08:46:45.835Z</time>
      </trkpt>
      <trkpt lat="50.119226" lon="5.562853">
        <ele>445.993060</ele>
        <time>2020-10-05T08:47:06.018Z</time>
      </trkpt>
      <trkpt lat="50.120385" lon="5.564935">
        <ele>443.608445</ele>
        <time>2020-10-05T08:48:03.740Z</time>
      </trkpt>
      <trkpt lat="50.120689" lon="5.565144">
        <ele>443.216736</ele>
        <time>2020-10-05T08:48:14.612Z</time>
      </trkpt>
      <trkpt lat="50.120803" lon="5.565235">
        <ele>443.065743</ele>
        <time>2020-10-05T08:48:18.438Z</time>
      </trkpt>
      <trkpt lat="50.121117" lon="5.565101">
        <ele>442.681914</ele>
        <time>2020-10-05T08:48:29.415Z</time>
      </trkpt>
      <trkpt lat="50.121674" lon="5.564843">
        <ele>441.996835</ele>
        <time>2020-10-05T08:48:49.569Z</time>
      </trkpt>
      <trkpt lat="50.122022" lon="5.564554">
        <ele>442.017382</ele>
        <time>2020-10-05T08:49:03.560Z</time>
      </trkpt>
      <trkpt lat="50.122371" lon="5.564161">
        <ele>442.064408</ele>
        <time>2020-10-05T08:49:19.692Z</time>
      </trkpt>
      <trkpt lat="50.122650" lon="5.563988">
        <ele>442.097208</ele>
        <time>2020-10-05T08:49:31.345Z</time>
      </trkpt>
      <trkpt lat="50.122885" lon="5.563978">
        <ele>442.122891</ele>
        <time>2020-10-05T08:49:40.478Z</time>
      </trkpt>
      <trkpt lat="50.124160" lon="5.563928">
        <ele>442.050205</ele>
        <time>2020-10-05T08:50:29.705Z</time>
      </trkpt>
      <trkpt lat="50.125236" lon="5.564018">
        <ele>441.583932</ele>
        <time>2020-10-05T08:51:08.214Z</time>
      </trkpt>
      <trkpt lat="50.125547" lon="5.563916">
        <ele>440.549042</ele>
        <time>2020-10-05T08:51:18.917Z</time>
      </trkpt>
      <trkpt lat="50.126013" lon="5.563488">
        <ele>438.788028</ele>
        <time>2020-10-05T08:51:35.473Z</time>
      </trkpt>
      <trkpt lat="50.126176" lon="5.563421">
        <ele>438.239112</ele>
        <time>2020-10-05T08:51:40.484Z</time>
      </trkpt>
      <trkpt lat="50.126445" lon="5.563263">
        <ele>437.303092</ele>
        <time>2020-10-05T08:51:48.433Z</time>
      </trkpt>
      <trkpt lat="50.127059" lon="5.562985">
        <ele>434.258487</ele>
        <time>2020-10-05T08:52:05.640Z</time>
      </trkpt>
      <trkpt lat="50.127238" lon="5.562918">
        <ele>432.960026</ele>
        <time>2020-10-05T08:52:10.680Z</time>
      </trkpt>
      <trkpt lat="50.127306" lon="5.562932">
        <ele>432.476212</ele>
        <time>2020-10-05T08:52:12.281Z</time>
      </trkpt>
      <trkpt lat="50.128073" lon="5.563401">
        <ele>426.665164</ele>
        <time>2020-10-05T08:52:33.407Z</time>
      </trkpt>
      <trkpt lat="50.128790" lon="5.564079">
        <ele>421.514237</ele>
        <time>2020-10-05T08:52:55.003Z</time>
      </trkpt>
      <trkpt lat="50.128877" lon="5.564159">
        <ele>421.010322</ele>
        <time>2020-10-05T08:52:57.546Z</time>
      </trkpt>
      <trkpt lat="50.129006" lon="5.564264">
        <ele>420.284293</ele>
        <time>2020-10-05T08:53:01.588Z</time>
      </trkpt>
      <trkpt lat="50.130506" lon="5.565519">
        <ele>413.152256</ele>
        <time>2020-10-05T08:53:50.296Z</time>
      </trkpt>
      <trkpt lat="50.131061" lon="5.566181">
        <ele>411.495624</ele>
        <time>2020-10-05T08:54:12.263Z</time>
      </trkpt>
      <trkpt lat="50.131237" lon="5.566303">
        <ele>411.038948</ele>
        <time>2020-10-05T08:54:18.368Z</time>
      </trkpt>
      <trkpt lat="50.131445" lon="5.566355">
        <ele>410.539448</ele>
        <time>2020-10-05T08:54:25.233Z</time>
      </trkpt>
      <trkpt lat="50.131119" lon="5.566503">
        <ele>409.972528</ele>
        <time>2020-10-05T08:54:36.759Z</time>
      </trkpt>
      <trkpt lat="50.130957" lon="5.566552">
        <ele>409.822974</ele>
        <time>2020-10-05T08:54:42.603Z</time>
      </trkpt>
      <trkpt lat="50.130497" lon="5.566603">
        <ele>409.405026</ele>
        <time>2020-10-05T08:54:58.393Z</time>
      </trkpt>
      <trkpt lat="50.130957" lon="5.566552">
        <ele>408.987079</ele>
        <time>2020-10-05T08:55:14.124Z</time>
      </trkpt>
      <trkpt lat="50.131119" lon="5.566503">
        <ele>408.837524</ele>
        <time>2020-10-05T08:55:19.868Z</time>
      </trkpt>
      <trkpt lat="50.131445" lon="5.566355">
        <ele>408.529815</ele>
        <time>2020-10-05T08:55:31.606Z</time>
      </trkpt>
      <trkpt lat="50.131889" lon="5.566200">
        <ele>407.563912</ele>
        <time>2020-10-05T08:55:47.154Z</time>
      </trkpt>
      <trkpt lat="50.132562" lon="5.565929">
        <ele>405.997373</ele>
        <time>2020-10-05T08:56:09.632Z</time>
      </trkpt>
      <trkpt lat="50.132738" lon="5.565802">
        <ele>405.560321</ele>
        <time>2020-10-05T08:56:15.516Z</time>
      </trkpt>
      <trkpt lat="50.133520" lon="5.565105">
        <ele>402.203268</ele>
        <time>2020-10-05T08:56:41.338Z</time>
      </trkpt>
      <trkpt lat="50.134120" lon="5.564364">
        <ele>397.950563</ele>
        <time>2020-10-05T08:57:01.711Z</time>
      </trkpt>
      <trkpt lat="50.134361" lon="5.564289">
        <ele>396.584869</ele>
        <time>2020-10-05T08:57:08.097Z</time>
      </trkpt>
      <trkpt lat="50.134565" lon="5.564341">
        <ele>395.436149</ele>
        <time>2020-10-05T08:57:13.720Z</time>
      </trkpt>
      <trkpt lat="50.134804" lon="5.564569">
        <ele>393.924122</ele>
        <time>2020-10-05T08:57:21.087Z</time>
      </trkpt>
      <trkpt lat="50.134877" lon="5.564710">
        <ele>393.330044</ele>
        <time>2020-10-05T08:57:24.255Z</time>
      </trkpt>
      <trkpt lat="50.134928" lon="5.564834">
        <ele>392.847138</ele>
        <time>2020-10-05T08:57:26.591Z</time>
      </trkpt>
      <trkpt lat="50.135060" lon="5.565150">
        <ele>391.610864</ele>
        <time>2020-10-05T08:57:33.286Z</time>
      </trkpt>
      <trkpt lat="50.135279" lon="5.565396">
        <ele>390.230930</ele>
        <time>2020-10-05T08:57:40.531Z</time>
      </trkpt>
      <trkpt lat="50.135801" lon="5.565773">
        <ele>387.289532</ele>
        <time>2020-10-05T08:57:56.248Z</time>
      </trkpt>
      <trkpt lat="50.136041" lon="5.566020">
        <ele>385.819316</ele>
        <time>2020-10-05T08:58:04.512Z</time>
      </trkpt>
      <trkpt lat="50.136255" lon="5.566293">
        <ele>384.782179</ele>
        <time>2020-10-05T08:58:12.381Z</time>
      </trkpt>
      <trkpt lat="50.136683" lon="5.567193">
        <ele>382.760581</ele>
        <time>2020-10-05T08:58:34.498Z</time>
      </trkpt>
      <trkpt lat="50.137010" lon="5.567524">
        <ele>381.663540</ele>
        <time>2020-10-05T08:58:46.511Z</time>
      </trkpt>
      <trkpt lat="50.137938" lon="5.567734">
        <ele>378.737906</ele>
        <time>2020-10-05T08:59:15.121Z</time>
      </trkpt>
      <trkpt lat="50.138497" lon="5.567941">
        <ele>376.720297</ele>
        <time>2020-10-05T08:59:31.872Z</time>
      </trkpt>
      <trkpt lat="50.139423" lon="5.568046">
        <ele>373.406454</ele>
        <time>2020-10-05T08:59:58.239Z</time>
      </trkpt>
      <trkpt lat="50.139695" lon="5.568192">
        <ele>372.263052</ele>
        <time>2020-10-05T09:00:06.333Z</time>
      </trkpt>
      <trkpt lat="50.140065" lon="5.568639">
        <ele>370.402940</ele>
        <time>2020-10-05T09:00:19.633Z</time>
      </trkpt>
      <trkpt lat="50.140496" lon="5.568510">
        <ele>368.658463</ele>
        <time>2020-10-05T09:00:32.200Z</time>
      </trkpt>
      <trkpt lat="50.140803" lon="5.569123">
        <ele>366.686474</ele>
        <time>2020-10-05T09:00:46.357Z</time>
      </trkpt>
      <trkpt lat="50.141681" lon="5.569728">
        <ele>363.864400</ele>
        <time>2020-10-05T09:01:14.619Z</time>
      </trkpt>
      <trkpt lat="50.141812" lon="5.569779">
        <ele>363.467419</ele>
        <time>2020-10-05T09:01:18.452Z</time>
      </trkpt>
      <trkpt lat="50.141840" lon="5.570233">
        <ele>362.607960</ele>
        <time>2020-10-05T09:01:22.967Z</time>
      </trkpt>
      <trkpt lat="50.141906" lon="5.570929">
        <ele>361.427126</ele>
        <time>2020-10-05T09:01:29.886Z</time>
      </trkpt>
      <trkpt lat="50.141996" lon="5.571176">
        <ele>361.430236</ele>
        <time>2020-10-05T09:01:33.134Z</time>
      </trkpt>
      <trkpt lat="50.142079" lon="5.571254">
        <ele>361.431891</ele>
        <time>2020-10-05T09:01:34.623Z</time>
      </trkpt>
      <trkpt lat="50.142124" lon="5.571152">
        <ele>361.433246</ele>
        <time>2020-10-05T09:01:35.817Z</time>
      </trkpt>
      <trkpt lat="50.142301" lon="5.571049">
        <ele>361.436473</ele>
        <time>2020-10-05T09:01:39.510Z</time>
      </trkpt>
      <trkpt lat="50.142787" lon="5.571003">
        <ele>361.444789</ele>
        <time>2020-10-05T09:01:48.615Z</time>
      </trkpt>
      <trkpt lat="50.142902" lon="5.570931">
        <ele>361.446905</ele>
        <time>2020-10-05T09:01:51.436Z</time>
      </trkpt>
      <trkpt lat="50.143000" lon="5.570819">
        <ele>361.448980</ele>
        <time>2020-10-05T09:01:54.612Z</time>
      </trkpt>
      <trkpt lat="50.143151" lon="5.570440">
        <ele>361.453865</ele>
        <time>2020-10-05T09:02:01.691Z</time>
      </trkpt>
      <trkpt lat="50.143215" lon="5.569949">
        <ele>361.865198</ele>
        <time>2020-10-05T09:02:10.295Z</time>
      </trkpt>
      <trkpt lat="50.143301" lon="5.566909">
        <ele>367.235567</ele>
        <time>2020-10-05T09:03:16.240Z</time>
      </trkpt>
      <trkpt lat="50.143497" lon="5.565886">
        <ele>368.232945</ele>
        <time>2020-10-05T09:03:36.614Z</time>
      </trkpt>
      <trkpt lat="50.143658" lon="5.565314">
        <ele>368.816513</ele>
        <time>2020-10-05T09:03:46.518Z</time>
      </trkpt>
      <trkpt lat="50.144082" lon="5.564357">
        <ele>368.594578</ele>
        <time>2020-10-05T09:04:00.229Z</time>
      </trkpt>
      <trkpt lat="50.144483" lon="5.563761">
        <ele>367.137888</ele>
        <time>2020-10-05T09:04:08.658Z</time>
      </trkpt>
      <trkpt lat="50.145298" lon="5.563214">
        <ele>364.804235</ele>
        <time>2020-10-05T09:04:21.460Z</time>
      </trkpt>
      <trkpt lat="50.145753" lon="5.563026">
        <ele>362.814548</ele>
        <time>2020-10-05T09:04:27.942Z</time>
      </trkpt>
      <trkpt lat="50.145855" lon="5.563012">
        <ele>362.367538</ele>
        <time>2020-10-05T09:04:29.281Z</time>
      </trkpt>
      <trkpt lat="50.146757" lon="5.562884">
        <ele>358.413519</ele>
        <time>2020-10-05T09:04:41.862Z</time>
      </trkpt>
      <trkpt lat="50.146932" lon="5.562896">
        <ele>357.648801</ele>
        <time>2020-10-05T09:04:44.199Z</time>
      </trkpt>
      <trkpt lat="50.147347" lon="5.562960">
        <ele>355.799057</ele>
        <time>2020-10-05T09:04:50.009Z</time>
      </trkpt>
      <trkpt lat="50.148566" lon="5.563199">
        <ele>350.282806</ele>
        <time>2020-10-05T09:05:06.980Z</time>
      </trkpt>
      <trkpt lat="50.149106" lon="5.563242">
        <ele>347.755350</ele>
        <time>2020-10-05T09:05:14.395Z</time>
      </trkpt>
      <trkpt lat="50.150142" lon="5.563164">
        <ele>342.594867</ele>
        <time>2020-10-05T09:05:28.391Z</time>
      </trkpt>
      <trkpt lat="50.150528" lon="5.563017">
        <ele>340.618017</ele>
        <time>2020-10-05T09:05:33.770Z</time>
      </trkpt>
      <trkpt lat="50.150789" lon="5.562748">
        <ele>338.972620</ele>
        <time>2020-10-05T09:05:38.020Z</time>
      </trkpt>
      <trkpt lat="50.151072" lon="5.562486">
        <ele>337.145051</ele>
        <time>2020-10-05T09:05:42.390Z</time>
      </trkpt>
      <trkpt lat="50.152045" lon="5.561594">
        <ele>330.877512</ele>
        <time>2020-10-05T09:05:57.356Z</time>
      </trkpt>
      <trkpt lat="50.152198" lon="5.561542">
        <ele>330.007819</ele>
        <time>2020-10-05T09:05:59.490Z</time>
      </trkpt>
      <trkpt lat="50.152363" lon="5.561520">
        <ele>329.064231</ele>
        <time>2020-10-05T09:06:01.607Z</time>
      </trkpt>
      <trkpt lat="50.152722" lon="5.561484">
        <ele>327.002798</ele>
        <time>2020-10-05T09:06:06.384Z</time>
      </trkpt>
      <trkpt lat="50.152972" lon="5.561436">
        <ele>325.559413</ele>
        <time>2020-10-05T09:06:09.752Z</time>
      </trkpt>
      <trkpt lat="50.154869" lon="5.560480">
        <ele>314.585064</ele>
        <time>2020-10-05T09:06:36.097Z</time>
      </trkpt>
      <trkpt lat="50.155291" lon="5.560470">
        <ele>312.367721</ele>
        <time>2020-10-05T09:06:41.792Z</time>
      </trkpt>
      <trkpt lat="50.156828" lon="5.560641">
        <ele>305.121362</ele>
        <time>2020-10-05T09:07:03.041Z</time>
      </trkpt>
      <trkpt lat="50.157301" lon="5.560568">
        <ele>302.989176</ele>
        <time>2020-10-05T09:07:09.641Z</time>
      </trkpt>
      <trkpt lat="50.157541" lon="5.560467">
        <ele>301.850649</ele>
        <time>2020-10-05T09:07:13.108Z</time>
      </trkpt>
      <trkpt lat="50.158654" lon="5.559685">
        <ele>295.455610</ele>
        <time>2020-10-05T09:07:29.547Z</time>
      </trkpt>
      <trkpt lat="50.159309" lon="5.559079">
        <ele>291.839112</ele>
        <time>2020-10-05T09:07:39.532Z</time>
      </trkpt>
      <trkpt lat="50.159491" lon="5.558852">
        <ele>291.023535</ele>
        <time>2020-10-05T09:07:42.708Z</time>
      </trkpt>
      <trkpt lat="50.159581" lon="5.558738">
        <ele>290.617770</ele>
        <time>2020-10-05T09:07:44.264Z</time>
      </trkpt>
      <trkpt lat="50.159816" lon="5.558440">
        <ele>289.557803</ele>
        <time>2020-10-05T09:07:48.521Z</time>
      </trkpt>
      <trkpt lat="50.159844" lon="5.558403">
        <ele>289.429370</ele>
        <time>2020-10-05T09:07:49.024Z</time>
      </trkpt>
      <trkpt lat="50.159897" lon="5.558333">
        <ele>289.186318</ele>
        <time>2020-10-05T09:07:50.048Z</time>
      </trkpt>
      <trkpt lat="50.160041" lon="5.558144">
        <ele>288.527669</ele>
        <time>2020-10-05T09:07:52.812Z</time>
      </trkpt>
      <trkpt lat="50.160371" lon="5.558466">
        <ele>287.165244</ele>
        <time>2020-10-05T09:07:58.660Z</time>
      </trkpt>
      <trkpt lat="50.160954" lon="5.559251">
        <ele>286.678175</ele>
        <time>2020-10-05T09:08:12.090Z</time>
      </trkpt>
      <trkpt lat="50.161411" lon="5.560127">
        <ele>287.213123</ele>
        <time>2020-10-05T09:08:32.534Z</time>
      </trkpt>
      <trkpt lat="50.161582" lon="5.560672">
        <ele>287.500482</ele>
        <time>2020-10-05T09:08:43.315Z</time>
      </trkpt>
      <trkpt lat="50.161894" lon="5.562256">
        <ele>287.563417</ele>
        <time>2020-10-05T09:09:08.602Z</time>
      </trkpt>
      <trkpt lat="50.161984" lon="5.562455">
        <ele>287.553100</ele>
        <time>2020-10-05T09:09:11.663Z</time>
      </trkpt>
      <trkpt lat="50.162680" lon="5.563603">
        <ele>286.748267</ele>
        <time>2020-10-05T09:09:28.985Z</time>
      </trkpt>
      <trkpt lat="50.163364" lon="5.564557">
        <ele>284.145836</ele>
        <time>2020-10-05T09:09:42.807Z</time>
      </trkpt>
      <trkpt lat="50.164112" lon="5.566035">
        <ele>279.578407</ele>
        <time>2020-10-05T09:09:59.764Z</time>
      </trkpt>
      <trkpt lat="50.164573" lon="5.566757">
        <ele>276.462715</ele>
        <time>2020-10-05T09:10:08.644Z</time>
      </trkpt>
      <trkpt lat="50.164700" lon="5.566854">
        <ele>275.788132</ele>
        <time>2020-10-05T09:10:10.556Z</time>
      </trkpt>
      <trkpt lat="50.165214" lon="5.566936">
        <ele>273.192747</ele>
        <time>2020-10-05T09:10:17.475Z</time>
      </trkpt>
      <trkpt lat="50.165411" lon="5.566859">
        <ele>271.969422</ele>
        <time>2020-10-05T09:10:20.187Z</time>
      </trkpt>
      <trkpt lat="50.166650" lon="5.565946">
        <ele>263.716222</ele>
        <time>2020-10-05T09:10:37.922Z</time>
      </trkpt>
      <trkpt lat="50.166785" lon="5.565910">
        <ele>262.921796</ele>
        <time>2020-10-05T09:10:39.861Z</time>
      </trkpt>
      <trkpt lat="50.166899" lon="5.565923">
        <ele>262.459681</ele>
        <time>2020-10-05T09:10:41.376Z</time>
      </trkpt>
      <trkpt lat="50.166955" lon="5.565953">
        <ele>262.220322</ele>
        <time>2020-10-05T09:10:42.081Z</time>
      </trkpt>
      <trkpt lat="50.168099" lon="5.567036">
        <ele>256.811386</ele>
        <time>2020-10-05T09:11:00.745Z</time>
      </trkpt>
      <trkpt lat="50.168872" lon="5.568430">
        <ele>254.429930</ele>
        <time>2020-10-05T09:11:19.922Z</time>
      </trkpt>
      <trkpt lat="50.169309" lon="5.569075">
        <ele>253.581598</ele>
        <time>2020-10-05T09:11:30.639Z</time>
      </trkpt>
      <trkpt lat="50.170281" lon="5.570326">
        <ele>252.712333</ele>
        <time>2020-10-05T09:11:52.964Z</time>
      </trkpt>
      <trkpt lat="50.170998" lon="5.571572">
        <ele>252.496910</ele>
        <time>2020-10-05T09:12:13.675Z</time>
      </trkpt>
      <trkpt lat="50.172102" lon="5.573682">
        <ele>253.758942</ele>
        <time>2020-10-05T09:12:56.033Z</time>
      </trkpt>
      <trkpt lat="50.173141" lon="5.575957">
        <ele>254.191540</ele>
        <time>2020-10-05T09:13:39.841Z</time>
      </trkpt>
      <trkpt lat="50.173794" lon="5.577057">
        <ele>250.585598</ele>
        <time>2020-10-05T09:13:53.773Z</time>
      </trkpt>
      <trkpt lat="50.174380" lon="5.577620">
        <ele>247.882189</ele>
        <time>2020-10-05T09:14:02.778Z</time>
      </trkpt>
      <trkpt lat="50.174458" lon="5.577753">
        <ele>247.029149</ele>
        <time>2020-10-05T09:14:04.378Z</time>
      </trkpt>
      <trkpt lat="50.174508" lon="5.577809">
        <ele>246.574678</ele>
        <time>2020-10-05T09:14:05.197Z</time>
      </trkpt>
      <trkpt lat="50.174590" lon="5.577864">
        <ele>245.915528</ele>
        <time>2020-10-05T09:14:06.335Z</time>
      </trkpt>
      <trkpt lat="50.174660" lon="5.577853">
        <ele>245.395911</ele>
        <time>2020-10-05T09:14:07.135Z</time>
      </trkpt>
      <trkpt lat="50.175205" lon="5.577536">
        <ele>241.100435</ele>
        <time>2020-10-05T09:14:14.585Z</time>
      </trkpt>
      <trkpt lat="50.175852" lon="5.576934">
        <ele>235.537737</ele>
        <time>2020-10-05T09:14:24.058Z</time>
      </trkpt>
      <trkpt lat="50.175955" lon="5.576884">
        <ele>234.786641</ele>
        <time>2020-10-05T09:14:25.321Z</time>
      </trkpt>
      <trkpt lat="50.175985" lon="5.576840">
        <ele>234.618569</ele>
        <time>2020-10-05T09:14:25.749Z</time>
      </trkpt>
      <trkpt lat="50.176170" lon="5.576584">
        <ele>233.609161</ele>
        <time>2020-10-05T09:14:28.117Z</time>
      </trkpt>
      <trkpt lat="50.176392" lon="5.576303">
        <ele>232.442190</ele>
        <time>2020-10-05T09:14:30.885Z</time>
      </trkpt>
      <trkpt lat="50.176582" lon="5.576281">
        <ele>231.664200</ele>
        <time>2020-10-05T09:14:32.692Z</time>
      </trkpt>
      <trkpt lat="50.176620" lon="5.576297">
        <ele>231.503486</ele>
        <time>2020-10-05T09:14:33.066Z</time>
      </trkpt>
      <trkpt lat="50.176721" lon="5.576339">
        <ele>231.076680</ele>
        <time>2020-10-05T09:14:34.171Z</time>
      </trkpt>
      <trkpt lat="50.176912" lon="5.576403">
        <ele>230.278981</ele>
        <time>2020-10-05T09:14:36.052Z</time>
      </trkpt>
      <trkpt lat="50.177010" lon="5.576392">
        <ele>229.877768</ele>
        <time>2020-10-05T09:14:37.097Z</time>
      </trkpt>
      <trkpt lat="50.177032" lon="5.576389">
        <ele>229.787590</ele>
        <time>2020-10-05T09:14:37.316Z</time>
      </trkpt>
      <trkpt lat="50.177648" lon="5.576178">
        <ele>227.478519</ele>
        <time>2020-10-05T09:14:44.071Z</time>
      </trkpt>
      <trkpt lat="50.177851" lon="5.576174">
        <ele>227.421274</ele>
        <time>2020-10-05T09:14:46.460Z</time>
      </trkpt>
      <trkpt lat="50.177950" lon="5.576178">
        <ele>227.393349</ele>
        <time>2020-10-05T09:14:47.610Z</time>
      </trkpt>
      <trkpt lat="50.178421" lon="5.576326">
        <ele>227.257877</ele>
        <time>2020-10-05T09:14:53.323Z</time>
      </trkpt>
      <trkpt lat="50.178704" lon="5.576421">
        <ele>227.176255</ele>
        <time>2020-10-05T09:14:57.634Z</time>
      </trkpt>
      <trkpt lat="50.178898" lon="5.576455">
        <ele>227.121209</ele>
        <time>2020-10-05T09:15:00.245Z</time>
      </trkpt>
      <trkpt lat="50.178959" lon="5.576453">
        <ele>227.104004</ele>
        <time>2020-10-05T09:15:01.086Z</time>
      </trkpt>
      <trkpt lat="50.178994" lon="5.576323">
        <ele>227.078540</ele>
        <time>2020-10-05T09:15:03.218Z</time>
      </trkpt>
      <trkpt lat="50.179162" lon="5.576311">
        <ele>227.031118</ele>
        <time>2020-10-05T09:15:05.907Z</time>
      </trkpt>
      <trkpt lat="50.179255" lon="5.576283">
        <ele>227.004412</ele>
        <time>2020-10-05T09:15:07.855Z</time>
      </trkpt>
      <trkpt lat="50.179961" lon="5.576046">
        <ele>228.725383</ele>
        <time>2020-10-05T09:15:26.535Z</time>
      </trkpt>
      <trkpt lat="50.179965" lon="5.575940">
        <ele>228.900121</ele>
        <time>2020-10-05T09:15:29.245Z</time>
      </trkpt>
      <trkpt lat="50.180100" lon="5.575176">
        <ele>230.204357</ele>
        <time>2020-10-05T09:15:43.082Z</time>
      </trkpt>
      <trkpt lat="50.180155" lon="5.574887">
        <ele>230.700497</ele>
        <time>2020-10-05T09:15:48.828Z</time>
      </trkpt>
      <trkpt lat="50.180228" lon="5.574481">
        <ele>231.394451</ele>
        <time>2020-10-05T09:15:54.331Z</time>
      </trkpt>
      <trkpt lat="50.180382" lon="5.574050">
        <ele>231.771979</ele>
        <time>2020-10-05T09:16:01.515Z</time>
      </trkpt>
      <trkpt lat="50.180621" lon="5.573730">
        <ele>231.988464</ele>
        <time>2020-10-05T09:16:09.198Z</time>
      </trkpt>
      <trkpt lat="50.180794" lon="5.573621">
        <ele>232.116744</ele>
        <time>2020-10-05T09:16:13.708Z</time>
      </trkpt>
      <trkpt lat="50.180855" lon="5.573595">
        <ele>232.160225</ele>
        <time>2020-10-05T09:16:14.680Z</time>
      </trkpt>
      <trkpt lat="50.180938" lon="5.573570">
        <ele>232.218351</ele>
        <time>2020-10-05T09:16:16.024Z</time>
      </trkpt>
      <trkpt lat="50.180985" lon="5.573560">
        <ele>232.250969</ele>
        <time>2020-10-05T09:16:16.471Z</time>
      </trkpt>
      <trkpt lat="50.181717" lon="5.573508">
        <ele>232.754844</ele>
        <time>2020-10-05T09:16:26.155Z</time>
      </trkpt>
      <trkpt lat="50.182522" lon="5.573822">
        <ele>236.577137</ele>
        <time>2020-10-05T09:16:38.382Z</time>
      </trkpt>
      <trkpt lat="50.182911" lon="5.573899">
        <ele>238.691034</ele>
        <time>2020-10-05T09:16:52.518Z</time>
      </trkpt>
      <trkpt lat="50.183231" lon="5.573843">
        <ele>240.426967</ele>
        <time>2020-10-05T09:17:07.451Z</time>
      </trkpt>
      <trkpt lat="50.183566" lon="5.573550">
        <ele>242.496913</ele>
        <time>2020-10-05T09:17:30.753Z</time>
      </trkpt>
      <trkpt lat="50.183630" lon="5.573453">
        <ele>243.711687</ele>
        <time>2020-10-05T09:17:38.901Z</time>
      </trkpt>
      <trkpt lat="50.183665" lon="5.573318">
        <ele>245.070381</ele>
        <time>2020-10-05T09:17:43.834Z</time>
      </trkpt>
      <trkpt lat="50.183676" lon="5.573247">
        <ele>245.751834</ele>
        <time>2020-10-05T09:17:45.188Z</time>
      </trkpt>
      <trkpt lat="50.183689" lon="5.573140">
        <ele>246.767820</ele>
        <time>2020-10-05T09:17:49.723Z</time>
      </trkpt>
      <trkpt lat="50.183662" lon="5.572846">
        <ele>249.538539</ele>
        <time>2020-10-05T09:18:05.873Z</time>
      </trkpt>
      <trkpt lat="50.183619" lon="5.572545">
        <ele>252.415530</ele>
        <time>2020-10-05T09:18:17.582Z</time>
      </trkpt>
      <trkpt lat="50.183458" lon="5.572149">
        <ele>256.791460</ele>
        <time>2020-10-05T09:18:39.728Z</time>
      </trkpt>
      <trkpt lat="50.183387" lon="5.572068">
        <ele>258.072444</ele>
        <time>2020-10-05T09:18:47.746Z</time>
      </trkpt>
      <trkpt lat="50.183309" lon="5.571999">
        <ele>259.378448</ele>
        <time>2020-10-05T09:18:57.343Z</time>
      </trkpt>
      <trkpt lat="50.183017" lon="5.571836">
        <ele>263.896111</ele>
        <time>2020-10-05T09:19:21.639Z</time>
      </trkpt>
      <trkpt lat="50.182496" lon="5.571710">
        <ele>270.873042</ele>
        <time>2020-10-05T09:20:03.970Z</time>
      </trkpt>
      <trkpt lat="50.182151" lon="5.571532">
        <ele>274.848273</ele>
        <time>2020-10-05T09:20:28.653Z</time>
      </trkpt>
      <trkpt lat="50.181226" lon="5.570435">
        <ele>287.556003</ele>
        <time>2020-10-05T09:21:32.753Z</time>
      </trkpt>
      <trkpt lat="50.180751" lon="5.569608">
        <ele>289.533592</ele>
        <time>2020-10-05T09:21:58.049Z</time>
      </trkpt>
      <trkpt lat="50.180382" lon="5.568758">
        <ele>290.683650</ele>
        <time>2020-10-05T09:22:11.602Z</time>
      </trkpt>
      <trkpt lat="50.180050" lon="5.567391">
        <ele>289.146095</ele>
        <time>2020-10-05T09:22:21.085Z</time>
      </trkpt>
      <trkpt lat="50.180044" lon="5.566613">
        <ele>286.311004</ele>
        <time>2020-10-05T09:22:25.646Z</time>
      </trkpt>
      <trkpt lat="50.180085" lon="5.566237">
        <ele>284.921210</ele>
        <time>2020-10-05T09:22:27.825Z</time>
      </trkpt>
      <trkpt lat="50.180514" lon="5.564619">
        <ele>277.955687</ele>
        <time>2020-10-05T09:22:37.959Z</time>
      </trkpt>
      <trkpt lat="50.180718" lon="5.564113">
        <ele>275.322155</ele>
        <time>2020-10-05T09:22:41.501Z</time>
      </trkpt>
      <trkpt lat="50.181405" lon="5.561774">
        <ele>263.161922</ele>
        <time>2020-10-05T09:22:56.271Z</time>
      </trkpt>
      <trkpt lat="50.181730" lon="5.560532">
        <ele>256.272144</ele>
        <time>2020-10-05T09:23:03.911Z</time>
      </trkpt>
      <trkpt lat="50.182032" lon="5.559418">
        <ele>250.131481</ele>
        <time>2020-10-05T09:23:10.601Z</time>
      </trkpt>
      <trkpt lat="50.182136" lon="5.559059">
        <ele>248.140301</ele>
        <time>2020-10-05T09:23:12.778Z</time>
      </trkpt>
      <trkpt lat="50.182185" lon="5.558884">
        <ele>247.175113</ele>
        <time>2020-10-05T09:23:13.861Z</time>
      </trkpt>
      <trkpt lat="50.182378" lon="5.558270">
        <ele>243.718678</ele>
        <time>2020-10-05T09:23:17.778Z</time>
      </trkpt>
      <trkpt lat="50.182524" lon="5.557804">
        <ele>241.097060</ele>
        <time>2020-10-05T09:23:20.849Z</time>
      </trkpt>
      <trkpt lat="50.183239" lon="5.555809">
        <ele>234.912602</ele>
        <time>2020-10-05T09:23:34.777Z</time>
      </trkpt>
      <trkpt lat="50.183982" lon="5.553175">
        <ele>231.486268</ele>
        <time>2020-10-05T09:23:56.738Z</time>
      </trkpt>
      <trkpt lat="50.184146" lon="5.552336">
        <ele>230.909753</ele>
        <time>2020-10-05T09:24:03.741Z</time>
      </trkpt>
      <trkpt lat="50.184711" lon="5.549492">
        <ele>230.167581</ele>
        <time>2020-10-05T09:24:28.580Z</time>
      </trkpt>
      <trkpt lat="50.184805" lon="5.549039">
        <ele>230.431711</ele>
        <time>2020-10-05T09:24:33.981Z</time>
      </trkpt>
      <trkpt lat="50.184845" lon="5.548826">
        <ele>230.554833</ele>
        <time>2020-10-05T09:24:36.492Z</time>
      </trkpt>
      <trkpt lat="50.184980" lon="5.548180">
        <ele>230.931749</ele>
        <time>2020-10-05T09:24:45.457Z</time>
      </trkpt>
      <trkpt lat="50.185954" lon="5.544985">
        <ele>233.321286</ele>
        <time>2020-10-05T09:25:33.125Z</time>
      </trkpt>
      <trkpt lat="50.186284" lon="5.544220">
        <ele>232.918278</ele>
        <time>2020-10-05T09:25:40.667Z</time>
      </trkpt>
      <trkpt lat="50.186647" lon="5.543576">
        <ele>232.160109</ele>
        <time>2020-10-05T09:25:47.098Z</time>
      </trkpt>
      <trkpt lat="50.187240" lon="5.542703">
        <ele>231.035448</ele>
        <time>2020-10-05T09:25:56.058Z</time>
      </trkpt>
      <trkpt lat="50.188956" lon="5.540794">
        <ele>225.149998</ele>
        <time>2020-10-05T09:26:18.156Z</time>
      </trkpt>
      <trkpt lat="50.189078" lon="5.540651">
        <ele>224.616113</ele>
        <time>2020-10-05T09:26:19.588Z</time>
      </trkpt>
      <trkpt lat="50.189427" lon="5.540248">
        <ele>223.096987</ele>
        <time>2020-10-05T09:26:23.790Z</time>
      </trkpt>
      <trkpt lat="50.189806" lon="5.539923">
        <ele>221.583669</ele>
        <time>2020-10-05T09:26:28.016Z</time>
      </trkpt>
      <trkpt lat="50.189892" lon="5.539883">
        <ele>221.269598</ele>
        <time>2020-10-05T09:26:28.843Z</time>
      </trkpt>
      <trkpt lat="50.190024" lon="5.539849">
        <ele>220.801344</ele>
        <time>2020-10-05T09:26:30.105Z</time>
      </trkpt>
      <trkpt lat="50.192800" lon="5.540002">
        <ele>215.568608</ele>
        <time>2020-10-05T09:27:00.700Z</time>
      </trkpt>
      <trkpt lat="50.193505" lon="5.539911">
        <ele>215.096566</ele>
        <time>2020-10-05T09:27:12.047Z</time>
      </trkpt>
      <trkpt lat="50.193978" lon="5.539640">
        <ele>214.809829</ele>
        <time>2020-10-05T09:27:19.871Z</time>
      </trkpt>
      <trkpt lat="50.194369" lon="5.539180">
        <ele>214.661814</ele>
        <time>2020-10-05T09:27:27.414Z</time>
      </trkpt>
      <trkpt lat="50.196079" lon="5.536615">
        <ele>213.654358</ele>
        <time>2020-10-05T09:27:58.384Z</time>
      </trkpt>
      <trkpt lat="50.196699" lon="5.535889">
        <ele>213.326649</ele>
        <time>2020-10-05T09:28:08.522Z</time>
      </trkpt>
      <trkpt lat="50.198577" lon="5.534596">
        <ele>213.225499</ele>
        <time>2020-10-05T09:28:40.224Z</time>
      </trkpt>
      <trkpt lat="50.199479" lon="5.534104">
        <ele>212.995001</ele>
        <time>2020-10-05T09:28:54.351Z</time>
      </trkpt>
      <trkpt lat="50.200185" lon="5.534033">
        <ele>212.493573</ele>
        <time>2020-10-05T09:29:02.980Z</time>
      </trkpt>
      <trkpt lat="50.201126" lon="5.534014">
        <ele>211.197672</ele>
        <time>2020-10-05T09:29:14.021Z</time>
      </trkpt>
      <trkpt lat="50.202098" lon="5.533988">
        <ele>209.938807</ele>
        <time>2020-10-05T09:29:24.817Z</time>
      </trkpt>
      <trkpt lat="50.202721" lon="5.534061">
        <ele>209.201381</ele>
        <time>2020-10-05T09:29:32.173Z</time>
      </trkpt>
      <trkpt lat="50.203207" lon="5.534290">
        <ele>208.602207</ele>
        <time>2020-10-05T09:29:38.702Z</time>
      </trkpt>
      <trkpt lat="50.203481" lon="5.534507">
        <ele>208.272613</ele>
        <time>2020-10-05T09:29:42.593Z</time>
      </trkpt>
      <trkpt lat="50.204096" lon="5.535167">
        <ele>207.919123</ele>
        <time>2020-10-05T09:29:52.248Z</time>
      </trkpt>
      <trkpt lat="50.205626" lon="5.536274">
        <ele>207.355390</ele>
        <time>2020-10-05T09:30:15.379Z</time>
      </trkpt>
      <trkpt lat="50.206145" lon="5.536834">
        <ele>207.274545</ele>
        <time>2020-10-05T09:30:24.011Z</time>
      </trkpt>
      <trkpt lat="50.206717" lon="5.537334">
        <ele>207.542292</ele>
        <time>2020-10-05T09:30:34.348Z</time>
      </trkpt>
      <trkpt lat="50.207016" lon="5.537510">
        <ele>208.171177</ele>
        <time>2020-10-05T09:30:39.879Z</time>
      </trkpt>
      <trkpt lat="50.207296" lon="5.537601">
        <ele>208.734084</ele>
        <time>2020-10-05T09:30:45.724Z</time>
      </trkpt>
      <trkpt lat="50.207296" lon="5.537602">
        <ele>208.735344</ele>
        <time>2020-10-05T09:30:45.773Z</time>
      </trkpt>
      <trkpt lat="50.207574" lon="5.537646">
        <ele>209.285318</ele>
        <time>2020-10-05T09:30:52.057Z</time>
      </trkpt>
      <trkpt lat="50.207729" lon="5.537632">
        <ele>209.590907</ele>
        <time>2020-10-05T09:30:55.819Z</time>
      </trkpt>
      <trkpt lat="50.207864" lon="5.537601">
        <ele>209.859475</ele>
        <time>2020-10-05T09:30:59.324Z</time>
      </trkpt>
      <trkpt lat="50.208078" lon="5.537434">
        <ele>210.330293</ele>
        <time>2020-10-05T09:31:05.678Z</time>
      </trkpt>
      <trkpt lat="50.208274" lon="5.537081">
        <ele>211.069067</ele>
        <time>2020-10-05T09:31:14.360Z</time>
      </trkpt>
      <trkpt lat="50.208307" lon="5.536931">
        <ele>211.448701</ele>
        <time>2020-10-05T09:31:17.405Z</time>
      </trkpt>
      <trkpt lat="50.208343" lon="5.536769">
        <ele>211.859145</ele>
        <time>2020-10-05T09:31:20.845Z</time>
      </trkpt>
      <trkpt lat="50.208345" lon="5.536356">
        <ele>212.847660</ele>
        <time>2020-10-05T09:31:29.339Z</time>
      </trkpt>
      <trkpt lat="50.208285" lon="5.536093">
        <ele>213.515929</ele>
        <time>2020-10-05T09:31:35.194Z</time>
      </trkpt>
      <trkpt lat="50.208119" lon="5.535319">
        <ele>215.469700</ele>
        <time>2020-10-05T09:31:52.052Z</time>
      </trkpt>
      <trkpt lat="50.208034" lon="5.534818">
        <ele>216.710233</ele>
        <time>2020-10-05T09:32:01.769Z</time>
      </trkpt>
      <trkpt lat="50.207841" lon="5.533869">
        <ele>218.192579</ele>
        <time>2020-10-05T09:32:18.523Z</time>
      </trkpt>
      <trkpt lat="50.207767" lon="5.533061">
        <ele>219.056227</ele>
        <time>2020-10-05T09:32:29.992Z</time>
      </trkpt>
      <trkpt lat="50.207802" lon="5.531833">
        <ele>220.356852</ele>
        <time>2020-10-05T09:32:43.837Z</time>
      </trkpt>
      <trkpt lat="50.207804" lon="5.531686">
        <ele>220.510551</ele>
        <time>2020-10-05T09:32:45.342Z</time>
      </trkpt>
      <trkpt lat="50.207647" lon="5.529713">
        <ele>222.548612</ele>
        <time>2020-10-05T09:33:10.156Z</time>
      </trkpt>
      <trkpt lat="50.207604" lon="5.529246">
        <ele>223.032256</ele>
        <time>2020-10-05T09:33:17.290Z</time>
      </trkpt>
      <trkpt lat="50.207585" lon="5.529081">
        <ele>223.204111</ele>
        <time>2020-10-05T09:33:20.442Z</time>
      </trkpt>
      <trkpt lat="50.207405" lon="5.527142">
        <ele>226.510219</ele>
        <time>2020-10-05T09:33:55.464Z</time>
      </trkpt>
      <trkpt lat="50.207351" lon="5.524523">
        <ele>228.222113</ele>
        <time>2020-10-05T09:34:33.741Z</time>
      </trkpt>
      <trkpt lat="50.207465" lon="5.523868">
        <ele>228.229955</ele>
        <time>2020-10-05T09:34:38.789Z</time>
      </trkpt>
      <trkpt lat="50.207685" lon="5.523222">
        <ele>227.564097</ele>
        <time>2020-10-05T09:34:43.573Z</time>
      </trkpt>
      <trkpt lat="50.207982" lon="5.522657">
        <ele>225.548999</ele>
        <time>2020-10-05T09:34:47.998Z</time>
      </trkpt>
      <trkpt lat="50.208678" lon="5.521729">
        <ele>221.608863</ele>
        <time>2020-10-05T09:34:56.614Z</time>
      </trkpt>
      <trkpt lat="50.208941" lon="5.521434">
        <ele>220.358420</ele>
        <time>2020-10-05T09:34:59.724Z</time>
      </trkpt>
      <trkpt lat="50.209061" lon="5.521266">
        <ele>220.026778</ele>
        <time>2020-10-05T09:35:01.395Z</time>
      </trkpt>
      <trkpt lat="50.209844" lon="5.520332">
        <ele>217.999152</ele>
        <time>2020-10-05T09:35:11.841Z</time>
      </trkpt>
      <trkpt lat="50.210269" lon="5.520021">
        <ele>217.033185</ele>
        <time>2020-10-05T09:35:18.071Z</time>
      </trkpt>
      <trkpt lat="50.210754" lon="5.519703">
        <ele>216.550768</ele>
        <time>2020-10-05T09:35:26.184Z</time>
      </trkpt>
      <trkpt lat="50.212281" lon="5.519030">
        <ele>215.356209</ele>
        <time>2020-10-05T09:35:46.761Z</time>
      </trkpt>
      <trkpt lat="50.213112" lon="5.519045">
        <ele>213.719645</ele>
        <time>2020-10-05T09:35:56.092Z</time>
      </trkpt>
      <trkpt lat="50.215563" lon="5.519495">
        <ele>207.741227</ele>
        <time>2020-10-05T09:36:21.838Z</time>
      </trkpt>
      <trkpt lat="50.215854" lon="5.519511">
        <ele>207.103693</ele>
        <time>2020-10-05T09:36:24.915Z</time>
      </trkpt>
      <trkpt lat="50.216619" lon="5.519423">
        <ele>205.610713</ele>
        <time>2020-10-05T09:36:33.353Z</time>
      </trkpt>
      <trkpt lat="50.217575" lon="5.519309">
        <ele>203.850594</ele>
        <time>2020-10-05T09:36:44.025Z</time>
      </trkpt>
      <trkpt lat="50.217884" lon="5.519356">
        <ele>203.533209</ele>
        <time>2020-10-05T09:36:47.837Z</time>
      </trkpt>
      <trkpt lat="50.218270" lon="5.519472">
        <ele>203.131370</ele>
        <time>2020-10-05T09:36:52.615Z</time>
      </trkpt>
      <trkpt lat="50.218611" lon="5.519554">
        <ele>202.778662</ele>
        <time>2020-10-05T09:36:56.866Z</time>
      </trkpt>
      <trkpt lat="50.218951" lon="5.519719">
        <ele>202.414706</ele>
        <time>2020-10-05T09:37:01.318Z</time>
      </trkpt>
      <trkpt lat="50.219757" lon="5.520000">
        <ele>202.033114</ele>
        <time>2020-10-05T09:37:12.106Z</time>
      </trkpt>
      <trkpt lat="50.220791" lon="5.520410">
        <ele>201.845735</ele>
        <time>2020-10-05T09:37:28.607Z</time>
      </trkpt>
      <trkpt lat="50.221645" lon="5.520976">
        <ele>201.466316</ele>
        <time>2020-10-05T09:37:41.652Z</time>
      </trkpt>
      <trkpt lat="50.222450" lon="5.521654">
        <ele>201.038957</ele>
        <time>2020-10-05T09:37:53.442Z</time>
      </trkpt>
      <trkpt lat="50.222636" lon="5.521903">
        <ele>200.957128</ele>
        <time>2020-10-05T09:37:56.531Z</time>
      </trkpt>
      <trkpt lat="50.222907" lon="5.522576">
        <ele>200.880724</ele>
        <time>2020-10-05T09:38:02.986Z</time>
      </trkpt>
      <trkpt lat="50.223130" lon="5.523684">
        <ele>200.769122</ele>
        <time>2020-10-05T09:38:12.935Z</time>
      </trkpt>
      <trkpt lat="50.223256" lon="5.524098">
        <ele>200.725073</ele>
        <time>2020-10-05T09:38:17.755Z</time>
      </trkpt>
      <trkpt lat="50.223375" lon="5.524329">
        <ele>200.777854</ele>
        <time>2020-10-05T09:38:21.178Z</time>
      </trkpt>
      <trkpt lat="50.223595" lon="5.524632">
        <ele>201.341833</ele>
        <time>2020-10-05T09:38:27.189Z</time>
      </trkpt>
      <trkpt lat="50.223773" lon="5.524760">
        <ele>201.718688</ele>
        <time>2020-10-05T09:38:31.299Z</time>
      </trkpt>
      <trkpt lat="50.223996" lon="5.524838">
        <ele>202.158207</ele>
        <time>2020-10-05T09:38:36.568Z</time>
      </trkpt>
      <trkpt lat="50.224312" lon="5.524838">
        <ele>202.765991</ele>
        <time>2020-10-05T09:38:43.913Z</time>
      </trkpt>
      <trkpt lat="50.224649" lon="5.524726">
        <ele>203.428655</ele>
        <time>2020-10-05T09:38:52.331Z</time>
      </trkpt>
      <trkpt lat="50.224882" lon="5.524650">
        <ele>203.886453</ele>
        <time>2020-10-05T09:38:58.101Z</time>
      </trkpt>
      <trkpt lat="50.225037" lon="5.524589">
        <ele>204.197799</ele>
        <time>2020-10-05T09:39:02.379Z</time>
      </trkpt>
      <trkpt lat="50.225337" lon="5.524459">
        <ele>204.869979</ele>
        <time>2020-10-05T09:39:10.323Z</time>
      </trkpt>
      <trkpt lat="50.225817" lon="5.524104">
        <ele>206.016537</ele>
        <time>2020-10-05T09:39:24.051Z</time>
      </trkpt>
      <trkpt lat="50.228761" lon="5.521430">
        <ele>211.148809</ele>
        <time>2020-10-05T09:40:37.083Z</time>
      </trkpt>
      <trkpt lat="50.229096" lon="5.521043">
        <ele>211.252729</ele>
        <time>2020-10-05T09:40:43.653Z</time>
      </trkpt>
      <trkpt lat="50.229518" lon="5.520210">
        <ele>211.422308</ele>
        <time>2020-10-05T09:40:52.528Z</time>
      </trkpt>
      <trkpt lat="50.229879" lon="5.518987">
        <ele>208.897544</ele>
        <time>2020-10-05T09:41:02.095Z</time>
      </trkpt>
      <trkpt lat="50.230386" lon="5.517010">
        <ele>204.149446</ele>
        <time>2020-10-05T09:41:15.289Z</time>
      </trkpt>
      <trkpt lat="50.230593" lon="5.516459">
        <ele>202.299701</ele>
        <time>2020-10-05T09:41:19.177Z</time>
      </trkpt>
      <trkpt lat="50.230735" lon="5.516108">
        <ele>201.097493</ele>
        <time>2020-10-05T09:41:21.702Z</time>
      </trkpt>
      <trkpt lat="50.231429" lon="5.514822">
        <ele>196.763673</ele>
        <time>2020-10-05T09:41:32.003Z</time>
      </trkpt>
      <trkpt lat="50.231854" lon="5.514114">
        <ele>194.928025</ele>
        <time>2020-10-05T09:41:38.306Z</time>
      </trkpt>
      <trkpt lat="50.232944" lon="5.512483">
        <ele>191.723348</ele>
        <time>2020-10-05T09:41:54.971Z</time>
      </trkpt>
      <trkpt lat="50.233255" lon="5.512027">
        <ele>191.257980</ele>
        <time>2020-10-05T09:42:00.299Z</time>
      </trkpt>
      <trkpt lat="50.233365" lon="5.511866">
        <ele>191.093518</ele>
        <time>2020-10-05T09:42:02.244Z</time>
      </trkpt>
      <trkpt lat="50.233718" lon="5.511350">
        <ele>190.566060</ele>
        <time>2020-10-05T09:42:08.656Z</time>
      </trkpt>
      <trkpt lat="50.234416" lon="5.510329">
        <ele>190.495847</ele>
        <time>2020-10-05T09:42:22.312Z</time>
      </trkpt>
      <trkpt lat="50.234684" lon="5.509925">
        <ele>190.496232</ele>
        <time>2020-10-05T09:42:28.128Z</time>
      </trkpt>
      <trkpt lat="50.234775" lon="5.509794">
        <ele>190.496360</ele>
        <time>2020-10-05T09:42:30.041Z</time>
      </trkpt>
      <trkpt lat="50.234833" lon="5.509717">
        <ele>190.496438</ele>
        <time>2020-10-05T09:42:31.259Z</time>
      </trkpt>
      <trkpt lat="50.235057" lon="5.509365">
        <ele>190.496766</ele>
        <time>2020-10-05T09:42:36.477Z</time>
      </trkpt>
      <trkpt lat="50.235137" lon="5.509245">
        <ele>190.502390</ele>
        <time>2020-10-05T09:42:38.375Z</time>
      </trkpt>
      <trkpt lat="50.235185" lon="5.509172">
        <ele>190.506442</ele>
        <time>2020-10-05T09:42:39.470Z</time>
      </trkpt>
      <trkpt lat="50.236066" lon="5.507898">
        <ele>190.579062</ele>
        <time>2020-10-05T09:42:57.558Z</time>
      </trkpt>
      <trkpt lat="50.236219" lon="5.507699">
        <ele>190.591106</ele>
        <time>2020-10-05T09:43:00.551Z</time>
      </trkpt>
      <trkpt lat="50.236652" lon="5.507025">
        <ele>190.435177</ele>
        <time>2020-10-05T09:43:09.205Z</time>
      </trkpt>
      <trkpt lat="50.237886" lon="5.505385">
        <ele>189.654480</ele>
        <time>2020-10-05T09:43:30.542Z</time>
      </trkpt>
      <trkpt lat="50.238505" lon="5.504597">
        <ele>189.134990</ele>
        <time>2020-10-05T09:43:40.803Z</time>
      </trkpt>
      <trkpt lat="50.239023" lon="5.503924">
        <ele>188.696676</ele>
        <time>2020-10-05T09:43:49.488Z</time>
      </trkpt>
      <trkpt lat="50.239812" lon="5.502709">
        <ele>187.986736</ele>
        <time>2020-10-05T09:44:03.872Z</time>
      </trkpt>
      <trkpt lat="50.240082" lon="5.502230">
        <ele>187.725502</ele>
        <time>2020-10-05T09:44:09.065Z</time>
      </trkpt>
      <trkpt lat="50.240205" lon="5.502034">
        <ele>187.613153</ele>
        <time>2020-10-05T09:44:11.363Z</time>
      </trkpt>
      <trkpt lat="50.240275" lon="5.501923">
        <ele>187.549373</ele>
        <time>2020-10-05T09:44:12.558Z</time>
      </trkpt>
      <trkpt lat="50.241533" lon="5.500140">
        <ele>186.773829</ele>
        <time>2020-10-05T09:44:35.092Z</time>
      </trkpt>
      <trkpt lat="50.242224" lon="5.499161">
        <ele>186.762956</ele>
        <time>2020-10-05T09:44:48.980Z</time>
      </trkpt>
      <trkpt lat="50.242483" lon="5.498770">
        <ele>186.813154</ele>
        <time>2020-10-05T09:44:54.488Z</time>
      </trkpt>
      <trkpt lat="50.242560" lon="5.498659">
        <ele>186.827756</ele>
        <time>2020-10-05T09:44:56.155Z</time>
      </trkpt>
      <trkpt lat="50.242827" lon="5.498335">
        <ele>186.874880</ele>
        <time>2020-10-05T09:45:01.462Z</time>
      </trkpt>
      <trkpt lat="50.243560" lon="5.497567">
        <ele>187.180652</ele>
        <time>2020-10-05T09:45:15.922Z</time>
      </trkpt>
      <trkpt lat="50.244064" lon="5.497158">
        <ele>187.440061</ele>
        <time>2020-10-05T09:45:25.489Z</time>
      </trkpt>
      <trkpt lat="50.244112" lon="5.497128">
        <ele>187.463676</ele>
        <time>2020-10-05T09:45:26.192Z</time>
      </trkpt>
      <trkpt lat="50.244532" lon="5.496859">
        <ele>187.671021</ele>
        <time>2020-10-05T09:45:33.596Z</time>
      </trkpt>
      <trkpt lat="50.246596" lon="5.495563">
        <ele>189.897585</ele>
        <time>2020-10-05T09:46:12.919Z</time>
      </trkpt>
      <trkpt lat="50.246969" lon="5.495318">
        <ele>191.073957</ele>
        <time>2020-10-05T09:46:22.482Z</time>
      </trkpt>
      <trkpt lat="50.247630" lon="5.494808">
        <ele>193.217173</ele>
        <time>2020-10-05T09:46:42.878Z</time>
      </trkpt>
      <trkpt lat="50.247651" lon="5.494792">
        <ele>193.285097</ele>
        <time>2020-10-05T09:46:43.667Z</time>
      </trkpt>
      <trkpt lat="50.247965" lon="5.494447">
        <ele>194.460070</ele>
        <time>2020-10-05T09:46:55.925Z</time>
      </trkpt>
      <trkpt lat="50.248659" lon="5.493456">
        <ele>199.317864</ele>
        <time>2020-10-05T09:47:30.349Z</time>
      </trkpt>
      <trkpt lat="50.249571" lon="5.491557">
        <ele>206.266736</ele>
        <time>2020-10-05T09:48:25.332Z</time>
      </trkpt>
      <trkpt lat="50.249959" lon="5.490948">
        <ele>208.386156</ele>
        <time>2020-10-05T09:48:41.876Z</time>
      </trkpt>
      <trkpt lat="50.250351" lon="5.490423">
        <ele>210.375964</ele>
        <time>2020-10-05T09:48:55.304Z</time>
      </trkpt>
      <trkpt lat="50.250550" lon="5.490101">
        <ele>210.445997</ele>
        <time>2020-10-05T09:49:01.678Z</time>
      </trkpt>
      <trkpt lat="50.250709" lon="5.489743">
        <ele>210.317207</ele>
        <time>2020-10-05T09:49:06.785Z</time>
      </trkpt>
      <trkpt lat="50.250825" lon="5.489409">
        <ele>210.204903</ele>
        <time>2020-10-05T09:49:10.176Z</time>
      </trkpt>
      <trkpt lat="50.250877" lon="5.489235">
        <ele>210.148154</ele>
        <time>2020-10-05T09:49:11.601Z</time>
      </trkpt>
      <trkpt lat="50.250986" lon="5.488958">
        <ele>210.052053</ele>
        <time>2020-10-05T09:49:14.137Z</time>
      </trkpt>
      <trkpt lat="50.251070" lon="5.488695">
        <ele>209.965191</ele>
        <time>2020-10-05T09:49:16.225Z</time>
      </trkpt>
      <trkpt lat="50.251139" lon="5.488477">
        <ele>209.893320</ele>
        <time>2020-10-05T09:49:18.079Z</time>
      </trkpt>
      <trkpt lat="50.251234" lon="5.488229">
        <ele>209.807901</ele>
        <time>2020-10-05T09:49:20.100Z</time>
      </trkpt>
      <trkpt lat="50.251368" lon="5.487893">
        <ele>209.534376</ele>
        <time>2020-10-05T09:49:22.938Z</time>
      </trkpt>
      <trkpt lat="50.251652" lon="5.487272">
        <ele>208.289442</ele>
        <time>2020-10-05T09:49:28.016Z</time>
      </trkpt>
      <trkpt lat="50.252535" lon="5.485660">
        <ele>204.912545</ele>
        <time>2020-10-05T09:49:42.106Z</time>
      </trkpt>
      <trkpt lat="50.253593" lon="5.482719">
        <ele>200.350593</ele>
        <time>2020-10-05T09:50:06.698Z</time>
      </trkpt>
      <trkpt lat="50.254050" lon="5.481039">
        <ele>196.840653</ele>
        <time>2020-10-05T09:50:18.497Z</time>
      </trkpt>
      <trkpt lat="50.254982" lon="5.478271">
        <ele>188.669808</ele>
        <time>2020-10-05T09:50:37.808Z</time>
      </trkpt>
      <trkpt lat="50.255471" lon="5.476838">
        <ele>185.189130</ele>
        <time>2020-10-05T09:50:48.100Z</time>
      </trkpt>
      <trkpt lat="50.255737" lon="5.476407">
        <ele>183.905490</ele>
        <time>2020-10-05T09:50:52.058Z</time>
      </trkpt>
      <trkpt lat="50.255907" lon="5.476243">
        <ele>183.236074</ele>
        <time>2020-10-05T09:50:54.130Z</time>
      </trkpt>
      <trkpt lat="50.256408" lon="5.475949">
        <ele>182.247183</ele>
        <time>2020-10-05T09:50:59.983Z</time>
      </trkpt>
      <trkpt lat="50.256465" lon="5.475895">
        <ele>182.154992</ele>
        <time>2020-10-05T09:51:00.659Z</time>
      </trkpt>
      <trkpt lat="50.256655" lon="5.475714">
        <ele>181.847229</ele>
        <time>2020-10-05T09:51:03.238Z</time>
      </trkpt>
      <trkpt lat="50.256940" lon="5.474983">
        <ele>181.089944</ele>
        <time>2020-10-05T09:51:09.583Z</time>
      </trkpt>
      <trkpt lat="50.257043" lon="5.474709">
        <ele>180.808812</ele>
        <time>2020-10-05T09:51:12.289Z</time>
      </trkpt>
      <trkpt lat="50.257088" lon="5.474592">
        <ele>180.688046</ele>
        <time>2020-10-05T09:51:13.323Z</time>
      </trkpt>
      <trkpt lat="50.257245" lon="5.474170">
        <ele>180.314897</ele>
        <time>2020-10-05T09:51:17.615Z</time>
      </trkpt>
      <trkpt lat="50.258419" lon="5.471061">
        <ele>179.986503</ele>
        <time>2020-10-05T09:51:50.660Z</time>
      </trkpt>
      <trkpt lat="50.258620" lon="5.470509">
        <ele>179.993521</ele>
        <time>2020-10-05T09:51:56.729Z</time>
      </trkpt>
      <trkpt lat="50.258806" lon="5.470009">
        <ele>179.999912</ele>
        <time>2020-10-05T09:52:02.322Z</time>
      </trkpt>
      <trkpt lat="50.258856" lon="5.469875">
        <ele>180.001626</ele>
        <time>2020-10-05T09:52:03.824Z</time>
      </trkpt>
      <trkpt lat="50.259106" lon="5.469212">
        <ele>180.125278</ele>
        <time>2020-10-05T09:52:11.366Z</time>
      </trkpt>
      <trkpt lat="50.259353" lon="5.468512">
        <ele>180.594687</ele>
        <time>2020-10-05T09:52:19.468Z</time>
      </trkpt>
      <trkpt lat="50.259662" lon="5.466892">
        <ele>181.587207</ele>
        <time>2020-10-05T09:52:40.992Z</time>
      </trkpt>
      <trkpt lat="50.259764" lon="5.466302">
        <ele>182.318009</ele>
        <time>2020-10-05T09:52:49.566Z</time>
      </trkpt>
      <trkpt lat="50.259943" lon="5.465429">
        <ele>183.555381</ele>
        <time>2020-10-05T09:53:02.674Z</time>
      </trkpt>
      <trkpt lat="50.260100" lon="5.465038">
        <ele>184.178552</ele>
        <time>2020-10-05T09:53:09.582Z</time>
      </trkpt>
      <trkpt lat="50.260231" lon="5.464799">
        <ele>184.603445</ele>
        <time>2020-10-05T09:53:15.279Z</time>
      </trkpt>
      <trkpt lat="50.260409" lon="5.464508">
        <ele>185.147010</ele>
        <time>2020-10-05T09:53:23.211Z</time>
      </trkpt>
      <trkpt lat="50.260941" lon="5.463649">
        <ele>187.522252</ele>
        <time>2020-10-05T09:53:47.516Z</time>
      </trkpt>
      <trkpt lat="50.260944" lon="5.463448">
        <ele>187.951938</ele>
        <time>2020-10-05T09:53:51.596Z</time>
      </trkpt>
      <trkpt lat="50.262693" lon="5.460910">
        <ele>196.156879</ele>
        <time>2020-10-05T09:55:15.788Z</time>
      </trkpt>
      <trkpt lat="50.263094" lon="5.460340">
        <ele>197.890960</ele>
        <time>2020-10-05T09:55:34.087Z</time>
      </trkpt>
      <trkpt lat="50.263250" lon="5.460093">
        <ele>198.176966</ele>
        <time>2020-10-05T09:55:40.673Z</time>
      </trkpt>
      <trkpt lat="50.263274" lon="5.460055">
        <ele>198.220967</ele>
        <time>2020-10-05T09:55:41.739Z</time>
      </trkpt>
      <trkpt lat="50.263873" lon="5.459079">
        <ele>199.335429</ele>
        <time>2020-10-05T09:56:05.435Z</time>
      </trkpt>
      <trkpt lat="50.264189" lon="5.458325">
        <ele>200.078068</ele>
        <time>2020-10-05T09:56:16.919Z</time>
      </trkpt>
      <trkpt lat="50.264233" lon="5.458219">
        <ele>200.055132</ele>
        <time>2020-10-05T09:56:18.328Z</time>
      </trkpt>
      <trkpt lat="50.264675" lon="5.456896">
        <ele>199.124018</ele>
        <time>2020-10-05T09:56:34.480Z</time>
      </trkpt>
      <trkpt lat="50.264971" lon="5.455640">
        <ele>198.227999</ele>
        <time>2020-10-05T09:56:49.343Z</time>
      </trkpt>
      <trkpt lat="50.265255" lon="5.455035">
        <ele>197.325333</ele>
        <time>2020-10-05T09:56:57.880Z</time>
      </trkpt>
      <trkpt lat="50.265321" lon="5.454978">
        <ele>197.183504</ele>
        <time>2020-10-05T09:56:58.932Z</time>
      </trkpt>
      <trkpt lat="50.265492" lon="5.454361">
        <ele>196.374778</ele>
        <time>2020-10-05T09:57:03.868Z</time>
      </trkpt>
      <trkpt lat="50.265585" lon="5.453981">
        <ele>195.885454</ele>
        <time>2020-10-05T09:57:06.681Z</time>
      </trkpt>
      <trkpt lat="50.265758" lon="5.453251">
        <ele>194.925043</ele>
        <time>2020-10-05T09:57:12.022Z</time>
      </trkpt>
      <trkpt lat="50.265903" lon="5.452437">
        <ele>192.789156</ele>
        <time>2020-10-05T09:57:17.479Z</time>
      </trkpt>
      <trkpt lat="50.265965" lon="5.452091">
        <ele>191.880884</ele>
        <time>2020-10-05T09:57:19.797Z</time>
      </trkpt>
      <trkpt lat="50.266149" lon="5.450733">
        <ele>188.372114</ele>
        <time>2020-10-05T09:57:28.318Z</time>
      </trkpt>
      <trkpt lat="50.266170" lon="5.450580">
        <ele>187.976575</ele>
        <time>2020-10-05T09:57:29.287Z</time>
      </trkpt>
      <trkpt lat="50.266198" lon="5.450402">
        <ele>187.501311</ele>
        <time>2020-10-05T09:57:30.378Z</time>
      </trkpt>
      <trkpt lat="50.266334" lon="5.449535">
        <ele>185.167005</ele>
        <time>2020-10-05T09:57:35.769Z</time>
      </trkpt>
      <trkpt lat="50.266530" lon="5.448820">
        <ele>183.132755</ele>
        <time>2020-10-05T09:57:40.556Z</time>
      </trkpt>
      <trkpt lat="50.266573" lon="5.448689">
        <ele>182.747694</ele>
        <time>2020-10-05T09:57:41.459Z</time>
      </trkpt>
      <trkpt lat="50.266612" lon="5.448569">
        <ele>182.395690</ele>
        <time>2020-10-05T09:57:42.303Z</time>
      </trkpt>
      <trkpt lat="50.266733" lon="5.448315">
        <ele>181.567381</ele>
        <time>2020-10-05T09:57:44.351Z</time>
      </trkpt>
      <trkpt lat="50.267058" lon="5.447850">
        <ele>180.183169</ele>
        <time>2020-10-05T09:57:48.984Z</time>
      </trkpt>
      <trkpt lat="50.267239" lon="5.447596">
        <ele>179.752949</ele>
        <time>2020-10-05T09:57:51.715Z</time>
      </trkpt>
      <trkpt lat="50.267312" lon="5.447490">
        <ele>179.576722</ele>
        <time>2020-10-05T09:57:52.737Z</time>
      </trkpt>
      <trkpt lat="50.267538" lon="5.447200">
        <ele>179.059540</ele>
        <time>2020-10-05T09:57:56.005Z</time>
      </trkpt>
      <trkpt lat="50.267643" lon="5.447041">
        <ele>178.800980</ele>
        <time>2020-10-05T09:57:57.481Z</time>
      </trkpt>
      <trkpt lat="50.267743" lon="5.446861">
        <ele>178.531258</ele>
        <time>2020-10-05T09:57:59.300Z</time>
      </trkpt>
      <trkpt lat="50.267836" lon="5.446723">
        <ele>178.304461</ele>
        <time>2020-10-05T09:58:00.944Z</time>
      </trkpt>
      <trkpt lat="50.267888" lon="5.446783">
        <ele>178.190137</ele>
        <time>2020-10-05T09:58:01.706Z</time>
      </trkpt>
      <trkpt lat="50.267905" lon="5.446801">
        <ele>178.153816</ele>
        <time>2020-10-05T09:58:01.948Z</time>
      </trkpt>
      <trkpt lat="50.268291" lon="5.447191">
        <ele>177.340792</ele>
        <time>2020-10-05T09:58:07.648Z</time>
      </trkpt>
      <trkpt lat="50.268317" lon="5.447218">
        <ele>177.300813</ele>
        <time>2020-10-05T09:58:08.044Z</time>
      </trkpt>
      <trkpt lat="50.268402" lon="5.447295">
        <ele>177.206571</ele>
        <time>2020-10-05T09:58:09.343Z</time>
      </trkpt>
      <trkpt lat="50.268493" lon="5.447123">
        <ele>177.069636</ele>
        <time>2020-10-05T09:58:11.122Z</time>
      </trkpt>
      <trkpt lat="50.268580" lon="5.446878">
        <ele>176.897748</ele>
        <time>2020-10-05T09:58:13.579Z</time>
      </trkpt>
      <trkpt lat="50.268674" lon="5.446609">
        <ele>176.709727</ele>
        <time>2020-10-05T09:58:15.973Z</time>
      </trkpt>
      <trkpt lat="50.268828" lon="5.446099">
        <ele>176.363802</ele>
        <time>2020-10-05T09:58:20.422Z</time>
      </trkpt>
      <trkpt lat="50.268945" lon="5.445654">
        <ele>176.068700</ele>
        <time>2020-10-05T09:58:24.169Z</time>
      </trkpt>
      <trkpt lat="50.269011" lon="5.445431">
        <ele>175.917987</ele>
        <time>2020-10-05T09:58:26.121Z</time>
      </trkpt>
      <trkpt lat="50.269116" lon="5.445168">
        <ele>175.727814</ele>
        <time>2020-10-05T09:58:28.459Z</time>
      </trkpt>
      <trkpt lat="50.269276" lon="5.444879">
        <ele>175.519025</ele>
        <time>2020-10-05T09:58:31.448Z</time>
      </trkpt>
      <trkpt lat="50.269561" lon="5.444375">
        <ele>175.212627</ele>
        <time>2020-10-05T09:58:36.692Z</time>
      </trkpt>
      <trkpt lat="50.270165" lon="5.443348">
        <ele>174.577186</ele>
        <time>2020-10-05T09:58:48.205Z</time>
      </trkpt>
      <trkpt lat="50.270418" lon="5.442807">
        <ele>174.307152</ele>
        <time>2020-10-05T09:58:53.829Z</time>
      </trkpt>
      <trkpt lat="50.270541" lon="5.442501">
        <ele>174.287894</ele>
        <time>2020-10-05T09:58:57.109Z</time>
      </trkpt>
      <trkpt lat="50.270755" lon="5.441942">
        <ele>174.253179</ele>
        <time>2020-10-05T09:59:03.028Z</time>
      </trkpt>
      <trkpt lat="50.270810" lon="5.441658">
        <ele>174.237369</ele>
        <time>2020-10-05T09:59:05.854Z</time>
      </trkpt>
      <trkpt lat="50.270912" lon="5.441293">
        <ele>174.216146</ele>
        <time>2020-10-05T09:59:09.610Z</time>
      </trkpt>
      <trkpt lat="50.271028" lon="5.441008">
        <ele>174.198145</ele>
        <time>2020-10-05T09:59:13.011Z</time>
      </trkpt>
      <trkpt lat="50.271105" lon="5.440866">
        <ele>174.188224</ele>
        <time>2020-10-05T09:59:14.776Z</time>
      </trkpt>
      <trkpt lat="50.271281" lon="5.440705">
        <ele>174.171230</ele>
        <time>2020-10-05T09:59:18.012Z</time>
      </trkpt>
      <trkpt lat="50.271682" lon="5.440508">
        <ele>174.163561</ele>
        <time>2020-10-05T09:59:24.374Z</time>
      </trkpt>
      <trkpt lat="50.272520" lon="5.440102">
        <ele>174.168314</ele>
        <time>2020-10-05T09:59:37.478Z</time>
      </trkpt>
      <trkpt lat="50.273467" lon="5.439606">
        <ele>174.046088</ele>
        <time>2020-10-05T09:59:52.245Z</time>
      </trkpt>
      <trkpt lat="50.274446" lon="5.439080">
        <ele>173.709000</ele>
        <time>2020-10-05T10:00:06.224Z</time>
      </trkpt>
      <trkpt lat="50.274824" lon="5.439002">
        <ele>173.584630</ele>
        <time>2020-10-05T10:00:11.221Z</time>
      </trkpt>
      <trkpt lat="50.275332" lon="5.439092">
        <ele>173.385723</ele>
        <time>2020-10-05T10:00:17.997Z</time>
      </trkpt>
      <trkpt lat="50.275840" lon="5.439309">
        <ele>173.180847</ele>
        <time>2020-10-05T10:00:25.058Z</time>
      </trkpt>
      <trkpt lat="50.276475" lon="5.439578">
        <ele>172.924899</ele>
        <time>2020-10-05T10:00:34.035Z</time>
      </trkpt>
      <trkpt lat="50.277133" lon="5.439845">
        <ele>172.887080</ele>
        <time>2020-10-05T10:00:43.633Z</time>
      </trkpt>
      <trkpt lat="50.278237" lon="5.440316">
        <ele>172.888978</ele>
        <time>2020-10-05T10:01:01.412Z</time>
      </trkpt>
      <trkpt lat="50.278484" lon="5.440346">
        <ele>172.877637</ele>
        <time>2020-10-05T10:01:05.222Z</time>
      </trkpt>
      <trkpt lat="50.278568" lon="5.440306">
        <ele>172.871835</ele>
        <time>2020-10-05T10:01:06.574Z</time>
      </trkpt>
      <trkpt lat="50.278588" lon="5.440296">
        <ele>172.870447</ele>
        <time>2020-10-05T10:01:06.899Z</time>
      </trkpt>
      <trkpt lat="50.278671" lon="5.440239">
        <ele>172.864457</ele>
        <time>2020-10-05T10:01:08.217Z</time>
      </trkpt>
      <trkpt lat="50.278694" lon="5.440223">
        <ele>172.862794</ele>
        <time>2020-10-05T10:01:08.586Z</time>
      </trkpt>
      <trkpt lat="50.278787" lon="5.440161">
        <ele>172.856114</ele>
        <time>2020-10-05T10:01:10.004Z</time>
      </trkpt>
      <trkpt lat="50.278835" lon="5.440124">
        <ele>172.852578</ele>
        <time>2020-10-05T10:01:10.814Z</time>
      </trkpt>
      <trkpt lat="50.278893" lon="5.440067">
        <ele>172.848052</ele>
        <time>2020-10-05T10:01:11.809Z</time>
      </trkpt>
      <trkpt lat="50.279037" lon="5.439960">
        <ele>172.837518</ele>
        <time>2020-10-05T10:01:14.019Z</time>
      </trkpt>
      <trkpt lat="50.279138" lon="5.439880">
        <ele>172.830037</ele>
        <time>2020-10-05T10:01:15.637Z</time>
      </trkpt>
      <trkpt lat="50.279359" lon="5.439709">
        <ele>172.813745</ele>
        <time>2020-10-05T10:01:19.064Z</time>
      </trkpt>
      <trkpt lat="50.279838" lon="5.438993">
        <ele>172.770734</ele>
        <time>2020-10-05T10:01:28.745Z</time>
      </trkpt>
      <trkpt lat="50.279919" lon="5.438936">
        <ele>172.781370</ele>
        <time>2020-10-05T10:01:29.932Z</time>
      </trkpt>
      <trkpt lat="50.280059" lon="5.438888">
        <ele>172.798534</ele>
        <time>2020-10-05T10:01:32.181Z</time>
      </trkpt>
      <trkpt lat="50.280130" lon="5.438913">
        <ele>172.807250</ele>
        <time>2020-10-05T10:01:33.213Z</time>
      </trkpt>
      <trkpt lat="50.280230" lon="5.438972">
        <ele>172.820049</ele>
        <time>2020-10-05T10:01:34.666Z</time>
      </trkpt>
      <trkpt lat="50.280653" lon="5.439269">
        <ele>172.875573</ele>
        <time>2020-10-05T10:01:41.434Z</time>
      </trkpt>
      <trkpt lat="50.280699" lon="5.439300">
        <ele>172.881571</ele>
        <time>2020-10-05T10:01:42.357Z</time>
      </trkpt>
      <trkpt lat="50.282066" lon="5.440194">
        <ele>173.113495</ele>
        <time>2020-10-05T10:02:06.069Z</time>
      </trkpt>
      <trkpt lat="50.282150" lon="5.440188">
        <ele>173.131046</ele>
        <time>2020-10-05T10:02:07.639Z</time>
      </trkpt>
      <trkpt lat="50.282231" lon="5.440155">
        <ele>173.148516</ele>
        <time>2020-10-05T10:02:08.860Z</time>
      </trkpt>
      <trkpt lat="50.282278" lon="5.440142">
        <ele>173.158478</ele>
        <time>2020-10-05T10:02:09.537Z</time>
      </trkpt>
      <trkpt lat="50.282286" lon="5.440182">
        <ele>173.164068</ele>
        <time>2020-10-05T10:02:09.936Z</time>
      </trkpt>
      <trkpt lat="50.282325" lon="5.440239">
        <ele>173.175206</ele>
        <time>2020-10-05T10:02:10.781Z</time>
      </trkpt>
      <trkpt lat="50.282351" lon="5.440249">
        <ele>173.180794</ele>
        <time>2020-10-05T10:02:11.161Z</time>
      </trkpt>
      <trkpt lat="50.282375" lon="5.440247">
        <ele>173.185811</ele>
        <time>2020-10-05T10:02:11.511Z</time>
      </trkpt>
      <trkpt lat="50.282430" lon="5.440180">
        <ele>173.200358</ele>
        <time>2020-10-05T10:02:12.749Z</time>
      </trkpt>
      <trkpt lat="50.282438" lon="5.440145">
        <ele>173.205316</ele>
        <time>2020-10-05T10:02:13.177Z</time>
      </trkpt>
      <trkpt lat="50.282437" lon="5.440097">
        <ele>173.211721</ele>
        <time>2020-10-05T10:02:13.657Z</time>
      </trkpt>
      <trkpt lat="50.282405" lon="5.440020">
        <ele>173.223972</ele>
        <time>2020-10-05T10:02:14.474Z</time>
      </trkpt>
      <trkpt lat="50.282378" lon="5.440000">
        <ele>173.230207</ele>
        <time>2020-10-05T10:02:14.896Z</time>
      </trkpt>
      <trkpt lat="50.282383" lon="5.439889">
        <ele>173.245048</ele>
        <time>2020-10-05T10:02:15.992Z</time>
      </trkpt>
      <trkpt lat="50.282432" lon="5.439568">
        <ele>173.289065</ele>
        <time>2020-10-05T10:02:19.372Z</time>
      </trkpt>
      <trkpt lat="50.282441" lon="5.439544">
        <ele>173.292777</ele>
        <time>2020-10-05T10:02:19.671Z</time>
      </trkpt>
      <trkpt lat="50.282468" lon="5.439465">
        <ele>173.304726</ele>
        <time>2020-10-05T10:02:20.427Z</time>
      </trkpt>
      <trkpt lat="50.282620" lon="5.439142">
        <ele>173.358227</ele>
        <time>2020-10-05T10:02:24.512Z</time>
      </trkpt>
      <trkpt lat="50.282685" lon="5.439074">
        <ele>173.365259</ele>
        <time>2020-10-05T10:02:25.585Z</time>
      </trkpt>
      <trkpt lat="50.282760" lon="5.439041">
        <ele>173.370321</ele>
        <time>2020-10-05T10:02:26.712Z</time>
      </trkpt>
      <trkpt lat="50.282826" lon="5.439041">
        <ele>173.374609</ele>
        <time>2020-10-05T10:02:27.693Z</time>
      </trkpt>
      <trkpt lat="50.282847" lon="5.439043">
        <ele>173.375976</ele>
        <time>2020-10-05T10:02:27.993Z</time>
      </trkpt>
      <trkpt lat="50.282926" lon="5.439049">
        <ele>173.381115</ele>
        <time>2020-10-05T10:02:29.347Z</time>
      </trkpt>
      <trkpt lat="50.283033" lon="5.439071">
        <ele>173.388127</ele>
        <time>2020-10-05T10:02:30.937Z</time>
      </trkpt>
      <trkpt lat="50.283173" lon="5.439124">
        <ele>173.397485</ele>
        <time>2020-10-05T10:02:33.015Z</time>
      </trkpt>
      <trkpt lat="50.283323" lon="5.439200">
        <ele>173.407729</ele>
        <time>2020-10-05T10:02:35.345Z</time>
      </trkpt>
      <trkpt lat="50.284146" lon="5.439900">
        <ele>173.468588</ele>
        <time>2020-10-05T10:02:49.305Z</time>
      </trkpt>
      <trkpt lat="50.284810" lon="5.440520">
        <ele>173.629738</ele>
        <time>2020-10-05T10:03:01.374Z</time>
      </trkpt>
      <trkpt lat="50.285901" lon="5.441405">
        <ele>173.947445</ele>
        <time>2020-10-05T10:03:20.859Z</time>
      </trkpt>
      <trkpt lat="50.285996" lon="5.441482">
        <ele>174.011511</ele>
        <time>2020-10-05T10:03:22.495Z</time>
      </trkpt>
      <trkpt lat="50.286267" lon="5.441608">
        <ele>174.180803</ele>
        <time>2020-10-05T10:03:27.105Z</time>
      </trkpt>
      <trkpt lat="50.288959" lon="5.442310">
        <ele>176.080258</ele>
        <time>2020-10-05T10:04:15.745Z</time>
      </trkpt>
      <trkpt lat="50.289341" lon="5.442306">
        <ele>176.382429</ele>
        <time>2020-10-05T10:04:22.754Z</time>
      </trkpt>
      <trkpt lat="50.289457" lon="5.442292">
        <ele>176.430592</ele>
        <time>2020-10-05T10:04:25.401Z</time>
      </trkpt>
      <trkpt lat="50.289650" lon="5.442268">
        <ele>176.477022</ele>
        <time>2020-10-05T10:04:28.455Z</time>
      </trkpt>
      <trkpt lat="50.289870" lon="5.442222">
        <ele>176.530249</ele>
        <time>2020-10-05T10:04:32.683Z</time>
      </trkpt>
      <trkpt lat="50.290235" lon="5.442144">
        <ele>176.618593</ele>
        <time>2020-10-05T10:04:38.993Z</time>
      </trkpt>
      <trkpt lat="50.293482" lon="5.441502">
        <ele>176.179516</ele>
        <time>2020-10-05T10:05:24.401Z</time>
      </trkpt>
      <trkpt lat="50.294341" lon="5.441273">
        <ele>175.910835</ele>
        <time>2020-10-05T10:05:36.487Z</time>
      </trkpt>
      <trkpt lat="50.295098" lon="5.440938">
        <ele>175.622923</ele>
        <time>2020-10-05T10:05:47.196Z</time>
      </trkpt>
      <trkpt lat="50.295800" lon="5.440305">
        <ele>175.280917</ele>
        <time>2020-10-05T10:05:58.130Z</time>
      </trkpt>
      <trkpt lat="50.295948" lon="5.440127">
        <ele>175.202126</ele>
        <time>2020-10-05T10:06:00.555Z</time>
      </trkpt>
      <trkpt lat="50.296182" lon="5.439845">
        <ele>175.077458</ele>
        <time>2020-10-05T10:06:04.505Z</time>
      </trkpt>
      <trkpt lat="50.296819" lon="5.439063">
        <ele>174.691690</ele>
        <time>2020-10-05T10:06:15.292Z</time>
      </trkpt>
      <trkpt lat="50.298080" lon="5.437516">
        <ele>174.206697</ele>
        <time>2020-10-05T10:06:36.482Z</time>
      </trkpt>
      <trkpt lat="50.298564" lon="5.436923">
        <ele>174.264008</ele>
        <time>2020-10-05T10:06:45.131Z</time>
      </trkpt>
      <trkpt lat="50.299355" lon="5.435950">
        <ele>174.999144</ele>
        <time>2020-10-05T10:07:03.018Z</time>
      </trkpt>
      <trkpt lat="50.299674" lon="5.435558">
        <ele>175.832789</ele>
        <time>2020-10-05T10:07:11.671Z</time>
      </trkpt>
      <trkpt lat="50.301590" lon="5.433186">
        <ele>181.244377</ele>
        <time>2020-10-05T10:08:14.614Z</time>
      </trkpt>
      <trkpt lat="50.301781" lon="5.432949">
        <ele>181.814480</ele>
        <time>2020-10-05T10:08:20.208Z</time>
      </trkpt>
      <trkpt lat="50.303178" lon="5.431222">
        <ele>183.622563</ele>
        <time>2020-10-05T10:08:52.572Z</time>
      </trkpt>
      <trkpt lat="50.304144" lon="5.430046">
        <ele>184.948324</ele>
        <time>2020-10-05T10:09:12.474Z</time>
      </trkpt>
      <trkpt lat="50.304345" lon="5.429800">
        <ele>185.235281</ele>
        <time>2020-10-05T10:09:17.534Z</time>
      </trkpt>
      <trkpt lat="50.304453" lon="5.429652">
        <ele>185.396715</ele>
        <time>2020-10-05T10:09:20.792Z</time>
      </trkpt>
      <trkpt lat="50.304808" lon="5.429287">
        <ele>185.985372</ele>
        <time>2020-10-05T10:09:31.014Z</time>
      </trkpt>
      <trkpt lat="50.304908" lon="5.429213">
        <ele>186.349487</ele>
        <time>2020-10-05T10:09:33.776Z</time>
      </trkpt>
      <trkpt lat="50.305133" lon="5.429109">
        <ele>187.121784</ele>
        <time>2020-10-05T10:09:39.801Z</time>
      </trkpt>
      <trkpt lat="50.305407" lon="5.429007">
        <ele>188.048929</ele>
        <time>2020-10-05T10:09:47.268Z</time>
      </trkpt>
      <trkpt lat="50.305607" lon="5.428945">
        <ele>188.720104</ele>
        <time>2020-10-05T10:09:52.994Z</time>
      </trkpt>
      <trkpt lat="50.305914" lon="5.428851">
        <ele>189.749883</ele>
        <time>2020-10-05T10:10:02.000Z</time>
      </trkpt>
      <trkpt lat="50.306970" lon="5.428424">
        <ele>193.616692</ele>
        <time>2020-10-05T10:10:36.045Z</time>
      </trkpt>
      <trkpt lat="50.308967" lon="5.427690">
        <ele>200.831402</ele>
        <time>2020-10-05T10:11:37.369Z</time>
      </trkpt>
      <trkpt lat="50.313735" lon="5.425942">
        <ele>213.516013</ele>
        <time>2020-10-05T10:13:42.425Z</time>
      </trkpt>
      <trkpt lat="50.314521" lon="5.425670">
        <ele>213.221250</ele>
        <time>2020-10-05T10:13:53.844Z</time>
      </trkpt>
      <trkpt lat="50.315398" lon="5.425345">
        <ele>212.517797</ele>
        <time>2020-10-05T10:14:03.986Z</time>
      </trkpt>
      <trkpt lat="50.316207" lon="5.425052">
        <ele>210.117553</ele>
        <time>2020-10-05T10:14:12.573Z</time>
      </trkpt>
      <trkpt lat="50.323504" lon="5.422480">
        <ele>185.754196</ele>
        <time>2020-10-05T10:15:27.820Z</time>
      </trkpt>
      <trkpt lat="50.324514" lon="5.422120">
        <ele>183.335902</ele>
        <time>2020-10-05T10:15:38.779Z</time>
      </trkpt>
      <trkpt lat="50.324572" lon="5.422099">
        <ele>183.244105</ele>
        <time>2020-10-05T10:15:39.423Z</time>
      </trkpt>
      <trkpt lat="50.324687" lon="5.422024">
        <ele>183.052011</ele>
        <time>2020-10-05T10:15:40.806Z</time>
      </trkpt>
      <trkpt lat="50.324893" lon="5.421744">
        <ele>182.631420</ele>
        <time>2020-10-05T10:15:43.930Z</time>
      </trkpt>
      <trkpt lat="50.324968" lon="5.421615">
        <ele>182.459651</ele>
        <time>2020-10-05T10:15:45.229Z</time>
      </trkpt>
      <trkpt lat="50.325664" lon="5.420397">
        <ele>181.461400</ele>
        <time>2020-10-05T10:15:58.274Z</time>
      </trkpt>
      <trkpt lat="50.326974" lon="5.417654">
        <ele>182.992666</ele>
        <time>2020-10-05T10:16:37.459Z</time>
      </trkpt>
      <trkpt lat="50.327590" lon="5.416598">
        <ele>184.199688</ele>
        <time>2020-10-05T10:16:57.317Z</time>
      </trkpt>
      <trkpt lat="50.328120" lon="5.415805">
        <ele>184.961286</ele>
        <time>2020-10-05T10:17:12.735Z</time>
      </trkpt>
      <trkpt lat="50.328193" lon="5.415677">
        <ele>185.064797</ele>
        <time>2020-10-05T10:17:15.235Z</time>
      </trkpt>
      <trkpt lat="50.328205" lon="5.415608">
        <ele>185.107926</ele>
        <time>2020-10-05T10:17:16.213Z</time>
      </trkpt>
      <trkpt lat="50.328569" lon="5.414422">
        <ele>185.901535</ele>
        <time>2020-10-05T10:17:31.491Z</time>
      </trkpt>
      <trkpt lat="50.329378" lon="5.411926">
        <ele>185.713411</ele>
        <time>2020-10-05T10:17:56.819Z</time>
      </trkpt>
      <trkpt lat="50.329408" lon="5.411833">
        <ele>185.694838</ele>
        <time>2020-10-05T10:17:57.670Z</time>
      </trkpt>
      <trkpt lat="50.329445" lon="5.411615">
        <ele>185.654632</ele>
        <time>2020-10-05T10:17:59.471Z</time>
      </trkpt>
      <trkpt lat="50.329463" lon="5.411404">
        <ele>185.487258</ele>
        <time>2020-10-05T10:18:01.162Z</time>
      </trkpt>
      <trkpt lat="50.329498" lon="5.411225">
        <ele>185.262476</ele>
        <time>2020-10-05T10:18:02.655Z</time>
      </trkpt>
      <trkpt lat="50.329501" lon="5.411002">
        <ele>184.994660</ele>
        <time>2020-10-05T10:18:04.395Z</time>
      </trkpt>
      <trkpt lat="50.329471" lon="5.410178">
        <ele>184.003672</ele>
        <time>2020-10-05T10:18:10.771Z</time>
      </trkpt>
      <trkpt lat="50.329313" lon="5.409394">
        <ele>183.016523</ele>
        <time>2020-10-05T10:18:16.663Z</time>
      </trkpt>
      <trkpt lat="50.329833" lon="5.408138">
        <ele>179.045818</ele>
        <time>2020-10-05T10:18:26.162Z</time>
      </trkpt>
      <trkpt lat="50.329969" lon="5.407997">
        <ele>178.096315</ele>
        <time>2020-10-05T10:18:27.776Z</time>
      </trkpt>
      <trkpt lat="50.330219" lon="5.407808">
        <ele>176.480175</ele>
        <time>2020-10-05T10:18:30.281Z</time>
      </trkpt>
      <trkpt lat="50.330433" lon="5.407688">
        <ele>175.156844</ele>
        <time>2020-10-05T10:18:32.363Z</time>
      </trkpt>
      <trkpt lat="50.330687" lon="5.407481">
        <ele>173.489903</ele>
        <time>2020-10-05T10:18:34.968Z</time>
      </trkpt>
      <trkpt lat="50.331409" lon="5.407254">
        <ele>168.270753</ele>
        <time>2020-10-05T10:18:41.400Z</time>
      </trkpt>
      <trkpt lat="50.331472" lon="5.407154">
        <ele>167.560137</ele>
        <time>2020-10-05T10:18:42.166Z</time>
      </trkpt>
      <trkpt lat="50.331474" lon="5.407151">
        <ele>167.538197</ele>
        <time>2020-10-05T10:18:42.193Z</time>
      </trkpt>
      <trkpt lat="50.331501" lon="5.407009">
        <ele>166.788811</ele>
        <time>2020-10-05T10:18:43.017Z</time>
      </trkpt>
      <trkpt lat="50.331289" lon="5.406412">
        <ele>163.333553</ele>
        <time>2020-10-05T10:18:46.878Z</time>
      </trkpt>
      <trkpt lat="50.331333" lon="5.406018">
        <ele>161.310523</ele>
        <time>2020-10-05T10:18:49.134Z</time>
      </trkpt>
      <trkpt lat="50.331364" lon="5.405742">
        <ele>159.893132</ele>
        <time>2020-10-05T10:18:51.453Z</time>
      </trkpt>
      <trkpt lat="50.331371" lon="5.405349">
        <ele>157.904653</ele>
        <time>2020-10-05T10:18:54.611Z</time>
      </trkpt>
      <trkpt lat="50.330890" lon="5.404212">
        <ele>154.459790</ele>
        <time>2020-10-05T10:19:06.172Z</time>
      </trkpt>
      <trkpt lat="50.330677" lon="5.403741">
        <ele>153.085144</ele>
        <time>2020-10-05T10:19:11.512Z</time>
      </trkpt>
      <trkpt lat="50.330522" lon="5.403367">
        <ele>152.023205</ele>
        <time>2020-10-05T10:19:16.267Z</time>
      </trkpt>
      <trkpt lat="50.330471" lon="5.402979">
        <ele>151.079785</ele>
        <time>2020-10-05T10:19:20.622Z</time>
      </trkpt>
      <trkpt lat="50.330436" lon="5.402753">
        <ele>150.919934</ele>
        <time>2020-10-05T10:19:23.450Z</time>
      </trkpt>
      <trkpt lat="50.330399" lon="5.402487">
        <ele>151.131059</ele>
        <time>2020-10-05T10:19:26.869Z</time>
      </trkpt>
      <trkpt lat="50.330336" lon="5.402115">
        <ele>151.429528</ele>
        <time>2020-10-05T10:19:30.748Z</time>
      </trkpt>
      <trkpt lat="50.330257" lon="5.401860">
        <ele>151.649342</ele>
        <time>2020-10-05T10:19:33.736Z</time>
      </trkpt>
      <trkpt lat="50.330121" lon="5.401464">
        <ele>151.998067</ele>
        <time>2020-10-05T10:19:39.187Z</time>
      </trkpt>
      <trkpt lat="50.329999" lon="5.401111">
        <ele>152.309369</ele>
        <time>2020-10-05T10:19:44.599Z</time>
      </trkpt>
      <trkpt lat="50.329915" lon="5.400885">
        <ele>152.512180</ele>
        <time>2020-10-05T10:19:48.662Z</time>
      </trkpt>
      <trkpt lat="50.329763" lon="5.400347">
        <ele>152.968444</ele>
        <time>2020-10-05T10:19:58.631Z</time>
      </trkpt>
      <trkpt lat="50.329415" lon="5.398901">
        <ele>156.852981</ele>
        <time>2020-10-05T10:20:25.699Z</time>
      </trkpt>
      <trkpt lat="50.329384" lon="5.398718">
        <ele>157.340211</ele>
        <time>2020-10-05T10:20:29.736Z</time>
      </trkpt>
      <trkpt lat="50.329353" lon="5.398626">
        <ele>157.607920</ele>
        <time>2020-10-05T10:20:31.544Z</time>
      </trkpt>
      <trkpt lat="50.329418" lon="5.398514">
        <ele>157.997444</ele>
        <time>2020-10-05T10:20:34.314Z</time>
      </trkpt>
      <trkpt lat="50.329896" lon="5.397670">
        <ele>161.370327</ele>
        <time>2020-10-05T10:21:00.471Z</time>
      </trkpt>
      <trkpt lat="50.329999" lon="5.397357">
        <ele>162.939005</ele>
        <time>2020-10-05T10:21:09.997Z</time>
      </trkpt>
      <trkpt lat="50.329924" lon="5.396460">
        <ele>166.968998</ele>
        <time>2020-10-05T10:21:34.395Z</time>
      </trkpt>
      <trkpt lat="50.329845" lon="5.396047">
        <ele>168.889610</ele>
        <time>2020-10-05T10:21:46.485Z</time>
      </trkpt>
      <trkpt lat="50.329759" lon="5.395621">
        <ele>170.879950</ele>
        <time>2020-10-05T10:21:59.491Z</time>
      </trkpt>
      <trkpt lat="50.329728" lon="5.395394">
        <ele>171.914051</ele>
        <time>2020-10-05T10:22:05.749Z</time>
      </trkpt>
      <trkpt lat="50.329834" lon="5.392765">
        <ele>185.692588</ele>
        <time>2020-10-05T10:23:28.289Z</time>
      </trkpt>
      <trkpt lat="50.329915" lon="5.392155">
        <ele>188.829382</ele>
        <time>2020-10-05T10:23:46.700Z</time>
      </trkpt>
      <trkpt lat="50.329978" lon="5.391958">
        <ele>189.846259</ele>
        <time>2020-10-05T10:23:53.200Z</time>
      </trkpt>
      <trkpt lat="50.330149" lon="5.391692">
        <ele>191.588483</ele>
        <time>2020-10-05T10:24:04.278Z</time>
      </trkpt>
      <trkpt lat="50.330491" lon="5.391299">
        <ele>194.654886</ele>
        <time>2020-10-05T10:24:23.800Z</time>
      </trkpt>
      <trkpt lat="50.331591" lon="5.389741">
        <ele>203.145546</ele>
        <time>2020-10-05T10:25:24.391Z</time>
      </trkpt>
      <trkpt lat="50.331641" lon="5.389664">
        <ele>203.408995</ele>
        <time>2020-10-05T10:25:28.092Z</time>
      </trkpt>
      <trkpt lat="50.332163" lon="5.390790">
        <ele>206.746810</ele>
        <time>2020-10-05T10:25:50.102Z</time>
      </trkpt>
      <trkpt lat="50.332752" lon="5.391991">
        <ele>207.227175</ele>
        <time>2020-10-05T10:26:04.880Z</time>
      </trkpt>
      <trkpt lat="50.333496" lon="5.393056">
        <ele>206.882456</ele>
        <time>2020-10-05T10:26:17.132Z</time>
      </trkpt>
      <trkpt lat="50.333979" lon="5.393628">
        <ele>206.402773</ele>
        <time>2020-10-05T10:26:24.887Z</time>
      </trkpt>
      <trkpt lat="50.335226" lon="5.395143">
        <ele>204.724507</ele>
        <time>2020-10-05T10:26:44.904Z</time>
      </trkpt>
      <trkpt lat="50.335457" lon="5.395396">
        <ele>204.184725</ele>
        <time>2020-10-05T10:26:48.238Z</time>
      </trkpt>
      <trkpt lat="50.335495" lon="5.395434">
        <ele>204.098388</ele>
        <time>2020-10-05T10:26:48.796Z</time>
      </trkpt>
      <trkpt lat="50.335573" lon="5.395446">
        <ele>203.948289</ele>
        <time>2020-10-05T10:26:49.597Z</time>
      </trkpt>
      <trkpt lat="50.336503" lon="5.394801">
        <ele>202.000496</ele>
        <time>2020-10-05T10:27:00.640Z</time>
      </trkpt>
      <trkpt lat="50.338203" lon="5.394974">
        <ele>195.359376</ele>
        <time>2020-10-05T10:27:17.394Z</time>
      </trkpt>
      <trkpt lat="50.339120" lon="5.394909">
        <ele>190.421823</ele>
        <time>2020-10-05T10:27:25.942Z</time>
      </trkpt>
      <trkpt lat="50.339638" lon="5.395073">
        <ele>187.475545</ele>
        <time>2020-10-05T10:27:30.798Z</time>
      </trkpt>
      <trkpt lat="50.340024" lon="5.395639">
        <ele>184.691650</ele>
        <time>2020-10-05T10:27:35.642Z</time>
      </trkpt>
      <trkpt lat="50.340221" lon="5.396072">
        <ele>183.615063</ele>
        <time>2020-10-05T10:27:38.759Z</time>
      </trkpt>
      <trkpt lat="50.340479" lon="5.396395">
        <ele>182.567466</ele>
        <time>2020-10-05T10:27:41.874Z</time>
      </trkpt>
      <trkpt lat="50.340632" lon="5.396417">
        <ele>182.080079</ele>
        <time>2020-10-05T10:27:43.350Z</time>
      </trkpt>
      <trkpt lat="50.340908" lon="5.396295">
        <ele>181.170379</ele>
        <time>2020-10-05T10:27:46.404Z</time>
      </trkpt>
      <trkpt lat="50.341243" lon="5.396023">
        <ele>179.973487</ele>
        <time>2020-10-05T10:27:50.724Z</time>
      </trkpt>
      <trkpt lat="50.341348" lon="5.395931">
        <ele>179.591866</ele>
        <time>2020-10-05T10:27:51.893Z</time>
      </trkpt>
      <trkpt lat="50.341535" lon="5.395819">
        <ele>179.479236</ele>
        <time>2020-10-05T10:27:56.896Z</time>
      </trkpt>
      <trkpt lat="50.341798" lon="5.395725">
        <ele>180.448060</ele>
        <time>2020-10-05T10:28:01.650Z</time>
      </trkpt>
      <trkpt lat="50.342376" lon="5.395813">
        <ele>182.533719</ele>
        <time>2020-10-05T10:28:16.763Z</time>
      </trkpt>
      <trkpt lat="50.343544" lon="5.396307">
        <ele>187.322545</ele>
        <time>2020-10-05T10:29:03.295Z</time>
      </trkpt>
      <trkpt lat="50.344359" lon="5.396930">
        <ele>191.767014</ele>
        <time>2020-10-05T10:29:35.957Z</time>
      </trkpt>
      <trkpt lat="50.344670" lon="5.397054">
        <ele>193.339867</ele>
        <time>2020-10-05T10:29:46.079Z</time>
      </trkpt>
      <trkpt lat="50.344798" lon="5.397136">
        <ele>194.017628</ele>
        <time>2020-10-05T10:29:50.737Z</time>
      </trkpt>
      <trkpt lat="50.344907" lon="5.397278">
        <ele>194.575295</ele>
        <time>2020-10-05T10:29:54.406Z</time>
      </trkpt>
      <trkpt lat="50.344986" lon="5.397436">
        <ele>194.837155</ele>
        <time>2020-10-05T10:29:58.135Z</time>
      </trkpt>
      <trkpt lat="50.345112" lon="5.397755">
        <ele>195.326587</ele>
        <time>2020-10-05T10:30:04.412Z</time>
      </trkpt>
      <trkpt lat="50.345218" lon="5.398025">
        <ele>195.740147</ele>
        <time>2020-10-05T10:30:10.067Z</time>
      </trkpt>
      <trkpt lat="50.345391" lon="5.398324">
        <ele>196.266679</ele>
        <time>2020-10-05T10:30:15.950Z</time>
      </trkpt>
      <trkpt lat="50.346371" lon="5.399507">
        <ele>198.111391</ele>
        <time>2020-10-05T10:30:40.071Z</time>
      </trkpt>
      <trkpt lat="50.346525" lon="5.399754">
        <ele>198.081336</ele>
        <time>2020-10-05T10:30:43.417Z</time>
      </trkpt>
      <trkpt lat="50.346705" lon="5.400313">
        <ele>198.026841</ele>
        <time>2020-10-05T10:30:49.049Z</time>
      </trkpt>
      <trkpt lat="50.347010" lon="5.401610">
        <ele>197.911089</ele>
        <time>2020-10-05T10:31:00.223Z</time>
      </trkpt>
      <trkpt lat="50.347351" lon="5.403257">
        <ele>198.054060</ele>
        <time>2020-10-05T10:31:14.164Z</time>
      </trkpt>
      <trkpt lat="50.347425" lon="5.403640">
        <ele>198.087102</ele>
        <time>2020-10-05T10:31:18.184Z</time>
      </trkpt>
      <trkpt lat="50.347549" lon="5.404113">
        <ele>198.129324</ele>
        <time>2020-10-05T10:31:24.263Z</time>
      </trkpt>
      <trkpt lat="50.347602" lon="5.404231">
        <ele>198.141239</ele>
        <time>2020-10-05T10:31:26.639Z</time>
      </trkpt>
      <trkpt lat="50.347775" lon="5.404619">
        <ele>199.697082</ele>
        <time>2020-10-05T10:31:34.543Z</time>
      </trkpt>
      <trkpt lat="50.347997" lon="5.404977">
        <ele>201.353020</ele>
        <time>2020-10-05T10:31:44.001Z</time>
      </trkpt>
      <trkpt lat="50.348062" lon="5.405067">
        <ele>201.803914</ele>
        <time>2020-10-05T10:31:47.036Z</time>
      </trkpt>
      <trkpt lat="50.348648" lon="5.404838">
        <ele>204.943460</ele>
        <time>2020-10-05T10:32:09.089Z</time>
      </trkpt>
      <trkpt lat="50.348939" lon="5.404737">
        <ele>206.492850</ele>
        <time>2020-10-05T10:32:21.880Z</time>
      </trkpt>
      <trkpt lat="50.349707" lon="5.404365">
        <ele>213.945980</ele>
        <time>2020-10-05T10:33:02.111Z</time>
      </trkpt>
      <trkpt lat="50.350581" lon="5.403564">
        <ele>224.628936</ele>
        <time>2020-10-05T10:34:04.515Z</time>
      </trkpt>
      <trkpt lat="50.350911" lon="5.403262">
        <ele>229.245750</ele>
        <time>2020-10-05T10:34:28.226Z</time>
      </trkpt>
      <trkpt lat="50.351099" lon="5.403086">
        <ele>232.172874</ele>
        <time>2020-10-05T10:34:41.508Z</time>
      </trkpt>
      <trkpt lat="50.351540" lon="5.402666">
        <ele>239.070614</ele>
        <time>2020-10-05T10:35:17.546Z</time>
      </trkpt>
      <trkpt lat="50.351997" lon="5.402097">
        <ele>246.872208</ele>
        <time>2020-10-05T10:36:01.985Z</time>
      </trkpt>
      <trkpt lat="50.352325" lon="5.401289">
        <ele>254.255649</ele>
        <time>2020-10-05T10:36:42.646Z</time>
      </trkpt>
      <trkpt lat="50.352392" lon="5.401180">
        <ele>255.322938</ele>
        <time>2020-10-05T10:36:50.051Z</time>
      </trkpt>
      <trkpt lat="50.352435" lon="5.401115">
        <ele>255.983195</ele>
        <time>2020-10-05T10:36:53.141Z</time>
      </trkpt>
      <trkpt lat="50.352475" lon="5.401060">
        <ele>256.571287</ele>
        <time>2020-10-05T10:36:55.957Z</time>
      </trkpt>
      <trkpt lat="50.352549" lon="5.400985">
        <ele>257.545230</ele>
        <time>2020-10-05T10:37:02.198Z</time>
      </trkpt>
      <trkpt lat="50.352770" lon="5.400882">
        <ele>260.093386</ele>
        <time>2020-10-05T10:37:14.970Z</time>
      </trkpt>
      <trkpt lat="50.353925" lon="5.400691">
        <ele>271.754211</ele>
        <time>2020-10-05T10:38:20.030Z</time>
      </trkpt>
      <trkpt lat="50.354831" lon="5.400858">
        <ele>277.171805</ele>
        <time>2020-10-05T10:38:55.607Z</time>
      </trkpt>
      <trkpt lat="50.354896" lon="5.400856">
        <ele>277.557898</ele>
        <time>2020-10-05T10:38:58.351Z</time>
      </trkpt>
      <trkpt lat="50.354936" lon="5.400889">
        <ele>277.826348</ele>
        <time>2020-10-05T10:38:59.453Z</time>
      </trkpt>
      <trkpt lat="50.354977" lon="5.400902">
        <ele>278.074769</ele>
        <time>2020-10-05T10:39:00.537Z</time>
      </trkpt>
      <trkpt lat="50.355075" lon="5.400907">
        <ele>278.657075</ele>
        <time>2020-10-05T10:39:03.304Z</time>
      </trkpt>
      <trkpt lat="50.355174" lon="5.400780">
        <ele>279.416836</ele>
        <time>2020-10-05T10:39:08.181Z</time>
      </trkpt>
      <trkpt lat="50.355349" lon="5.400588">
        <ele>280.685444</ele>
        <time>2020-10-05T10:39:13.295Z</time>
      </trkpt>
      <trkpt lat="50.355355" lon="5.400532">
        <ele>280.900603</ele>
        <time>2020-10-05T10:39:14.875Z</time>
      </trkpt>
      <trkpt lat="50.355452" lon="5.400437">
        <ele>281.223528</ele>
        <time>2020-10-05T10:39:18.585Z</time>
      </trkpt>
      <trkpt lat="50.355977" lon="5.399809">
        <ele>282.397396</ele>
        <time>2020-10-05T10:39:34.045Z</time>
      </trkpt>
      <trkpt lat="50.356238" lon="5.399248">
        <ele>283.184764</ele>
        <time>2020-10-05T10:39:43.989Z</time>
      </trkpt>
      <trkpt lat="50.356291" lon="5.399085">
        <ele>283.392230</ele>
        <time>2020-10-05T10:39:45.596Z</time>
      </trkpt>
      <trkpt lat="50.356462" lon="5.398420">
        <ele>284.205300</ele>
        <time>2020-10-05T10:39:53.532Z</time>
      </trkpt>
      <trkpt lat="50.356653" lon="5.397900">
        <ele>284.820946</ele>
        <time>2020-10-05T10:39:59.830Z</time>
      </trkpt>
      <trkpt lat="50.356692" lon="5.397835">
        <ele>284.911515</ele>
        <time>2020-10-05T10:40:00.523Z</time>
      </trkpt>
      <trkpt lat="50.356738" lon="5.397776">
        <ele>285.006078</ele>
        <time>2020-10-05T10:40:01.987Z</time>
      </trkpt>
      <trkpt lat="50.356939" lon="5.397577">
        <ele>285.384309</ele>
        <time>2020-10-05T10:40:06.131Z</time>
      </trkpt>
      <trkpt lat="50.357653" lon="5.397087">
        <ele>286.624351</ele>
        <time>2020-10-05T10:40:21.818Z</time>
      </trkpt>
      <trkpt lat="50.357902" lon="5.396859">
        <ele>287.083138</ele>
        <time>2020-10-05T10:40:29.603Z</time>
      </trkpt>
      <trkpt lat="50.357974" lon="5.396770">
        <ele>287.467643</ele>
        <time>2020-10-05T10:40:32.277Z</time>
      </trkpt>
      <trkpt lat="50.358666" lon="5.395639">
        <ele>292.884115</ele>
        <time>2020-10-05T10:41:11.376Z</time>
      </trkpt>
      <trkpt lat="50.359060" lon="5.395323">
        <ele>295.281932</ele>
        <time>2020-10-05T10:41:31.915Z</time>
      </trkpt>
      <trkpt lat="50.359668" lon="5.394579">
        <ele>300.588219</ele>
        <time>2020-10-05T10:42:11.553Z</time>
      </trkpt>
      <trkpt lat="50.360484" lon="5.394027">
        <ele>307.502059</ele>
        <time>2020-10-05T10:43:01.169Z</time>
      </trkpt>
      <trkpt lat="50.361124" lon="5.393434">
        <ele>311.888710</ele>
        <time>2020-10-05T10:43:36.181Z</time>
      </trkpt>
      <trkpt lat="50.361152" lon="5.393405">
        <ele>311.999016</ele>
        <time>2020-10-05T10:43:39.379Z</time>
      </trkpt>
      <trkpt lat="50.361249" lon="5.393319">
        <ele>312.365304</ele>
        <time>2020-10-05T10:43:43.282Z</time>
      </trkpt>
      <trkpt lat="50.361871" lon="5.392931">
        <ele>314.565648</ele>
        <time>2020-10-05T10:44:06.395Z</time>
      </trkpt>
      <trkpt lat="50.362158" lon="5.392826">
        <ele>315.534322</ele>
        <time>2020-10-05T10:44:14.490Z</time>
      </trkpt>
      <trkpt lat="50.362764" lon="5.393064">
        <ele>316.541767</ele>
        <time>2020-10-05T10:44:26.672Z</time>
      </trkpt>
      <trkpt lat="50.363078" lon="5.393026">
        <ele>316.238823</ele>
        <time>2020-10-05T10:44:31.716Z</time>
      </trkpt>
      <trkpt lat="50.363190" lon="5.392768">
        <ele>316.047325</ele>
        <time>2020-10-05T10:44:34.919Z</time>
      </trkpt>
      <trkpt lat="50.363326" lon="5.391825">
        <ele>315.454067</ele>
        <time>2020-10-05T10:44:45.216Z</time>
      </trkpt>
      <trkpt lat="50.363533" lon="5.391505">
        <ele>315.174413</ele>
        <time>2020-10-05T10:44:50.294Z</time>
      </trkpt>
      <trkpt lat="50.364178" lon="5.390954">
        <ele>314.638575</ele>
        <time>2020-10-05T10:45:03.803Z</time>
      </trkpt>
      <trkpt lat="50.364391" lon="5.390815">
        <ele>314.481912</ele>
        <time>2020-10-05T10:45:08.317Z</time>
      </trkpt>
      <trkpt lat="50.364382" lon="5.390495">
        <ele>314.343169</ele>
        <time>2020-10-05T10:45:12.125Z</time>
      </trkpt>
      <trkpt lat="50.364441" lon="5.390214">
        <ele>314.215030</ele>
        <time>2020-10-05T10:45:15.861Z</time>
      </trkpt>
      <trkpt lat="50.364543" lon="5.390058">
        <ele>314.118268</ele>
        <time>2020-10-05T10:45:18.531Z</time>
      </trkpt>
      <trkpt lat="50.364761" lon="5.389831">
        <ele>313.940562</ele>
        <time>2020-10-05T10:45:23.450Z</time>
      </trkpt>
      <trkpt lat="50.365308" lon="5.389310">
        <ele>312.321714</ele>
        <time>2020-10-05T10:45:34.068Z</time>
      </trkpt>
      <trkpt lat="50.365777" lon="5.388876">
        <ele>310.588172</ele>
        <time>2020-10-05T10:45:42.137Z</time>
      </trkpt>
      <trkpt lat="50.366092" lon="5.388542">
        <ele>309.377698</ele>
        <time>2020-10-05T10:45:47.559Z</time>
      </trkpt>
      <trkpt lat="50.366292" lon="5.388978">
        <ele>308.287301</ele>
        <time>2020-10-05T10:45:52.260Z</time>
      </trkpt>
      <trkpt lat="50.366346" lon="5.389058">
        <ele>308.005763</ele>
        <time>2020-10-05T10:45:53.320Z</time>
      </trkpt>
      <trkpt lat="50.366406" lon="5.389088">
        <ele>307.628468</ele>
        <time>2020-10-05T10:45:54.138Z</time>
      </trkpt>
      <trkpt lat="50.366456" lon="5.389083">
        <ele>307.328313</ele>
        <time>2020-10-05T10:45:54.748Z</time>
      </trkpt>
      <trkpt lat="50.367309" lon="5.388400">
        <ele>301.590108</ele>
        <time>2020-10-05T10:46:07.355Z</time>
      </trkpt>
      <trkpt lat="50.368083" lon="5.387767">
        <ele>296.569921</ele>
        <time>2020-10-05T10:46:18.638Z</time>
      </trkpt>
      <trkpt lat="50.368583" lon="5.387349">
        <ele>293.912292</ele>
        <time>2020-10-05T10:46:26.146Z</time>
      </trkpt>
      <trkpt lat="50.373307" lon="5.383817">
        <ele>270.499530</ele>
        <time>2020-10-05T10:47:38.671Z</time>
      </trkpt>
      <trkpt lat="50.373664" lon="5.383365">
        <ele>268.736416</ele>
        <time>2020-10-05T10:47:45.254Z</time>
      </trkpt>
      <trkpt lat="50.373997" lon="5.382743">
        <ele>266.746312</ele>
        <time>2020-10-05T10:47:52.776Z</time>
      </trkpt>
      <trkpt lat="50.374046" lon="5.382676">
        <ele>266.496501</ele>
        <time>2020-10-05T10:47:53.654Z</time>
      </trkpt>
      <trkpt lat="50.374053" lon="5.382553">
        <ele>266.193883</ele>
        <time>2020-10-05T10:47:54.450Z</time>
      </trkpt>
      <trkpt lat="50.374367" lon="5.382283">
        <ele>264.609091</ele>
        <time>2020-10-05T10:47:59.567Z</time>
      </trkpt>
      <trkpt lat="50.375153" lon="5.381715">
        <ele>260.548260</ele>
        <time>2020-10-05T10:48:11.792Z</time>
      </trkpt>
      <trkpt lat="50.376794" lon="5.381023">
        <ele>251.505701</ele>
        <time>2020-10-05T10:48:34.002Z</time>
      </trkpt>
      <trkpt lat="50.376917" lon="5.380916">
        <ele>250.697065</ele>
        <time>2020-10-05T10:48:35.902Z</time>
      </trkpt>
      <trkpt lat="50.376967" lon="5.380743">
        <ele>250.000712</ele>
        <time>2020-10-05T10:48:37.411Z</time>
      </trkpt>
      <trkpt lat="50.377227" lon="5.380786">
        <ele>248.497720</ele>
        <time>2020-10-05T10:48:39.865Z</time>
      </trkpt>
      <trkpt lat="50.377437" lon="5.380749">
        <ele>247.282865</ele>
        <time>2020-10-05T10:48:41.780Z</time>
      </trkpt>
      <trkpt lat="50.377551" lon="5.380726">
        <ele>246.934483</ele>
        <time>2020-10-05T10:48:43.186Z</time>
      </trkpt>
      <trkpt lat="50.377814" lon="5.380709">
        <ele>246.733485</ele>
        <time>2020-10-05T10:48:45.652Z</time>
      </trkpt>
      <trkpt lat="50.378004" lon="5.380778">
        <ele>246.584560</ele>
        <time>2020-10-05T10:48:47.704Z</time>
      </trkpt>
      <trkpt lat="50.378198" lon="5.380946">
        <ele>246.415332</ele>
        <time>2020-10-05T10:48:50.276Z</time>
      </trkpt>
      <trkpt lat="50.378731" lon="5.381562">
        <ele>245.909732</ele>
        <time>2020-10-05T10:48:58.487Z</time>
      </trkpt>
      <trkpt lat="50.378755" lon="5.381525">
        <ele>245.884032</ele>
        <time>2020-10-05T10:49:00.588Z</time>
      </trkpt>
      <trkpt lat="50.379843" lon="5.381096">
        <ele>249.170411</ele>
        <time>2020-10-05T10:49:40.164Z</time>
      </trkpt>
      <trkpt lat="50.380929" lon="5.380242">
        <ele>255.152686</ele>
        <time>2020-10-05T10:50:31.699Z</time>
      </trkpt>
      <trkpt lat="50.382158" lon="5.379641">
        <ele>263.349235</ele>
        <time>2020-10-05T10:51:29.841Z</time>
      </trkpt>
      <trkpt lat="50.383463" lon="5.379442">
        <ele>273.669256</ele>
        <time>2020-10-05T10:52:35.261Z</time>
      </trkpt>
      <trkpt lat="50.384067" lon="5.379535">
        <ele>278.757526</ele>
        <time>2020-10-05T10:53:08.008Z</time>
      </trkpt>
      <trkpt lat="50.384294" lon="5.379489">
        <ele>280.696638</ele>
        <time>2020-10-05T10:53:22.136Z</time>
      </trkpt>
      <trkpt lat="50.384663" lon="5.379041">
        <ele>285.243074</ele>
        <time>2020-10-05T10:53:55.064Z</time>
      </trkpt>
      <trkpt lat="50.384815" lon="5.378950">
        <ele>286.828199</ele>
        <time>2020-10-05T10:54:04.439Z</time>
      </trkpt>
      <trkpt lat="50.385324" lon="5.378861">
        <ele>291.817963</ele>
        <time>2020-10-05T10:54:37.185Z</time>
      </trkpt>
      <trkpt lat="50.385505" lon="5.378755">
        <ele>293.700326</ele>
        <time>2020-10-05T10:54:48.396Z</time>
      </trkpt>
      <trkpt lat="50.385637" lon="5.378574">
        <ele>295.408588</ele>
        <time>2020-10-05T10:54:58.675Z</time>
      </trkpt>
      <trkpt lat="50.385682" lon="5.378527">
        <ele>295.935332</ele>
        <time>2020-10-05T10:55:03.380Z</time>
      </trkpt>
      <trkpt lat="50.386116" lon="5.378017">
        <ele>298.420141</ele>
        <time>2020-10-05T10:55:27.996Z</time>
      </trkpt>
      <trkpt lat="50.386659" lon="5.377575">
        <ele>299.072840</ele>
        <time>2020-10-05T10:55:50.176Z</time>
      </trkpt>
      <trkpt lat="50.387071" lon="5.377148">
        <ele>299.599699</ele>
        <time>2020-10-05T10:55:59.631Z</time>
      </trkpt>
      <trkpt lat="50.387943" lon="5.375859">
        <ele>293.628099</ele>
        <time>2020-10-05T10:56:14.995Z</time>
      </trkpt>
      <trkpt lat="50.388659" lon="5.375105">
        <ele>286.995178</ele>
        <time>2020-10-05T10:56:25.647Z</time>
      </trkpt>
      <trkpt lat="50.388965" lon="5.374865">
        <ele>284.862454</ele>
        <time>2020-10-05T10:56:29.960Z</time>
      </trkpt>
      <trkpt lat="50.389056" lon="5.374851">
        <ele>284.354271</ele>
        <time>2020-10-05T10:56:31.053Z</time>
      </trkpt>
      <trkpt lat="50.389152" lon="5.374791">
        <ele>283.779926</ele>
        <time>2020-10-05T10:56:32.424Z</time>
      </trkpt>
      <trkpt lat="50.389763" lon="5.374508">
        <ele>280.239164</ele>
        <time>2020-10-05T10:56:40.727Z</time>
      </trkpt>
      <trkpt lat="50.390225" lon="5.374172">
        <ele>277.408883</ele>
        <time>2020-10-05T10:56:47.949Z</time>
      </trkpt>
      <trkpt lat="50.390347" lon="5.374048">
        <ele>276.600922</ele>
        <time>2020-10-05T10:56:49.956Z</time>
      </trkpt>
      <trkpt lat="50.390487" lon="5.373929">
        <ele>276.073463</ele>
        <time>2020-10-05T10:56:52.312Z</time>
      </trkpt>
      <trkpt lat="50.391367" lon="5.373149">
        <ele>274.928561</ele>
        <time>2020-10-05T10:57:10.657Z</time>
      </trkpt>
      <trkpt lat="50.391582" lon="5.372749">
        <ele>274.550751</ele>
        <time>2020-10-05T10:57:16.786Z</time>
      </trkpt>
      <trkpt lat="50.391752" lon="5.372250">
        <ele>274.142189</ele>
        <time>2020-10-05T10:57:23.528Z</time>
      </trkpt>
      <trkpt lat="50.392501" lon="5.371483">
        <ele>272.733461</ele>
        <time>2020-10-05T10:57:38.873Z</time>
      </trkpt>
      <trkpt lat="50.392777" lon="5.371301">
        <ele>272.260019</ele>
        <time>2020-10-05T10:57:43.705Z</time>
      </trkpt>
      <trkpt lat="50.392827" lon="5.371268">
        <ele>272.174239</ele>
        <time>2020-10-05T10:57:44.558Z</time>
      </trkpt>
      <trkpt lat="50.393149" lon="5.371021">
        <ele>271.607429</ele>
        <time>2020-10-05T10:57:50.134Z</time>
      </trkpt>
      <trkpt lat="50.395144" lon="5.367240">
        <ele>265.486493</ele>
        <time>2020-10-05T10:58:37.471Z</time>
      </trkpt>
      <trkpt lat="50.395170" lon="5.367122">
        <ele>265.404255</ele>
        <time>2020-10-05T10:58:38.785Z</time>
      </trkpt>
      <trkpt lat="50.395630" lon="5.367104">
        <ele>264.928800</ele>
        <time>2020-10-05T10:58:50.508Z</time>
      </trkpt>
      <trkpt lat="50.396211" lon="5.367108">
        <ele>265.994103</ele>
        <time>2020-10-05T10:59:07.264Z</time>
      </trkpt>
      <trkpt lat="50.396440" lon="5.367122">
        <ele>266.610341</ele>
        <time>2020-10-05T10:59:15.037Z</time>
      </trkpt>
      <trkpt lat="50.397180" lon="5.367293">
        <ele>268.621641</ele>
        <time>2020-10-05T10:59:40.955Z</time>
      </trkpt>
      <trkpt lat="50.397665" lon="5.367278">
        <ele>269.684802</ele>
        <time>2020-10-05T10:59:56.599Z</time>
      </trkpt>
      <trkpt lat="50.398383" lon="5.366606">
        <ele>270.117492</ele>
        <time>2020-10-05T11:00:16.394Z</time>
      </trkpt>
      <trkpt lat="50.398831" lon="5.366491">
        <ele>270.352427</ele>
        <time>2020-10-05T11:00:24.343Z</time>
      </trkpt>
      <trkpt lat="50.399272" lon="5.366499">
        <ele>270.632217</ele>
        <time>2020-10-05T11:00:32.008Z</time>
      </trkpt>
      <trkpt lat="50.400373" lon="5.366408">
        <ele>272.508832</ele>
        <time>2020-10-05T11:00:55.300Z</time>
      </trkpt>
      <trkpt lat="50.402664" lon="5.366220">
        <ele>281.824287</ele>
        <time>2020-10-05T11:02:24.476Z</time>
      </trkpt>
      <trkpt lat="50.405040" lon="5.365975">
        <ele>295.728756</ele>
        <time>2020-10-05T11:04:17.769Z</time>
      </trkpt>
      <trkpt lat="50.405911" lon="5.365932">
        <ele>298.574223</ele>
        <time>2020-10-05T11:04:45.497Z</time>
      </trkpt>
      <trkpt lat="50.407007" lon="5.365305">
        <ele>301.031873</ele>
        <time>2020-10-05T11:05:11.901Z</time>
      </trkpt>
      <trkpt lat="50.410779" lon="5.363979">
        <ele>306.343066</ele>
        <time>2020-10-05T11:06:51.033Z</time>
      </trkpt>
      <trkpt lat="50.411573" lon="5.363710">
        <ele>307.821561</ele>
        <time>2020-10-05T11:07:16.978Z</time>
      </trkpt>
      <trkpt lat="50.411763" lon="5.363595">
        <ele>307.692642</ele>
        <time>2020-10-05T11:07:22.719Z</time>
      </trkpt>
      <trkpt lat="50.412619" lon="5.363022">
        <ele>306.292160</ele>
        <time>2020-10-05T11:07:41.836Z</time>
      </trkpt>
      <trkpt lat="50.412841" lon="5.363002">
        <ele>305.957527</ele>
        <time>2020-10-05T11:07:45.095Z</time>
      </trkpt>
      <trkpt lat="50.413347" lon="5.363002">
        <ele>305.136668</ele>
        <time>2020-10-05T11:07:52.042Z</time>
      </trkpt>
      <trkpt lat="50.414174" lon="5.363002">
        <ele>299.258592</ele>
        <time>2020-10-05T11:08:02.658Z</time>
      </trkpt>
      <trkpt lat="50.414906" lon="5.363008">
        <ele>294.055678</ele>
        <time>2020-10-05T11:08:11.852Z</time>
      </trkpt>
      <trkpt lat="50.415123" lon="5.362946">
        <ele>292.487951</ele>
        <time>2020-10-05T11:08:14.596Z</time>
      </trkpt>
      <trkpt lat="50.416735" lon="5.362098">
        <ele>280.602219</ele>
        <time>2020-10-05T11:08:36.411Z</time>
      </trkpt>
      <trkpt lat="50.417100" lon="5.361975">
        <ele>278.455887</ele>
        <time>2020-10-05T11:08:41.325Z</time>
      </trkpt>
      <trkpt lat="50.417300" lon="5.361962">
        <ele>277.404791</ele>
        <time>2020-10-05T11:08:43.913Z</time>
      </trkpt>
      <trkpt lat="50.417840" lon="5.361928">
        <ele>274.566980</ele>
        <time>2020-10-05T11:08:51.145Z</time>
      </trkpt>
      <trkpt lat="50.418080" lon="5.361947">
        <ele>273.305142</ele>
        <time>2020-10-05T11:08:54.377Z</time>
      </trkpt>
      <trkpt lat="50.418354" lon="5.362063">
        <ele>271.814945</ele>
        <time>2020-10-05T11:08:58.289Z</time>
      </trkpt>
      <trkpt lat="50.418502" lon="5.362104">
        <ele>271.025785</ele>
        <time>2020-10-05T11:09:00.381Z</time>
      </trkpt>
      <trkpt lat="50.418683" lon="5.362119">
        <ele>270.242247</ele>
        <time>2020-10-05T11:09:02.837Z</time>
      </trkpt>
      <trkpt lat="50.419307" lon="5.361951">
        <ele>268.582648</ele>
        <time>2020-10-05T11:09:11.982Z</time>
      </trkpt>
      <trkpt lat="50.419841" lon="5.361601">
        <ele>267.065701</ele>
        <time>2020-10-05T11:09:20.879Z</time>
      </trkpt>
      <trkpt lat="50.419921" lon="5.361542">
        <ele>266.833996</ele>
        <time>2020-10-05T11:09:22.145Z</time>
      </trkpt>
      <trkpt lat="50.420845" lon="5.360860">
        <ele>265.304701</ele>
        <time>2020-10-05T11:09:39.847Z</time>
      </trkpt>
      <trkpt lat="50.422010" lon="5.359994">
        <ele>264.494072</ele>
        <time>2020-10-05T11:10:03.968Z</time>
      </trkpt>
      <trkpt lat="50.422631" lon="5.359431">
        <ele>264.456965</ele>
        <time>2020-10-05T11:10:18.090Z</time>
      </trkpt>
      <trkpt lat="50.423170" lon="5.358989">
        <ele>264.425498</ele>
        <time>2020-10-05T11:10:30.662Z</time>
      </trkpt>
      <trkpt lat="50.423698" lon="5.358611">
        <ele>264.335751</ele>
        <time>2020-10-05T11:10:42.472Z</time>
      </trkpt>
      <trkpt lat="50.424107" lon="5.358329">
        <ele>264.167634</ele>
        <time>2020-10-05T11:10:51.779Z</time>
      </trkpt>
      <trkpt lat="50.425287" lon="5.357469">
        <ele>263.539121</ele>
        <time>2020-10-05T11:11:16.063Z</time>
      </trkpt>
      <trkpt lat="50.426206" lon="5.356900">
        <ele>262.136027</ele>
        <time>2020-10-05T11:11:32.403Z</time>
      </trkpt>
      <trkpt lat="50.426311" lon="5.357050">
        <ele>261.934385</ele>
        <time>2020-10-05T11:11:34.020Z</time>
      </trkpt>
      <trkpt lat="50.426424" lon="5.357207">
        <ele>261.720057</ele>
        <time>2020-10-05T11:11:35.709Z</time>
      </trkpt>
      <trkpt lat="50.427436" lon="5.353020">
        <ele>256.581132</ele>
        <time>2020-10-05T11:12:21.254Z</time>
      </trkpt>
      <trkpt lat="50.428165" lon="5.350011">
        <ele>252.810343</ele>
        <time>2020-10-05T11:12:53.932Z</time>
      </trkpt>
      <trkpt lat="50.428831" lon="5.347265">
        <ele>249.848628</ele>
        <time>2020-10-05T11:13:24.493Z</time>
      </trkpt>
      <trkpt lat="50.428893" lon="5.347022">
        <ele>249.614128</ele>
        <time>2020-10-05T11:13:27.317Z</time>
      </trkpt>
      <trkpt lat="50.428948" lon="5.346789">
        <ele>249.391529</ele>
        <time>2020-10-05T11:13:30.079Z</time>
      </trkpt>
      <trkpt lat="50.428992" lon="5.346604">
        <ele>249.214626</ele>
        <time>2020-10-05T11:13:32.174Z</time>
      </trkpt>
      <trkpt lat="50.429193" lon="5.345754">
        <ele>248.399667</ele>
        <time>2020-10-05T11:13:42.148Z</time>
      </trkpt>
      <trkpt lat="50.429304" lon="5.345754">
        <ele>248.242223</ele>
        <time>2020-10-05T11:13:43.435Z</time>
      </trkpt>
      <trkpt lat="50.429560" lon="5.345766">
        <ele>247.878945</ele>
        <time>2020-10-05T11:13:46.585Z</time>
      </trkpt>
      <trkpt lat="50.429632" lon="5.345750">
        <ele>247.775801</ele>
        <time>2020-10-05T11:13:47.427Z</time>
      </trkpt>
      <trkpt lat="50.432709" lon="5.346257">
        <ele>243.204367</ele>
        <time>2020-10-05T11:14:22.693Z</time>
      </trkpt>
      <trkpt lat="50.435032" lon="5.346648">
        <ele>241.056575</ele>
        <time>2020-10-05T11:14:51.731Z</time>
      </trkpt>
      <trkpt lat="50.435820" lon="5.346778">
        <ele>240.518547</ele>
        <time>2020-10-05T11:15:01.932Z</time>
      </trkpt>
      <trkpt lat="50.437943" lon="5.347131">
        <ele>239.663578</ele>
        <time>2020-10-05T11:15:30.842Z</time>
      </trkpt>
      <trkpt lat="50.438821" lon="5.347285">
        <ele>239.593765</ele>
        <time>2020-10-05T11:15:43.559Z</time>
      </trkpt>
      <trkpt lat="50.439139" lon="5.347410">
        <ele>239.567861</ele>
        <time>2020-10-05T11:15:48.322Z</time>
      </trkpt>
      <trkpt lat="50.439592" lon="5.347702">
        <ele>239.529165</ele>
        <time>2020-10-05T11:15:55.673Z</time>
      </trkpt>
      <trkpt lat="50.439671" lon="5.347687">
        <ele>239.530238</ele>
        <time>2020-10-05T11:15:56.840Z</time>
      </trkpt>
      <trkpt lat="50.439723" lon="5.347634">
        <ele>239.568686</ele>
        <time>2020-10-05T11:15:57.761Z</time>
      </trkpt>
      <trkpt lat="50.439806" lon="5.347520">
        <ele>239.637078</ele>
        <time>2020-10-05T11:15:59.495Z</time>
      </trkpt>
      <trkpt lat="50.439871" lon="5.347463">
        <ele>239.683251</ele>
        <time>2020-10-05T11:16:00.700Z</time>
      </trkpt>
      <trkpt lat="50.440027" lon="5.347481">
        <ele>239.780261</ele>
        <time>2020-10-05T11:16:03.005Z</time>
      </trkpt>
      <trkpt lat="50.444099" lon="5.348158">
        <ele>242.970817</ele>
        <time>2020-10-05T11:17:15.288Z</time>
      </trkpt>
      <trkpt lat="50.444188" lon="5.348178">
        <ele>243.090817</ele>
        <time>2020-10-05T11:17:17.442Z</time>
      </trkpt>
      <trkpt lat="50.444295" lon="5.348196">
        <ele>243.234448</ele>
        <time>2020-10-05T11:17:19.953Z</time>
      </trkpt>
      <trkpt lat="50.444388" lon="5.348218">
        <ele>243.359977</ele>
        <time>2020-10-05T11:17:21.944Z</time>
      </trkpt>
      <trkpt lat="50.444557" lon="5.348265">
        <ele>243.589054</ele>
        <time>2020-10-05T11:17:25.792Z</time>
      </trkpt>
      <trkpt lat="50.444839" lon="5.348453">
        <ele>243.997959</ele>
        <time>2020-10-05T11:17:32.570Z</time>
      </trkpt>
      <trkpt lat="50.444950" lon="5.348361">
        <ele>244.169986</ele>
        <time>2020-10-05T11:17:35.840Z</time>
      </trkpt>
      <trkpt lat="50.448684" lon="5.347119">
        <ele>251.203510</ele>
        <time>2020-10-05T11:19:01.479Z</time>
      </trkpt>
      <trkpt lat="50.452646" lon="5.346283">
        <ele>254.614450</ele>
        <time>2020-10-05T11:20:15.934Z</time>
      </trkpt>
      <trkpt lat="50.455822" lon="5.344326">
        <ele>254.869412</ele>
        <time>2020-10-05T11:20:59.974Z</time>
      </trkpt>
      <trkpt lat="50.457897" lon="5.341648">
        <ele>265.738221</ele>
        <time>2020-10-05T11:22:25.655Z</time>
      </trkpt>
      <trkpt lat="50.457912" lon="5.341624">
        <ele>265.849859</ele>
        <time>2020-10-05T11:22:27.825Z</time>
      </trkpt>
      <trkpt lat="50.458087" lon="5.341410">
        <ele>267.006203</ele>
        <time>2020-10-05T11:22:38.408Z</time>
      </trkpt>
      <trkpt lat="50.459104" lon="5.340092">
        <ele>272.374095</ele>
        <time>2020-10-05T11:23:32.497Z</time>
      </trkpt>
      <trkpt lat="50.459114" lon="5.340078">
        <ele>272.425455</ele>
        <time>2020-10-05T11:23:32.898Z</time>
      </trkpt>
      <trkpt lat="50.459442" lon="5.339622">
        <ele>274.104873</ele>
        <time>2020-10-05T11:23:42.956Z</time>
      </trkpt>
      <trkpt lat="50.459706" lon="5.339413">
        <ele>274.928130</ele>
        <time>2020-10-05T11:23:47.236Z</time>
      </trkpt>
      <trkpt lat="50.460856" lon="5.338845">
        <ele>270.252985</ele>
        <time>2020-10-05T11:23:58.757Z</time>
      </trkpt>
      <trkpt lat="50.461509" lon="5.338272">
        <ele>267.469666</ele>
        <time>2020-10-05T11:24:05.734Z</time>
      </trkpt>
      <trkpt lat="50.463784" lon="5.336773">
        <ele>261.538907</ele>
        <time>2020-10-05T11:24:31.366Z</time>
      </trkpt>
      <trkpt lat="50.464696" lon="5.336215">
        <ele>260.946761</ele>
        <time>2020-10-05T11:24:48.369Z</time>
      </trkpt>
      <trkpt lat="50.465393" lon="5.335885">
        <ele>263.312178</ele>
        <time>2020-10-05T11:25:06.093Z</time>
      </trkpt>
      <trkpt lat="50.465815" lon="5.335544">
        <ele>264.854162</ele>
        <time>2020-10-05T11:25:20.368Z</time>
      </trkpt>
      <trkpt lat="50.465989" lon="5.335283">
        <ele>265.635881</ele>
        <time>2020-10-05T11:25:27.598Z</time>
      </trkpt>
      <trkpt lat="50.466090" lon="5.335002">
        <ele>266.303338</ele>
        <time>2020-10-05T11:25:35.743Z</time>
      </trkpt>
      <trkpt lat="50.466269" lon="5.334275">
        <ele>267.860799</ele>
        <time>2020-10-05T11:25:52.667Z</time>
      </trkpt>
      <trkpt lat="50.466360" lon="5.334084">
        <ele>268.332898</ele>
        <time>2020-10-05T11:25:58.186Z</time>
      </trkpt>
      <trkpt lat="50.466581" lon="5.333837">
        <ele>269.176048</ele>
        <time>2020-10-05T11:26:05.281Z</time>
      </trkpt>
      <trkpt lat="50.466607" lon="5.333814">
        <ele>269.268808</ele>
        <time>2020-10-05T11:26:07.112Z</time>
      </trkpt>
      <trkpt lat="50.466811" lon="5.333623">
        <ele>270.007072</ele>
        <time>2020-10-05T11:26:13.275Z</time>
      </trkpt>
      <trkpt lat="50.466906" lon="5.333466">
        <ele>270.435715</ele>
        <time>2020-10-05T11:26:16.984Z</time>
      </trkpt>
      <trkpt lat="50.466968" lon="5.333291">
        <ele>270.832028</ele>
        <time>2020-10-05T11:26:20.312Z</time>
      </trkpt>
      <trkpt lat="50.467099" lon="5.333167">
        <ele>271.307480</ele>
        <time>2020-10-05T11:26:22.896Z</time>
      </trkpt>
      <trkpt lat="50.467238" lon="5.333104">
        <ele>271.757217</ele>
        <time>2020-10-05T11:26:26.943Z</time>
      </trkpt>
      <trkpt lat="50.468100" lon="5.332805">
        <ele>271.273501</ele>
        <time>2020-10-05T11:26:41.578Z</time>
      </trkpt>
      <trkpt lat="50.471468" lon="5.332020">
        <ele>264.297451</ele>
        <time>2020-10-05T11:27:16.840Z</time>
      </trkpt>
      <trkpt lat="50.472902" lon="5.331390">
        <ele>263.424538</ele>
        <time>2020-10-05T11:27:37.177Z</time>
      </trkpt>
      <trkpt lat="50.475006" lon="5.330738">
        <ele>267.473326</ele>
        <time>2020-10-05T11:28:26.329Z</time>
      </trkpt>
      <trkpt lat="50.475420" lon="5.330591">
        <ele>268.647447</ele>
        <time>2020-10-05T11:28:38.206Z</time>
      </trkpt>
      <trkpt lat="50.475973" lon="5.330405">
        <ele>270.211860</ele>
        <time>2020-10-05T11:28:55.089Z</time>
      </trkpt>
      <trkpt lat="50.476773" lon="5.330130">
        <ele>270.779105</ele>
        <time>2020-10-05T11:29:15.144Z</time>
      </trkpt>
      <trkpt lat="50.477262" lon="5.329958">
        <ele>270.701001</ele>
        <time>2020-10-05T11:29:23.397Z</time>
      </trkpt>
      <trkpt lat="50.477754" lon="5.329810">
        <ele>270.622924</ele>
        <time>2020-10-05T11:29:28.940Z</time>
      </trkpt>
      <trkpt lat="50.478800" lon="5.329469">
        <ele>266.955081</ele>
        <time>2020-10-05T11:29:39.329Z</time>
      </trkpt>
      <trkpt lat="50.479693" lon="5.329172">
        <ele>263.065141</ele>
        <time>2020-10-05T11:29:47.847Z</time>
      </trkpt>
      <trkpt lat="50.486885" lon="5.326817">
        <ele>244.621151</ele>
        <time>2020-10-05T11:31:05.229Z</time>
      </trkpt>
      <trkpt lat="50.487469" lon="5.326626">
        <ele>245.508876</ele>
        <time>2020-10-05T11:31:15.280Z</time>
      </trkpt>
      <trkpt lat="50.487510" lon="5.326677">
        <ele>245.586689</ele>
        <time>2020-10-05T11:31:17.191Z</time>
      </trkpt>
      <trkpt lat="50.487981" lon="5.326499">
        <ele>246.307609</ele>
        <time>2020-10-05T11:31:30.264Z</time>
      </trkpt>
      <trkpt lat="50.488312" lon="5.326260">
        <ele>246.849696</ele>
        <time>2020-10-05T11:31:42.511Z</time>
      </trkpt>
      <trkpt lat="50.488991" lon="5.326147">
        <ele>249.432711</ele>
        <time>2020-10-05T11:32:07.543Z</time>
      </trkpt>
      <trkpt lat="50.489487" lon="5.325942">
        <ele>251.801748</ele>
        <time>2020-10-05T11:32:26.756Z</time>
      </trkpt>
      <trkpt lat="50.489545" lon="5.325908">
        <ele>252.087692</ele>
        <time>2020-10-05T11:32:30.329Z</time>
      </trkpt>
      <trkpt lat="50.490084" lon="5.326445">
        <ele>255.035500</ele>
        <time>2020-10-05T11:32:56.049Z</time>
      </trkpt>
      <trkpt lat="50.490255" lon="5.326766">
        <ele>256.151523</ele>
        <time>2020-10-05T11:33:07.999Z</time>
      </trkpt>
      <trkpt lat="50.491412" lon="5.325539">
        <ele>261.717125</ele>
        <time>2020-10-05T11:34:00.367Z</time>
      </trkpt>
      <trkpt lat="50.491386" lon="5.325389">
        <ele>262.111533</ele>
        <time>2020-10-05T11:34:03.335Z</time>
      </trkpt>
      <trkpt lat="50.491527" lon="5.325303">
        <ele>262.587489</ele>
        <time>2020-10-05T11:34:07.870Z</time>
      </trkpt>
      <trkpt lat="50.491695" lon="5.325201">
        <ele>262.496256</ele>
        <time>2020-10-05T11:34:13.176Z</time>
      </trkpt>
      <trkpt lat="50.491749" lon="5.325199">
        <ele>262.468893</ele>
        <time>2020-10-05T11:34:14.297Z</time>
      </trkpt>
      <trkpt lat="50.491886" lon="5.325194">
        <ele>262.399474</ele>
        <time>2020-10-05T11:34:17.921Z</time>
      </trkpt>
      <trkpt lat="50.492892" lon="5.324784">
        <ele>261.873008</ele>
        <time>2020-10-05T11:34:36.353Z</time>
      </trkpt>
      <trkpt lat="50.493605" lon="5.324758">
        <ele>260.541522</ele>
        <time>2020-10-05T11:34:46.776Z</time>
      </trkpt>
      <trkpt lat="50.494104" lon="5.324943">
        <ele>258.873713</ele>
        <time>2020-10-05T11:34:54.199Z</time>
      </trkpt>
      <trkpt lat="50.494190" lon="5.324935">
        <ele>258.593462</ele>
        <time>2020-10-05T11:34:55.401Z</time>
      </trkpt>
      <trkpt lat="50.497847" lon="5.325393">
        <ele>246.482079</ele>
        <time>2020-10-05T11:35:48.412Z</time>
      </trkpt>
      <trkpt lat="50.499883" lon="5.325822">
        <ele>240.800846</ele>
        <time>2020-10-05T11:36:18.787Z</time>
      </trkpt>
      <trkpt lat="50.500379" lon="5.325910">
        <ele>239.552430</ele>
        <time>2020-10-05T11:36:26.869Z</time>
      </trkpt>
      <trkpt lat="50.500747" lon="5.325973">
        <ele>239.005895</ele>
        <time>2020-10-05T11:36:33.025Z</time>
      </trkpt>
      <trkpt lat="50.501734" lon="5.326047">
        <ele>237.606484</ele>
        <time>2020-10-05T11:36:49.992Z</time>
      </trkpt>
      <trkpt lat="50.502858" lon="5.325940">
        <ele>234.960583</ele>
        <time>2020-10-05T11:37:08.230Z</time>
      </trkpt>
      <trkpt lat="50.503534" lon="5.326192">
        <ele>232.878805</ele>
        <time>2020-10-05T11:37:17.897Z</time>
      </trkpt>
      <trkpt lat="50.504365" lon="5.326611">
        <ele>230.461576</ele>
        <time>2020-10-05T11:37:30.488Z</time>
      </trkpt>
      <trkpt lat="50.504411" lon="5.326636">
        <ele>230.337915</ele>
        <time>2020-10-05T11:37:31.094Z</time>
      </trkpt>
      <trkpt lat="50.504650" lon="5.326765">
        <ele>229.695884</ele>
        <time>2020-10-05T11:37:35.261Z</time>
      </trkpt>
      <trkpt lat="50.505029" lon="5.326904">
        <ele>228.707078</ele>
        <time>2020-10-05T11:37:41.379Z</time>
      </trkpt>
      <trkpt lat="50.504995" lon="5.327167">
        <ele>228.273389</ele>
        <time>2020-10-05T11:37:43.917Z</time>
      </trkpt>
      <trkpt lat="50.504941" lon="5.327737">
        <ele>227.342127</ele>
        <time>2020-10-05T11:37:49.675Z</time>
      </trkpt>
      <trkpt lat="50.504950" lon="5.328273">
        <ele>226.556366</ele>
        <time>2020-10-05T11:37:54.985Z</time>
      </trkpt>
      <trkpt lat="50.505017" lon="5.328727">
        <ele>225.920434</ele>
        <time>2020-10-05T11:38:00.090Z</time>
      </trkpt>
      <trkpt lat="50.505512" lon="5.330221">
        <ele>223.621882</ele>
        <time>2020-10-05T11:38:17.595Z</time>
      </trkpt>
      <trkpt lat="50.506095" lon="5.331963">
        <ele>218.292072</ele>
        <time>2020-10-05T11:38:35.155Z</time>
      </trkpt>
      <trkpt lat="50.507140" lon="5.332825">
        <ele>212.558754</ele>
        <time>2020-10-05T11:38:50.663Z</time>
      </trkpt>
      <trkpt lat="50.507349" lon="5.333117">
        <ele>211.129066</ele>
        <time>2020-10-05T11:38:54.444Z</time>
      </trkpt>
      <trkpt lat="50.507404" lon="5.333274">
        <ele>210.546144</ele>
        <time>2020-10-05T11:38:55.888Z</time>
      </trkpt>
      <trkpt lat="50.507738" lon="5.334245">
        <ele>206.956035</ele>
        <time>2020-10-05T11:39:05.413Z</time>
      </trkpt>
      <trkpt lat="50.508066" lon="5.335494">
        <ele>204.494947</ele>
        <time>2020-10-05T11:39:17.564Z</time>
      </trkpt>
      <trkpt lat="50.509091" lon="5.337915">
        <ele>202.300476</ele>
        <time>2020-10-05T11:39:51.885Z</time>
      </trkpt>
      <trkpt lat="50.509207" lon="5.338223">
        <ele>202.256294</ele>
        <time>2020-10-05T11:39:57.036Z</time>
      </trkpt>
      <trkpt lat="50.509346" lon="5.338593">
        <ele>202.203252</ele>
        <time>2020-10-05T11:40:02.997Z</time>
      </trkpt>
      <trkpt lat="50.509475" lon="5.338822">
        <ele>202.165493</ele>
        <time>2020-10-05T11:40:06.871Z</time>
      </trkpt>
      <trkpt lat="50.509557" lon="5.338933">
        <ele>202.144493</ele>
        <time>2020-10-05T11:40:09.481Z</time>
      </trkpt>
      <trkpt lat="50.509912" lon="5.339130">
        <ele>202.071429</ele>
        <time>2020-10-05T11:40:17.370Z</time>
      </trkpt>
      <trkpt lat="50.511425" lon="5.338994">
        <ele>198.891816</ele>
        <time>2020-10-05T11:40:42.170Z</time>
      </trkpt>
      <trkpt lat="50.513108" lon="5.339004">
        <ele>191.232752</ele>
        <time>2020-10-05T11:41:04.922Z</time>
      </trkpt>
      <trkpt lat="50.513528" lon="5.339075">
        <ele>189.103759</ele>
        <time>2020-10-05T11:41:10.463Z</time>
      </trkpt>
      <trkpt lat="50.513854" lon="5.339211">
        <ele>187.512157</ele>
        <time>2020-10-05T11:41:14.933Z</time>
      </trkpt>
      <trkpt lat="50.514003" lon="5.339273">
        <ele>186.784830</ele>
        <time>2020-10-05T11:41:16.930Z</time>
      </trkpt>
      <trkpt lat="50.514024" lon="5.339260">
        <ele>186.678330</ele>
        <time>2020-10-05T11:41:17.195Z</time>
      </trkpt>
      <trkpt lat="50.514252" lon="5.339157">
        <ele>185.558886</ele>
        <time>2020-10-05T11:41:20.480Z</time>
      </trkpt>
      <trkpt lat="50.514914" lon="5.338573">
        <ele>181.976963</ele>
        <time>2020-10-05T11:41:30.760Z</time>
      </trkpt>
      <trkpt lat="50.515667" lon="5.337178">
        <ele>179.411629</ele>
        <time>2020-10-05T11:41:48.474Z</time>
      </trkpt>
      <trkpt lat="50.515937" lon="5.336535">
        <ele>178.702276</ele>
        <time>2020-10-05T11:41:57.469Z</time>
      </trkpt>
      <trkpt lat="50.516079" lon="5.335902">
        <ele>178.111443</ele>
        <time>2020-10-05T11:42:06.138Z</time>
      </trkpt>
      <trkpt lat="50.516266" lon="5.335641">
        <ele>178.294134</ele>
        <time>2020-10-05T11:42:11.706Z</time>
      </trkpt>
      <trkpt lat="50.516530" lon="5.335602">
        <ele>178.487888</ele>
        <time>2020-10-05T11:42:17.986Z</time>
      </trkpt>
      <trkpt lat="50.516831" lon="5.335782">
        <ele>178.723191</ele>
        <time>2020-10-05T11:42:25.976Z</time>
      </trkpt>
      <trkpt lat="50.517632" lon="5.337047">
        <ele>179.182375</ele>
        <time>2020-10-05T11:42:53.648Z</time>
      </trkpt>
      <trkpt lat="50.518225" lon="5.337799">
        <ele>178.223841</ele>
        <time>2020-10-05T11:43:08.335Z</time>
      </trkpt>
      <trkpt lat="50.520606" lon="5.341326">
        <ele>169.135586</ele>
        <time>2020-10-05T11:43:57.001Z</time>
      </trkpt>
      <trkpt lat="50.520838" lon="5.341588">
        <ele>167.855932</ele>
        <time>2020-10-05T11:44:00.766Z</time>
      </trkpt>
      <trkpt lat="50.521081" lon="5.341566">
        <ele>166.765384</ele>
        <time>2020-10-05T11:44:04.104Z</time>
      </trkpt>
      <trkpt lat="50.521118" lon="5.341537">
        <ele>166.580165</ele>
        <time>2020-10-05T11:44:04.594Z</time>
      </trkpt>
      <trkpt lat="50.521400" lon="5.341201">
        <ele>164.995078</ele>
        <time>2020-10-05T11:44:09.369Z</time>
      </trkpt>
      <trkpt lat="50.522062" lon="5.340661">
        <ele>161.807210</ele>
        <time>2020-10-05T11:44:19.493Z</time>
      </trkpt>
      <trkpt lat="50.522432" lon="5.340478">
        <ele>160.190143</ele>
        <time>2020-10-05T11:44:24.668Z</time>
      </trkpt>
      <trkpt lat="50.523029" lon="5.340138">
        <ele>157.543005</ele>
        <time>2020-10-05T11:44:33.692Z</time>
      </trkpt>
      <trkpt lat="50.524540" lon="5.339225">
        <ele>153.192543</ele>
        <time>2020-10-05T11:44:58.426Z</time>
      </trkpt>
      <trkpt lat="50.524848" lon="5.339039">
        <ele>152.409473</ele>
        <time>2020-10-05T11:45:03.493Z</time>
      </trkpt>
      <trkpt lat="50.525361" lon="5.338720">
        <ele>151.331563</ele>
        <time>2020-10-05T11:45:12.385Z</time>
      </trkpt>
      <trkpt lat="50.525479" lon="5.338541">
        <ele>151.033142</ele>
        <time>2020-10-05T11:45:15.070Z</time>
      </trkpt>
      <trkpt lat="50.526099" lon="5.337020">
        <ele>148.942154</ele>
        <time>2020-10-05T11:45:34.350Z</time>
      </trkpt>
      <trkpt lat="50.526363" lon="5.336654">
        <ele>147.830225</ele>
        <time>2020-10-05T11:45:39.473Z</time>
      </trkpt>
      <trkpt lat="50.527506" lon="5.336097">
        <ele>143.667350</ele>
        <time>2020-10-05T11:45:56.355Z</time>
      </trkpt>
      <trkpt lat="50.527752" lon="5.335990">
        <ele>142.779416</ele>
        <time>2020-10-05T11:45:59.959Z</time>
      </trkpt>
      <trkpt lat="50.527908" lon="5.335973">
        <ele>142.281000</ele>
        <time>2020-10-05T11:46:02.165Z</time>
      </trkpt>
      <trkpt lat="50.529102" lon="5.336628">
        <ele>138.496952</ele>
        <time>2020-10-05T11:46:20.521Z</time>
      </trkpt>
      <trkpt lat="50.529631" lon="5.337241">
        <ele>136.560203</ele>
        <time>2020-10-05T11:46:31.136Z</time>
      </trkpt>
      <trkpt lat="50.530009" lon="5.337526">
        <ele>135.362712</ele>
        <time>2020-10-05T11:46:37.724Z</time>
      </trkpt>
      <trkpt lat="50.530535" lon="5.337750">
        <ele>133.805952</ele>
        <time>2020-10-05T11:46:45.719Z</time>
      </trkpt>
      <trkpt lat="50.531202" lon="5.337925">
        <ele>131.942103</ele>
        <time>2020-10-05T11:46:55.301Z</time>
      </trkpt>
      <trkpt lat="50.531489" lon="5.338043">
        <ele>131.440326</ele>
        <time>2020-10-05T11:46:59.633Z</time>
      </trkpt>
      <trkpt lat="50.531783" lon="5.338157">
        <ele>130.928132</ele>
        <time>2020-10-05T11:47:04.183Z</time>
      </trkpt>
      <trkpt lat="50.532625" lon="5.338614">
        <ele>129.421480</ele>
        <time>2020-10-05T11:47:18.497Z</time>
      </trkpt>
      <trkpt lat="50.532777" lon="5.338697">
        <ele>129.149320</ele>
        <time>2020-10-05T11:47:21.642Z</time>
      </trkpt>
      <trkpt lat="50.533755" lon="5.339043">
        <ele>132.082959</ele>
        <time>2020-10-05T11:47:49.223Z</time>
      </trkpt>
      <trkpt lat="50.534270" lon="5.339323">
        <ele>133.923658</ele>
        <time>2020-10-05T11:48:10.932Z</time>
      </trkpt>
      <trkpt lat="50.534748" lon="5.339698">
        <ele>136.568234</ele>
        <time>2020-10-05T11:48:33.642Z</time>
      </trkpt>
      <trkpt lat="50.535927" lon="5.341217">
        <ele>148.332822</ele>
        <time>2020-10-05T11:49:52.355Z</time>
      </trkpt>
      <trkpt lat="50.536335" lon="5.341427">
        <ele>151.756391</ele>
        <time>2020-10-05T11:50:18.948Z</time>
      </trkpt>
      <trkpt lat="50.536646" lon="5.341450">
        <ele>154.257952</ele>
        <time>2020-10-05T11:50:37.357Z</time>
      </trkpt>
      <trkpt lat="50.537335" lon="5.341375">
        <ele>159.807116</ele>
        <time>2020-10-05T11:51:14.864Z</time>
      </trkpt>
      <trkpt lat="50.537474" lon="5.341308">
        <ele>160.975178</ele>
        <time>2020-10-05T11:51:23.005Z</time>
      </trkpt>
      <trkpt lat="50.537548" lon="5.341237">
        <ele>161.671578</ele>
        <time>2020-10-05T11:51:26.996Z</time>
      </trkpt>
      <trkpt lat="50.538270" lon="5.340578">
        <ele>164.212110</ele>
        <time>2020-10-05T11:51:59.119Z</time>
      </trkpt>
      <trkpt lat="50.538359" lon="5.340459">
        <ele>164.363332</ele>
        <time>2020-10-05T11:52:03.602Z</time>
      </trkpt>
      <trkpt lat="50.538525" lon="5.340240">
        <ele>164.643816</ele>
        <time>2020-10-05T11:52:08.210Z</time>
      </trkpt>
      <trkpt lat="50.539265" lon="5.339456">
        <ele>165.588189</ele>
        <time>2020-10-05T11:52:23.157Z</time>
      </trkpt>
      <trkpt lat="50.540916" lon="5.338641">
        <ele>159.727559</ele>
        <time>2020-10-05T11:52:48.111Z</time>
      </trkpt>
      <trkpt lat="50.540966" lon="5.338596">
        <ele>159.371543</ele>
        <time>2020-10-05T11:52:48.859Z</time>
      </trkpt>
      <trkpt lat="50.541004" lon="5.338522">
        <ele>158.883138</ele>
        <time>2020-10-05T11:52:49.819Z</time>
      </trkpt>
      <trkpt lat="50.541024" lon="5.338404">
        <ele>158.256193</ele>
        <time>2020-10-05T11:52:50.756Z</time>
      </trkpt>
      <trkpt lat="50.541035" lon="5.338269">
        <ele>157.557476</ele>
        <time>2020-10-05T11:52:52.384Z</time>
      </trkpt>
      <trkpt lat="50.541014" lon="5.338013">
        <ele>156.232357</ele>
        <time>2020-10-05T11:52:54.680Z</time>
      </trkpt>
      <trkpt lat="50.540727" lon="5.337435">
        <ele>152.466813</ele>
        <time>2020-10-05T11:53:00.675Z</time>
      </trkpt>
      <trkpt lat="50.540526" lon="5.337126">
        <ele>150.196879</ele>
        <time>2020-10-05T11:53:04.373Z</time>
      </trkpt>
      <trkpt lat="50.540576" lon="5.337101">
        <ele>149.773088</ele>
        <time>2020-10-05T11:53:04.970Z</time>
      </trkpt>
      <trkpt lat="50.540814" lon="5.337036">
        <ele>147.821823</ele>
        <time>2020-10-05T11:53:08.022Z</time>
      </trkpt>
      <trkpt lat="50.541051" lon="5.337359">
        <ele>145.289111</ele>
        <time>2020-10-05T11:53:11.806Z</time>
      </trkpt>
      <trkpt lat="50.541712" lon="5.337978">
        <ele>132.892993</ele>
        <time>2020-10-05T11:53:20.779Z</time>
      </trkpt>
      <trkpt lat="50.541906" lon="5.338158">
        <ele>129.212757</ele>
        <time>2020-10-05T11:53:23.391Z</time>
      </trkpt>
      <trkpt lat="50.542324" lon="5.338458">
        <ele>121.705265</ele>
        <time>2020-10-05T11:53:28.673Z</time>
      </trkpt>
      <trkpt lat="50.542523" lon="5.338523">
        <ele>118.384084</ele>
        <time>2020-10-05T11:53:31.019Z</time>
      </trkpt>
      <trkpt lat="50.542642" lon="5.338462">
        <ele>116.338924</ele>
        <time>2020-10-05T11:53:32.486Z</time>
      </trkpt>
      <trkpt lat="50.542682" lon="5.338434">
        <ele>115.640055</ele>
        <time>2020-10-05T11:53:33.017Z</time>
      </trkpt>
      <trkpt lat="50.542731" lon="5.338398">
        <ele>114.896311</ele>
        <time>2020-10-05T11:53:33.625Z</time>
      </trkpt>
      <trkpt lat="50.542978" lon="5.338335">
        <ele>111.454926</ele>
        <time>2020-10-05T11:53:36.586Z</time>
      </trkpt>
      <trkpt lat="50.543009" lon="5.338298">
        <ele>110.919806</ele>
        <time>2020-10-05T11:53:37.045Z</time>
      </trkpt>
      <trkpt lat="50.543052" lon="5.338210">
        <ele>109.949596</ele>
        <time>2020-10-05T11:53:37.854Z</time>
      </trkpt>
      <trkpt lat="50.543171" lon="5.337985">
        <ele>107.391116</ele>
        <time>2020-10-05T11:53:40.095Z</time>
      </trkpt>
      <trkpt lat="50.543215" lon="5.337900">
        <ele>106.432933</ele>
        <time>2020-10-05T11:53:40.914Z</time>
      </trkpt>
      <trkpt lat="50.543324" lon="5.337904">
        <ele>104.933423</ele>
        <time>2020-10-05T11:53:42.174Z</time>
      </trkpt>
      <trkpt lat="50.543485" lon="5.338010">
        <ele>102.533152</ele>
        <time>2020-10-05T11:53:44.519Z</time>
      </trkpt>
      <trkpt lat="50.543584" lon="5.338040">
        <ele>101.146566</ele>
        <time>2020-10-05T11:53:45.679Z</time>
      </trkpt>
      <trkpt lat="50.543883" lon="5.337967">
        <ele>96.985149</ele>
        <time>2020-10-05T11:53:49.371Z</time>
      </trkpt>
      <trkpt lat="50.544227" lon="5.337894">
        <ele>92.211211</ele>
        <time>2020-10-05T11:53:53.514Z</time>
      </trkpt>
      <trkpt lat="50.544262" lon="5.337848">
        <ele>91.584039</ele>
        <time>2020-10-05T11:53:54.054Z</time>
      </trkpt>
      <trkpt lat="50.544219" lon="5.337754">
        <ele>90.767850</ele>
        <time>2020-10-05T11:53:54.671Z</time>
      </trkpt>
      <trkpt lat="50.544100" lon="5.337519">
        <ele>89.370685</ele>
        <time>2020-10-05T11:53:56.443Z</time>
      </trkpt>
      <trkpt lat="50.543475" lon="5.336560">
        <ele>82.983515</ele>
        <time>2020-10-05T11:54:04.164Z</time>
      </trkpt>
      <trkpt lat="50.543398" lon="5.336442">
        <ele>82.197095</ele>
        <time>2020-10-05T11:54:05.146Z</time>
      </trkpt>
      <trkpt lat="50.543337" lon="5.335939">
        <ele>79.816048</ele>
        <time>2020-10-05T11:54:08.184Z</time>
      </trkpt>
      <trkpt lat="50.543252" lon="5.335576">
        <ele>78.017239</ele>
        <time>2020-10-05T11:54:10.617Z</time>
      </trkpt>
      <trkpt lat="50.543336" lon="5.335467">
        <ele>77.462479</ele>
        <time>2020-10-05T11:54:11.613Z</time>
      </trkpt>
      <trkpt lat="50.543477" lon="5.335241">
        <ele>76.573929</ele>
        <time>2020-10-05T11:54:13.574Z</time>
      </trkpt>
      <trkpt lat="50.543501" lon="5.335135">
        <ele>76.258227</ele>
        <time>2020-10-05T11:54:14.212Z</time>
      </trkpt>
      <trkpt lat="50.543503" lon="5.335018">
        <ele>75.929857</ele>
        <time>2020-10-05T11:54:14.891Z</time>
      </trkpt>
      <trkpt lat="50.543435" lon="5.334811">
        <ele>75.276101</ele>
        <time>2020-10-05T11:54:16.311Z</time>
      </trkpt>
      <trkpt lat="50.543139" lon="5.334386">
        <ele>73.507084</ele>
        <time>2020-10-05T11:54:20.077Z</time>
      </trkpt>
      <trkpt lat="50.543081" lon="5.334275">
        <ele>73.103910</ele>
        <time>2020-10-05T11:54:20.910Z</time>
      </trkpt>
      <trkpt lat="50.543043" lon="5.334096">
        <ele>72.574429</ele>
        <time>2020-10-05T11:54:22.061Z</time>
      </trkpt>
      <trkpt lat="50.543032" lon="5.333909">
        <ele>72.047540</ele>
        <time>2020-10-05T11:54:23.228Z</time>
      </trkpt>
      <trkpt lat="50.543100" lon="5.333609">
        <ele>71.153927</ele>
        <time>2020-10-05T11:54:25.141Z</time>
      </trkpt>
      <trkpt lat="50.543175" lon="5.333459">
        <ele>70.618447</ele>
        <time>2020-10-05T11:54:26.378Z</time>
      </trkpt>
      <trkpt lat="50.543207" lon="5.333411">
        <ele>70.423271</ele>
        <time>2020-10-05T11:54:26.832Z</time>
      </trkpt>
      <trkpt lat="50.543296" lon="5.333280">
        <ele>69.888686</ele>
        <time>2020-10-05T11:54:28.039Z</time>
      </trkpt>
      <trkpt lat="50.544285" lon="5.331839">
        <ele>68.437887</ele>
        <time>2020-10-05T11:54:44.489Z</time>
      </trkpt>
      <trkpt lat="50.544733" lon="5.331187">
        <ele>67.983274</ele>
        <time>2020-10-05T11:54:53.788Z</time>
      </trkpt>
      <trkpt lat="50.545326" lon="5.330314">
        <ele>68.132594</ele>
        <time>2020-10-05T11:55:06.955Z</time>
      </trkpt>
      <trkpt lat="50.545381" lon="5.330348">
        <ele>68.143460</ele>
        <time>2020-10-05T11:55:07.982Z</time>
      </trkpt>
      <trkpt lat="50.545440" lon="5.330342">
        <ele>68.154331</ele>
        <time>2020-10-05T11:55:09.081Z</time>
      </trkpt>
      <trkpt lat="50.545491" lon="5.330297">
        <ele>68.165083</ele>
        <time>2020-10-05T11:55:10.175Z</time>
      </trkpt>
      <trkpt lat="50.545532" lon="5.330193">
        <ele>68.179384</ele>
        <time>2020-10-05T11:55:11.590Z</time>
      </trkpt>
      <trkpt lat="50.545530" lon="5.330072">
        <ele>68.193528</ele>
        <time>2020-10-05T11:55:12.833Z</time>
      </trkpt>
      <trkpt lat="50.545570" lon="5.329790">
        <ele>68.227291</ele>
        <time>2020-10-05T11:55:15.766Z</time>
      </trkpt>
      <trkpt lat="50.545635" lon="5.329332">
        <ele>68.282126</ele>
        <time>2020-10-05T11:55:20.058Z</time>
      </trkpt>
      <trkpt lat="50.545778" lon="5.329353">
        <ele>68.237912</ele>
        <time>2020-10-05T11:55:22.803Z</time>
      </trkpt>
      <trkpt lat="50.545848" lon="5.329392">
        <ele>68.211436</ele>
        <time>2020-10-05T11:55:24.215Z</time>
      </trkpt>
      <trkpt lat="50.545911" lon="5.329459">
        <ele>68.184325</ele>
        <time>2020-10-05T11:55:25.668Z</time>
      </trkpt>
      <trkpt lat="50.546449" lon="5.330367">
        <ele>67.903044</ele>
        <time>2020-10-05T11:55:40.693Z</time>
      </trkpt>
      <trkpt lat="50.547073" lon="5.329451">
        <ele>67.570331</ele>
        <time>2020-10-05T11:55:56.452Z</time>
      </trkpt>
      <trkpt lat="50.547490" lon="5.328837">
        <ele>67.236255</ele>
        <time>2020-10-05T11:56:07.034Z</time>
      </trkpt>
      <trkpt lat="50.547579" lon="5.328706">
        <ele>67.164966</ele>
        <time>2020-10-05T11:56:09.249Z</time>
      </trkpt>
      <trkpt lat="50.547626" lon="5.328735">
        <ele>67.135432</ele>
        <time>2020-10-05T11:56:10.106Z</time>
      </trkpt>
      <trkpt lat="50.547707" lon="5.328776">
        <ele>67.085656</ele>
        <time>2020-10-05T11:56:11.720Z</time>
      </trkpt>
      <trkpt lat="50.548295" lon="5.329234">
        <ele>66.701846</ele>
        <time>2020-10-05T11:56:23.491Z</time>
      </trkpt>
      <trkpt lat="50.549076" lon="5.329843">
        <ele>66.491490</ele>
        <time>2020-10-05T11:56:39.869Z</time>
      </trkpt>
      <trkpt lat="50.549146" lon="5.329885">
        <ele>66.480562</ele>
        <time>2020-10-05T11:56:41.399Z</time>
      </trkpt>
      <trkpt lat="50.549186" lon="5.329858">
        <ele>66.474213</ele>
        <time>2020-10-05T11:56:42.221Z</time>
      </trkpt>
      <trkpt lat="50.549479" lon="5.329105">
        <ele>66.392373</ele>
        <time>2020-10-05T11:56:53.664Z</time>
      </trkpt>
      <trkpt lat="50.549766" lon="5.328306">
        <ele>66.365184</ele>
        <time>2020-10-05T11:57:05.781Z</time>
      </trkpt>
      <trkpt lat="50.550430" lon="5.329020">
        <ele>66.566352</ele>
        <time>2020-10-05T11:57:22.665Z</time>
      </trkpt>
      <trkpt lat="50.550959" lon="5.329463">
        <ele>66.716249</ele>
        <time>2020-10-05T11:57:35.647Z</time>
      </trkpt>
      <trkpt lat="50.551796" lon="5.330184">
        <ele>67.189865</ele>
        <time>2020-10-05T11:57:56.176Z</time>
      </trkpt>
      <trkpt lat="50.551947" lon="5.330344">
        <ele>67.296052</ele>
        <time>2020-10-05T11:58:00.134Z</time>
      </trkpt>
      <trkpt lat="50.552552" lon="5.330986">
        <ele>67.721694</ele>
        <time>2020-10-05T11:58:16.579Z</time>
      </trkpt>
      <trkpt lat="50.552614" lon="5.331049">
        <ele>67.764744</ele>
        <time>2020-10-05T11:58:18.516Z</time>
      </trkpt>
      <trkpt lat="50.552846" lon="5.331281">
        <ele>68.004072</ele>
        <time>2020-10-05T11:58:25.456Z</time>
      </trkpt>
      <trkpt lat="50.553314" lon="5.330390">
        <ele>68.780307</ele>
        <time>2020-10-05T11:58:44.122Z</time>
      </trkpt>
      <trkpt lat="50.553488" lon="5.330083">
        <ele>69.056542</ele>
        <time>2020-10-05T11:58:50.494Z</time>
      </trkpt>
      <trkpt lat="50.553845" lon="5.329481">
        <ele>69.609469</ele>
        <time>2020-10-05T11:59:03.307Z</time>
      </trkpt>
      <trkpt lat="50.554514" lon="5.330679">
        <ele>69.745639</ele>
        <time>2020-10-05T11:59:21.145Z</time>
      </trkpt>
      <trkpt lat="50.554963" lon="5.331496">
        <ele>69.758630</ele>
        <time>2020-10-05T11:59:30.459Z</time>
      </trkpt>
      <trkpt lat="50.555203" lon="5.331934">
        <ele>69.627809</ele>
        <time>2020-10-05T11:59:34.861Z</time>
      </trkpt>
      <trkpt lat="50.555402" lon="5.332211">
        <ele>69.397913</ele>
        <time>2020-10-05T11:59:38.031Z</time>
      </trkpt>
      <trkpt lat="50.555706" lon="5.332547">
        <ele>69.076451</ele>
        <time>2020-10-05T11:59:42.382Z</time>
      </trkpt>
      <trkpt lat="50.556112" lon="5.333038">
        <ele>68.633369</ele>
        <time>2020-10-05T11:59:48.192Z</time>
      </trkpt>
      <trkpt lat="50.556283" lon="5.333325">
        <ele>68.417042</ele>
        <time>2020-10-05T11:59:51.061Z</time>
      </trkpt>
      <trkpt lat="50.557130" lon="5.335080">
        <ele>71.626046</ele>
        <time>2020-10-05T12:00:17.124Z</time>
      </trkpt>
      <trkpt lat="50.557572" lon="5.335987">
        <ele>74.451854</ele>
        <time>2020-10-05T12:00:43.989Z</time>
      </trkpt>
      <trkpt lat="50.557684" lon="5.335833">
        <ele>76.091781</ele>
        <time>2020-10-05T12:00:51.201Z</time>
      </trkpt>
      <trkpt lat="50.557779" lon="5.335687">
        <ele>77.555900</ele>
        <time>2020-10-05T12:00:58.712Z</time>
      </trkpt>
      <trkpt lat="50.558081" lon="5.335283">
        <ele>81.926388</ele>
        <time>2020-10-05T12:01:23.631Z</time>
      </trkpt>
      <trkpt lat="50.558458" lon="5.334591">
        <ele>88.312718</ele>
        <time>2020-10-05T12:02:00.725Z</time>
      </trkpt>
      <trkpt lat="50.558706" lon="5.334097">
        <ele>92.723593</ele>
        <time>2020-10-05T12:02:26.596Z</time>
      </trkpt>
      <trkpt lat="50.558810" lon="5.333765">
        <ele>95.404371</ele>
        <time>2020-10-05T12:02:43.401Z</time>
      </trkpt>
      <trkpt lat="50.558854" lon="5.332760">
        <ele>102.777318</ele>
        <time>2020-10-05T12:03:24.621Z</time>
      </trkpt>
      <trkpt lat="50.558931" lon="5.332621">
        <ele>104.127090</ele>
        <time>2020-10-05T12:03:31.662Z</time>
      </trkpt>
      <trkpt lat="50.559116" lon="5.332536">
        <ele>106.347347</ele>
        <time>2020-10-05T12:03:43.505Z</time>
      </trkpt>
      <trkpt lat="50.559849" lon="5.332539">
        <ele>114.686830</ele>
        <time>2020-10-05T12:04:25.274Z</time>
      </trkpt>
      <trkpt lat="50.560872" lon="5.333345">
        <ele>125.916575</ele>
        <time>2020-10-05T12:05:25.241Z</time>
      </trkpt>
      <trkpt lat="50.561046" lon="5.333581">
        <ele>128.171180</ele>
        <time>2020-10-05T12:05:38.043Z</time>
      </trkpt>
      <trkpt lat="50.561076" lon="5.333705">
        <ele>128.998611</ele>
        <time>2020-10-05T12:05:43.959Z</time>
      </trkpt>
      <trkpt lat="50.561363" lon="5.334286">
        <ele>133.474961</ele>
        <time>2020-10-05T12:06:08.489Z</time>
      </trkpt>
      <trkpt lat="50.561699" lon="5.334691">
        <ele>137.375155</ele>
        <time>2020-10-05T12:06:31.541Z</time>
      </trkpt>
      <trkpt lat="50.562026" lon="5.335028">
        <ele>140.977262</ele>
        <time>2020-10-05T12:06:53.114Z</time>
      </trkpt>
      <trkpt lat="50.562121" lon="5.335154">
        <ele>142.122137</ele>
        <time>2020-10-05T12:07:01.996Z</time>
      </trkpt>
      <trkpt lat="50.562387" lon="5.335738">
        <ele>146.329253</ele>
        <time>2020-10-05T12:07:22.721Z</time>
      </trkpt>
      <trkpt lat="50.562952" lon="5.337283">
        <ele>154.043799</ele>
        <time>2020-10-05T12:08:11.678Z</time>
      </trkpt>
      <trkpt lat="50.563045" lon="5.337484">
        <ele>155.030705</ele>
        <time>2020-10-05T12:08:17.945Z</time>
      </trkpt>
      <trkpt lat="50.563097" lon="5.337582">
        <ele>155.537485</ele>
        <time>2020-10-05T12:08:20.437Z</time>
      </trkpt>
      <trkpt lat="50.563950" lon="5.338516">
        <ele>161.592202</ele>
        <time>2020-10-05T12:08:57.312Z</time>
      </trkpt>
      <trkpt lat="50.564509" lon="5.339093">
        <ele>165.031898</ele>
        <time>2020-10-05T12:09:20.093Z</time>
      </trkpt>
      <trkpt lat="50.564704" lon="5.339290">
        <ele>166.224177</ele>
        <time>2020-10-05T12:09:28.329Z</time>
      </trkpt>
      <trkpt lat="50.566874" lon="5.341676">
        <ele>179.720162</ele>
        <time>2020-10-05T12:11:06.491Z</time>
      </trkpt>
      <trkpt lat="50.567027" lon="5.341762">
        <ele>180.237722</ele>
        <time>2020-10-05T12:11:11.275Z</time>
      </trkpt>
      <trkpt lat="50.567293" lon="5.341783">
        <ele>181.086206</ele>
        <time>2020-10-05T12:11:19.066Z</time>
      </trkpt>
      <trkpt lat="50.567963" lon="5.341547">
        <ele>183.273452</ele>
        <time>2020-10-05T12:11:36.699Z</time>
      </trkpt>
      <trkpt lat="50.568033" lon="5.341529">
        <ele>183.499412</ele>
        <time>2020-10-05T12:11:38.131Z</time>
      </trkpt>
      <trkpt lat="50.568090" lon="5.341515">
        <ele>183.683198</ele>
        <time>2020-10-05T12:11:39.446Z</time>
      </trkpt>
      <trkpt lat="50.571360" lon="5.343017">
        <ele>187.353601</ele>
        <time>2020-10-05T12:12:40.471Z</time>
      </trkpt>
      <trkpt lat="50.572685" lon="5.343916">
        <ele>189.991517</ele>
        <time>2020-10-05T12:13:12.043Z</time>
      </trkpt>
      <trkpt lat="50.572894" lon="5.344077">
        <ele>190.489262</ele>
        <time>2020-10-05T12:13:17.819Z</time>
      </trkpt>
      <trkpt lat="50.573038" lon="5.344233">
        <ele>190.863185</ele>
        <time>2020-10-05T12:13:22.621Z</time>
      </trkpt>
      <trkpt lat="50.573695" lon="5.345115">
        <ele>192.799172</ele>
        <time>2020-10-05T12:13:44.735Z</time>
      </trkpt>
      <trkpt lat="50.573920" lon="5.345468">
        <ele>193.533473</ele>
        <time>2020-10-05T12:13:53.069Z</time>
      </trkpt>
      <trkpt lat="50.574081" lon="5.345732">
        <ele>194.070860</ele>
        <time>2020-10-05T12:13:59.239Z</time>
      </trkpt>
      <trkpt lat="50.576003" lon="5.349212">
        <ele>199.026657</ele>
        <time>2020-10-05T12:15:01.855Z</time>
      </trkpt>
      <trkpt lat="50.577135" lon="5.351250">
        <ele>200.512741</ele>
        <time>2020-10-05T12:15:33.224Z</time>
      </trkpt>
      <trkpt lat="50.577638" lon="5.352076">
        <ele>200.559518</ele>
        <time>2020-10-05T12:15:45.652Z</time>
      </trkpt>
      <trkpt lat="50.577823" lon="5.352292">
        <ele>200.574342</ele>
        <time>2020-10-05T12:15:49.078Z</time>
      </trkpt>
      <trkpt lat="50.578530" lon="5.352555">
        <ele>200.066217</ele>
        <time>2020-10-05T12:15:58.108Z</time>
      </trkpt>
      <trkpt lat="50.579054" lon="5.352891">
        <ele>198.555670</ele>
        <time>2020-10-05T12:16:04.525Z</time>
      </trkpt>
      <trkpt lat="50.579143" lon="5.352974">
        <ele>198.279510</ele>
        <time>2020-10-05T12:16:05.784Z</time>
      </trkpt>
      <trkpt lat="50.579194" lon="5.352867">
        <ele>198.052686</ele>
        <time>2020-10-05T12:16:06.951Z</time>
      </trkpt>
      <trkpt lat="50.579646" lon="5.351404">
        <ele>195.258588</ele>
        <time>2020-10-05T12:16:21.560Z</time>
      </trkpt>
      <trkpt lat="50.579780" lon="5.350700">
        <ele>193.925502</ele>
        <time>2020-10-05T12:16:28.145Z</time>
      </trkpt>
      <trkpt lat="50.579844" lon="5.350481">
        <ele>193.488221</ele>
        <time>2020-10-05T12:16:30.244Z</time>
      </trkpt>
      <trkpt lat="50.579854" lon="5.350395">
        <ele>193.329636</ele>
        <time>2020-10-05T12:16:30.755Z</time>
      </trkpt>
      <trkpt lat="50.579708" lon="5.350018">
        <ele>192.528677</ele>
        <time>2020-10-05T12:16:33.784Z</time>
      </trkpt>
      <trkpt lat="50.579722" lon="5.349933">
        <ele>192.369397</ele>
        <time>2020-10-05T12:16:34.304Z</time>
      </trkpt>
      <trkpt lat="50.580212" lon="5.349376">
        <ele>190.675603</ele>
        <time>2020-10-05T12:16:41.441Z</time>
      </trkpt>
      <trkpt lat="50.580256" lon="5.349419">
        <ele>190.719682</ele>
        <time>2020-10-05T12:16:41.984Z</time>
      </trkpt>
      <trkpt lat="50.580318" lon="5.349493">
        <ele>190.785902</ele>
        <time>2020-10-05T12:16:42.734Z</time>
      </trkpt>
      <trkpt lat="50.580361" lon="5.349462">
        <ele>190.826157</ele>
        <time>2020-10-05T12:16:44.455Z</time>
      </trkpt>
      <trkpt lat="50.580948" lon="5.349003">
        <ele>191.384019</ele>
        <time>2020-10-05T12:16:57.143Z</time>
      </trkpt>
      <trkpt lat="50.581064" lon="5.348922">
        <ele>191.492030</ele>
        <time>2020-10-05T12:17:01.333Z</time>
      </trkpt>
      <trkpt lat="50.581036" lon="5.348334">
        <ele>191.810740</ele>
        <time>2020-10-05T12:17:11.493Z</time>
      </trkpt>
      <trkpt lat="50.580963" lon="5.347184">
        <ele>192.877106</ele>
        <time>2020-10-05T12:17:33.341Z</time>
      </trkpt>
      <trkpt lat="50.583198" lon="5.346888">
        <ele>197.700922</ele>
        <time>2020-10-05T12:18:28.938Z</time>
      </trkpt>
      <trkpt lat="50.583407" lon="5.346862">
        <ele>198.022817</ele>
        <time>2020-10-05T12:18:33.576Z</time>
      </trkpt>
      <trkpt lat="50.583648" lon="5.346671">
        <ele>198.437055</ele>
        <time>2020-10-05T12:18:39.367Z</time>
      </trkpt>
      <trkpt lat="50.585893" lon="5.343733">
        <ele>199.573451</ele>
        <time>2020-10-05T12:19:26.237Z</time>
      </trkpt>
      <trkpt lat="50.588732" lon="5.339862">
        <ele>197.146804</ele>
        <time>2020-10-05T12:20:12.188Z</time>
      </trkpt>
      <trkpt lat="50.590383" lon="5.340469">
        <ele>197.686429</ele>
        <time>2020-10-05T12:20:52.761Z</time>
      </trkpt>
      <trkpt lat="50.590494" lon="5.340486">
        <ele>197.748757</ele>
        <time>2020-10-05T12:20:55.860Z</time>
      </trkpt>
      <trkpt lat="50.591452" lon="5.340881">
        <ele>198.302193</ele>
        <time>2020-10-05T12:21:12.514Z</time>
      </trkpt>
      <trkpt lat="50.592009" lon="5.341233">
        <ele>197.820211</ele>
        <time>2020-10-05T12:21:20.666Z</time>
      </trkpt>
      <trkpt lat="50.592602" lon="5.341261">
        <ele>197.142780</ele>
        <time>2020-10-05T12:21:27.671Z</time>
      </trkpt>
      <trkpt lat="50.593502" lon="5.341976">
        <ele>195.894527</ele>
        <time>2020-10-05T12:21:38.988Z</time>
      </trkpt>
      <trkpt lat="50.593604" lon="5.341997">
        <ele>195.741735</ele>
        <time>2020-10-05T12:21:40.119Z</time>
      </trkpt>
      <trkpt lat="50.593934" lon="5.341934">
        <ele>195.247989</ele>
        <time>2020-10-05T12:21:43.900Z</time>
      </trkpt>
      <trkpt lat="50.593995" lon="5.341946">
        <ele>195.156679</ele>
        <time>2020-10-05T12:21:44.561Z</time>
      </trkpt>
      <trkpt lat="50.594141" lon="5.342027">
        <ele>194.926765</ele>
        <time>2020-10-05T12:21:46.345Z</time>
      </trkpt>
      <trkpt lat="50.594882" lon="5.342669">
        <ele>193.670650</ele>
        <time>2020-10-05T12:21:56.263Z</time>
      </trkpt>
      <trkpt lat="50.596276" lon="5.343448">
        <ele>192.101762</ele>
        <time>2020-10-05T12:22:14.358Z</time>
      </trkpt>
      <trkpt lat="50.597879" lon="5.344457">
        <ele>190.131749</ele>
        <time>2020-10-05T12:22:35.310Z</time>
      </trkpt>
      <trkpt lat="50.598293" lon="5.344682">
        <ele>189.609924</ele>
        <time>2020-10-05T12:22:40.440Z</time>
      </trkpt>
      <trkpt lat="50.600020" lon="5.345522">
        <ele>186.665056</ele>
        <time>2020-10-05T12:23:00.890Z</time>
      </trkpt>
      <trkpt lat="50.602377" lon="5.346792">
        <ele>182.583605</ele>
        <time>2020-10-05T12:23:28.760Z</time>
      </trkpt>
      <trkpt lat="50.602626" lon="5.346932">
        <ele>182.244278</ele>
        <time>2020-10-05T12:23:31.876Z</time>
      </trkpt>
      <trkpt lat="50.602736" lon="5.346995">
        <ele>182.094057</ele>
        <time>2020-10-05T12:23:33.355Z</time>
      </trkpt>
      <trkpt lat="50.603445" lon="5.347395">
        <ele>181.175709</ele>
        <time>2020-10-05T12:23:42.792Z</time>
      </trkpt>
      <trkpt lat="50.603500" lon="5.347426">
        <ele>181.144194</ele>
        <time>2020-10-05T12:23:43.559Z</time>
      </trkpt>
      <trkpt lat="50.603491" lon="5.347496">
        <ele>181.119738</ele>
        <time>2020-10-05T12:23:44.128Z</time>
      </trkpt>
      <trkpt lat="50.603520" lon="5.347637">
        <ele>181.068984</ele>
        <time>2020-10-05T12:23:45.327Z</time>
      </trkpt>
      <trkpt lat="50.603558" lon="5.347688">
        <ele>181.042053</ele>
        <time>2020-10-05T12:23:45.990Z</time>
      </trkpt>
      <trkpt lat="50.603590" lon="5.347709">
        <ele>181.023351</ele>
        <time>2020-10-05T12:23:46.483Z</time>
      </trkpt>
      <trkpt lat="50.603680" lon="5.347700">
        <ele>180.974697</ele>
        <time>2020-10-05T12:23:47.666Z</time>
      </trkpt>
      <trkpt lat="50.603715" lon="5.347666">
        <ele>180.952513</ele>
        <time>2020-10-05T12:23:48.235Z</time>
      </trkpt>
      <trkpt lat="50.603801" lon="5.347674">
        <ele>180.906034</ele>
        <time>2020-10-05T12:23:49.345Z</time>
      </trkpt>
      <trkpt lat="50.604087" lon="5.347825">
        <ele>180.743300</ele>
        <time>2020-10-05T12:23:53.498Z</time>
      </trkpt>
      <trkpt lat="50.604371" lon="5.347968">
        <ele>180.582443</ele>
        <time>2020-10-05T12:23:57.521Z</time>
      </trkpt>
      <trkpt lat="50.604651" lon="5.348110">
        <ele>180.423746</ele>
        <time>2020-10-05T12:24:01.393Z</time>
      </trkpt>
      <trkpt lat="50.604948" lon="5.348260">
        <ele>180.255480</ele>
        <time>2020-10-05T12:24:05.500Z</time>
      </trkpt>
      <trkpt lat="50.604972" lon="5.348273">
        <ele>180.241787</ele>
        <time>2020-10-05T12:24:05.811Z</time>
      </trkpt>
      <trkpt lat="50.605283" lon="5.348432">
        <ele>179.977580</ele>
        <time>2020-10-05T12:24:10.043Z</time>
      </trkpt>
      <trkpt lat="50.605471" lon="5.348523">
        <ele>179.818201</ele>
        <time>2020-10-05T12:24:12.490Z</time>
      </trkpt>
      <trkpt lat="50.605812" lon="5.348676">
        <ele>179.530876</ele>
        <time>2020-10-05T12:24:17.008Z</time>
      </trkpt>
      <trkpt lat="50.605838" lon="5.348733">
        <ele>179.494774</ele>
        <time>2020-10-05T12:24:17.569Z</time>
      </trkpt>
      <trkpt lat="50.605961" lon="5.348797">
        <ele>179.389803</ele>
        <time>2020-10-05T12:24:19.284Z</time>
      </trkpt>
      <trkpt lat="50.606003" lon="5.348775">
        <ele>179.353935</ele>
        <time>2020-10-05T12:24:19.822Z</time>
      </trkpt>
      <trkpt lat="50.606109" lon="5.348824">
        <ele>179.264414</ele>
        <time>2020-10-05T12:24:21.204Z</time>
      </trkpt>
      <trkpt lat="50.606387" lon="5.348983">
        <ele>179.024746</ele>
        <time>2020-10-05T12:24:24.931Z</time>
      </trkpt>
      <trkpt lat="50.606608" lon="5.349098">
        <ele>178.836138</ele>
        <time>2020-10-05T12:24:27.804Z</time>
      </trkpt>
      <trkpt lat="50.607536" lon="5.349587">
        <ele>177.976771</ele>
        <time>2020-10-05T12:24:39.623Z</time>
      </trkpt>
      <trkpt lat="50.607652" lon="5.349646">
        <ele>177.869122</ele>
        <time>2020-10-05T12:24:41.142Z</time>
      </trkpt>
      <trkpt lat="50.607925" lon="5.349835">
        <ele>177.605782</ele>
        <time>2020-10-05T12:24:44.943Z</time>
      </trkpt>
      <trkpt lat="50.607967" lon="5.349949">
        <ele>177.531903</ele>
        <time>2020-10-05T12:24:45.978Z</time>
      </trkpt>
      <trkpt lat="50.607974" lon="5.350035">
        <ele>177.483309</ele>
        <time>2020-10-05T12:24:46.624Z</time>
      </trkpt>
      <trkpt lat="50.608047" lon="5.350160">
        <ele>177.388102</ele>
        <time>2020-10-05T12:24:48.213Z</time>
      </trkpt>
      <trkpt lat="50.608101" lon="5.350180">
        <ele>177.339113</ele>
        <time>2020-10-05T12:24:48.887Z</time>
      </trkpt>
      <trkpt lat="50.608150" lon="5.350168">
        <ele>177.295319</ele>
        <time>2020-10-05T12:24:49.568Z</time>
      </trkpt>
      <trkpt lat="50.608194" lon="5.350129">
        <ele>177.250736</ele>
        <time>2020-10-05T12:24:50.191Z</time>
      </trkpt>
      <trkpt lat="50.608226" lon="5.350068">
        <ele>177.206379</ele>
        <time>2020-10-05T12:24:50.823Z</time>
      </trkpt>
      <trkpt lat="50.608287" lon="5.350039">
        <ele>177.159728</ele>
        <time>2020-10-05T12:24:51.592Z</time>
      </trkpt>
      <trkpt lat="50.608522" lon="5.350085">
        <ele>176.996175</ele>
        <time>2020-10-05T12:24:54.717Z</time>
      </trkpt>
      <trkpt lat="50.608840" lon="5.350247">
        <ele>176.765352</ele>
        <time>2020-10-05T12:24:58.973Z</time>
      </trkpt>
      <trkpt lat="50.609226" lon="5.350438">
        <ele>176.485922</ele>
        <time>2020-10-05T12:25:04.110Z</time>
      </trkpt>
      <trkpt lat="50.609308" lon="5.350474">
        <ele>176.427130</ele>
        <time>2020-10-05T12:25:05.102Z</time>
      </trkpt>
      <trkpt lat="50.609384" lon="5.350496">
        <ele>176.373762</ele>
        <time>2020-10-05T12:25:06.183Z</time>
      </trkpt>
      <trkpt lat="50.609562" lon="5.350586">
        <ele>176.244650</ele>
        <time>2020-10-05T12:25:08.625Z</time>
      </trkpt>
      <trkpt lat="50.609951" lon="5.350783">
        <ele>175.962449</ele>
        <time>2020-10-05T12:25:14.084Z</time>
      </trkpt>
      <trkpt lat="50.612718" lon="5.352277">
        <ele>173.766549</ele>
        <time>2020-10-05T12:25:51.299Z</time>
      </trkpt>
      <trkpt lat="50.615185" lon="5.353714">
        <ele>171.557128</ele>
        <time>2020-10-05T12:26:23.383Z</time>
      </trkpt>
      <trkpt lat="50.616935" lon="5.354921">
        <ele>172.051875</ele>
        <time>2020-10-05T12:26:53.277Z</time>
      </trkpt>
      <trkpt lat="50.618271" lon="5.355636">
        <ele>173.938470</ele>
        <time>2020-10-05T12:27:23.542Z</time>
      </trkpt>
      <trkpt lat="50.618654" lon="5.355846">
        <ele>174.340127</ele>
        <time>2020-10-05T12:27:32.525Z</time>
      </trkpt>
      <trkpt lat="50.618840" lon="5.355932">
        <ele>174.499635</ele>
        <time>2020-10-05T12:27:36.545Z</time>
      </trkpt>
      <trkpt lat="50.619052" lon="5.356019">
        <ele>174.679903</ele>
        <time>2020-10-05T12:27:41.015Z</time>
      </trkpt>
      <trkpt lat="50.619186" lon="5.356061">
        <ele>174.792329</ele>
        <time>2020-10-05T12:27:43.626Z</time>
      </trkpt>
      <trkpt lat="50.619449" lon="5.356116">
        <ele>175.010645</ele>
        <time>2020-10-05T12:27:48.645Z</time>
      </trkpt>
      <trkpt lat="50.619728" lon="5.356175">
        <ele>175.242288</ele>
        <time>2020-10-05T12:27:53.627Z</time>
      </trkpt>
      <trkpt lat="50.620027" lon="5.356288">
        <ele>175.495306</ele>
        <time>2020-10-05T12:27:58.686Z</time>
      </trkpt>
      <trkpt lat="50.623318" lon="5.358079">
        <ele>172.875342</ele>
        <time>2020-10-05T12:28:41.356Z</time>
      </trkpt>
      <trkpt lat="50.623692" lon="5.358266">
        <ele>172.800666</ele>
        <time>2020-10-05T12:28:46.807Z</time>
      </trkpt>
      <trkpt lat="50.628171" lon="5.360652">
        <ele>176.006689</ele>
        <time>2020-10-05T12:30:11.990Z</time>
      </trkpt>
      <trkpt lat="50.632931" lon="5.363375">
        <ele>177.190574</ele>
        <time>2020-10-05T12:31:33.549Z</time>
      </trkpt>
      <trkpt lat="50.636646" lon="5.365402">
        <ele>173.901143</ele>
        <time>2020-10-05T12:32:21.369Z</time>
      </trkpt>
      <trkpt lat="50.643887" lon="5.369370">
        <ele>169.499087</ele>
        <time>2020-10-05T12:34:02.380Z</time>
      </trkpt>
      <trkpt lat="50.647345" lon="5.371273">
        <ele>166.166732</ele>
        <time>2020-10-05T12:34:47.418Z</time>
      </trkpt>
      <trkpt lat="50.648020" lon="5.371665">
        <ele>165.756257</ele>
        <time>2020-10-05T12:34:56.764Z</time>
      </trkpt>
      <trkpt lat="50.649077" lon="5.372301">
        <ele>165.127366</ele>
        <time>2020-10-05T12:35:11.977Z</time>
      </trkpt>
      <trkpt lat="50.650789" lon="5.373208">
        <ele>164.476689</ele>
        <time>2020-10-05T12:35:36.557Z</time>
      </trkpt>
      <trkpt lat="50.651753" lon="5.373739">
        <ele>163.988723</ele>
        <time>2020-10-05T12:35:50.539Z</time>
      </trkpt>
      <trkpt lat="50.653107" lon="5.374500">
        <ele>162.810778</ele>
        <time>2020-10-05T12:36:09.178Z</time>
      </trkpt>
      <trkpt lat="50.654686" lon="5.375387">
        <ele>160.572369</ele>
        <time>2020-10-05T12:36:28.442Z</time>
      </trkpt>
      <trkpt lat="50.654896" lon="5.375495">
        <ele>160.203279</ele>
        <time>2020-10-05T12:36:30.845Z</time>
      </trkpt>
      <trkpt lat="50.656465" lon="5.376391">
        <ele>157.891492</ele>
        <time>2020-10-05T12:36:49.728Z</time>
      </trkpt>
      <trkpt lat="50.657631" lon="5.377050">
        <ele>156.769581</ele>
        <time>2020-10-05T12:37:05.787Z</time>
      </trkpt>
      <trkpt lat="50.657623" lon="5.377130">
        <ele>156.758357</ele>
        <time>2020-10-05T12:37:06.670Z</time>
      </trkpt>
      <trkpt lat="50.657648" lon="5.377284">
        <ele>156.736328</ele>
        <time>2020-10-05T12:37:08.082Z</time>
      </trkpt>
      <trkpt lat="50.657723" lon="5.377392">
        <ele>156.714130</ele>
        <time>2020-10-05T12:37:09.447Z</time>
      </trkpt>
      <trkpt lat="50.657771" lon="5.377417">
        <ele>156.703080</ele>
        <time>2020-10-05T12:37:10.359Z</time>
      </trkpt>
      <trkpt lat="50.657822" lon="5.377420">
        <ele>156.691924</ele>
        <time>2020-10-05T12:37:11.013Z</time>
      </trkpt>
      <trkpt lat="50.657950" lon="5.377299">
        <ele>156.659304</ele>
        <time>2020-10-05T12:37:13.378Z</time>
      </trkpt>
      <trkpt lat="50.657972" lon="5.377227">
        <ele>156.648228</ele>
        <time>2020-10-05T12:37:14.019Z</time>
      </trkpt>
      <trkpt lat="50.658553" lon="5.377602">
        <ele>156.511006</ele>
        <time>2020-10-05T12:37:23.514Z</time>
      </trkpt>
      <trkpt lat="50.662129" lon="5.379618">
        <ele>154.968587</ele>
        <time>2020-10-05T12:38:15.107Z</time>
      </trkpt>
      <trkpt lat="50.662374" lon="5.379768">
        <ele>154.832043</ele>
        <time>2020-10-05T12:38:18.330Z</time>
      </trkpt>
      <trkpt lat="50.663092" lon="5.380168">
        <ele>153.951663</ele>
        <time>2020-10-05T12:38:27.476Z</time>
      </trkpt>
      <trkpt lat="50.665270" lon="5.381378">
        <ele>151.220567</ele>
        <time>2020-10-05T12:38:54.718Z</time>
      </trkpt>
      <trkpt lat="50.666965" lon="5.382354">
        <ele>149.268403</ele>
        <time>2020-10-05T12:39:16.765Z</time>
      </trkpt>
      <trkpt lat="50.667221" lon="5.382498">
        <ele>148.988079</ele>
        <time>2020-10-05T12:39:20.058Z</time>
      </trkpt>
      <trkpt lat="50.667690" lon="5.382760">
        <ele>148.514355</ele>
        <time>2020-10-05T12:39:26.007Z</time>
      </trkpt>
      <trkpt lat="50.669914" lon="5.384073">
        <ele>147.265744</ele>
        <time>2020-10-05T12:39:55.989Z</time>
      </trkpt>
      <trkpt lat="50.670328" lon="5.384322">
        <ele>147.321748</ele>
        <time>2020-10-05T12:40:03.344Z</time>
      </trkpt>
      <trkpt lat="50.672225" lon="5.385393">
        <ele>148.986792</ele>
        <time>2020-10-05T12:40:43.190Z</time>
      </trkpt>
      <trkpt lat="50.673477" lon="5.386167">
        <ele>149.436075</ele>
        <time>2020-10-05T12:41:06.450Z</time>
      </trkpt>
      <trkpt lat="50.676519" lon="5.387884">
        <ele>148.092483</ele>
        <time>2020-10-05T12:41:48.210Z</time>
      </trkpt>
      <trkpt lat="50.676806" lon="5.388090">
        <ele>147.941395</ele>
        <time>2020-10-05T12:41:52.343Z</time>
      </trkpt>
      <trkpt lat="50.680151" lon="5.390090">
        <ele>146.615516</ele>
        <time>2020-10-05T12:42:41.653Z</time>
      </trkpt>
      <trkpt lat="50.681662" lon="5.390947">
        <ele>146.069927</ele>
        <time>2020-10-05T12:43:03.111Z</time>
      </trkpt>
      <trkpt lat="50.683273" lon="5.391883">
        <ele>145.770880</ele>
        <time>2020-10-05T12:43:27.508Z</time>
      </trkpt>
      <trkpt lat="50.684391" lon="5.392524">
        <ele>145.734531</ele>
        <time>2020-10-05T12:43:45.656Z</time>
      </trkpt>
      <trkpt lat="50.685791" lon="5.393325">
        <ele>145.374181</ele>
        <time>2020-10-05T12:44:07.054Z</time>
      </trkpt>
      <trkpt lat="50.689068" lon="5.395124">
        <ele>142.668571</ele>
        <time>2020-10-05T12:44:50.494Z</time>
      </trkpt>
      <trkpt lat="50.691214" lon="5.396297">
        <ele>140.699104</ele>
        <time>2020-10-05T12:45:18.606Z</time>
      </trkpt>
      <trkpt lat="50.691415" lon="5.396417">
        <ele>140.547988</ele>
        <time>2020-10-05T12:45:21.546Z</time>
      </trkpt>
      <trkpt lat="50.691404" lon="5.396488">
        <ele>140.515426</ele>
        <time>2020-10-05T12:45:22.494Z</time>
      </trkpt>
      <trkpt lat="50.691456" lon="5.396685">
        <ele>140.420353</ele>
        <time>2020-10-05T12:45:24.082Z</time>
      </trkpt>
      <trkpt lat="50.691599" lon="5.396727">
        <ele>140.318068</ele>
        <time>2020-10-05T12:45:25.928Z</time>
      </trkpt>
      <trkpt lat="50.691643" lon="5.396688">
        <ele>140.282583</ele>
        <time>2020-10-05T12:45:26.843Z</time>
      </trkpt>
      <trkpt lat="50.691759" lon="5.396701">
        <ele>140.200805</ele>
        <time>2020-10-05T12:45:28.250Z</time>
      </trkpt>
      <trkpt lat="50.692265" lon="5.396988">
        <ele>139.822709</ele>
        <time>2020-10-05T12:45:35.176Z</time>
      </trkpt>
      <trkpt lat="50.692393" lon="5.397108">
        <ele>139.718021</ele>
        <time>2020-10-05T12:45:37.441Z</time>
      </trkpt>
      <trkpt lat="50.692405" lon="5.397166">
        <ele>139.690841</ele>
        <time>2020-10-05T12:45:37.840Z</time>
      </trkpt>
      <trkpt lat="50.692527" lon="5.397298">
        <ele>139.586832</ele>
        <time>2020-10-05T12:45:39.736Z</time>
      </trkpt>
      <trkpt lat="50.692646" lon="5.397225">
        <ele>139.487199</ele>
        <time>2020-10-05T12:45:41.820Z</time>
      </trkpt>
      <trkpt lat="50.692679" lon="5.397136">
        <ele>139.408761</ele>
        <time>2020-10-05T12:45:42.551Z</time>
      </trkpt>
      <trkpt lat="50.693018" lon="5.397352">
        <ele>138.969823</ele>
        <time>2020-10-05T12:45:46.994Z</time>
      </trkpt>
      <trkpt lat="50.693630" lon="5.397724">
        <ele>138.182411</ele>
        <time>2020-10-05T12:45:54.664Z</time>
      </trkpt>
      <trkpt lat="50.694486" lon="5.398409">
        <ele>137.062640</ele>
        <time>2020-10-05T12:46:05.736Z</time>
      </trkpt>
      <trkpt lat="50.695278" lon="5.399049">
        <ele>136.102509</ele>
        <time>2020-10-05T12:46:16.766Z</time>
      </trkpt>
      <trkpt lat="50.696618" lon="5.400097">
        <ele>134.278789</ele>
        <time>2020-10-05T12:46:35.015Z</time>
      </trkpt>
      <trkpt lat="50.696807" lon="5.400225">
        <ele>134.006299</ele>
        <time>2020-10-05T12:46:37.393Z</time>
      </trkpt>
      <trkpt lat="50.697598" lon="5.400713">
        <ele>132.838000</ele>
        <time>2020-10-05T12:46:47.127Z</time>
      </trkpt>
      <trkpt lat="50.698077" lon="5.400983">
        <ele>131.965603</ele>
        <time>2020-10-05T12:46:52.830Z</time>
      </trkpt>
      <trkpt lat="50.699460" lon="5.401800">
        <ele>129.540257</ele>
        <time>2020-10-05T12:47:09.394Z</time>
      </trkpt>
      <trkpt lat="50.700313" lon="5.402212">
        <ele>128.333004</ele>
        <time>2020-10-05T12:47:19.573Z</time>
      </trkpt>
      <trkpt lat="50.701464" lon="5.402923">
        <ele>127.615530</ele>
        <time>2020-10-05T12:47:34.920Z</time>
      </trkpt>
      <trkpt lat="50.704335" lon="5.404632">
        <ele>129.477031</ele>
        <time>2020-10-05T12:48:30.097Z</time>
      </trkpt>
      <trkpt lat="50.704382" lon="5.404661">
        <ele>129.540740</ele>
        <time>2020-10-05T12:48:31.223Z</time>
      </trkpt>
      <trkpt lat="50.705547" lon="5.405355">
        <ele>131.112773</ele>
        <time>2020-10-05T12:48:56.962Z</time>
      </trkpt>
      <trkpt lat="50.705801" lon="5.405565">
        <ele>131.474752</ele>
        <time>2020-10-05T12:49:02.704Z</time>
      </trkpt>
      <trkpt lat="50.705785" lon="5.405641">
        <ele>131.538789</ele>
        <time>2020-10-05T12:49:04.044Z</time>
      </trkpt>
      <trkpt lat="50.705838" lon="5.405854">
        <ele>131.647191</ele>
        <time>2020-10-05T12:49:07.556Z</time>
      </trkpt>
      <trkpt lat="50.705881" lon="5.405893">
        <ele>131.661518</ele>
        <time>2020-10-05T12:49:08.940Z</time>
      </trkpt>
      <trkpt lat="50.705923" lon="5.405907">
        <ele>131.673920</ele>
        <time>2020-10-05T12:49:09.872Z</time>
      </trkpt>
      <trkpt lat="50.706038" lon="5.405836">
        <ele>131.709594</ele>
        <time>2020-10-05T12:49:13.024Z</time>
      </trkpt>
      <trkpt lat="50.706063" lon="5.405781">
        <ele>131.721981</ele>
        <time>2020-10-05T12:49:13.883Z</time>
      </trkpt>
      <trkpt lat="50.706437" lon="5.406076">
        <ele>131.842765</ele>
        <time>2020-10-05T12:49:21.314Z</time>
      </trkpt>
      <trkpt lat="50.707350" lon="5.406677">
        <ele>132.128545</ele>
        <time>2020-10-05T12:49:36.055Z</time>
      </trkpt>
      <trkpt lat="50.711413" lon="5.409228">
        <ele>128.061478</ele>
        <time>2020-10-05T12:50:29.562Z</time>
      </trkpt>
      <trkpt lat="50.711602" lon="5.408610">
        <ele>127.660836</ele>
        <time>2020-10-05T12:50:34.990Z</time>
      </trkpt>
      <trkpt lat="50.712444" lon="5.406756">
        <ele>126.373786</ele>
        <time>2020-10-05T12:50:53.160Z</time>
      </trkpt>
      <trkpt lat="50.712667" lon="5.406181">
        <ele>126.004105</ele>
        <time>2020-10-05T12:50:58.495Z</time>
      </trkpt>
      <trkpt lat="50.713102" lon="5.404594">
        <ele>124.907951</ele>
        <time>2020-10-05T12:51:11.951Z</time>
      </trkpt>
      <trkpt lat="50.713548" lon="5.403478">
        <ele>123.947935</ele>
        <time>2020-10-05T12:51:22.006Z</time>
      </trkpt>
      <trkpt lat="50.713928" lon="5.402765">
        <ele>123.206000</ele>
        <time>2020-10-05T12:51:29.007Z</time>
      </trkpt>
      <trkpt lat="50.714438" lon="5.401995">
        <ele>122.094828</ele>
        <time>2020-10-05T12:51:37.246Z</time>
      </trkpt>
      <trkpt lat="50.715493" lon="5.400499">
        <ele>119.626390</ele>
        <time>2020-10-05T12:51:53.174Z</time>
      </trkpt>
      <trkpt lat="50.716330" lon="5.399315">
        <ele>117.299645</ele>
        <time>2020-10-05T12:52:05.240Z</time>
      </trkpt>
      <trkpt lat="50.716634" lon="5.398749">
        <ele>116.669773</ele>
        <time>2020-10-05T12:52:10.392Z</time>
      </trkpt>
      <trkpt lat="50.716993" lon="5.398388">
        <ele>116.329748</ele>
        <time>2020-10-05T12:52:15.259Z</time>
      </trkpt>
      <trkpt lat="50.717333" lon="5.397845">
        <ele>115.943431</ele>
        <time>2020-10-05T12:52:21.447Z</time>
      </trkpt>
      <trkpt lat="50.717356" lon="5.397799">
        <ele>115.913781</ele>
        <time>2020-10-05T12:52:21.792Z</time>
      </trkpt>
      <trkpt lat="50.717403" lon="5.397800">
        <ele>115.876226</ele>
        <time>2020-10-05T12:52:22.432Z</time>
      </trkpt>
      <trkpt lat="50.717451" lon="5.397774">
        <ele>115.835684</ele>
        <time>2020-10-05T12:52:23.143Z</time>
      </trkpt>
      <trkpt lat="50.717485" lon="5.397730">
        <ele>115.800565</ele>
        <time>2020-10-05T12:52:23.752Z</time>
      </trkpt>
      <trkpt lat="50.717487" lon="5.397675">
        <ele>115.772697</ele>
        <time>2020-10-05T12:52:24.232Z</time>
      </trkpt>
      <trkpt lat="50.717475" lon="5.397637">
        <ele>115.751217</ele>
        <time>2020-10-05T12:52:24.604Z</time>
      </trkpt>
      <trkpt lat="50.717499" lon="5.397593">
        <ele>115.721839</ele>
        <time>2020-10-05T12:52:25.559Z</time>
      </trkpt>
      <trkpt lat="50.718531" lon="5.396319">
        <ele>116.788705</ele>
        <time>2020-10-05T12:52:48.953Z</time>
      </trkpt>
      <trkpt lat="50.718964" lon="5.395692">
        <ele>117.602467</ele>
        <time>2020-10-05T12:53:03.329Z</time>
      </trkpt>
      <trkpt lat="50.719158" lon="5.395493">
        <ele>117.922915</ele>
        <time>2020-10-05T12:53:08.997Z</time>
      </trkpt>
      <trkpt lat="50.719900" lon="5.394860">
        <ele>118.979681</ele>
        <time>2020-10-05T12:53:27.942Z</time>
      </trkpt>
      <trkpt lat="50.720624" lon="5.394225">
        <ele>120.015796</ele>
        <time>2020-10-05T12:53:43.497Z</time>
      </trkpt>
      <trkpt lat="50.720734" lon="5.394098">
        <ele>120.186268</ele>
        <time>2020-10-05T12:53:45.804Z</time>
      </trkpt>
      <trkpt lat="50.721052" lon="5.393465">
        <ele>119.561866</ele>
        <time>2020-10-05T12:53:52.876Z</time>
      </trkpt>
      <trkpt lat="50.721628" lon="5.392071">
        <ele>118.258742</ele>
        <time>2020-10-05T12:54:04.859Z</time>
      </trkpt>
      <trkpt lat="50.722110" lon="5.391468">
        <ele>117.169954</ele>
        <time>2020-10-05T12:54:11.463Z</time>
      </trkpt>
      <trkpt lat="50.722156" lon="5.391380">
        <ele>117.017896</ele>
        <time>2020-10-05T12:54:12.206Z</time>
      </trkpt>
      <trkpt lat="50.722214" lon="5.391271">
        <ele>116.828174</ele>
        <time>2020-10-05T12:54:13.139Z</time>
      </trkpt>
      <trkpt lat="50.722552" lon="5.390383">
        <ele>115.447595</ele>
        <time>2020-10-05T12:54:20.264Z</time>
      </trkpt>
      <trkpt lat="50.722718" lon="5.389972">
        <ele>114.798016</ele>
        <time>2020-10-05T12:54:23.644Z</time>
      </trkpt>
      <trkpt lat="50.723335" lon="5.388671">
        <ele>113.163669</ele>
        <time>2020-10-05T12:54:35.188Z</time>
      </trkpt>
      <trkpt lat="50.723407" lon="5.388514">
        <ele>112.994023</ele>
        <time>2020-10-05T12:54:36.622Z</time>
      </trkpt>
      <trkpt lat="50.723769" lon="5.387745">
        <ele>112.155450</ele>
        <time>2020-10-05T12:54:44.129Z</time>
      </trkpt>
      <trkpt lat="50.724514" lon="5.386423">
        <ele>110.259991</ele>
        <time>2020-10-05T12:54:57.627Z</time>
      </trkpt>
      <trkpt lat="50.725404" lon="5.385719">
        <ele>108.445709</ele>
        <time>2020-10-05T12:55:08.433Z</time>
      </trkpt>
      <trkpt lat="50.725502" lon="5.385604">
        <ele>108.098610</ele>
        <time>2020-10-05T12:55:09.687Z</time>
      </trkpt>
      <trkpt lat="50.726204" lon="5.384514">
        <ele>105.145673</ele>
        <time>2020-10-05T12:55:19.719Z</time>
      </trkpt>
      <trkpt lat="50.726979" lon="5.383261">
        <ele>102.286324</ele>
        <time>2020-10-05T12:55:30.957Z</time>
      </trkpt>
      <trkpt lat="50.728204" lon="5.381788">
        <ele>99.719663</ele>
        <time>2020-10-05T12:55:48.615Z</time>
      </trkpt>
      <trkpt lat="50.728458" lon="5.381548">
        <ele>99.710984</ele>
        <time>2020-10-05T12:55:52.754Z</time>
      </trkpt>
      <trkpt lat="50.729154" lon="5.381136">
        <ele>99.689188</ele>
        <time>2020-10-05T12:56:04.178Z</time>
      </trkpt>
      <trkpt lat="50.729550" lon="5.380827">
        <ele>99.676236</ele>
        <time>2020-10-05T12:56:12.106Z</time>
      </trkpt>
      <trkpt lat="50.729914" lon="5.380441">
        <ele>99.623992</ele>
        <time>2020-10-05T12:56:19.493Z</time>
      </trkpt>
      <trkpt lat="50.730240" lon="5.379814">
        <ele>99.531703</ele>
        <time>2020-10-05T12:56:27.967Z</time>
      </trkpt>
      <trkpt lat="50.730456" lon="5.379202">
        <ele>99.452005</ele>
        <time>2020-10-05T12:56:34.451Z</time>
      </trkpt>
      <trkpt lat="50.730566" lon="5.379102">
        <ele>99.429200</ele>
        <time>2020-10-05T12:56:36.095Z</time>
      </trkpt>
      <trkpt lat="50.731725" lon="5.378909">
        <ele>98.650844</ele>
        <time>2020-10-05T12:56:49.942Z</time>
      </trkpt>
      <trkpt lat="50.731821" lon="5.378989">
        <ele>98.544706</ele>
        <time>2020-10-05T12:56:51.126Z</time>
      </trkpt>
      <trkpt lat="50.732158" lon="5.379442">
        <ele>98.112013</ele>
        <time>2020-10-05T12:56:56.247Z</time>
      </trkpt>
      <trkpt lat="50.732233" lon="5.379565">
        <ele>98.006300</ele>
        <time>2020-10-05T12:56:57.780Z</time>
      </trkpt>
      <trkpt lat="50.732275" lon="5.379533">
        <ele>97.960701</ele>
        <time>2020-10-05T12:56:58.267Z</time>
      </trkpt>
      <trkpt lat="50.732390" lon="5.379464">
        <ele>97.840406</ele>
        <time>2020-10-05T12:56:59.752Z</time>
      </trkpt>
      <trkpt lat="50.733031" lon="5.378850">
        <ele>98.632333</ele>
        <time>2020-10-05T12:57:10.671Z</time>
      </trkpt>
      <trkpt lat="50.733693" lon="5.378321">
        <ele>100.204015</ele>
        <time>2020-10-05T12:57:28.106Z</time>
      </trkpt>
      <trkpt lat="50.734067" lon="5.378135">
        <ele>101.034692</ele>
        <time>2020-10-05T12:57:39.733Z</time>
      </trkpt>
      <trkpt lat="50.734307" lon="5.378097">
        <ele>101.702788</ele>
        <time>2020-10-05T12:57:47.384Z</time>
      </trkpt>
      <trkpt lat="50.734548" lon="5.378123">
        <ele>102.764605</ele>
        <time>2020-10-05T12:57:56.081Z</time>
      </trkpt>
      <trkpt lat="50.735291" lon="5.378387">
        <ele>106.112134</ele>
        <time>2020-10-05T12:58:22.409Z</time>
      </trkpt>
      <trkpt lat="50.736043" lon="5.378541">
        <ele>109.378450</ele>
        <time>2020-10-05T12:58:47.032Z</time>
      </trkpt>
      <trkpt lat="50.736421" lon="5.378359">
        <ele>110.283373</ele>
        <time>2020-10-05T12:58:58.233Z</time>
      </trkpt>
      <trkpt lat="50.738703" lon="5.377889">
        <ele>114.802358</ele>
        <time>2020-10-05T12:59:48.093Z</time>
      </trkpt>
      <trkpt lat="50.739335" lon="5.377662">
        <ele>115.762927</ele>
        <time>2020-10-05T13:00:00.658Z</time>
      </trkpt>
      <trkpt lat="50.739621" lon="5.377574">
        <ele>116.191684</ele>
        <time>2020-10-05T13:00:06.482Z</time>
      </trkpt>
      <trkpt lat="50.739943" lon="5.377511">
        <ele>116.658371</ele>
        <time>2020-10-05T13:00:13.057Z</time>
      </trkpt>
      <trkpt lat="50.740367" lon="5.377533">
        <ele>117.268561</ele>
        <time>2020-10-05T13:00:21.770Z</time>
      </trkpt>
      <trkpt lat="50.741163" lon="5.377892">
        <ele>118.459210</ele>
        <time>2020-10-05T13:00:39.710Z</time>
      </trkpt>
      <trkpt lat="50.742878" lon="5.377887">
        <ele>119.673641</ele>
        <time>2020-10-05T13:01:12.545Z</time>
      </trkpt>
      <trkpt lat="50.742930" lon="5.377887">
        <ele>119.706778</ele>
        <time>2020-10-05T13:01:13.377Z</time>
      </trkpt>
      <trkpt lat="50.742970" lon="5.377887">
        <ele>119.732267</ele>
        <time>2020-10-05T13:01:13.881Z</time>
      </trkpt>
      <trkpt lat="50.748430" lon="5.377733">
        <ele>111.177349</ele>
        <time>2020-10-05T13:02:16.125Z</time>
      </trkpt>
      <trkpt lat="50.753210" lon="5.378338">
        <ele>94.465251</ele>
        <time>2020-10-05T13:03:03.688Z</time>
      </trkpt>
      <trkpt lat="50.753872" lon="5.378178">
        <ele>92.179934</ele>
        <time>2020-10-05T13:03:10.475Z</time>
      </trkpt>
      <trkpt lat="50.754473" lon="5.377776">
        <ele>90.931503</ele>
        <time>2020-10-05T13:03:17.336Z</time>
      </trkpt>
      <trkpt lat="50.755248" lon="5.376997">
        <ele>89.194624</ele>
        <time>2020-10-05T13:03:27.792Z</time>
      </trkpt>
      <trkpt lat="50.756559" lon="5.375654">
        <ele>87.627985</ele>
        <time>2020-10-05T13:03:47.740Z</time>
      </trkpt>
      <trkpt lat="50.756670" lon="5.375544">
        <ele>87.517419</ele>
        <time>2020-10-05T13:03:49.532Z</time>
      </trkpt>
      <trkpt lat="50.756781" lon="5.375450">
        <ele>87.411144</ele>
        <time>2020-10-05T13:03:51.220Z</time>
      </trkpt>
      <trkpt lat="50.756858" lon="5.375409">
        <ele>87.342573</ele>
        <time>2020-10-05T13:03:52.167Z</time>
      </trkpt>
      <trkpt lat="50.757006" lon="5.375378">
        <ele>87.207308</ele>
        <time>2020-10-05T13:03:54.043Z</time>
      </trkpt>
      <trkpt lat="50.758064" lon="5.375514">
        <ele>85.612009</ele>
        <time>2020-10-05T13:04:06.293Z</time>
      </trkpt>
      <trkpt lat="50.758782" lon="5.375607">
        <ele>84.529322</ele>
        <time>2020-10-05T13:04:14.223Z</time>
      </trkpt>
      <trkpt lat="50.759074" lon="5.375589">
        <ele>84.453279</ele>
        <time>2020-10-05T13:04:17.506Z</time>
      </trkpt>
      <trkpt lat="50.759789" lon="5.375179">
        <ele>84.264105</ele>
        <time>2020-10-05T13:04:26.917Z</time>
      </trkpt>
      <trkpt lat="50.759908" lon="5.375175">
        <ele>84.234501</ele>
        <time>2020-10-05T13:04:28.434Z</time>
      </trkpt>
      <trkpt lat="50.760252" lon="5.375218">
        <ele>84.148674</ele>
        <time>2020-10-05T13:04:34.895Z</time>
      </trkpt>
      <trkpt lat="50.760475" lon="5.375178">
        <ele>84.092853</ele>
        <time>2020-10-05T13:04:39.565Z</time>
      </trkpt>
      <trkpt lat="50.760725" lon="5.375034">
        <ele>84.665281</ele>
        <time>2020-10-05T13:04:45.183Z</time>
      </trkpt>
      <trkpt lat="50.760907" lon="5.374906">
        <ele>85.232976</ele>
        <time>2020-10-05T13:04:49.948Z</time>
      </trkpt>
      <trkpt lat="50.761116" lon="5.374766">
        <ele>85.879870</ele>
        <time>2020-10-05T13:04:55.415Z</time>
      </trkpt>
      <trkpt lat="50.761394" lon="5.374596">
        <ele>86.729351</ele>
        <time>2020-10-05T13:05:03.401Z</time>
      </trkpt>
      <trkpt lat="50.761436" lon="5.374567">
        <ele>86.859965</ele>
        <time>2020-10-05T13:05:04.816Z</time>
      </trkpt>
      <trkpt lat="50.761629" lon="5.374449">
        <ele>87.449698</ele>
        <time>2020-10-05T13:05:11.128Z</time>
      </trkpt>
      <trkpt lat="50.762342" lon="5.373921">
        <ele>89.685269</ele>
        <time>2020-10-05T13:05:34.138Z</time>
      </trkpt>
      <trkpt lat="50.762678" lon="5.373608">
        <ele>90.777889</ele>
        <time>2020-10-05T13:05:45.132Z</time>
      </trkpt>
      <trkpt lat="50.762749" lon="5.373547">
        <ele>91.004282</ele>
        <time>2020-10-05T13:05:47.551Z</time>
      </trkpt>
      <trkpt lat="50.763050" lon="5.373549">
        <ele>91.847585</ele>
        <time>2020-10-05T13:05:55.489Z</time>
      </trkpt>
      <trkpt lat="50.763394" lon="5.373676">
        <ele>92.837282</ele>
        <time>2020-10-05T13:06:04.162Z</time>
      </trkpt>
      <trkpt lat="50.763524" lon="5.373775">
        <ele>93.241548</ele>
        <time>2020-10-05T13:06:07.909Z</time>
      </trkpt>
      <trkpt lat="50.765198" lon="5.375483">
        <ele>97.396005</ele>
        <time>2020-10-05T13:06:53.104Z</time>
      </trkpt>
      <trkpt lat="50.765843" lon="5.375956">
        <ele>98.293867</ele>
        <time>2020-10-05T13:07:08.353Z</time>
      </trkpt>
      <trkpt lat="50.766323" lon="5.376199">
        <ele>98.829897</ele>
        <time>2020-10-05T13:07:18.111Z</time>
      </trkpt>
      <trkpt lat="50.766838" lon="5.376391">
        <ele>99.392641</ele>
        <time>2020-10-05T13:07:27.760Z</time>
      </trkpt>
      <trkpt lat="50.767257" lon="5.376466">
        <ele>99.581711</ele>
        <time>2020-10-05T13:07:34.652Z</time>
      </trkpt>
      <trkpt lat="50.769001" lon="5.376678">
        <ele>99.175959</ele>
        <time>2020-10-05T13:07:58.498Z</time>
      </trkpt>
      <trkpt lat="50.769572" lon="5.376757">
        <ele>98.923669</ele>
        <time>2020-10-05T13:08:06.068Z</time>
      </trkpt>
      <trkpt lat="50.770090" lon="5.376829">
        <ele>98.694789</ele>
        <time>2020-10-05T13:08:12.973Z</time>
      </trkpt>
      <trkpt lat="50.771208" lon="5.376994">
        <ele>98.197236</ele>
        <time>2020-10-05T13:08:28.103Z</time>
      </trkpt>
      <trkpt lat="50.771364" lon="5.377083">
        <ele>98.123276</ele>
        <time>2020-10-05T13:08:30.286Z</time>
      </trkpt>
      <trkpt lat="50.771504" lon="5.377165">
        <ele>98.056695</ele>
        <time>2020-10-05T13:08:32.360Z</time>
      </trkpt>
      <trkpt lat="50.771962" lon="5.377627">
        <ele>97.814420</ele>
        <time>2020-10-05T13:08:39.600Z</time>
      </trkpt>
      <trkpt lat="50.772057" lon="5.377765">
        <ele>97.756890</ele>
        <time>2020-10-05T13:08:41.381Z</time>
      </trkpt>
      <trkpt lat="50.772189" lon="5.377957">
        <ele>97.676905</ele>
        <time>2020-10-05T13:08:43.718Z</time>
      </trkpt>
      <trkpt lat="50.772654" lon="5.378455">
        <ele>97.375390</ele>
        <time>2020-10-05T13:08:51.196Z</time>
      </trkpt>
      <trkpt lat="50.773039" lon="5.378664">
        <ele>97.152377</ele>
        <time>2020-10-05T13:08:56.569Z</time>
      </trkpt>
      <trkpt lat="50.773342" lon="5.378727">
        <ele>96.984944</ele>
        <time>2020-10-05T13:09:00.582Z</time>
      </trkpt>
      <trkpt lat="50.774225" lon="5.378712">
        <ele>96.479725</ele>
        <time>2020-10-05T13:09:12.159Z</time>
      </trkpt>
      <trkpt lat="50.777383" lon="5.378639">
        <ele>94.320969</ele>
        <time>2020-10-05T13:09:53.082Z</time>
      </trkpt>
      <trkpt lat="50.782699" lon="5.378514">
        <ele>87.833416</ele>
        <time>2020-10-05T13:10:55.806Z</time>
      </trkpt>
      <trkpt lat="50.783061" lon="5.378530">
        <ele>87.434412</ele>
        <time>2020-10-05T13:11:00.309Z</time>
      </trkpt>
      <trkpt lat="50.783327" lon="5.378623">
        <ele>87.173446</ele>
        <time>2020-10-05T13:11:03.691Z</time>
      </trkpt>
      <trkpt lat="50.783424" lon="5.378686">
        <ele>87.072995</ele>
        <time>2020-10-05T13:11:05.022Z</time>
      </trkpt>
      <trkpt lat="50.783520" lon="5.378780">
        <ele>86.964834</ele>
        <time>2020-10-05T13:11:06.427Z</time>
      </trkpt>
      <trkpt lat="50.783921" lon="5.379287">
        <ele>86.473046</ele>
        <time>2020-10-05T13:11:12.918Z</time>
      </trkpt>
      <trkpt lat="50.784717" lon="5.380343">
        <ele>85.246401</ele>
        <time>2020-10-05T13:11:25.625Z</time>
      </trkpt>
      <trkpt lat="50.785041" lon="5.380672">
        <ele>84.646616</ele>
        <time>2020-10-05T13:11:29.946Z</time>
      </trkpt>
      <trkpt lat="50.785323" lon="5.380852">
        <ele>84.172896</ele>
        <time>2020-10-05T13:11:33.264Z</time>
      </trkpt>
      <trkpt lat="50.785590" lon="5.380983">
        <ele>83.737414</ele>
        <time>2020-10-05T13:11:36.346Z</time>
      </trkpt>
      <trkpt lat="50.786643" lon="5.381481">
        <ele>82.471748</ele>
        <time>2020-10-05T13:11:49.085Z</time>
      </trkpt>
      <trkpt lat="50.786953" lon="5.379925">
        <ele>81.568185</ele>
        <time>2020-10-05T13:12:07.412Z</time>
      </trkpt>
      <trkpt lat="50.787068" lon="5.379613">
        <ele>81.558755</ele>
        <time>2020-10-05T13:12:12.051Z</time>
      </trkpt>
      <trkpt lat="50.787106" lon="5.379549">
        <ele>81.601373</ele>
        <time>2020-10-05T13:12:13.422Z</time>
      </trkpt>
      <trkpt lat="50.787169" lon="5.379343">
        <ele>81.712450</ele>
        <time>2020-10-05T13:12:16.395Z</time>
      </trkpt>
      <trkpt lat="50.787534" lon="5.378122">
        <ele>82.368033</ele>
        <time>2020-10-05T13:12:36.491Z</time>
      </trkpt>
      <trkpt lat="50.787691" lon="5.377603">
        <ele>82.647306</ele>
        <time>2020-10-05T13:12:45.484Z</time>
      </trkpt>
      <trkpt lat="50.788112" lon="5.376162">
        <ele>84.177265</ele>
        <time>2020-10-05T13:13:12.025Z</time>
      </trkpt>
      <trkpt lat="50.788350" lon="5.375373">
        <ele>85.169819</ele>
        <time>2020-10-05T13:13:27.925Z</time>
      </trkpt>
      <trkpt lat="50.789348" lon="5.372542">
        <ele>88.644792</ele>
        <time>2020-10-05T13:14:25.324Z</time>
      </trkpt>
      <trkpt lat="50.790015" lon="5.369414">
        <ele>90.128965</ele>
        <time>2020-10-05T13:15:12.271Z</time>
      </trkpt>
      <trkpt lat="50.790044" lon="5.369170">
        <ele>90.227958</ele>
        <time>2020-10-05T13:15:15.404Z</time>
      </trkpt>
      <trkpt lat="50.789952" lon="5.369039">
        <ele>90.306031</ele>
        <time>2020-10-05T13:15:18.117Z</time>
      </trkpt>
      <trkpt lat="50.789871" lon="5.368878">
        <ele>90.388074</ele>
        <time>2020-10-05T13:15:20.795Z</time>
      </trkpt>
      <trkpt lat="50.789767" lon="5.368431">
        <ele>90.577991</ele>
        <time>2020-10-05T13:15:27.145Z</time>
      </trkpt>
      <trkpt lat="50.789729" lon="5.368189">
        <ele>90.677415</ele>
        <time>2020-10-05T13:15:30.309Z</time>
      </trkpt>
      <trkpt lat="50.789638" lon="5.367175">
        <ele>91.085776</ele>
        <time>2020-10-05T13:15:45.136Z</time>
      </trkpt>
      <trkpt lat="50.789548" lon="5.366239">
        <ele>92.159343</ele>
        <time>2020-10-05T13:16:00.704Z</time>
      </trkpt>
      <trkpt lat="50.789450" lon="5.365762">
        <ele>92.992987</ele>
        <time>2020-10-05T13:16:09.916Z</time>
      </trkpt>
      <trkpt lat="50.789302" lon="5.365169">
        <ele>94.052652</ele>
        <time>2020-10-05T13:16:22.051Z</time>
      </trkpt>
      <trkpt lat="50.789339" lon="5.364966">
        <ele>94.403805</ele>
        <time>2020-10-05T13:16:26.748Z</time>
      </trkpt>
      <trkpt lat="50.790165" lon="5.360489">
        <ele>104.201542</ele>
        <time>2020-10-05T13:18:09.241Z</time>
      </trkpt>
      <trkpt lat="50.790213" lon="5.359988">
        <ele>105.201020</ele>
        <time>2020-10-05T13:18:19.912Z</time>
      </trkpt>
      <trkpt lat="50.790216" lon="5.358707">
        <ele>107.727733</ele>
        <time>2020-10-05T13:18:45.755Z</time>
      </trkpt>
      <trkpt lat="50.790273" lon="5.357412">
        <ele>109.786318</ele>
        <time>2020-10-05T13:19:10.684Z</time>
      </trkpt>
      <trkpt lat="50.790377" lon="5.356604">
        <ele>111.041688</ele>
        <time>2020-10-05T13:19:25.614Z</time>
      </trkpt>
      <trkpt lat="50.790509" lon="5.355809">
        <ele>112.293075</ele>
        <time>2020-10-05T13:19:41.103Z</time>
      </trkpt>
      <trkpt lat="50.790698" lon="5.355794">
        <ele>112.746517</ele>
        <time>2020-10-05T13:19:46.811Z</time>
      </trkpt>
      <trkpt lat="50.791270" lon="5.355625">
        <ele>114.138087</ele>
        <time>2020-10-05T13:20:04.315Z</time>
      </trkpt>
      <trkpt lat="50.791604" lon="5.355409">
        <ele>115.001003</ele>
        <time>2020-10-05T13:20:15.236Z</time>
      </trkpt>
      <trkpt lat="50.791947" lon="5.355214">
        <ele>115.872636</ele>
        <time>2020-10-05T13:20:26.531Z</time>
      </trkpt>
      <trkpt lat="50.792886" lon="5.354714">
        <ele>117.850859</ele>
        <time>2020-10-05T13:20:54.864Z</time>
      </trkpt>
      <trkpt lat="50.793227" lon="5.354624">
        <ele>118.464956</ele>
        <time>2020-10-05T13:21:04.694Z</time>
      </trkpt>
      <trkpt lat="50.793342" lon="5.354617">
        <ele>118.669384</ele>
        <time>2020-10-05T13:21:08.182Z</time>
      </trkpt>
      <trkpt lat="50.793581" lon="5.354625">
        <ele>119.094020</ele>
        <time>2020-10-05T13:21:14.066Z</time>
      </trkpt>
      <trkpt lat="50.793835" lon="5.354626">
        <ele>119.545207</ele>
        <time>2020-10-05T13:21:20.300Z</time>
      </trkpt>
      <trkpt lat="50.794116" lon="5.354569">
        <ele>119.916296</ele>
        <time>2020-10-05T13:21:27.830Z</time>
      </trkpt>
      <trkpt lat="50.794163" lon="5.354541">
        <ele>119.916296</ele>
        <time>2020-10-05T13:21:28.724Z</time>
      </trkpt>
      <trkpt lat="50.794053" lon="5.354341">
        <ele>119.916296</ele>
        <time>2020-10-05T13:21:33.368Z</time>
      </trkpt>
      <trkpt lat="50.793243" lon="5.353180">
        <ele>119.916296</ele>
        <time>2020-10-05T13:21:58.820Z</time>
      </trkpt>
      <trkpt lat="50.793046" lon="5.352921">
        <ele>119.916296</ele>
        <time>2020-10-05T13:22:04.604Z</time>
      </trkpt>
      <trkpt lat="50.793046" lon="5.352921">
        <ele>120.068091</ele>
        <time>2020-10-05T08:16:05.486Z</time>
      </trkpt>
      <trkpt lat="50.793243" lon="5.353180">
        <ele>120.068091</ele>
        <time>2020-10-05T08:16:09.732Z</time>
      </trkpt>
      <trkpt lat="50.794053" lon="5.354341">
        <ele>119.682905</ele>
        <time>2020-10-05T08:16:27.819Z</time>
      </trkpt>
      <trkpt lat="50.794163" lon="5.354541">
        <ele>119.539415</ele>
        <time>2020-10-05T08:16:30.684Z</time>
      </trkpt>
      <trkpt lat="50.794203" lon="5.354573">
        <ele>119.501034</ele>
        <time>2020-10-05T08:16:31.346Z</time>
      </trkpt>
      <trkpt lat="50.794698" lon="5.354782">
        <ele>119.062350</ele>
        <time>2020-10-05T08:16:40.574Z</time>
      </trkpt>
      <trkpt lat="50.795412" lon="5.355086">
        <ele>118.578412</ele>
        <time>2020-10-05T08:16:54.373Z</time>
      </trkpt>
      <trkpt lat="50.795969" lon="5.355244">
        <ele>118.825823</ele>
        <time>2020-10-05T08:17:06.382Z</time>
      </trkpt>
      <trkpt lat="50.796821" lon="5.355161">
        <ele>119.199033</ele>
        <time>2020-10-05T08:17:27.003Z</time>
      </trkpt>
      <trkpt lat="50.797160" lon="5.355262">
        <ele>119.319908</ele>
        <time>2020-10-05T08:17:34.532Z</time>
      </trkpt>
      <trkpt lat="50.797520" lon="5.355461">
        <ele>119.345911</ele>
        <time>2020-10-05T08:17:42.566Z</time>
      </trkpt>
      <trkpt lat="50.797572" lon="5.355579">
        <ele>119.352110</ele>
        <time>2020-10-05T08:17:45.957Z</time>
      </trkpt>
      <trkpt lat="50.797830" lon="5.355959">
        <ele>119.376146</ele>
        <time>2020-10-05T08:17:59.116Z</time>
      </trkpt>
      <trkpt lat="50.798004" lon="5.356162">
        <ele>119.390888</ele>
        <time>2020-10-05T08:18:07.108Z</time>
      </trkpt>
      <trkpt lat="50.798030" lon="5.356208">
        <ele>119.393548</ele>
        <time>2020-10-05T08:18:08.561Z</time>
      </trkpt>
      <trkpt lat="50.798121" lon="5.356120">
        <ele>119.400820</ele>
        <time>2020-10-05T08:18:10.055Z</time>
      </trkpt>
      <trkpt lat="50.798215" lon="5.356110">
        <ele>119.407244</ele>
        <time>2020-10-05T08:18:11.398Z</time>
      </trkpt>
      <trkpt lat="50.798241" lon="5.356111">
        <ele>119.409018</ele>
        <time>2020-10-05T08:18:11.771Z</time>
      </trkpt>
      <trkpt lat="50.798318" lon="5.356123">
        <ele>119.414294</ele>
        <time>2020-10-05T08:18:13.304Z</time>
      </trkpt>
      <trkpt lat="50.798359" lon="5.356129">
        <ele>119.417101</ele>
        <time>2020-10-05T08:18:14.110Z</time>
      </trkpt>
      <trkpt lat="50.798423" lon="5.356153">
        <ele>119.421586</ele>
        <time>2020-10-05T08:18:15.340Z</time>
      </trkpt>
      <trkpt lat="50.799184" lon="5.357002">
        <ele>118.890700</ele>
        <time>2020-10-05T08:18:33.430Z</time>
      </trkpt>
      <trkpt lat="50.799611" lon="5.357197">
        <ele>118.546210</ele>
        <time>2020-10-05T08:18:41.683Z</time>
      </trkpt>
      <trkpt lat="50.799660" lon="5.357250">
        <ele>118.500202</ele>
        <time>2020-10-05T08:18:42.696Z</time>
      </trkpt>
      <trkpt lat="50.799783" lon="5.356901">
        <ele>118.304440</ele>
        <time>2020-10-05T08:18:45.854Z</time>
      </trkpt>
      <trkpt lat="50.799898" lon="5.356573">
        <ele>118.120683</ele>
        <time>2020-10-05T08:18:48.636Z</time>
      </trkpt>
      <trkpt lat="50.800156" lon="5.355813">
        <ele>116.853645</ele>
        <time>2020-10-05T08:18:54.654Z</time>
      </trkpt>
      <trkpt lat="50.800170" lon="5.355771">
        <ele>116.773414</ele>
        <time>2020-10-05T08:18:54.974Z</time>
      </trkpt>
      <trkpt lat="50.800294" lon="5.355415">
        <ele>116.086596</ele>
        <time>2020-10-05T08:18:57.683Z</time>
      </trkpt>
      <trkpt lat="50.801156" lon="5.352914">
        <ele>111.840075</ele>
        <time>2020-10-05T08:19:16.013Z</time>
      </trkpt>
      <trkpt lat="50.801427" lon="5.352129">
        <ele>110.765556</ele>
        <time>2020-10-05T08:19:22.434Z</time>
      </trkpt>
      <trkpt lat="50.801496" lon="5.351928">
        <ele>110.490779</ele>
        <time>2020-10-05T08:19:24.233Z</time>
      </trkpt>
      <trkpt lat="50.801616" lon="5.351582">
        <ele>110.016667</ele>
        <time>2020-10-05T08:19:27.465Z</time>
      </trkpt>
      <trkpt lat="50.802214" lon="5.349833">
        <ele>109.143163</ele>
        <time>2020-10-05T08:19:45.461Z</time>
      </trkpt>
      <trkpt lat="50.802339" lon="5.349488">
        <ele>108.996328</ele>
        <time>2020-10-05T08:19:48.416Z</time>
      </trkpt>
      <trkpt lat="50.802463" lon="5.349122">
        <ele>108.842994</ele>
        <time>2020-10-05T08:19:51.599Z</time>
      </trkpt>
      <trkpt lat="50.802573" lon="5.348757">
        <ele>108.752949</ele>
        <time>2020-10-05T08:19:54.714Z</time>
      </trkpt>
      <trkpt lat="50.802589" lon="5.348442">
        <ele>108.733533</ele>
        <time>2020-10-05T08:19:56.939Z</time>
      </trkpt>
      <trkpt lat="50.802565" lon="5.348259">
        <ele>108.722051</ele>
        <time>2020-10-05T08:19:59.400Z</time>
      </trkpt>
      <trkpt lat="50.802537" lon="5.348148">
        <ele>108.714708</ele>
        <time>2020-10-05T08:20:00.349Z</time>
      </trkpt>
      <trkpt lat="50.802498" lon="5.348052">
        <ele>108.707697</ele>
        <time>2020-10-05T08:20:01.099Z</time>
      </trkpt>
      <trkpt lat="50.802474" lon="5.348011">
        <ele>108.704263</ele>
        <time>2020-10-05T08:20:01.453Z</time>
      </trkpt>
      <trkpt lat="50.802314" lon="5.347674">
        <ele>108.678367</ele>
        <time>2020-10-05T08:20:06.240Z</time>
      </trkpt>
      <trkpt lat="50.802296" lon="5.347640">
        <ele>108.675642</ele>
        <time>2020-10-05T08:20:06.515Z</time>
      </trkpt>
      <trkpt lat="50.802232" lon="5.347493">
        <ele>108.664675</ele>
        <time>2020-10-05T08:20:07.988Z</time>
      </trkpt>
      <trkpt lat="50.802164" lon="5.347176">
        <ele>108.644108</ele>
        <time>2020-10-05T08:20:12.240Z</time>
      </trkpt>
      <trkpt lat="50.802101" lon="5.346714">
        <ele>108.615071</ele>
        <time>2020-10-05T08:20:17.312Z</time>
      </trkpt>
      <trkpt lat="50.802092" lon="5.346657">
        <ele>108.611461</ele>
        <time>2020-10-05T08:20:18.033Z</time>
      </trkpt>
      <trkpt lat="50.802050" lon="5.346399">
        <ele>108.595093</ele>
        <time>2020-10-05T08:20:20.528Z</time>
      </trkpt>
      <trkpt lat="50.802037" lon="5.346311">
        <ele>108.590092</ele>
        <time>2020-10-05T08:20:21.363Z</time>
      </trkpt>
      <trkpt lat="50.802075" lon="5.346282">
        <ele>108.591824</ele>
        <time>2020-10-05T08:20:23.209Z</time>
      </trkpt>
      <trkpt lat="50.802313" lon="5.345923">
        <ele>108.605325</ele>
        <time>2020-10-05T08:20:29.832Z</time>
      </trkpt>
      <trkpt lat="50.802447" lon="5.345601">
        <ele>108.615330</ele>
        <time>2020-10-05T08:20:35.208Z</time>
      </trkpt>
      <trkpt lat="50.802475" lon="5.345505">
        <ele>108.618074</ele>
        <time>2020-10-05T08:20:36.819Z</time>
      </trkpt>
      <trkpt lat="50.802569" lon="5.344994">
        <ele>108.631884</ele>
        <time>2020-10-05T08:20:44.693Z</time>
      </trkpt>
      <trkpt lat="50.802594" lon="5.344512">
        <ele>108.644434</ele>
        <time>2020-10-05T08:20:51.448Z</time>
      </trkpt>
      <trkpt lat="50.802588" lon="5.344432">
        <ele>108.646525</ele>
        <time>2020-10-05T08:20:52.575Z</time>
      </trkpt>
      <trkpt lat="50.802575" lon="5.344207">
        <ele>108.652388</ele>
        <time>2020-10-05T08:20:55.943Z</time>
      </trkpt>
      <trkpt lat="50.802536" lon="5.343633">
        <ele>108.390318</ele>
        <time>2020-10-05T08:21:02.094Z</time>
      </trkpt>
      <trkpt lat="50.802509" lon="5.343435">
        <ele>107.989736</ele>
        <time>2020-10-05T08:21:04.266Z</time>
      </trkpt>
      <trkpt lat="50.802461" lon="5.343376">
        <ele>107.799540</ele>
        <time>2020-10-05T08:21:05.159Z</time>
      </trkpt>
      <trkpt lat="50.802522" lon="5.343330">
        <ele>107.588090</ele>
        <time>2020-10-05T08:21:05.912Z</time>
      </trkpt>
      <trkpt lat="50.802580" lon="5.343286">
        <ele>107.386815</ele>
        <time>2020-10-05T08:21:06.555Z</time>
      </trkpt>
      <trkpt lat="50.802707" lon="5.343108">
        <ele>106.855921</ele>
        <time>2020-10-05T08:21:08.289Z</time>
      </trkpt>
      <trkpt lat="50.802780" lon="5.342893">
        <ele>106.373255</ele>
        <time>2020-10-05T08:21:09.787Z</time>
      </trkpt>
      <trkpt lat="50.802886" lon="5.342387">
        <ele>105.319039</ele>
        <time>2020-10-05T08:21:13.113Z</time>
      </trkpt>
      <trkpt lat="50.803122" lon="5.341043">
        <ele>102.625441</ele>
        <time>2020-10-05T08:21:21.759Z</time>
      </trkpt>
      <trkpt lat="50.803150" lon="5.340916">
        <ele>102.395837</ele>
        <time>2020-10-05T08:21:22.625Z</time>
      </trkpt>
      <trkpt lat="50.803182" lon="5.340741">
        <ele>102.084856</ele>
        <time>2020-10-05T08:21:23.786Z</time>
      </trkpt>
      <trkpt lat="50.803236" lon="5.340492">
        <ele>101.635480</ele>
        <time>2020-10-05T08:21:25.472Z</time>
      </trkpt>
      <trkpt lat="50.803340" lon="5.339964">
        <ele>100.691417</ele>
        <time>2020-10-05T08:21:29.103Z</time>
      </trkpt>
      <trkpt lat="50.803379" lon="5.339757">
        <ele>100.322698</ele>
        <time>2020-10-05T08:21:30.559Z</time>
      </trkpt>
      <trkpt lat="50.803410" lon="5.339592">
        <ele>100.028859</ele>
        <time>2020-10-05T08:21:31.701Z</time>
      </trkpt>
      <trkpt lat="50.803494" lon="5.339043">
        <ele>99.064639</ele>
        <time>2020-10-05T08:21:35.585Z</time>
      </trkpt>
      <trkpt lat="50.803534" lon="5.338727">
        <ele>98.514512</ele>
        <time>2020-10-05T08:21:37.868Z</time>
      </trkpt>
      <trkpt lat="50.803635" lon="5.336352">
        <ele>95.720185</ele>
        <time>2020-10-05T08:21:54.703Z</time>
      </trkpt>
      <trkpt lat="50.803649" lon="5.335957">
        <ele>95.274852</ele>
        <time>2020-10-05T08:21:57.510Z</time>
      </trkpt>
      <trkpt lat="50.803662" lon="5.335392">
        <ele>94.782252</ele>
        <time>2020-10-05T08:22:01.604Z</time>
      </trkpt>
      <trkpt lat="50.803660" lon="5.335125">
        <ele>94.610645</ele>
        <time>2020-10-05T08:22:03.561Z</time>
      </trkpt>
      <trkpt lat="50.803660" lon="5.335063">
        <ele>94.570798</ele>
        <time>2020-10-05T08:22:04.024Z</time>
      </trkpt>
      <trkpt lat="50.803661" lon="5.335029">
        <ele>94.548924</ele>
        <time>2020-10-05T08:22:04.265Z</time>
      </trkpt>
      <trkpt lat="50.803687" lon="5.334573">
        <ele>94.254671</ele>
        <time>2020-10-05T08:22:09.136Z</time>
      </trkpt>
      <trkpt lat="50.803711" lon="5.334241">
        <ele>94.039910</ele>
        <time>2020-10-05T08:22:11.662Z</time>
      </trkpt>
      <trkpt lat="50.803703" lon="5.333941">
        <ele>93.846935</ele>
        <time>2020-10-05T08:22:13.944Z</time>
      </trkpt>
      <trkpt lat="50.803676" lon="5.333839">
        <ele>93.775863</ele>
        <time>2020-10-05T08:22:14.746Z</time>
      </trkpt>
      <trkpt lat="50.803719" lon="5.333792">
        <ele>93.722717</ele>
        <time>2020-10-05T08:22:15.373Z</time>
      </trkpt>
      <trkpt lat="50.803737" lon="5.333764">
        <ele>93.697048</ele>
        <time>2020-10-05T08:22:15.814Z</time>
      </trkpt>
      <trkpt lat="50.803854" lon="5.333441">
        <ele>93.457782</ele>
        <time>2020-10-05T08:22:18.766Z</time>
      </trkpt>
      <trkpt lat="50.803982" lon="5.332865">
        <ele>93.160140</ele>
        <time>2020-10-05T08:22:24.064Z</time>
      </trkpt>
      <trkpt lat="50.804035" lon="5.332659">
        <ele>93.188337</ele>
        <time>2020-10-05T08:22:26.074Z</time>
      </trkpt>
      <trkpt lat="50.804206" lon="5.332420">
        <ele>93.234107</ele>
        <time>2020-10-05T08:22:29.794Z</time>
      </trkpt>
      <trkpt lat="50.804391" lon="5.331788">
        <ele>93.322407</ele>
        <time>2020-10-05T08:22:37.237Z</time>
      </trkpt>
      <trkpt lat="50.804570" lon="5.331137">
        <ele>93.412412</ele>
        <time>2020-10-05T08:22:44.743Z</time>
      </trkpt>
      <trkpt lat="50.804589" lon="5.331015">
        <ele>93.428341</ele>
        <time>2020-10-05T08:22:46.837Z</time>
      </trkpt>
      <trkpt lat="50.804681" lon="5.329752">
        <ele>93.114351</ele>
        <time>2020-10-05T08:23:03.246Z</time>
      </trkpt>
      <trkpt lat="50.805019" lon="5.328642">
        <ele>92.388774</ele>
        <time>2020-10-05T08:23:17.591Z</time>
      </trkpt>
      <trkpt lat="50.805250" lon="5.327170">
        <ele>90.674868</ele>
        <time>2020-10-05T08:23:32.733Z</time>
      </trkpt>
      <trkpt lat="50.805507" lon="5.326389">
        <ele>88.881021</ele>
        <time>2020-10-05T08:23:40.944Z</time>
      </trkpt>
      <trkpt lat="50.805637" lon="5.325839">
        <ele>87.684747</ele>
        <time>2020-10-05T08:23:46.303Z</time>
      </trkpt>
      <trkpt lat="50.805818" lon="5.324227">
        <ele>84.066344</ele>
        <time>2020-10-05T08:24:00.678Z</time>
      </trkpt>
      <trkpt lat="50.805971" lon="5.323461">
        <ele>82.154365</ele>
        <time>2020-10-05T08:24:07.791Z</time>
      </trkpt>
      <trkpt lat="50.806103" lon="5.322899">
        <ele>80.727409</ele>
        <time>2020-10-05T08:24:13.198Z</time>
      </trkpt>
      <trkpt lat="50.806342" lon="5.322116">
        <ele>78.938883</ele>
        <time>2020-10-05T08:24:21.259Z</time>
      </trkpt>
      <trkpt lat="50.806418" lon="5.321935">
        <ele>78.664197</ele>
        <time>2020-10-05T08:24:23.431Z</time>
      </trkpt>
      <trkpt lat="50.806532" lon="5.321764">
        <ele>78.350009</ele>
        <time>2020-10-05T08:24:25.734Z</time>
      </trkpt>
      <trkpt lat="50.806667" lon="5.321606">
        <ele>78.014150</ele>
        <time>2020-10-05T08:24:28.460Z</time>
      </trkpt>
      <trkpt lat="50.808455" lon="5.319831">
        <ele>74.154426</ele>
        <time>2020-10-05T08:25:02.981Z</time>
      </trkpt>
      <trkpt lat="50.808681" lon="5.319666">
        <ele>73.753142</ele>
        <time>2020-10-05T08:25:07.052Z</time>
      </trkpt>
      <trkpt lat="50.808664" lon="5.319462">
        <ele>73.543503</ele>
        <time>2020-10-05T08:25:08.483Z</time>
      </trkpt>
      <trkpt lat="50.808521" lon="5.314811">
        <ele>68.942738</ele>
        <time>2020-10-05T08:25:42.212Z</time>
      </trkpt>
      <trkpt lat="50.808522" lon="5.314653">
        <ele>68.792064</ele>
        <time>2020-10-05T08:25:43.391Z</time>
      </trkpt>
      <trkpt lat="50.808525" lon="5.314539">
        <ele>68.683262</ele>
        <time>2020-10-05T08:25:44.613Z</time>
      </trkpt>
      <trkpt lat="50.808556" lon="5.314430">
        <ele>68.569280</ele>
        <time>2020-10-05T08:25:45.852Z</time>
      </trkpt>
      <trkpt lat="50.809576" lon="5.312845">
        <ele>66.312046</ele>
        <time>2020-10-05T08:26:09.377Z</time>
      </trkpt>
      <trkpt lat="50.810130" lon="5.311825">
        <ele>64.870902</ele>
        <time>2020-10-05T08:26:23.199Z</time>
      </trkpt>
      <trkpt lat="50.810185" lon="5.311610">
        <ele>64.622374</ele>
        <time>2020-10-05T08:26:25.497Z</time>
      </trkpt>
      <trkpt lat="50.810202" lon="5.311463">
        <ele>64.462253</ele>
        <time>2020-10-05T08:26:27.059Z</time>
      </trkpt>
      <trkpt lat="50.810255" lon="5.311155">
        <ele>64.105105</ele>
        <time>2020-10-05T08:26:30.255Z</time>
      </trkpt>
      <trkpt lat="50.810428" lon="5.309821">
        <ele>62.212052</ele>
        <time>2020-10-05T08:26:43.908Z</time>
      </trkpt>
      <trkpt lat="50.810651" lon="5.308805">
        <ele>60.716933</ele>
        <time>2020-10-05T08:26:54.498Z</time>
      </trkpt>
      <trkpt lat="50.810873" lon="5.308036">
        <ele>59.335601</ele>
        <time>2020-10-05T08:27:02.425Z</time>
      </trkpt>
      <trkpt lat="50.811236" lon="5.307161">
        <ele>57.434704</ele>
        <time>2020-10-05T08:27:12.161Z</time>
      </trkpt>
      <trkpt lat="50.811407" lon="5.306804">
        <ele>56.621164</ele>
        <time>2020-10-05T08:27:16.336Z</time>
      </trkpt>
      <trkpt lat="50.811489" lon="5.306664">
        <ele>56.274496</ele>
        <time>2020-10-05T08:27:18.079Z</time>
      </trkpt>
      <trkpt lat="50.811772" lon="5.306210">
        <ele>55.116360</ele>
        <time>2020-10-05T08:27:24.123Z</time>
      </trkpt>
      <trkpt lat="50.811832" lon="5.306107">
        <ele>54.949545</ele>
        <time>2020-10-05T08:27:25.446Z</time>
      </trkpt>
      <trkpt lat="50.812066" lon="5.305803">
        <ele>54.496125</ele>
        <time>2020-10-05T08:27:30.088Z</time>
      </trkpt>
      <trkpt lat="50.812331" lon="5.305464">
        <ele>53.985790</ele>
        <time>2020-10-05T08:27:35.378Z</time>
      </trkpt>
      <trkpt lat="50.812389" lon="5.305387">
        <ele>53.872408</ele>
        <time>2020-10-05T08:27:36.541Z</time>
      </trkpt>
      <trkpt lat="50.812491" lon="5.304839">
        <ele>53.331781</ele>
        <time>2020-10-05T08:27:42.401Z</time>
      </trkpt>
      <trkpt lat="50.812694" lon="5.303916">
        <ele>52.406912</ele>
        <time>2020-10-05T08:27:53.956Z</time>
      </trkpt>
      <trkpt lat="50.812647" lon="5.302726">
        <ele>52.492468</ele>
        <time>2020-10-05T08:28:09.406Z</time>
      </trkpt>
      <trkpt lat="50.812682" lon="5.302336">
        <ele>52.541630</ele>
        <time>2020-10-05T08:28:14.737Z</time>
      </trkpt>
      <trkpt lat="50.813082" lon="5.301144">
        <ele>52.723842</ele>
        <time>2020-10-05T08:28:33.072Z</time>
      </trkpt>
      <trkpt lat="50.812985" lon="5.298434">
        <ele>54.297391</ele>
        <time>2020-10-05T08:29:13.888Z</time>
      </trkpt>
      <trkpt lat="50.812928" lon="5.297449">
        <ele>55.426160</ele>
        <time>2020-10-05T08:29:30.506Z</time>
      </trkpt>
      <trkpt lat="50.812918" lon="5.297127">
        <ele>55.814879</ele>
        <time>2020-10-05T08:29:36.236Z</time>
      </trkpt>
      <trkpt lat="50.812810" lon="5.295992">
        <ele>57.198835</ele>
        <time>2020-10-05T08:29:57.257Z</time>
      </trkpt>
      <trkpt lat="50.812860" lon="5.294888">
        <ele>58.478572</ele>
        <time>2020-10-05T08:30:18.050Z</time>
      </trkpt>
      <trkpt lat="50.812780" lon="5.294495">
        <ele>58.939758</ele>
        <time>2020-10-05T08:30:25.350Z</time>
      </trkpt>
      <trkpt lat="50.812696" lon="5.294190">
        <ele>59.311389</ele>
        <time>2020-10-05T08:30:31.347Z</time>
      </trkpt>
      <trkpt lat="50.812705" lon="5.294146">
        <ele>59.363047</ele>
        <time>2020-10-05T08:30:32.249Z</time>
      </trkpt>
      <trkpt lat="50.812845" lon="5.293845">
        <ele>59.780521</ele>
        <time>2020-10-05T08:30:38.472Z</time>
      </trkpt>
      <trkpt lat="50.812899" lon="5.293714">
        <ele>59.955229</ele>
        <time>2020-10-05T08:30:41.343Z</time>
      </trkpt>
      <trkpt lat="50.812873" lon="5.293642">
        <ele>60.047858</ele>
        <time>2020-10-05T08:30:42.484Z</time>
      </trkpt>
      <trkpt lat="50.813037" lon="5.293478">
        <ele>60.390793</ele>
        <time>2020-10-05T08:30:46.495Z</time>
      </trkpt>
      <trkpt lat="50.814971" lon="5.291581">
        <ele>62.865321</ele>
        <time>2020-10-05T08:31:29.742Z</time>
      </trkpt>
      <trkpt lat="50.815173" lon="5.291399">
        <ele>62.998034</ele>
        <time>2020-10-05T08:31:33.713Z</time>
      </trkpt>
      <trkpt lat="50.815269" lon="5.291332">
        <ele>63.057939</ele>
        <time>2020-10-05T08:31:35.414Z</time>
      </trkpt>
      <trkpt lat="50.815983" lon="5.290928">
        <ele>63.490875</ele>
        <time>2020-10-05T08:31:47.999Z</time>
      </trkpt>
      <trkpt lat="50.816212" lon="5.290807">
        <ele>63.628719</ele>
        <time>2020-10-05T08:31:52.123Z</time>
      </trkpt>
      <trkpt lat="50.817150" lon="5.290298">
        <ele>64.285978</ele>
        <time>2020-10-05T08:32:08.717Z</time>
      </trkpt>
      <trkpt lat="50.817866" lon="5.290027">
        <ele>64.804947</ele>
        <time>2020-10-05T08:32:22.150Z</time>
      </trkpt>
      <trkpt lat="50.822695" lon="5.288750">
        <ele>67.635738</ele>
        <time>2020-10-05T08:33:49.634Z</time>
      </trkpt>
      <trkpt lat="50.824499" lon="5.287882">
        <ele>66.110313</ele>
        <time>2020-10-05T08:34:12.224Z</time>
      </trkpt>
      <trkpt lat="50.824835" lon="5.287651">
        <ele>65.613663</ele>
        <time>2020-10-05T08:34:16.356Z</time>
      </trkpt>
      <trkpt lat="50.825610" lon="5.286889">
        <ele>64.515293</ele>
        <time>2020-10-05T08:34:26.762Z</time>
      </trkpt>
      <trkpt lat="50.827873" lon="5.285090">
        <ele>62.253487</ele>
        <time>2020-10-05T08:34:58.537Z</time>
      </trkpt>
      <trkpt lat="50.827954" lon="5.285034">
        <ele>62.191340</ele>
        <time>2020-10-05T08:34:59.689Z</time>
      </trkpt>
      <trkpt lat="50.828074" lon="5.284966">
        <ele>62.101723</ele>
        <time>2020-10-05T08:35:02.064Z</time>
      </trkpt>
      <trkpt lat="50.828172" lon="5.284942">
        <ele>62.031997</ele>
        <time>2020-10-05T08:35:03.926Z</time>
      </trkpt>
      <trkpt lat="50.828298" lon="5.284937">
        <ele>61.943375</ele>
        <time>2020-10-05T08:35:06.266Z</time>
      </trkpt>
      <trkpt lat="50.828431" lon="5.284974">
        <ele>61.848426</ele>
        <time>2020-10-05T08:35:08.793Z</time>
      </trkpt>
      <trkpt lat="50.828714" lon="5.285164">
        <ele>61.698303</ele>
        <time>2020-10-05T08:35:14.551Z</time>
      </trkpt>
      <trkpt lat="50.830604" lon="5.286525">
        <ele>60.608707</ele>
        <time>2020-10-05T08:35:53.197Z</time>
      </trkpt>
      <trkpt lat="50.830707" lon="5.286595">
        <ele>60.538102</ele>
        <time>2020-10-05T08:35:54.650Z</time>
      </trkpt>
      <trkpt lat="50.830788" lon="5.286613">
        <ele>60.486579</ele>
        <time>2020-10-05T08:35:55.692Z</time>
      </trkpt>
      <trkpt lat="50.830882" lon="5.286573">
        <ele>60.425267</ele>
        <time>2020-10-05T08:35:56.940Z</time>
      </trkpt>
      <trkpt lat="50.831210" lon="5.286046">
        <ele>60.130907</ele>
        <time>2020-10-05T08:36:03.013Z</time>
      </trkpt>
      <trkpt lat="50.831360" lon="5.285815">
        <ele>59.999097</ele>
        <time>2020-10-05T08:36:05.663Z</time>
      </trkpt>
      <trkpt lat="50.831571" lon="5.285554">
        <ele>59.830258</ele>
        <time>2020-10-05T08:36:09.074Z</time>
      </trkpt>
      <trkpt lat="50.831881" lon="5.285262">
        <ele>59.599086</ele>
        <time>2020-10-05T08:36:13.619Z</time>
      </trkpt>
      <trkpt lat="50.832438" lon="5.284893">
        <ele>59.212131</ele>
        <time>2020-10-05T08:36:21.303Z</time>
      </trkpt>
      <trkpt lat="50.833707" lon="5.284136">
        <ele>58.520175</ele>
        <time>2020-10-05T08:36:39.287Z</time>
      </trkpt>
      <trkpt lat="50.834811" lon="5.283454">
        <ele>58.150898</ele>
        <time>2020-10-05T08:36:55.862Z</time>
      </trkpt>
      <trkpt lat="50.834990" lon="5.283351">
        <ele>58.090444</ele>
        <time>2020-10-05T08:36:58.565Z</time>
      </trkpt>
      <trkpt lat="50.835098" lon="5.283350">
        <ele>58.055749</ele>
        <time>2020-10-05T08:37:00.167Z</time>
      </trkpt>
      <trkpt lat="50.835131" lon="5.283284">
        <ele>58.038670</ele>
        <time>2020-10-05T08:37:00.943Z</time>
      </trkpt>
      <trkpt lat="50.835182" lon="5.283227">
        <ele>58.018616</ele>
        <time>2020-10-05T08:37:01.847Z</time>
      </trkpt>
      <trkpt lat="50.835278" lon="5.283163">
        <ele>57.985154</ele>
        <time>2020-10-05T08:37:03.347Z</time>
      </trkpt>
      <trkpt lat="50.836608" lon="5.282376">
        <ele>57.487106</ele>
        <time>2020-10-05T08:37:22.803Z</time>
      </trkpt>
      <trkpt lat="50.837217" lon="5.281827">
        <ele>56.800961</ele>
        <time>2020-10-05T08:37:31.696Z</time>
      </trkpt>
      <trkpt lat="50.839045" lon="5.278895">
        <ele>53.691212</ele>
        <time>2020-10-05T08:38:02.476Z</time>
      </trkpt>
      <trkpt lat="50.839123" lon="5.278774">
        <ele>53.545149</ele>
        <time>2020-10-05T08:38:03.689Z</time>
      </trkpt>
      <trkpt lat="50.839223" lon="5.278830">
        <ele>53.403262</ele>
        <time>2020-10-05T08:38:04.914Z</time>
      </trkpt>
      <trkpt lat="50.839690" lon="5.279081">
        <ele>52.623492</ele>
        <time>2020-10-05T08:38:10.674Z</time>
      </trkpt>
      <trkpt lat="50.839910" lon="5.279114">
        <ele>52.272326</ele>
        <time>2020-10-05T08:38:13.136Z</time>
      </trkpt>
      <trkpt lat="50.840145" lon="5.279029">
        <ele>51.889270</ele>
        <time>2020-10-05T08:38:15.896Z</time>
      </trkpt>
      <trkpt lat="50.840354" lon="5.278815">
        <ele>51.493769</ele>
        <time>2020-10-05T08:38:18.734Z</time>
      </trkpt>
      <trkpt lat="50.840434" lon="5.278682">
        <ele>51.309449</ele>
        <time>2020-10-05T08:38:19.999Z</time>
      </trkpt>
      <trkpt lat="50.841494" lon="5.276470">
        <ele>48.630874</ele>
        <time>2020-10-05T08:38:39.990Z</time>
      </trkpt>
      <trkpt lat="50.842240" lon="5.274916">
        <ele>47.410375</ele>
        <time>2020-10-05T08:38:54.585Z</time>
      </trkpt>
      <trkpt lat="50.842680" lon="5.274292">
        <ele>47.061379</ele>
        <time>2020-10-05T08:39:02.396Z</time>
      </trkpt>
      <trkpt lat="50.843134" lon="5.273976">
        <ele>46.768356</ele>
        <time>2020-10-05T08:39:09.870Z</time>
      </trkpt>
      <trkpt lat="50.843340" lon="5.273903">
        <ele>47.013492</ele>
        <time>2020-10-05T08:39:12.984Z</time>
      </trkpt>
      <trkpt lat="50.843512" lon="5.273882">
        <ele>47.243265</ele>
        <time>2020-10-05T08:39:15.986Z</time>
      </trkpt>
      <trkpt lat="50.844057" lon="5.273842">
        <ele>47.969951</ele>
        <time>2020-10-05T08:39:26.874Z</time>
      </trkpt>
      <trkpt lat="50.844986" lon="5.273368">
        <ele>49.342984</ele>
        <time>2020-10-05T08:39:48.403Z</time>
      </trkpt>
      <trkpt lat="50.845068" lon="5.273363">
        <ele>49.520517</ele>
        <time>2020-10-05T08:39:50.631Z</time>
      </trkpt>
      <trkpt lat="50.845195" lon="5.273376">
        <ele>49.795846</ele>
        <time>2020-10-05T08:39:53.772Z</time>
      </trkpt>
      <trkpt lat="50.845570" lon="5.273426">
        <ele>50.610002</ele>
        <time>2020-10-05T08:40:02.869Z</time>
      </trkpt>
      <trkpt lat="50.846220" lon="5.273302">
        <ele>52.026397</ele>
        <time>2020-10-05T08:40:18.812Z</time>
      </trkpt>
      <trkpt lat="50.846523" lon="5.273322">
        <ele>52.682486</ele>
        <time>2020-10-05T08:40:25.990Z</time>
      </trkpt>
      <trkpt lat="50.846993" lon="5.273397">
        <ele>53.375676</ele>
        <time>2020-10-05T08:40:36.212Z</time>
      </trkpt>
      <trkpt lat="50.847297" lon="5.273426">
        <ele>53.706461</ele>
        <time>2020-10-05T08:40:42.387Z</time>
      </trkpt>
      <trkpt lat="50.848145" lon="5.273421">
        <ele>54.627512</ele>
        <time>2020-10-05T08:40:58.968Z</time>
      </trkpt>
      <trkpt lat="50.849535" lon="5.273357">
        <ele>54.736525</ele>
        <time>2020-10-05T08:41:19.839Z</time>
      </trkpt>
      <trkpt lat="50.850401" lon="5.273315">
        <ele>54.409052</ele>
        <time>2020-10-05T08:41:31.007Z</time>
      </trkpt>
      <trkpt lat="50.851442" lon="5.273369">
        <ele>53.158022</ele>
        <time>2020-10-05T08:41:43.337Z</time>
      </trkpt>
      <trkpt lat="50.852009" lon="5.273458">
        <ele>52.473654</ele>
        <time>2020-10-05T08:41:49.972Z</time>
      </trkpt>
      <trkpt lat="50.852207" lon="5.273473">
        <ele>52.226518</ele>
        <time>2020-10-05T08:41:52.352Z</time>
      </trkpt>
      <trkpt lat="50.852328" lon="5.273477">
        <ele>52.072624</ele>
        <time>2020-10-05T08:41:53.726Z</time>
      </trkpt>
      <trkpt lat="50.853952" lon="5.273389">
        <ele>50.051302</ele>
        <time>2020-10-05T08:42:12.883Z</time>
      </trkpt>
      <trkpt lat="50.854901" lon="5.273308">
        <ele>49.406760</ele>
        <time>2020-10-05T08:42:24.982Z</time>
      </trkpt>
      <trkpt lat="50.857063" lon="5.272840">
        <ele>48.156402</ele>
        <time>2020-10-05T08:42:54.361Z</time>
      </trkpt>
      <trkpt lat="50.857244" lon="5.272832">
        <ele>48.063087</ele>
        <time>2020-10-05T08:42:56.663Z</time>
      </trkpt>
      <trkpt lat="50.858028" lon="5.272747">
        <ele>47.428332</ele>
        <time>2020-10-05T08:43:06.403Z</time>
      </trkpt>
      <trkpt lat="50.858321" lon="5.272703">
        <ele>47.159614</ele>
        <time>2020-10-05T08:43:09.995Z</time>
      </trkpt>
      <trkpt lat="50.858823" lon="5.272551">
        <ele>46.692975</ele>
        <time>2020-10-05T08:43:16.154Z</time>
      </trkpt>
      <trkpt lat="50.861290" lon="5.271761">
        <ele>44.746003</ele>
        <time>2020-10-05T08:43:48.023Z</time>
      </trkpt>
      <trkpt lat="50.861583" lon="5.271613">
        <ele>44.550501</ele>
        <time>2020-10-05T08:43:52.068Z</time>
      </trkpt>
      <trkpt lat="50.861711" lon="5.271514">
        <ele>44.459951</ele>
        <time>2020-10-05T08:43:53.961Z</time>
      </trkpt>
      <trkpt lat="50.861861" lon="5.271373">
        <ele>44.349073</ele>
        <time>2020-10-05T08:43:56.253Z</time>
      </trkpt>
      <trkpt lat="50.863187" lon="5.270133">
        <ele>43.750609</ele>
        <time>2020-10-05T08:44:16.167Z</time>
      </trkpt>
      <trkpt lat="50.863490" lon="5.269851">
        <ele>43.727229</ele>
        <time>2020-10-05T08:44:21.222Z</time>
      </trkpt>
      <trkpt lat="50.863692" lon="5.269684">
        <ele>43.712070</ele>
        <time>2020-10-05T08:44:24.712Z</time>
      </trkpt>
      <trkpt lat="50.863799" lon="5.269588">
        <ele>43.703889</ele>
        <time>2020-10-05T08:44:26.627Z</time>
      </trkpt>
      <trkpt lat="50.863903" lon="5.269494">
        <ele>43.695923</ele>
        <time>2020-10-05T08:44:28.598Z</time>
      </trkpt>
      <trkpt lat="50.864005" lon="5.269405">
        <ele>43.688175</ele>
        <time>2020-10-05T08:44:30.518Z</time>
      </trkpt>
      <trkpt lat="50.864041" lon="5.269374">
        <ele>43.685449</ele>
        <time>2020-10-05T08:44:31.208Z</time>
      </trkpt>
      <trkpt lat="50.864181" lon="5.269193">
        <ele>43.712119</ele>
        <time>2020-10-05T08:44:34.290Z</time>
      </trkpt>
      <trkpt lat="50.864346" lon="5.268924">
        <ele>44.004641</ele>
        <time>2020-10-05T08:44:38.469Z</time>
      </trkpt>
      <trkpt lat="50.864501" lon="5.268567">
        <ele>44.342555</ele>
        <time>2020-10-05T08:44:43.542Z</time>
      </trkpt>
      <trkpt lat="50.865218" lon="5.266727">
        <ele>46.018881</ele>
        <time>2020-10-05T08:45:19.449Z</time>
      </trkpt>
      <trkpt lat="50.865657" lon="5.265600">
        <ele>46.972796</ele>
        <time>2020-10-05T08:45:40.829Z</time>
      </trkpt>
      <trkpt lat="50.866015" lon="5.264722">
        <ele>47.725693</ele>
        <time>2020-10-05T08:45:56.931Z</time>
      </trkpt>
      <trkpt lat="50.866343" lon="5.263916">
        <ele>48.295032</ele>
        <time>2020-10-05T08:46:11.163Z</time>
      </trkpt>
      <trkpt lat="50.867206" lon="5.261798">
        <ele>49.714955</ele>
        <time>2020-10-05T08:46:48.423Z</time>
      </trkpt>
      <trkpt lat="50.867245" lon="5.261703">
        <ele>49.802811</ele>
        <time>2020-10-05T08:46:50.360Z</time>
      </trkpt>
      <trkpt lat="50.867328" lon="5.261494">
        <ele>49.994240</ele>
        <time>2020-10-05T08:46:53.975Z</time>
      </trkpt>
      <trkpt lat="50.867427" lon="5.261314">
        <ele>50.179333</ele>
        <time>2020-10-05T08:46:57.676Z</time>
      </trkpt>
      <trkpt lat="50.867621" lon="5.261016">
        <ele>50.511226</ele>
        <time>2020-10-05T08:47:04.326Z</time>
      </trkpt>
      <trkpt lat="50.867960" lon="5.260684">
        <ele>51.000750</ele>
        <time>2020-10-05T08:47:14.344Z</time>
      </trkpt>
      <trkpt lat="50.870562" lon="5.258570">
        <ele>55.610151</ele>
        <time>2020-10-05T08:48:32.165Z</time>
      </trkpt>
      <trkpt lat="50.870669" lon="5.258423">
        <ele>55.877998</ele>
        <time>2020-10-05T08:48:36.331Z</time>
      </trkpt>
      <trkpt lat="50.869989" lon="5.257287">
        <ele>57.746868</ele>
        <time>2020-10-05T08:48:58.511Z</time>
      </trkpt>
      <trkpt lat="50.870694" lon="5.256145">
        <ele>60.327434</ele>
        <time>2020-10-05T08:49:28.541Z</time>
      </trkpt>
      <trkpt lat="50.872338" lon="5.253445">
        <ele>66.439079</ele>
        <time>2020-10-05T08:50:44.656Z</time>
      </trkpt>
      <trkpt lat="50.872768" lon="5.252864">
        <ele>67.194151</ele>
        <time>2020-10-05T08:50:58.951Z</time>
      </trkpt>
      <trkpt lat="50.872855" lon="5.252767">
        <ele>67.172135</ele>
        <time>2020-10-05T08:51:02.022Z</time>
      </trkpt>
      <trkpt lat="50.873363" lon="5.252177">
        <ele>67.041781</ele>
        <time>2020-10-05T08:51:14.742Z</time>
      </trkpt>
      <trkpt lat="50.873875" lon="5.251561">
        <ele>66.908734</ele>
        <time>2020-10-05T08:51:25.826Z</time>
      </trkpt>
      <trkpt lat="50.874054" lon="5.251055">
        <ele>66.456109</ele>
        <time>2020-10-05T08:51:31.783Z</time>
      </trkpt>
      <trkpt lat="50.874245" lon="5.250117">
        <ele>65.128904</ele>
        <time>2020-10-05T08:51:41.581Z</time>
      </trkpt>
      <trkpt lat="50.874277" lon="5.249962">
        <ele>64.909301</ele>
        <time>2020-10-05T08:51:43.101Z</time>
      </trkpt>
      <trkpt lat="50.874576" lon="5.248488">
        <ele>62.776196</ele>
        <time>2020-10-05T08:51:58.206Z</time>
      </trkpt>
      <trkpt lat="50.874596" lon="5.248406">
        <ele>62.630724</ele>
        <time>2020-10-05T08:51:59.081Z</time>
      </trkpt>
      <trkpt lat="50.874622" lon="5.248311">
        <ele>62.459375</ele>
        <time>2020-10-05T08:51:59.964Z</time>
      </trkpt>
      <trkpt lat="50.874673" lon="5.248173">
        <ele>62.194739</ele>
        <time>2020-10-05T08:52:01.555Z</time>
      </trkpt>
      <trkpt lat="50.874761" lon="5.248009">
        <ele>61.838512</ele>
        <time>2020-10-05T08:52:03.751Z</time>
      </trkpt>
      <trkpt lat="50.874802" lon="5.247941">
        <ele>61.682881</ele>
        <time>2020-10-05T08:52:04.681Z</time>
      </trkpt>
      <trkpt lat="50.874865" lon="5.247861">
        <ele>61.471180</ele>
        <time>2020-10-05T08:52:05.781Z</time>
      </trkpt>
      <trkpt lat="50.875715" lon="5.247250">
        <ele>59.023619</ele>
        <time>2020-10-05T08:52:19.947Z</time>
      </trkpt>
      <trkpt lat="50.876168" lon="5.246945">
        <ele>57.800277</ele>
        <time>2020-10-05T08:52:27.207Z</time>
      </trkpt>
      <trkpt lat="50.876383" lon="5.246800">
        <ele>57.257989</ele>
        <time>2020-10-05T08:52:30.713Z</time>
      </trkpt>
      <trkpt lat="50.876616" lon="5.246673">
        <ele>56.686141</ele>
        <time>2020-10-05T08:52:34.418Z</time>
      </trkpt>
      <trkpt lat="50.877846" lon="5.245991">
        <ele>54.053654</ele>
        <time>2020-10-05T08:52:54.623Z</time>
      </trkpt>
      <trkpt lat="50.877947" lon="5.245935">
        <ele>54.007016</ele>
        <time>2020-10-05T08:52:56.504Z</time>
      </trkpt>
      <trkpt lat="50.878151" lon="5.245772">
        <ele>53.907438</ele>
        <time>2020-10-05T08:53:00.502Z</time>
      </trkpt>
      <trkpt lat="50.878305" lon="5.245410">
        <ele>53.787366</ele>
        <time>2020-10-05T08:53:05.682Z</time>
      </trkpt>
      <trkpt lat="50.878318" lon="5.245276">
        <ele>53.750081</ele>
        <time>2020-10-05T08:53:07.161Z</time>
      </trkpt>
      <trkpt lat="50.878317" lon="5.245133">
        <ele>53.710751</ele>
        <time>2020-10-05T08:53:08.827Z</time>
      </trkpt>
      <trkpt lat="50.878244" lon="5.244784">
        <ele>53.609633</ele>
        <time>2020-10-05T08:53:13.597Z</time>
      </trkpt>
      <trkpt lat="50.878185" lon="5.244610">
        <ele>53.555307</ele>
        <time>2020-10-05T08:53:16.004Z</time>
      </trkpt>
      <trkpt lat="50.878144" lon="5.244527">
        <ele>53.526317</ele>
        <time>2020-10-05T08:53:17.661Z</time>
      </trkpt>
      <trkpt lat="50.877550" lon="5.243685">
        <ele>53.861708</ele>
        <time>2020-10-05T08:53:36.198Z</time>
      </trkpt>
      <trkpt lat="50.876697" lon="5.241936">
        <ele>55.542136</ele>
        <time>2020-10-05T08:54:12.645Z</time>
      </trkpt>
      <trkpt lat="50.876229" lon="5.240976">
        <ele>56.418840</ele>
        <time>2020-10-05T08:54:31.897Z</time>
      </trkpt>
      <trkpt lat="50.876115" lon="5.240761">
        <ele>56.621790</ele>
        <time>2020-10-05T08:54:36.518Z</time>
      </trkpt>
      <trkpt lat="50.876203" lon="5.240568">
        <ele>56.793870</ele>
        <time>2020-10-05T08:54:39.907Z</time>
      </trkpt>
      <trkpt lat="50.876502" lon="5.240076">
        <ele>57.287519</ele>
        <time>2020-10-05T08:54:50.243Z</time>
      </trkpt>
      <trkpt lat="50.877997" lon="5.238416">
        <ele>59.405614</ele>
        <time>2020-10-05T08:55:34.993Z</time>
      </trkpt>
      <trkpt lat="50.878132" lon="5.238249">
        <ele>59.604761</ele>
        <time>2020-10-05T08:55:39.525Z</time>
      </trkpt>
      <trkpt lat="50.878214" lon="5.238139">
        <ele>59.748907</ele>
        <time>2020-10-05T08:55:42.359Z</time>
      </trkpt>
      <trkpt lat="50.878457" lon="5.237758">
        <ele>60.299300</ele>
        <time>2020-10-05T08:55:51.558Z</time>
      </trkpt>
      <trkpt lat="50.879007" lon="5.236867">
        <ele>61.565684</ele>
        <time>2020-10-05T08:56:13.508Z</time>
      </trkpt>
      <trkpt lat="50.879427" lon="5.236177">
        <ele>62.539730</ele>
        <time>2020-10-05T08:56:29.417Z</time>
      </trkpt>
      <trkpt lat="50.879509" lon="5.236046">
        <ele>62.632562</ele>
        <time>2020-10-05T08:56:32.733Z</time>
      </trkpt>
      <trkpt lat="50.879584" lon="5.235913">
        <ele>62.700450</ele>
        <time>2020-10-05T08:56:35.446Z</time>
      </trkpt>
      <trkpt lat="50.880310" lon="5.234318">
        <ele>63.448958</ele>
        <time>2020-10-05T08:57:04.154Z</time>
      </trkpt>
      <trkpt lat="50.880563" lon="5.233556">
        <ele>63.475307</ele>
        <time>2020-10-05T08:57:14.624Z</time>
      </trkpt>
      <trkpt lat="50.880604" lon="5.233395">
        <ele>63.369514</ele>
        <time>2020-10-05T08:57:16.690Z</time>
      </trkpt>
      <trkpt lat="50.880623" lon="5.233316">
        <ele>63.317997</ele>
        <time>2020-10-05T08:57:17.656Z</time>
      </trkpt>
      <trkpt lat="50.880877" lon="5.232268">
        <ele>62.633916</ele>
        <time>2020-10-05T08:57:30.244Z</time>
      </trkpt>
      <trkpt lat="50.881219" lon="5.230938">
        <ele>61.618176</ele>
        <time>2020-10-05T08:57:45.162Z</time>
      </trkpt>
      <trkpt lat="50.881683" lon="5.229933">
        <ele>60.212556</ele>
        <time>2020-10-05T08:57:57.802Z</time>
      </trkpt>
      <trkpt lat="50.881780" lon="5.229717">
        <ele>59.913308</ele>
        <time>2020-10-05T08:58:00.477Z</time>
      </trkpt>
      <trkpt lat="50.881851" lon="5.229530">
        <ele>59.666971</ele>
        <time>2020-10-05T08:58:02.661Z</time>
      </trkpt>
      <trkpt lat="50.882033" lon="5.228881">
        <ele>58.865351</ele>
        <time>2020-10-05T08:58:09.860Z</time>
      </trkpt>
      <trkpt lat="50.882327" lon="5.227321">
        <ele>56.923920</ele>
        <time>2020-10-05T08:58:26.217Z</time>
      </trkpt>
      <trkpt lat="50.882437" lon="5.226945">
        <ele>56.427198</ele>
        <time>2020-10-05T08:58:30.377Z</time>
      </trkpt>
      <trkpt lat="50.882647" lon="5.226549">
        <ele>55.807213</ele>
        <time>2020-10-05T08:58:35.523Z</time>
      </trkpt>
      <trkpt lat="50.883230" lon="5.225719">
        <ele>54.583284</ele>
        <time>2020-10-05T08:58:48.024Z</time>
      </trkpt>
      <trkpt lat="50.883437" lon="5.225425">
        <ele>54.199265</ele>
        <time>2020-10-05T08:58:52.590Z</time>
      </trkpt>
      <trkpt lat="50.883532" lon="5.225260">
        <ele>54.004551</ele>
        <time>2020-10-05T08:58:54.839Z</time>
      </trkpt>
      <trkpt lat="50.883809" lon="5.224620">
        <ele>53.328026</ele>
        <time>2020-10-05T08:59:03.213Z</time>
      </trkpt>
      <trkpt lat="50.883982" lon="5.223874">
        <ele>52.745468</ele>
        <time>2020-10-05T08:59:12.041Z</time>
      </trkpt>
      <trkpt lat="50.884030" lon="5.223414">
        <ele>52.604127</ele>
        <time>2020-10-05T08:59:17.409Z</time>
      </trkpt>
      <trkpt lat="50.884112" lon="5.221019">
        <ele>51.790534</ele>
        <time>2020-10-05T08:59:46.643Z</time>
      </trkpt>
      <trkpt lat="50.884211" lon="5.220577">
        <ele>51.453057</ele>
        <time>2020-10-05T08:59:51.873Z</time>
      </trkpt>
      <trkpt lat="50.884254" lon="5.220502">
        <ele>51.380139</ele>
        <time>2020-10-05T08:59:53.192Z</time>
      </trkpt>
      <trkpt lat="50.884344" lon="5.220403">
        <ele>51.255200</ele>
        <time>2020-10-05T08:59:54.955Z</time>
      </trkpt>
      <trkpt lat="50.884512" lon="5.220330">
        <ele>51.056529</ele>
        <time>2020-10-05T08:59:58.089Z</time>
      </trkpt>
      <trkpt lat="50.885702" lon="5.220263">
        <ele>49.616608</ele>
        <time>2020-10-05T09:00:17.718Z</time>
      </trkpt>
      <trkpt lat="50.886491" lon="5.220096">
        <ele>48.317885</ele>
        <time>2020-10-05T09:00:30.506Z</time>
      </trkpt>
      <trkpt lat="50.886771" lon="5.220022">
        <ele>47.854743</ele>
        <time>2020-10-05T09:00:35.093Z</time>
      </trkpt>
      <trkpt lat="50.887457" lon="5.219868">
        <ele>46.822709</ele>
        <time>2020-10-05T09:00:46.464Z</time>
      </trkpt>
      <trkpt lat="50.887986" lon="5.219763">
        <ele>46.325330</ele>
        <time>2020-10-05T09:00:55.220Z</time>
      </trkpt>
      <trkpt lat="50.888797" lon="5.219693">
        <ele>45.567594</ele>
        <time>2020-10-05T09:01:09.763Z</time>
      </trkpt>
      <trkpt lat="50.889220" lon="5.219697">
        <ele>45.327665</ele>
        <time>2020-10-05T09:01:17.728Z</time>
      </trkpt>
      <trkpt lat="50.889360" lon="5.219699">
        <ele>45.393038</ele>
        <time>2020-10-05T09:01:20.393Z</time>
      </trkpt>
      <trkpt lat="50.889401" lon="5.219481">
        <ele>45.460043</ele>
        <time>2020-10-05T09:01:23.557Z</time>
      </trkpt>
      <trkpt lat="50.889609" lon="5.218855">
        <ele>45.668445</ele>
        <time>2020-10-05T09:01:32.992Z</time>
      </trkpt>
      <trkpt lat="50.889717" lon="5.218552">
        <ele>45.770955</ele>
        <time>2020-10-05T09:01:37.977Z</time>
      </trkpt>
      <trkpt lat="50.889809" lon="5.218349">
        <ele>45.844579</ele>
        <time>2020-10-05T09:01:41.505Z</time>
      </trkpt>
      <trkpt lat="50.889979" lon="5.218044">
        <ele>45.964461</ele>
        <time>2020-10-05T09:01:47.631Z</time>
      </trkpt>
      <trkpt lat="50.890185" lon="5.217744">
        <ele>46.095075</ele>
        <time>2020-10-05T09:01:54.468Z</time>
      </trkpt>
      <trkpt lat="50.890902" lon="5.216695">
        <ele>47.050107</ele>
        <time>2020-10-05T09:02:19.103Z</time>
      </trkpt>
      <trkpt lat="50.892062" lon="5.215030">
        <ele>48.137502</ele>
        <time>2020-10-05T09:02:56.162Z</time>
      </trkpt>
      <trkpt lat="50.892115" lon="5.214966">
        <ele>48.158229</ele>
        <time>2020-10-05T09:02:57.868Z</time>
      </trkpt>
      <trkpt lat="50.892226" lon="5.214862">
        <ele>48.198340</ele>
        <time>2020-10-05T09:03:00.492Z</time>
      </trkpt>
      <trkpt lat="50.892885" lon="5.214283">
        <ele>48.432731</ele>
        <time>2020-10-05T09:03:15.652Z</time>
      </trkpt>
      <trkpt lat="50.893025" lon="5.214226">
        <ele>48.477698</ele>
        <time>2020-10-05T09:03:18.380Z</time>
      </trkpt>
      <trkpt lat="50.893135" lon="5.214213">
        <ele>48.442510</ele>
        <time>2020-10-05T09:03:20.648Z</time>
      </trkpt>
      <trkpt lat="50.893462" lon="5.214234">
        <ele>48.322307</ele>
        <time>2020-10-05T09:03:26.756Z</time>
      </trkpt>
      <trkpt lat="50.893569" lon="5.214208">
        <ele>48.282547</ele>
        <time>2020-10-05T09:03:28.679Z</time>
      </trkpt>
      <trkpt lat="50.893665" lon="5.214153">
        <ele>48.245056</ele>
        <time>2020-10-05T09:03:30.401Z</time>
      </trkpt>
      <trkpt lat="50.894539" lon="5.213298">
        <ele>47.867848</ele>
        <time>2020-10-05T09:03:49.547Z</time>
      </trkpt>
      <trkpt lat="50.894955" lon="5.212884">
        <ele>48.030315</ele>
        <time>2020-10-05T09:03:59.335Z</time>
      </trkpt>
      <trkpt lat="50.895319" lon="5.212532">
        <ele>48.280284</ele>
        <time>2020-10-05T09:04:08.669Z</time>
      </trkpt>
      <trkpt lat="50.896736" lon="5.211133">
        <ele>49.511664</ele>
        <time>2020-10-05T09:04:48.950Z</time>
      </trkpt>
      <trkpt lat="50.896988" lon="5.210761">
        <ele>49.846059</ele>
        <time>2020-10-05T09:04:57.434Z</time>
      </trkpt>
      <trkpt lat="50.897147" lon="5.210365">
        <ele>50.133607</ele>
        <time>2020-10-05T09:05:04.676Z</time>
      </trkpt>
      <trkpt lat="50.897647" lon="5.208282">
        <ele>51.204179</ele>
        <time>2020-10-05T09:05:37.996Z</time>
      </trkpt>
      <trkpt lat="50.897700" lon="5.208212">
        <ele>51.248690</ele>
        <time>2020-10-05T09:05:39.635Z</time>
      </trkpt>
      <trkpt lat="50.898265" lon="5.209277">
        <ele>51.776645</ele>
        <time>2020-10-05T09:05:59.127Z</time>
      </trkpt>
      <trkpt lat="50.898496" lon="5.209722">
        <ele>51.743030</ele>
        <time>2020-10-05T09:06:06.838Z</time>
      </trkpt>
      <trkpt lat="50.898602" lon="5.209714">
        <ele>51.733216</ele>
        <time>2020-10-05T09:06:08.488Z</time>
      </trkpt>
      <trkpt lat="50.898948" lon="5.209940">
        <ele>51.698611</ele>
        <time>2020-10-05T09:06:14.095Z</time>
      </trkpt>
      <trkpt lat="50.899080" lon="5.209971">
        <ele>51.686271</ele>
        <time>2020-10-05T09:06:16.016Z</time>
      </trkpt>
      <trkpt lat="50.900108" lon="5.209605">
        <ele>51.344736</ele>
        <time>2020-10-05T09:06:30.278Z</time>
      </trkpt>
      <trkpt lat="50.900578" lon="5.209394">
        <ele>50.880166</ele>
        <time>2020-10-05T09:06:36.457Z</time>
      </trkpt>
      <trkpt lat="50.902700" lon="5.208002">
        <ele>48.104158</ele>
        <time>2020-10-05T09:07:03.654Z</time>
      </trkpt>
      <trkpt lat="50.902796" lon="5.207926">
        <ele>47.952118</ele>
        <time>2020-10-05T09:07:04.860Z</time>
      </trkpt>
      <trkpt lat="50.902883" lon="5.207840">
        <ele>47.806849</ele>
        <time>2020-10-05T09:07:05.998Z</time>
      </trkpt>
      <trkpt lat="50.903476" lon="5.206450">
        <ele>46.263777</ele>
        <time>2020-10-05T09:07:17.944Z</time>
      </trkpt>
      <trkpt lat="50.904188" lon="5.204714">
        <ele>44.554291</ele>
        <time>2020-10-05T09:07:33.288Z</time>
      </trkpt>
      <trkpt lat="50.904285" lon="5.204542">
        <ele>44.467617</ele>
        <time>2020-10-05T09:07:35.028Z</time>
      </trkpt>
      <trkpt lat="50.904576" lon="5.204131">
        <ele>44.235501</ele>
        <time>2020-10-05T09:07:39.880Z</time>
      </trkpt>
      <trkpt lat="50.905980" lon="5.202605">
        <ele>43.849378</ele>
        <time>2020-10-05T09:08:04.169Z</time>
      </trkpt>
      <trkpt lat="50.906427" lon="5.202145">
        <ele>44.019575</ele>
        <time>2020-10-05T09:08:13.251Z</time>
      </trkpt>
      <trkpt lat="50.906584" lon="5.201984">
        <ele>44.079291</ele>
        <time>2020-10-05T09:08:16.430Z</time>
      </trkpt>
      <trkpt lat="50.906883" lon="5.201686">
        <ele>44.192084</ele>
        <time>2020-10-05T09:08:22.565Z</time>
      </trkpt>
      <trkpt lat="50.907009" lon="5.201621">
        <ele>44.254510</ele>
        <time>2020-10-05T09:08:24.905Z</time>
      </trkpt>
      <trkpt lat="50.907027" lon="5.201676">
        <ele>44.275450</ele>
        <time>2020-10-05T09:08:25.625Z</time>
      </trkpt>
      <trkpt lat="50.907067" lon="5.201724">
        <ele>44.302332</ele>
        <time>2020-10-05T09:08:26.525Z</time>
      </trkpt>
      <trkpt lat="50.907112" lon="5.201735">
        <ele>44.326732</ele>
        <time>2020-10-05T09:08:27.386Z</time>
      </trkpt>
      <trkpt lat="50.907148" lon="5.201725">
        <ele>44.346318</ele>
        <time>2020-10-05T09:08:27.967Z</time>
      </trkpt>
      <trkpt lat="50.907207" lon="5.201604">
        <ele>44.398006</ele>
        <time>2020-10-05T09:08:29.625Z</time>
      </trkpt>
      <trkpt lat="50.907208" lon="5.201549">
        <ele>44.416600</ele>
        <time>2020-10-05T09:08:30.204Z</time>
      </trkpt>
      <trkpt lat="50.907372" lon="5.201458">
        <ele>44.509712</ele>
        <time>2020-10-05T09:08:33.455Z</time>
      </trkpt>
      <trkpt lat="50.908112" lon="5.200871">
        <ele>44.953122</ele>
        <time>2020-10-05T09:08:47.809Z</time>
      </trkpt>
      <trkpt lat="50.909177" lon="5.199739">
        <ele>45.093875</ele>
        <time>2020-10-05T09:09:07.843Z</time>
      </trkpt>
      <trkpt lat="50.909195" lon="5.199721">
        <ele>45.092067</ele>
        <time>2020-10-05T09:09:08.080Z</time>
      </trkpt>
      <trkpt lat="50.909881" lon="5.198974">
        <ele>45.021366</ele>
        <time>2020-10-05T09:09:19.527Z</time>
      </trkpt>
      <trkpt lat="50.910129" lon="5.198660">
        <ele>44.809504</ele>
        <time>2020-10-05T09:09:23.707Z</time>
      </trkpt>
      <trkpt lat="50.910445" lon="5.198236">
        <ele>44.470675</ele>
        <time>2020-10-05T09:09:29.066Z</time>
      </trkpt>
      <trkpt lat="50.911716" lon="5.196493">
        <ele>42.846380</ele>
        <time>2020-10-05T09:09:49.659Z</time>
      </trkpt>
      <trkpt lat="50.911898" lon="5.196269">
        <ele>42.553099</ele>
        <time>2020-10-05T09:09:52.436Z</time>
      </trkpt>
      <trkpt lat="50.912008" lon="5.196133">
        <ele>42.375538</ele>
        <time>2020-10-05T09:09:54.060Z</time>
      </trkpt>
      <trkpt lat="50.912306" lon="5.195824">
        <ele>41.922278</ele>
        <time>2020-10-05T09:09:58.259Z</time>
      </trkpt>
      <trkpt lat="50.913370" lon="5.194931">
        <ele>40.197083</ele>
        <time>2020-10-05T09:10:12.124Z</time>
      </trkpt>
      <trkpt lat="50.914683" lon="5.193861">
        <ele>38.014409</ele>
        <time>2020-10-05T09:10:28.966Z</time>
      </trkpt>
      <trkpt lat="50.914823" lon="5.193747">
        <ele>37.820528</ele>
        <time>2020-10-05T09:10:30.728Z</time>
      </trkpt>
      <trkpt lat="50.915255" lon="5.193426">
        <ele>37.232797</ele>
        <time>2020-10-05T09:10:36.372Z</time>
      </trkpt>
      <trkpt lat="50.915591" lon="5.193069">
        <ele>36.734554</ele>
        <time>2020-10-05T09:10:41.218Z</time>
      </trkpt>
      <trkpt lat="50.916258" lon="5.191794">
        <ele>36.153328</ele>
        <time>2020-10-05T09:10:54.464Z</time>
      </trkpt>
      <trkpt lat="50.916366" lon="5.191602">
        <ele>36.132088</ele>
        <time>2020-10-05T09:10:56.800Z</time>
      </trkpt>
      <trkpt lat="50.916489" lon="5.191438">
        <ele>36.111050</ele>
        <time>2020-10-05T09:10:59.125Z</time>
      </trkpt>
      <trkpt lat="50.916857" lon="5.191161">
        <ele>36.057718</ele>
        <time>2020-10-05T09:11:05.365Z</time>
      </trkpt>
      <trkpt lat="50.917251" lon="5.191043">
        <ele>36.005221</ele>
        <time>2020-10-05T09:11:11.903Z</time>
      </trkpt>
      <trkpt lat="50.918048" lon="5.190809">
        <ele>36.528548</ele>
        <time>2020-10-05T09:11:26.262Z</time>
      </trkpt>
      <trkpt lat="50.919209" lon="5.190450">
        <ele>37.215703</ele>
        <time>2020-10-05T09:11:47.451Z</time>
      </trkpt>
      <trkpt lat="50.919736" lon="5.190283">
        <ele>37.232655</ele>
        <time>2020-10-05T09:11:56.108Z</time>
      </trkpt>
      <trkpt lat="50.920142" lon="5.190171">
        <ele>37.245653</ele>
        <time>2020-10-05T09:12:02.260Z</time>
      </trkpt>
      <trkpt lat="50.920372" lon="5.190139">
        <ele>37.252936</ele>
        <time>2020-10-05T09:12:05.616Z</time>
      </trkpt>
      <trkpt lat="50.920620" lon="5.190116">
        <ele>37.260772</ele>
        <time>2020-10-05T09:12:09.009Z</time>
      </trkpt>
      <trkpt lat="50.921059" lon="5.190189">
        <ele>37.091066</ele>
        <time>2020-10-05T09:12:14.832Z</time>
      </trkpt>
      <trkpt lat="50.921851" lon="5.190453">
        <ele>36.496722</ele>
        <time>2020-10-05T09:12:24.946Z</time>
      </trkpt>
      <trkpt lat="50.922107" lon="5.190528">
        <ele>36.305538</ele>
        <time>2020-10-05T09:12:28.176Z</time>
      </trkpt>
      <trkpt lat="50.922211" lon="5.190552">
        <ele>36.228356</ele>
        <time>2020-10-05T09:12:29.478Z</time>
      </trkpt>
      <trkpt lat="50.922279" lon="5.188958">
        <ele>35.546142</ele>
        <time>2020-10-05T09:12:47.667Z</time>
      </trkpt>
      <trkpt lat="50.922408" lon="5.187351">
        <ele>34.890293</ele>
        <time>2020-10-05T09:13:06.340Z</time>
      </trkpt>
      <trkpt lat="50.922734" lon="5.186503">
        <ele>34.368358</ele>
        <time>2020-10-05T09:13:17.920Z</time>
      </trkpt>
      <trkpt lat="50.922934" lon="5.186117">
        <ele>34.086049</ele>
        <time>2020-10-05T09:13:23.572Z</time>
      </trkpt>
      <trkpt lat="50.923090" lon="5.185865">
        <ele>33.886493</ele>
        <time>2020-10-05T09:13:27.336Z</time>
      </trkpt>
      <trkpt lat="50.923854" lon="5.185009">
        <ele>33.068361</ele>
        <time>2020-10-05T09:13:43.530Z</time>
      </trkpt>
      <trkpt lat="50.924084" lon="5.184711">
        <ele>32.843332</ele>
        <time>2020-10-05T09:13:48.754Z</time>
      </trkpt>
      <trkpt lat="50.924140" lon="5.184640">
        <ele>32.789010</ele>
        <time>2020-10-05T09:13:49.883Z</time>
      </trkpt>
      <trkpt lat="50.924817" lon="5.183456">
        <ele>32.025449</ele>
        <time>2020-10-05T09:14:07.746Z</time>
      </trkpt>
      <trkpt lat="50.925157" lon="5.182606">
        <ele>31.873447</ele>
        <time>2020-10-05T09:14:20.068Z</time>
      </trkpt>
      <trkpt lat="50.925433" lon="5.181705">
        <ele>31.974816</ele>
        <time>2020-10-05T09:14:33.654Z</time>
      </trkpt>
      <trkpt lat="50.925520" lon="5.181337">
        <ele>32.014587</ele>
        <time>2020-10-05T09:14:38.957Z</time>
      </trkpt>
      <trkpt lat="50.925536" lon="5.181267">
        <ele>32.022121</ele>
        <time>2020-10-05T09:14:40.153Z</time>
      </trkpt>
      <trkpt lat="50.925780" lon="5.180374">
        <ele>32.127949</ele>
        <time>2020-10-05T09:14:53.204Z</time>
      </trkpt>
      <trkpt lat="50.925826" lon="5.180232">
        <ele>32.151561</ele>
        <time>2020-10-05T09:14:55.663Z</time>
      </trkpt>
      <trkpt lat="50.925882" lon="5.180083">
        <ele>32.177217</ele>
        <time>2020-10-05T09:14:57.840Z</time>
      </trkpt>
      <trkpt lat="50.926212" lon="5.179353">
        <ele>32.310072</ele>
        <time>2020-10-05T09:15:10.227Z</time>
      </trkpt>
      <trkpt lat="50.927608" lon="5.176684">
        <ele>32.774998</ele>
        <time>2020-10-05T09:15:55.581Z</time>
      </trkpt>
      <trkpt lat="50.927667" lon="5.176361">
        <ele>32.816675</ele>
        <time>2020-10-05T09:16:00.145Z</time>
      </trkpt>
      <trkpt lat="50.927711" lon="5.175353">
        <ele>32.905236</ele>
        <time>2020-10-05T09:16:13.991Z</time>
      </trkpt>
      <trkpt lat="50.927939" lon="5.174008">
        <ele>32.974998</ele>
        <time>2020-10-05T09:16:32.160Z</time>
      </trkpt>
      <trkpt lat="50.927958" lon="5.173882">
        <ele>32.981487</ele>
        <time>2020-10-05T09:16:33.858Z</time>
      </trkpt>
      <trkpt lat="50.927981" lon="5.173723">
        <ele>32.989658</ele>
        <time>2020-10-05T09:16:35.989Z</time>
      </trkpt>
      <trkpt lat="50.928227" lon="5.173836">
        <ele>33.010009</ele>
        <time>2020-10-05T09:16:39.677Z</time>
      </trkpt>
      <trkpt lat="50.928566" lon="5.173867">
        <ele>32.972913</ele>
        <time>2020-10-05T09:16:44.528Z</time>
      </trkpt>
      <trkpt lat="50.928825" lon="5.173774">
        <ele>32.895252</ele>
        <time>2020-10-05T09:16:48.267Z</time>
      </trkpt>
      <trkpt lat="50.928966" lon="5.173705">
        <ele>32.852100</ele>
        <time>2020-10-05T09:16:50.327Z</time>
      </trkpt>
      <trkpt lat="50.929118" lon="5.173635">
        <ele>32.805813</ele>
        <time>2020-10-05T09:16:52.501Z</time>
      </trkpt>
      <trkpt lat="50.929612" lon="5.173384">
        <ele>32.654115</ele>
        <time>2020-10-05T09:16:59.455Z</time>
      </trkpt>
      <trkpt lat="50.930811" lon="5.172518">
        <ele>32.297267</ele>
        <time>2020-10-05T09:17:17.524Z</time>
      </trkpt>
      <trkpt lat="50.931661" lon="5.172151">
        <ele>32.071698</ele>
        <time>2020-10-05T09:17:29.924Z</time>
      </trkpt>
      <trkpt lat="50.931824" lon="5.172087">
        <ele>32.042010</ele>
        <time>2020-10-05T09:17:32.306Z</time>
      </trkpt>
      <trkpt lat="50.931971" lon="5.172062">
        <ele>32.066992</ele>
        <time>2020-10-05T09:17:34.412Z</time>
      </trkpt>
      <trkpt lat="50.932695" lon="5.172079">
        <ele>32.189342</ele>
        <time>2020-10-05T09:17:45.040Z</time>
      </trkpt>
      <trkpt lat="50.933047" lon="5.172086">
        <ele>32.248826</ele>
        <time>2020-10-05T09:17:50.411Z</time>
      </trkpt>
      <trkpt lat="50.933461" lon="5.172078">
        <ele>32.318786</ele>
        <time>2020-10-05T09:17:57.059Z</time>
      </trkpt>
      <trkpt lat="50.934327" lon="5.171972">
        <ele>33.066995</ele>
        <time>2020-10-05T09:18:12.969Z</time>
      </trkpt>
      <trkpt lat="50.934984" lon="5.171891">
        <ele>33.714501</ele>
        <time>2020-10-05T09:18:25.656Z</time>
      </trkpt>
      <trkpt lat="50.935168" lon="5.171868">
        <ele>33.895857</ele>
        <time>2020-10-05T09:18:29.495Z</time>
      </trkpt>
      <trkpt lat="50.935370" lon="5.171848">
        <ele>34.094725</ele>
        <time>2020-10-05T09:18:33.280Z</time>
      </trkpt>
      <trkpt lat="50.935495" lon="5.171740">
        <ele>34.215285</ele>
        <time>2020-10-05T09:18:36.259Z</time>
      </trkpt>
      <trkpt lat="50.935893" lon="5.171105">
        <ele>34.685358</ele>
        <time>2020-10-05T09:18:46.911Z</time>
      </trkpt>
      <trkpt lat="50.936618" lon="5.170339">
        <ele>35.410798</ele>
        <time>2020-10-05T09:19:03.315Z</time>
      </trkpt>
      <trkpt lat="50.936835" lon="5.170136">
        <ele>35.598813</ele>
        <time>2020-10-05T09:19:07.377Z</time>
      </trkpt>
      <trkpt lat="50.936992" lon="5.169973">
        <ele>35.521585</ele>
        <time>2020-10-05T09:19:10.041Z</time>
      </trkpt>
      <trkpt lat="50.937013" lon="5.169951">
        <ele>35.511227</ele>
        <time>2020-10-05T09:19:10.481Z</time>
      </trkpt>
      <trkpt lat="50.937062" lon="5.169890">
        <ele>35.485591</ele>
        <time>2020-10-05T09:19:11.662Z</time>
      </trkpt>
      <trkpt lat="50.937085" lon="5.169856">
        <ele>35.472652</ele>
        <time>2020-10-05T09:19:12.273Z</time>
      </trkpt>
      <trkpt lat="50.937047" lon="5.169784">
        <ele>35.448290</ele>
        <time>2020-10-05T09:19:13.673Z</time>
      </trkpt>
      <trkpt lat="50.936925" lon="5.169474">
        <ele>35.353484</ele>
        <time>2020-10-05T09:19:17.972Z</time>
      </trkpt>
      <trkpt lat="50.936865" lon="5.169110">
        <ele>35.255886</ele>
        <time>2020-10-05T09:19:22.507Z</time>
      </trkpt>
      <trkpt lat="50.936890" lon="5.168342">
        <ele>35.056402</ele>
        <time>2020-10-05T09:19:31.356Z</time>
      </trkpt>
      <trkpt lat="50.936919" lon="5.168247">
        <ele>35.029020</ele>
        <time>2020-10-05T09:19:32.493Z</time>
      </trkpt>
      <trkpt lat="50.936962" lon="5.168159">
        <ele>35.000135</ele>
        <time>2020-10-05T09:19:33.845Z</time>
      </trkpt>
      <trkpt lat="50.936973" lon="5.168095">
        <ele>34.982927</ele>
        <time>2020-10-05T09:19:34.583Z</time>
      </trkpt>
      <trkpt lat="50.936971" lon="5.168029">
        <ele>34.965787</ele>
        <time>2020-10-05T09:19:35.325Z</time>
      </trkpt>
      <trkpt lat="50.936961" lon="5.167974">
        <ele>34.950938</ele>
        <time>2020-10-05T09:19:35.973Z</time>
      </trkpt>
      <trkpt lat="50.936939" lon="5.167919">
        <ele>34.934040</ele>
        <time>2020-10-05T09:19:36.719Z</time>
      </trkpt>
      <trkpt lat="50.936933" lon="5.167832">
        <ele>34.911337</ele>
        <time>2020-10-05T09:19:37.644Z</time>
      </trkpt>
      <trkpt lat="50.937057" lon="5.167217">
        <ele>34.517770</ele>
        <time>2020-10-05T09:19:44.881Z</time>
      </trkpt>
      <trkpt lat="50.937036" lon="5.167141">
        <ele>34.456291</ele>
        <time>2020-10-05T09:19:45.703Z</time>
      </trkpt>
      <trkpt lat="50.937119" lon="5.166846">
        <ele>34.216950</ele>
        <time>2020-10-05T09:19:49.283Z</time>
      </trkpt>
      <trkpt lat="50.937149" lon="5.166577">
        <ele>34.014567</ele>
        <time>2020-10-05T09:19:52.111Z</time>
      </trkpt>
      <trkpt lat="50.937159" lon="5.166319">
        <ele>33.823069</ele>
        <time>2020-10-05T09:19:54.911Z</time>
      </trkpt>
      <trkpt lat="50.937505" lon="5.166315">
        <ele>33.416296</ele>
        <time>2020-10-05T09:19:58.859Z</time>
      </trkpt>
      <trkpt lat="50.938102" lon="5.166315">
        <ele>32.721456</ele>
        <time>2020-10-05T09:20:06.012Z</time>
      </trkpt>
      <trkpt lat="50.938690" lon="5.166402">
        <ele>32.159714</ele>
        <time>2020-10-05T09:20:13.111Z</time>
      </trkpt>
      <trkpt lat="50.938757" lon="5.166416">
        <ele>32.095432</ele>
        <time>2020-10-05T09:20:13.976Z</time>
      </trkpt>
      <trkpt lat="50.938797" lon="5.166421">
        <ele>32.057266</ele>
        <time>2020-10-05T09:20:14.705Z</time>
      </trkpt>
      <trkpt lat="50.938834" lon="5.166425">
        <ele>32.021989</ele>
        <time>2020-10-05T09:20:15.374Z</time>
      </trkpt>
      <trkpt lat="50.938838" lon="5.166312">
        <ele>31.954149</ele>
        <time>2020-10-05T09:20:16.531Z</time>
      </trkpt>
      <trkpt lat="50.938936" lon="5.166095">
        <ele>31.794122</ele>
        <time>2020-10-05T09:20:19.540Z</time>
      </trkpt>
      <trkpt lat="50.939384" lon="5.165623">
        <ele>31.282612</ele>
        <time>2020-10-05T09:20:29.083Z</time>
      </trkpt>
      <trkpt lat="50.939426" lon="5.165580">
        <ele>31.235068</ele>
        <time>2020-10-05T09:20:29.875Z</time>
      </trkpt>
      <trkpt lat="50.939580" lon="5.165320">
        <ele>31.027966</ele>
        <time>2020-10-05T09:20:34.098Z</time>
      </trkpt>
      <trkpt lat="50.939872" lon="5.164588">
        <ele>30.693535</ele>
        <time>2020-10-05T09:20:43.855Z</time>
      </trkpt>
      <trkpt lat="50.939908" lon="5.164518">
        <ele>30.658656</ele>
        <time>2020-10-05T09:20:44.938Z</time>
      </trkpt>
      <trkpt lat="50.940131" lon="5.164156">
        <ele>30.463234</ele>
        <time>2020-10-05T09:20:50.896Z</time>
      </trkpt>
      <trkpt lat="50.940435" lon="5.163721">
        <ele>30.212477</ele>
        <time>2020-10-05T09:20:58.437Z</time>
      </trkpt>
      <trkpt lat="50.940695" lon="5.163485">
        <ele>30.028988</ele>
        <time>2020-10-05T09:21:04.002Z</time>
      </trkpt>
      <trkpt lat="50.940713" lon="5.163472">
        <ele>30.016873</ele>
        <time>2020-10-05T09:21:04.346Z</time>
      </trkpt>
      <trkpt lat="50.940752" lon="5.163472">
        <ele>29.992981</ele>
        <time>2020-10-05T09:21:05.133Z</time>
      </trkpt>
      <trkpt lat="50.940774" lon="5.163485">
        <ele>29.978600</ele>
        <time>2020-10-05T09:21:05.589Z</time>
      </trkpt>
      <trkpt lat="50.940827" lon="5.163499">
        <ele>29.945685</ele>
        <time>2020-10-05T09:21:06.637Z</time>
      </trkpt>
      <trkpt lat="50.940853" lon="5.163519">
        <ele>29.926020</ele>
        <time>2020-10-05T09:21:07.201Z</time>
      </trkpt>
      <trkpt lat="50.940865" lon="5.163476">
        <ele>29.904435</ele>
        <time>2020-10-05T09:21:07.748Z</time>
      </trkpt>
      <trkpt lat="50.940878" lon="5.163421">
        <ele>29.877473</ele>
        <time>2020-10-05T09:21:08.441Z</time>
      </trkpt>
      <trkpt lat="50.940837" lon="5.163332">
        <ele>29.826871</ele>
        <time>2020-10-05T09:21:09.649Z</time>
      </trkpt>
      <trkpt lat="50.940871" lon="5.162903">
        <ele>29.628415</ele>
        <time>2020-10-05T09:21:14.669Z</time>
      </trkpt>
      <trkpt lat="50.940965" lon="5.162528">
        <ele>29.443178</ele>
        <time>2020-10-05T09:21:19.184Z</time>
      </trkpt>
      <trkpt lat="50.940976" lon="5.162460">
        <ele>29.410955</ele>
        <time>2020-10-05T09:21:20.008Z</time>
      </trkpt>
      <trkpt lat="50.940964" lon="5.162452">
        <ele>29.401474</ele>
        <time>2020-10-05T09:21:20.265Z</time>
      </trkpt>
      <trkpt lat="50.940923" lon="5.162431">
        <ele>29.370092</ele>
        <time>2020-10-05T09:21:21.050Z</time>
      </trkpt>
      <trkpt lat="50.940872" lon="5.162408">
        <ele>29.331473</ele>
        <time>2020-10-05T09:21:21.722Z</time>
      </trkpt>
      <trkpt lat="50.940851" lon="5.162393">
        <ele>29.314698</ele>
        <time>2020-10-05T09:21:22.015Z</time>
      </trkpt>
      <trkpt lat="50.940818" lon="5.162368">
        <ele>29.288063</ele>
        <time>2020-10-05T09:21:22.404Z</time>
      </trkpt>
      <trkpt lat="50.940850" lon="5.161365">
        <ele>28.827112</ele>
        <time>2020-10-05T09:21:30.507Z</time>
      </trkpt>
      <trkpt lat="50.940911" lon="5.160126">
        <ele>28.182801</ele>
        <time>2020-10-05T09:21:40.309Z</time>
      </trkpt>
      <trkpt lat="50.940922" lon="5.159916">
        <ele>28.066845</ele>
        <time>2020-10-05T09:21:41.911Z</time>
      </trkpt>
      <trkpt lat="50.940984" lon="5.158381">
        <ele>27.220445</ele>
        <time>2020-10-05T09:21:53.915Z</time>
      </trkpt>
      <trkpt lat="50.941062" lon="5.156450">
        <ele>26.505660</ele>
        <time>2020-10-05T09:22:09.847Z</time>
      </trkpt>
      <trkpt lat="50.941144" lon="5.154484">
        <ele>25.866650</ele>
        <time>2020-10-05T09:22:26.740Z</time>
      </trkpt>
      <trkpt lat="50.941200" lon="5.153014">
        <ele>25.418459</ele>
        <time>2020-10-05T09:22:39.343Z</time>
      </trkpt>
      <trkpt lat="50.941205" lon="5.152120">
        <ele>25.081114</ele>
        <time>2020-10-05T09:22:46.623Z</time>
      </trkpt>
      <trkpt lat="50.941148" lon="5.151152">
        <ele>24.547614</ele>
        <time>2020-10-05T09:22:54.030Z</time>
      </trkpt>
      <trkpt lat="50.941166" lon="5.150889">
        <ele>24.402446</ele>
        <time>2020-10-05T09:22:56.002Z</time>
      </trkpt>
      <trkpt lat="50.941285" lon="5.149911">
        <ele>23.855859</ele>
        <time>2020-10-05T09:23:03.666Z</time>
      </trkpt>
      <trkpt lat="50.941405" lon="5.148953">
        <ele>23.629139</ele>
        <time>2020-10-05T09:23:11.826Z</time>
      </trkpt>
      <trkpt lat="50.941432" lon="5.148737">
        <ele>23.617769</ele>
        <time>2020-10-05T09:23:13.704Z</time>
      </trkpt>
      <trkpt lat="50.941892" lon="5.147177">
        <ele>23.528840</ele>
        <time>2020-10-05T09:23:29.698Z</time>
      </trkpt>
      <trkpt lat="50.942437" lon="5.145725">
        <ele>23.942445</ele>
        <time>2020-10-05T09:23:48.340Z</time>
      </trkpt>
      <trkpt lat="50.943063" lon="5.144395">
        <ele>24.395378</ele>
        <time>2020-10-05T09:24:06.013Z</time>
      </trkpt>
      <trkpt lat="50.943200" lon="5.143869">
        <ele>24.417134</ele>
        <time>2020-10-05T09:24:11.918Z</time>
      </trkpt>
      <trkpt lat="50.943489" lon="5.142317">
        <ele>24.478993</ele>
        <time>2020-10-05T09:24:26.586Z</time>
      </trkpt>
      <trkpt lat="50.943552" lon="5.141953">
        <ele>24.493421</ele>
        <time>2020-10-05T09:24:30.249Z</time>
      </trkpt>
      <trkpt lat="50.943652" lon="5.141381">
        <ele>24.500349</ele>
        <time>2020-10-05T09:24:35.659Z</time>
      </trkpt>
      <trkpt lat="50.943821" lon="5.140690">
        <ele>24.505769</ele>
        <time>2020-10-05T09:24:42.410Z</time>
      </trkpt>
      <trkpt lat="50.943827" lon="5.140663">
        <ele>24.505978</ele>
        <time>2020-10-05T09:24:42.704Z</time>
      </trkpt>
      <trkpt lat="50.943941" lon="5.140212">
        <ele>24.509531</ele>
        <time>2020-10-05T09:24:47.291Z</time>
      </trkpt>
      <trkpt lat="50.944121" lon="5.140180">
        <ele>24.511633</ele>
        <time>2020-10-05T09:24:51.137Z</time>
      </trkpt>
      <trkpt lat="50.944736" lon="5.139564">
        <ele>24.535751</ele>
        <time>2020-10-05T09:25:05.649Z</time>
      </trkpt>
      <trkpt lat="50.944866" lon="5.139501">
        <ele>24.546917</ele>
        <time>2020-10-05T09:25:08.369Z</time>
      </trkpt>
      <trkpt lat="50.944944" lon="5.139488">
        <ele>24.553359</ele>
        <time>2020-10-05T09:25:10.116Z</time>
      </trkpt>
      <trkpt lat="50.945028" lon="5.139500">
        <ele>24.560287</ele>
        <time>2020-10-05T09:25:11.992Z</time>
      </trkpt>
      <trkpt lat="50.945155" lon="5.139554">
        <ele>24.571088</ele>
        <time>2020-10-05T09:25:14.796Z</time>
      </trkpt>
      <trkpt lat="50.945180" lon="5.139572">
        <ele>24.573343</ele>
        <time>2020-10-05T09:25:15.401Z</time>
      </trkpt>
      <trkpt lat="50.945254" lon="5.139665">
        <ele>24.581097</ele>
        <time>2020-10-05T09:25:17.452Z</time>
      </trkpt>
      <trkpt lat="50.945313" lon="5.139752">
        <ele>24.587712</ele>
        <time>2020-10-05T09:25:19.205Z</time>
      </trkpt>
      <trkpt lat="50.945460" lon="5.138984">
        <ele>24.629255</ele>
        <time>2020-10-05T09:25:29.579Z</time>
      </trkpt>
      <trkpt lat="50.945682" lon="5.137819">
        <ele>24.641165</ele>
        <time>2020-10-05T09:25:45.106Z</time>
      </trkpt>
      <trkpt lat="50.945780" lon="5.137297">
        <ele>24.616028</ele>
        <time>2020-10-05T09:25:51.848Z</time>
      </trkpt>
      <trkpt lat="50.946266" lon="5.134831">
        <ele>24.463855</ele>
        <time>2020-10-05T09:26:24.372Z</time>
      </trkpt>
      <trkpt lat="50.946320" lon="5.134544">
        <ele>24.437634</ele>
        <time>2020-10-05T09:26:28.287Z</time>
      </trkpt>
      <trkpt lat="50.946323" lon="5.134443">
        <ele>24.428783</ele>
        <time>2020-10-05T09:26:29.490Z</time>
      </trkpt>
      <trkpt lat="50.946420" lon="5.133946">
        <ele>24.383234</ele>
        <time>2020-10-05T09:26:36.027Z</time>
      </trkpt>
      <trkpt lat="50.946432" lon="5.133877">
        <ele>24.376968</ele>
        <time>2020-10-05T09:26:36.852Z</time>
      </trkpt>
      <trkpt lat="50.946430" lon="5.133763">
        <ele>24.366984</ele>
        <time>2020-10-05T09:26:38.246Z</time>
      </trkpt>
      <trkpt lat="50.946485" lon="5.133491">
        <ele>24.341977</ele>
        <time>2020-10-05T09:26:41.884Z</time>
      </trkpt>
      <trkpt lat="50.946509" lon="5.133367">
        <ele>24.330621</ele>
        <time>2020-10-05T09:26:43.438Z</time>
      </trkpt>
      <trkpt lat="50.947382" lon="5.128812">
        <ele>23.661756</ele>
        <time>2020-10-05T09:27:41.032Z</time>
      </trkpt>
      <trkpt lat="50.947600" lon="5.127619">
        <ele>23.573615</ele>
        <time>2020-10-05T09:27:57.140Z</time>
      </trkpt>
      <trkpt lat="50.948095" lon="5.125135">
        <ele>23.763950</ele>
        <time>2020-10-05T09:28:31.522Z</time>
      </trkpt>
      <trkpt lat="50.948571" lon="5.122654">
        <ele>23.858573</ele>
        <time>2020-10-05T09:29:05.005Z</time>
      </trkpt>
      <trkpt lat="50.948810" lon="5.121398">
        <ele>23.853343</ele>
        <time>2020-10-05T09:29:21.621Z</time>
      </trkpt>
      <trkpt lat="50.948911" lon="5.120819">
        <ele>23.827853</ele>
        <time>2020-10-05T09:29:29.166Z</time>
      </trkpt>
      <trkpt lat="50.948960" lon="5.120522">
        <ele>23.814827</ele>
        <time>2020-10-05T09:29:33.043Z</time>
      </trkpt>
      <trkpt lat="50.949043" lon="5.119996">
        <ele>23.791821</ele>
        <time>2020-10-05T09:29:39.768Z</time>
      </trkpt>
      <trkpt lat="50.949107" lon="5.119497">
        <ele>23.770215</ele>
        <time>2020-10-05T09:29:46.156Z</time>
      </trkpt>
      <trkpt lat="50.949319" lon="5.117474">
        <ele>23.738343</ele>
        <time>2020-10-05T09:30:12.477Z</time>
      </trkpt>
      <trkpt lat="50.949385" lon="5.116861">
        <ele>23.731981</ele>
        <time>2020-10-05T09:30:20.366Z</time>
      </trkpt>
      <trkpt lat="50.949466" lon="5.116312">
        <ele>23.720953</ele>
        <time>2020-10-05T09:30:27.473Z</time>
      </trkpt>
      <trkpt lat="50.949502" lon="5.116134">
        <ele>23.696330</ele>
        <time>2020-10-05T09:30:30.067Z</time>
      </trkpt>
      <trkpt lat="50.949529" lon="5.116095">
        <ele>23.688697</ele>
        <time>2020-10-05T09:30:30.758Z</time>
      </trkpt>
      <trkpt lat="50.949554" lon="5.115942">
        <ele>23.667878</ele>
        <time>2020-10-05T09:30:32.631Z</time>
      </trkpt>
      <trkpt lat="50.949583" lon="5.115764">
        <ele>23.643662</ele>
        <time>2020-10-05T09:30:34.949Z</time>
      </trkpt>
      <trkpt lat="50.949607" lon="5.115619">
        <ele>23.623915</ele>
        <time>2020-10-05T09:30:37.021Z</time>
      </trkpt>
      <trkpt lat="50.949601" lon="5.115568">
        <ele>23.617081</ele>
        <time>2020-10-05T09:30:37.685Z</time>
      </trkpt>
      <trkpt lat="50.949610" lon="5.115471">
        <ele>23.604167</ele>
        <time>2020-10-05T09:30:38.812Z</time>
      </trkpt>
      <trkpt lat="50.950172" lon="5.112824">
        <ele>23.304433</ele>
        <time>2020-10-05T09:31:12.498Z</time>
      </trkpt>
      <trkpt lat="50.950235" lon="5.112558">
        <ele>23.289318</ele>
        <time>2020-10-05T09:31:15.933Z</time>
      </trkpt>
      <trkpt lat="50.950352" lon="5.112101">
        <ele>23.263081</ele>
        <time>2020-10-05T09:31:22.119Z</time>
      </trkpt>
      <trkpt lat="50.950629" lon="5.111154">
        <ele>23.207549</ele>
        <time>2020-10-05T09:31:35.533Z</time>
      </trkpt>
      <trkpt lat="50.953725" lon="5.102049">
        <ele>24.985406</ele>
        <time>2020-10-05T09:33:56.736Z</time>
      </trkpt>
      <trkpt lat="50.954877" lon="5.098688">
        <ele>24.133543</ele>
        <time>2020-10-05T09:34:41.189Z</time>
      </trkpt>
      <trkpt lat="50.955087" lon="5.098077">
        <ele>24.080638</ele>
        <time>2020-10-05T09:34:49.609Z</time>
      </trkpt>
      <trkpt lat="50.955578" lon="5.096643">
        <ele>24.198714</ele>
        <time>2020-10-05T09:35:10.764Z</time>
      </trkpt>
      <trkpt lat="50.955830" lon="5.096012">
        <ele>24.252763</ele>
        <time>2020-10-05T09:35:21.242Z</time>
      </trkpt>
      <trkpt lat="50.956235" lon="5.095041">
        <ele>24.593329</ele>
        <time>2020-10-05T09:35:37.775Z</time>
      </trkpt>
      <trkpt lat="50.956443" lon="5.094562">
        <ele>24.768981</ele>
        <time>2020-10-05T09:35:46.017Z</time>
      </trkpt>
      <trkpt lat="50.956556" lon="5.094307">
        <ele>24.863112</ele>
        <time>2020-10-05T09:35:50.420Z</time>
      </trkpt>
      <trkpt lat="50.956790" lon="5.093791">
        <ele>25.055074</ele>
        <time>2020-10-05T09:35:59.266Z</time>
      </trkpt>
      <trkpt lat="50.957303" lon="5.092695">
        <ele>25.256565</ele>
        <time>2020-10-05T09:36:17.859Z</time>
      </trkpt>
      <trkpt lat="50.958386" lon="5.090365">
        <ele>25.568440</ele>
        <time>2020-10-05T09:36:55.122Z</time>
      </trkpt>
      <trkpt lat="50.959124" lon="5.088776">
        <ele>25.672471</ele>
        <time>2020-10-05T09:37:21.494Z</time>
      </trkpt>
      <trkpt lat="50.959545" lon="5.087929">
        <ele>25.512540</ele>
        <time>2020-10-05T09:37:35.278Z</time>
      </trkpt>
      <trkpt lat="50.959697" lon="5.087611">
        <ele>25.453368</ele>
        <time>2020-10-05T09:37:40.173Z</time>
      </trkpt>
      <trkpt lat="50.959737" lon="5.087552">
        <ele>25.440520</ele>
        <time>2020-10-05T09:37:41.178Z</time>
      </trkpt>
      <trkpt lat="50.959758" lon="5.087536">
        <ele>25.435038</ele>
        <time>2020-10-05T09:37:41.611Z</time>
      </trkpt>
      <trkpt lat="50.959787" lon="5.087533">
        <ele>25.428199</ele>
        <time>2020-10-05T09:37:42.149Z</time>
      </trkpt>
      <trkpt lat="50.959797" lon="5.087467">
        <ele>25.418137</ele>
        <time>2020-10-05T09:37:42.986Z</time>
      </trkpt>
      <trkpt lat="50.959820" lon="5.087417">
        <ele>25.408960</ele>
        <time>2020-10-05T09:37:43.726Z</time>
      </trkpt>
      <trkpt lat="50.959864" lon="5.087319">
        <ele>25.391121</ele>
        <time>2020-10-05T09:37:45.158Z</time>
      </trkpt>
      <trkpt lat="50.959903" lon="5.087238">
        <ele>25.376009</ele>
        <time>2020-10-05T09:37:46.366Z</time>
      </trkpt>
      <trkpt lat="50.959914" lon="5.087151">
        <ele>25.362856</ele>
        <time>2020-10-05T09:37:47.420Z</time>
      </trkpt>
      <trkpt lat="50.959935" lon="5.087092">
        <ele>25.352811</ele>
        <time>2020-10-05T09:37:48.189Z</time>
      </trkpt>
      <trkpt lat="50.959984" lon="5.087014">
        <ele>25.336482</ele>
        <time>2020-10-05T09:37:49.470Z</time>
      </trkpt>
      <trkpt lat="50.960427" lon="5.086093">
        <ele>24.827394</ele>
        <time>2020-10-05T09:38:02.414Z</time>
      </trkpt>
      <trkpt lat="50.961079" lon="5.084838">
        <ele>23.966123</ele>
        <time>2020-10-05T09:38:20.263Z</time>
      </trkpt>
      <trkpt lat="50.961154" lon="5.084713">
        <ele>23.874726</ele>
        <time>2020-10-05T09:38:21.972Z</time>
      </trkpt>
      <trkpt lat="50.961201" lon="5.084685">
        <ele>23.832531</ele>
        <time>2020-10-05T09:38:22.968Z</time>
      </trkpt>
      <trkpt lat="50.961488" lon="5.084561">
        <ele>23.804733</ele>
        <time>2020-10-05T09:38:28.288Z</time>
      </trkpt>
      <trkpt lat="50.961564" lon="5.084301">
        <ele>23.820309</ele>
        <time>2020-10-05T09:38:32.322Z</time>
      </trkpt>
      <trkpt lat="50.961529" lon="5.083916">
        <ele>23.841447</ele>
        <time>2020-10-05T09:38:36.909Z</time>
      </trkpt>
      <trkpt lat="50.961539" lon="5.083848">
        <ele>23.845242</ele>
        <time>2020-10-05T09:38:38.168Z</time>
      </trkpt>
      <trkpt lat="50.961551" lon="5.083813">
        <ele>23.847407</ele>
        <time>2020-10-05T09:38:38.761Z</time>
      </trkpt>
      <trkpt lat="50.961573" lon="5.083755">
        <ele>23.851086</ele>
        <time>2020-10-05T09:38:39.638Z</time>
      </trkpt>
      <trkpt lat="50.961842" lon="5.083177">
        <ele>23.890140</ele>
        <time>2020-10-05T09:38:49.253Z</time>
      </trkpt>
      <trkpt lat="50.961880" lon="5.083093">
        <ele>23.895760</ele>
        <time>2020-10-05T09:38:50.404Z</time>
      </trkpt>
      <trkpt lat="50.962144" lon="5.082534">
        <ele>23.933727</ele>
        <time>2020-10-05T09:39:00.549Z</time>
      </trkpt>
      <trkpt lat="50.962169" lon="5.082432">
        <ele>23.940381</ele>
        <time>2020-10-05T09:39:02.532Z</time>
      </trkpt>
      <trkpt lat="50.962760" lon="5.081319">
        <ele>24.144973</ele>
        <time>2020-10-05T09:39:22.851Z</time>
      </trkpt>
      <trkpt lat="50.963305" lon="5.080623">
        <ele>24.301039</ele>
        <time>2020-10-05T09:39:37.604Z</time>
      </trkpt>
      <trkpt lat="50.964833" lon="5.079193">
        <ele>23.362160</ele>
        <time>2020-10-05T09:40:09.677Z</time>
      </trkpt>
      <trkpt lat="50.965047" lon="5.079146">
        <ele>23.236294</ele>
        <time>2020-10-05T09:40:13.544Z</time>
      </trkpt>
      <trkpt lat="50.965258" lon="5.079240">
        <ele>23.205095</ele>
        <time>2020-10-05T09:40:17.449Z</time>
      </trkpt>
      <trkpt lat="50.965358" lon="5.079099">
        <ele>23.186056</ele>
        <time>2020-10-05T09:40:19.912Z</time>
      </trkpt>
      <trkpt lat="50.965402" lon="5.079125">
        <ele>23.179372</ele>
        <time>2020-10-05T09:40:20.747Z</time>
      </trkpt>
      <trkpt lat="50.965580" lon="5.078983">
        <ele>23.151013</ele>
        <time>2020-10-05T09:40:24.445Z</time>
      </trkpt>
      <trkpt lat="50.965596" lon="5.078765">
        <ele>23.131336</ele>
        <time>2020-10-05T09:40:27.113Z</time>
      </trkpt>
      <trkpt lat="50.965611" lon="5.078677">
        <ele>23.123162</ele>
        <time>2020-10-05T09:40:28.139Z</time>
      </trkpt>
      <trkpt lat="50.965625" lon="5.078588">
        <ele>23.114937</ele>
        <time>2020-10-05T09:40:29.293Z</time>
      </trkpt>
      <trkpt lat="50.965668" lon="5.078433">
        <ele>23.099751</ele>
        <time>2020-10-05T09:40:31.436Z</time>
      </trkpt>
      <trkpt lat="50.966066" lon="5.078028">
        <ele>23.032454</ele>
        <time>2020-10-05T09:40:41.101Z</time>
      </trkpt>
      <trkpt lat="50.966155" lon="5.077933">
        <ele>23.017187</ele>
        <time>2020-10-05T09:40:43.253Z</time>
      </trkpt>
      <trkpt lat="50.966497" lon="5.077582">
        <ele>23.134086</ele>
        <time>2020-10-05T09:40:52.228Z</time>
      </trkpt>
      <trkpt lat="50.966929" lon="5.077110">
        <ele>23.627125</ele>
        <time>2020-10-05T09:41:04.549Z</time>
      </trkpt>
      <trkpt lat="50.968191" lon="5.075737">
        <ele>24.857898</ele>
        <time>2020-10-05T09:41:42.781Z</time>
      </trkpt>
      <trkpt lat="50.968419" lon="5.075454">
        <ele>24.985963</ele>
        <time>2020-10-05T09:41:49.588Z</time>
      </trkpt>
      <trkpt lat="50.969049" lon="5.074683">
        <ele>25.337951</ele>
        <time>2020-10-05T09:42:06.555Z</time>
      </trkpt>
      <trkpt lat="50.969237" lon="5.074455">
        <ele>25.442636</ele>
        <time>2020-10-05T09:42:11.314Z</time>
      </trkpt>
      <trkpt lat="50.970005" lon="5.073509">
        <ele>24.960676</ele>
        <time>2020-10-05T09:42:29.442Z</time>
      </trkpt>
      <trkpt lat="50.970118" lon="5.073371">
        <ele>24.881153</ele>
        <time>2020-10-05T09:42:31.933Z</time>
      </trkpt>
      <trkpt lat="50.971302" lon="5.071861">
        <ele>24.174551</ele>
        <time>2020-10-05T09:42:59.235Z</time>
      </trkpt>
      <trkpt lat="50.971436" lon="5.071692">
        <ele>24.110153</ele>
        <time>2020-10-05T09:43:02.402Z</time>
      </trkpt>
      <trkpt lat="50.971501" lon="5.071618">
        <ele>24.080055</ele>
        <time>2020-10-05T09:43:03.963Z</time>
      </trkpt>
      <trkpt lat="50.972301" lon="5.070649">
        <ele>24.049877</ele>
        <time>2020-10-05T09:43:23.881Z</time>
      </trkpt>
      <trkpt lat="50.972464" lon="5.070445">
        <ele>24.282435</ele>
        <time>2020-10-05T09:43:28.100Z</time>
      </trkpt>
      <trkpt lat="50.972436" lon="5.070356">
        <ele>24.352637</ele>
        <time>2020-10-05T09:43:29.592Z</time>
      </trkpt>
      <trkpt lat="50.972685" lon="5.070032">
        <ele>24.713360</ele>
        <time>2020-10-05T09:43:35.256Z</time>
      </trkpt>
      <trkpt lat="50.972713" lon="5.069994">
        <ele>24.754633</ele>
        <time>2020-10-05T09:43:36.117Z</time>
      </trkpt>
      <trkpt lat="50.973454" lon="5.068792">
        <ele>26.135800</ele>
        <time>2020-10-05T09:43:58.967Z</time>
      </trkpt>
      <trkpt lat="50.973547" lon="5.068585">
        <ele>26.569535</ele>
        <time>2020-10-05T09:44:03.037Z</time>
      </trkpt>
      <trkpt lat="50.973639" lon="5.068382">
        <ele>26.996146</ele>
        <time>2020-10-05T09:44:06.974Z</time>
      </trkpt>
      <trkpt lat="50.973837" lon="5.067944">
        <ele>27.915820</ele>
        <time>2020-10-05T09:44:15.997Z</time>
      </trkpt>
      <trkpt lat="50.974116" lon="5.067207">
        <ele>29.382587</ele>
        <time>2020-10-05T09:44:30.435Z</time>
      </trkpt>
      <trkpt lat="50.974405" lon="5.066303">
        <ele>31.013473</ele>
        <time>2020-10-05T09:44:48.282Z</time>
      </trkpt>
      <trkpt lat="50.974836" lon="5.064908">
        <ele>33.064648</ele>
        <time>2020-10-05T09:45:12.665Z</time>
      </trkpt>
      <trkpt lat="50.974947" lon="5.064548">
        <ele>33.593772</ele>
        <time>2020-10-05T09:45:18.144Z</time>
      </trkpt>
      <trkpt lat="50.975073" lon="5.064138">
        <ele>34.196002</ele>
        <time>2020-10-05T09:45:23.722Z</time>
      </trkpt>
      <trkpt lat="50.975178" lon="5.063827">
        <ele>34.422104</ele>
        <time>2020-10-05T09:45:27.694Z</time>
      </trkpt>
      <trkpt lat="50.975346" lon="5.063371">
        <ele>34.339834</ele>
        <time>2020-10-05T09:45:33.175Z</time>
      </trkpt>
      <trkpt lat="50.975714" lon="5.062574">
        <ele>34.185933</ele>
        <time>2020-10-05T09:45:42.322Z</time>
      </trkpt>
      <trkpt lat="50.975861" lon="5.062276">
        <ele>34.126985</ele>
        <time>2020-10-05T09:45:45.359Z</time>
      </trkpt>
      <trkpt lat="50.976167" lon="5.061729">
        <ele>34.013046</ele>
        <time>2020-10-05T09:45:50.952Z</time>
      </trkpt>
      <trkpt lat="50.976266" lon="5.061555">
        <ele>33.838514</ele>
        <time>2020-10-05T09:45:52.656Z</time>
      </trkpt>
      <trkpt lat="50.976459" lon="5.061208">
        <ele>33.384467</ele>
        <time>2020-10-05T09:45:56.100Z</time>
      </trkpt>
      <trkpt lat="50.976534" lon="5.061169">
        <ele>33.261552</ele>
        <time>2020-10-05T09:45:57.006Z</time>
      </trkpt>
      <trkpt lat="50.976849" lon="5.060626">
        <ele>32.537495</ele>
        <time>2020-10-05T09:46:02.419Z</time>
      </trkpt>
      <trkpt lat="50.977183" lon="5.060037">
        <ele>31.760162</ele>
        <time>2020-10-05T09:46:08.138Z</time>
      </trkpt>
      <trkpt lat="50.977945" lon="5.058694">
        <ele>29.445188</ele>
        <time>2020-10-05T09:46:20.546Z</time>
      </trkpt>
      <trkpt lat="50.978433" lon="5.057837">
        <ele>27.806019</ele>
        <time>2020-10-05T09:46:28.324Z</time>
      </trkpt>
      <trkpt lat="50.978454" lon="5.057767">
        <ele>27.696023</ele>
        <time>2020-10-05T09:46:28.848Z</time>
      </trkpt>
      <trkpt lat="50.978517" lon="5.057663">
        <ele>27.491296</ele>
        <time>2020-10-05T09:46:29.789Z</time>
      </trkpt>
      <trkpt lat="50.978574" lon="5.057586">
        <ele>27.322701</ele>
        <time>2020-10-05T09:46:30.594Z</time>
      </trkpt>
      <trkpt lat="50.978779" lon="5.057227">
        <ele>26.760053</ele>
        <time>2020-10-05T09:46:33.821Z</time>
      </trkpt>
      <trkpt lat="50.978798" lon="5.057204">
        <ele>26.719317</ele>
        <time>2020-10-05T09:46:34.084Z</time>
      </trkpt>
      <trkpt lat="50.978861" lon="5.057110">
        <ele>26.571923</ele>
        <time>2020-10-05T09:46:35.014Z</time>
      </trkpt>
      <trkpt lat="50.978976" lon="5.056928">
        <ele>26.295095</ele>
        <time>2020-10-05T09:46:36.756Z</time>
      </trkpt>
      <trkpt lat="50.979075" lon="5.056761">
        <ele>26.048835</ele>
        <time>2020-10-05T09:46:38.303Z</time>
      </trkpt>
      <trkpt lat="50.979131" lon="5.056664">
        <ele>25.907543</ele>
        <time>2020-10-05T09:46:39.215Z</time>
      </trkpt>
      <trkpt lat="50.979161" lon="5.056614">
        <ele>25.833392</ele>
        <time>2020-10-05T09:46:39.690Z</time>
      </trkpt>
      <trkpt lat="50.979184" lon="5.056550">
        <ele>25.754276</ele>
        <time>2020-10-05T09:46:40.206Z</time>
      </trkpt>
      <trkpt lat="50.979218" lon="5.056473">
        <ele>25.653306</ele>
        <time>2020-10-05T09:46:40.844Z</time>
      </trkpt>
      <trkpt lat="50.979300" lon="5.056329">
        <ele>25.444855</ele>
        <time>2020-10-05T09:46:42.223Z</time>
      </trkpt>
      <trkpt lat="50.979434" lon="5.056115">
        <ele>25.120826</ele>
        <time>2020-10-05T09:46:44.440Z</time>
      </trkpt>
      <trkpt lat="50.979445" lon="5.056069">
        <ele>25.067998</ele>
        <time>2020-10-05T09:46:44.786Z</time>
      </trkpt>
      <trkpt lat="50.979489" lon="5.055999">
        <ele>24.961805</ele>
        <time>2020-10-05T09:46:45.474Z</time>
      </trkpt>
      <trkpt lat="50.979525" lon="5.055964">
        <ele>24.889831</ele>
        <time>2020-10-05T09:46:46.011Z</time>
      </trkpt>
      <trkpt lat="50.979579" lon="5.055984">
        <ele>24.795280</ele>
        <time>2020-10-05T09:46:46.697Z</time>
      </trkpt>
      <trkpt lat="50.979634" lon="5.055967">
        <ele>24.699735</ele>
        <time>2020-10-05T09:46:47.388Z</time>
      </trkpt>
      <trkpt lat="50.979685" lon="5.055906">
        <ele>24.590869</ele>
        <time>2020-10-05T09:46:48.180Z</time>
      </trkpt>
      <trkpt lat="50.979710" lon="5.055830">
        <ele>24.498812</ele>
        <time>2020-10-05T09:46:48.855Z</time>
      </trkpt>
      <trkpt lat="50.979712" lon="5.055729">
        <ele>24.390326</ele>
        <time>2020-10-05T09:46:49.629Z</time>
      </trkpt>
      <trkpt lat="50.979691" lon="5.055655">
        <ele>24.303183</ele>
        <time>2020-10-05T09:46:50.258Z</time>
      </trkpt>
      <trkpt lat="50.979662" lon="5.055606">
        <ele>24.230984</ele>
        <time>2020-10-05T09:46:50.795Z</time>
      </trkpt>
      <trkpt lat="50.979626" lon="5.055576">
        <ele>24.161661</ele>
        <time>2020-10-05T09:46:51.281Z</time>
      </trkpt>
      <trkpt lat="50.979586" lon="5.055564">
        <ele>24.092247</ele>
        <time>2020-10-05T09:46:51.788Z</time>
      </trkpt>
      <trkpt lat="50.979544" lon="5.055573">
        <ele>24.071624</ele>
        <time>2020-10-05T09:46:52.330Z</time>
      </trkpt>
      <trkpt lat="50.979500" lon="5.055533">
        <ele>24.057561</ele>
        <time>2020-10-05T09:46:52.964Z</time>
      </trkpt>
      <trkpt lat="50.979450" lon="5.055462">
        <ele>24.038958</ele>
        <time>2020-10-05T09:46:53.818Z</time>
      </trkpt>
      <trkpt lat="50.979437" lon="5.055438">
        <ele>24.033429</ele>
        <time>2020-10-05T09:46:54.057Z</time>
      </trkpt>
      <trkpt lat="50.979415" lon="5.055395">
        <ele>24.023752</ele>
        <time>2020-10-05T09:46:54.487Z</time>
      </trkpt>
      <trkpt lat="50.979378" lon="5.055324">
        <ele>24.007656</ele>
        <time>2020-10-05T09:46:55.261Z</time>
      </trkpt>
      <trkpt lat="50.979167" lon="5.054923">
        <ele>23.916388</ele>
        <time>2020-10-05T09:46:59.552Z</time>
      </trkpt>
      <trkpt lat="50.978982" lon="5.054561">
        <ele>23.834962</ele>
        <time>2020-10-05T09:47:03.533Z</time>
      </trkpt>
      <trkpt lat="50.978930" lon="5.054379">
        <ele>23.800057</ele>
        <time>2020-10-05T09:47:05.275Z</time>
      </trkpt>
      <trkpt lat="50.978905" lon="5.054163">
        <ele>23.761702</ele>
        <time>2020-10-05T09:47:07.217Z</time>
      </trkpt>
      <trkpt lat="50.978919" lon="5.053932">
        <ele>23.721173</ele>
        <time>2020-10-05T09:47:09.344Z</time>
      </trkpt>
      <trkpt lat="50.978959" lon="5.053731">
        <ele>23.684358</ele>
        <time>2020-10-05T09:47:11.358Z</time>
      </trkpt>
      <trkpt lat="50.979075" lon="5.053345">
        <ele>23.609661</ele>
        <time>2020-10-05T09:47:15.718Z</time>
      </trkpt>
      <trkpt lat="50.979291" lon="5.052632">
        <ele>23.919860</ele>
        <time>2020-10-05T09:47:23.903Z</time>
      </trkpt>
      <trkpt lat="50.979467" lon="5.052037">
        <ele>24.267713</ele>
        <time>2020-10-05T09:47:30.907Z</time>
      </trkpt>
      <trkpt lat="50.979524" lon="5.051834">
        <ele>24.385326</ele>
        <time>2020-10-05T09:47:33.361Z</time>
      </trkpt>
      <trkpt lat="50.979775" lon="5.050997">
        <ele>24.875884</ele>
        <time>2020-10-05T09:47:43.804Z</time>
      </trkpt>
      <trkpt lat="50.980475" lon="5.048718">
        <ele>27.677423</ele>
        <time>2020-10-05T09:48:20.684Z</time>
      </trkpt>
      <trkpt lat="50.980548" lon="5.048482">
        <ele>27.997373</ele>
        <time>2020-10-05T09:48:24.506Z</time>
      </trkpt>
      <trkpt lat="50.980586" lon="5.048488">
        <ele>28.071177</ele>
        <time>2020-10-05T09:48:25.461Z</time>
      </trkpt>
      <trkpt lat="50.980606" lon="5.048487">
        <ele>28.109850</ele>
        <time>2020-10-05T09:48:25.995Z</time>
      </trkpt>
      <trkpt lat="50.980649" lon="5.048472">
        <ele>28.194937</ele>
        <time>2020-10-05T09:48:27.342Z</time>
      </trkpt>
      <trkpt lat="50.980726" lon="5.048396">
        <ele>28.370147</ele>
        <time>2020-10-05T09:48:29.929Z</time>
      </trkpt>
      <trkpt lat="50.980762" lon="5.048316">
        <ele>28.489799</ele>
        <time>2020-10-05T09:48:31.797Z</time>
      </trkpt>
      <trkpt lat="50.980781" lon="5.048219">
        <ele>28.596255</ele>
        <time>2020-10-05T09:48:33.571Z</time>
      </trkpt>
      <trkpt lat="50.980757" lon="5.048019">
        <ele>28.744702</ele>
        <time>2020-10-05T09:48:36.913Z</time>
      </trkpt>
      <trkpt lat="50.980711" lon="5.047932">
        <ele>28.827538</ele>
        <time>2020-10-05T09:48:38.784Z</time>
      </trkpt>
      <trkpt lat="50.980711" lon="5.047890">
        <ele>28.858161</ele>
        <time>2020-10-05T09:48:39.762Z</time>
      </trkpt>
      <trkpt lat="50.980692" lon="5.047330">
        <ele>29.267057</ele>
        <time>2020-10-05T09:48:49.350Z</time>
      </trkpt>
      <trkpt lat="50.980483" lon="5.046456">
        <ele>29.948724</ele>
        <time>2020-10-05T09:49:04.525Z</time>
      </trkpt>
      <trkpt lat="50.980201" lon="5.045275">
        <ele>30.763991</ele>
        <time>2020-10-05T09:49:21.668Z</time>
      </trkpt>
      <trkpt lat="50.980075" lon="5.044370">
        <ele>31.109255</ele>
        <time>2020-10-05T09:49:33.596Z</time>
      </trkpt>
      <trkpt lat="50.980090" lon="5.044239">
        <ele>31.158854</ele>
        <time>2020-10-05T09:49:35.296Z</time>
      </trkpt>
      <trkpt lat="50.980161" lon="5.043117">
        <ele>31.578914</ele>
        <time>2020-10-05T09:49:51.380Z</time>
      </trkpt>
      <trkpt lat="50.980164" lon="5.043069">
        <ele>31.596882</ele>
        <time>2020-10-05T09:49:52.061Z</time>
      </trkpt>
      <trkpt lat="50.980173" lon="5.042991">
        <ele>31.626422</ele>
        <time>2020-10-05T09:49:53.584Z</time>
      </trkpt>
      <trkpt lat="50.980845" lon="5.041952">
        <ele>33.666063</ele>
        <time>2020-10-05T09:50:18.379Z</time>
      </trkpt>
      <trkpt lat="50.981699" lon="5.040825">
        <ele>36.461137</ele>
        <time>2020-10-05T09:50:54.738Z</time>
      </trkpt>
      <trkpt lat="50.982496" lon="5.040005">
        <ele>39.159679</ele>
        <time>2020-10-05T09:51:29.986Z</time>
      </trkpt>
      <trkpt lat="50.982754" lon="5.039836">
        <ele>39.952761</ele>
        <time>2020-10-05T09:51:38.775Z</time>
      </trkpt>
      <trkpt lat="50.982865" lon="5.039774">
        <ele>40.287136</ele>
        <time>2020-10-05T09:51:41.950Z</time>
      </trkpt>
      <trkpt lat="50.983007" lon="5.039815">
        <ele>40.697285</ele>
        <time>2020-10-05T09:51:45.430Z</time>
      </trkpt>
      <trkpt lat="50.983790" lon="5.040101">
        <ele>40.238329</ele>
        <time>2020-10-05T09:51:58.832Z</time>
      </trkpt>
      <trkpt lat="50.983871" lon="5.040114">
        <ele>40.091592</ele>
        <time>2020-10-05T09:52:00.580Z</time>
      </trkpt>
      <trkpt lat="50.983987" lon="5.040062">
        <ele>39.874349</ele>
        <time>2020-10-05T09:52:01.850Z</time>
      </trkpt>
      <trkpt lat="50.984076" lon="5.039998">
        <ele>39.698264</ele>
        <time>2020-10-05T09:52:02.979Z</time>
      </trkpt>
      <trkpt lat="50.984209" lon="5.039812">
        <ele>39.378880</ele>
        <time>2020-10-05T09:52:05.318Z</time>
      </trkpt>
      <trkpt lat="50.984219" lon="5.039798">
        <ele>39.354855</ele>
        <time>2020-10-05T09:52:05.436Z</time>
      </trkpt>
      <trkpt lat="50.984339" lon="5.039849">
        <ele>39.130961</ele>
        <time>2020-10-05T09:52:07.247Z</time>
      </trkpt>
      <trkpt lat="50.984497" lon="5.039892">
        <ele>38.842034</ele>
        <time>2020-10-05T09:52:09.843Z</time>
      </trkpt>
      <trkpt lat="50.985011" lon="5.040267">
        <ele>37.285684</ele>
        <time>2020-10-05T09:52:17.610Z</time>
      </trkpt>
      <trkpt lat="50.986279" lon="5.041469">
        <ele>28.623769</ele>
        <time>2020-10-05T09:52:36.781Z</time>
      </trkpt>
      <trkpt lat="50.986404" lon="5.041581">
        <ele>27.781913</ele>
        <time>2020-10-05T09:52:38.626Z</time>
      </trkpt>
      <trkpt lat="50.986635" lon="5.041777">
        <ele>26.740897</ele>
        <time>2020-10-05T09:52:42.204Z</time>
      </trkpt>
      <trkpt lat="50.986907" lon="5.041969">
        <ele>25.678939</ele>
        <time>2020-10-05T09:52:46.301Z</time>
      </trkpt>
      <trkpt lat="50.987289" lon="5.042182">
        <ele>24.234489</ele>
        <time>2020-10-05T09:52:51.931Z</time>
      </trkpt>
      <trkpt lat="50.987928" lon="5.042414">
        <ele>21.895830</ele>
        <time>2020-10-05T09:53:01.459Z</time>
      </trkpt>
      <trkpt lat="50.988920" lon="5.042538">
        <ele>20.595718</ele>
        <time>2020-10-05T09:53:19.584Z</time>
      </trkpt>
      <trkpt lat="50.989201" lon="5.042512">
        <ele>20.414132</ele>
        <time>2020-10-05T09:53:24.776Z</time>
      </trkpt>
      <trkpt lat="50.989258" lon="5.042498">
        <ele>20.376923</ele>
        <time>2020-10-05T09:53:25.969Z</time>
      </trkpt>
      <trkpt lat="50.989278" lon="5.042499">
        <ele>20.364015</ele>
        <time>2020-10-05T09:53:26.382Z</time>
      </trkpt>
      <trkpt lat="50.989622" lon="5.042733">
        <ele>20.122606</ele>
        <time>2020-10-05T09:53:33.543Z</time>
      </trkpt>
      <trkpt lat="50.989666" lon="5.042782">
        <ele>20.087941</ele>
        <time>2020-10-05T09:53:34.648Z</time>
      </trkpt>
      <trkpt lat="50.989678" lon="5.042769">
        <ele>20.078571</ele>
        <time>2020-10-05T09:53:34.929Z</time>
      </trkpt>
      <trkpt lat="50.989698" lon="5.042748">
        <ele>20.063105</ele>
        <time>2020-10-05T09:53:35.403Z</time>
      </trkpt>
      <trkpt lat="50.989769" lon="5.042696">
        <ele>20.012668</ele>
        <time>2020-10-05T09:53:36.849Z</time>
      </trkpt>
      <trkpt lat="50.989803" lon="5.042664">
        <ele>19.987174</ele>
        <time>2020-10-05T09:53:37.565Z</time>
      </trkpt>
      <trkpt lat="50.989795" lon="5.042633">
        <ele>19.973569</ele>
        <time>2020-10-05T09:53:37.900Z</time>
      </trkpt>
      <trkpt lat="50.989793" lon="5.042480">
        <ele>19.927584</ele>
        <time>2020-10-05T09:53:39.864Z</time>
      </trkpt>
      <trkpt lat="50.989902" lon="5.042266">
        <ele>19.903419</ele>
        <time>2020-10-05T09:53:43.351Z</time>
      </trkpt>
      <trkpt lat="50.989939" lon="5.042252">
        <ele>19.898115</ele>
        <time>2020-10-05T09:53:44.021Z</time>
      </trkpt>
      <trkpt lat="50.990131" lon="5.042167">
        <ele>19.870320</ele>
        <time>2020-10-05T09:53:47.903Z</time>
      </trkpt>
      <trkpt lat="50.991376" lon="5.041570">
        <ele>19.688963</ele>
        <time>2020-10-05T09:54:13.273Z</time>
      </trkpt>
      <trkpt lat="50.992349" lon="5.041214">
        <ele>19.831811</ele>
        <time>2020-10-05T09:54:34.414Z</time>
      </trkpt>
      <trkpt lat="50.992578" lon="5.041143">
        <ele>19.869077</ele>
        <time>2020-10-05T09:54:39.455Z</time>
      </trkpt>
      <trkpt lat="50.992572" lon="5.041097">
        <ele>19.873800</ele>
        <time>2020-10-05T09:54:40.085Z</time>
      </trkpt>
      <trkpt lat="50.993171" lon="5.040924">
        <ele>19.970510</ele>
        <time>2020-10-05T09:54:49.599Z</time>
      </trkpt>
      <trkpt lat="50.993823" lon="5.040741">
        <ele>20.054209</ele>
        <time>2020-10-05T09:54:59.588Z</time>
      </trkpt>
      <trkpt lat="50.993853" lon="5.040738">
        <ele>20.058009</ele>
        <time>2020-10-05T09:55:00.088Z</time>
      </trkpt>
      <trkpt lat="50.993775" lon="5.040188">
        <ele>20.102867</ele>
        <time>2020-10-05T09:55:05.439Z</time>
      </trkpt>
      <trkpt lat="50.993742" lon="5.040127">
        <ele>20.109267</ele>
        <time>2020-10-05T09:55:06.212Z</time>
      </trkpt>
      <trkpt lat="50.993682" lon="5.040070">
        <ele>20.118105</ele>
        <time>2020-10-05T09:55:07.215Z</time>
      </trkpt>
      <trkpt lat="50.993691" lon="5.040035">
        <ele>20.121113</ele>
        <time>2020-10-05T09:55:07.689Z</time>
      </trkpt>
      <trkpt lat="50.993715" lon="5.039938">
        <ele>20.129406</ele>
        <time>2020-10-05T09:55:09.041Z</time>
      </trkpt>
      <trkpt lat="50.993729" lon="5.039849">
        <ele>20.136705</ele>
        <time>2020-10-05T09:55:10.259Z</time>
      </trkpt>
      <trkpt lat="50.993709" lon="5.039661">
        <ele>20.151875</ele>
        <time>2020-10-05T09:55:12.813Z</time>
      </trkpt>
      <trkpt lat="50.993676" lon="5.039449">
        <ele>20.169252</ele>
        <time>2020-10-05T09:55:14.857Z</time>
      </trkpt>
      <trkpt lat="50.993497" lon="5.038327">
        <ele>20.291930</ele>
        <time>2020-10-05T09:55:26.458Z</time>
      </trkpt>
      <trkpt lat="50.993421" lon="5.037858">
        <ele>20.348460</ele>
        <time>2020-10-05T09:55:31.467Z</time>
      </trkpt>
      <trkpt lat="50.993148" lon="5.035642">
        <ele>20.605339</ele>
        <time>2020-10-05T09:55:53.194Z</time>
      </trkpt>
      <trkpt lat="50.993073" lon="5.035038">
        <ele>20.671375</ele>
        <time>2020-10-05T09:55:59.086Z</time>
      </trkpt>
      <trkpt lat="50.992923" lon="5.033920">
        <ele>20.793990</ele>
        <time>2020-10-05T09:56:10.119Z</time>
      </trkpt>
      <trkpt lat="50.992471" lon="5.031357">
        <ele>21.399163</ele>
        <time>2020-10-05T09:56:38.034Z</time>
      </trkpt>
      <trkpt lat="50.992372" lon="5.030722">
        <ele>21.545425</ele>
        <time>2020-10-05T09:56:44.908Z</time>
      </trkpt>
      <trkpt lat="50.992220" lon="5.029719">
        <ele>21.554772</ele>
        <time>2020-10-05T09:56:55.210Z</time>
      </trkpt>
      <trkpt lat="50.992154" lon="5.029277">
        <ele>21.558888</ele>
        <time>2020-10-05T09:56:59.462Z</time>
      </trkpt>
      <trkpt lat="50.991743" lon="5.026502">
        <ele>21.214565</ele>
        <time>2020-10-05T09:57:24.485Z</time>
      </trkpt>
      <trkpt lat="50.991494" lon="5.024744">
        <ele>20.693576</ele>
        <time>2020-10-05T09:57:39.561Z</time>
      </trkpt>
      <trkpt lat="50.991411" lon="5.024048">
        <ele>20.377449</ele>
        <time>2020-10-05T09:57:45.378Z</time>
      </trkpt>
      <trkpt lat="50.991328" lon="5.023290">
        <ele>20.034097</ele>
        <time>2020-10-05T09:57:51.576Z</time>
      </trkpt>
      <trkpt lat="50.991300" lon="5.023037">
        <ele>19.919459</ele>
        <time>2020-10-05T09:57:53.497Z</time>
      </trkpt>
      <trkpt lat="50.991157" lon="5.021057">
        <ele>19.093721</ele>
        <time>2020-10-05T09:58:09.400Z</time>
      </trkpt>
      <trkpt lat="50.991151" lon="5.020691">
        <ele>18.947464</ele>
        <time>2020-10-05T09:58:12.272Z</time>
      </trkpt>
      <trkpt lat="50.991154" lon="5.020263">
        <ele>18.776479</ele>
        <time>2020-10-05T09:58:15.974Z</time>
      </trkpt>
      <trkpt lat="50.991273" lon="5.018822">
        <ele>18.313020</ele>
        <time>2020-10-05T09:58:28.294Z</time>
      </trkpt>
      <trkpt lat="50.991383" lon="5.018050">
        <ele>18.120325</ele>
        <time>2020-10-05T09:58:35.131Z</time>
      </trkpt>
      <trkpt lat="50.991890" lon="5.016013">
        <ele>17.741369</ele>
        <time>2020-10-05T09:58:53.921Z</time>
      </trkpt>
      <trkpt lat="50.992021" lon="5.015643">
        <ele>17.712878</ele>
        <time>2020-10-05T09:58:57.672Z</time>
      </trkpt>
      <trkpt lat="50.992173" lon="5.015241">
        <ele>17.681404</ele>
        <time>2020-10-05T09:59:03.531Z</time>
      </trkpt>
      <trkpt lat="50.992537" lon="5.014431">
        <ele>17.614610</ele>
        <time>2020-10-05T09:59:16.401Z</time>
      </trkpt>
      <trkpt lat="50.993169" lon="5.013319">
        <ele>18.066818</ele>
        <time>2020-10-05T09:59:37.085Z</time>
      </trkpt>
      <trkpt lat="50.993980" lon="5.012018">
        <ele>18.682274</ele>
        <time>2020-10-05T10:00:03.585Z</time>
      </trkpt>
      <trkpt lat="50.994687" lon="5.011038">
        <ele>19.238701</ele>
        <time>2020-10-05T10:00:25.165Z</time>
      </trkpt>
      <trkpt lat="50.996462" lon="5.008710">
        <ele>20.060433</ele>
        <time>2020-10-05T10:01:15.086Z</time>
      </trkpt>
      <trkpt lat="50.997001" lon="5.008030">
        <ele>19.953217</ele>
        <time>2020-10-05T10:01:28.598Z</time>
      </trkpt>
      <trkpt lat="50.999248" lon="5.004830">
        <ele>19.147887</ele>
        <time>2020-10-05T10:02:25.835Z</time>
      </trkpt>
      <trkpt lat="51.000241" lon="5.003211">
        <ele>19.434234</ele>
        <time>2020-10-05T10:02:56.279Z</time>
      </trkpt>
      <trkpt lat="51.001152" lon="5.001581">
        <ele>19.695351</ele>
        <time>2020-10-05T10:03:25.881Z</time>
      </trkpt>
      <trkpt lat="51.001958" lon="5.000035">
        <ele>19.778251</ele>
        <time>2020-10-05T10:03:51.566Z</time>
      </trkpt>
      <trkpt lat="51.002449" lon="4.999026">
        <ele>19.658136</ele>
        <time>2020-10-05T10:04:07.304Z</time>
      </trkpt>
      <trkpt lat="51.002958" lon="4.997875">
        <ele>19.520291</ele>
        <time>2020-10-05T10:04:24.443Z</time>
      </trkpt>
      <trkpt lat="51.003161" lon="4.997373">
        <ele>19.458152</ele>
        <time>2020-10-05T10:04:31.829Z</time>
      </trkpt>
      <trkpt lat="51.003223" lon="4.997214">
        <ele>19.438673</ele>
        <time>2020-10-05T10:04:34.125Z</time>
      </trkpt>
      <trkpt lat="51.003300" lon="4.997038">
        <ele>19.416351</ele>
        <time>2020-10-05T10:04:36.672Z</time>
      </trkpt>
      <trkpt lat="51.004425" lon="4.994295">
        <ele>19.084021</ele>
        <time>2020-10-05T10:05:17.546Z</time>
      </trkpt>
      <trkpt lat="51.005204" lon="4.992026">
        <ele>18.613991</ele>
        <time>2020-10-05T10:05:49.169Z</time>
      </trkpt>
      <trkpt lat="51.005273" lon="4.991749">
        <ele>18.546615</ele>
        <time>2020-10-05T10:05:52.594Z</time>
      </trkpt>
      <trkpt lat="51.005323" lon="4.991550">
        <ele>18.498153</ele>
        <time>2020-10-05T10:05:55.263Z</time>
      </trkpt>
      <trkpt lat="51.005648" lon="4.990561">
        <ele>18.254535</ele>
        <time>2020-10-05T10:06:08.089Z</time>
      </trkpt>
      <trkpt lat="51.005841" lon="4.989863">
        <ele>18.096930</ele>
        <time>2020-10-05T10:06:16.763Z</time>
      </trkpt>
      <trkpt lat="51.005894" lon="4.989653">
        <ele>18.050157</ele>
        <time>2020-10-05T10:06:19.363Z</time>
      </trkpt>
      <trkpt lat="51.005925" lon="4.989610">
        <ele>18.036640</ele>
        <time>2020-10-05T10:06:20.125Z</time>
      </trkpt>
      <trkpt lat="51.006021" lon="4.989284">
        <ele>17.962236</ele>
        <time>2020-10-05T10:06:24.695Z</time>
      </trkpt>
      <trkpt lat="51.006106" lon="4.989331">
        <ele>17.932670</ele>
        <time>2020-10-05T10:06:26.004Z</time>
      </trkpt>
      <trkpt lat="51.006139" lon="4.989349">
        <ele>17.921208</ele>
        <time>2020-10-05T10:06:26.490Z</time>
      </trkpt>
      <trkpt lat="51.006265" lon="4.989423">
        <ele>17.877078</ele>
        <time>2020-10-05T10:06:29.313Z</time>
      </trkpt>
      <trkpt lat="51.006878" lon="4.989778">
        <ele>17.744676</ele>
        <time>2020-10-05T10:06:43.131Z</time>
      </trkpt>
      <trkpt lat="51.007475" lon="4.990116">
        <ele>17.718719</ele>
        <time>2020-10-05T10:06:54.925Z</time>
      </trkpt>
      <trkpt lat="51.007918" lon="4.990337">
        <ele>17.699702</ele>
        <time>2020-10-05T10:07:04.231Z</time>
      </trkpt>
      <trkpt lat="51.008371" lon="4.990563">
        <ele>17.673132</ele>
        <time>2020-10-05T10:07:14.501Z</time>
      </trkpt>
      <trkpt lat="51.008529" lon="4.990645">
        <ele>17.646305</ele>
        <time>2020-10-05T10:07:18.014Z</time>
      </trkpt>
      <trkpt lat="51.008551" lon="4.990657">
        <ele>17.642550</ele>
        <time>2020-10-05T10:07:18.548Z</time>
      </trkpt>
      <trkpt lat="51.008664" lon="4.990714">
        <ele>17.623415</ele>
        <time>2020-10-05T10:07:21.042Z</time>
      </trkpt>
      <trkpt lat="51.009439" lon="4.991102">
        <ele>17.492266</ele>
        <time>2020-10-05T10:07:36.752Z</time>
      </trkpt>
      <trkpt lat="51.009557" lon="4.991158">
        <ele>17.472390</ele>
        <time>2020-10-05T10:07:38.923Z</time>
      </trkpt>
      <trkpt lat="51.009720" lon="4.991181">
        <ele>17.445977</ele>
        <time>2020-10-05T10:07:41.933Z</time>
      </trkpt>
      <trkpt lat="51.009817" lon="4.991176">
        <ele>17.430312</ele>
        <time>2020-10-05T10:07:43.727Z</time>
      </trkpt>
      <trkpt lat="51.010380" lon="4.991089">
        <ele>17.358064</ele>
        <time>2020-10-05T10:07:54.965Z</time>
      </trkpt>
      <trkpt lat="51.011915" lon="4.990861">
        <ele>17.251639</ele>
        <time>2020-10-05T10:08:25.427Z</time>
      </trkpt>
      <trkpt lat="51.012502" lon="4.990774">
        <ele>17.619428</ele>
        <time>2020-10-05T10:08:38.189Z</time>
      </trkpt>
      <trkpt lat="51.012748" lon="4.990735">
        <ele>17.773656</ele>
        <time>2020-10-05T10:08:43.815Z</time>
      </trkpt>
      <trkpt lat="51.012822" lon="4.990724">
        <ele>17.820023</ele>
        <time>2020-10-05T10:08:45.051Z</time>
      </trkpt>
      <trkpt lat="51.013433" lon="4.990636">
        <ele>18.202757</ele>
        <time>2020-10-05T10:08:56.361Z</time>
      </trkpt>
      <trkpt lat="51.014030" lon="4.990647">
        <ele>18.702660</ele>
        <time>2020-10-05T10:09:07.888Z</time>
      </trkpt>
      <trkpt lat="51.014561" lon="4.990788">
        <ele>19.211508</ele>
        <time>2020-10-05T10:09:18.637Z</time>
      </trkpt>
      <trkpt lat="51.015685" lon="4.991520">
        <ele>19.971593</ele>
        <time>2020-10-05T10:09:40.386Z</time>
      </trkpt>
      <trkpt lat="51.015988" lon="4.991635">
        <ele>19.921656</ele>
        <time>2020-10-05T10:09:44.937Z</time>
      </trkpt>
      <trkpt lat="51.016173" lon="4.991677">
        <ele>19.891699</ele>
        <time>2020-10-05T10:09:47.798Z</time>
      </trkpt>
      <trkpt lat="51.016367" lon="4.991683">
        <ele>19.860595</ele>
        <time>2020-10-05T10:09:50.336Z</time>
      </trkpt>
      <trkpt lat="51.016805" lon="4.991586">
        <ele>19.789704</ele>
        <time>2020-10-05T10:09:56.224Z</time>
      </trkpt>
      <trkpt lat="51.016890" lon="4.991551">
        <ele>19.775629</ele>
        <time>2020-10-05T10:09:57.310Z</time>
      </trkpt>
      <trkpt lat="51.017065" lon="4.991442">
        <ele>19.745500</ele>
        <time>2020-10-05T10:09:59.610Z</time>
      </trkpt>
      <trkpt lat="51.017303" lon="4.991292">
        <ele>19.590422</ele>
        <time>2020-10-05T10:10:02.831Z</time>
      </trkpt>
      <trkpt lat="51.018289" lon="4.990615">
        <ele>18.858449</ele>
        <time>2020-10-05T10:10:16.177Z</time>
      </trkpt>
      <trkpt lat="51.019376" lon="4.989859">
        <ele>18.735802</ele>
        <time>2020-10-05T10:10:32.869Z</time>
      </trkpt>
      <trkpt lat="51.020319" lon="4.989218">
        <ele>19.070393</ele>
        <time>2020-10-05T10:10:50.872Z</time>
      </trkpt>
      <trkpt lat="51.020858" lon="4.988852">
        <ele>19.445226</ele>
        <time>2020-10-05T10:11:01.401Z</time>
      </trkpt>
      <trkpt lat="51.021701" lon="4.988271">
        <ele>20.086684</ele>
        <time>2020-10-05T10:11:17.511Z</time>
      </trkpt>
      <trkpt lat="51.022162" lon="4.987953">
        <ele>20.402703</ele>
        <time>2020-10-05T10:11:26.325Z</time>
      </trkpt>
      <trkpt lat="51.022391" lon="4.987785">
        <ele>20.503365</ele>
        <time>2020-10-05T10:11:30.646Z</time>
      </trkpt>
      <trkpt lat="51.022532" lon="4.987668">
        <ele>20.566846</ele>
        <time>2020-10-05T10:11:33.316Z</time>
      </trkpt>
      <trkpt lat="51.022565" lon="4.987644">
        <ele>20.581330</ele>
        <time>2020-10-05T10:11:33.871Z</time>
      </trkpt>
      <trkpt lat="51.022767" lon="4.987448">
        <ele>20.675783</ele>
        <time>2020-10-05T10:11:37.809Z</time>
      </trkpt>
      <trkpt lat="51.023342" lon="4.986852">
        <ele>20.949748</ele>
        <time>2020-10-05T10:11:48.590Z</time>
      </trkpt>
      <trkpt lat="51.023809" lon="4.986370">
        <ele>21.161939</ele>
        <time>2020-10-05T10:11:57.660Z</time>
      </trkpt>
      <trkpt lat="51.023982" lon="4.986191">
        <ele>21.235875</ele>
        <time>2020-10-05T10:12:01.296Z</time>
      </trkpt>
      <trkpt lat="51.024389" lon="4.985782">
        <ele>21.408342</ele>
        <time>2020-10-05T10:12:09.442Z</time>
      </trkpt>
      <trkpt lat="51.024579" lon="4.985585">
        <ele>21.489594</ele>
        <time>2020-10-05T10:12:13.172Z</time>
      </trkpt>
      <trkpt lat="51.024802" lon="4.985331">
        <ele>21.587856</ele>
        <time>2020-10-05T10:12:17.584Z</time>
      </trkpt>
      <trkpt lat="51.025171" lon="4.984900">
        <ele>21.712218</ele>
        <time>2020-10-05T10:12:24.783Z</time>
      </trkpt>
      <trkpt lat="51.025431" lon="4.984597">
        <ele>21.690951</ele>
        <time>2020-10-05T10:12:29.687Z</time>
      </trkpt>
      <trkpt lat="51.026627" lon="4.983184">
        <ele>21.639276</ele>
        <time>2020-10-05T10:12:50.775Z</time>
      </trkpt>
      <trkpt lat="51.026799" lon="4.982981">
        <ele>21.718270</ele>
        <time>2020-10-05T10:12:55.009Z</time>
      </trkpt>
      <trkpt lat="51.026863" lon="4.982905">
        <ele>21.747727</ele>
        <time>2020-10-05T10:12:56.458Z</time>
      </trkpt>
      <trkpt lat="51.026970" lon="4.982781">
        <ele>21.796555</ele>
        <time>2020-10-05T10:12:59.133Z</time>
      </trkpt>
      <trkpt lat="51.027270" lon="4.982446">
        <ele>21.931746</ele>
        <time>2020-10-05T10:13:06.583Z</time>
      </trkpt>
      <trkpt lat="51.027302" lon="4.982409">
        <ele>21.946337</ele>
        <time>2020-10-05T10:13:07.491Z</time>
      </trkpt>
      <trkpt lat="51.027368" lon="4.982333">
        <ele>21.976388</ele>
        <time>2020-10-05T10:13:09.227Z</time>
      </trkpt>
      <trkpt lat="51.027833" lon="4.981773">
        <ele>22.191504</ele>
        <time>2020-10-05T10:13:22.429Z</time>
      </trkpt>
      <trkpt lat="51.028150" lon="4.981403">
        <ele>22.604481</ele>
        <time>2020-10-05T10:13:32.300Z</time>
      </trkpt>
      <trkpt lat="51.028173" lon="4.981376">
        <ele>22.653456</ele>
        <time>2020-10-05T10:13:33.088Z</time>
      </trkpt>
      <trkpt lat="51.028534" lon="4.980952">
        <ele>23.422282</ele>
        <time>2020-10-05T10:13:45.258Z</time>
      </trkpt>
      <trkpt lat="51.028660" lon="4.980796">
        <ele>23.695842</ele>
        <time>2020-10-05T10:13:49.552Z</time>
      </trkpt>
      <trkpt lat="51.028719" lon="4.980715">
        <ele>23.829372</ele>
        <time>2020-10-05T10:13:51.740Z</time>
      </trkpt>
      <trkpt lat="51.028758" lon="4.980657">
        <ele>23.920849</ele>
        <time>2020-10-05T10:13:53.192Z</time>
      </trkpt>
      <trkpt lat="51.028860" lon="4.980478">
        <ele>24.181081</ele>
        <time>2020-10-05T10:13:57.591Z</time>
      </trkpt>
      <trkpt lat="51.029491" lon="4.979371">
        <ele>25.848987</ele>
        <time>2020-10-05T10:14:23.769Z</time>
      </trkpt>
      <trkpt lat="51.029869" lon="4.978710">
        <ele>26.937195</ele>
        <time>2020-10-05T10:14:40.193Z</time>
      </trkpt>
      <trkpt lat="51.030445" lon="4.977697">
        <ele>28.600608</ele>
        <time>2020-10-05T10:15:03.578Z</time>
      </trkpt>
      <trkpt lat="51.030547" lon="4.977522">
        <ele>28.884845</ele>
        <time>2020-10-05T10:15:07.991Z</time>
      </trkpt>
      <trkpt lat="51.030687" lon="4.977392">
        <ele>29.167313</ele>
        <time>2020-10-05T10:15:12.314Z</time>
      </trkpt>
      <trkpt lat="51.031198" lon="4.976502">
        <ele>30.487791</ele>
        <time>2020-10-05T10:15:32.875Z</time>
      </trkpt>
      <trkpt lat="51.031326" lon="4.976275">
        <ele>30.821858</ele>
        <time>2020-10-05T10:15:38.571Z</time>
      </trkpt>
      <trkpt lat="51.031696" lon="4.975680">
        <ele>31.738706</ele>
        <time>2020-10-05T10:15:52.950Z</time>
      </trkpt>
      <trkpt lat="51.032066" lon="4.975279">
        <ele>32.189519</ele>
        <time>2020-10-05T10:16:04.784Z</time>
      </trkpt>
      <trkpt lat="51.032487" lon="4.974944">
        <ele>32.525168</ele>
        <time>2020-10-05T10:16:17.014Z</time>
      </trkpt>
      <trkpt lat="51.032562" lon="4.974891">
        <ele>32.583684</ele>
        <time>2020-10-05T10:16:18.956Z</time>
      </trkpt>
      <trkpt lat="51.032695" lon="4.974797">
        <ele>32.687454</ele>
        <time>2020-10-05T10:16:22.413Z</time>
      </trkpt>
      <trkpt lat="51.036409" lon="4.972084">
        <ele>32.057386</ele>
        <time>2020-10-05T10:17:42.236Z</time>
      </trkpt>
      <trkpt lat="51.036766" lon="4.971734">
        <ele>31.667511</ele>
        <time>2020-10-05T10:17:48.983Z</time>
      </trkpt>
      <trkpt lat="51.036888" lon="4.971575">
        <ele>31.387912</ele>
        <time>2020-10-05T10:17:51.452Z</time>
      </trkpt>
      <trkpt lat="51.037030" lon="4.971355">
        <ele>31.036503</ele>
        <time>2020-10-05T10:17:54.619Z</time>
      </trkpt>
      <trkpt lat="51.037090" lon="4.971245">
        <ele>30.874194</ele>
        <time>2020-10-05T10:17:56.004Z</time>
      </trkpt>
      <trkpt lat="51.037140" lon="4.971152">
        <ele>30.737810</ele>
        <time>2020-10-05T10:17:57.234Z</time>
      </trkpt>
      <trkpt lat="51.037491" lon="4.970453">
        <ele>29.740747</ele>
        <time>2020-10-05T10:18:05.978Z</time>
      </trkpt>
      <trkpt lat="51.038885" lon="4.967653">
        <ele>26.568571</ele>
        <time>2020-10-05T10:18:42.847Z</time>
      </trkpt>
      <trkpt lat="51.040226" lon="4.964960">
        <ele>26.352115</ele>
        <time>2020-10-05T10:19:27.932Z</time>
      </trkpt>
      <trkpt lat="51.040650" lon="4.964107">
        <ele>26.187341</ele>
        <time>2020-10-05T10:19:42.742Z</time>
      </trkpt>
      <trkpt lat="51.040880" lon="4.963644">
        <ele>26.097925</ele>
        <time>2020-10-05T10:19:49.697Z</time>
      </trkpt>
      <trkpt lat="51.040918" lon="4.963567">
        <ele>26.083092</ele>
        <time>2020-10-05T10:19:50.833Z</time>
      </trkpt>
      <trkpt lat="51.041378" lon="4.962631">
        <ele>25.587282</ele>
        <time>2020-10-05T10:20:03.791Z</time>
      </trkpt>
      <trkpt lat="51.041547" lon="4.962304">
        <ele>25.233554</ele>
        <time>2020-10-05T10:20:08.294Z</time>
      </trkpt>
      <trkpt lat="51.041575" lon="4.962251">
        <ele>25.175705</ele>
        <time>2020-10-05T10:20:08.989Z</time>
      </trkpt>
      <trkpt lat="51.041641" lon="4.962092">
        <ele>25.016491</ele>
        <time>2020-10-05T10:20:11.310Z</time>
      </trkpt>
      <trkpt lat="51.041720" lon="4.961934">
        <ele>24.847798</ele>
        <time>2020-10-05T10:20:13.559Z</time>
      </trkpt>
      <trkpt lat="51.041784" lon="4.961808">
        <ele>24.712440</ele>
        <time>2020-10-05T10:20:15.108Z</time>
      </trkpt>
      <trkpt lat="51.042352" lon="4.960694">
        <ele>23.478348</ele>
        <time>2020-10-05T10:20:30.258Z</time>
      </trkpt>
      <trkpt lat="51.043061" lon="4.959258">
        <ele>21.161837</ele>
        <time>2020-10-05T10:20:48.038Z</time>
      </trkpt>
      <trkpt lat="51.043161" lon="4.959065">
        <ele>20.844539</ele>
        <time>2020-10-05T10:20:50.463Z</time>
      </trkpt>
      <trkpt lat="51.043409" lon="4.958399">
        <ele>19.886265</ele>
        <time>2020-10-05T10:20:58.307Z</time>
      </trkpt>
      <trkpt lat="51.043484" lon="4.958107">
        <ele>19.591176</ele>
        <time>2020-10-05T10:21:01.404Z</time>
      </trkpt>
      <trkpt lat="51.043550" lon="4.958095">
        <ele>19.492332</ele>
        <time>2020-10-05T10:21:02.113Z</time>
      </trkpt>
      <trkpt lat="51.043609" lon="4.958040">
        <ele>19.390575</ele>
        <time>2020-10-05T10:21:02.982Z</time>
      </trkpt>
      <trkpt lat="51.043659" lon="4.957934">
        <ele>19.266604</ele>
        <time>2020-10-05T10:21:03.882Z</time>
      </trkpt>
      <trkpt lat="51.043868" lon="4.957513">
        <ele>18.764778</ele>
        <time>2020-10-05T10:21:07.639Z</time>
      </trkpt>
      <trkpt lat="51.044358" lon="4.956542">
        <ele>17.599988</ele>
        <time>2020-10-05T10:21:16.644Z</time>
      </trkpt>
      <trkpt lat="51.044836" lon="4.955570">
        <ele>17.279852</ele>
        <time>2020-10-05T10:21:26.963Z</time>
      </trkpt>
      <trkpt lat="51.045176" lon="4.954910">
        <ele>17.282874</ele>
        <time>2020-10-05T10:21:35.146Z</time>
      </trkpt>
      <trkpt lat="51.046450" lon="4.952394">
        <ele>17.813196</ele>
        <time>2020-10-05T10:22:09.610Z</time>
      </trkpt>
      <trkpt lat="51.046745" lon="4.951861">
        <ele>17.990219</ele>
        <time>2020-10-05T10:22:16.578Z</time>
      </trkpt>
      <trkpt lat="51.046848" lon="4.951683">
        <ele>17.954826</ele>
        <time>2020-10-05T10:22:18.892Z</time>
      </trkpt>
      <trkpt lat="51.047266" lon="4.951120">
        <ele>17.760373</ele>
        <time>2020-10-05T10:22:26.678Z</time>
      </trkpt>
      <trkpt lat="51.048172" lon="4.949978">
        <ele>17.365950</ele>
        <time>2020-10-05T10:22:41.857Z</time>
      </trkpt>
      <trkpt lat="51.048671" lon="4.949337">
        <ele>17.454439</ele>
        <time>2020-10-05T10:22:50.282Z</time>
      </trkpt>
      <trkpt lat="51.049866" lon="4.947807">
        <ele>18.403738</ele>
        <time>2020-10-05T10:23:15.772Z</time>
      </trkpt>
      <trkpt lat="51.050280" lon="4.947289">
        <ele>19.426041</ele>
        <time>2020-10-05T10:23:27.792Z</time>
      </trkpt>
      <trkpt lat="51.050967" lon="4.946388">
        <ele>21.157849</ele>
        <time>2020-10-05T10:23:50.727Z</time>
      </trkpt>
      <trkpt lat="51.051591" lon="4.945626">
        <ele>22.789678</ele>
        <time>2020-10-05T10:24:11.650Z</time>
      </trkpt>
      <trkpt lat="51.051559" lon="4.945530">
        <ele>22.931373</ele>
        <time>2020-10-05T10:24:13.966Z</time>
      </trkpt>
      <trkpt lat="51.053453" lon="4.943112">
        <ele>26.101945</ele>
        <time>2020-10-05T10:25:15.316Z</time>
      </trkpt>
      <trkpt lat="51.053660" lon="4.942845">
        <ele>26.325772</ele>
        <time>2020-10-05T10:25:20.331Z</time>
      </trkpt>
      <trkpt lat="51.054117" lon="4.942262">
        <ele>25.790320</ele>
        <time>2020-10-05T10:25:30.890Z</time>
      </trkpt>
      <trkpt lat="51.054281" lon="4.942053">
        <ele>25.585394</ele>
        <time>2020-10-05T10:25:34.638Z</time>
      </trkpt>
      <trkpt lat="51.054551" lon="4.941611">
        <ele>25.207576</ele>
        <time>2020-10-05T10:25:41.171Z</time>
      </trkpt>
      <trkpt lat="51.055428" lon="4.939603">
        <ele>24.119782</ele>
        <time>2020-10-05T10:26:06.555Z</time>
      </trkpt>
      <trkpt lat="51.055922" lon="4.938507">
        <ele>23.679447</ele>
        <time>2020-10-05T10:26:24.249Z</time>
      </trkpt>
      <trkpt lat="51.056205" lon="4.937866">
        <ele>24.314517</ele>
        <time>2020-10-05T10:26:36.294Z</time>
      </trkpt>
      <trkpt lat="51.056412" lon="4.937404">
        <ele>24.845831</ele>
        <time>2020-10-05T10:26:45.500Z</time>
      </trkpt>
      <trkpt lat="51.057942" lon="4.933993">
        <ele>29.159233</ele>
        <time>2020-10-05T10:27:59.300Z</time>
      </trkpt>
      <trkpt lat="51.057957" lon="4.933959">
        <ele>29.204346</ele>
        <time>2020-10-05T10:27:59.940Z</time>
      </trkpt>
      <trkpt lat="51.058227" lon="4.933363">
        <ele>29.525858</ele>
        <time>2020-10-05T10:28:10.842Z</time>
      </trkpt>
      <trkpt lat="51.058522" lon="4.932714">
        <ele>29.656610</ele>
        <time>2020-10-05T10:28:22.019Z</time>
      </trkpt>
      <trkpt lat="51.058723" lon="4.932267">
        <ele>29.746335</ele>
        <time>2020-10-05T10:28:29.121Z</time>
      </trkpt>
      <trkpt lat="51.060136" lon="4.929101">
        <ele>29.394607</ele>
        <time>2020-10-05T10:29:14.952Z</time>
      </trkpt>
      <trkpt lat="51.060224" lon="4.928898">
        <ele>29.557387</ele>
        <time>2020-10-05T10:29:18.236Z</time>
      </trkpt>
      <trkpt lat="51.060964" lon="4.927252">
        <ele>30.893238</ele>
        <time>2020-10-05T10:29:48.478Z</time>
      </trkpt>
      <trkpt lat="51.061573" lon="4.925865">
        <ele>33.233519</ele>
        <time>2020-10-05T10:30:20.149Z</time>
      </trkpt>
      <trkpt lat="51.062225" lon="4.924427">
        <ele>36.304376</ele>
        <time>2020-10-05T10:30:57.076Z</time>
      </trkpt>
      <trkpt lat="51.062373" lon="4.924107">
        <ele>36.740829</ele>
        <time>2020-10-05T10:31:05.395Z</time>
      </trkpt>
      <trkpt lat="51.062453" lon="4.923982">
        <ele>36.936810</ele>
        <time>2020-10-05T10:31:09.025Z</time>
      </trkpt>
      <trkpt lat="51.062565" lon="4.923865">
        <ele>37.170997</ele>
        <time>2020-10-05T10:31:13.170Z</time>
      </trkpt>
      <trkpt lat="51.062722" lon="4.923736">
        <ele>37.479847</ele>
        <time>2020-10-05T10:31:18.708Z</time>
      </trkpt>
      <trkpt lat="51.062738" lon="4.923830">
        <ele>37.586827</ele>
        <time>2020-10-05T10:31:20.135Z</time>
      </trkpt>
      <trkpt lat="51.063322" lon="4.923359">
        <ele>38.731244</ele>
        <time>2020-10-05T10:31:34.109Z</time>
      </trkpt>
      <trkpt lat="51.063723" lon="4.923022">
        <ele>39.329663</ele>
        <time>2020-10-05T10:31:41.604Z</time>
      </trkpt>
      <trkpt lat="51.064336" lon="4.922404">
        <ele>38.502327</ele>
        <time>2020-10-05T10:31:50.591Z</time>
      </trkpt>
      <trkpt lat="51.065127" lon="4.921663">
        <ele>37.455847</ele>
        <time>2020-10-05T10:32:00.852Z</time>
      </trkpt>
      <trkpt lat="51.065891" lon="4.921084">
        <ele>36.768065</ele>
        <time>2020-10-05T10:32:10.604Z</time>
      </trkpt>
      <trkpt lat="51.066121" lon="4.921002">
        <ele>36.585425</ele>
        <time>2020-10-05T10:32:13.491Z</time>
      </trkpt>
      <trkpt lat="51.066622" lon="4.920869">
        <ele>36.191849</ele>
        <time>2020-10-05T10:32:20.508Z</time>
      </trkpt>
      <trkpt lat="51.067290" lon="4.920724">
        <ele>35.990840</ele>
        <time>2020-10-05T10:32:31.528Z</time>
      </trkpt>
      <trkpt lat="51.068143" lon="4.920539">
        <ele>36.056551</ele>
        <time>2020-10-05T10:32:46.229Z</time>
      </trkpt>
      <trkpt lat="51.068575" lon="4.920437">
        <ele>36.089886</ele>
        <time>2020-10-05T10:32:52.561Z</time>
      </trkpt>
      <trkpt lat="51.068827" lon="4.920344">
        <ele>35.820027</ele>
        <time>2020-10-05T10:32:55.791Z</time>
      </trkpt>
      <trkpt lat="51.069081" lon="4.920233">
        <ele>35.276087</ele>
        <time>2020-10-05T10:32:58.843Z</time>
      </trkpt>
      <trkpt lat="51.069778" lon="4.919860">
        <ele>33.757548</ele>
        <time>2020-10-05T10:33:06.927Z</time>
      </trkpt>
      <trkpt lat="51.070361" lon="4.919531">
        <ele>32.480174</ele>
        <time>2020-10-05T10:33:13.295Z</time>
      </trkpt>
      <trkpt lat="51.073456" lon="4.917859">
        <ele>22.258388</ele>
        <time>2020-10-05T10:33:46.487Z</time>
      </trkpt>
      <trkpt lat="51.073501" lon="4.917834">
        <ele>22.108683</ele>
        <time>2020-10-05T10:33:46.945Z</time>
      </trkpt>
      <trkpt lat="51.074564" lon="4.917249">
        <ele>19.395276</ele>
        <time>2020-10-05T10:34:03.571Z</time>
      </trkpt>
      <trkpt lat="51.075531" lon="4.916723">
        <ele>17.264558</ele>
        <time>2020-10-05T10:34:20.254Z</time>
      </trkpt>
      <trkpt lat="51.075614" lon="4.916677">
        <ele>17.201969</ele>
        <time>2020-10-05T10:34:21.864Z</time>
      </trkpt>
      <trkpt lat="51.076007" lon="4.916465">
        <ele>16.906459</ele>
        <time>2020-10-05T10:34:29.415Z</time>
      </trkpt>
      <trkpt lat="51.076237" lon="4.916337">
        <ele>16.732943</ele>
        <time>2020-10-05T10:34:33.961Z</time>
      </trkpt>
      <trkpt lat="51.076294" lon="4.916302">
        <ele>16.689434</ele>
        <time>2020-10-05T10:34:35.195Z</time>
      </trkpt>
      <trkpt lat="51.076656" lon="4.916204">
        <ele>16.427936</ele>
        <time>2020-10-05T10:34:41.998Z</time>
      </trkpt>
      <trkpt lat="51.078090" lon="4.915438">
        <ele>15.516789</ele>
        <time>2020-10-05T10:35:09.383Z</time>
      </trkpt>
      <trkpt lat="51.079050" lon="4.914847">
        <ele>15.028717</ele>
        <time>2020-10-05T10:35:28.563Z</time>
      </trkpt>
      <trkpt lat="51.079056" lon="4.914839">
        <ele>15.027756</ele>
        <time>2020-10-05T10:35:28.860Z</time>
      </trkpt>
      <trkpt lat="51.079197" lon="4.914638">
        <ele>15.004519</ele>
        <time>2020-10-05T10:35:32.504Z</time>
      </trkpt>
      <trkpt lat="51.079301" lon="4.914451">
        <ele>14.985258</ele>
        <time>2020-10-05T10:35:35.695Z</time>
      </trkpt>
      <trkpt lat="51.079406" lon="4.914354">
        <ele>14.970354</ele>
        <time>2020-10-05T10:35:38.049Z</time>
      </trkpt>
      <trkpt lat="51.079460" lon="4.914340">
        <ele>14.963638</ele>
        <time>2020-10-05T10:35:39.365Z</time>
      </trkpt>
      <trkpt lat="51.080292" lon="4.914214">
        <ele>14.861038</ele>
        <time>2020-10-05T10:35:56.101Z</time>
      </trkpt>
      <trkpt lat="51.080367" lon="4.914186">
        <ele>14.851581</ele>
        <time>2020-10-05T10:35:57.754Z</time>
      </trkpt>
      <trkpt lat="51.080462" lon="4.914151">
        <ele>14.839610</ele>
        <time>2020-10-05T10:35:59.516Z</time>
      </trkpt>
      <trkpt lat="51.080975" lon="4.913857">
        <ele>14.741363</ele>
        <time>2020-10-05T10:36:10.547Z</time>
      </trkpt>
      <trkpt lat="51.081027" lon="4.913820">
        <ele>14.730196</ele>
        <time>2020-10-05T10:36:11.678Z</time>
      </trkpt>
      <trkpt lat="51.081068" lon="4.913798">
        <ele>14.721713</ele>
        <time>2020-10-05T10:36:12.516Z</time>
      </trkpt>
      <trkpt lat="51.081240" lon="4.913702">
        <ele>14.685978</ele>
        <time>2020-10-05T10:36:15.971Z</time>
      </trkpt>
      <trkpt lat="51.081306" lon="4.913687">
        <ele>14.672907</ele>
        <time>2020-10-05T10:36:17.273Z</time>
      </trkpt>
      <trkpt lat="51.081394" lon="4.913681">
        <ele>14.655638</ele>
        <time>2020-10-05T10:36:19.088Z</time>
      </trkpt>
      <trkpt lat="51.081559" lon="4.913592">
        <ele>14.621481</ele>
        <time>2020-10-05T10:36:22.408Z</time>
      </trkpt>
      <trkpt lat="51.082744" lon="4.912947">
        <ele>14.452033</ele>
        <time>2020-10-05T10:36:46.483Z</time>
      </trkpt>
      <trkpt lat="51.082897" lon="4.912876">
        <ele>14.445414</ele>
        <time>2020-10-05T10:36:49.726Z</time>
      </trkpt>
      <trkpt lat="51.082877" lon="4.912741">
        <ele>14.441795</ele>
        <time>2020-10-05T10:36:51.392Z</time>
      </trkpt>
      <trkpt lat="51.083181" lon="4.912580">
        <ele>14.428490</ele>
        <time>2020-10-05T10:36:56.376Z</time>
      </trkpt>
      <trkpt lat="51.083183" lon="4.912580">
        <ele>14.428407</ele>
        <time>2020-10-05T10:36:56.395Z</time>
      </trkpt>
      <trkpt lat="51.083950" lon="4.912175">
        <ele>14.408512</ele>
        <time>2020-10-05T10:37:08.371Z</time>
      </trkpt>
      <trkpt lat="51.084490" lon="4.911891">
        <ele>14.494794</ele>
        <time>2020-10-05T10:37:16.754Z</time>
      </trkpt>
      <trkpt lat="51.085029" lon="4.911582">
        <ele>14.581709</ele>
        <time>2020-10-05T10:37:25.604Z</time>
      </trkpt>
      <trkpt lat="51.085145" lon="4.911515">
        <ele>14.600430</ele>
        <time>2020-10-05T10:37:27.507Z</time>
      </trkpt>
      <trkpt lat="51.085662" lon="4.911242">
        <ele>14.708108</ele>
        <time>2020-10-05T10:37:36.478Z</time>
      </trkpt>
      <trkpt lat="51.085689" lon="4.911226">
        <ele>14.721301</ele>
        <time>2020-10-05T10:37:36.975Z</time>
      </trkpt>
      <trkpt lat="51.085821" lon="4.911150">
        <ele>14.785580</ele>
        <time>2020-10-05T10:37:39.205Z</time>
      </trkpt>
      <trkpt lat="51.085939" lon="4.911081">
        <ele>14.843146</ele>
        <time>2020-10-05T10:37:41.302Z</time>
      </trkpt>
      <trkpt lat="51.085963" lon="4.911067">
        <ele>14.854851</ele>
        <time>2020-10-05T10:37:41.797Z</time>
      </trkpt>
      <trkpt lat="51.086306" lon="4.910899">
        <ele>15.019188</ele>
        <time>2020-10-05T10:37:47.899Z</time>
      </trkpt>
      <trkpt lat="51.086521" lon="4.910831">
        <ele>15.119567</ele>
        <time>2020-10-05T10:37:51.607Z</time>
      </trkpt>
      <trkpt lat="51.086744" lon="4.910784">
        <ele>15.222577</ele>
        <time>2020-10-05T10:37:55.566Z</time>
      </trkpt>
      <trkpt lat="51.087431" lon="4.910810">
        <ele>15.511121</ele>
        <time>2020-10-05T10:38:06.921Z</time>
      </trkpt>
      <trkpt lat="51.087479" lon="4.910822">
        <ele>15.519825</ele>
        <time>2020-10-05T10:38:07.868Z</time>
      </trkpt>
      <trkpt lat="51.087639" lon="4.910870">
        <ele>15.548991</ele>
        <time>2020-10-05T10:38:10.263Z</time>
      </trkpt>
      <trkpt lat="51.088014" lon="4.911032">
        <ele>15.618597</ele>
        <time>2020-10-05T10:38:16.298Z</time>
      </trkpt>
      <trkpt lat="51.088405" lon="4.911300">
        <ele>15.694855</ele>
        <time>2020-10-05T10:38:22.889Z</time>
      </trkpt>
      <trkpt lat="51.088895" lon="4.911819">
        <ele>15.800283</ele>
        <time>2020-10-05T10:38:31.802Z</time>
      </trkpt>
      <trkpt lat="51.089090" lon="4.912099">
        <ele>15.852590</ele>
        <time>2020-10-05T10:38:35.578Z</time>
      </trkpt>
      <trkpt lat="51.089225" lon="4.912329">
        <ele>15.894067</ele>
        <time>2020-10-05T10:38:38.707Z</time>
      </trkpt>
      <trkpt lat="51.089297" lon="4.912463">
        <ele>15.917302</ele>
        <time>2020-10-05T10:38:40.310Z</time>
      </trkpt>
      <trkpt lat="51.089460" lon="4.912807">
        <ele>15.974077</ele>
        <time>2020-10-05T10:38:44.803Z</time>
      </trkpt>
      <trkpt lat="51.089546" lon="4.913014">
        <ele>16.006778</ele>
        <time>2020-10-05T10:38:47.341Z</time>
      </trkpt>
      <trkpt lat="51.089645" lon="4.913281">
        <ele>16.047630</ele>
        <time>2020-10-05T10:38:50.487Z</time>
      </trkpt>
      <trkpt lat="51.089719" lon="4.913533">
        <ele>16.084283</ele>
        <time>2020-10-05T10:38:53.263Z</time>
      </trkpt>
      <trkpt lat="51.089874" lon="4.914159">
        <ele>16.172940</ele>
        <time>2020-10-05T10:38:59.871Z</time>
      </trkpt>
      <trkpt lat="51.089882" lon="4.914199">
        <ele>16.178471</ele>
        <time>2020-10-05T10:39:00.337Z</time>
      </trkpt>
      <trkpt lat="51.089962" lon="4.914164">
        <ele>16.194354</ele>
        <time>2020-10-05T10:39:01.719Z</time>
      </trkpt>
      <trkpt lat="51.090002" lon="4.914183">
        <ele>16.196601</ele>
        <time>2020-10-05T10:39:02.608Z</time>
      </trkpt>
      <trkpt lat="51.090029" lon="4.914321">
        <ele>16.201489</ele>
        <time>2020-10-05T10:39:04.454Z</time>
      </trkpt>
      <trkpt lat="51.090056" lon="4.914309">
        <ele>16.202998</ele>
        <time>2020-10-05T10:39:05.201Z</time>
      </trkpt>
      <trkpt lat="51.090417" lon="4.914131">
        <ele>16.223342</ele>
        <time>2020-10-05T10:39:13.056Z</time>
      </trkpt>
      <trkpt lat="51.090609" lon="4.914029">
        <ele>16.234239</ele>
        <time>2020-10-05T10:39:17.168Z</time>
      </trkpt>
      <trkpt lat="51.091044" lon="4.913815">
        <ele>16.258749</ele>
        <time>2020-10-05T10:39:26.498Z</time>
      </trkpt>
      <trkpt lat="51.091141" lon="4.913767">
        <ele>16.264217</ele>
        <time>2020-10-05T10:39:28.655Z</time>
      </trkpt>
      <trkpt lat="51.091389" lon="4.913644">
        <ele>16.278201</ele>
        <time>2020-10-05T10:39:33.881Z</time>
      </trkpt>
      <trkpt lat="51.092699" lon="4.912994">
        <ele>15.961925</ele>
        <time>2020-10-05T10:40:00.179Z</time>
      </trkpt>
      <trkpt lat="51.094078" lon="4.912320">
        <ele>15.703582</ele>
        <time>2020-10-05T10:40:27.615Z</time>
      </trkpt>
      <trkpt lat="51.094766" lon="4.911972">
        <ele>15.640320</ele>
        <time>2020-10-05T10:40:42.166Z</time>
      </trkpt>
      <trkpt lat="51.095452" lon="4.911643">
        <ele>15.810872</ele>
        <time>2020-10-05T10:40:57.409Z</time>
      </trkpt>
      <trkpt lat="51.095752" lon="4.911494">
        <ele>15.956152</ele>
        <time>2020-10-05T10:41:04.393Z</time>
      </trkpt>
      <trkpt lat="51.097160" lon="4.910803">
        <ele>16.736203</ele>
        <time>2020-10-05T10:41:37.758Z</time>
      </trkpt>
      <trkpt lat="51.097969" lon="4.910406">
        <ele>17.330186</ele>
        <time>2020-10-05T10:41:57.023Z</time>
      </trkpt>
      <trkpt lat="51.098118" lon="4.910292">
        <ele>17.446174</ele>
        <time>2020-10-05T10:42:00.994Z</time>
      </trkpt>
      <trkpt lat="51.098151" lon="4.910214">
        <ele>17.487616</ele>
        <time>2020-10-05T10:42:02.358Z</time>
      </trkpt>
      <trkpt lat="51.098208" lon="4.910063">
        <ele>17.565246</ele>
        <time>2020-10-05T10:42:04.899Z</time>
      </trkpt>
      <trkpt lat="51.098442" lon="4.909041">
        <ele>18.151536</ele>
        <time>2020-10-05T10:42:21.095Z</time>
      </trkpt>
      <trkpt lat="51.098482" lon="4.908962">
        <ele>18.210473</ele>
        <time>2020-10-05T10:42:22.623Z</time>
      </trkpt>
      <trkpt lat="51.098545" lon="4.908923">
        <ele>18.272985</ele>
        <time>2020-10-05T10:42:24.480Z</time>
      </trkpt>
      <trkpt lat="51.100723" lon="4.908263">
        <ele>19.868028</ele>
        <time>2020-10-05T10:43:17.347Z</time>
      </trkpt>
      <trkpt lat="51.101948" lon="4.907895">
        <ele>19.739343</ele>
        <time>2020-10-05T10:43:42.686Z</time>
      </trkpt>
      <trkpt lat="51.102066" lon="4.907856">
        <ele>19.613061</ele>
        <time>2020-10-05T10:43:44.824Z</time>
      </trkpt>
      <trkpt lat="51.102952" lon="4.907579">
        <ele>18.666938</ele>
        <time>2020-10-05T10:43:59.841Z</time>
      </trkpt>
      <trkpt lat="51.102964" lon="4.907202">
        <ele>18.418563</ele>
        <time>2020-10-05T10:44:03.619Z</time>
      </trkpt>
      <trkpt lat="51.103028" lon="4.905118">
        <ele>16.694314</ele>
        <time>2020-10-05T10:44:24.751Z</time>
      </trkpt>
      <trkpt lat="51.103074" lon="4.903615">
        <ele>16.121699</ele>
        <time>2020-10-05T10:44:42.025Z</time>
      </trkpt>
      <trkpt lat="51.103230" lon="4.903638">
        <ele>16.184316</ele>
        <time>2020-10-05T10:44:44.541Z</time>
      </trkpt>
      <trkpt lat="51.104799" lon="4.903872">
        <ele>16.682608</ele>
        <time>2020-10-05T10:45:13.185Z</time>
      </trkpt>
      <trkpt lat="51.105143" lon="4.903923">
        <ele>16.682608</ele>
        <time>2020-10-05T10:45:19.342Z</time>
      </trkpt>
      <trkpt lat="51.105143" lon="4.903970">
        <ele>16.682608</ele>
        <time>2020-10-05T10:45:20.013Z</time>
      </trkpt>
      <trkpt lat="51.105144" lon="4.904066">
        <ele>16.682608</ele>
        <time>2020-10-05T10:45:21.343Z</time>
      </trkpt>
      <trkpt lat="51.105152" lon="4.904902">
        <ele>16.682608</ele>
        <time>2020-10-05T10:45:32.928Z</time>
      </trkpt>
      <trkpt lat="51.105544" lon="4.906283">
        <ele>17.793965</ele>
        <time>2020-10-05T08:17:13.737Z</time>
      </trkpt>
      <trkpt lat="51.105531" lon="4.905962">
        <ele>17.793965</ele>
        <time>2020-10-05T08:17:17.766Z</time>
      </trkpt>
      <trkpt lat="51.105206" lon="4.905998">
        <ele>17.793965</ele>
        <time>2020-10-05T08:17:24.336Z</time>
      </trkpt>
      <trkpt lat="51.105157" lon="4.905411">
        <ele>17.794131</ele>
        <time>2020-10-05T08:17:31.896Z</time>
      </trkpt>
      <trkpt lat="51.105152" lon="4.904902">
        <ele>18.006098</ele>
        <time>2020-10-05T08:17:38.633Z</time>
      </trkpt>
      <trkpt lat="51.105144" lon="4.904066">
        <ele>18.354239</ele>
        <time>2020-10-05T08:17:50.428Z</time>
      </trkpt>
      <trkpt lat="51.105143" lon="4.903970">
        <ele>18.394217</ele>
        <time>2020-10-05T08:17:51.901Z</time>
      </trkpt>
      <trkpt lat="51.105143" lon="4.903923">
        <ele>18.413788</ele>
        <time>2020-10-05T08:17:52.623Z</time>
      </trkpt>
      <trkpt lat="51.105765" lon="4.904015">
        <ele>18.828042</ele>
        <time>2020-10-05T08:18:04.665Z</time>
      </trkpt>
      <trkpt lat="51.107051" lon="4.904210">
        <ele>19.624130</ele>
        <time>2020-10-05T08:18:27.318Z</time>
      </trkpt>
      <trkpt lat="51.107829" lon="4.904325">
        <ele>20.082762</ele>
        <time>2020-10-05T08:18:44.912Z</time>
      </trkpt>
      <trkpt lat="51.109819" lon="4.904558">
        <ele>20.382233</ele>
        <time>2020-10-05T08:19:26.459Z</time>
      </trkpt>
      <trkpt lat="51.116440" lon="4.905506">
        <ele>19.180679</ele>
        <time>2020-10-05T08:21:36.114Z</time>
      </trkpt>
      <trkpt lat="51.118017" lon="4.905723">
        <ele>18.742229</ele>
        <time>2020-10-05T08:22:06.755Z</time>
      </trkpt>
      <trkpt lat="51.118090" lon="4.905630">
        <ele>18.714749</ele>
        <time>2020-10-05T08:22:08.537Z</time>
      </trkpt>
      <trkpt lat="51.118221" lon="4.905520">
        <ele>18.671214</ele>
        <time>2020-10-05T08:22:11.418Z</time>
      </trkpt>
      <trkpt lat="51.118406" lon="4.904786">
        <ele>18.545136</ele>
        <time>2020-10-05T08:22:18.011Z</time>
      </trkpt>
      <trkpt lat="51.118595" lon="4.904015">
        <ele>18.442225</ele>
        <time>2020-10-05T08:22:27.759Z</time>
      </trkpt>
      <trkpt lat="51.119687" lon="4.899462">
        <ele>18.473713</ele>
        <time>2020-10-05T08:23:29.291Z</time>
      </trkpt>
      <trkpt lat="51.121134" lon="4.893395">
        <ele>21.467155</ele>
        <time>2020-10-05T08:25:11.413Z</time>
      </trkpt>
      <trkpt lat="51.122067" lon="4.889576">
        <ele>17.574529</ele>
        <time>2020-10-05T08:25:50.975Z</time>
      </trkpt>
      <trkpt lat="51.122093" lon="4.889497">
        <ele>17.467995</ele>
        <time>2020-10-05T08:25:51.939Z</time>
      </trkpt>
      <trkpt lat="51.123576" lon="4.887884">
        <ele>16.286153</ele>
        <time>2020-10-05T08:26:25.443Z</time>
      </trkpt>
      <trkpt lat="51.124430" lon="4.886056">
        <ele>16.443328</ele>
        <time>2020-10-05T08:26:56.159Z</time>
      </trkpt>
      <trkpt lat="51.126282" lon="4.883265">
        <ele>17.243279</ele>
        <time>2020-10-05T08:27:50.883Z</time>
      </trkpt>
      <trkpt lat="51.126530" lon="4.882959">
        <ele>17.362236</ele>
        <time>2020-10-05T08:27:57.758Z</time>
      </trkpt>
      <trkpt lat="51.127639" lon="4.882083">
        <ele>17.831666</ele>
        <time>2020-10-05T08:28:24.778Z</time>
      </trkpt>
      <trkpt lat="51.128221" lon="4.881624">
        <ele>17.976842</ele>
        <time>2020-10-05T08:28:39.100Z</time>
      </trkpt>
      <trkpt lat="51.128453" lon="4.881442">
        <ele>18.020202</ele>
        <time>2020-10-05T08:28:44.692Z</time>
      </trkpt>
      <trkpt lat="51.128635" lon="4.881293">
        <ele>18.054512</ele>
        <time>2020-10-05T08:28:49.169Z</time>
      </trkpt>
      <trkpt lat="51.128811" lon="4.881149">
        <ele>18.087687</ele>
        <time>2020-10-05T08:28:53.081Z</time>
      </trkpt>
      <trkpt lat="51.129044" lon="4.880956">
        <ele>18.131719</ele>
        <time>2020-10-05T08:28:58.429Z</time>
      </trkpt>
      <trkpt lat="51.129278" lon="4.880795">
        <ele>18.174458</ele>
        <time>2020-10-05T08:29:02.240Z</time>
      </trkpt>
      <trkpt lat="51.129462" lon="4.880790">
        <ele>18.180072</ele>
        <time>2020-10-05T08:29:04.709Z</time>
      </trkpt>
      <trkpt lat="51.129645" lon="4.880784">
        <ele>18.100207</ele>
        <time>2020-10-05T08:29:07.415Z</time>
      </trkpt>
      <trkpt lat="51.129820" lon="4.880767">
        <ele>18.023709</ele>
        <time>2020-10-05T08:29:09.707Z</time>
      </trkpt>
      <trkpt lat="51.130031" lon="4.880723">
        <ele>17.930859</ele>
        <time>2020-10-05T08:29:12.788Z</time>
      </trkpt>
      <trkpt lat="51.130109" lon="4.880561">
        <ele>17.874949</ele>
        <time>2020-10-05T08:29:15.083Z</time>
      </trkpt>
      <trkpt lat="51.130670" lon="4.879752">
        <ele>17.544818</ele>
        <time>2020-10-05T08:29:29.159Z</time>
      </trkpt>
      <trkpt lat="51.131329" lon="4.878968">
        <ele>17.241279</ele>
        <time>2020-10-05T08:29:44.016Z</time>
      </trkpt>
      <trkpt lat="51.131692" lon="4.878694">
        <ele>17.108614</ele>
        <time>2020-10-05T08:29:51.553Z</time>
      </trkpt>
      <trkpt lat="51.132554" lon="4.877864">
        <ele>16.889542</ele>
        <time>2020-10-05T08:30:11.392Z</time>
      </trkpt>
      <trkpt lat="51.132808" lon="4.877731">
        <ele>17.031934</ele>
        <time>2020-10-05T08:30:16.953Z</time>
      </trkpt>
      <trkpt lat="51.133127" lon="4.877665">
        <ele>17.203254</ele>
        <time>2020-10-05T08:30:23.812Z</time>
      </trkpt>
      <trkpt lat="51.134607" lon="4.877642">
        <ele>18.499545</ele>
        <time>2020-10-05T08:30:58.404Z</time>
      </trkpt>
      <trkpt lat="51.134989" lon="4.877636">
        <ele>19.185672</ele>
        <time>2020-10-05T08:31:08.961Z</time>
      </trkpt>
      <trkpt lat="51.135353" lon="4.877633">
        <ele>19.839445</ele>
        <time>2020-10-05T08:31:19.175Z</time>
      </trkpt>
      <trkpt lat="51.135485" lon="4.877606">
        <ele>20.078469</ele>
        <time>2020-10-05T08:31:23.001Z</time>
      </trkpt>
      <trkpt lat="51.135596" lon="4.877547">
        <ele>20.288627</ele>
        <time>2020-10-05T08:31:26.144Z</time>
      </trkpt>
      <trkpt lat="51.135878" lon="4.877331">
        <ele>20.850576</ele>
        <time>2020-10-05T08:31:35.366Z</time>
      </trkpt>
      <trkpt lat="51.136041" lon="4.877206">
        <ele>21.201593</ele>
        <time>2020-10-05T08:31:41.332Z</time>
      </trkpt>
      <trkpt lat="51.137084" lon="4.876442">
        <ele>23.584632</ele>
        <time>2020-10-05T08:32:16.570Z</time>
      </trkpt>
      <trkpt lat="51.137290" lon="4.876311">
        <ele>24.045077</ele>
        <time>2020-10-05T08:32:22.939Z</time>
      </trkpt>
      <trkpt lat="51.137373" lon="4.876470">
        <ele>24.314497</ele>
        <time>2020-10-05T08:32:26.058Z</time>
      </trkpt>
      <trkpt lat="51.137662" lon="4.876745">
        <ele>24.727880</ele>
        <time>2020-10-05T08:32:33.855Z</time>
      </trkpt>
      <trkpt lat="51.138129" lon="4.876811">
        <ele>24.677826</ele>
        <time>2020-10-05T08:32:43.890Z</time>
      </trkpt>
      <trkpt lat="51.138225" lon="4.876830">
        <ele>24.667498</ele>
        <time>2020-10-05T08:32:46.199Z</time>
      </trkpt>
      <trkpt lat="51.138254" lon="4.876539">
        <ele>24.647761</ele>
        <time>2020-10-05T08:32:49.502Z</time>
      </trkpt>
      <trkpt lat="51.138659" lon="4.874301">
        <ele>24.636831</ele>
        <time>2020-10-05T08:33:16.027Z</time>
      </trkpt>
      <trkpt lat="51.138684" lon="4.874250">
        <ele>24.643326</ele>
        <time>2020-10-05T08:33:16.654Z</time>
      </trkpt>
      <trkpt lat="51.139381" lon="4.872762">
        <ele>24.829698</ele>
        <time>2020-10-05T08:33:42.352Z</time>
      </trkpt>
      <trkpt lat="51.139450" lon="4.872609">
        <ele>24.907505</ele>
        <time>2020-10-05T08:33:45.468Z</time>
      </trkpt>
      <trkpt lat="51.139511" lon="4.872458">
        <ele>25.021321</ele>
        <time>2020-10-05T08:33:48.243Z</time>
      </trkpt>
      <trkpt lat="51.140212" lon="4.870214">
        <ele>26.609956</ele>
        <time>2020-10-05T08:34:28.235Z</time>
      </trkpt>
      <trkpt lat="51.140454" lon="4.869437">
        <ele>26.534158</ele>
        <time>2020-10-05T08:34:39.460Z</time>
      </trkpt>
      <trkpt lat="51.140506" lon="4.869334">
        <ele>26.514244</ele>
        <time>2020-10-05T08:34:40.893Z</time>
      </trkpt>
      <trkpt lat="51.140579" lon="4.869188">
        <ele>26.486123</ele>
        <time>2020-10-05T08:34:43.251Z</time>
      </trkpt>
      <trkpt lat="51.140895" lon="4.868588">
        <ele>26.368125</ele>
        <time>2020-10-05T08:34:52.476Z</time>
      </trkpt>
      <trkpt lat="51.141032" lon="4.868330">
        <ele>26.317213</ele>
        <time>2020-10-05T08:34:56.275Z</time>
      </trkpt>
      <trkpt lat="51.141228" lon="4.867861">
        <ele>26.232332</ele>
        <time>2020-10-05T08:35:02.760Z</time>
      </trkpt>
      <trkpt lat="51.141319" lon="4.867529">
        <ele>26.105788</ele>
        <time>2020-10-05T08:35:06.807Z</time>
      </trkpt>
      <trkpt lat="51.141829" lon="4.865541">
        <ele>25.261513</ele>
        <time>2020-10-05T08:35:30.702Z</time>
      </trkpt>
      <trkpt lat="51.141926" lon="4.865133">
        <ele>25.094370</ele>
        <time>2020-10-05T08:35:36.142Z</time>
      </trkpt>
      <trkpt lat="51.141971" lon="4.864885">
        <ele>25.072949</ele>
        <time>2020-10-05T08:35:39.647Z</time>
      </trkpt>
      <trkpt lat="51.141997" lon="4.864636">
        <ele>25.052003</ele>
        <time>2020-10-05T08:35:42.873Z</time>
      </trkpt>
      <trkpt lat="51.142097" lon="4.864626">
        <ele>25.038752</ele>
        <time>2020-10-05T08:35:45.053Z</time>
      </trkpt>
      <trkpt lat="51.142158" lon="4.864553">
        <ele>25.028663</ele>
        <time>2020-10-05T08:35:46.640Z</time>
      </trkpt>
      <trkpt lat="51.142665" lon="4.862961">
        <ele>24.880522</ele>
        <time>2020-10-05T08:36:08.907Z</time>
      </trkpt>
      <trkpt lat="51.142730" lon="4.862734">
        <ele>24.859818</ele>
        <time>2020-10-05T08:36:11.838Z</time>
      </trkpt>
      <trkpt lat="51.142813" lon="4.862577">
        <ele>24.828708</ele>
        <time>2020-10-05T08:36:14.458Z</time>
      </trkpt>
      <trkpt lat="51.143166" lon="4.862154">
        <ele>24.715038</ele>
        <time>2020-10-05T08:36:22.866Z</time>
      </trkpt>
      <trkpt lat="51.143228" lon="4.862038">
        <ele>24.690430</ele>
        <time>2020-10-05T08:36:24.609Z</time>
      </trkpt>
      <trkpt lat="51.143416" lon="4.861098">
        <ele>24.531113</ele>
        <time>2020-10-05T08:36:36.526Z</time>
      </trkpt>
      <trkpt lat="51.143437" lon="4.860415">
        <ele>24.420690</ele>
        <time>2020-10-05T08:36:44.752Z</time>
      </trkpt>
      <trkpt lat="51.143419" lon="4.860095">
        <ele>24.381347</ele>
        <time>2020-10-05T08:36:48.688Z</time>
      </trkpt>
      <trkpt lat="51.143518" lon="4.860084">
        <ele>24.368171</ele>
        <time>2020-10-05T08:36:50.189Z</time>
      </trkpt>
      <trkpt lat="51.144098" lon="4.860018">
        <ele>24.290965</ele>
        <time>2020-10-05T08:36:58.784Z</time>
      </trkpt>
      <trkpt lat="51.144149" lon="4.860013">
        <ele>24.284181</ele>
        <time>2020-10-05T08:36:59.536Z</time>
      </trkpt>
      <trkpt lat="51.144211" lon="4.860005">
        <ele>24.275922</ele>
        <time>2020-10-05T08:37:00.495Z</time>
      </trkpt>
      <trkpt lat="51.145249" lon="4.859869">
        <ele>24.083231</ele>
        <time>2020-10-05T08:37:15.464Z</time>
      </trkpt>
      <trkpt lat="51.145417" lon="4.859847">
        <ele>23.994145</ele>
        <time>2020-10-05T08:37:17.758Z</time>
      </trkpt>
      <trkpt lat="51.145453" lon="4.859835">
        <ele>23.974708</ele>
        <time>2020-10-05T08:37:18.247Z</time>
      </trkpt>
      <trkpt lat="51.145741" lon="4.859738">
        <ele>23.819142</ele>
        <time>2020-10-05T08:37:22.165Z</time>
      </trkpt>
      <trkpt lat="51.146034" lon="4.859583">
        <ele>23.655989</ele>
        <time>2020-10-05T08:37:26.184Z</time>
      </trkpt>
      <trkpt lat="51.146318" lon="4.859427">
        <ele>23.497236</ele>
        <time>2020-10-05T08:37:30.012Z</time>
      </trkpt>
      <trkpt lat="51.146664" lon="4.859161">
        <ele>23.294222</ele>
        <time>2020-10-05T08:37:36.845Z</time>
      </trkpt>
      <trkpt lat="51.147140" lon="4.858714">
        <ele>23.124136</ele>
        <time>2020-10-05T08:37:46.957Z</time>
      </trkpt>
      <trkpt lat="51.147745" lon="4.858102">
        <ele>22.972740</ele>
        <time>2020-10-05T08:38:00.465Z</time>
      </trkpt>
      <trkpt lat="51.147838" lon="4.858008">
        <ele>22.949473</ele>
        <time>2020-10-05T08:38:02.636Z</time>
      </trkpt>
      <trkpt lat="51.147933" lon="4.857913">
        <ele>22.925778</ele>
        <time>2020-10-05T08:38:04.896Z</time>
      </trkpt>
      <trkpt lat="51.148028" lon="4.857816">
        <ele>22.901941</ele>
        <time>2020-10-05T08:38:07.333Z</time>
      </trkpt>
      <trkpt lat="51.148074" lon="4.857769">
        <ele>22.890397</ele>
        <time>2020-10-05T08:38:08.517Z</time>
      </trkpt>
      <trkpt lat="51.148198" lon="4.857647">
        <ele>22.859608</ele>
        <time>2020-10-05T08:38:11.583Z</time>
      </trkpt>
      <trkpt lat="51.148212" lon="4.857632">
        <ele>22.856044</ele>
        <time>2020-10-05T08:38:11.983Z</time>
      </trkpt>
      <trkpt lat="51.148341" lon="4.857504">
        <ele>22.827212</ele>
        <time>2020-10-05T08:38:14.446Z</time>
      </trkpt>
      <trkpt lat="51.148404" lon="4.857437">
        <ele>22.850048</ele>
        <time>2020-10-05T08:38:15.688Z</time>
      </trkpt>
      <trkpt lat="51.148492" lon="4.857347">
        <ele>22.881575</ele>
        <time>2020-10-05T08:38:17.375Z</time>
      </trkpt>
      <trkpt lat="51.148560" lon="4.857278">
        <ele>22.905880</ele>
        <time>2020-10-05T08:38:18.679Z</time>
      </trkpt>
      <trkpt lat="51.149397" lon="4.856431">
        <ele>23.204820</ele>
        <time>2020-10-05T08:38:35.578Z</time>
      </trkpt>
      <trkpt lat="51.150394" lon="4.855411">
        <ele>23.002501</ele>
        <time>2020-10-05T08:38:53.228Z</time>
      </trkpt>
      <trkpt lat="51.151248" lon="4.854547">
        <ele>22.429627</ele>
        <time>2020-10-05T08:39:11.245Z</time>
      </trkpt>
      <trkpt lat="51.151419" lon="4.854374">
        <ele>22.272177</ele>
        <time>2020-10-05T08:39:13.666Z</time>
      </trkpt>
      <trkpt lat="51.151965" lon="4.853824">
        <ele>21.446407</ele>
        <time>2020-10-05T08:39:21.279Z</time>
      </trkpt>
      <trkpt lat="51.153152" lon="4.852622">
        <ele>19.756561</ele>
        <time>2020-10-05T08:39:37.771Z</time>
      </trkpt>
      <trkpt lat="51.153229" lon="4.852614">
        <ele>19.684508</ele>
        <time>2020-10-05T08:39:39.076Z</time>
      </trkpt>
      <trkpt lat="51.153304" lon="4.852541">
        <ele>19.602455</ele>
        <time>2020-10-05T08:39:40.568Z</time>
      </trkpt>
      <trkpt lat="51.153657" lon="4.852179">
        <ele>19.210529</ele>
        <time>2020-10-05T08:39:47.810Z</time>
      </trkpt>
      <trkpt lat="51.153929" lon="4.851900">
        <ele>18.908516</ele>
        <time>2020-10-05T08:39:53.459Z</time>
      </trkpt>
      <trkpt lat="51.154905" lon="4.850906">
        <ele>18.140226</ele>
        <time>2020-10-05T08:40:14.629Z</time>
      </trkpt>
      <trkpt lat="51.157019" lon="4.848771">
        <ele>17.183622</ele>
        <time>2020-10-05T08:41:02.969Z</time>
      </trkpt>
      <trkpt lat="51.157187" lon="4.848600">
        <ele>17.109816</ele>
        <time>2020-10-05T08:41:06.657Z</time>
      </trkpt>
      <trkpt lat="51.157307" lon="4.848488">
        <ele>17.058326</ele>
        <time>2020-10-05T08:41:09.163Z</time>
      </trkpt>
      <trkpt lat="51.157521" lon="4.848280">
        <ele>16.959399</ele>
        <time>2020-10-05T08:41:13.757Z</time>
      </trkpt>
      <trkpt lat="51.157646" lon="4.848232">
        <ele>16.901333</ele>
        <time>2020-10-05T08:41:16.062Z</time>
      </trkpt>
      <trkpt lat="51.157774" lon="4.848241">
        <ele>16.843471</ele>
        <time>2020-10-05T08:41:18.441Z</time>
      </trkpt>
      <trkpt lat="51.157786" lon="4.848175">
        <ele>16.824007</ele>
        <time>2020-10-05T08:41:19.220Z</time>
      </trkpt>
      <trkpt lat="51.157908" lon="4.848076">
        <ele>16.762185</ele>
        <time>2020-10-05T08:41:21.670Z</time>
      </trkpt>
      <trkpt lat="51.158001" lon="4.847996">
        <ele>16.714462</ele>
        <time>2020-10-05T08:41:23.608Z</time>
      </trkpt>
      <trkpt lat="51.158063" lon="4.847929">
        <ele>16.680637</ele>
        <time>2020-10-05T08:41:25.004Z</time>
      </trkpt>
      <trkpt lat="51.158353" lon="4.847719">
        <ele>16.536795</ele>
        <time>2020-10-05T08:41:30.758Z</time>
      </trkpt>
      <trkpt lat="51.160250" lon="4.846116">
        <ele>15.928620</ele>
        <time>2020-10-05T08:42:11.998Z</time>
      </trkpt>
      <trkpt lat="51.160655" lon="4.845805">
        <ele>15.846231</ele>
        <time>2020-10-05T08:42:21.296Z</time>
      </trkpt>
      <trkpt lat="51.160919" lon="4.845695">
        <ele>15.825110</ele>
        <time>2020-10-05T08:42:26.880Z</time>
      </trkpt>
      <trkpt lat="51.161049" lon="4.845654">
        <ele>15.814853</ele>
        <time>2020-10-05T08:42:29.654Z</time>
      </trkpt>
      <trkpt lat="51.161125" lon="4.845630">
        <ele>15.808856</ele>
        <time>2020-10-05T08:42:31.244Z</time>
      </trkpt>
      <trkpt lat="51.161633" lon="4.845539">
        <ele>15.769288</ele>
        <time>2020-10-05T08:42:41.624Z</time>
      </trkpt>
      <trkpt lat="51.161851" lon="4.845556">
        <ele>15.752395</ele>
        <time>2020-10-05T08:42:46.000Z</time>
      </trkpt>
      <trkpt lat="51.161999" lon="4.845565">
        <ele>15.740931</ele>
        <time>2020-10-05T08:42:49.007Z</time>
      </trkpt>
      <trkpt lat="51.162002" lon="4.845501">
        <ele>15.737815</ele>
        <time>2020-10-05T08:42:49.837Z</time>
      </trkpt>
      <trkpt lat="51.162018" lon="4.845151">
        <ele>15.720781</ele>
        <time>2020-10-05T08:42:54.185Z</time>
      </trkpt>
      <trkpt lat="51.162021" lon="4.845089">
        <ele>15.717763</ele>
        <time>2020-10-05T08:42:54.938Z</time>
      </trkpt>
      <trkpt lat="51.161732" lon="4.845061">
        <ele>15.603518</ele>
        <time>2020-10-05T08:43:00.465Z</time>
      </trkpt>
      <trkpt lat="51.161513" lon="4.845063">
        <ele>15.461495</ele>
        <time>2020-10-05T08:43:04.507Z</time>
      </trkpt>
      <trkpt lat="51.161533" lon="4.844933">
        <ele>15.407058</ele>
        <time>2020-10-05T08:43:06.033Z</time>
      </trkpt>
      <trkpt lat="51.161985" lon="4.844614">
        <ele>15.086511</ele>
        <time>2020-10-05T08:43:15.047Z</time>
      </trkpt>
      <trkpt lat="51.162291" lon="4.844546">
        <ele>14.886154</ele>
        <time>2020-10-05T08:43:20.617Z</time>
      </trkpt>
      <trkpt lat="51.162616" lon="4.844512">
        <ele>14.674940</ele>
        <time>2020-10-05T08:43:26.260Z</time>
      </trkpt>
      <trkpt lat="51.162785" lon="4.844512">
        <ele>14.565344</ele>
        <time>2020-10-05T08:43:29.239Z</time>
      </trkpt>
      <trkpt lat="51.162865" lon="4.844426">
        <ele>14.522690</ele>
        <time>2020-10-05T08:43:30.842Z</time>
      </trkpt>
      <trkpt lat="51.163299" lon="4.843271">
        <ele>14.257531</ele>
        <time>2020-10-05T08:43:46.214Z</time>
      </trkpt>
      <trkpt lat="51.163428" lon="4.843251">
        <ele>14.216830</ele>
        <time>2020-10-05T08:43:48.617Z</time>
      </trkpt>
      <trkpt lat="51.163487" lon="4.843297">
        <ele>14.196206</ele>
        <time>2020-10-05T08:43:49.693Z</time>
      </trkpt>
      <trkpt lat="51.164890" lon="4.838172">
        <ele>14.815046</ele>
        <time>2020-10-05T08:45:05.879Z</time>
      </trkpt>
      <trkpt lat="51.165777" lon="4.834925">
        <ele>14.737039</ele>
        <time>2020-10-05T08:45:50.819Z</time>
      </trkpt>
      <trkpt lat="51.166066" lon="4.833895">
        <ele>14.426136</ele>
        <time>2020-10-05T08:46:04.106Z</time>
      </trkpt>
      <trkpt lat="51.165997" lon="4.833824">
        <ele>14.365052</ele>
        <time>2020-10-05T08:46:05.572Z</time>
      </trkpt>
      <trkpt lat="51.165960" lon="4.833588">
        <ele>14.251580</ele>
        <time>2020-10-05T08:46:08.225Z</time>
      </trkpt>
      <trkpt lat="51.166296" lon="4.832164">
        <ele>13.541883</ele>
        <time>2020-10-05T08:46:24.993Z</time>
      </trkpt>
      <trkpt lat="51.166337" lon="4.831973">
        <ele>13.447715</ele>
        <time>2020-10-05T08:46:27.177Z</time>
      </trkpt>
      <trkpt lat="51.166458" lon="4.831602">
        <ele>13.332075</ele>
        <time>2020-10-05T08:46:31.834Z</time>
      </trkpt>
      <trkpt lat="51.166709" lon="4.830943">
        <ele>13.295711</ele>
        <time>2020-10-05T08:46:40.677Z</time>
      </trkpt>
      <trkpt lat="51.166839" lon="4.830639">
        <ele>13.278357</ele>
        <time>2020-10-05T08:46:45.104Z</time>
      </trkpt>
      <trkpt lat="51.166938" lon="4.830294">
        <ele>13.260463</ele>
        <time>2020-10-05T08:46:49.739Z</time>
      </trkpt>
      <trkpt lat="51.167040" lon="4.829994">
        <ele>13.244369</ele>
        <time>2020-10-05T08:46:54.133Z</time>
      </trkpt>
      <trkpt lat="51.167097" lon="4.830043">
        <ele>13.239499</ele>
        <time>2020-10-05T08:46:55.407Z</time>
      </trkpt>
      <trkpt lat="51.167423" lon="4.830268">
        <ele>13.212782</ele>
        <time>2020-10-05T08:47:03.587Z</time>
      </trkpt>
      <trkpt lat="51.168138" lon="4.830752">
        <ele>13.489732</ele>
        <time>2020-10-05T08:47:22.480Z</time>
      </trkpt>
      <trkpt lat="51.168865" lon="4.831247">
        <ele>13.818441</ele>
        <time>2020-10-05T08:47:40.190Z</time>
      </trkpt>
      <trkpt lat="51.169016" lon="4.831335">
        <ele>13.885293</ele>
        <time>2020-10-05T08:47:43.201Z</time>
      </trkpt>
      <trkpt lat="51.169294" lon="4.831436">
        <ele>13.815328</ele>
        <time>2020-10-05T08:47:48.723Z</time>
      </trkpt>
      <trkpt lat="51.169411" lon="4.831473">
        <ele>13.678622</ele>
        <time>2020-10-05T08:47:50.736Z</time>
      </trkpt>
      <trkpt lat="51.169504" lon="4.831512">
        <ele>13.568411</ele>
        <time>2020-10-05T08:47:52.573Z</time>
      </trkpt>
      <trkpt lat="51.169654" lon="4.831585">
        <ele>13.388667</ele>
        <time>2020-10-05T08:47:54.631Z</time>
      </trkpt>
      <trkpt lat="51.169678" lon="4.831530">
        <ele>13.340513</ele>
        <time>2020-10-05T08:47:55.107Z</time>
      </trkpt>
      <trkpt lat="51.169781" lon="4.831244">
        <ele>13.103495</ele>
        <time>2020-10-05T08:47:57.650Z</time>
      </trkpt>
      <trkpt lat="51.169829" lon="4.831093">
        <ele>12.981833</ele>
        <time>2020-10-05T08:47:58.916Z</time>
      </trkpt>
      <trkpt lat="51.169883" lon="4.830922">
        <ele>12.844242</ele>
        <time>2020-10-05T08:48:00.214Z</time>
      </trkpt>
      <trkpt lat="51.170456" lon="4.827183">
        <ele>9.873630</ele>
        <time>2020-10-05T08:48:27.963Z</time>
      </trkpt>
      <trkpt lat="51.170588" lon="4.826721">
        <ele>9.607002</ele>
        <time>2020-10-05T08:48:32.258Z</time>
      </trkpt>
      <trkpt lat="51.171406" lon="4.821489">
        <ele>9.979076</ele>
        <time>2020-10-05T08:49:26.227Z</time>
      </trkpt>
      <trkpt lat="51.171427" lon="4.820858">
        <ele>9.807820</ele>
        <time>2020-10-05T08:49:31.449Z</time>
      </trkpt>
      <trkpt lat="51.171575" lon="4.819662">
        <ele>9.302348</ele>
        <time>2020-10-05T08:49:41.236Z</time>
      </trkpt>
      <trkpt lat="51.171586" lon="4.819593">
        <ele>9.272828</ele>
        <time>2020-10-05T08:49:41.682Z</time>
      </trkpt>
      <trkpt lat="51.171704" lon="4.818834">
        <ele>8.948589</ele>
        <time>2020-10-05T08:49:47.853Z</time>
      </trkpt>
      <trkpt lat="51.172169" lon="4.816916">
        <ele>8.493059</ele>
        <time>2020-10-05T08:50:04.580Z</time>
      </trkpt>
      <trkpt lat="51.172321" lon="4.816172">
        <ele>8.350322</ele>
        <time>2020-10-05T08:50:11.973Z</time>
      </trkpt>
      <trkpt lat="51.172724" lon="4.814000">
        <ele>9.019902</ele>
        <time>2020-10-05T08:50:35.861Z</time>
      </trkpt>
      <trkpt lat="51.172741" lon="4.812164">
        <ele>9.825981</ele>
        <time>2020-10-05T08:50:57.518Z</time>
      </trkpt>
      <trkpt lat="51.172834" lon="4.811605">
        <ele>10.111766</ele>
        <time>2020-10-05T08:51:04.506Z</time>
      </trkpt>
      <trkpt lat="51.173033" lon="4.811007">
        <ele>10.446306</ele>
        <time>2020-10-05T08:51:12.629Z</time>
      </trkpt>
      <trkpt lat="51.173302" lon="4.809266">
        <ele>10.558857</ele>
        <time>2020-10-05T08:51:30.360Z</time>
      </trkpt>
      <trkpt lat="51.173338" lon="4.808503">
        <ele>10.365734</ele>
        <time>2020-10-05T08:51:36.603Z</time>
      </trkpt>
      <trkpt lat="51.173423" lon="4.808344">
        <ele>10.312996</ele>
        <time>2020-10-05T08:51:38.159Z</time>
      </trkpt>
      <trkpt lat="51.173531" lon="4.808099">
        <ele>10.237404</ele>
        <time>2020-10-05T08:51:40.750Z</time>
      </trkpt>
      <trkpt lat="51.173501" lon="4.807891">
        <ele>10.183535</ele>
        <time>2020-10-05T08:51:42.244Z</time>
      </trkpt>
      <trkpt lat="51.173512" lon="4.807564">
        <ele>10.100883</ele>
        <time>2020-10-05T08:51:45.061Z</time>
      </trkpt>
      <trkpt lat="51.173955" lon="4.806385">
        <ele>9.990946</ele>
        <time>2020-10-05T08:51:55.456Z</time>
      </trkpt>
      <trkpt lat="51.175605" lon="4.797208">
        <ele>9.632884</ele>
        <time>2020-10-05T08:53:25.550Z</time>
      </trkpt>
      <trkpt lat="51.177220" lon="4.787080">
        <ele>11.872474</ele>
        <time>2020-10-05T08:55:14.171Z</time>
      </trkpt>
      <trkpt lat="51.177645" lon="4.784162">
        <ele>11.571450</ele>
        <time>2020-10-05T08:55:38.909Z</time>
      </trkpt>
      <trkpt lat="51.178188" lon="4.779785">
        <ele>11.544675</ele>
        <time>2020-10-05T08:56:21.383Z</time>
      </trkpt>
      <trkpt lat="51.178419" lon="4.777553">
        <ele>11.739471</ele>
        <time>2020-10-05T08:56:43.950Z</time>
      </trkpt>
      <trkpt lat="51.178699" lon="4.774051">
        <ele>11.439399</ele>
        <time>2020-10-05T08:57:15.197Z</time>
      </trkpt>
      <trkpt lat="51.179382" lon="4.762706">
        <ele>10.845547</ele>
        <time>2020-10-05T08:58:59.050Z</time>
      </trkpt>
      <trkpt lat="51.179835" lon="4.754508">
        <ele>11.235248</ele>
        <time>2020-10-05T09:00:17.772Z</time>
      </trkpt>
      <trkpt lat="51.179995" lon="4.750727">
        <ele>10.250166</ele>
        <time>2020-10-05T09:00:52.179Z</time>
      </trkpt>
      <trkpt lat="51.180234" lon="4.747088">
        <ele>6.680184</ele>
        <time>2020-10-05T09:01:17.052Z</time>
      </trkpt>
      <trkpt lat="51.180241" lon="4.746969">
        <ele>6.573754</ele>
        <time>2020-10-05T09:01:17.758Z</time>
      </trkpt>
      <trkpt lat="51.180201" lon="4.746561">
        <ele>6.206032</ele>
        <time>2020-10-05T09:01:21.392Z</time>
      </trkpt>
      <trkpt lat="51.180300" lon="4.745418">
        <ele>5.448513</ele>
        <time>2020-10-05T09:01:31.035Z</time>
      </trkpt>
      <trkpt lat="51.180454" lon="4.743885">
        <ele>5.770442</ele>
        <time>2020-10-05T09:01:47.283Z</time>
      </trkpt>
      <trkpt lat="51.180588" lon="4.743478">
        <ele>5.865766</ele>
        <time>2020-10-05T09:01:52.711Z</time>
      </trkpt>
      <trkpt lat="51.180790" lon="4.741727">
        <ele>6.119811</ele>
        <time>2020-10-05T09:02:10.995Z</time>
      </trkpt>
      <trkpt lat="51.181016" lon="4.739704">
        <ele>6.411019</ele>
        <time>2020-10-05T09:02:29.554Z</time>
      </trkpt>
      <trkpt lat="51.181533" lon="4.735075">
        <ele>7.680087</ele>
        <time>2020-10-05T09:03:20.775Z</time>
      </trkpt>
      <trkpt lat="51.181565" lon="4.734780">
        <ele>7.750915</ele>
        <time>2020-10-05T09:03:23.655Z</time>
      </trkpt>
      <trkpt lat="51.182931" lon="4.722591">
        <ele>5.602686</ele>
        <time>2020-10-05T09:05:10.118Z</time>
      </trkpt>
      <trkpt lat="51.183007" lon="4.721928">
        <ele>5.681084</ele>
        <time>2020-10-05T09:05:16.495Z</time>
      </trkpt>
      <trkpt lat="51.183683" lon="4.715850">
        <ele>6.455749</ele>
        <time>2020-10-05T09:06:18.388Z</time>
      </trkpt>
      <trkpt lat="51.184347" lon="4.709892">
        <ele>7.184239</ele>
        <time>2020-10-05T09:07:17.479Z</time>
      </trkpt>
      <trkpt lat="51.184549" lon="4.708110">
        <ele>7.176242</ele>
        <time>2020-10-05T09:07:35.117Z</time>
      </trkpt>
      <trkpt lat="51.185211" lon="4.702232">
        <ele>6.493507</ele>
        <time>2020-10-05T09:08:26.372Z</time>
      </trkpt>
      <trkpt lat="51.186122" lon="4.694178">
        <ele>8.256368</ele>
        <time>2020-10-05T09:09:52.324Z</time>
      </trkpt>
      <trkpt lat="51.186265" lon="4.693146">
        <ele>8.266153</ele>
        <time>2020-10-05T09:10:01.816Z</time>
      </trkpt>
      <trkpt lat="51.186405" lon="4.692138">
        <ele>8.275711</ele>
        <time>2020-10-05T09:10:10.941Z</time>
      </trkpt>
      <trkpt lat="51.187202" lon="4.687545">
        <ele>8.172832</ele>
        <time>2020-10-05T09:10:55.897Z</time>
      </trkpt>
      <trkpt lat="51.188045" lon="4.683271">
        <ele>7.141212</ele>
        <time>2020-10-05T09:11:33.583Z</time>
      </trkpt>
      <trkpt lat="51.188333" lon="4.681815">
        <ele>6.801953</ele>
        <time>2020-10-05T09:11:46.626Z</time>
      </trkpt>
      <trkpt lat="51.190776" lon="4.669400">
        <ele>5.455588</ele>
        <time>2020-10-05T09:13:42.562Z</time>
      </trkpt>
      <trkpt lat="51.191702" lon="4.664864">
        <ele>6.122656</ele>
        <time>2020-10-05T09:14:29.932Z</time>
      </trkpt>
      <trkpt lat="51.191851" lon="4.664182">
        <ele>6.367277</ele>
        <time>2020-10-05T09:14:37.723Z</time>
      </trkpt>
      <trkpt lat="51.192362" lon="4.662058">
        <ele>7.291297</ele>
        <time>2020-10-05T09:15:03.220Z</time>
      </trkpt>
      <trkpt lat="51.192655" lon="4.660932">
        <ele>7.732044</ele>
        <time>2020-10-05T09:15:16.464Z</time>
      </trkpt>
      <trkpt lat="51.192831" lon="4.660258">
        <ele>7.993047</ele>
        <time>2020-10-05T09:15:24.301Z</time>
      </trkpt>
      <trkpt lat="51.192883" lon="4.660056">
        <ele>8.071108</ele>
        <time>2020-10-05T09:15:26.813Z</time>
      </trkpt>
      <trkpt lat="51.193015" lon="4.659829">
        <ele>8.181799</ele>
        <time>2020-10-05T09:15:31.045Z</time>
      </trkpt>
      <trkpt lat="51.193674" lon="4.657860">
        <ele>8.419723</ele>
        <time>2020-10-05T09:16:01.098Z</time>
      </trkpt>
      <trkpt lat="51.193935" lon="4.657624">
        <ele>8.436622</ele>
        <time>2020-10-05T09:16:06.848Z</time>
      </trkpt>
      <trkpt lat="51.193965" lon="4.657556">
        <ele>8.439558</ele>
        <time>2020-10-05T09:16:07.865Z</time>
      </trkpt>
      <trkpt lat="51.193925" lon="4.657522">
        <ele>8.442111</ele>
        <time>2020-10-05T09:16:08.723Z</time>
      </trkpt>
      <trkpt lat="51.193768" lon="4.657401">
        <ele>8.451932</ele>
        <time>2020-10-05T09:16:12.073Z</time>
      </trkpt>
      <trkpt lat="51.193671" lon="4.657335">
        <ele>8.457872</ele>
        <time>2020-10-05T09:16:14.081Z</time>
      </trkpt>
      <trkpt lat="51.193369" lon="4.657125">
        <ele>8.342734</ele>
        <time>2020-10-05T09:16:18.576Z</time>
      </trkpt>
      <trkpt lat="51.192826" lon="4.656759">
        <ele>8.110929</ele>
        <time>2020-10-05T09:16:26.572Z</time>
      </trkpt>
      <trkpt lat="51.192649" lon="4.656652">
        <ele>8.036496</ele>
        <time>2020-10-05T09:16:29.095Z</time>
      </trkpt>
      <trkpt lat="51.192481" lon="4.656541">
        <ele>7.964990</ele>
        <time>2020-10-05T09:16:31.573Z</time>
      </trkpt>
      <trkpt lat="51.192177" lon="4.656402">
        <ele>7.840630</ele>
        <time>2020-10-05T09:16:35.820Z</time>
      </trkpt>
      <trkpt lat="51.191767" lon="4.656248">
        <ele>7.677567</ele>
        <time>2020-10-05T09:16:41.504Z</time>
      </trkpt>
      <trkpt lat="51.191688" lon="4.656217">
        <ele>7.646641</ele>
        <time>2020-10-05T09:16:42.598Z</time>
      </trkpt>
      <trkpt lat="51.190739" lon="4.655751">
        <ele>7.269182</ele>
        <time>2020-10-05T09:16:56.138Z</time>
      </trkpt>
      <trkpt lat="51.190604" lon="4.655571">
        <ele>7.202302</ele>
        <time>2020-10-05T09:16:58.552Z</time>
      </trkpt>
      <trkpt lat="51.190444" lon="4.655459">
        <ele>7.135882</ele>
        <time>2020-10-05T09:17:00.859Z</time>
      </trkpt>
      <trkpt lat="51.190101" lon="4.655140">
        <ele>7.013455</ele>
        <time>2020-10-05T09:17:06.223Z</time>
      </trkpt>
      <trkpt lat="51.189912" lon="4.654862">
        <ele>6.949026</ele>
        <time>2020-10-05T09:17:09.664Z</time>
      </trkpt>
      <trkpt lat="51.189782" lon="4.654626">
        <ele>6.899670</ele>
        <time>2020-10-05T09:17:12.391Z</time>
      </trkpt>
      <trkpt lat="51.189655" lon="4.654341">
        <ele>6.844737</ele>
        <time>2020-10-05T09:17:15.355Z</time>
      </trkpt>
      <trkpt lat="51.189370" lon="4.653407">
        <ele>6.681552</ele>
        <time>2020-10-05T09:17:24.628Z</time>
      </trkpt>
      <trkpt lat="51.189279" lon="4.652853">
        <ele>6.626923</ele>
        <time>2020-10-05T09:17:29.857Z</time>
      </trkpt>
      <trkpt lat="51.189218" lon="4.652425">
        <ele>6.650940</ele>
        <time>2020-10-05T09:17:33.916Z</time>
      </trkpt>
      <trkpt lat="51.189155" lon="4.652040">
        <ele>6.672713</ele>
        <time>2020-10-05T09:17:37.612Z</time>
      </trkpt>
      <trkpt lat="51.189082" lon="4.651666">
        <ele>6.694147</ele>
        <time>2020-10-05T09:17:41.378Z</time>
      </trkpt>
      <trkpt lat="51.188749" lon="4.650134">
        <ele>6.786831</ele>
        <time>2020-10-05T09:17:57.338Z</time>
      </trkpt>
      <trkpt lat="51.188559" lon="4.649251">
        <ele>6.863020</ele>
        <time>2020-10-05T09:18:06.437Z</time>
      </trkpt>
      <trkpt lat="51.188502" lon="4.648890">
        <ele>6.893401</ele>
        <time>2020-10-05T09:18:10.003Z</time>
      </trkpt>
      <trkpt lat="51.188424" lon="4.647967">
        <ele>6.969407</ele>
        <time>2020-10-05T09:18:18.871Z</time>
      </trkpt>
      <trkpt lat="51.188424" lon="4.647677">
        <ele>6.993073</ele>
        <time>2020-10-05T09:18:21.636Z</time>
      </trkpt>
      <trkpt lat="51.188426" lon="4.647550">
        <ele>7.003441</ele>
        <time>2020-10-05T09:18:22.834Z</time>
      </trkpt>
      <trkpt lat="51.188480" lon="4.646031">
        <ele>7.066403</ele>
        <time>2020-10-05T09:18:37.283Z</time>
      </trkpt>
      <trkpt lat="51.188740" lon="4.639706">
        <ele>7.198070</ele>
        <time>2020-10-05T09:19:36.938Z</time>
      </trkpt>
      <trkpt lat="51.188742" lon="4.639365">
        <ele>7.203130</ele>
        <time>2020-10-05T09:19:40.171Z</time>
      </trkpt>
      <trkpt lat="51.188733" lon="4.639075">
        <ele>7.207437</ele>
        <time>2020-10-05T09:19:42.911Z</time>
      </trkpt>
      <trkpt lat="51.188384" lon="4.635042">
        <ele>7.239190</ele>
        <time>2020-10-05T09:20:21.164Z</time>
      </trkpt>
      <trkpt lat="51.188212" lon="4.633556">
        <ele>7.186918</ele>
        <time>2020-10-05T09:20:35.406Z</time>
      </trkpt>
      <trkpt lat="51.187982" lon="4.631831">
        <ele>6.764903</ele>
        <time>2020-10-05T09:20:50.452Z</time>
      </trkpt>
      <trkpt lat="51.187900" lon="4.631300">
        <ele>6.606977</ele>
        <time>2020-10-05T09:20:55.012Z</time>
      </trkpt>
      <trkpt lat="51.187785" lon="4.630592">
        <ele>6.395769</ele>
        <time>2020-10-05T09:21:01.029Z</time>
      </trkpt>
      <trkpt lat="51.187710" lon="4.630461">
        <ele>6.344073</ele>
        <time>2020-10-05T09:21:02.460Z</time>
      </trkpt>
      <trkpt lat="51.187048" lon="4.629587">
        <ele>5.847373</ele>
        <time>2020-10-05T09:21:13.363Z</time>
      </trkpt>
      <trkpt lat="51.186292" lon="4.628724">
        <ele>5.310023</ele>
        <time>2020-10-05T09:21:25.741Z</time>
      </trkpt>
      <trkpt lat="51.186224" lon="4.628664">
        <ele>5.285164</ele>
        <time>2020-10-05T09:21:26.717Z</time>
      </trkpt>
      <trkpt lat="51.186229" lon="4.628476">
        <ele>5.249926</ele>
        <time>2020-10-05T09:21:28.356Z</time>
      </trkpt>
      <trkpt lat="51.186305" lon="4.627954">
        <ele>5.149571</ele>
        <time>2020-10-05T09:21:32.943Z</time>
      </trkpt>
      <trkpt lat="51.186465" lon="4.627427">
        <ele>5.039915</ele>
        <time>2020-10-05T09:21:37.981Z</time>
      </trkpt>
      <trkpt lat="51.186515" lon="4.627264">
        <ele>5.005931</ele>
        <time>2020-10-05T09:21:39.587Z</time>
      </trkpt>
      <trkpt lat="51.186546" lon="4.627161">
        <ele>4.984535</ele>
        <time>2020-10-05T09:21:40.604Z</time>
      </trkpt>
      <trkpt lat="51.186647" lon="4.626777">
        <ele>4.906551</ele>
        <time>2020-10-05T09:21:44.175Z</time>
      </trkpt>
      <trkpt lat="51.186914" lon="4.625419">
        <ele>4.787387</ele>
        <time>2020-10-05T09:21:56.932Z</time>
      </trkpt>
      <trkpt lat="51.187466" lon="4.624019">
        <ele>4.830872</ele>
        <time>2020-10-05T09:22:12.515Z</time>
      </trkpt>
      <trkpt lat="51.187555" lon="4.623711">
        <ele>4.839788</ele>
        <time>2020-10-05T09:22:15.782Z</time>
      </trkpt>
      <trkpt lat="51.187599" lon="4.623512">
        <ele>4.848794</ele>
        <time>2020-10-05T09:22:17.986Z</time>
      </trkpt>
      <trkpt lat="51.187693" lon="4.622679">
        <ele>4.990481</ele>
        <time>2020-10-05T09:22:26.558Z</time>
      </trkpt>
      <trkpt lat="51.187643" lon="4.621861">
        <ele>5.128065</ele>
        <time>2020-10-05T09:22:34.892Z</time>
      </trkpt>
      <trkpt lat="51.187603" lon="4.621597">
        <ele>5.173532</ele>
        <time>2020-10-05T09:22:37.643Z</time>
      </trkpt>
      <trkpt lat="51.187535" lon="4.621289">
        <ele>5.228196</ele>
        <time>2020-10-05T09:22:40.950Z</time>
      </trkpt>
      <trkpt lat="51.187424" lon="4.620922">
        <ele>5.296412</ele>
        <time>2020-10-05T09:22:45.008Z</time>
      </trkpt>
      <trkpt lat="51.187333" lon="4.620690">
        <ele>5.330108</ele>
        <time>2020-10-05T09:22:47.642Z</time>
      </trkpt>
      <trkpt lat="51.187252" lon="4.620541">
        <ele>5.339787</ele>
        <time>2020-10-05T09:22:49.625Z</time>
      </trkpt>
      <trkpt lat="51.187200" lon="4.620426">
        <ele>5.346746</ele>
        <time>2020-10-05T09:22:50.949Z</time>
      </trkpt>
      <trkpt lat="51.186927" lon="4.619987">
        <ele>5.377093</ele>
        <time>2020-10-05T09:22:56.871Z</time>
      </trkpt>
      <trkpt lat="51.185616" lon="4.617977">
        <ele>5.617747</ele>
        <time>2020-10-05T09:23:24.049Z</time>
      </trkpt>
      <trkpt lat="51.183867" lon="4.615259">
        <ele>6.334211</ele>
        <time>2020-10-05T09:24:03.522Z</time>
      </trkpt>
      <trkpt lat="51.183410" lon="4.614315">
        <ele>6.626959</ele>
        <time>2020-10-05T09:24:15.942Z</time>
      </trkpt>
      <trkpt lat="51.181533" lon="4.609446">
        <ele>8.265023</ele>
        <time>2020-10-05T09:25:15.820Z</time>
      </trkpt>
      <trkpt lat="51.181187" lon="4.608778">
        <ele>8.475002</ele>
        <time>2020-10-05T09:25:24.868Z</time>
      </trkpt>
      <trkpt lat="51.180779" lon="4.608250">
        <ele>8.678090</ele>
        <time>2020-10-05T09:25:33.368Z</time>
      </trkpt>
      <trkpt lat="51.180633" lon="4.608093">
        <ele>8.746153</ele>
        <time>2020-10-05T09:25:36.250Z</time>
      </trkpt>
      <trkpt lat="51.180508" lon="4.607956">
        <ele>8.804779</ele>
        <time>2020-10-05T09:25:38.641Z</time>
      </trkpt>
      <trkpt lat="51.180498" lon="4.607948">
        <ele>8.809104</ele>
        <time>2020-10-05T09:25:38.832Z</time>
      </trkpt>
      <trkpt lat="51.180352" lon="4.607815">
        <ele>8.875272</ele>
        <time>2020-10-05T09:25:41.598Z</time>
      </trkpt>
      <trkpt lat="51.180045" lon="4.607315">
        <ele>9.058234</ele>
        <time>2020-10-05T09:25:48.743Z</time>
      </trkpt>
      <trkpt lat="51.179930" lon="4.606905">
        <ele>9.175655</ele>
        <time>2020-10-05T09:25:53.393Z</time>
      </trkpt>
      <trkpt lat="51.179892" lon="4.606455">
        <ele>9.294356</ele>
        <time>2020-10-05T09:25:58.051Z</time>
      </trkpt>
      <trkpt lat="51.179906" lon="4.606156">
        <ele>9.372738</ele>
        <time>2020-10-05T09:26:01.125Z</time>
      </trkpt>
      <trkpt lat="51.179941" lon="4.605939">
        <ele>9.431314</ele>
        <time>2020-10-05T09:26:03.455Z</time>
      </trkpt>
      <trkpt lat="51.179966" lon="4.605850">
        <ele>9.456809</ele>
        <time>2020-10-05T09:26:04.478Z</time>
      </trkpt>
      <trkpt lat="51.180335" lon="4.604720">
        <ele>9.884865</ele>
        <time>2020-10-05T09:26:17.921Z</time>
      </trkpt>
      <trkpt lat="51.180532" lon="4.604129">
        <ele>10.151838</ele>
        <time>2020-10-05T09:26:25.197Z</time>
      </trkpt>
      <trkpt lat="51.180725" lon="4.603566">
        <ele>10.407772</ele>
        <time>2020-10-05T09:26:32.424Z</time>
      </trkpt>
      <trkpt lat="51.180758" lon="4.603472">
        <ele>10.450743</ele>
        <time>2020-10-05T09:26:33.605Z</time>
      </trkpt>
      <trkpt lat="51.181000" lon="4.602812">
        <ele>10.755016</ele>
        <time>2020-10-05T09:26:42.261Z</time>
      </trkpt>
      <trkpt lat="51.181108" lon="4.602529">
        <ele>10.843311</ele>
        <time>2020-10-05T09:26:45.867Z</time>
      </trkpt>
      <trkpt lat="51.181195" lon="4.602329">
        <ele>10.908185</ele>
        <time>2020-10-05T09:26:48.596Z</time>
      </trkpt>
      <trkpt lat="51.181324" lon="4.601995">
        <ele>11.012733</ele>
        <time>2020-10-05T09:26:52.770Z</time>
      </trkpt>
      <trkpt lat="51.181342" lon="4.601799">
        <ele>11.065523</ele>
        <time>2020-10-05T09:26:54.904Z</time>
      </trkpt>
      <trkpt lat="51.181386" lon="4.601439">
        <ele>11.163267</ele>
        <time>2020-10-05T09:26:58.705Z</time>
      </trkpt>
      <trkpt lat="51.181500" lon="4.601086">
        <ele>11.269089</ele>
        <time>2020-10-05T09:27:02.718Z</time>
      </trkpt>
      <trkpt lat="51.181579" lon="4.600927">
        <ele>11.323157</ele>
        <time>2020-10-05T09:27:04.815Z</time>
      </trkpt>
      <trkpt lat="51.181658" lon="4.600745">
        <ele>11.382152</ele>
        <time>2020-10-05T09:27:07.020Z</time>
      </trkpt>
      <trkpt lat="51.181762" lon="4.600416">
        <ele>11.480344</ele>
        <time>2020-10-05T09:27:10.644Z</time>
      </trkpt>
      <trkpt lat="51.181812" lon="4.600175">
        <ele>11.510737</ele>
        <time>2020-10-05T09:27:13.087Z</time>
      </trkpt>
      <trkpt lat="51.181847" lon="4.599985">
        <ele>11.497348</ele>
        <time>2020-10-05T09:27:14.977Z</time>
      </trkpt>
      <trkpt lat="51.181890" lon="4.599740">
        <ele>11.480148</ele>
        <time>2020-10-05T09:27:17.428Z</time>
      </trkpt>
      <trkpt lat="51.181848" lon="4.598559">
        <ele>11.400176</ele>
        <time>2020-10-05T09:27:27.994Z</time>
      </trkpt>
      <trkpt lat="51.181664" lon="4.597069">
        <ele>11.249085</ele>
        <time>2020-10-05T09:27:41.376Z</time>
      </trkpt>
      <trkpt lat="51.181644" lon="4.596893">
        <ele>11.215131</ele>
        <time>2020-10-05T09:27:42.910Z</time>
      </trkpt>
      <trkpt lat="51.181625" lon="4.596750">
        <ele>11.187383</ele>
        <time>2020-10-05T09:27:44.212Z</time>
      </trkpt>
      <trkpt lat="51.181722" lon="4.595340">
        <ele>10.918120</ele>
        <time>2020-10-05T09:27:56.374Z</time>
      </trkpt>
      <trkpt lat="51.181730" lon="4.595213">
        <ele>10.893891</ele>
        <time>2020-10-05T09:27:57.445Z</time>
      </trkpt>
      <trkpt lat="51.181740" lon="4.595018">
        <ele>10.856751</ele>
        <time>2020-10-05T09:27:59.839Z</time>
      </trkpt>
      <trkpt lat="51.181767" lon="4.594833">
        <ele>10.820694</ele>
        <time>2020-10-05T09:28:02.187Z</time>
      </trkpt>
      <trkpt lat="51.181852" lon="4.594520">
        <ele>10.763345</ele>
        <time>2020-10-05T09:28:06.228Z</time>
      </trkpt>
      <trkpt lat="51.181913" lon="4.594367">
        <ele>10.739687</ele>
        <time>2020-10-05T09:28:08.563Z</time>
      </trkpt>
      <trkpt lat="51.181793" lon="4.594242">
        <ele>10.709857</ele>
        <time>2020-10-05T09:28:11.318Z</time>
      </trkpt>
      <trkpt lat="51.181609" lon="4.594129">
        <ele>10.668819</ele>
        <time>2020-10-05T09:28:15.187Z</time>
      </trkpt>
      <trkpt lat="51.181520" lon="4.594016">
        <ele>10.645144</ele>
        <time>2020-10-05T09:28:17.354Z</time>
      </trkpt>
      <trkpt lat="51.181497" lon="4.593990">
        <ele>10.639277</ele>
        <time>2020-10-05T09:28:17.906Z</time>
      </trkpt>
      <trkpt lat="51.181433" lon="4.593913">
        <ele>10.622592</ele>
        <time>2020-10-05T09:28:19.408Z</time>
      </trkpt>
      <trkpt lat="51.181229" lon="4.593670">
        <ele>10.569601</ele>
        <time>2020-10-05T09:28:24.379Z</time>
      </trkpt>
      <trkpt lat="51.181118" lon="4.593572">
        <ele>10.543195</ele>
        <time>2020-10-05T09:28:26.737Z</time>
      </trkpt>
      <trkpt lat="51.181118" lon="4.593423">
        <ele>10.523754</ele>
        <time>2020-10-05T09:28:28.137Z</time>
      </trkpt>
      <trkpt lat="51.180689" lon="4.591747">
        <ele>10.452159</ele>
        <time>2020-10-05T09:28:44.316Z</time>
      </trkpt>
      <trkpt lat="51.180404" lon="4.590646">
        <ele>10.514105</ele>
        <time>2020-10-05T09:28:55.877Z</time>
      </trkpt>
      <trkpt lat="51.179620" lon="4.587725">
        <ele>10.901621</ele>
        <time>2020-10-05T09:29:27.777Z</time>
      </trkpt>
      <trkpt lat="51.178798" lon="4.584735">
        <ele>10.960989</ele>
        <time>2020-10-05T09:29:58.338Z</time>
      </trkpt>
      <trkpt lat="51.177972" lon="4.583208">
        <ele>10.850642</ele>
        <time>2020-10-05T09:30:16.461Z</time>
      </trkpt>
      <trkpt lat="51.177785" lon="4.582886">
        <ele>10.825786</ele>
        <time>2020-10-05T09:30:20.486Z</time>
      </trkpt>
      <trkpt lat="51.177604" lon="4.582582">
        <ele>10.802044</ele>
        <time>2020-10-05T09:30:24.232Z</time>
      </trkpt>
      <trkpt lat="51.177641" lon="4.582496">
        <ele>10.798311</ele>
        <time>2020-10-05T09:30:25.602Z</time>
      </trkpt>
      <trkpt lat="51.177530" lon="4.582296">
        <ele>10.798363</ele>
        <time>2020-10-05T09:30:28.005Z</time>
      </trkpt>
      <trkpt lat="51.177489" lon="4.582213">
        <ele>10.798384</ele>
        <time>2020-10-05T09:30:28.925Z</time>
      </trkpt>
      <trkpt lat="51.177395" lon="4.582013">
        <ele>10.798433</ele>
        <time>2020-10-05T09:30:31.325Z</time>
      </trkpt>
      <trkpt lat="51.174155" lon="4.571873">
        <ele>10.766371</ele>
        <time>2020-10-05T09:32:17.376Z</time>
      </trkpt>
      <trkpt lat="51.172895" lon="4.564670">
        <ele>10.429881</ele>
        <time>2020-10-05T09:33:25.591Z</time>
      </trkpt>
      <trkpt lat="51.172861" lon="4.564030">
        <ele>10.410551</ele>
        <time>2020-10-05T09:33:31.654Z</time>
      </trkpt>
      <trkpt lat="51.172891" lon="4.563635">
        <ele>10.427725</ele>
        <time>2020-10-05T09:33:35.323Z</time>
      </trkpt>
      <trkpt lat="51.172836" lon="4.563623">
        <ele>10.431547</ele>
        <time>2020-10-05T09:33:36.511Z</time>
      </trkpt>
      <trkpt lat="51.172852" lon="4.563394">
        <ele>10.441492</ele>
        <time>2020-10-05T09:33:38.732Z</time>
      </trkpt>
      <trkpt lat="51.172882" lon="4.563369">
        <ele>10.443822</ele>
        <time>2020-10-05T09:33:39.215Z</time>
      </trkpt>
      <trkpt lat="51.172906" lon="4.563332">
        <ele>10.446120</ele>
        <time>2020-10-05T09:33:39.693Z</time>
      </trkpt>
      <trkpt lat="51.172922" lon="4.563286">
        <ele>10.448391</ele>
        <time>2020-10-05T09:33:40.173Z</time>
      </trkpt>
      <trkpt lat="51.172930" lon="4.563233">
        <ele>10.450744</ele>
        <time>2020-10-05T09:33:40.669Z</time>
      </trkpt>
      <trkpt lat="51.172927" lon="4.563180">
        <ele>10.453040</ele>
        <time>2020-10-05T09:33:41.187Z</time>
      </trkpt>
      <trkpt lat="51.172914" lon="4.563130">
        <ele>10.455377</ele>
        <time>2020-10-05T09:33:41.725Z</time>
      </trkpt>
      <trkpt lat="51.172890" lon="4.563083">
        <ele>10.457993</ele>
        <time>2020-10-05T09:33:42.326Z</time>
      </trkpt>
      <trkpt lat="51.172858" lon="4.563052">
        <ele>10.460571</ele>
        <time>2020-10-05T09:33:42.926Z</time>
      </trkpt>
      <trkpt lat="51.172820" lon="4.563040">
        <ele>10.463237</ele>
        <time>2020-10-05T09:33:43.492Z</time>
      </trkpt>
      <trkpt lat="51.172782" lon="4.562906">
        <ele>10.469585</ele>
        <time>2020-10-05T09:33:44.849Z</time>
      </trkpt>
      <trkpt lat="51.172760" lon="4.562830">
        <ele>10.473198</ele>
        <time>2020-10-05T09:33:45.609Z</time>
      </trkpt>
      <trkpt lat="51.172702" lon="4.562612">
        <ele>10.483420</ele>
        <time>2020-10-05T09:33:47.912Z</time>
      </trkpt>
      <trkpt lat="51.172678" lon="4.562428">
        <ele>10.491532</ele>
        <time>2020-10-05T09:33:49.699Z</time>
      </trkpt>
      <trkpt lat="51.172654" lon="4.562226">
        <ele>10.500406</ele>
        <time>2020-10-05T09:33:51.570Z</time>
      </trkpt>
      <trkpt lat="51.172679" lon="4.562000">
        <ele>10.510311</ele>
        <time>2020-10-05T09:33:53.861Z</time>
      </trkpt>
      <trkpt lat="51.172950" lon="4.559931">
        <ele>10.596386</ele>
        <time>2020-10-05T09:34:14.494Z</time>
      </trkpt>
      <trkpt lat="51.173083" lon="4.558868">
        <ele>10.639756</ele>
        <time>2020-10-05T09:34:24.468Z</time>
      </trkpt>
      <trkpt lat="51.173204" lon="4.557921">
        <ele>10.521373</ele>
        <time>2020-10-05T09:34:33.114Z</time>
      </trkpt>
      <trkpt lat="51.173308" lon="4.557071">
        <ele>10.389735</ele>
        <time>2020-10-05T09:34:40.731Z</time>
      </trkpt>
      <trkpt lat="51.173258" lon="4.556471">
        <ele>10.297733</ele>
        <time>2020-10-05T09:34:45.971Z</time>
      </trkpt>
      <trkpt lat="51.172357" lon="4.553665">
        <ele>9.888525</ele>
        <time>2020-10-05T09:35:13.669Z</time>
      </trkpt>
      <trkpt lat="51.172289" lon="4.553398">
        <ele>9.852558</ele>
        <time>2020-10-05T09:35:16.315Z</time>
      </trkpt>
      <trkpt lat="51.172256" lon="4.553168">
        <ele>9.860627</ele>
        <time>2020-10-05T09:35:18.557Z</time>
      </trkpt>
      <trkpt lat="51.172286" lon="4.549955">
        <ele>10.022420</ele>
        <time>2020-10-05T09:35:49.146Z</time>
      </trkpt>
      <trkpt lat="51.172429" lon="4.548451">
        <ele>10.175416</ele>
        <time>2020-10-05T09:36:03.715Z</time>
      </trkpt>
      <trkpt lat="51.172540" lon="4.547808">
        <ele>10.242492</ele>
        <time>2020-10-05T09:36:10.259Z</time>
      </trkpt>
      <trkpt lat="51.172557" lon="4.547699">
        <ele>10.254830</ele>
        <time>2020-10-05T09:36:11.459Z</time>
      </trkpt>
      <trkpt lat="51.172760" lon="4.546584">
        <ele>10.627573</ele>
        <time>2020-10-05T09:36:23.222Z</time>
      </trkpt>
      <trkpt lat="51.172897" lon="4.545697">
        <ele>10.920845</ele>
        <time>2020-10-05T09:36:33.110Z</time>
      </trkpt>
      <trkpt lat="51.172917" lon="4.545484">
        <ele>10.989988</ele>
        <time>2020-10-05T09:36:35.709Z</time>
      </trkpt>
      <trkpt lat="51.172923" lon="4.545057">
        <ele>11.127105</ele>
        <time>2020-10-05T09:36:42.000Z</time>
      </trkpt>
      <trkpt lat="51.172907" lon="4.544490">
        <ele>11.243650</ele>
        <time>2020-10-05T09:36:50.164Z</time>
      </trkpt>
      <trkpt lat="51.172839" lon="4.543331">
        <ele>11.435613</ele>
        <time>2020-10-05T09:37:06.108Z</time>
      </trkpt>
      <trkpt lat="51.172826" lon="4.543067">
        <ele>11.479283</ele>
        <time>2020-10-05T09:37:09.687Z</time>
      </trkpt>
      <trkpt lat="51.172828" lon="4.543032">
        <ele>11.485078</ele>
        <time>2020-10-05T09:37:10.153Z</time>
      </trkpt>
      <trkpt lat="51.172908" lon="4.541774">
        <ele>11.590558</ele>
        <time>2020-10-05T09:37:26.162Z</time>
      </trkpt>
      <trkpt lat="51.173002" lon="4.540874">
        <ele>11.405607</ele>
        <time>2020-10-05T09:37:37.112Z</time>
      </trkpt>
      <trkpt lat="51.173148" lon="4.540226">
        <ele>11.266029</ele>
        <time>2020-10-05T09:37:45.006Z</time>
      </trkpt>
      <trkpt lat="51.174508" lon="4.536165">
        <ele>10.454172</ele>
        <time>2020-10-05T09:38:39.895Z</time>
      </trkpt>
      <trkpt lat="51.174513" lon="4.535960">
        <ele>10.466308</ele>
        <time>2020-10-05T09:38:42.539Z</time>
      </trkpt>
      <trkpt lat="51.174501" lon="4.535893">
        <ele>10.470430</ele>
        <time>2020-10-05T09:38:43.420Z</time>
      </trkpt>
      <trkpt lat="51.174418" lon="4.535814">
        <ele>10.479549</ele>
        <time>2020-10-05T09:38:44.919Z</time>
      </trkpt>
      <trkpt lat="51.174376" lon="4.535575">
        <ele>10.494232</ele>
        <time>2020-10-05T09:38:47.372Z</time>
      </trkpt>
      <trkpt lat="51.174362" lon="4.535463">
        <ele>10.500988</ele>
        <time>2020-10-05T09:38:48.457Z</time>
      </trkpt>
      <trkpt lat="51.174233" lon="4.533944">
        <ele>10.630990</ele>
        <time>2020-10-05T09:39:04.013Z</time>
      </trkpt>
      <trkpt lat="51.173980" lon="4.530983">
        <ele>11.364661</ele>
        <time>2020-10-05T09:39:35.040Z</time>
      </trkpt>
      <trkpt lat="51.173757" lon="4.529710">
        <ele>11.609668</ele>
        <time>2020-10-05T09:39:48.727Z</time>
      </trkpt>
      <trkpt lat="51.173717" lon="4.529504">
        <ele>11.649642</ele>
        <time>2020-10-05T09:39:50.737Z</time>
      </trkpt>
      <trkpt lat="51.173684" lon="4.529319">
        <ele>11.685296</ele>
        <time>2020-10-05T09:39:52.916Z</time>
      </trkpt>
      <trkpt lat="51.173479" lon="4.528359">
        <ele>11.808434</ele>
        <time>2020-10-05T09:40:02.590Z</time>
      </trkpt>
      <trkpt lat="51.173338" lon="4.527603">
        <ele>11.695899</ele>
        <time>2020-10-05T09:40:09.991Z</time>
      </trkpt>
      <trkpt lat="51.173319" lon="4.527456">
        <ele>11.674484</ele>
        <time>2020-10-05T09:40:11.288Z</time>
      </trkpt>
      <trkpt lat="51.172644" lon="4.524724">
        <ele>11.327358</ele>
        <time>2020-10-05T09:40:36.088Z</time>
      </trkpt>
      <trkpt lat="51.172578" lon="4.524461">
        <ele>11.303841</ele>
        <time>2020-10-05T09:40:38.393Z</time>
      </trkpt>
      <trkpt lat="51.172529" lon="4.524260">
        <ele>11.285937</ele>
        <time>2020-10-05T09:40:40.389Z</time>
      </trkpt>
      <trkpt lat="51.171856" lon="4.520677">
        <ele>11.675396</ele>
        <time>2020-10-05T09:41:17.590Z</time>
      </trkpt>
      <trkpt lat="51.171651" lon="4.519575">
        <ele>11.905404</ele>
        <time>2020-10-05T09:41:29.920Z</time>
      </trkpt>
      <trkpt lat="51.171638" lon="4.519476">
        <ele>11.926034</ele>
        <time>2020-10-05T09:41:30.899Z</time>
      </trkpt>
      <trkpt lat="51.171546" lon="4.518874">
        <ele>12.052416</ele>
        <time>2020-10-05T09:41:37.222Z</time>
      </trkpt>
      <trkpt lat="51.171368" lon="4.517910">
        <ele>12.257387</ele>
        <time>2020-10-05T09:41:47.342Z</time>
      </trkpt>
      <trkpt lat="51.171190" lon="4.516984">
        <ele>12.413482</ele>
        <time>2020-10-05T09:41:56.962Z</time>
      </trkpt>
      <trkpt lat="51.170892" lon="4.515441">
        <ele>12.644518</ele>
        <time>2020-10-05T09:42:12.957Z</time>
      </trkpt>
      <trkpt lat="51.170863" lon="4.515329">
        <ele>12.661857</ele>
        <time>2020-10-05T09:42:14.132Z</time>
      </trkpt>
      <trkpt lat="51.170849" lon="4.515286">
        <ele>12.668791</ele>
        <time>2020-10-05T09:42:14.635Z</time>
      </trkpt>
      <trkpt lat="51.170801" lon="4.515144">
        <ele>12.691875</ele>
        <time>2020-10-05T09:42:16.132Z</time>
      </trkpt>
      <trkpt lat="51.170470" lon="4.514184">
        <ele>12.836489</ele>
        <time>2020-10-05T09:42:26.720Z</time>
      </trkpt>
      <trkpt lat="51.170156" lon="4.513261">
        <ele>12.971794</ele>
        <time>2020-10-05T09:42:37.263Z</time>
      </trkpt>
      <trkpt lat="51.169985" lon="4.512772">
        <ele>13.043938</ele>
        <time>2020-10-05T09:42:42.795Z</time>
      </trkpt>
      <trkpt lat="51.169781" lon="4.512311">
        <ele>13.113293</ele>
        <time>2020-10-05T09:42:48.328Z</time>
      </trkpt>
      <trkpt lat="51.169425" lon="4.511529">
        <ele>13.217467</ele>
        <time>2020-10-05T09:42:57.779Z</time>
      </trkpt>
      <trkpt lat="51.168119" lon="4.508848">
        <ele>13.517284</ele>
        <time>2020-10-05T09:43:30.717Z</time>
      </trkpt>
      <trkpt lat="51.167970" lon="4.508261">
        <ele>13.560188</ele>
        <time>2020-10-05T09:43:36.766Z</time>
      </trkpt>
      <trkpt lat="51.167798" lon="4.506701">
        <ele>13.695504</ele>
        <time>2020-10-05T09:43:51.430Z</time>
      </trkpt>
      <trkpt lat="51.167765" lon="4.506528">
        <ele>13.712816</ele>
        <time>2020-10-05T09:43:53.236Z</time>
      </trkpt>
      <trkpt lat="51.167738" lon="4.506417">
        <ele>13.724215</ele>
        <time>2020-10-05T09:43:54.246Z</time>
      </trkpt>
      <trkpt lat="51.167635" lon="4.505988">
        <ele>13.768194</ele>
        <time>2020-10-05T09:43:58.897Z</time>
      </trkpt>
      <trkpt lat="51.167621" lon="4.505936">
        <ele>13.773612</ele>
        <time>2020-10-05T09:43:59.368Z</time>
      </trkpt>
      <trkpt lat="51.167312" lon="4.504711">
        <ele>13.964530</ele>
        <time>2020-10-05T09:44:12.705Z</time>
      </trkpt>
      <trkpt lat="51.167246" lon="4.504413">
        <ele>14.070735</ele>
        <time>2020-10-05T09:44:16.200Z</time>
      </trkpt>
      <trkpt lat="51.167193" lon="4.504154">
        <ele>14.162289</ele>
        <time>2020-10-05T09:44:19.019Z</time>
      </trkpt>
      <trkpt lat="51.167118" lon="4.503758">
        <ele>14.301301</ele>
        <time>2020-10-05T09:44:24.815Z</time>
      </trkpt>
      <trkpt lat="51.166992" lon="4.502672">
        <ele>14.672444</ele>
        <time>2020-10-05T09:44:40.563Z</time>
      </trkpt>
      <trkpt lat="51.166984" lon="4.502463">
        <ele>14.742809</ele>
        <time>2020-10-05T09:44:43.583Z</time>
      </trkpt>
      <trkpt lat="51.166957" lon="4.502131">
        <ele>14.855080</ele>
        <time>2020-10-05T09:44:48.369Z</time>
      </trkpt>
      <trkpt lat="51.166737" lon="4.499574">
        <ele>15.710623</ele>
        <time>2020-10-05T09:45:24.023Z</time>
      </trkpt>
      <trkpt lat="51.166686" lon="4.498453">
        <ele>16.154279</ele>
        <time>2020-10-05T09:45:40.732Z</time>
      </trkpt>
      <trkpt lat="51.166681" lon="4.498300">
        <ele>16.217340</ele>
        <time>2020-10-05T09:45:43.101Z</time>
      </trkpt>
      <trkpt lat="51.166418" lon="4.497103">
        <ele>16.739399</ele>
        <time>2020-10-05T09:46:00.965Z</time>
      </trkpt>
      <trkpt lat="51.166383" lon="4.496748">
        <ele>16.887314</ele>
        <time>2020-10-05T09:46:06.142Z</time>
      </trkpt>
      <trkpt lat="51.166357" lon="4.496459">
        <ele>16.981009</ele>
        <time>2020-10-05T09:46:10.407Z</time>
      </trkpt>
      <trkpt lat="51.166460" lon="4.496261">
        <ele>17.012676</ele>
        <time>2020-10-05T09:46:14.119Z</time>
      </trkpt>
      <trkpt lat="51.166797" lon="4.495909">
        <ele>17.091756</ele>
        <time>2020-10-05T09:46:21.069Z</time>
      </trkpt>
      <trkpt lat="51.166931" lon="4.495745">
        <ele>17.124913</ele>
        <time>2020-10-05T09:46:23.861Z</time>
      </trkpt>
      <trkpt lat="51.167517" lon="4.494990">
        <ele>17.272794</ele>
        <time>2020-10-05T09:46:35.510Z</time>
      </trkpt>
      <trkpt lat="51.167590" lon="4.494849">
        <ele>17.295301</ele>
        <time>2020-10-05T09:46:37.070Z</time>
      </trkpt>
      <trkpt lat="51.167621" lon="4.494786">
        <ele>17.305158</ele>
        <time>2020-10-05T09:46:37.701Z</time>
      </trkpt>
      <trkpt lat="51.167653" lon="4.494698">
        <ele>17.317679</ele>
        <time>2020-10-05T09:46:38.510Z</time>
      </trkpt>
      <trkpt lat="51.167694" lon="4.494627">
        <ele>17.302508</ele>
        <time>2020-10-05T09:46:39.272Z</time>
      </trkpt>
      <trkpt lat="51.167863" lon="4.494333">
        <ele>17.155543</ele>
        <time>2020-10-05T09:46:42.372Z</time>
      </trkpt>
      <trkpt lat="51.168365" lon="4.493334">
        <ele>16.683817</ele>
        <time>2020-10-05T09:46:52.929Z</time>
      </trkpt>
      <trkpt lat="51.168626" lon="4.492699">
        <ele>16.404049</ele>
        <time>2020-10-05T09:46:59.153Z</time>
      </trkpt>
      <trkpt lat="51.168661" lon="4.492631">
        <ele>16.371633</ele>
        <time>2020-10-05T09:46:59.813Z</time>
      </trkpt>
      <trkpt lat="51.168677" lon="4.492600">
        <ele>16.356838</ele>
        <time>2020-10-05T09:47:00.092Z</time>
      </trkpt>
      <trkpt lat="51.168809" lon="4.492580">
        <ele>16.278920</ele>
        <time>2020-10-05T09:47:01.952Z</time>
      </trkpt>
      <trkpt lat="51.168860" lon="4.492588">
        <ele>16.253187</ele>
        <time>2020-10-05T09:47:02.579Z</time>
      </trkpt>
      <trkpt lat="51.168869" lon="4.492474">
        <ele>16.221750</ele>
        <time>2020-10-05T09:47:03.607Z</time>
      </trkpt>
      <trkpt lat="51.168878" lon="4.492329">
        <ele>16.181883</ele>
        <time>2020-10-05T09:47:05.209Z</time>
      </trkpt>
      <trkpt lat="51.168865" lon="4.492230">
        <ele>16.154208</ele>
        <time>2020-10-05T09:47:06.401Z</time>
      </trkpt>
      <trkpt lat="51.168972" lon="4.491673">
        <ele>15.994816</ele>
        <time>2020-10-05T09:47:13.162Z</time>
      </trkpt>
      <trkpt lat="51.169182" lon="4.490209">
        <ele>15.583908</ele>
        <time>2020-10-05T09:47:30.745Z</time>
      </trkpt>
      <trkpt lat="51.169340" lon="4.487000">
        <ele>15.117173</ele>
        <time>2020-10-05T09:48:10.192Z</time>
      </trkpt>
      <trkpt lat="51.169326" lon="4.485866">
        <ele>15.168771</ele>
        <time>2020-10-05T09:48:24.440Z</time>
      </trkpt>
      <trkpt lat="51.169206" lon="4.484973">
        <ele>15.214018</ele>
        <time>2020-10-05T09:48:36.357Z</time>
      </trkpt>
      <trkpt lat="51.169084" lon="4.484369">
        <ele>15.245456</ele>
        <time>2020-10-05T09:48:44.722Z</time>
      </trkpt>
      <trkpt lat="51.168959" lon="4.483803">
        <ele>15.345030</ele>
        <time>2020-10-05T09:48:50.697Z</time>
      </trkpt>
      <trkpt lat="51.168193" lon="4.480370">
        <ele>16.285214</ele>
        <time>2020-10-05T09:49:28.582Z</time>
      </trkpt>
      <trkpt lat="51.168065" lon="4.479172">
        <ele>16.672210</ele>
        <time>2020-10-05T09:49:41.695Z</time>
      </trkpt>
      <trkpt lat="51.168056" lon="4.478931">
        <ele>16.749091</ele>
        <time>2020-10-05T09:49:44.226Z</time>
      </trkpt>
      <trkpt lat="51.168055" lon="4.478803">
        <ele>16.789856</ele>
        <time>2020-10-05T09:49:45.563Z</time>
      </trkpt>
      <trkpt lat="51.168057" lon="4.478671">
        <ele>16.828862</ele>
        <time>2020-10-05T09:49:47.081Z</time>
      </trkpt>
      <trkpt lat="51.168073" lon="4.478411">
        <ele>16.841972</ele>
        <time>2020-10-05T09:49:49.752Z</time>
      </trkpt>
      <trkpt lat="51.168105" lon="4.477986">
        <ele>16.863453</ele>
        <time>2020-10-05T09:49:54.321Z</time>
      </trkpt>
      <trkpt lat="51.168074" lon="4.477979">
        <ele>16.865958</ele>
        <time>2020-10-05T09:49:54.835Z</time>
      </trkpt>
      <trkpt lat="51.168091" lon="4.477771">
        <ele>16.876484</ele>
        <time>2020-10-05T09:49:56.960Z</time>
      </trkpt>
      <trkpt lat="51.168107" lon="4.477583">
        <ele>16.886005</ele>
        <time>2020-10-05T09:49:59.033Z</time>
      </trkpt>
      <trkpt lat="51.168377" lon="4.474581">
        <ele>16.659629</ele>
        <time>2020-10-05T09:50:25.737Z</time>
      </trkpt>
      <trkpt lat="51.168414" lon="4.474238">
        <ele>16.576847</ele>
        <time>2020-10-05T09:50:28.579Z</time>
      </trkpt>
      <trkpt lat="51.168443" lon="4.473930">
        <ele>16.502767</ele>
        <time>2020-10-05T09:50:31.161Z</time>
      </trkpt>
      <trkpt lat="51.168455" lon="4.473811">
        <ele>16.474099</ele>
        <time>2020-10-05T09:50:32.161Z</time>
      </trkpt>
      <trkpt lat="51.168504" lon="4.473323">
        <ele>16.356548</ele>
        <time>2020-10-05T09:50:36.274Z</time>
      </trkpt>
      <trkpt lat="51.168519" lon="4.473220">
        <ele>16.331397</ele>
        <time>2020-10-05T09:50:37.166Z</time>
      </trkpt>
      <trkpt lat="51.168553" lon="4.472955">
        <ele>16.275846</ele>
        <time>2020-10-05T09:50:39.424Z</time>
      </trkpt>
      <trkpt lat="51.168577" lon="4.472960">
        <ele>16.270187</ele>
        <time>2020-10-05T09:50:39.880Z</time>
      </trkpt>
      <trkpt lat="51.168866" lon="4.470092">
        <ele>15.885512</ele>
        <time>2020-10-05T09:51:05.462Z</time>
      </trkpt>
      <trkpt lat="51.168819" lon="4.470079">
        <ele>15.892654</ele>
        <time>2020-10-05T09:51:06.455Z</time>
      </trkpt>
      <trkpt lat="51.168824" lon="4.470021">
        <ele>15.898150</ele>
        <time>2020-10-05T09:51:07.019Z</time>
      </trkpt>
      <trkpt lat="51.168846" lon="4.469774">
        <ele>15.921570</ele>
        <time>2020-10-05T09:51:09.298Z</time>
      </trkpt>
      <trkpt lat="51.168884" lon="4.469425">
        <ele>15.954822</ele>
        <time>2020-10-05T09:51:12.845Z</time>
      </trkpt>
      <trkpt lat="51.168908" lon="4.469254">
        <ele>15.971272</ele>
        <time>2020-10-05T09:51:14.457Z</time>
      </trkpt>
      <trkpt lat="51.168923" lon="4.469165">
        <ele>15.979923</ele>
        <time>2020-10-05T09:51:15.363Z</time>
      </trkpt>
      <trkpt lat="51.168925" lon="4.469148">
        <ele>15.981547</ele>
        <time>2020-10-05T09:51:15.533Z</time>
      </trkpt>
      <trkpt lat="51.168935" lon="4.469057">
        <ele>15.990220</ele>
        <time>2020-10-05T09:51:16.494Z</time>
      </trkpt>
      <trkpt lat="51.168980" lon="4.468600">
        <ele>16.033646</ele>
        <time>2020-10-05T09:51:21.134Z</time>
      </trkpt>
      <trkpt lat="51.168991" lon="4.468396">
        <ele>16.052867</ele>
        <time>2020-10-05T09:51:23.243Z</time>
      </trkpt>
      <trkpt lat="51.168996" lon="4.468313">
        <ele>16.060694</ele>
        <time>2020-10-05T09:51:24.033Z</time>
      </trkpt>
      <trkpt lat="51.169002" lon="4.468221">
        <ele>16.069377</ele>
        <time>2020-10-05T09:51:24.895Z</time>
      </trkpt>
      <trkpt lat="51.169013" lon="4.468084">
        <ele>16.082343</ele>
        <time>2020-10-05T09:51:26.161Z</time>
      </trkpt>
      <trkpt lat="51.169051" lon="4.467693">
        <ele>16.119486</ele>
        <time>2020-10-05T09:51:30.215Z</time>
      </trkpt>
      <trkpt lat="51.169175" lon="4.466394">
        <ele>16.416739</ele>
        <time>2020-10-05T09:51:43.317Z</time>
      </trkpt>
      <trkpt lat="51.169184" lon="4.466307">
        <ele>16.438843</ele>
        <time>2020-10-05T09:51:44.511Z</time>
      </trkpt>
      <trkpt lat="51.169203" lon="4.466118">
        <ele>16.486828</ele>
        <time>2020-10-05T09:51:46.378Z</time>
      </trkpt>
      <trkpt lat="51.169230" lon="4.465850">
        <ele>16.554873</ele>
        <time>2020-10-05T09:51:49.078Z</time>
      </trkpt>
      <trkpt lat="51.169261" lon="4.465548">
        <ele>16.631587</ele>
        <time>2020-10-05T09:51:52.497Z</time>
      </trkpt>
      <trkpt lat="51.169304" lon="4.465134">
        <ele>16.736785</ele>
        <time>2020-10-05T09:51:58.447Z</time>
      </trkpt>
      <trkpt lat="51.169345" lon="4.464730">
        <ele>16.839379</ele>
        <time>2020-10-05T09:52:02.513Z</time>
      </trkpt>
      <trkpt lat="51.169356" lon="4.464620">
        <ele>16.868062</ele>
        <time>2020-10-05T09:52:03.882Z</time>
      </trkpt>
      <trkpt lat="51.169405" lon="4.464143">
        <ele>16.998933</ele>
        <time>2020-10-05T09:52:08.672Z</time>
      </trkpt>
      <trkpt lat="51.169438" lon="4.463820">
        <ele>17.087540</ele>
        <time>2020-10-05T09:52:12.123Z</time>
      </trkpt>
      <trkpt lat="51.169505" lon="4.463164">
        <ele>17.267495</ele>
        <time>2020-10-05T09:52:18.844Z</time>
      </trkpt>
      <trkpt lat="51.169526" lon="4.462961">
        <ele>17.323201</ele>
        <time>2020-10-05T09:52:20.974Z</time>
      </trkpt>
      <trkpt lat="51.169541" lon="4.462812">
        <ele>17.364060</ele>
        <time>2020-10-05T09:52:22.523Z</time>
      </trkpt>
      <trkpt lat="51.169546" lon="4.462766">
        <ele>17.376700</ele>
        <time>2020-10-05T09:52:22.994Z</time>
      </trkpt>
      <trkpt lat="51.169596" lon="4.462282">
        <ele>17.509511</ele>
        <time>2020-10-05T09:52:28.260Z</time>
      </trkpt>
      <trkpt lat="51.169775" lon="4.460342">
        <ele>17.818247</ele>
        <time>2020-10-05T09:52:48.912Z</time>
      </trkpt>
      <trkpt lat="51.169838" lon="4.459728">
        <ele>17.894499</ele>
        <time>2020-10-05T09:52:54.966Z</time>
      </trkpt>
      <trkpt lat="51.169851" lon="4.459599">
        <ele>17.910511</ele>
        <time>2020-10-05T09:52:56.182Z</time>
      </trkpt>
      <trkpt lat="51.169924" lon="4.458882">
        <ele>17.972618</ele>
        <time>2020-10-05T09:53:02.479Z</time>
      </trkpt>
      <trkpt lat="51.170031" lon="4.457821">
        <ele>17.841072</ele>
        <time>2020-10-05T09:53:11.927Z</time>
      </trkpt>
      <trkpt lat="51.170062" lon="4.457499">
        <ele>17.801195</ele>
        <time>2020-10-05T09:53:14.743Z</time>
      </trkpt>
      <trkpt lat="51.170091" lon="4.457245">
        <ele>17.769592</ele>
        <time>2020-10-05T09:53:17.012Z</time>
      </trkpt>
      <trkpt lat="51.170105" lon="4.457125">
        <ele>17.754651</ele>
        <time>2020-10-05T09:53:17.980Z</time>
      </trkpt>
      <trkpt lat="51.170111" lon="4.457029">
        <ele>17.742841</ele>
        <time>2020-10-05T09:53:18.796Z</time>
      </trkpt>
      <trkpt lat="51.170214" lon="4.455932">
        <ele>17.685241</ele>
        <time>2020-10-05T09:53:28.757Z</time>
      </trkpt>
      <trkpt lat="51.170223" lon="4.455827">
        <ele>17.708665</ele>
        <time>2020-10-05T09:53:29.785Z</time>
      </trkpt>
      <trkpt lat="51.170232" lon="4.455732">
        <ele>17.729900</ele>
        <time>2020-10-05T09:53:30.756Z</time>
      </trkpt>
      <trkpt lat="51.170322" lon="4.454734">
        <ele>17.952753</ele>
        <time>2020-10-05T09:53:40.964Z</time>
      </trkpt>
      <trkpt lat="51.170365" lon="4.454413">
        <ele>18.025303</ele>
        <time>2020-10-05T09:53:44.668Z</time>
      </trkpt>
      <trkpt lat="51.170422" lon="4.453733">
        <ele>18.176936</ele>
        <time>2020-10-05T09:53:52.306Z</time>
      </trkpt>
      <trkpt lat="51.170428" lon="4.453578">
        <ele>18.211260</ele>
        <time>2020-10-05T09:53:54.072Z</time>
      </trkpt>
      <trkpt lat="51.170459" lon="4.453399">
        <ele>18.252305</ele>
        <time>2020-10-05T09:53:56.207Z</time>
      </trkpt>
      <trkpt lat="51.170474" lon="4.453280">
        <ele>18.263012</ele>
        <time>2020-10-05T09:53:57.399Z</time>
      </trkpt>
      <trkpt lat="51.170497" lon="4.452991">
        <ele>18.225356</ele>
        <time>2020-10-05T09:54:00.259Z</time>
      </trkpt>
      <trkpt lat="51.170578" lon="4.452252">
        <ele>18.128383</ele>
        <time>2020-10-05T09:54:07.280Z</time>
      </trkpt>
      <trkpt lat="51.170582" lon="4.452216">
        <ele>18.123658</ele>
        <time>2020-10-05T09:54:07.549Z</time>
      </trkpt>
      <trkpt lat="51.170693" lon="4.451015">
        <ele>17.966738</ele>
        <time>2020-10-05T09:54:17.894Z</time>
      </trkpt>
      <trkpt lat="51.170723" lon="4.450780">
        <ele>17.935739</ele>
        <time>2020-10-05T09:54:19.878Z</time>
      </trkpt>
      <trkpt lat="51.170740" lon="4.450647">
        <ele>17.918194</ele>
        <time>2020-10-05T09:54:21.019Z</time>
      </trkpt>
      <trkpt lat="51.170759" lon="4.450528">
        <ele>17.902321</ele>
        <time>2020-10-05T09:54:22.072Z</time>
      </trkpt>
      <trkpt lat="51.170778" lon="4.450284">
        <ele>17.830883</ele>
        <time>2020-10-05T09:54:24.006Z</time>
      </trkpt>
      <trkpt lat="51.170829" lon="4.449761">
        <ele>17.664239</ele>
        <time>2020-10-05T09:54:28.292Z</time>
      </trkpt>
      <trkpt lat="51.170833" lon="4.449720">
        <ele>17.651175</ele>
        <time>2020-10-05T09:54:28.584Z</time>
      </trkpt>
      <trkpt lat="51.170849" lon="4.449554">
        <ele>17.598297</ele>
        <time>2020-10-05T09:54:29.924Z</time>
      </trkpt>
      <trkpt lat="51.170855" lon="4.449426">
        <ele>17.557884</ele>
        <time>2020-10-05T09:54:31.018Z</time>
      </trkpt>
      <trkpt lat="51.170860" lon="4.449269">
        <ele>17.508390</ele>
        <time>2020-10-05T09:54:32.308Z</time>
      </trkpt>
      <trkpt lat="51.170885" lon="4.449193">
        <ele>17.481368</ele>
        <time>2020-10-05T09:54:33.249Z</time>
      </trkpt>
      <trkpt lat="51.170899" lon="4.449158">
        <ele>17.468297</ele>
        <time>2020-10-05T09:54:33.677Z</time>
      </trkpt>
      <trkpt lat="51.170964" lon="4.448995">
        <ele>17.407477</ele>
        <time>2020-10-05T09:54:35.862Z</time>
      </trkpt>
      <trkpt lat="51.171246" lon="4.448454">
        <ele>17.185972</ele>
        <time>2020-10-05T09:54:43.972Z</time>
      </trkpt>
      <trkpt lat="51.171291" lon="4.448353">
        <ele>17.146962</ele>
        <time>2020-10-05T09:54:45.419Z</time>
      </trkpt>
      <trkpt lat="51.172334" lon="4.446710">
        <ele>16.687316</ele>
        <time>2020-10-05T09:55:14.532Z</time>
      </trkpt>
      <trkpt lat="51.172425" lon="4.446555">
        <ele>16.652104</ele>
        <time>2020-10-05T09:55:17.049Z</time>
      </trkpt>
      <trkpt lat="51.172745" lon="4.445913">
        <ele>16.510775</ele>
        <time>2020-10-05T09:55:26.675Z</time>
      </trkpt>
      <trkpt lat="51.172751" lon="4.445674">
        <ele>16.404516</ele>
        <time>2020-10-05T09:55:28.717Z</time>
      </trkpt>
      <trkpt lat="51.172749" lon="4.445621">
        <ele>16.380929</ele>
        <time>2020-10-05T09:55:29.176Z</time>
      </trkpt>
      <trkpt lat="51.172747" lon="4.445481">
        <ele>16.318719</ele>
        <time>2020-10-05T09:55:30.452Z</time>
      </trkpt>
      <trkpt lat="51.172747" lon="4.444774">
        <ele>16.004641</ele>
        <time>2020-10-05T09:55:38.439Z</time>
      </trkpt>
      <trkpt lat="51.172743" lon="4.444493">
        <ele>15.879777</ele>
        <time>2020-10-05T09:55:41.641Z</time>
      </trkpt>
      <trkpt lat="51.172720" lon="4.444407">
        <ele>15.838242</ele>
        <time>2020-10-05T09:55:42.703Z</time>
      </trkpt>
      <trkpt lat="51.172734" lon="4.443551">
        <ele>15.457843</ele>
        <time>2020-10-05T09:55:52.130Z</time>
      </trkpt>
      <trkpt lat="51.172722" lon="4.443372">
        <ele>15.377870</ele>
        <time>2020-10-05T09:55:54.198Z</time>
      </trkpt>
      <trkpt lat="51.172700" lon="4.443103">
        <ele>15.257357</ele>
        <time>2020-10-05T09:55:57.125Z</time>
      </trkpt>
      <trkpt lat="51.172670" lon="4.442847">
        <ele>15.176740</ele>
        <time>2020-10-05T09:56:00.002Z</time>
      </trkpt>
      <trkpt lat="51.172637" lon="4.442495">
        <ele>15.072373</ele>
        <time>2020-10-05T09:56:03.851Z</time>
      </trkpt>
      <trkpt lat="51.172628" lon="4.442293">
        <ele>15.012990</ele>
        <time>2020-10-05T09:56:06.300Z</time>
      </trkpt>
      <trkpt lat="51.172628" lon="4.441954">
        <ele>14.913582</ele>
        <time>2020-10-05T09:56:10.213Z</time>
      </trkpt>
      <trkpt lat="51.172665" lon="4.441105">
        <ele>14.664023</ele>
        <time>2020-10-05T09:56:20.600Z</time>
      </trkpt>
      <trkpt lat="51.172756" lon="4.439325">
        <ele>14.247783</ele>
        <time>2020-10-05T09:56:42.171Z</time>
      </trkpt>
      <trkpt lat="51.172904" lon="4.437763">
        <ele>13.973593</ele>
        <time>2020-10-05T09:57:01.618Z</time>
      </trkpt>
      <trkpt lat="51.173288" lon="4.436188">
        <ele>13.518732</ele>
        <time>2020-10-05T09:57:21.236Z</time>
      </trkpt>
      <trkpt lat="51.173321" lon="4.435930">
        <ele>13.440277</ele>
        <time>2020-10-05T09:57:24.181Z</time>
      </trkpt>
      <trkpt lat="51.173372" lon="4.435373">
        <ele>13.272556</ele>
        <time>2020-10-05T09:57:30.693Z</time>
      </trkpt>
      <trkpt lat="51.173410" lon="4.434671">
        <ele>13.062615</ele>
        <time>2020-10-05T09:57:38.999Z</time>
      </trkpt>
      <trkpt lat="51.173494" lon="4.434191">
        <ele>13.063893</ele>
        <time>2020-10-05T09:57:44.944Z</time>
      </trkpt>
      <trkpt lat="51.173498" lon="4.434027">
        <ele>13.068524</ele>
        <time>2020-10-05T09:57:47.005Z</time>
      </trkpt>
      <trkpt lat="51.173556" lon="4.432711">
        <ele>13.105746</ele>
        <time>2020-10-05T09:58:03.407Z</time>
      </trkpt>
      <trkpt lat="51.173501" lon="4.431650">
        <ele>13.171022</ele>
        <time>2020-10-05T09:58:18.155Z</time>
      </trkpt>
      <trkpt lat="51.173434" lon="4.430375">
        <ele>13.533046</ele>
        <time>2020-10-05T09:58:36.767Z</time>
      </trkpt>
      <trkpt lat="51.173427" lon="4.430276">
        <ele>13.561235</ele>
        <time>2020-10-05T09:58:38.257Z</time>
      </trkpt>
      <trkpt lat="51.173346" lon="4.429001">
        <ele>13.923842</ele>
        <time>2020-10-05T09:58:55.559Z</time>
      </trkpt>
      <trkpt lat="51.173333" lon="4.428763">
        <ele>13.934495</ele>
        <time>2020-10-05T09:58:58.692Z</time>
      </trkpt>
      <trkpt lat="51.173322" lon="4.428574">
        <ele>13.924267</ele>
        <time>2020-10-05T09:59:01.160Z</time>
      </trkpt>
      <trkpt lat="51.173256" lon="4.427547">
        <ele>13.868637</ele>
        <time>2020-10-05T09:59:14.511Z</time>
      </trkpt>
      <trkpt lat="51.173266" lon="4.427389">
        <ele>13.860080</ele>
        <time>2020-10-05T09:59:16.436Z</time>
      </trkpt>
      <trkpt lat="51.173279" lon="4.427198">
        <ele>13.849727</ele>
        <time>2020-10-05T09:59:18.812Z</time>
      </trkpt>
      <trkpt lat="51.173565" lon="4.426171">
        <ele>13.789174</ele>
        <time>2020-10-05T09:59:32.267Z</time>
      </trkpt>
      <trkpt lat="51.173595" lon="4.426054">
        <ele>13.798343</ele>
        <time>2020-10-05T09:59:33.756Z</time>
      </trkpt>
      <trkpt lat="51.173641" lon="4.425931">
        <ele>13.809153</ele>
        <time>2020-10-05T09:59:35.492Z</time>
      </trkpt>
      <trkpt lat="51.173623" lon="4.425901">
        <ele>13.812287</ele>
        <time>2020-10-05T09:59:35.971Z</time>
      </trkpt>
      <trkpt lat="51.173606" lon="4.425871">
        <ele>13.815339</ele>
        <time>2020-10-05T09:59:36.476Z</time>
      </trkpt>
      <trkpt lat="51.173589" lon="4.425841">
        <ele>13.818391</ele>
        <time>2020-10-05T09:59:36.969Z</time>
      </trkpt>
      <trkpt lat="51.173591" lon="4.425739">
        <ele>13.826094</ele>
        <time>2020-10-05T09:59:38.197Z</time>
      </trkpt>
      <trkpt lat="51.173588" lon="4.425608">
        <ele>13.835988</ele>
        <time>2020-10-05T09:59:39.785Z</time>
      </trkpt>
      <trkpt lat="51.173580" lon="4.425429">
        <ele>13.849533</ele>
        <time>2020-10-05T09:59:42.007Z</time>
      </trkpt>
      <trkpt lat="51.173574" lon="4.425320">
        <ele>13.857792</ele>
        <time>2020-10-05T09:59:43.356Z</time>
      </trkpt>
      <trkpt lat="51.173580" lon="4.425294">
        <ele>13.859884</ele>
        <time>2020-10-05T09:59:43.693Z</time>
      </trkpt>
      <trkpt lat="51.173590" lon="4.425253">
        <ele>13.863204</ele>
        <time>2020-10-05T09:59:44.234Z</time>
      </trkpt>
      <trkpt lat="51.173602" lon="4.425143">
        <ele>13.871632</ele>
        <time>2020-10-05T09:59:45.623Z</time>
      </trkpt>
      <trkpt lat="51.173585" lon="4.424994">
        <ele>13.883063</ele>
        <time>2020-10-05T09:59:47.507Z</time>
      </trkpt>
      <trkpt lat="51.173554" lon="4.424866">
        <ele>13.893420</ele>
        <time>2020-10-05T09:59:49.263Z</time>
      </trkpt>
      <trkpt lat="51.173538" lon="4.424701">
        <ele>13.906022</ele>
        <time>2020-10-05T09:59:51.516Z</time>
      </trkpt>
      <trkpt lat="51.173368" lon="4.421782">
        <ele>14.734072</ele>
        <time>2020-10-05T10:00:32.424Z</time>
      </trkpt>
      <trkpt lat="51.173263" lon="4.419117">
        <ele>15.629636</ele>
        <time>2020-10-05T10:01:12.917Z</time>
      </trkpt>
      <trkpt lat="51.173216" lon="4.417570">
        <ele>15.930328</ele>
        <time>2020-10-05T10:01:32.467Z</time>
      </trkpt>
      <trkpt lat="51.173227" lon="4.415209">
        <ele>15.006855</ele>
        <time>2020-10-05T10:01:58.788Z</time>
      </trkpt>
      <trkpt lat="51.173231" lon="4.412783">
        <ele>14.728287</ele>
        <time>2020-10-05T10:02:27.495Z</time>
      </trkpt>
      <trkpt lat="51.173237" lon="4.411247">
        <ele>14.994600</ele>
        <time>2020-10-05T10:02:49.481Z</time>
      </trkpt>
      <trkpt lat="51.173236" lon="4.410595">
        <ele>15.297683</ele>
        <time>2020-10-05T10:02:59.034Z</time>
      </trkpt>
      <trkpt lat="51.173232" lon="4.409580">
        <ele>15.769514</ele>
        <time>2020-10-05T10:03:13.982Z</time>
      </trkpt>
      <trkpt lat="51.173269" lon="4.408296">
        <ele>16.270711</ele>
        <time>2020-10-05T10:03:33.464Z</time>
      </trkpt>
      <trkpt lat="51.173394" lon="4.406949">
        <ele>16.731924</ele>
        <time>2020-10-05T10:03:52.069Z</time>
      </trkpt>
      <trkpt lat="51.173469" lon="4.406469">
        <ele>16.899478</ele>
        <time>2020-10-05T10:03:58.822Z</time>
      </trkpt>
      <trkpt lat="51.173668" lon="4.405371">
        <ele>17.032112</ele>
        <time>2020-10-05T10:04:14.157Z</time>
      </trkpt>
      <trkpt lat="51.173698" lon="4.405330">
        <ele>17.035516</ele>
        <time>2020-10-05T10:04:14.951Z</time>
      </trkpt>
      <trkpt lat="51.173733" lon="4.405042">
        <ele>17.051365</ele>
        <time>2020-10-05T10:04:18.597Z</time>
      </trkpt>
      <trkpt lat="51.173754" lon="4.404661">
        <ele>17.072028</ele>
        <time>2020-10-05T10:04:23.528Z</time>
      </trkpt>
      <trkpt lat="51.174064" lon="4.403412">
        <ele>17.151971</ele>
        <time>2020-10-05T10:04:39.979Z</time>
      </trkpt>
      <trkpt lat="51.174150" lon="4.403128">
        <ele>17.190683</ele>
        <time>2020-10-05T10:04:44.296Z</time>
      </trkpt>
      <trkpt lat="51.174171" lon="4.403057">
        <ele>17.200318</ele>
        <time>2020-10-05T10:04:45.360Z</time>
      </trkpt>
      <trkpt lat="51.174299" lon="4.402646">
        <ele>17.256646</ele>
        <time>2020-10-05T10:04:51.869Z</time>
      </trkpt>
      <trkpt lat="51.174440" lon="4.402160">
        <ele>17.322376</ele>
        <time>2020-10-05T10:04:59.393Z</time>
      </trkpt>
      <trkpt lat="51.174528" lon="4.401815">
        <ele>17.368092</ele>
        <time>2020-10-05T10:05:04.343Z</time>
      </trkpt>
      <trkpt lat="51.174537" lon="4.401782">
        <ele>17.372509</ele>
        <time>2020-10-05T10:05:04.808Z</time>
      </trkpt>
      <trkpt lat="51.174586" lon="4.401813">
        <ele>17.382829</ele>
        <time>2020-10-05T10:05:05.827Z</time>
      </trkpt>
      <trkpt lat="51.174594" lon="4.401794">
        <ele>17.385638</ele>
        <time>2020-10-05T10:05:06.059Z</time>
      </trkpt>
      <trkpt lat="51.174624" lon="4.401640">
        <ele>17.405432</ele>
        <time>2020-10-05T10:05:07.702Z</time>
      </trkpt>
      <trkpt lat="51.174638" lon="4.401568">
        <ele>17.414684</ele>
        <time>2020-10-05T10:05:08.483Z</time>
      </trkpt>
      <trkpt lat="51.174835" lon="4.400629">
        <ele>17.396352</ele>
        <time>2020-10-05T10:05:17.562Z</time>
      </trkpt>
      <trkpt lat="51.174888" lon="4.400364">
        <ele>17.325052</ele>
        <time>2020-10-05T10:05:20.305Z</time>
      </trkpt>
      <trkpt lat="51.174951" lon="4.400072">
        <ele>17.245895</ele>
        <time>2020-10-05T10:05:23.055Z</time>
      </trkpt>
      <trkpt lat="51.174999" lon="4.399848">
        <ele>17.185216</ele>
        <time>2020-10-05T10:05:25.372Z</time>
      </trkpt>
      <trkpt lat="51.175035" lon="4.399663">
        <ele>17.135563</ele>
        <time>2020-10-05T10:05:27.001Z</time>
      </trkpt>
      <trkpt lat="51.175598" lon="4.396814">
        <ele>15.885511</ele>
        <time>2020-10-05T10:05:50.801Z</time>
      </trkpt>
      <trkpt lat="51.175702" lon="4.396515">
        <ele>15.687793</ele>
        <time>2020-10-05T10:05:53.345Z</time>
      </trkpt>
      <trkpt lat="51.175820" lon="4.396388">
        <ele>15.556502</ele>
        <time>2020-10-05T10:05:55.194Z</time>
      </trkpt>
      <trkpt lat="51.175911" lon="4.396288">
        <ele>15.454580</ele>
        <time>2020-10-05T10:05:56.443Z</time>
      </trkpt>
      <trkpt lat="51.175826" lon="4.396105">
        <ele>15.322887</ele>
        <time>2020-10-05T10:05:58.248Z</time>
      </trkpt>
      <trkpt lat="51.175747" lon="4.395974">
        <ele>15.217783</ele>
        <time>2020-10-05T10:05:59.720Z</time>
      </trkpt>
      <trkpt lat="51.175748" lon="4.395886">
        <ele>15.166890</ele>
        <time>2020-10-05T10:06:00.579Z</time>
      </trkpt>
      <trkpt lat="51.175759" lon="4.395718">
        <ele>15.068548</ele>
        <time>2020-10-05T10:06:02.394Z</time>
      </trkpt>
      <trkpt lat="51.175890" lon="4.395369">
        <ele>14.827587</ele>
        <time>2020-10-05T10:06:06.724Z</time>
      </trkpt>
      <trkpt lat="51.175852" lon="4.395094">
        <ele>14.660774</ele>
        <time>2020-10-05T10:06:09.730Z</time>
      </trkpt>
      <trkpt lat="51.175882" lon="4.394929">
        <ele>14.559005</ele>
        <time>2020-10-05T10:06:11.702Z</time>
      </trkpt>
      <trkpt lat="51.175732" lon="4.394351">
        <ele>14.188437</ele>
        <time>2020-10-05T10:06:18.545Z</time>
      </trkpt>
      <trkpt lat="51.175811" lon="4.394194">
        <ele>14.069183</ele>
        <time>2020-10-05T10:06:20.668Z</time>
      </trkpt>
      <trkpt lat="51.176042" lon="4.394136">
        <ele>13.848228</ele>
        <time>2020-10-05T10:06:24.905Z</time>
      </trkpt>
      <trkpt lat="51.176115" lon="4.394023">
        <ele>13.752112</ele>
        <time>2020-10-05T10:06:26.644Z</time>
      </trkpt>
      <trkpt lat="51.176053" lon="4.393338">
        <ele>13.380167</ele>
        <time>2020-10-05T10:06:34.366Z</time>
      </trkpt>
      <trkpt lat="51.176118" lon="4.393320">
        <ele>13.360945</ele>
        <time>2020-10-05T10:06:35.531Z</time>
      </trkpt>
      <trkpt lat="51.176547" lon="4.393203">
        <ele>13.234139</ele>
        <time>2020-10-05T10:06:43.666Z</time>
      </trkpt>
      <trkpt lat="51.176349" lon="4.391954">
        <ele>12.998818</ele>
        <time>2020-10-05T10:06:55.124Z</time>
      </trkpt>
      <trkpt lat="51.176319" lon="4.391630">
        <ele>12.938994</ele>
        <time>2020-10-05T10:06:58.179Z</time>
      </trkpt>
      <trkpt lat="51.176422" lon="4.391423">
        <ele>12.890722</ele>
        <time>2020-10-05T10:07:00.868Z</time>
      </trkpt>
      <trkpt lat="51.176556" lon="4.390268">
        <ele>12.725035</ele>
        <time>2020-10-05T10:07:11.419Z</time>
      </trkpt>
      <trkpt lat="51.176517" lon="4.390212">
        <ele>12.713540</ele>
        <time>2020-10-05T10:07:12.480Z</time>
      </trkpt>
      <trkpt lat="51.176607" lon="4.389392">
        <ele>12.599217</ele>
        <time>2020-10-05T10:07:22.471Z</time>
      </trkpt>
      <trkpt lat="51.176757" lon="4.388005">
        <ele>12.376146</ele>
        <time>2020-10-05T10:07:39.303Z</time>
      </trkpt>
      <trkpt lat="51.176846" lon="4.387272">
        <ele>12.231869</ele>
        <time>2020-10-05T10:07:47.856Z</time>
      </trkpt>
      <trkpt lat="51.176892" lon="4.387258">
        <ele>12.217434</ele>
        <time>2020-10-05T10:07:48.642Z</time>
      </trkpt>
      <trkpt lat="51.176981" lon="4.386221">
        <ele>12.015175</ele>
        <time>2020-10-05T10:07:57.719Z</time>
      </trkpt>
      <trkpt lat="51.177000" lon="4.385525">
        <ele>12.017125</ele>
        <time>2020-10-05T10:08:04.235Z</time>
      </trkpt>
      <trkpt lat="51.176975" lon="4.385240">
        <ele>12.133672</ele>
        <time>2020-10-05T10:08:07.195Z</time>
      </trkpt>
      <trkpt lat="51.176999" lon="4.384813">
        <ele>12.307296</ele>
        <time>2020-10-05T10:08:11.614Z</time>
      </trkpt>
      <trkpt lat="51.177015" lon="4.384429">
        <ele>12.463155</ele>
        <time>2020-10-05T10:08:16.265Z</time>
      </trkpt>
      <trkpt lat="51.177122" lon="4.383619">
        <ele>12.798399</ele>
        <time>2020-10-05T10:08:25.822Z</time>
      </trkpt>
      <trkpt lat="51.177241" lon="4.383073">
        <ele>13.032505</ele>
        <time>2020-10-05T10:08:32.717Z</time>
      </trkpt>
      <trkpt lat="51.177284" lon="4.382905">
        <ele>13.087846</ele>
        <time>2020-10-05T10:08:35.049Z</time>
      </trkpt>
      <trkpt lat="51.177296" lon="4.382856">
        <ele>13.089220</ele>
        <time>2020-10-05T10:08:35.665Z</time>
      </trkpt>
      <trkpt lat="51.177339" lon="4.382867">
        <ele>13.091033</ele>
        <time>2020-10-05T10:08:36.405Z</time>
      </trkpt>
      <trkpt lat="51.177375" lon="4.382856">
        <ele>13.092560</ele>
        <time>2020-10-05T10:08:36.994Z</time>
      </trkpt>
      <trkpt lat="51.177406" lon="4.382827">
        <ele>13.094057</ele>
        <time>2020-10-05T10:08:37.577Z</time>
      </trkpt>
      <trkpt lat="51.177426" lon="4.382797">
        <ele>13.095200</ele>
        <time>2020-10-05T10:08:38.052Z</time>
      </trkpt>
      <trkpt lat="51.177445" lon="4.382734">
        <ele>13.097026</ele>
        <time>2020-10-05T10:08:38.814Z</time>
      </trkpt>
      <trkpt lat="51.177449" lon="4.382679">
        <ele>13.098471</ele>
        <time>2020-10-05T10:08:39.441Z</time>
      </trkpt>
      <trkpt lat="51.177442" lon="4.382624">
        <ele>13.099937</ele>
        <time>2020-10-05T10:08:40.105Z</time>
      </trkpt>
      <trkpt lat="51.177429" lon="4.382584">
        <ele>13.101113</ele>
        <time>2020-10-05T10:08:40.662Z</time>
      </trkpt>
      <trkpt lat="51.177411" lon="4.382551">
        <ele>13.102255</ele>
        <time>2020-10-05T10:08:41.193Z</time>
      </trkpt>
      <trkpt lat="51.177380" lon="4.382517">
        <ele>13.103822</ele>
        <time>2020-10-05T10:08:41.835Z</time>
      </trkpt>
      <trkpt lat="51.177359" lon="4.382509">
        <ele>13.104721</ele>
        <time>2020-10-05T10:08:42.183Z</time>
      </trkpt>
      <trkpt lat="51.177329" lon="4.382505">
        <ele>13.105975</ele>
        <time>2020-10-05T10:08:42.608Z</time>
      </trkpt>
      <trkpt lat="51.177296" lon="4.382511">
        <ele>13.107358</ele>
        <time>2020-10-05T10:08:43.105Z</time>
      </trkpt>
      <trkpt lat="51.177257" lon="4.382497">
        <ele>13.109023</ele>
        <time>2020-10-05T10:08:43.711Z</time>
      </trkpt>
      <trkpt lat="51.177213" lon="4.382481">
        <ele>13.110903</ele>
        <time>2020-10-05T10:08:44.441Z</time>
      </trkpt>
      <trkpt lat="51.176930" lon="4.382381">
        <ele>13.122975</ele>
        <time>2020-10-05T10:08:48.690Z</time>
      </trkpt>
      <trkpt lat="51.176902" lon="4.382347">
        <ele>13.124440</ele>
        <time>2020-10-05T10:08:49.197Z</time>
      </trkpt>
      <trkpt lat="51.176867" lon="4.382236">
        <ele>13.127685</ele>
        <time>2020-10-05T10:08:50.345Z</time>
      </trkpt>
      <trkpt lat="51.176768" lon="4.381668">
        <ele>13.143078</ele>
        <time>2020-10-05T10:08:55.575Z</time>
      </trkpt>
      <trkpt lat="51.176674" lon="4.381100">
        <ele>13.158416</ele>
        <time>2020-10-05T10:09:00.557Z</time>
      </trkpt>
      <trkpt lat="51.176643" lon="4.380922">
        <ele>13.161506</ele>
        <time>2020-10-05T10:09:02.003Z</time>
      </trkpt>
      <trkpt lat="51.176609" lon="4.380840">
        <ele>13.161506</ele>
        <time>2020-10-05T10:09:02.767Z</time>
      </trkpt>
      <trkpt lat="51.176590" lon="4.380589">
        <ele>13.161506</ele>
        <time>2020-10-05T10:09:04.929Z</time>
      </trkpt>
      <trkpt lat="51.176615" lon="4.380318">
        <ele>13.161506</ele>
        <time>2020-10-05T10:09:07.032Z</time>
      </trkpt>
      <trkpt lat="51.176686" lon="4.379580">
        <ele>13.161506</ele>
        <time>2020-10-05T10:09:12.807Z</time>
      </trkpt>
      <trkpt lat="51.176710" lon="4.379338">
        <ele>13.161506</ele>
        <time>2020-10-05T10:09:14.711Z</time>
      </trkpt>
      <trkpt lat="51.176307" lon="4.379242">
        <ele>13.161506</ele>
        <time>2020-10-05T10:09:28.550Z</time>
      </trkpt>
    </trkseg>
  </trk>
</gpx>
